<?xml version='1.0' encoding='UTF-8'?>
<gpx version="1.1" creator="https://www.komoot.de" xmlns="http://www.topografix.com/GPX/1/1" xmlns:xsi="http://www.w3.org/2001/XMLSchema-instance" xsi:schemaLocation="http://www.topografix.com/GPX/1/1 http://www.topografix.com/GPX/1/1/gpx.xsd">
  <metadata>
    <name>Utrecht - Naarden - Almere Paddle and Ride</name>
    <author>
      <link href="https://www.komoot.de">
        <text>komoot</text>
        <type>text/html</type>
      </link>
    </author>
  </metadata>
  <trk>
    <name>Utrecht - Naarden - Almere Paddle and Ride</name>
    <type>touring_bicycle</type>
    <trkseg>
      <trkpt lat="52.088930" lon="5.109459">
        <ele>14.091941</ele>
        <time>2026-08-29T07:44:29.938Z</time>
      </trkpt>
      <trkpt lat="52.088929" lon="5.109862">
        <ele>14.091941</ele>
        <time>2026-08-29T07:49:53.918Z</time>
      </trkpt>
      <trkpt lat="52.089020" lon="5.109863">
        <ele>14.091941</ele>
        <time>2026-08-29T07:50:10.917Z</time>
      </trkpt>
      <trkpt lat="52.089098" lon="5.109935">
        <ele>14.091941</ele>
        <time>2026-08-29T07:50:18.917Z</time>
      </trkpt>
      <trkpt lat="52.089178" lon="5.110045">
        <ele>14.091941</ele>
        <time>2026-08-29T07:50:23.920Z</time>
      </trkpt>
      <trkpt lat="52.089234" lon="5.110202">
        <ele>14.091941</ele>
        <time>2026-08-29T07:50:27.920Z</time>
      </trkpt>
      <trkpt lat="52.089281" lon="5.110333">
        <ele>14.091941</ele>
        <time>2026-08-29T07:50:31.918Z</time>
      </trkpt>
      <trkpt lat="52.089328" lon="5.110468">
        <ele>14.091941</ele>
        <time>2026-08-29T07:50:35.922Z</time>
      </trkpt>
      <trkpt lat="52.089391" lon="5.110577">
        <ele>14.012277</ele>
        <time>2026-08-29T07:50:39.916Z</time>
      </trkpt>
      <trkpt lat="52.089488" lon="5.110653">
        <ele>13.679076</ele>
        <time>2026-08-29T07:50:43.917Z</time>
      </trkpt>
      <trkpt lat="52.089570" lon="5.110729">
        <ele>13.387011</ele>
        <time>2026-08-29T07:50:47.919Z</time>
      </trkpt>
      <trkpt lat="52.089652" lon="5.110873">
        <ele>13.013643</ele>
        <time>2026-08-29T07:50:51.916Z</time>
      </trkpt>
      <trkpt lat="52.089738" lon="5.110924">
        <ele>12.730346</ele>
        <time>2026-08-29T07:50:57.917Z</time>
      </trkpt>
      <trkpt lat="52.089825" lon="5.110981">
        <ele>12.440075</ele>
        <time>2026-08-29T07:51:12.915Z</time>
      </trkpt>
      <trkpt lat="52.089886" lon="5.111096">
        <ele>12.151158</ele>
        <time>2026-08-29T07:51:26.917Z</time>
      </trkpt>
      <trkpt lat="52.089988" lon="5.111109">
        <ele>11.834493</ele>
        <time>2026-08-29T07:51:39.920Z</time>
      </trkpt>
      <trkpt lat="52.090064" lon="5.111014">
        <ele>11.537896</ele>
        <time>2026-08-29T07:51:45.915Z</time>
      </trkpt>
      <trkpt lat="52.090142" lon="5.110939">
        <ele>11.257496</ele>
        <time>2026-08-29T07:51:50.919Z</time>
      </trkpt>
      <trkpt lat="52.090236" lon="5.110916">
        <ele>10.963289</ele>
        <time>2026-08-29T07:52:11.916Z</time>
      </trkpt>
      <trkpt lat="52.090324" lon="5.110847">
        <ele>10.660962</ele>
        <time>2026-08-29T07:52:19.920Z</time>
      </trkpt>
      <trkpt lat="52.090409" lon="5.110787">
        <ele>10.374203</ele>
        <time>2026-08-29T07:52:23.918Z</time>
      </trkpt>
      <trkpt lat="52.090514" lon="5.110759">
        <ele>10.044886</ele>
        <time>2026-08-29T07:52:27.918Z</time>
      </trkpt>
      <trkpt lat="52.090610" lon="5.110685">
        <ele>9.716118</ele>
        <time>2026-08-29T07:52:31.919Z</time>
      </trkpt>
      <trkpt lat="52.090706" lon="5.110629">
        <ele>9.400483</ele>
        <time>2026-08-29T07:52:35.921Z</time>
      </trkpt>
      <trkpt lat="52.090797" lon="5.110569">
        <ele>9.096596</ele>
        <time>2026-08-29T07:52:38.921Z</time>
      </trkpt>
      <trkpt lat="52.090894" lon="5.110571">
        <ele>8.796349</ele>
        <time>2026-08-29T07:52:41.918Z</time>
      </trkpt>
      <trkpt lat="52.091002" lon="5.110507">
        <ele>8.442208</ele>
        <time>2026-08-29T07:52:45.916Z</time>
      </trkpt>
      <trkpt lat="52.091091" lon="5.110446">
        <ele>8.148969</ele>
        <time>2026-08-29T07:52:48.921Z</time>
      </trkpt>
      <trkpt lat="52.091191" lon="5.110380">
        <ele>7.821295</ele>
        <time>2026-08-29T07:52:52.920Z</time>
      </trkpt>
      <trkpt lat="52.091269" lon="5.110298">
        <ele>7.539331</ele>
        <time>2026-08-29T07:53:06.919Z</time>
      </trkpt>
      <trkpt lat="52.091348" lon="5.110197">
        <ele>7.234284</ele>
        <time>2026-08-29T07:53:16.921Z</time>
      </trkpt>
      <trkpt lat="52.091432" lon="5.110114">
        <ele>6.935887</ele>
        <time>2026-08-29T07:53:25.920Z</time>
      </trkpt>
      <trkpt lat="52.091516" lon="5.110040">
        <ele>6.645849</ele>
        <time>2026-08-29T07:53:29.926Z</time>
      </trkpt>
      <trkpt lat="52.091596" lon="5.110108">
        <ele>6.371792</ele>
        <time>2026-08-29T07:53:31.921Z</time>
      </trkpt>
      <trkpt lat="52.091706" lon="5.110068">
        <ele>6.029534</ele>
        <time>2026-08-29T07:53:35.917Z</time>
      </trkpt>
      <trkpt lat="52.091814" lon="5.109977">
        <ele>5.660245</ele>
        <time>2026-08-29T07:53:38.916Z</time>
      </trkpt>
      <trkpt lat="52.091897" lon="5.109908">
        <ele>5.377238</ele>
        <time>2026-08-29T07:53:40.919Z</time>
      </trkpt>
      <trkpt lat="52.092006" lon="5.109825">
        <ele>5.011820</ele>
        <time>2026-08-29T07:53:43.919Z</time>
      </trkpt>
      <trkpt lat="52.092086" lon="5.109898">
        <ele>4.733322</ele>
        <time>2026-08-29T07:53:46.919Z</time>
      </trkpt>
      <trkpt lat="52.092129" lon="5.110106">
        <ele>4.323889</ele>
        <time>2026-08-29T07:53:49.916Z</time>
      </trkpt>
      <trkpt lat="52.092168" lon="5.110262">
        <ele>4.009677</ele>
        <time>2026-08-29T07:53:51.919Z</time>
      </trkpt>
      <trkpt lat="52.092208" lon="5.110413">
        <ele>3.702895</ele>
        <time>2026-08-29T07:53:53.917Z</time>
      </trkpt>
      <trkpt lat="52.092241" lon="5.110555">
        <ele>3.419655</ele>
        <time>2026-08-29T07:53:55.917Z</time>
      </trkpt>
      <trkpt lat="52.092297" lon="5.110751">
        <ele>3.082673</ele>
        <time>2026-08-29T07:53:58.927Z</time>
      </trkpt>
      <trkpt lat="52.092356" lon="5.110944">
        <ele>3.248873</ele>
        <time>2026-08-29T07:54:01.917Z</time>
      </trkpt>
      <trkpt lat="52.092402" lon="5.111124">
        <ele>3.399174</ele>
        <time>2026-08-29T07:54:04.916Z</time>
      </trkpt>
      <trkpt lat="52.092448" lon="5.111278">
        <ele>3.531193</ele>
        <time>2026-08-29T07:54:07.918Z</time>
      </trkpt>
      <trkpt lat="52.092487" lon="5.111428">
        <ele>3.656767</ele>
        <time>2026-08-29T07:54:11.916Z</time>
      </trkpt>
      <trkpt lat="52.092576" lon="5.111758">
        <ele>3.934621</ele>
        <time>2026-08-29T07:55:23.919Z</time>
      </trkpt>
      <trkpt lat="52.092632" lon="5.111883">
        <ele>4.053892</ele>
        <time>2026-08-29T07:55:26.920Z</time>
      </trkpt>
      <trkpt lat="52.092685" lon="5.112037">
        <ele>4.189980</ele>
        <time>2026-08-29T07:55:30.922Z</time>
      </trkpt>
      <trkpt lat="52.092735" lon="5.112220">
        <ele>4.344389</ele>
        <time>2026-08-29T07:55:33.923Z</time>
      </trkpt>
      <trkpt lat="52.092763" lon="5.112361">
        <ele>4.458633</ele>
        <time>2026-08-29T07:55:35.919Z</time>
      </trkpt>
      <trkpt lat="52.092813" lon="5.112568">
        <ele>4.630113</ele>
        <time>2026-08-29T07:55:38.918Z</time>
      </trkpt>
      <trkpt lat="52.092858" lon="5.112759">
        <ele>4.787824</ele>
        <time>2026-08-29T07:55:41.926Z</time>
      </trkpt>
      <trkpt lat="52.092876" lon="5.112946">
        <ele>4.933753</ele>
        <time>2026-08-29T07:55:44.934Z</time>
      </trkpt>
      <trkpt lat="52.092876" lon="5.113098">
        <ele>5.050940</ele>
        <time>2026-08-29T07:55:46.922Z</time>
      </trkpt>
      <trkpt lat="52.092884" lon="5.113311">
        <ele>5.215462</ele>
        <time>2026-08-29T07:55:49.918Z</time>
      </trkpt>
      <trkpt lat="52.092890" lon="5.113517">
        <ele>5.492106</ele>
        <time>2026-08-29T07:55:52.918Z</time>
      </trkpt>
      <trkpt lat="52.092907" lon="5.113665">
        <ele>5.860501</ele>
        <time>2026-08-29T07:55:54.927Z</time>
      </trkpt>
      <trkpt lat="52.092915" lon="5.113890">
        <ele>6.411943</ele>
        <time>2026-08-29T07:55:57.916Z</time>
      </trkpt>
      <trkpt lat="52.092928" lon="5.114102">
        <ele>6.933234</ele>
        <time>2026-08-29T07:56:00.919Z</time>
      </trkpt>
      <trkpt lat="52.092945" lon="5.114262">
        <ele>7.330526</ele>
        <time>2026-08-29T07:56:03.918Z</time>
      </trkpt>
      <trkpt lat="52.092967" lon="5.114407">
        <ele>7.695964</ele>
        <time>2026-08-29T07:56:05.921Z</time>
      </trkpt>
      <trkpt lat="52.092993" lon="5.114576">
        <ele>8.122233</ele>
        <time>2026-08-29T07:56:08.919Z</time>
      </trkpt>
      <trkpt lat="52.092997" lon="5.114740">
        <ele>8.523817</ele>
        <time>2026-08-29T07:56:13.918Z</time>
      </trkpt>
      <trkpt lat="52.093076" lon="5.114880">
        <ele>8.988920</ele>
        <time>2026-08-29T07:56:17.918Z</time>
      </trkpt>
      <trkpt lat="52.093108" lon="5.115075">
        <ele>9.482763</ele>
        <time>2026-08-29T07:56:21.936Z</time>
      </trkpt>
      <trkpt lat="52.093133" lon="5.115222">
        <ele>9.855960</ele>
        <time>2026-08-29T07:56:24.915Z</time>
      </trkpt>
      <trkpt lat="52.093185" lon="5.115356">
        <ele>10.243750</ele>
        <time>2026-08-29T07:56:27.920Z</time>
      </trkpt>
      <trkpt lat="52.093247" lon="5.115521">
        <ele>10.716983</ele>
        <time>2026-08-29T07:56:31.918Z</time>
      </trkpt>
      <trkpt lat="52.093287" lon="5.115674">
        <ele>11.123819</ele>
        <time>2026-08-29T07:56:35.918Z</time>
      </trkpt>
      <trkpt lat="52.093330" lon="5.115816">
        <ele>11.511166</ele>
        <time>2026-08-29T07:56:39.919Z</time>
      </trkpt>
      <trkpt lat="52.093358" lon="5.115990">
        <ele>11.951259</ele>
        <time>2026-08-29T07:56:43.916Z</time>
      </trkpt>
      <trkpt lat="52.093378" lon="5.116147">
        <ele>12.343567</ele>
        <time>2026-08-29T07:56:46.919Z</time>
      </trkpt>
      <trkpt lat="52.093406" lon="5.116306">
        <ele>11.772796</ele>
        <time>2026-08-29T07:56:49.919Z</time>
      </trkpt>
      <trkpt lat="52.093433" lon="5.116483">
        <ele>10.575779</ele>
        <time>2026-08-29T07:56:52.918Z</time>
      </trkpt>
      <trkpt lat="52.093436" lon="5.116658">
        <ele>9.426717</ele>
        <time>2026-08-29T07:56:55.918Z</time>
      </trkpt>
      <trkpt lat="52.093437" lon="5.116809">
        <ele>8.435568</ele>
        <time>2026-08-29T07:56:58.918Z</time>
      </trkpt>
      <trkpt lat="52.093437" lon="5.116960">
        <ele>7.444478</ele>
        <time>2026-08-29T07:57:02.917Z</time>
      </trkpt>
      <trkpt lat="52.093534" lon="5.117001">
        <ele>6.373833</ele>
        <time>2026-08-29T07:57:09.917Z</time>
      </trkpt>
      <trkpt lat="52.093644" lon="5.116964">
        <ele>5.173847</ele>
        <time>2026-08-29T07:57:13.919Z</time>
      </trkpt>
      <trkpt lat="52.093762" lon="5.116970">
        <ele>3.912611</ele>
        <time>2026-08-29T07:57:16.916Z</time>
      </trkpt>
      <trkpt lat="52.093874" lon="5.116953">
        <ele>2.710898</ele>
        <time>2026-08-29T07:57:19.923Z</time>
      </trkpt>
      <trkpt lat="52.093987" lon="5.116932">
        <ele>1.495850</ele>
        <time>2026-08-29T07:57:22.918Z</time>
      </trkpt>
      <trkpt lat="52.094093" lon="5.116914">
        <ele>0.357281</ele>
        <time>2026-08-29T07:57:25.917Z</time>
      </trkpt>
      <trkpt lat="52.094203" lon="5.116898">
        <ele>-0.822557</ele>
        <time>2026-08-29T07:57:28.916Z</time>
      </trkpt>
      <trkpt lat="52.094319" lon="5.116885">
        <ele>-2.064746</ele>
        <time>2026-08-29T07:57:31.917Z</time>
      </trkpt>
      <trkpt lat="52.094425" lon="5.116887">
        <ele>-3.197244</ele>
        <time>2026-08-29T07:57:34.915Z</time>
      </trkpt>
      <trkpt lat="52.094529" lon="5.116898">
        <ele>-4.310643</ele>
        <time>2026-08-29T07:57:37.920Z</time>
      </trkpt>
      <trkpt lat="52.094627" lon="5.116917">
        <ele>-5.365001</ele>
        <time>2026-08-29T07:57:40.920Z</time>
      </trkpt>
      <trkpt lat="52.094729" lon="5.116924">
        <ele>-6.455658</ele>
        <time>2026-08-29T07:57:43.916Z</time>
      </trkpt>
      <trkpt lat="52.094831" lon="5.116930">
        <ele>-6.494325</ele>
        <time>2026-08-29T07:57:46.922Z</time>
      </trkpt>
      <trkpt lat="52.094926" lon="5.116934">
        <ele>-6.197999</ele>
        <time>2026-08-29T07:57:49.918Z</time>
      </trkpt>
      <trkpt lat="52.095023" lon="5.116930">
        <ele>-5.895438</ele>
        <time>2026-08-29T07:57:52.916Z</time>
      </trkpt>
      <trkpt lat="52.095134" lon="5.116908">
        <ele>-5.546763</ele>
        <time>2026-08-29T07:57:55.921Z</time>
      </trkpt>
      <trkpt lat="52.095250" lon="5.116885">
        <ele>-5.182380</ele>
        <time>2026-08-29T07:57:58.915Z</time>
      </trkpt>
      <trkpt lat="52.095368" lon="5.116858">
        <ele>-4.810817</ele>
        <time>2026-08-29T07:58:01.917Z</time>
      </trkpt>
      <trkpt lat="52.095477" lon="5.116826">
        <ele>-4.465451</ele>
        <time>2026-08-29T07:58:04.919Z</time>
      </trkpt>
      <trkpt lat="52.095585" lon="5.116777">
        <ele>-4.115851</ele>
        <time>2026-08-29T07:58:07.917Z</time>
      </trkpt>
      <trkpt lat="52.095696" lon="5.116733">
        <ele>-3.759617</ele>
        <time>2026-08-29T07:58:10.912Z</time>
      </trkpt>
      <trkpt lat="52.095790" lon="5.116668">
        <ele>-3.441156</ele>
        <time>2026-08-29T07:58:13.916Z</time>
      </trkpt>
      <trkpt lat="52.095876" lon="5.116603">
        <ele>-3.145494</ele>
        <time>2026-08-29T07:58:16.917Z</time>
      </trkpt>
      <trkpt lat="52.095952" lon="5.116512">
        <ele>-2.851303</ele>
        <time>2026-08-29T07:58:23.916Z</time>
      </trkpt>
      <trkpt lat="52.096042" lon="5.116459">
        <ele>-2.552865</ele>
        <time>2026-08-29T07:58:35.917Z</time>
      </trkpt>
      <trkpt lat="52.096135" lon="5.116414">
        <ele>-2.250333</ele>
        <time>2026-08-29T07:58:43.916Z</time>
      </trkpt>
      <trkpt lat="52.096028" lon="5.116340">
        <ele>-1.887822</ele>
        <time>2026-08-29T07:59:30.922Z</time>
      </trkpt>
      <trkpt lat="52.095934" lon="5.116363">
        <ele>-1.591420</ele>
        <time>2026-08-29T07:59:38.925Z</time>
      </trkpt>
      <trkpt lat="52.096966" lon="5.115391">
        <ele>1.077582</ele>
        <time>2026-08-29T08:14:34.922Z</time>
      </trkpt>
      <trkpt lat="52.095133" lon="5.116513">
        <ele>3.625069</ele>
        <time>2026-08-29T08:19:11.927Z</time>
      </trkpt>
      <trkpt lat="52.095040" lon="5.116520">
        <ele>3.698660</ele>
        <time>2026-08-29T08:19:20.923Z</time>
      </trkpt>
      <trkpt lat="52.094949" lon="5.116536">
        <ele>3.771009</ele>
        <time>2026-08-29T08:19:28.915Z</time>
      </trkpt>
      <trkpt lat="52.094851" lon="5.116543">
        <ele>3.848548</ele>
        <time>2026-08-29T08:19:39.923Z</time>
      </trkpt>
      <trkpt lat="52.094759" lon="5.116546">
        <ele>3.921284</ele>
        <time>2026-08-29T08:19:45.916Z</time>
      </trkpt>
      <trkpt lat="52.094657" lon="5.116551">
        <ele>4.001947</ele>
        <time>2026-08-29T08:19:52.916Z</time>
      </trkpt>
      <trkpt lat="52.094558" lon="5.116546">
        <ele>4.080239</ele>
        <time>2026-08-29T08:19:59.917Z</time>
      </trkpt>
      <trkpt lat="52.094458" lon="5.116554">
        <ele>3.885145</ele>
        <time>2026-08-29T08:20:06.924Z</time>
      </trkpt>
      <trkpt lat="52.094358" lon="5.116558">
        <ele>3.617913</ele>
        <time>2026-08-29T08:20:13.923Z</time>
      </trkpt>
      <trkpt lat="52.094257" lon="5.116563">
        <ele>3.347966</ele>
        <time>2026-08-29T08:20:20.915Z</time>
      </trkpt>
      <trkpt lat="52.094167" lon="5.116560">
        <ele>3.107480</ele>
        <time>2026-08-29T08:20:27.918Z</time>
      </trkpt>
      <trkpt lat="52.094071" lon="5.116575">
        <ele>2.849836</ele>
        <time>2026-08-29T08:20:35.918Z</time>
      </trkpt>
      <trkpt lat="52.093971" lon="5.116585">
        <ele>2.582181</ele>
        <time>2026-08-29T08:20:43.916Z</time>
      </trkpt>
      <trkpt lat="52.093877" lon="5.116615">
        <ele>2.326278</ele>
        <time>2026-08-29T08:20:50.914Z</time>
      </trkpt>
      <trkpt lat="52.093777" lon="5.116631">
        <ele>2.057839</ele>
        <time>2026-08-29T08:20:58.913Z</time>
      </trkpt>
      <trkpt lat="52.093683" lon="5.116656">
        <ele>1.803387</ele>
        <time>2026-08-29T08:21:05.922Z</time>
      </trkpt>
      <trkpt lat="52.093582" lon="5.116688">
        <ele>1.528501</ele>
        <time>2026-08-29T08:21:12.922Z</time>
      </trkpt>
      <trkpt lat="52.093393" lon="5.116770">
        <ele>1.005956</ele>
        <time>2026-08-29T08:21:43.915Z</time>
      </trkpt>
      <trkpt lat="52.093298" lon="5.116782">
        <ele>0.751400</ele>
        <time>2026-08-29T08:21:48.922Z</time>
      </trkpt>
      <trkpt lat="52.093205" lon="5.116818">
        <ele>0.496020</ele>
        <time>2026-08-29T08:21:53.922Z</time>
      </trkpt>
      <trkpt lat="52.093110" lon="5.116838">
        <ele>0.240112</ele>
        <time>2026-08-29T08:21:59.923Z</time>
      </trkpt>
      <trkpt lat="52.093008" lon="5.116869">
        <ele>-0.037091</ele>
        <time>2026-08-29T08:22:06.923Z</time>
      </trkpt>
      <trkpt lat="52.092914" lon="5.116881">
        <ele>-0.288984</ele>
        <time>2026-08-29T08:22:13.922Z</time>
      </trkpt>
      <trkpt lat="52.092814" lon="5.116872">
        <ele>-0.556543</ele>
        <time>2026-08-29T08:22:21.922Z</time>
      </trkpt>
      <trkpt lat="52.092719" lon="5.116869">
        <ele>-0.719708</ele>
        <time>2026-08-29T08:22:28.916Z</time>
      </trkpt>
      <trkpt lat="52.092625" lon="5.116855">
        <ele>-0.747830</ele>
        <time>2026-08-29T08:22:35.922Z</time>
      </trkpt>
      <trkpt lat="52.092529" lon="5.116849">
        <ele>-0.776453</ele>
        <time>2026-08-29T08:22:42.915Z</time>
      </trkpt>
      <trkpt lat="52.092436" lon="5.116832">
        <ele>-0.804335</ele>
        <time>2026-08-29T08:22:49.924Z</time>
      </trkpt>
      <trkpt lat="52.092336" lon="5.116801">
        <ele>-0.834664</ele>
        <time>2026-08-29T08:22:57.922Z</time>
      </trkpt>
      <trkpt lat="52.092240" lon="5.116777">
        <ele>-0.863601</ele>
        <time>2026-08-29T08:23:05.922Z</time>
      </trkpt>
      <trkpt lat="52.092140" lon="5.116777">
        <ele>-0.893394</ele>
        <time>2026-08-29T08:23:13.922Z</time>
      </trkpt>
      <trkpt lat="52.092046" lon="5.116766">
        <ele>-0.921472</ele>
        <time>2026-08-29T08:23:21.922Z</time>
      </trkpt>
      <trkpt lat="52.091968" lon="5.116852">
        <ele>-0.949541</ele>
        <time>2026-08-29T08:23:29.915Z</time>
      </trkpt>
      <trkpt lat="52.091897" lon="5.116946">
        <ele>-0.976808</ele>
        <time>2026-08-29T08:23:36.923Z</time>
      </trkpt>
      <trkpt lat="52.091843" lon="5.117065">
        <ele>-1.003888</ele>
        <time>2026-08-29T08:23:43.915Z</time>
      </trkpt>
      <trkpt lat="52.091745" lon="5.117310">
        <ele>-1.057402</ele>
        <time>2026-08-29T08:24:06.922Z</time>
      </trkpt>
      <trkpt lat="52.091703" lon="5.117442">
        <ele>-1.084613</ele>
        <time>2026-08-29T08:24:12.922Z</time>
      </trkpt>
      <trkpt lat="52.091670" lon="5.117594">
        <ele>-1.114122</ele>
        <time>2026-08-29T08:24:18.924Z</time>
      </trkpt>
      <trkpt lat="52.091658" lon="5.117759">
        <ele>-1.144536</ele>
        <time>2026-08-29T08:24:24.914Z</time>
      </trkpt>
      <trkpt lat="52.091660" lon="5.117920">
        <ele>-1.174013</ele>
        <time>2026-08-29T08:24:31.914Z</time>
      </trkpt>
      <trkpt lat="52.091657" lon="5.118083">
        <ele>-1.203864</ele>
        <time>2026-08-29T08:24:39.922Z</time>
      </trkpt>
      <trkpt lat="52.091654" lon="5.118235">
        <ele>-1.231702</ele>
        <time>2026-08-29T08:24:47.916Z</time>
      </trkpt>
      <trkpt lat="52.091682" lon="5.118376">
        <ele>-1.523899</ele>
        <time>2026-08-29T08:24:56.917Z</time>
      </trkpt>
      <trkpt lat="52.091717" lon="5.118523">
        <ele>-2.075759</ele>
        <time>2026-08-29T08:25:09.917Z</time>
      </trkpt>
      <trkpt lat="52.091754" lon="5.118659">
        <ele>-2.596412</ele>
        <time>2026-08-29T08:25:21.931Z</time>
      </trkpt>
      <trkpt lat="52.091759" lon="5.118816">
        <ele>-3.146727</ele>
        <time>2026-08-29T08:25:31.931Z</time>
      </trkpt>
      <trkpt lat="52.091754" lon="5.118973">
        <ele>-3.697042</ele>
        <time>2026-08-29T08:25:39.915Z</time>
      </trkpt>
      <trkpt lat="52.091745" lon="5.119132">
        <ele>-4.255977</ele>
        <time>2026-08-29T08:25:46.923Z</time>
      </trkpt>
      <trkpt lat="52.091732" lon="5.119282">
        <ele>-4.786249</ele>
        <time>2026-08-29T08:25:53.932Z</time>
      </trkpt>
      <trkpt lat="52.091602" lon="5.119457">
        <ele>-5.747420</ele>
        <time>2026-08-29T08:26:46.926Z</time>
      </trkpt>
      <trkpt lat="52.091505" lon="5.119563">
        <ele>-6.413080</ele>
        <time>2026-08-29T08:26:50.917Z</time>
      </trkpt>
      <trkpt lat="52.091430" lon="5.119658">
        <ele>-6.954541</ele>
        <time>2026-08-29T08:26:54.942Z</time>
      </trkpt>
      <trkpt lat="52.091352" lon="5.119740">
        <ele>-7.483582</ele>
        <time>2026-08-29T08:26:59.925Z</time>
      </trkpt>
      <trkpt lat="52.091274" lon="5.119837">
        <ele>-8.042854</ele>
        <time>2026-08-29T08:27:05.923Z</time>
      </trkpt>
      <trkpt lat="52.091193" lon="5.119923">
        <ele>-8.593856</ele>
        <time>2026-08-29T08:27:12.919Z</time>
      </trkpt>
      <trkpt lat="52.091107" lon="5.119997">
        <ele>-9.148095</ele>
        <time>2026-08-29T08:27:21.925Z</time>
      </trkpt>
      <trkpt lat="52.090938" lon="5.120072">
        <ele>-10.146112</ele>
        <time>2026-08-29T08:27:54.919Z</time>
      </trkpt>
      <trkpt lat="52.090846" lon="5.120130">
        <ele>-10.708223</ele>
        <time>2026-08-29T08:27:59.912Z</time>
      </trkpt>
      <trkpt lat="52.090749" lon="5.120190">
        <ele>-11.299440</ele>
        <time>2026-08-29T08:28:04.924Z</time>
      </trkpt>
      <trkpt lat="52.090654" lon="5.120231">
        <ele>-10.982429</ele>
        <time>2026-08-29T08:28:09.915Z</time>
      </trkpt>
      <trkpt lat="52.090556" lon="5.120263">
        <ele>-10.193185</ele>
        <time>2026-08-29T08:28:23.915Z</time>
      </trkpt>
      <trkpt lat="52.090461" lon="5.120317">
        <ele>-9.398617</ele>
        <time>2026-08-29T08:28:29.924Z</time>
      </trkpt>
      <trkpt lat="52.090367" lon="5.120380">
        <ele>-8.595909</ele>
        <time>2026-08-29T08:28:35.917Z</time>
      </trkpt>
      <trkpt lat="52.090286" lon="5.120454">
        <ele>-7.862447</ele>
        <time>2026-08-29T08:28:41.914Z</time>
      </trkpt>
      <trkpt lat="52.090195" lon="5.120518">
        <ele>-7.079679</ele>
        <time>2026-08-29T08:28:49.930Z</time>
      </trkpt>
      <trkpt lat="52.090105" lon="5.120569">
        <ele>-6.327182</ele>
        <time>2026-08-29T08:28:56.921Z</time>
      </trkpt>
      <trkpt lat="52.090012" lon="5.120630">
        <ele>-5.535447</ele>
        <time>2026-08-29T08:29:03.927Z</time>
      </trkpt>
      <trkpt lat="52.089935" lon="5.120713">
        <ele>-4.806186</ele>
        <time>2026-08-29T08:29:10.913Z</time>
      </trkpt>
      <trkpt lat="52.089855" lon="5.120788">
        <ele>-4.077188</ele>
        <time>2026-08-29T08:29:18.918Z</time>
      </trkpt>
      <trkpt lat="52.089770" lon="5.120854">
        <ele>-3.333544</ele>
        <time>2026-08-29T08:29:26.918Z</time>
      </trkpt>
      <trkpt lat="52.089686" lon="5.120925">
        <ele>-2.586153</ele>
        <time>2026-08-29T08:29:33.925Z</time>
      </trkpt>
      <trkpt lat="52.089598" lon="5.120992">
        <ele>-1.819017</ele>
        <time>2026-08-29T08:29:40.924Z</time>
      </trkpt>
      <trkpt lat="52.089503" lon="5.121039">
        <ele>-1.034990</ele>
        <time>2026-08-29T08:29:48.919Z</time>
      </trkpt>
      <trkpt lat="52.089407" lon="5.121085">
        <ele>-0.244787</ele>
        <time>2026-08-29T08:29:56.919Z</time>
      </trkpt>
      <trkpt lat="52.089308" lon="5.121118">
        <ele>0.553160</ele>
        <time>2026-08-29T08:30:04.917Z</time>
      </trkpt>
      <trkpt lat="52.089214" lon="5.121149">
        <ele>1.310485</ele>
        <time>2026-08-29T08:30:17.932Z</time>
      </trkpt>
      <trkpt lat="52.089122" lon="5.121189">
        <ele>2.062407</ele>
        <time>2026-08-29T08:30:23.916Z</time>
      </trkpt>
      <trkpt lat="52.089033" lon="5.121230">
        <ele>2.719270</ele>
        <time>2026-08-29T08:30:29.924Z</time>
      </trkpt>
      <trkpt lat="52.088943" lon="5.121273">
        <ele>2.797863</ele>
        <time>2026-08-29T08:30:36.924Z</time>
      </trkpt>
      <trkpt lat="52.088843" lon="5.121308">
        <ele>2.883567</ele>
        <time>2026-08-29T08:30:44.912Z</time>
      </trkpt>
      <trkpt lat="52.088744" lon="5.121342">
        <ele>2.968345</ele>
        <time>2026-08-29T08:30:52.918Z</time>
      </trkpt>
      <trkpt lat="52.088652" lon="5.121365">
        <ele>3.046335</ele>
        <time>2026-08-29T08:30:59.924Z</time>
      </trkpt>
      <trkpt lat="52.088563" lon="5.121402">
        <ele>3.123302</ele>
        <time>2026-08-29T08:31:06.917Z</time>
      </trkpt>
      <trkpt lat="52.088471" lon="5.121463">
        <ele>3.206539</ele>
        <time>2026-08-29T08:31:13.916Z</time>
      </trkpt>
      <trkpt lat="52.088384" lon="5.121502">
        <ele>3.282150</ele>
        <time>2026-08-29T08:31:25.917Z</time>
      </trkpt>
      <trkpt lat="52.088292" lon="5.121484">
        <ele>3.359791</ele>
        <time>2026-08-29T08:31:35.933Z</time>
      </trkpt>
      <trkpt lat="52.088204" lon="5.121531">
        <ele>3.437394</ele>
        <time>2026-08-29T08:31:44.916Z</time>
      </trkpt>
      <trkpt lat="52.088112" lon="5.121575">
        <ele>3.517740</ele>
        <time>2026-08-29T08:31:53.918Z</time>
      </trkpt>
      <trkpt lat="52.088021" lon="5.121624">
        <ele>3.598053</ele>
        <time>2026-08-29T08:32:01.915Z</time>
      </trkpt>
      <trkpt lat="52.087932" lon="5.121659">
        <ele>3.674771</ele>
        <time>2026-08-29T08:32:09.916Z</time>
      </trkpt>
      <trkpt lat="52.087836" lon="5.121697">
        <ele>3.757553</ele>
        <time>2026-08-29T08:32:17.915Z</time>
      </trkpt>
      <trkpt lat="52.087749" lon="5.121738">
        <ele>3.833445</ele>
        <time>2026-08-29T08:32:26.995Z</time>
      </trkpt>
      <trkpt lat="52.087659" lon="5.121781">
        <ele>3.912037</ele>
        <time>2026-08-29T08:32:35.922Z</time>
      </trkpt>
      <trkpt lat="52.087561" lon="5.121816">
        <ele>3.996104</ele>
        <time>2026-08-29T08:32:44.922Z</time>
      </trkpt>
      <trkpt lat="52.087471" lon="5.121853">
        <ele>4.073883</ele>
        <time>2026-08-29T08:32:52.921Z</time>
      </trkpt>
      <trkpt lat="52.087379" lon="5.121882">
        <ele>4.152401</ele>
        <time>2026-08-29T08:33:00.932Z</time>
      </trkpt>
      <trkpt lat="52.087275" lon="5.121895">
        <ele>4.214507</ele>
        <time>2026-08-29T08:33:16.926Z</time>
      </trkpt>
      <trkpt lat="52.087179" lon="5.121913">
        <ele>4.203188</ele>
        <time>2026-08-29T08:33:22.923Z</time>
      </trkpt>
      <trkpt lat="52.087088" lon="5.121938">
        <ele>4.192379</ele>
        <time>2026-08-29T08:33:29.915Z</time>
      </trkpt>
      <trkpt lat="52.087000" lon="5.121966">
        <ele>4.181877</ele>
        <time>2026-08-29T08:33:36.919Z</time>
      </trkpt>
      <trkpt lat="52.086899" lon="5.122001">
        <ele>4.169782</ele>
        <time>2026-08-29T08:33:44.920Z</time>
      </trkpt>
      <trkpt lat="52.086802" lon="5.122034">
        <ele>4.158176</ele>
        <time>2026-08-29T08:33:51.915Z</time>
      </trkpt>
      <trkpt lat="52.086713" lon="5.122072">
        <ele>4.147399</ele>
        <time>2026-08-29T08:33:57.920Z</time>
      </trkpt>
      <trkpt lat="52.086622" lon="5.122107">
        <ele>4.136447</ele>
        <time>2026-08-29T08:34:04.920Z</time>
      </trkpt>
      <trkpt lat="52.086536" lon="5.122161">
        <ele>4.125651</ele>
        <time>2026-08-29T08:34:12.925Z</time>
      </trkpt>
      <trkpt lat="52.086444" lon="5.122186">
        <ele>4.114726</ele>
        <time>2026-08-29T08:34:22.922Z</time>
      </trkpt>
      <trkpt lat="52.086356" lon="5.122224">
        <ele>4.104062</ele>
        <time>2026-08-29T08:34:40.922Z</time>
      </trkpt>
      <trkpt lat="52.086265" lon="5.122246">
        <ele>4.093287</ele>
        <time>2026-08-29T08:34:48.920Z</time>
      </trkpt>
      <trkpt lat="52.086175" lon="5.122290">
        <ele>4.082280</ele>
        <time>2026-08-29T08:34:58.916Z</time>
      </trkpt>
      <trkpt lat="52.086076" lon="5.122319">
        <ele>4.070499</ele>
        <time>2026-08-29T08:35:06.915Z</time>
      </trkpt>
      <trkpt lat="52.085983" lon="5.122344">
        <ele>4.059459</ele>
        <time>2026-08-29T08:35:13.915Z</time>
      </trkpt>
      <trkpt lat="52.085890" lon="5.122370">
        <ele>4.048407</ele>
        <time>2026-08-29T08:35:20.919Z</time>
      </trkpt>
      <trkpt lat="52.085794" lon="5.122383">
        <ele>4.037124</ele>
        <time>2026-08-29T08:35:28.915Z</time>
      </trkpt>
      <trkpt lat="52.085702" lon="5.122415">
        <ele>4.026105</ele>
        <time>2026-08-29T08:35:36.917Z</time>
      </trkpt>
      <trkpt lat="52.085610" lon="5.122449">
        <ele>4.015055</ele>
        <time>2026-08-29T08:35:44.923Z</time>
      </trkpt>
      <trkpt lat="52.085522" lon="5.122480">
        <ele>4.008098</ele>
        <time>2026-08-29T08:35:51.927Z</time>
      </trkpt>
      <trkpt lat="52.085432" lon="5.122507">
        <ele>4.013180</ele>
        <time>2026-08-29T08:35:58.916Z</time>
      </trkpt>
      <trkpt lat="52.085334" lon="5.122547">
        <ele>4.018792</ele>
        <time>2026-08-29T08:36:06.916Z</time>
      </trkpt>
      <trkpt lat="52.085247" lon="5.122592">
        <ele>4.023862</ele>
        <time>2026-08-29T08:36:13.918Z</time>
      </trkpt>
      <trkpt lat="52.085158" lon="5.122637">
        <ele>4.029038</ele>
        <time>2026-08-29T08:36:20.916Z</time>
      </trkpt>
      <trkpt lat="52.085058" lon="5.122682">
        <ele>4.034800</ele>
        <time>2026-08-29T08:36:30.923Z</time>
      </trkpt>
      <trkpt lat="52.084962" lon="5.122716">
        <ele>4.040257</ele>
        <time>2026-08-29T08:36:36.911Z</time>
      </trkpt>
      <trkpt lat="52.084864" lon="5.122759">
        <ele>4.045894</ele>
        <time>2026-08-29T08:36:43.924Z</time>
      </trkpt>
      <trkpt lat="52.084771" lon="5.122785">
        <ele>4.051135</ele>
        <time>2026-08-29T08:36:50.923Z</time>
      </trkpt>
      <trkpt lat="52.084682" lon="5.122818">
        <ele>4.056204</ele>
        <time>2026-08-29T08:36:57.915Z</time>
      </trkpt>
      <trkpt lat="52.084586" lon="5.122843">
        <ele>4.061604</ele>
        <time>2026-08-29T08:37:05.924Z</time>
      </trkpt>
      <trkpt lat="52.084486" lon="5.122863">
        <ele>4.067200</ele>
        <time>2026-08-29T08:37:14.923Z</time>
      </trkpt>
      <trkpt lat="52.084396" lon="5.122903">
        <ele>4.072381</ele>
        <time>2026-08-29T08:37:22.924Z</time>
      </trkpt>
      <trkpt lat="52.084301" lon="5.122929">
        <ele>4.077731</ele>
        <time>2026-08-29T08:37:30.924Z</time>
      </trkpt>
      <trkpt lat="52.084204" lon="5.122944">
        <ele>4.083143</ele>
        <time>2026-08-29T08:37:38.917Z</time>
      </trkpt>
      <trkpt lat="52.084104" lon="5.122953">
        <ele>4.088705</ele>
        <time>2026-08-29T08:37:46.915Z</time>
      </trkpt>
      <trkpt lat="52.084014" lon="5.122969">
        <ele>4.093733</ele>
        <time>2026-08-29T08:37:53.917Z</time>
      </trkpt>
      <trkpt lat="52.083915" lon="5.122990">
        <ele>4.099278</ele>
        <time>2026-08-29T08:38:01.925Z</time>
      </trkpt>
      <trkpt lat="52.083815" lon="5.122977">
        <ele>4.104850</ele>
        <time>2026-08-29T08:38:10.917Z</time>
      </trkpt>
      <trkpt lat="52.083715" lon="5.122970">
        <ele>4.009122</ele>
        <time>2026-08-29T08:38:17.915Z</time>
      </trkpt>
      <trkpt lat="52.083624" lon="5.122932">
        <ele>3.866343</ele>
        <time>2026-08-29T08:38:26.924Z</time>
      </trkpt>
      <trkpt lat="52.083532" lon="5.122894">
        <ele>3.722092</ele>
        <time>2026-08-29T08:38:44.925Z</time>
      </trkpt>
      <trkpt lat="52.083439" lon="5.122889">
        <ele>3.580677</ele>
        <time>2026-08-29T08:38:56.915Z</time>
      </trkpt>
      <trkpt lat="52.083341" lon="5.122863">
        <ele>3.429775</ele>
        <time>2026-08-29T08:39:05.917Z</time>
      </trkpt>
      <trkpt lat="52.083244" lon="5.122844">
        <ele>3.281294</ele>
        <time>2026-08-29T08:39:12.915Z</time>
      </trkpt>
      <trkpt lat="52.083151" lon="5.122822">
        <ele>3.138471</ele>
        <time>2026-08-29T08:39:19.914Z</time>
      </trkpt>
      <trkpt lat="52.083056" lon="5.122766">
        <ele>2.984914</ele>
        <time>2026-08-29T08:39:27.914Z</time>
      </trkpt>
      <trkpt lat="52.082966" lon="5.122762">
        <ele>2.848085</ele>
        <time>2026-08-29T08:39:34.913Z</time>
      </trkpt>
      <trkpt lat="52.082866" lon="5.122745">
        <ele>2.695282</ele>
        <time>2026-08-29T08:39:42.915Z</time>
      </trkpt>
      <trkpt lat="52.082773" lon="5.122737">
        <ele>2.553747</ele>
        <time>2026-08-29T08:39:50.915Z</time>
      </trkpt>
      <trkpt lat="52.082682" lon="5.122715">
        <ele>2.413932</ele>
        <time>2026-08-29T08:39:58.914Z</time>
      </trkpt>
      <trkpt lat="52.082586" lon="5.122703">
        <ele>2.267605</ele>
        <time>2026-08-29T08:40:09.915Z</time>
      </trkpt>
      <trkpt lat="52.082485" lon="5.122729">
        <ele>2.112201</ele>
        <time>2026-08-29T08:40:18.917Z</time>
      </trkpt>
      <trkpt lat="52.082395" lon="5.122773">
        <ele>1.969383</ele>
        <time>2026-08-29T08:40:26.914Z</time>
      </trkpt>
      <trkpt lat="52.082306" lon="5.122842">
        <ele>1.819558</ele>
        <time>2026-08-29T08:40:34.914Z</time>
      </trkpt>
      <trkpt lat="52.082228" lon="5.122919">
        <ele>1.680910</ele>
        <time>2026-08-29T08:40:42.914Z</time>
      </trkpt>
      <trkpt lat="52.082151" lon="5.123023">
        <ele>1.528831</ele>
        <time>2026-08-29T08:40:51.912Z</time>
      </trkpt>
      <trkpt lat="52.082071" lon="5.123118">
        <ele>1.378319</ele>
        <time>2026-08-29T08:40:59.921Z</time>
      </trkpt>
      <trkpt lat="52.082000" lon="5.123221">
        <ele>1.351182</ele>
        <time>2026-08-29T08:41:07.914Z</time>
      </trkpt>
      <trkpt lat="52.081939" lon="5.123340">
        <ele>1.328207</ele>
        <time>2026-08-29T08:41:15.911Z</time>
      </trkpt>
      <trkpt lat="52.081863" lon="5.123436">
        <ele>1.304996</ele>
        <time>2026-08-29T08:41:25.911Z</time>
      </trkpt>
      <trkpt lat="52.081728" lon="5.123589">
        <ele>1.265307</ele>
        <time>2026-08-29T08:42:02.913Z</time>
      </trkpt>
      <trkpt lat="52.081645" lon="5.123648">
        <ele>1.243456</ele>
        <time>2026-08-29T08:42:07.914Z</time>
      </trkpt>
      <trkpt lat="52.081549" lon="5.123665">
        <ele>1.220160</ele>
        <time>2026-08-29T08:42:13.911Z</time>
      </trkpt>
      <trkpt lat="52.081459" lon="5.123681">
        <ele>1.198318</ele>
        <time>2026-08-29T08:42:19.915Z</time>
      </trkpt>
      <trkpt lat="52.081362" lon="5.123710">
        <ele>1.174525</ele>
        <time>2026-08-29T08:42:26.916Z</time>
      </trkpt>
      <trkpt lat="52.081262" lon="5.123745">
        <ele>1.149848</ele>
        <time>2026-08-29T08:42:33.916Z</time>
      </trkpt>
      <trkpt lat="52.081166" lon="5.123774">
        <ele>1.126293</ele>
        <time>2026-08-29T08:42:40.916Z</time>
      </trkpt>
      <trkpt lat="52.081074" lon="5.123791">
        <ele>1.103955</ele>
        <time>2026-08-29T08:42:47.915Z</time>
      </trkpt>
      <trkpt lat="52.080908" lon="5.123747">
        <ele>1.063380</ele>
        <time>2026-08-29T08:43:06.916Z</time>
      </trkpt>
      <trkpt lat="52.080813" lon="5.123714">
        <ele>1.039945</ele>
        <time>2026-08-29T08:43:11.912Z</time>
      </trkpt>
      <trkpt lat="52.080722" lon="5.123678">
        <ele>1.017352</ele>
        <time>2026-08-29T08:43:17.921Z</time>
      </trkpt>
      <trkpt lat="52.080630" lon="5.123641">
        <ele>0.994489</ele>
        <time>2026-08-29T08:43:24.913Z</time>
      </trkpt>
      <trkpt lat="52.080539" lon="5.123589">
        <ele>0.971221</ele>
        <time>2026-08-29T08:43:32.914Z</time>
      </trkpt>
      <trkpt lat="52.080454" lon="5.123533">
        <ele>0.949098</ele>
        <time>2026-08-29T08:43:40.915Z</time>
      </trkpt>
      <trkpt lat="52.080367" lon="5.123481">
        <ele>0.930842</ele>
        <time>2026-08-29T08:43:48.922Z</time>
      </trkpt>
      <trkpt lat="52.080274" lon="5.123425">
        <ele>0.914662</ele>
        <time>2026-08-29T08:43:56.913Z</time>
      </trkpt>
      <trkpt lat="52.080180" lon="5.123359">
        <ele>0.897957</ele>
        <time>2026-08-29T08:44:04.914Z</time>
      </trkpt>
      <trkpt lat="52.080098" lon="5.123295">
        <ele>0.883118</ele>
        <time>2026-08-29T08:44:11.913Z</time>
      </trkpt>
      <trkpt lat="52.080009" lon="5.123237">
        <ele>0.867475</ele>
        <time>2026-08-29T08:44:19.915Z</time>
      </trkpt>
      <trkpt lat="52.079915" lon="5.123181">
        <ele>0.851142</ele>
        <time>2026-08-29T08:44:28.913Z</time>
      </trkpt>
      <trkpt lat="52.079822" lon="5.123115">
        <ele>0.834587</ele>
        <time>2026-08-29T08:44:37.914Z</time>
      </trkpt>
      <trkpt lat="52.079735" lon="5.123055">
        <ele>0.819169</ele>
        <time>2026-08-29T08:44:45.913Z</time>
      </trkpt>
      <trkpt lat="52.079642" lon="5.122993">
        <ele>0.802770</ele>
        <time>2026-08-29T08:44:53.914Z</time>
      </trkpt>
      <trkpt lat="52.079560" lon="5.122934">
        <ele>0.788141</ele>
        <time>2026-08-29T08:45:00.914Z</time>
      </trkpt>
      <trkpt lat="52.079469" lon="5.122861">
        <ele>0.771587</ele>
        <time>2026-08-29T08:45:08.915Z</time>
      </trkpt>
      <trkpt lat="52.079377" lon="5.122794">
        <ele>0.755140</ele>
        <time>2026-08-29T08:45:16.916Z</time>
      </trkpt>
      <trkpt lat="52.079293" lon="5.122728">
        <ele>0.739920</ele>
        <time>2026-08-29T08:45:24.914Z</time>
      </trkpt>
      <trkpt lat="52.079206" lon="5.122649">
        <ele>0.723664</ele>
        <time>2026-08-29T08:45:32.915Z</time>
      </trkpt>
      <trkpt lat="52.079114" lon="5.122580">
        <ele>0.707135</ele>
        <time>2026-08-29T08:45:40.914Z</time>
      </trkpt>
      <trkpt lat="52.079024" lon="5.122524">
        <ele>0.691413</ele>
        <time>2026-08-29T08:45:48.915Z</time>
      </trkpt>
      <trkpt lat="52.078939" lon="5.122463">
        <ele>0.676255</ele>
        <time>2026-08-29T08:45:56.922Z</time>
      </trkpt>
      <trkpt lat="52.078976" lon="5.122615">
        <ele>0.659860</ele>
        <time>2026-08-29T08:48:39.924Z</time>
      </trkpt>
      <trkpt lat="52.079066" lon="5.122693">
        <ele>0.644043</ele>
        <time>2026-08-29T08:48:48.920Z</time>
      </trkpt>
      <trkpt lat="52.079144" lon="5.122792">
        <ele>0.632779</ele>
        <time>2026-08-29T08:48:56.926Z</time>
      </trkpt>
      <trkpt lat="52.079222" lon="5.122870">
        <ele>0.622354</ele>
        <time>2026-08-29T08:49:03.924Z</time>
      </trkpt>
      <trkpt lat="52.079308" lon="5.122932">
        <ele>0.611643</ele>
        <time>2026-08-29T08:49:10.925Z</time>
      </trkpt>
      <trkpt lat="52.079396" lon="5.122997">
        <ele>0.600639</ele>
        <time>2026-08-29T08:49:17.924Z</time>
      </trkpt>
      <trkpt lat="52.079483" lon="5.123046">
        <ele>0.590155</ele>
        <time>2026-08-29T08:49:24.914Z</time>
      </trkpt>
      <trkpt lat="52.079571" lon="5.123103">
        <ele>0.579370</ele>
        <time>2026-08-29T08:49:31.924Z</time>
      </trkpt>
      <trkpt lat="52.079657" lon="5.123171">
        <ele>0.568483</ele>
        <time>2026-08-29T08:49:38.924Z</time>
      </trkpt>
      <trkpt lat="52.079747" lon="5.123216">
        <ele>0.557762</ele>
        <time>2026-08-29T08:49:45.918Z</time>
      </trkpt>
      <trkpt lat="52.079835" lon="5.123271">
        <ele>0.547027</ele>
        <time>2026-08-29T08:49:52.912Z</time>
      </trkpt>
      <trkpt lat="52.079924" lon="5.123320">
        <ele>0.536329</ele>
        <time>2026-08-29T08:49:59.924Z</time>
      </trkpt>
      <trkpt lat="52.080015" lon="5.123360">
        <ele>0.525595</ele>
        <time>2026-08-29T08:50:06.913Z</time>
      </trkpt>
      <trkpt lat="52.080104" lon="5.123412">
        <ele>0.514827</ele>
        <time>2026-08-29T08:50:13.925Z</time>
      </trkpt>
      <trkpt lat="52.080196" lon="5.123453">
        <ele>0.503966</ele>
        <time>2026-08-29T08:50:20.915Z</time>
      </trkpt>
      <trkpt lat="52.080286" lon="5.123497">
        <ele>0.493265</ele>
        <time>2026-08-29T08:50:27.918Z</time>
      </trkpt>
      <trkpt lat="52.080371" lon="5.123552">
        <ele>0.482849</ele>
        <time>2026-08-29T08:50:34.916Z</time>
      </trkpt>
      <trkpt lat="52.080472" lon="5.123575">
        <ele>0.471236</ele>
        <time>2026-08-29T08:50:42.910Z</time>
      </trkpt>
      <trkpt lat="52.080572" lon="5.123613">
        <ele>0.459543</ele>
        <time>2026-08-29T08:50:50.914Z</time>
      </trkpt>
      <trkpt lat="52.080665" lon="5.123644">
        <ele>0.448733</ele>
        <time>2026-08-29T08:50:57.925Z</time>
      </trkpt>
      <trkpt lat="52.080759" lon="5.123671">
        <ele>0.461926</ele>
        <time>2026-08-29T08:51:04.914Z</time>
      </trkpt>
      <trkpt lat="52.080854" lon="5.123704">
        <ele>0.532339</ele>
        <time>2026-08-29T08:51:11.913Z</time>
      </trkpt>
      <trkpt lat="52.080942" lon="5.123742">
        <ele>0.598333</ele>
        <time>2026-08-29T08:51:26.911Z</time>
      </trkpt>
      <trkpt lat="52.081033" lon="5.123769">
        <ele>0.665382</ele>
        <time>2026-08-29T08:51:32.915Z</time>
      </trkpt>
      <trkpt lat="52.081117" lon="5.123709">
        <ele>0.731878</ele>
        <time>2026-08-29T08:51:38.916Z</time>
      </trkpt>
      <trkpt lat="52.081168" lon="5.123570">
        <ele>0.803992</ele>
        <time>2026-08-29T08:51:46.916Z</time>
      </trkpt>
      <trkpt lat="52.081176" lon="5.123412">
        <ele>0.874612</ele>
        <time>2026-08-29T08:51:55.914Z</time>
      </trkpt>
      <trkpt lat="52.081157" lon="5.123250">
        <ele>0.948078</ele>
        <time>2026-08-29T08:52:03.917Z</time>
      </trkpt>
      <trkpt lat="52.081127" lon="5.123108">
        <ele>1.014966</ele>
        <time>2026-08-29T08:52:10.915Z</time>
      </trkpt>
      <trkpt lat="52.081095" lon="5.122952">
        <ele>1.088226</ele>
        <time>2026-08-29T08:52:18.915Z</time>
      </trkpt>
      <trkpt lat="52.081063" lon="5.122814">
        <ele>1.153929</ele>
        <time>2026-08-29T08:52:25.917Z</time>
      </trkpt>
      <trkpt lat="52.081019" lon="5.122670">
        <ele>1.225566</ele>
        <time>2026-08-29T08:52:33.916Z</time>
      </trkpt>
      <trkpt lat="52.080975" lon="5.122528">
        <ele>1.296406</ele>
        <time>2026-08-29T08:52:41.919Z</time>
      </trkpt>
      <trkpt lat="52.080953" lon="5.122371">
        <ele>1.368137</ele>
        <time>2026-08-29T08:52:49.917Z</time>
      </trkpt>
      <trkpt lat="52.080930" lon="5.122212">
        <ele>1.440901</ele>
        <time>2026-08-29T08:52:57.915Z</time>
      </trkpt>
      <trkpt lat="52.080920" lon="5.122063">
        <ele>1.507668</ele>
        <time>2026-08-29T08:53:06.916Z</time>
      </trkpt>
      <trkpt lat="52.080946" lon="5.121914">
        <ele>1.576665</ele>
        <time>2026-08-29T08:53:19.913Z</time>
      </trkpt>
      <trkpt lat="52.080946" lon="5.121766">
        <ele>1.642592</ele>
        <time>2026-08-29T08:53:32.920Z</time>
      </trkpt>
      <trkpt lat="52.080996" lon="5.121639">
        <ele>1.709779</ele>
        <time>2026-08-29T08:53:42.919Z</time>
      </trkpt>
      <trkpt lat="52.081085" lon="5.121552">
        <ele>1.804272</ele>
        <time>2026-08-29T08:53:50.912Z</time>
      </trkpt>
      <trkpt lat="52.081174" lon="5.121471">
        <ele>1.913596</ele>
        <time>2026-08-29T08:53:57.911Z</time>
      </trkpt>
      <trkpt lat="52.081267" lon="5.121402">
        <ele>2.023173</ele>
        <time>2026-08-29T08:54:04.917Z</time>
      </trkpt>
      <trkpt lat="52.081360" lon="5.121349">
        <ele>2.128813</ele>
        <time>2026-08-29T08:54:11.909Z</time>
      </trkpt>
      <trkpt lat="52.081458" lon="5.121298">
        <ele>2.239119</ele>
        <time>2026-08-29T08:54:18.915Z</time>
      </trkpt>
      <trkpt lat="52.081556" lon="5.121264">
        <ele>2.346543</ele>
        <time>2026-08-29T08:54:25.912Z</time>
      </trkpt>
      <trkpt lat="52.081651" lon="5.121217">
        <ele>2.452993</ele>
        <time>2026-08-29T08:54:32.914Z</time>
      </trkpt>
      <trkpt lat="52.081742" lon="5.121172">
        <ele>2.554957</ele>
        <time>2026-08-29T08:54:39.928Z</time>
      </trkpt>
      <trkpt lat="52.081835" lon="5.121106">
        <ele>2.663728</ele>
        <time>2026-08-29T08:54:46.912Z</time>
      </trkpt>
      <trkpt lat="52.081928" lon="5.121068">
        <ele>2.766526</ele>
        <time>2026-08-29T08:54:53.928Z</time>
      </trkpt>
      <trkpt lat="52.082016" lon="5.121008">
        <ele>2.868815</ele>
        <time>2026-08-29T08:55:00.914Z</time>
      </trkpt>
      <trkpt lat="52.082103" lon="5.120961">
        <ele>2.967091</ele>
        <time>2026-08-29T08:55:07.914Z</time>
      </trkpt>
      <trkpt lat="52.082194" lon="5.120906">
        <ele>3.071161</ele>
        <time>2026-08-29T08:55:14.912Z</time>
      </trkpt>
      <trkpt lat="52.082284" lon="5.120862">
        <ele>3.171908</ele>
        <time>2026-08-29T08:55:21.913Z</time>
      </trkpt>
      <trkpt lat="52.082378" lon="5.120809">
        <ele>3.278561</ele>
        <time>2026-08-29T08:55:28.912Z</time>
      </trkpt>
      <trkpt lat="52.082474" lon="5.120761">
        <ele>3.386228</ele>
        <time>2026-08-29T08:55:35.919Z</time>
      </trkpt>
      <trkpt lat="52.082563" lon="5.120724">
        <ele>3.484707</ele>
        <time>2026-08-29T08:55:42.914Z</time>
      </trkpt>
      <trkpt lat="52.082655" lon="5.120674">
        <ele>3.588693</ele>
        <time>2026-08-29T08:55:49.915Z</time>
      </trkpt>
      <trkpt lat="52.082753" lon="5.120626">
        <ele>3.676059</ele>
        <time>2026-08-29T08:55:56.928Z</time>
      </trkpt>
      <trkpt lat="52.082850" lon="5.120568">
        <ele>3.688804</ele>
        <time>2026-08-29T08:56:03.920Z</time>
      </trkpt>
      <trkpt lat="52.082944" lon="5.120519">
        <ele>3.700978</ele>
        <time>2026-08-29T08:56:10.919Z</time>
      </trkpt>
      <trkpt lat="52.083038" lon="5.120475">
        <ele>3.713042</ele>
        <time>2026-08-29T08:56:17.913Z</time>
      </trkpt>
      <trkpt lat="52.083133" lon="5.120439">
        <ele>3.725072</ele>
        <time>2026-08-29T08:56:24.920Z</time>
      </trkpt>
      <trkpt lat="52.083221" lon="5.120398">
        <ele>3.736362</ele>
        <time>2026-08-29T08:56:31.920Z</time>
      </trkpt>
      <trkpt lat="52.083317" lon="5.120362">
        <ele>3.748512</ele>
        <time>2026-08-29T08:56:39.911Z</time>
      </trkpt>
      <trkpt lat="52.083413" lon="5.120317">
        <ele>3.760834</ele>
        <time>2026-08-29T08:56:47.919Z</time>
      </trkpt>
      <trkpt lat="52.083507" lon="5.120265">
        <ele>3.773079</ele>
        <time>2026-08-29T08:56:55.919Z</time>
      </trkpt>
      <trkpt lat="52.083596" lon="5.120224">
        <ele>3.784487</ele>
        <time>2026-08-29T08:57:03.920Z</time>
      </trkpt>
      <trkpt lat="52.083683" lon="5.120182">
        <ele>3.795680</ele>
        <time>2026-08-29T08:57:10.919Z</time>
      </trkpt>
      <trkpt lat="52.083774" lon="5.120121">
        <ele>3.807818</ele>
        <time>2026-08-29T08:57:17.913Z</time>
      </trkpt>
      <trkpt lat="52.083862" lon="5.120064">
        <ele>3.819500</ele>
        <time>2026-08-29T08:57:24.919Z</time>
      </trkpt>
      <trkpt lat="52.083954" lon="5.120003">
        <ele>3.831752</ele>
        <time>2026-08-29T08:57:31.928Z</time>
      </trkpt>
      <trkpt lat="52.084048" lon="5.119950">
        <ele>3.844022</ele>
        <time>2026-08-29T08:57:38.913Z</time>
      </trkpt>
      <trkpt lat="52.084136" lon="5.119882">
        <ele>3.856037</ele>
        <time>2026-08-29T08:57:45.919Z</time>
      </trkpt>
      <trkpt lat="52.084230" lon="5.119842">
        <ele>3.868021</ele>
        <time>2026-08-29T08:57:52.919Z</time>
      </trkpt>
      <trkpt lat="52.084323" lon="5.119807">
        <ele>3.879793</ele>
        <time>2026-08-29T08:57:59.912Z</time>
      </trkpt>
      <trkpt lat="52.084415" lon="5.119750">
        <ele>3.891935</ele>
        <time>2026-08-29T08:58:06.919Z</time>
      </trkpt>
      <trkpt lat="52.084504" lon="5.119687">
        <ele>3.780299</ele>
        <time>2026-08-29T08:58:13.911Z</time>
      </trkpt>
      <trkpt lat="52.084592" lon="5.119618">
        <ele>3.625321</ele>
        <time>2026-08-29T08:58:20.915Z</time>
      </trkpt>
      <trkpt lat="52.084681" lon="5.119550">
        <ele>3.469329</ele>
        <time>2026-08-29T08:58:27.910Z</time>
      </trkpt>
      <trkpt lat="52.084772" lon="5.119477">
        <ele>3.308363</ele>
        <time>2026-08-29T08:58:34.913Z</time>
      </trkpt>
      <trkpt lat="52.084867" lon="5.119410">
        <ele>3.144095</ele>
        <time>2026-08-29T08:58:41.919Z</time>
      </trkpt>
      <trkpt lat="52.084961" lon="5.119339">
        <ele>2.979678</ele>
        <time>2026-08-29T08:58:48.914Z</time>
      </trkpt>
      <trkpt lat="52.085040" lon="5.119266">
        <ele>2.835543</ele>
        <time>2026-08-29T08:58:54.912Z</time>
      </trkpt>
      <trkpt lat="52.085122" lon="5.119193">
        <ele>2.687251</ele>
        <time>2026-08-29T08:59:00.912Z</time>
      </trkpt>
      <trkpt lat="52.085209" lon="5.119114">
        <ele>2.529187</ele>
        <time>2026-08-29T08:59:07.928Z</time>
      </trkpt>
      <trkpt lat="52.085292" lon="5.119037">
        <ele>2.377608</ele>
        <time>2026-08-29T08:59:14.911Z</time>
      </trkpt>
      <trkpt lat="52.085372" lon="5.118959">
        <ele>2.229647</ele>
        <time>2026-08-29T08:59:24.913Z</time>
      </trkpt>
      <trkpt lat="52.085451" lon="5.118862">
        <ele>2.072636</ele>
        <time>2026-08-29T08:59:30.913Z</time>
      </trkpt>
      <trkpt lat="52.085538" lon="5.118778">
        <ele>1.912140</ele>
        <time>2026-08-29T08:59:37.929Z</time>
      </trkpt>
      <trkpt lat="52.085614" lon="5.118688">
        <ele>1.763017</ele>
        <time>2026-08-29T08:59:44.911Z</time>
      </trkpt>
      <trkpt lat="52.085702" lon="5.118600">
        <ele>1.599147</ele>
        <time>2026-08-29T08:59:51.914Z</time>
      </trkpt>
      <trkpt lat="52.085779" lon="5.118523">
        <ele>1.455762</ele>
        <time>2026-08-29T08:59:57.916Z</time>
      </trkpt>
      <trkpt lat="52.085854" lon="5.118439">
        <ele>1.311313</ele>
        <time>2026-08-29T09:00:03.913Z</time>
      </trkpt>
      <trkpt lat="52.085939" lon="5.118349">
        <ele>1.150425</ele>
        <time>2026-08-29T09:00:10.912Z</time>
      </trkpt>
      <trkpt lat="52.086021" lon="5.118249">
        <ele>1.026768</ele>
        <time>2026-08-29T09:00:17.912Z</time>
      </trkpt>
      <trkpt lat="52.086110" lon="5.118182">
        <ele>0.984382</ele>
        <time>2026-08-29T09:00:24.915Z</time>
      </trkpt>
      <trkpt lat="52.086197" lon="5.118110">
        <ele>0.942194</ele>
        <time>2026-08-29T09:00:31.919Z</time>
      </trkpt>
      <trkpt lat="52.086290" lon="5.118033">
        <ele>0.897092</ele>
        <time>2026-08-29T09:00:38.917Z</time>
      </trkpt>
      <trkpt lat="52.086374" lon="5.117950">
        <ele>0.854616</ele>
        <time>2026-08-29T09:00:45.919Z</time>
      </trkpt>
      <trkpt lat="52.086462" lon="5.117871">
        <ele>0.811176</ele>
        <time>2026-08-29T09:00:52.910Z</time>
      </trkpt>
      <trkpt lat="52.086553" lon="5.117801">
        <ele>0.767669</ele>
        <time>2026-08-29T09:00:59.917Z</time>
      </trkpt>
      <trkpt lat="52.086642" lon="5.117731">
        <ele>0.724943</ele>
        <time>2026-08-29T09:01:06.920Z</time>
      </trkpt>
      <trkpt lat="52.086722" lon="5.117661">
        <ele>0.685683</ele>
        <time>2026-08-29T09:01:13.919Z</time>
      </trkpt>
      <trkpt lat="52.086803" lon="5.117584">
        <ele>0.645136</ele>
        <time>2026-08-29T09:01:20.911Z</time>
      </trkpt>
      <trkpt lat="52.086887" lon="5.117500">
        <ele>0.602521</ele>
        <time>2026-08-29T09:01:27.912Z</time>
      </trkpt>
      <trkpt lat="52.086978" lon="5.117422">
        <ele>0.558065</ele>
        <time>2026-08-29T09:01:34.920Z</time>
      </trkpt>
      <trkpt lat="52.087062" lon="5.117329">
        <ele>0.514152</ele>
        <time>2026-08-29T09:01:41.919Z</time>
      </trkpt>
      <trkpt lat="52.087144" lon="5.117255">
        <ele>0.473624</ele>
        <time>2026-08-29T09:01:49.924Z</time>
      </trkpt>
      <trkpt lat="52.087228" lon="5.117195">
        <ele>0.433973</ele>
        <time>2026-08-29T09:02:07.910Z</time>
      </trkpt>
      <trkpt lat="52.087309" lon="5.117120">
        <ele>0.393691</ele>
        <time>2026-08-29T09:02:18.915Z</time>
      </trkpt>
      <trkpt lat="52.087394" lon="5.117050">
        <ele>0.352515</ele>
        <time>2026-08-29T09:02:26.913Z</time>
      </trkpt>
      <trkpt lat="52.087479" lon="5.116974">
        <ele>0.310595</ele>
        <time>2026-08-29T09:02:34.912Z</time>
      </trkpt>
      <trkpt lat="52.087560" lon="5.116901">
        <ele>0.270574</ele>
        <time>2026-08-29T09:02:42.915Z</time>
      </trkpt>
      <trkpt lat="52.087641" lon="5.116823">
        <ele>0.230165</ele>
        <time>2026-08-29T09:02:50.917Z</time>
      </trkpt>
      <trkpt lat="52.087719" lon="5.116743">
        <ele>0.190632</ele>
        <time>2026-08-29T09:02:57.912Z</time>
      </trkpt>
      <trkpt lat="52.087803" lon="5.116675">
        <ele>0.150405</ele>
        <time>2026-08-29T09:03:04.912Z</time>
      </trkpt>
      <trkpt lat="52.087889" lon="5.116612">
        <ele>0.109966</ele>
        <time>2026-08-29T09:03:12.915Z</time>
      </trkpt>
      <trkpt lat="52.087954" lon="5.116507">
        <ele>0.070697</ele>
        <time>2026-08-29T09:03:21.910Z</time>
      </trkpt>
      <trkpt lat="52.088041" lon="5.116435">
        <ele>0.028847</ele>
        <time>2026-08-29T09:03:34.915Z</time>
      </trkpt>
      <trkpt lat="52.088118" lon="5.116337">
        <ele>-0.013066</ele>
        <time>2026-08-29T09:03:46.912Z</time>
      </trkpt>
      <trkpt lat="52.088195" lon="5.116254">
        <ele>-0.052667</ele>
        <time>2026-08-29T09:03:58.919Z</time>
      </trkpt>
      <trkpt lat="52.088445" lon="5.115974">
        <ele>-0.182793</ele>
        <time>2026-08-29T09:06:02.919Z</time>
      </trkpt>
      <trkpt lat="52.088524" lon="5.115892">
        <ele>-0.222969</ele>
        <time>2026-08-29T09:06:11.917Z</time>
      </trkpt>
      <trkpt lat="52.088601" lon="5.115810">
        <ele>-0.262426</ele>
        <time>2026-08-29T09:06:17.913Z</time>
      </trkpt>
      <trkpt lat="52.088687" lon="5.115717">
        <ele>-0.306699</ele>
        <time>2026-08-29T09:06:24.918Z</time>
      </trkpt>
      <trkpt lat="52.088776" lon="5.115640">
        <ele>-0.349917</ele>
        <time>2026-08-29T09:06:31.916Z</time>
      </trkpt>
      <trkpt lat="52.088864" lon="5.115565">
        <ele>-0.392511</ele>
        <time>2026-08-29T09:06:38.921Z</time>
      </trkpt>
      <trkpt lat="52.088951" lon="5.115487">
        <ele>-0.435100</ele>
        <time>2026-08-29T09:06:45.913Z</time>
      </trkpt>
      <trkpt lat="52.089034" lon="5.115410">
        <ele>-0.476065</ele>
        <time>2026-08-29T09:06:52.919Z</time>
      </trkpt>
      <trkpt lat="52.089120" lon="5.115323">
        <ele>-0.422809</ele>
        <time>2026-08-29T09:07:00.919Z</time>
      </trkpt>
      <trkpt lat="52.089200" lon="5.115245">
        <ele>-0.144780</ele>
        <time>2026-08-29T09:07:07.916Z</time>
      </trkpt>
      <trkpt lat="52.089287" lon="5.115160">
        <ele>0.157742</ele>
        <time>2026-08-29T09:07:14.918Z</time>
      </trkpt>
      <trkpt lat="52.089373" lon="5.115067">
        <ele>0.465572</ele>
        <time>2026-08-29T09:07:24.913Z</time>
      </trkpt>
      <trkpt lat="52.089465" lon="5.115007">
        <ele>0.761055</ele>
        <time>2026-08-29T09:07:31.909Z</time>
      </trkpt>
      <trkpt lat="52.089556" lon="5.114990">
        <ele>1.034136</ele>
        <time>2026-08-29T09:07:38.909Z</time>
      </trkpt>
      <trkpt lat="52.089645" lon="5.114940">
        <ele>1.314836</ele>
        <time>2026-08-29T09:07:50.924Z</time>
      </trkpt>
      <trkpt lat="52.089699" lon="5.114819">
        <ele>1.588782</ele>
        <time>2026-08-29T09:08:06.912Z</time>
      </trkpt>
      <trkpt lat="52.089775" lon="5.114721">
        <ele>1.877857</ele>
        <time>2026-08-29T09:08:16.910Z</time>
      </trkpt>
      <trkpt lat="52.089864" lon="5.114637">
        <ele>2.184582</ele>
        <time>2026-08-29T09:08:23.911Z</time>
      </trkpt>
      <trkpt lat="52.089950" lon="5.114544">
        <ele>2.492411</ele>
        <time>2026-08-29T09:08:29.913Z</time>
      </trkpt>
      <trkpt lat="52.090040" lon="5.114476">
        <ele>2.788233</ele>
        <time>2026-08-29T09:08:35.909Z</time>
      </trkpt>
      <trkpt lat="52.090126" lon="5.114419">
        <ele>3.065071</ele>
        <time>2026-08-29T09:08:42.909Z</time>
      </trkpt>
      <trkpt lat="52.090196" lon="5.114316">
        <ele>3.346407</ele>
        <time>2026-08-29T09:08:57.922Z</time>
      </trkpt>
      <trkpt lat="52.090281" lon="5.114256">
        <ele>3.622627</ele>
        <time>2026-08-29T09:09:15.915Z</time>
      </trkpt>
      <trkpt lat="52.090366" lon="5.114173">
        <ele>3.918148</ele>
        <time>2026-08-29T09:09:26.910Z</time>
      </trkpt>
      <trkpt lat="52.090454" lon="5.114098">
        <ele>4.214298</ele>
        <time>2026-08-29T09:09:34.914Z</time>
      </trkpt>
      <trkpt lat="52.090545" lon="5.114024">
        <ele>4.517576</ele>
        <time>2026-08-29T09:09:42.914Z</time>
      </trkpt>
      <trkpt lat="52.090628" lon="5.113951">
        <ele>4.798844</ele>
        <time>2026-08-29T09:09:50.915Z</time>
      </trkpt>
      <trkpt lat="52.090710" lon="5.113885">
        <ele>4.683481</ele>
        <time>2026-08-29T09:09:57.914Z</time>
      </trkpt>
      <trkpt lat="52.090801" lon="5.113817">
        <ele>4.447063</ele>
        <time>2026-08-29T09:10:06.909Z</time>
      </trkpt>
      <trkpt lat="52.090888" lon="5.113740">
        <ele>4.213245</ele>
        <time>2026-08-29T09:10:13.909Z</time>
      </trkpt>
      <trkpt lat="52.091787" lon="5.112675">
        <ele>1.587949</ele>
        <time>2026-08-29T09:11:37.923Z</time>
      </trkpt>
      <trkpt lat="52.091883" lon="5.112722">
        <ele>1.351256</ele>
        <time>2026-08-29T09:11:41.908Z</time>
      </trkpt>
      <trkpt lat="52.091979" lon="5.112666">
        <ele>1.110478</ele>
        <time>2026-08-29T09:11:47.910Z</time>
      </trkpt>
      <trkpt lat="52.092063" lon="5.112607">
        <ele>0.894470</ele>
        <time>2026-08-29T09:11:53.923Z</time>
      </trkpt>
      <trkpt lat="52.092152" lon="5.112530">
        <ele>0.656495</ele>
        <time>2026-08-29T09:12:01.911Z</time>
      </trkpt>
      <trkpt lat="52.092239" lon="5.112443">
        <ele>0.563853</ele>
        <time>2026-08-29T09:12:09.911Z</time>
      </trkpt>
      <trkpt lat="52.092321" lon="5.112362">
        <ele>0.511658</ele>
        <time>2026-08-29T09:12:16.922Z</time>
      </trkpt>
      <trkpt lat="52.092406" lon="5.112269">
        <ele>0.455926</ele>
        <time>2026-08-29T09:12:24.922Z</time>
      </trkpt>
      <trkpt lat="52.092486" lon="5.112189">
        <ele>0.404835</ele>
        <time>2026-08-29T09:12:31.922Z</time>
      </trkpt>
      <trkpt lat="52.092570" lon="5.112112">
        <ele>0.352376</ele>
        <time>2026-08-29T09:12:38.909Z</time>
      </trkpt>
      <trkpt lat="52.092651" lon="5.112046">
        <ele>0.303085</ele>
        <time>2026-08-29T09:12:44.922Z</time>
      </trkpt>
      <trkpt lat="52.092734" lon="5.111981">
        <ele>0.252965</ele>
        <time>2026-08-29T09:12:51.909Z</time>
      </trkpt>
      <trkpt lat="52.092798" lon="5.111866">
        <ele>0.201090</ele>
        <time>2026-08-29T09:12:59.910Z</time>
      </trkpt>
      <trkpt lat="52.092873" lon="5.111783">
        <ele>0.151739</ele>
        <time>2026-08-29T09:13:04.921Z</time>
      </trkpt>
      <trkpt lat="52.092962" lon="5.111747">
        <ele>0.101837</ele>
        <time>2026-08-29T09:13:10.910Z</time>
      </trkpt>
      <trkpt lat="52.093054" lon="5.111718">
        <ele>0.050845</ele>
        <time>2026-08-29T09:13:16.922Z</time>
      </trkpt>
      <trkpt lat="52.093140" lon="5.111623">
        <ele>-0.005712</ele>
        <time>2026-08-29T09:13:23.911Z</time>
      </trkpt>
      <trkpt lat="52.093228" lon="5.111541">
        <ele>-0.060889</ele>
        <time>2026-08-29T09:13:30.912Z</time>
      </trkpt>
      <trkpt lat="52.093315" lon="5.111458">
        <ele>-0.115763</ele>
        <time>2026-08-29T09:13:37.909Z</time>
      </trkpt>
      <trkpt lat="52.093404" lon="5.111387">
        <ele>-0.169696</ele>
        <time>2026-08-29T09:13:44.914Z</time>
      </trkpt>
      <trkpt lat="52.093495" lon="5.111311">
        <ele>-0.225352</ele>
        <time>2026-08-29T09:13:51.912Z</time>
      </trkpt>
      <trkpt lat="52.093580" lon="5.111242">
        <ele>-0.277037</ele>
        <time>2026-08-29T09:13:58.924Z</time>
      </trkpt>
      <trkpt lat="52.093669" lon="5.111166">
        <ele>-0.331727</ele>
        <time>2026-08-29T09:14:05.913Z</time>
      </trkpt>
      <trkpt lat="52.093756" lon="5.111119">
        <ele>-0.385167</ele>
        <time>2026-08-29T09:14:12.909Z</time>
      </trkpt>
      <trkpt lat="52.093843" lon="5.111025">
        <ele>-0.460071</ele>
        <time>2026-08-29T09:14:19.909Z</time>
      </trkpt>
      <trkpt lat="52.093923" lon="5.110943">
        <ele>-0.527886</ele>
        <time>2026-08-29T09:14:26.922Z</time>
      </trkpt>
      <trkpt lat="52.094004" lon="5.110861">
        <ele>-0.596309</ele>
        <time>2026-08-29T09:14:33.912Z</time>
      </trkpt>
      <trkpt lat="52.094091" lon="5.110775">
        <ele>-0.669321</ele>
        <time>2026-08-29T09:14:40.922Z</time>
      </trkpt>
      <trkpt lat="52.094184" lon="5.110707">
        <ele>-0.742453</ele>
        <time>2026-08-29T09:14:47.912Z</time>
      </trkpt>
      <trkpt lat="52.094273" lon="5.110628">
        <ele>-0.815169</ele>
        <time>2026-08-29T09:14:54.910Z</time>
      </trkpt>
      <trkpt lat="52.094367" lon="5.110564">
        <ele>-0.888257</ele>
        <time>2026-08-29T09:15:01.922Z</time>
      </trkpt>
      <trkpt lat="52.094450" lon="5.110508">
        <ele>-0.952706</ele>
        <time>2026-08-29T09:15:07.912Z</time>
      </trkpt>
      <trkpt lat="52.094536" lon="5.110418">
        <ele>-1.026044</ele>
        <time>2026-08-29T09:15:13.911Z</time>
      </trkpt>
      <trkpt lat="52.094628" lon="5.110348">
        <ele>-1.098891</ele>
        <time>2026-08-29T09:15:20.922Z</time>
      </trkpt>
      <trkpt lat="52.094723" lon="5.110276">
        <ele>-1.174060</ele>
        <time>2026-08-29T09:15:27.914Z</time>
      </trkpt>
      <trkpt lat="52.094807" lon="5.110199">
        <ele>-1.243212</ele>
        <time>2026-08-29T09:15:33.910Z</time>
      </trkpt>
      <trkpt lat="52.094891" lon="5.110140">
        <ele>-1.308836</ele>
        <time>2026-08-29T09:15:39.914Z</time>
      </trkpt>
      <trkpt lat="52.094976" lon="5.110050">
        <ele>-1.381572</ele>
        <time>2026-08-29T09:15:46.911Z</time>
      </trkpt>
      <trkpt lat="52.095068" lon="5.109988">
        <ele>-1.452997</ele>
        <time>2026-08-29T09:15:53.915Z</time>
      </trkpt>
      <trkpt lat="52.095166" lon="5.109974">
        <ele>-1.523563</ele>
        <time>2026-08-29T09:16:01.913Z</time>
      </trkpt>
      <trkpt lat="52.095257" lon="5.109977">
        <ele>-1.588852</ele>
        <time>2026-08-29T09:16:08.915Z</time>
      </trkpt>
      <trkpt lat="52.095352" lon="5.110011">
        <ele>-1.658624</ele>
        <time>2026-08-29T09:16:15.911Z</time>
      </trkpt>
      <trkpt lat="52.095440" lon="5.110080">
        <ele>-1.785440</ele>
        <time>2026-08-29T09:16:22.915Z</time>
      </trkpt>
      <trkpt lat="52.095516" lon="5.110177">
        <ele>-1.912460</ele>
        <time>2026-08-29T09:16:29.909Z</time>
      </trkpt>
      <trkpt lat="52.095583" lon="5.110305">
        <ele>-2.048333</ele>
        <time>2026-08-29T09:16:36.909Z</time>
      </trkpt>
      <trkpt lat="52.095640" lon="5.110434">
        <ele>-2.176724</ele>
        <time>2026-08-29T09:16:43.908Z</time>
      </trkpt>
      <trkpt lat="52.095692" lon="5.110579">
        <ele>-2.312384</ele>
        <time>2026-08-29T09:16:50.908Z</time>
      </trkpt>
      <trkpt lat="52.095747" lon="5.110702">
        <ele>-2.435306</ele>
        <time>2026-08-29T09:16:56.913Z</time>
      </trkpt>
      <trkpt lat="52.095798" lon="5.110843">
        <ele>-2.567512</ele>
        <time>2026-08-29T09:17:03.909Z</time>
      </trkpt>
      <trkpt lat="52.095842" lon="5.110984">
        <ele>-2.695294</ele>
        <time>2026-08-29T09:17:10.923Z</time>
      </trkpt>
      <trkpt lat="52.095893" lon="5.111124">
        <ele>-2.826805</ele>
        <time>2026-08-29T09:17:17.910Z</time>
      </trkpt>
      <trkpt lat="52.095933" lon="5.111267">
        <ele>-2.953761</ele>
        <time>2026-08-29T09:17:24.909Z</time>
      </trkpt>
      <trkpt lat="52.095977" lon="5.111395">
        <ele>-3.072273</ele>
        <time>2026-08-29T09:17:30.911Z</time>
      </trkpt>
      <trkpt lat="52.096032" lon="5.111528">
        <ele>-3.201814</ele>
        <time>2026-08-29T09:17:36.922Z</time>
      </trkpt>
      <trkpt lat="52.096077" lon="5.111663">
        <ele>-3.325914</ele>
        <time>2026-08-29T09:17:42.910Z</time>
      </trkpt>
      <trkpt lat="52.096122" lon="5.111792">
        <ele>-3.445776</ele>
        <time>2026-08-29T09:17:48.909Z</time>
      </trkpt>
      <trkpt lat="52.096160" lon="5.111953">
        <ele>-3.585132</ele>
        <time>2026-08-29T09:17:55.912Z</time>
      </trkpt>
      <trkpt lat="52.096199" lon="5.112109">
        <ele>-3.721215</ele>
        <time>2026-08-29T09:18:02.914Z</time>
      </trkpt>
      <trkpt lat="52.096247" lon="5.112256">
        <ele>-3.855724</ele>
        <time>2026-08-29T09:18:09.910Z</time>
      </trkpt>
      <trkpt lat="52.096299" lon="5.112397">
        <ele>-3.988601</ele>
        <time>2026-08-29T09:18:15.914Z</time>
      </trkpt>
      <trkpt lat="52.096338" lon="5.112545">
        <ele>-3.867283</ele>
        <time>2026-08-29T09:18:22.915Z</time>
      </trkpt>
      <trkpt lat="52.096377" lon="5.112702">
        <ele>-3.632228</ele>
        <time>2026-08-29T09:18:29.922Z</time>
      </trkpt>
      <trkpt lat="52.096409" lon="5.112845">
        <ele>-3.420988</ele>
        <time>2026-08-29T09:18:35.910Z</time>
      </trkpt>
      <trkpt lat="52.096449" lon="5.112990">
        <ele>-3.200370</ele>
        <time>2026-08-29T09:18:42.916Z</time>
      </trkpt>
      <trkpt lat="52.096490" lon="5.113124">
        <ele>-2.992589</ele>
        <time>2026-08-29T09:18:48.922Z</time>
      </trkpt>
      <trkpt lat="52.096517" lon="5.113278">
        <ele>-2.770305</ele>
        <time>2026-08-29T09:18:57.922Z</time>
      </trkpt>
      <trkpt lat="52.096562" lon="5.113407">
        <ele>-2.564403</ele>
        <time>2026-08-29T09:19:06.908Z</time>
      </trkpt>
      <trkpt lat="52.096612" lon="5.113535">
        <ele>-2.353867</ele>
        <time>2026-08-29T09:19:13.919Z</time>
      </trkpt>
      <trkpt lat="52.096635" lon="5.113685">
        <ele>-2.139283</ele>
        <time>2026-08-29T09:19:37.920Z</time>
      </trkpt>
      <trkpt lat="52.096674" lon="5.113963">
        <ele>-1.743492</ele>
        <time>2026-08-29T09:20:23.926Z</time>
      </trkpt>
      <trkpt lat="52.096714" lon="5.114110">
        <ele>-1.520340</ele>
        <time>2026-08-29T09:20:30.914Z</time>
      </trkpt>
      <trkpt lat="52.096755" lon="5.114259">
        <ele>-1.293733</ele>
        <time>2026-08-29T09:20:36.916Z</time>
      </trkpt>
      <trkpt lat="52.096787" lon="5.114410">
        <ele>-1.072029</ele>
        <time>2026-08-29T09:20:44.928Z</time>
      </trkpt>
      <trkpt lat="52.096810" lon="5.114569">
        <ele>-0.845305</ele>
        <time>2026-08-29T09:20:52.910Z</time>
      </trkpt>
      <trkpt lat="52.096844" lon="5.114712">
        <ele>-0.632478</ele>
        <time>2026-08-29T09:20:59.910Z</time>
      </trkpt>
      <trkpt lat="52.096874" lon="5.114859">
        <ele>-0.417482</ele>
        <time>2026-08-29T09:21:06.911Z</time>
      </trkpt>
      <trkpt lat="52.096885" lon="5.115015">
        <ele>-0.199537</ele>
        <time>2026-08-29T09:21:13.910Z</time>
      </trkpt>
      <trkpt lat="52.096858" lon="5.115169">
        <ele>0.022745</ele>
        <time>2026-08-29T09:21:23.912Z</time>
      </trkpt>
      <trkpt lat="52.096807" lon="5.115300">
        <ele>0.061279</ele>
        <time>2026-08-29T09:21:30.912Z</time>
      </trkpt>
      <trkpt lat="52.096763" lon="5.115431">
        <ele>0.085827</ele>
        <time>2026-08-29T09:21:39.910Z</time>
      </trkpt>
      <trkpt lat="52.096700" lon="5.115551">
        <ele>0.111780</ele>
        <time>2026-08-29T09:21:48.911Z</time>
      </trkpt>
      <trkpt lat="52.096643" lon="5.115674">
        <ele>0.137112</ele>
        <time>2026-08-29T09:21:55.912Z</time>
      </trkpt>
      <trkpt lat="52.096592" lon="5.115818">
        <ele>0.164441</ele>
        <time>2026-08-29T09:22:02.925Z</time>
      </trkpt>
      <trkpt lat="52.096560" lon="5.115959">
        <ele>0.189156</ele>
        <time>2026-08-29T09:22:09.914Z</time>
      </trkpt>
      <trkpt lat="52.096540" lon="5.116112">
        <ele>0.214875</ele>
        <time>2026-08-29T09:22:17.910Z</time>
      </trkpt>
      <trkpt lat="52.096563" lon="5.116253">
        <ele>0.238862</ele>
        <time>2026-08-29T09:22:28.910Z</time>
      </trkpt>
      <trkpt lat="52.096579" lon="5.116407">
        <ele>0.264542</ele>
        <time>2026-08-29T09:22:59.910Z</time>
      </trkpt>
      <trkpt lat="52.096583" lon="5.116564">
        <ele>0.290378</ele>
        <time>2026-08-29T09:23:08.910Z</time>
      </trkpt>
      <trkpt lat="52.096589" lon="5.116716">
        <ele>0.315421</ele>
        <time>2026-08-29T09:23:17.912Z</time>
      </trkpt>
      <trkpt lat="52.096562" lon="5.116869">
        <ele>0.341594</ele>
        <time>2026-08-29T09:23:25.917Z</time>
      </trkpt>
      <trkpt lat="52.096552" lon="5.117019">
        <ele>0.366402</ele>
        <time>2026-08-29T09:23:32.922Z</time>
      </trkpt>
      <trkpt lat="52.096541" lon="5.117184">
        <ele>0.393690</ele>
        <time>2026-08-29T09:23:39.911Z</time>
      </trkpt>
      <trkpt lat="52.096535" lon="5.117330">
        <ele>0.417749</ele>
        <time>2026-08-29T09:23:45.918Z</time>
      </trkpt>
      <trkpt lat="52.096530" lon="5.117494">
        <ele>0.444747</ele>
        <time>2026-08-29T09:23:52.918Z</time>
      </trkpt>
      <trkpt lat="52.096541" lon="5.117666">
        <ele>0.473180</ele>
        <time>2026-08-29T09:24:03.910Z</time>
      </trkpt>
      <trkpt lat="52.096539" lon="5.117831">
        <ele>0.500314</ele>
        <time>2026-08-29T09:24:10.910Z</time>
      </trkpt>
      <trkpt lat="52.096520" lon="5.117976">
        <ele>0.512847</ele>
        <time>2026-08-29T09:24:16.913Z</time>
      </trkpt>
      <trkpt lat="52.096494" lon="5.118117">
        <ele>0.487404</ele>
        <time>2026-08-29T09:24:23.912Z</time>
      </trkpt>
      <trkpt lat="52.096488" lon="5.118267">
        <ele>0.461425</ele>
        <time>2026-08-29T09:24:30.913Z</time>
      </trkpt>
      <trkpt lat="52.096480" lon="5.118415">
        <ele>0.435747</ele>
        <time>2026-08-29T09:24:37.910Z</time>
      </trkpt>
      <trkpt lat="52.096473" lon="5.118580">
        <ele>0.407162</ele>
        <time>2026-08-29T09:24:45.911Z</time>
      </trkpt>
      <trkpt lat="52.096462" lon="5.118728">
        <ele>0.381397</ele>
        <time>2026-08-29T09:24:52.911Z</time>
      </trkpt>
      <trkpt lat="52.096451" lon="5.118877">
        <ele>0.355460</ele>
        <time>2026-08-29T09:24:59.912Z</time>
      </trkpt>
      <trkpt lat="52.096444" lon="5.119027">
        <ele>0.329461</ele>
        <time>2026-08-29T09:25:06.910Z</time>
      </trkpt>
      <trkpt lat="52.096438" lon="5.119177">
        <ele>0.303481</ele>
        <time>2026-08-29T09:25:13.910Z</time>
      </trkpt>
      <trkpt lat="52.096437" lon="5.119336">
        <ele>0.276000</ele>
        <time>2026-08-29T09:25:20.910Z</time>
      </trkpt>
      <trkpt lat="52.096453" lon="5.119486">
        <ele>0.249688</ele>
        <time>2026-08-29T09:25:27.910Z</time>
      </trkpt>
      <trkpt lat="52.096484" lon="5.119624">
        <ele>0.224293</ele>
        <time>2026-08-29T09:25:34.910Z</time>
      </trkpt>
      <trkpt lat="52.096521" lon="5.119768">
        <ele>0.197316</ele>
        <time>2026-08-29T09:25:41.909Z</time>
      </trkpt>
      <trkpt lat="52.096565" lon="5.119909">
        <ele>0.169983</ele>
        <time>2026-08-29T09:25:49.910Z</time>
      </trkpt>
      <trkpt lat="52.096624" lon="5.120028">
        <ele>0.143554</ele>
        <time>2026-08-29T09:25:56.918Z</time>
      </trkpt>
      <trkpt lat="52.096704" lon="5.120129">
        <ele>0.115072</ele>
        <time>2026-08-29T09:26:03.908Z</time>
      </trkpt>
      <trkpt lat="52.096790" lon="5.120220">
        <ele>0.086215</ele>
        <time>2026-08-29T09:26:12.908Z</time>
      </trkpt>
      <trkpt lat="52.096863" lon="5.120305">
        <ele>0.060965</ele>
        <time>2026-08-29T09:26:19.918Z</time>
      </trkpt>
      <trkpt lat="52.096944" lon="5.120383">
        <ele>0.034489</ele>
        <time>2026-08-29T09:26:26.907Z</time>
      </trkpt>
      <trkpt lat="52.097020" lon="5.120484">
        <ele>-0.002311</ele>
        <time>2026-08-29T09:26:34.907Z</time>
      </trkpt>
      <trkpt lat="52.097090" lon="5.120590">
        <ele>-0.070303</ele>
        <time>2026-08-29T09:26:43.907Z</time>
      </trkpt>
      <trkpt lat="52.097154" lon="5.120718">
        <ele>-0.142407</ele>
        <time>2026-08-29T09:26:50.906Z</time>
      </trkpt>
      <trkpt lat="52.097199" lon="5.120853">
        <ele>-0.209511</ele>
        <time>2026-08-29T09:27:01.920Z</time>
      </trkpt>
      <trkpt lat="52.097248" lon="5.120991">
        <ele>-0.279149</ele>
        <time>2026-08-29T09:27:07.911Z</time>
      </trkpt>
      <trkpt lat="52.097278" lon="5.121136">
        <ele>-0.345995</ele>
        <time>2026-08-29T09:27:15.908Z</time>
      </trkpt>
      <trkpt lat="52.097275" lon="5.121290">
        <ele>-0.413310</ele>
        <time>2026-08-29T09:27:25.916Z</time>
      </trkpt>
      <trkpt lat="52.097261" lon="5.121439">
        <ele>-0.479164</ele>
        <time>2026-08-29T09:27:34.909Z</time>
      </trkpt>
      <trkpt lat="52.097223" lon="5.121586">
        <ele>-0.548842</ele>
        <time>2026-08-29T09:27:43.919Z</time>
      </trkpt>
      <trkpt lat="52.097170" lon="5.121725">
        <ele>-0.620317</ele>
        <time>2026-08-29T09:27:51.908Z</time>
      </trkpt>
      <trkpt lat="52.097121" lon="5.121854">
        <ele>-0.686580</ele>
        <time>2026-08-29T09:27:57.908Z</time>
      </trkpt>
      <trkpt lat="52.097079" lon="5.122002">
        <ele>-0.757806</ele>
        <time>2026-08-29T09:28:04.909Z</time>
      </trkpt>
      <trkpt lat="52.097043" lon="5.122148">
        <ele>-0.826539</ele>
        <time>2026-08-29T09:28:11.909Z</time>
      </trkpt>
      <trkpt lat="52.097009" lon="5.122287">
        <ele>-0.891904</ele>
        <time>2026-08-29T09:28:18.910Z</time>
      </trkpt>
      <trkpt lat="52.096993" lon="5.122436">
        <ele>-0.957989</ele>
        <time>2026-08-29T09:28:25.919Z</time>
      </trkpt>
      <trkpt lat="52.096977" lon="5.122581">
        <ele>-1.022353</ele>
        <time>2026-08-29T09:28:32.919Z</time>
      </trkpt>
      <trkpt lat="52.096983" lon="5.122728">
        <ele>-1.086718</ele>
        <time>2026-08-29T09:28:39.919Z</time>
      </trkpt>
      <trkpt lat="52.097017" lon="5.122869">
        <ele>-1.152896</ele>
        <time>2026-08-29T09:28:45.911Z</time>
      </trkpt>
      <trkpt lat="52.097053" lon="5.123019">
        <ele>-1.223254</ele>
        <time>2026-08-29T09:28:52.911Z</time>
      </trkpt>
      <trkpt lat="52.097098" lon="5.123151">
        <ele>-1.278862</ele>
        <time>2026-08-29T09:28:59.919Z</time>
      </trkpt>
      <trkpt lat="52.097140" lon="5.123284">
        <ele>-1.314752</ele>
        <time>2026-08-29T09:29:06.908Z</time>
      </trkpt>
      <trkpt lat="52.097191" lon="5.123405">
        <ele>-1.349970</ele>
        <time>2026-08-29T09:29:13.920Z</time>
      </trkpt>
      <trkpt lat="52.097238" lon="5.123552">
        <ele>-1.389741</ele>
        <time>2026-08-29T09:29:21.912Z</time>
      </trkpt>
      <trkpt lat="52.097277" lon="5.123690">
        <ele>-1.426197</ele>
        <time>2026-08-29T09:29:28.911Z</time>
      </trkpt>
      <trkpt lat="52.097319" lon="5.123845">
        <ele>-1.466855</ele>
        <time>2026-08-29T09:29:35.909Z</time>
      </trkpt>
      <trkpt lat="52.097368" lon="5.123985">
        <ele>-1.505525</ele>
        <time>2026-08-29T09:29:42.912Z</time>
      </trkpt>
      <trkpt lat="52.097403" lon="5.124137">
        <ele>-1.544483</ele>
        <time>2026-08-29T09:29:51.911Z</time>
      </trkpt>
      <trkpt lat="52.097442" lon="5.124281">
        <ele>-1.582252</ele>
        <time>2026-08-29T09:29:59.919Z</time>
      </trkpt>
      <trkpt lat="52.097476" lon="5.124430">
        <ele>-1.620399</ele>
        <time>2026-08-29T09:30:08.911Z</time>
      </trkpt>
      <trkpt lat="52.097505" lon="5.124577">
        <ele>-1.657452</ele>
        <time>2026-08-29T09:30:16.919Z</time>
      </trkpt>
      <trkpt lat="52.097527" lon="5.124726">
        <ele>-1.694230</ele>
        <time>2026-08-29T09:30:24.919Z</time>
      </trkpt>
      <trkpt lat="52.097561" lon="5.124881">
        <ele>-1.733730</ele>
        <time>2026-08-29T09:30:33.910Z</time>
      </trkpt>
      <trkpt lat="52.097595" lon="5.125031">
        <ele>-1.772101</ele>
        <time>2026-08-29T09:30:41.909Z</time>
      </trkpt>
      <trkpt lat="52.097628" lon="5.125170">
        <ele>-1.807865</ele>
        <time>2026-08-29T09:30:48.908Z</time>
      </trkpt>
      <trkpt lat="52.097662" lon="5.125314">
        <ele>-1.844889</ele>
        <time>2026-08-29T09:30:55.913Z</time>
      </trkpt>
      <trkpt lat="52.097683" lon="5.125461">
        <ele>-1.881110</ele>
        <time>2026-08-29T09:31:02.911Z</time>
      </trkpt>
      <trkpt lat="52.097706" lon="5.125603">
        <ele>-1.916354</ele>
        <time>2026-08-29T09:31:08.919Z</time>
      </trkpt>
      <trkpt lat="52.097717" lon="5.125760">
        <ele>-1.954277</ele>
        <time>2026-08-29T09:31:15.910Z</time>
      </trkpt>
      <trkpt lat="52.097738" lon="5.125908">
        <ele>-2.057395</ele>
        <time>2026-08-29T09:31:22.919Z</time>
      </trkpt>
      <trkpt lat="52.097760" lon="5.126054">
        <ele>-2.203766</ele>
        <time>2026-08-29T09:31:29.919Z</time>
      </trkpt>
      <trkpt lat="52.097773" lon="5.126218">
        <ele>-2.364772</ele>
        <time>2026-08-29T09:31:37.911Z</time>
      </trkpt>
      <trkpt lat="52.097770" lon="5.126364">
        <ele>-2.507007</ele>
        <time>2026-08-29T09:31:44.920Z</time>
      </trkpt>
      <trkpt lat="52.097741" lon="5.126519">
        <ele>-2.664771</ele>
        <time>2026-08-29T09:31:52.920Z</time>
      </trkpt>
      <trkpt lat="52.097673" lon="5.126630">
        <ele>-2.817404</ele>
        <time>2026-08-29T09:32:00.912Z</time>
      </trkpt>
      <trkpt lat="52.097586" lon="5.126701">
        <ele>-2.971655</ele>
        <time>2026-08-29T09:32:09.909Z</time>
      </trkpt>
      <trkpt lat="52.097488" lon="5.126717">
        <ele>-3.127762</ele>
        <time>2026-08-29T09:32:17.920Z</time>
      </trkpt>
      <trkpt lat="52.097394" lon="5.126701">
        <ele>-3.277561</ele>
        <time>2026-08-29T09:32:24.908Z</time>
      </trkpt>
      <trkpt lat="52.097294" lon="5.126675">
        <ele>-3.438068</ele>
        <time>2026-08-29T09:32:32.920Z</time>
      </trkpt>
      <trkpt lat="52.097207" lon="5.126636">
        <ele>-3.581093</ele>
        <time>2026-08-29T09:32:39.920Z</time>
      </trkpt>
      <trkpt lat="52.097122" lon="5.126586">
        <ele>-3.724342</ele>
        <time>2026-08-29T09:32:46.908Z</time>
      </trkpt>
      <trkpt lat="52.097031" lon="5.126552">
        <ele>-3.872325</ele>
        <time>2026-08-29T09:32:53.919Z</time>
      </trkpt>
      <trkpt lat="52.096942" lon="5.126521">
        <ele>-4.016581</ele>
        <time>2026-08-29T09:33:00.909Z</time>
      </trkpt>
      <trkpt lat="52.096855" lon="5.126476">
        <ele>-4.161267</ele>
        <time>2026-08-29T09:33:07.908Z</time>
      </trkpt>
      <trkpt lat="52.096764" lon="5.126447">
        <ele>-4.308238</ele>
        <time>2026-08-29T09:33:14.920Z</time>
      </trkpt>
      <trkpt lat="52.096673" lon="5.126389">
        <ele>-4.463132</ele>
        <time>2026-08-29T09:33:28.919Z</time>
      </trkpt>
      <trkpt lat="52.096596" lon="5.126303">
        <ele>-4.611141</ele>
        <time>2026-08-29T09:33:44.911Z</time>
      </trkpt>
      <trkpt lat="52.096508" lon="5.126249">
        <ele>-4.760200</ele>
        <time>2026-08-29T09:33:56.919Z</time>
      </trkpt>
      <trkpt lat="52.096417" lon="5.126216">
        <ele>-4.759649</ele>
        <time>2026-08-29T09:34:07.907Z</time>
      </trkpt>
      <trkpt lat="52.096276" lon="5.126101">
        <ele>-4.589486</ele>
        <time>2026-08-29T09:34:38.919Z</time>
      </trkpt>
      <trkpt lat="52.096178" lon="5.126077">
        <ele>-4.482557</ele>
        <time>2026-08-29T09:34:46.906Z</time>
      </trkpt>
      <trkpt lat="52.096083" lon="5.126068">
        <ele>-4.379882</ele>
        <time>2026-08-29T09:34:56.907Z</time>
      </trkpt>
      <trkpt lat="52.095986" lon="5.126074">
        <ele>-4.275147</ele>
        <time>2026-08-29T09:35:07.919Z</time>
      </trkpt>
      <trkpt lat="52.095894" lon="5.126068">
        <ele>-4.175803</ele>
        <time>2026-08-29T09:35:21.911Z</time>
      </trkpt>
      <trkpt lat="52.095794" lon="5.126070">
        <ele>-4.067898</ele>
        <time>2026-08-29T09:35:30.919Z</time>
      </trkpt>
      <trkpt lat="52.095695" lon="5.126091">
        <ele>-3.960177</ele>
        <time>2026-08-29T09:35:38.919Z</time>
      </trkpt>
      <trkpt lat="52.095602" lon="5.126118">
        <ele>-3.858250</ele>
        <time>2026-08-29T09:35:45.919Z</time>
      </trkpt>
      <trkpt lat="52.095512" lon="5.126143">
        <ele>-3.759739</ele>
        <time>2026-08-29T09:35:54.919Z</time>
      </trkpt>
      <trkpt lat="52.095418" lon="5.126150">
        <ele>-3.658211</ele>
        <time>2026-08-29T09:36:01.908Z</time>
      </trkpt>
      <trkpt lat="52.095326" lon="5.126161">
        <ele>-3.558678</ele>
        <time>2026-08-29T09:36:09.911Z</time>
      </trkpt>
      <trkpt lat="52.095227" lon="5.126155">
        <ele>-3.451787</ele>
        <time>2026-08-29T09:36:15.911Z</time>
      </trkpt>
      <trkpt lat="52.095129" lon="5.126192">
        <ele>-3.343241</ele>
        <time>2026-08-29T09:36:22.911Z</time>
      </trkpt>
      <trkpt lat="52.094958" lon="5.126220">
        <ele>-3.157807</ele>
        <time>2026-08-29T09:36:36.911Z</time>
      </trkpt>
      <trkpt lat="52.094858" lon="5.126240">
        <ele>-3.049099</ele>
        <time>2026-08-29T09:36:42.911Z</time>
      </trkpt>
      <trkpt lat="52.094762" lon="5.126293">
        <ele>-2.939723</ele>
        <time>2026-08-29T09:36:50.911Z</time>
      </trkpt>
      <trkpt lat="52.094679" lon="5.126352">
        <ele>-2.865836</ele>
        <time>2026-08-29T09:36:57.907Z</time>
      </trkpt>
      <trkpt lat="52.094589" lon="5.126384">
        <ele>-2.830385</ele>
        <time>2026-08-29T09:37:04.908Z</time>
      </trkpt>
      <trkpt lat="52.094509" lon="5.126473">
        <ele>-2.793096</ele>
        <time>2026-08-29T09:37:14.907Z</time>
      </trkpt>
      <trkpt lat="52.094423" lon="5.126555">
        <ele>-2.754741</ele>
        <time>2026-08-29T09:37:24.908Z</time>
      </trkpt>
      <trkpt lat="52.094348" lon="5.126651">
        <ele>-2.718025</ele>
        <time>2026-08-29T09:37:34.909Z</time>
      </trkpt>
      <trkpt lat="52.094273" lon="5.126759">
        <ele>-2.679490</ele>
        <time>2026-08-29T09:37:43.911Z</time>
      </trkpt>
      <trkpt lat="52.094210" lon="5.126866">
        <ele>-2.644451</ele>
        <time>2026-08-29T09:37:50.910Z</time>
      </trkpt>
      <trkpt lat="52.094154" lon="5.126985">
        <ele>-2.609012</ele>
        <time>2026-08-29T09:37:57.908Z</time>
      </trkpt>
      <trkpt lat="52.094088" lon="5.127112">
        <ele>-2.569685</ele>
        <time>2026-08-29T09:38:04.906Z</time>
      </trkpt>
      <trkpt lat="52.094033" lon="5.127234">
        <ele>-2.533910</ele>
        <time>2026-08-29T09:38:11.919Z</time>
      </trkpt>
      <trkpt lat="52.093983" lon="5.127371">
        <ele>-2.496236</ele>
        <time>2026-08-29T09:38:18.906Z</time>
      </trkpt>
      <trkpt lat="52.093940" lon="5.127512">
        <ele>-2.459020</ele>
        <time>2026-08-29T09:38:25.905Z</time>
      </trkpt>
      <trkpt lat="52.093887" lon="5.127655">
        <ele>-2.419536</ele>
        <time>2026-08-29T09:38:33.906Z</time>
      </trkpt>
      <trkpt lat="52.093838" lon="5.127789">
        <ele>-2.382668</ele>
        <time>2026-08-29T09:38:40.919Z</time>
      </trkpt>
      <trkpt lat="52.093776" lon="5.127902">
        <ele>-2.346849</ele>
        <time>2026-08-29T09:38:48.910Z</time>
      </trkpt>
      <trkpt lat="52.093705" lon="5.127993">
        <ele>-2.312073</ele>
        <time>2026-08-29T09:38:57.918Z</time>
      </trkpt>
      <trkpt lat="52.093617" lon="5.128070">
        <ele>-2.273626</ele>
        <time>2026-08-29T09:39:04.907Z</time>
      </trkpt>
      <trkpt lat="52.093533" lon="5.128135">
        <ele>-2.237834</ele>
        <time>2026-08-29T09:39:11.907Z</time>
      </trkpt>
      <trkpt lat="52.093442" lon="5.128110">
        <ele>-2.202320</ele>
        <time>2026-08-29T09:39:22.905Z</time>
      </trkpt>
      <trkpt lat="52.093363" lon="5.128016">
        <ele>-2.178213</ele>
        <time>2026-08-29T09:39:32.921Z</time>
      </trkpt>
      <trkpt lat="52.093283" lon="5.127943">
        <ele>-2.164431</ele>
        <time>2026-08-29T09:39:39.905Z</time>
      </trkpt>
      <trkpt lat="52.093197" lon="5.127854">
        <ele>-2.149116</ele>
        <time>2026-08-29T09:39:46.919Z</time>
      </trkpt>
      <trkpt lat="52.093116" lon="5.127774">
        <ele>-2.134878</ele>
        <time>2026-08-29T09:39:53.911Z</time>
      </trkpt>
      <trkpt lat="52.093034" lon="5.127708">
        <ele>-2.121132</ele>
        <time>2026-08-29T09:40:01.919Z</time>
      </trkpt>
      <trkpt lat="52.092878" lon="5.127551">
        <ele>-2.093570</ele>
        <time>2026-08-29T09:40:15.911Z</time>
      </trkpt>
      <trkpt lat="52.092748" lon="5.127361">
        <ele>-2.067314</ele>
        <time>2026-08-29T09:40:32.911Z</time>
      </trkpt>
      <trkpt lat="52.092675" lon="5.127266">
        <ele>-2.053269</ele>
        <time>2026-08-29T09:40:37.911Z</time>
      </trkpt>
      <trkpt lat="52.092591" lon="5.127194">
        <ele>-2.039003</ele>
        <time>2026-08-29T09:40:44.911Z</time>
      </trkpt>
      <trkpt lat="52.092497" lon="5.127137">
        <ele>-2.023929</ele>
        <time>2026-08-29T09:40:52.912Z</time>
      </trkpt>
      <trkpt lat="52.092399" lon="5.127133">
        <ele>-2.009197</ele>
        <time>2026-08-29T09:41:02.912Z</time>
      </trkpt>
      <trkpt lat="52.092316" lon="5.127197">
        <ele>-1.995396</ele>
        <time>2026-08-29T09:41:19.912Z</time>
      </trkpt>
      <trkpt lat="52.092224" lon="5.127186">
        <ele>-1.981534</ele>
        <time>2026-08-29T09:41:37.917Z</time>
      </trkpt>
      <trkpt lat="52.092127" lon="5.127248">
        <ele>-1.965874</ele>
        <time>2026-08-29T09:41:44.923Z</time>
      </trkpt>
      <trkpt lat="52.092031" lon="5.127286">
        <ele>-1.951027</ele>
        <time>2026-08-29T09:41:51.924Z</time>
      </trkpt>
      <trkpt lat="52.091931" lon="5.127325">
        <ele>-1.935574</ele>
        <time>2026-08-29T09:41:59.917Z</time>
      </trkpt>
      <trkpt lat="52.091840" lon="5.127363">
        <ele>-1.921456</ele>
        <time>2026-08-29T09:42:07.910Z</time>
      </trkpt>
      <trkpt lat="52.091747" lon="5.127401">
        <ele>-1.900937</ele>
        <time>2026-08-29T09:42:15.909Z</time>
      </trkpt>
      <trkpt lat="52.091648" lon="5.127449">
        <ele>-1.875491</ele>
        <time>2026-08-29T09:42:22.909Z</time>
      </trkpt>
      <trkpt lat="52.091553" lon="5.127469">
        <ele>-1.851895</ele>
        <time>2026-08-29T09:42:29.907Z</time>
      </trkpt>
      <trkpt lat="52.091455" lon="5.127507">
        <ele>-1.827079</ele>
        <time>2026-08-29T09:42:37.911Z</time>
      </trkpt>
      <trkpt lat="52.091362" lon="5.127536">
        <ele>-1.803754</ele>
        <time>2026-08-29T09:42:44.908Z</time>
      </trkpt>
      <trkpt lat="52.091266" lon="5.127565">
        <ele>-1.779703</ele>
        <time>2026-08-29T09:42:51.911Z</time>
      </trkpt>
      <trkpt lat="52.091173" lon="5.127590">
        <ele>-1.756484</ele>
        <time>2026-08-29T09:42:59.910Z</time>
      </trkpt>
      <trkpt lat="52.091080" lon="5.127609">
        <ele>-1.733395</ele>
        <time>2026-08-29T09:43:06.910Z</time>
      </trkpt>
      <trkpt lat="52.090983" lon="5.127639">
        <ele>-1.709074</ele>
        <time>2026-08-29T09:43:13.909Z</time>
      </trkpt>
      <trkpt lat="52.090881" lon="5.127662">
        <ele>-1.683708</ele>
        <time>2026-08-29T09:43:21.908Z</time>
      </trkpt>
      <trkpt lat="52.090785" lon="5.127696">
        <ele>-1.659507</ele>
        <time>2026-08-29T09:43:29.909Z</time>
      </trkpt>
      <trkpt lat="52.090691" lon="5.127719">
        <ele>-1.636092</ele>
        <time>2026-08-29T09:43:36.910Z</time>
      </trkpt>
      <trkpt lat="52.090592" lon="5.127756">
        <ele>-1.611071</ele>
        <time>2026-08-29T09:43:43.908Z</time>
      </trkpt>
      <trkpt lat="52.090496" lon="5.127773">
        <ele>-1.587284</ele>
        <time>2026-08-29T09:43:50.909Z</time>
      </trkpt>
      <trkpt lat="52.090405" lon="5.127805">
        <ele>-1.564351</ele>
        <time>2026-08-29T09:43:57.912Z</time>
      </trkpt>
      <trkpt lat="52.090314" lon="5.127850">
        <ele>-1.540923</ele>
        <time>2026-08-29T09:44:05.910Z</time>
      </trkpt>
      <trkpt lat="52.090173" lon="5.127891">
        <ele>-1.505641</ele>
        <time>2026-08-29T09:44:18.909Z</time>
      </trkpt>
      <trkpt lat="52.090132" lon="5.128032">
        <ele>-1.482031</ele>
        <time>2026-08-29T09:44:25.924Z</time>
      </trkpt>
      <trkpt lat="52.090087" lon="5.128169">
        <ele>-1.457694</ele>
        <time>2026-08-29T09:44:32.908Z</time>
      </trkpt>
      <trkpt lat="52.090023" lon="5.128276">
        <ele>-1.433852</ele>
        <time>2026-08-29T09:44:39.907Z</time>
      </trkpt>
      <trkpt lat="52.089953" lon="5.128391">
        <ele>-1.408006</ele>
        <time>2026-08-29T09:44:48.908Z</time>
      </trkpt>
      <trkpt lat="52.089888" lon="5.128515">
        <ele>-1.381982</ele>
        <time>2026-08-29T09:44:57.907Z</time>
      </trkpt>
      <trkpt lat="52.089831" lon="5.128634">
        <ele>-1.357891</ele>
        <time>2026-08-29T09:45:04.907Z</time>
      </trkpt>
      <trkpt lat="52.089773" lon="5.128754">
        <ele>-1.333514</ele>
        <time>2026-08-29T09:45:11.906Z</time>
      </trkpt>
      <trkpt lat="52.089719" lon="5.128878">
        <ele>-1.309247</ele>
        <time>2026-08-29T09:45:18.908Z</time>
      </trkpt>
      <trkpt lat="52.089657" lon="5.128998">
        <ele>-1.284214</ele>
        <time>2026-08-29T09:45:25.908Z</time>
      </trkpt>
      <trkpt lat="52.089596" lon="5.129122">
        <ele>-1.258852</ele>
        <time>2026-08-29T09:45:32.909Z</time>
      </trkpt>
      <trkpt lat="52.089523" lon="5.129217">
        <ele>-1.234564</ele>
        <time>2026-08-29T09:45:39.908Z</time>
      </trkpt>
      <trkpt lat="52.089441" lon="5.129288">
        <ele>-1.210428</ele>
        <time>2026-08-29T09:45:46.910Z</time>
      </trkpt>
      <trkpt lat="52.089356" lon="5.129338">
        <ele>-1.186942</ele>
        <time>2026-08-29T09:45:53.908Z</time>
      </trkpt>
      <trkpt lat="52.089260" lon="5.129319">
        <ele>-1.161812</ele>
        <time>2026-08-29T09:46:01.908Z</time>
      </trkpt>
      <trkpt lat="52.089168" lon="5.129281">
        <ele>-1.137147</ele>
        <time>2026-08-29T09:46:08.909Z</time>
      </trkpt>
      <trkpt lat="52.089076" lon="5.129222">
        <ele>-1.111452</ele>
        <time>2026-08-29T09:46:15.908Z</time>
      </trkpt>
      <trkpt lat="52.088991" lon="5.129151">
        <ele>-1.086625</ele>
        <time>2026-08-29T09:46:22.908Z</time>
      </trkpt>
      <trkpt lat="52.088904" lon="5.129063">
        <ele>-1.060007</ele>
        <time>2026-08-29T09:46:29.909Z</time>
      </trkpt>
      <trkpt lat="52.088827" lon="5.128986">
        <ele>-1.036523</ele>
        <time>2026-08-29T09:46:36.908Z</time>
      </trkpt>
      <trkpt lat="52.088758" lon="5.128890">
        <ele>-1.012934</ele>
        <time>2026-08-29T09:46:44.910Z</time>
      </trkpt>
      <trkpt lat="52.088671" lon="5.128820">
        <ele>-1.114790</ele>
        <time>2026-08-29T09:46:53.908Z</time>
      </trkpt>
      <trkpt lat="52.088593" lon="5.128734">
        <ele>-1.258957</ele>
        <time>2026-08-29T09:47:01.908Z</time>
      </trkpt>
      <trkpt lat="52.088515" lon="5.128647">
        <ele>-1.403654</ele>
        <time>2026-08-29T09:47:08.907Z</time>
      </trkpt>
      <trkpt lat="52.088430" lon="5.128577">
        <ele>-1.549426</ele>
        <time>2026-08-29T09:47:16.910Z</time>
      </trkpt>
      <trkpt lat="52.088343" lon="5.128533">
        <ele>-1.688834</ele>
        <time>2026-08-29T09:47:24.909Z</time>
      </trkpt>
      <trkpt lat="52.088255" lon="5.128494">
        <ele>-1.828396</ele>
        <time>2026-08-29T09:47:31.910Z</time>
      </trkpt>
      <trkpt lat="52.088155" lon="5.128506">
        <ele>-1.981833</ele>
        <time>2026-08-29T09:47:39.909Z</time>
      </trkpt>
      <trkpt lat="52.088055" lon="5.128522">
        <ele>-2.135591</ele>
        <time>2026-08-29T09:47:47.910Z</time>
      </trkpt>
      <trkpt lat="52.087955" lon="5.128554">
        <ele>-2.291543</ele>
        <time>2026-08-29T09:47:55.908Z</time>
      </trkpt>
      <trkpt lat="52.087858" lon="5.128558">
        <ele>-2.440021</ele>
        <time>2026-08-29T09:48:08.916Z</time>
      </trkpt>
      <trkpt lat="52.087757" lon="5.128578">
        <ele>-2.595712</ele>
        <time>2026-08-29T09:48:14.916Z</time>
      </trkpt>
      <trkpt lat="52.087663" lon="5.128610">
        <ele>-2.742665</ele>
        <time>2026-08-29T09:48:20.908Z</time>
      </trkpt>
      <trkpt lat="52.087567" lon="5.128657">
        <ele>-2.896068</ele>
        <time>2026-08-29T09:48:26.911Z</time>
      </trkpt>
      <trkpt lat="52.087468" lon="5.128700">
        <ele>-3.052862</ele>
        <time>2026-08-29T09:48:33.908Z</time>
      </trkpt>
      <trkpt lat="52.087381" lon="5.128747">
        <ele>-3.193133</ele>
        <time>2026-08-29T09:48:40.916Z</time>
      </trkpt>
      <trkpt lat="52.087284" lon="5.128794">
        <ele>-3.348003</ele>
        <time>2026-08-29T09:48:48.909Z</time>
      </trkpt>
      <trkpt lat="52.087190" lon="5.128831">
        <ele>-3.495990</ele>
        <time>2026-08-29T09:48:55.916Z</time>
      </trkpt>
      <trkpt lat="52.087091" lon="5.128867">
        <ele>-3.651216</ele>
        <time>2026-08-29T09:49:03.916Z</time>
      </trkpt>
      <trkpt lat="52.086988" lon="5.128907">
        <ele>-3.742373</ele>
        <time>2026-08-29T09:49:11.915Z</time>
      </trkpt>
      <trkpt lat="52.086892" lon="5.128939">
        <ele>-3.698327</ele>
        <time>2026-08-29T09:49:18.924Z</time>
      </trkpt>
      <trkpt lat="52.086798" lon="5.128976">
        <ele>-3.654857</ele>
        <time>2026-08-29T09:49:25.910Z</time>
      </trkpt>
      <trkpt lat="52.086706" lon="5.129018">
        <ele>-3.611909</ele>
        <time>2026-08-29T09:49:32.912Z</time>
      </trkpt>
      <trkpt lat="52.086606" lon="5.129054">
        <ele>-3.565874</ele>
        <time>2026-08-29T09:49:39.911Z</time>
      </trkpt>
      <trkpt lat="52.086511" lon="5.129098">
        <ele>-3.521477</ele>
        <time>2026-08-29T09:49:46.911Z</time>
      </trkpt>
      <trkpt lat="52.086418" lon="5.129154">
        <ele>-3.476906</ele>
        <time>2026-08-29T09:49:53.910Z</time>
      </trkpt>
      <trkpt lat="52.086321" lon="5.129201">
        <ele>-3.431415</ele>
        <time>2026-08-29T09:50:00.911Z</time>
      </trkpt>
      <trkpt lat="52.086227" lon="5.129239">
        <ele>-3.387879</ele>
        <time>2026-08-29T09:50:07.924Z</time>
      </trkpt>
      <trkpt lat="52.086141" lon="5.129293">
        <ele>-3.346446</ele>
        <time>2026-08-29T09:50:14.912Z</time>
      </trkpt>
      <trkpt lat="52.086053" lon="5.129353">
        <ele>-3.303561</ele>
        <time>2026-08-29T09:50:21.910Z</time>
      </trkpt>
      <trkpt lat="52.085974" lon="5.129425">
        <ele>-3.262862</ele>
        <time>2026-08-29T09:50:28.909Z</time>
      </trkpt>
      <trkpt lat="52.085884" lon="5.129495">
        <ele>-3.218026</ele>
        <time>2026-08-29T09:50:36.911Z</time>
      </trkpt>
      <trkpt lat="52.085805" lon="5.129570">
        <ele>-3.176917</ele>
        <time>2026-08-29T09:50:43.912Z</time>
      </trkpt>
      <trkpt lat="52.085725" lon="5.129639">
        <ele>-3.136220</ele>
        <time>2026-08-29T09:50:50.908Z</time>
      </trkpt>
      <trkpt lat="52.085635" lon="5.129680">
        <ele>-3.094211</ele>
        <time>2026-08-29T09:50:58.924Z</time>
      </trkpt>
      <trkpt lat="52.085548" lon="5.129728">
        <ele>-3.052920</ele>
        <time>2026-08-29T09:51:06.909Z</time>
      </trkpt>
      <trkpt lat="52.085455" lon="5.129767">
        <ele>-3.009753</ele>
        <time>2026-08-29T09:51:14.907Z</time>
      </trkpt>
      <trkpt lat="52.085360" lon="5.129793">
        <ele>-2.966452</ele>
        <time>2026-08-29T09:51:22.908Z</time>
      </trkpt>
      <trkpt lat="52.085273" lon="5.129719">
        <ele>-2.898444</ele>
        <time>2026-08-29T09:51:34.909Z</time>
      </trkpt>
      <trkpt lat="52.085192" lon="5.129605">
        <ele>-2.808775</ele>
        <time>2026-08-29T09:51:44.908Z</time>
      </trkpt>
      <trkpt lat="52.085126" lon="5.129488">
        <ele>-2.727055</ele>
        <time>2026-08-29T09:51:50.909Z</time>
      </trkpt>
      <trkpt lat="52.085061" lon="5.129361">
        <ele>-2.642013</ele>
        <time>2026-08-29T09:51:57.909Z</time>
      </trkpt>
      <trkpt lat="52.084997" lon="5.129239">
        <ele>-2.559477</ele>
        <time>2026-08-29T09:52:04.909Z</time>
      </trkpt>
      <trkpt lat="52.084930" lon="5.129109">
        <ele>-2.472176</ele>
        <time>2026-08-29T09:52:12.909Z</time>
      </trkpt>
      <trkpt lat="52.084871" lon="5.128992">
        <ele>-2.394300</ele>
        <time>2026-08-29T09:52:19.908Z</time>
      </trkpt>
      <trkpt lat="52.084814" lon="5.128869">
        <ele>-2.315033</ele>
        <time>2026-08-29T09:52:27.908Z</time>
      </trkpt>
      <trkpt lat="52.084748" lon="5.128761">
        <ele>-2.236661</ele>
        <time>2026-08-29T09:52:35.908Z</time>
      </trkpt>
      <trkpt lat="52.084687" lon="5.128652">
        <ele>-2.160804</ele>
        <time>2026-08-29T09:52:43.908Z</time>
      </trkpt>
      <trkpt lat="52.084622" lon="5.128533">
        <ele>-2.078882</ele>
        <time>2026-08-29T09:52:53.906Z</time>
      </trkpt>
      <trkpt lat="52.084554" lon="5.128425">
        <ele>-1.999321</ele>
        <time>2026-08-29T09:53:01.910Z</time>
      </trkpt>
      <trkpt lat="52.084483" lon="5.128309">
        <ele>-1.915078</ele>
        <time>2026-08-29T09:53:09.908Z</time>
      </trkpt>
      <trkpt lat="52.084419" lon="5.128184">
        <ele>-1.831362</ele>
        <time>2026-08-29T09:53:19.908Z</time>
      </trkpt>
      <trkpt lat="52.084352" lon="5.128078">
        <ele>-1.753118</ele>
        <time>2026-08-29T09:53:24.909Z</time>
      </trkpt>
      <trkpt lat="52.084282" lon="5.127979">
        <ele>-1.675463</ele>
        <time>2026-08-29T09:53:32.908Z</time>
      </trkpt>
      <trkpt lat="52.084207" lon="5.127870">
        <ele>-1.591265</ele>
        <time>2026-08-29T09:53:43.908Z</time>
      </trkpt>
      <trkpt lat="52.084129" lon="5.127768">
        <ele>-1.507479</ele>
        <time>2026-08-29T09:53:53.909Z</time>
      </trkpt>
      <trkpt lat="52.084050" lon="5.127670">
        <ele>-1.447140</ele>
        <time>2026-08-29T09:54:01.910Z</time>
      </trkpt>
      <trkpt lat="52.083971" lon="5.127600">
        <ele>-1.459351</ele>
        <time>2026-08-29T09:54:08.908Z</time>
      </trkpt>
      <trkpt lat="52.083896" lon="5.127518">
        <ele>-1.471617</ele>
        <time>2026-08-29T09:54:15.908Z</time>
      </trkpt>
      <trkpt lat="52.083817" lon="5.127439">
        <ele>-1.484205</ele>
        <time>2026-08-29T09:54:22.908Z</time>
      </trkpt>
      <trkpt lat="52.083736" lon="5.127362">
        <ele>-1.496940</ele>
        <time>2026-08-29T09:54:29.909Z</time>
      </trkpt>
      <trkpt lat="52.083657" lon="5.127282">
        <ele>-1.509572</ele>
        <time>2026-08-29T09:54:36.908Z</time>
      </trkpt>
      <trkpt lat="52.083575" lon="5.127202">
        <ele>-1.522551</ele>
        <time>2026-08-29T09:54:44.906Z</time>
      </trkpt>
      <trkpt lat="52.083490" lon="5.127124">
        <ele>-1.535798</ele>
        <time>2026-08-29T09:54:52.909Z</time>
      </trkpt>
      <trkpt lat="52.083406" lon="5.127042">
        <ele>-1.549096</ele>
        <time>2026-08-29T09:55:01.910Z</time>
      </trkpt>
      <trkpt lat="52.083324" lon="5.126963">
        <ele>-1.562033</ele>
        <time>2026-08-29T09:55:10.909Z</time>
      </trkpt>
      <trkpt lat="52.083240" lon="5.126891">
        <ele>-1.574921</ele>
        <time>2026-08-29T09:55:18.908Z</time>
      </trkpt>
      <trkpt lat="52.083155" lon="5.126821">
        <ele>-1.587854</ele>
        <time>2026-08-29T09:55:33.905Z</time>
      </trkpt>
      <trkpt lat="52.083074" lon="5.126738">
        <ele>-1.600849</ele>
        <time>2026-08-29T09:55:46.908Z</time>
      </trkpt>
      <trkpt lat="52.082989" lon="5.126687">
        <ele>-1.613147</ele>
        <time>2026-08-29T09:55:52.908Z</time>
      </trkpt>
      <trkpt lat="52.082891" lon="5.126631">
        <ele>-1.627248</ele>
        <time>2026-08-29T09:55:59.909Z</time>
      </trkpt>
      <trkpt lat="52.082802" lon="5.126580">
        <ele>-1.640057</ele>
        <time>2026-08-29T09:56:04.909Z</time>
      </trkpt>
      <trkpt lat="52.082707" lon="5.126515">
        <ele>-1.654048</ele>
        <time>2026-08-29T09:56:10.907Z</time>
      </trkpt>
      <trkpt lat="52.082613" lon="5.126449">
        <ele>-1.667946</ele>
        <time>2026-08-29T09:56:17.908Z</time>
      </trkpt>
      <trkpt lat="52.082525" lon="5.126382">
        <ele>-1.681135</ele>
        <time>2026-08-29T09:56:24.910Z</time>
      </trkpt>
      <trkpt lat="52.082441" lon="5.126316">
        <ele>-1.654247</ele>
        <time>2026-08-29T09:56:31.908Z</time>
      </trkpt>
      <trkpt lat="52.082348" lon="5.126256">
        <ele>-1.573078</ele>
        <time>2026-08-29T09:56:40.908Z</time>
      </trkpt>
      <trkpt lat="52.082259" lon="5.126202">
        <ele>-1.496013</ele>
        <time>2026-08-29T09:56:48.905Z</time>
      </trkpt>
      <trkpt lat="52.081977" lon="5.125979">
        <ele>-1.241631</ele>
        <time>2026-08-29T09:57:20.908Z</time>
      </trkpt>
      <trkpt lat="52.081896" lon="5.125912">
        <ele>-1.167910</ele>
        <time>2026-08-29T09:57:27.908Z</time>
      </trkpt>
      <trkpt lat="52.081815" lon="5.125841">
        <ele>-1.093264</ele>
        <time>2026-08-29T09:57:35.908Z</time>
      </trkpt>
      <trkpt lat="52.081730" lon="5.125763">
        <ele>-1.014090</ele>
        <time>2026-08-29T09:57:44.906Z</time>
      </trkpt>
      <trkpt lat="52.081646" lon="5.125678">
        <ele>-0.933835</ele>
        <time>2026-08-29T09:57:53.911Z</time>
      </trkpt>
      <trkpt lat="52.081575" lon="5.125577">
        <ele>-0.857322</ele>
        <time>2026-08-29T09:58:01.908Z</time>
      </trkpt>
      <trkpt lat="52.081535" lon="5.125429">
        <ele>-0.776708</ele>
        <time>2026-08-29T09:58:10.907Z</time>
      </trkpt>
      <trkpt lat="52.081521" lon="5.125269">
        <ele>-0.696128</ele>
        <time>2026-08-29T09:58:18.907Z</time>
      </trkpt>
      <trkpt lat="52.081525" lon="5.125105">
        <ele>-0.614293</ele>
        <time>2026-08-29T09:58:26.908Z</time>
      </trkpt>
      <trkpt lat="52.081530" lon="5.124944">
        <ele>-0.533917</ele>
        <time>2026-08-29T09:58:34.905Z</time>
      </trkpt>
      <trkpt lat="52.081534" lon="5.124783">
        <ele>-0.453577</ele>
        <time>2026-08-29T09:58:41.909Z</time>
      </trkpt>
      <trkpt lat="52.081543" lon="5.124624">
        <ele>-0.373964</ele>
        <time>2026-08-29T09:58:48.905Z</time>
      </trkpt>
      <trkpt lat="52.081539" lon="5.124465">
        <ele>-0.294620</ele>
        <time>2026-08-29T09:58:55.906Z</time>
      </trkpt>
      <trkpt lat="52.081525" lon="5.124308">
        <ele>-0.239810</ele>
        <time>2026-08-29T09:59:02.905Z</time>
      </trkpt>
      <trkpt lat="52.081513" lon="5.124135">
        <ele>-0.311489</ele>
        <time>2026-08-29T09:59:17.908Z</time>
      </trkpt>
      <trkpt lat="52.081494" lon="5.123988">
        <ele>-0.373335</ele>
        <time>2026-08-29T09:59:19.916Z</time>
      </trkpt>
      <trkpt lat="52.081468" lon="5.123837">
        <ele>-0.437899</ele>
        <time>2026-08-29T09:59:24.915Z</time>
      </trkpt>
      <trkpt lat="52.081386" lon="5.123763">
        <ele>-0.500718</ele>
        <time>2026-08-29T09:59:36.916Z</time>
      </trkpt>
      <trkpt lat="52.081354" lon="5.123904">
        <ele>-0.562602</ele>
        <time>2026-08-29T09:59:52.916Z</time>
      </trkpt>
      <trkpt lat="52.081383" lon="5.124059">
        <ele>-0.629311</ele>
        <time>2026-08-29T10:00:01.908Z</time>
      </trkpt>
      <trkpt lat="52.081411" lon="5.124277">
        <ele>-0.721004</ele>
        <time>2026-08-29T10:00:18.908Z</time>
      </trkpt>
      <trkpt lat="52.081416" lon="5.124425">
        <ele>-0.782030</ele>
        <time>2026-08-29T10:00:22.905Z</time>
      </trkpt>
      <trkpt lat="52.081385" lon="5.124566">
        <ele>-0.843686</ele>
        <time>2026-08-29T10:00:29.909Z</time>
      </trkpt>
      <trkpt lat="52.081367" lon="5.124714">
        <ele>-0.905802</ele>
        <time>2026-08-29T10:00:36.906Z</time>
      </trkpt>
      <trkpt lat="52.081336" lon="5.124852">
        <ele>-0.966296</ele>
        <time>2026-08-29T10:00:43.908Z</time>
      </trkpt>
      <trkpt lat="52.081285" lon="5.124977">
        <ele>-1.028070</ele>
        <time>2026-08-29T10:00:50.908Z</time>
      </trkpt>
      <trkpt lat="52.081242" lon="5.125108">
        <ele>-1.089217</ele>
        <time>2026-08-29T10:00:58.909Z</time>
      </trkpt>
      <trkpt lat="52.081177" lon="5.125214">
        <ele>-1.150869</ele>
        <time>2026-08-29T10:01:07.907Z</time>
      </trkpt>
      <trkpt lat="52.081052" lon="5.125411">
        <ele>-1.267453</ele>
        <time>2026-08-29T10:01:24.907Z</time>
      </trkpt>
      <trkpt lat="52.081024" lon="5.125564">
        <ele>-1.333180</ele>
        <time>2026-08-29T10:01:30.910Z</time>
      </trkpt>
      <trkpt lat="52.080971" lon="5.125695">
        <ele>-1.397754</ele>
        <time>2026-08-29T10:01:37.906Z</time>
      </trkpt>
      <trkpt lat="52.080922" lon="5.125820">
        <ele>-1.422047</ele>
        <time>2026-08-29T10:01:44.910Z</time>
      </trkpt>
      <trkpt lat="52.080863" lon="5.125955">
        <ele>-1.389818</ele>
        <time>2026-08-29T10:01:52.907Z</time>
      </trkpt>
      <trkpt lat="52.080806" lon="5.126082">
        <ele>-1.359222</ele>
        <time>2026-08-29T10:02:00.907Z</time>
      </trkpt>
      <trkpt lat="52.080757" lon="5.126211">
        <ele>-1.329718</ele>
        <time>2026-08-29T10:02:08.906Z</time>
      </trkpt>
      <trkpt lat="52.080696" lon="5.126334">
        <ele>-1.298968</ele>
        <time>2026-08-29T10:02:16.907Z</time>
      </trkpt>
      <trkpt lat="52.080656" lon="5.126472">
        <ele>-1.269283</ele>
        <time>2026-08-29T10:02:25.909Z</time>
      </trkpt>
      <trkpt lat="52.080596" lon="5.126601">
        <ele>-1.237808</ele>
        <time>2026-08-29T10:02:35.907Z</time>
      </trkpt>
      <trkpt lat="52.080561" lon="5.126736">
        <ele>-1.209302</ele>
        <time>2026-08-29T10:02:50.906Z</time>
      </trkpt>
      <trkpt lat="52.080522" lon="5.126871">
        <ele>-1.180280</ele>
        <time>2026-08-29T10:02:59.905Z</time>
      </trkpt>
      <trkpt lat="52.080466" lon="5.126994">
        <ele>-1.150498</ele>
        <time>2026-08-29T10:03:05.915Z</time>
      </trkpt>
      <trkpt lat="52.080413" lon="5.127125">
        <ele>-1.119984</ele>
        <time>2026-08-29T10:03:10.915Z</time>
      </trkpt>
      <trkpt lat="52.080337" lon="5.127238">
        <ele>-1.087393</ele>
        <time>2026-08-29T10:03:19.915Z</time>
      </trkpt>
      <trkpt lat="52.080273" lon="5.127367">
        <ele>-1.055137</ele>
        <time>2026-08-29T10:03:27.915Z</time>
      </trkpt>
      <trkpt lat="52.080217" lon="5.127496">
        <ele>-1.024410</ele>
        <time>2026-08-29T10:03:35.905Z</time>
      </trkpt>
      <trkpt lat="52.080164" lon="5.127628">
        <ele>-0.993733</ele>
        <time>2026-08-29T10:03:43.906Z</time>
      </trkpt>
      <trkpt lat="52.080113" lon="5.127764">
        <ele>-0.962737</ele>
        <time>2026-08-29T10:03:51.915Z</time>
      </trkpt>
      <trkpt lat="52.080065" lon="5.127903">
        <ele>-0.931716</ele>
        <time>2026-08-29T10:03:59.907Z</time>
      </trkpt>
      <trkpt lat="52.080013" lon="5.128037">
        <ele>-0.900883</ele>
        <time>2026-08-29T10:04:08.915Z</time>
      </trkpt>
      <trkpt lat="52.079964" lon="5.128167">
        <ele>-0.871213</ele>
        <time>2026-08-29T10:04:16.915Z</time>
      </trkpt>
      <trkpt lat="52.079913" lon="5.128304">
        <ele>-0.990977</ele>
        <time>2026-08-29T10:04:24.904Z</time>
      </trkpt>
      <trkpt lat="52.079858" lon="5.128443">
        <ele>-1.157933</ele>
        <time>2026-08-29T10:04:33.904Z</time>
      </trkpt>
      <trkpt lat="52.079805" lon="5.128561">
        <ele>-1.305536</ele>
        <time>2026-08-29T10:04:40.905Z</time>
      </trkpt>
      <trkpt lat="52.079762" lon="5.128694">
        <ele>-1.457306</ele>
        <time>2026-08-29T10:04:47.908Z</time>
      </trkpt>
      <trkpt lat="52.079714" lon="5.128821">
        <ele>-1.607877</ele>
        <time>2026-08-29T10:04:55.910Z</time>
      </trkpt>
      <trkpt lat="52.079665" lon="5.128954">
        <ele>-1.764482</ele>
        <time>2026-08-29T10:05:03.905Z</time>
      </trkpt>
      <trkpt lat="52.079606" lon="5.129086">
        <ele>-1.929318</ele>
        <time>2026-08-29T10:05:11.912Z</time>
      </trkpt>
      <trkpt lat="52.079559" lon="5.129213">
        <ele>-2.079036</ele>
        <time>2026-08-29T10:05:19.909Z</time>
      </trkpt>
      <trkpt lat="52.079513" lon="5.129349">
        <ele>-2.235811</ele>
        <time>2026-08-29T10:05:28.910Z</time>
      </trkpt>
      <trkpt lat="52.079467" lon="5.129487">
        <ele>-2.394359</ele>
        <time>2026-08-29T10:05:37.908Z</time>
      </trkpt>
      <trkpt lat="52.079422" lon="5.129632">
        <ele>-2.558408</ele>
        <time>2026-08-29T10:05:47.916Z</time>
      </trkpt>
      <trkpt lat="52.079367" lon="5.129771">
        <ele>-2.725366</ele>
        <time>2026-08-29T10:05:55.906Z</time>
      </trkpt>
      <trkpt lat="52.079317" lon="5.129905">
        <ele>-2.883684</ele>
        <time>2026-08-29T10:06:03.908Z</time>
      </trkpt>
      <trkpt lat="52.079274" lon="5.130040">
        <ele>-3.037246</ele>
        <time>2026-08-29T10:06:11.908Z</time>
      </trkpt>
      <trkpt lat="52.079231" lon="5.130173">
        <ele>-3.189018</ele>
        <time>2026-08-29T10:06:19.916Z</time>
      </trkpt>
      <trkpt lat="52.079186" lon="5.130309">
        <ele>-3.345008</ele>
        <time>2026-08-29T10:06:29.916Z</time>
      </trkpt>
      <trkpt lat="52.079150" lon="5.130460">
        <ele>-3.508579</ele>
        <time>2026-08-29T10:06:40.905Z</time>
      </trkpt>
      <trkpt lat="52.079100" lon="5.130598">
        <ele>-3.670365</ele>
        <time>2026-08-29T10:06:49.916Z</time>
      </trkpt>
      <trkpt lat="52.079055" lon="5.130726">
        <ele>-3.819291</ele>
        <time>2026-08-29T10:06:57.905Z</time>
      </trkpt>
      <trkpt lat="52.078995" lon="5.130848">
        <ele>-3.793761</ele>
        <time>2026-08-29T10:07:05.908Z</time>
      </trkpt>
      <trkpt lat="52.078951" lon="5.130985">
        <ele>-3.767549</ele>
        <time>2026-08-29T10:07:15.904Z</time>
      </trkpt>
      <trkpt lat="52.078906" lon="5.131124">
        <ele>-3.740908</ele>
        <time>2026-08-29T10:07:25.916Z</time>
      </trkpt>
      <trkpt lat="52.078856" lon="5.131255">
        <ele>-3.714759</ele>
        <time>2026-08-29T10:07:36.916Z</time>
      </trkpt>
      <trkpt lat="52.078806" lon="5.131384">
        <ele>-3.688898</ele>
        <time>2026-08-29T10:07:45.915Z</time>
      </trkpt>
      <trkpt lat="52.078755" lon="5.131512">
        <ele>-3.663030</ele>
        <time>2026-08-29T10:07:53.908Z</time>
      </trkpt>
      <trkpt lat="52.078705" lon="5.131645">
        <ele>-3.636592</ele>
        <time>2026-08-29T10:08:00.908Z</time>
      </trkpt>
      <trkpt lat="52.078663" lon="5.131784">
        <ele>-3.610327</ele>
        <time>2026-08-29T10:08:08.907Z</time>
      </trkpt>
      <trkpt lat="52.078625" lon="5.131923">
        <ele>-3.584530</ele>
        <time>2026-08-29T10:08:16.907Z</time>
      </trkpt>
      <trkpt lat="52.078587" lon="5.132073">
        <ele>-3.557018</ele>
        <time>2026-08-29T10:08:24.908Z</time>
      </trkpt>
      <trkpt lat="52.078560" lon="5.132231">
        <ele>-3.529209</ele>
        <time>2026-08-29T10:08:32.912Z</time>
      </trkpt>
      <trkpt lat="52.078547" lon="5.132382">
        <ele>-3.503353</ele>
        <time>2026-08-29T10:08:39.908Z</time>
      </trkpt>
      <trkpt lat="52.078505" lon="5.132512">
        <ele>-3.478449</ele>
        <time>2026-08-29T10:08:46.904Z</time>
      </trkpt>
      <trkpt lat="52.078497" lon="5.132658">
        <ele>-3.453593</ele>
        <time>2026-08-29T10:08:54.916Z</time>
      </trkpt>
      <trkpt lat="52.078489" lon="5.132814">
        <ele>-3.427048</ele>
        <time>2026-08-29T10:09:02.916Z</time>
      </trkpt>
      <trkpt lat="52.078499" lon="5.132966">
        <ele>-3.401125</ele>
        <time>2026-08-29T10:09:12.905Z</time>
      </trkpt>
      <trkpt lat="52.078488" lon="5.133115">
        <ele>-3.375677</ele>
        <time>2026-08-29T10:09:25.916Z</time>
      </trkpt>
      <trkpt lat="52.078401" lon="5.133261">
        <ele>-3.341193</ele>
        <time>2026-08-29T10:11:12.916Z</time>
      </trkpt>
      <trkpt lat="52.078403" lon="5.133416">
        <ele>-3.272660</ele>
        <time>2026-08-29T10:11:36.915Z</time>
      </trkpt>
      <trkpt lat="52.078420" lon="5.133563">
        <ele>-3.127457</ele>
        <time>2026-08-29T10:11:47.908Z</time>
      </trkpt>
      <trkpt lat="52.078398" lon="5.133358">
        <ele>-2.925443</ele>
        <time>2026-08-29T10:29:41.906Z</time>
      </trkpt>
      <trkpt lat="52.078565" lon="5.133515">
        <ele>-2.620801</ele>
        <time>2026-08-29T10:37:27.907Z</time>
      </trkpt>
      <trkpt lat="52.078578" lon="5.133664">
        <ele>-2.474711</ele>
        <time>2026-08-29T10:37:37.905Z</time>
      </trkpt>
      <trkpt lat="52.078593" lon="5.133820">
        <ele>-2.321433</ele>
        <time>2026-08-29T10:37:47.907Z</time>
      </trkpt>
      <trkpt lat="52.078585" lon="5.133980">
        <ele>-2.165602</ele>
        <time>2026-08-29T10:37:56.905Z</time>
      </trkpt>
      <trkpt lat="52.078580" lon="5.134130">
        <ele>-2.019777</ele>
        <time>2026-08-29T10:38:03.905Z</time>
      </trkpt>
      <trkpt lat="52.078562" lon="5.134284">
        <ele>-1.867604</ele>
        <time>2026-08-29T10:38:12.908Z</time>
      </trkpt>
      <trkpt lat="52.078549" lon="5.134429">
        <ele>-1.725357</ele>
        <time>2026-08-29T10:38:23.905Z</time>
      </trkpt>
      <trkpt lat="52.078526" lon="5.134580">
        <ele>-1.574341</ele>
        <time>2026-08-29T10:38:33.906Z</time>
      </trkpt>
      <trkpt lat="52.078509" lon="5.134736">
        <ele>-1.420543</ele>
        <time>2026-08-29T10:38:39.904Z</time>
      </trkpt>
      <trkpt lat="52.078486" lon="5.134879">
        <ele>-1.277052</ele>
        <time>2026-08-29T10:38:46.905Z</time>
      </trkpt>
      <trkpt lat="52.078455" lon="5.135018">
        <ele>-1.133510</ele>
        <time>2026-08-29T10:38:57.906Z</time>
      </trkpt>
      <trkpt lat="52.078391" lon="5.135127">
        <ele>-0.987171</ele>
        <time>2026-08-29T10:39:15.909Z</time>
      </trkpt>
      <trkpt lat="52.078393" lon="5.135282">
        <ele>-0.836673</ele>
        <time>2026-08-29T10:39:34.902Z</time>
      </trkpt>
      <trkpt lat="52.076932" lon="5.142260">
        <ele>-0.664223</ele>
        <time>2026-08-29T10:47:51.905Z</time>
      </trkpt>
      <trkpt lat="52.076905" lon="5.142415">
        <ele>-0.637315</ele>
        <time>2026-08-29T10:47:59.905Z</time>
      </trkpt>
      <trkpt lat="52.076886" lon="5.142564">
        <ele>-0.611899</ele>
        <time>2026-08-29T10:48:06.907Z</time>
      </trkpt>
      <trkpt lat="52.076862" lon="5.142709">
        <ele>-0.586818</ele>
        <time>2026-08-29T10:48:13.903Z</time>
      </trkpt>
      <trkpt lat="52.076854" lon="5.142869">
        <ele>-0.560006</ele>
        <time>2026-08-29T10:48:21.908Z</time>
      </trkpt>
      <trkpt lat="52.076863" lon="5.143023">
        <ele>-0.534169</ele>
        <time>2026-08-29T10:48:29.905Z</time>
      </trkpt>
      <trkpt lat="52.076861" lon="5.143177">
        <ele>-0.508442</ele>
        <time>2026-08-29T10:48:37.907Z</time>
      </trkpt>
      <trkpt lat="52.076866" lon="5.143330">
        <ele>-0.482852</ele>
        <time>2026-08-29T10:48:45.907Z</time>
      </trkpt>
      <trkpt lat="52.076861" lon="5.143485">
        <ele>-0.456928</ele>
        <time>2026-08-29T10:48:53.909Z</time>
      </trkpt>
      <trkpt lat="52.076864" lon="5.143649">
        <ele>-0.429524</ele>
        <time>2026-08-29T10:49:01.905Z</time>
      </trkpt>
      <trkpt lat="52.076866" lon="5.143796">
        <ele>-0.404966</ele>
        <time>2026-08-29T10:49:08.907Z</time>
      </trkpt>
      <trkpt lat="52.076873" lon="5.143950">
        <ele>-0.379174</ele>
        <time>2026-08-29T10:49:15.904Z</time>
      </trkpt>
      <trkpt lat="52.076872" lon="5.144100">
        <ele>-0.405908</ele>
        <time>2026-08-29T10:49:22.903Z</time>
      </trkpt>
      <trkpt lat="52.076883" lon="5.144264">
        <ele>-0.479639</ele>
        <time>2026-08-29T10:49:30.900Z</time>
      </trkpt>
      <trkpt lat="52.076895" lon="5.144429">
        <ele>-0.553897</ele>
        <time>2026-08-29T10:49:38.906Z</time>
      </trkpt>
      <trkpt lat="52.076912" lon="5.144580">
        <ele>-0.622506</ele>
        <time>2026-08-29T10:49:46.907Z</time>
      </trkpt>
      <trkpt lat="52.076934" lon="5.144729">
        <ele>-0.690992</ele>
        <time>2026-08-29T10:49:54.905Z</time>
      </trkpt>
      <trkpt lat="52.076953" lon="5.144876">
        <ele>-0.758128</ele>
        <time>2026-08-29T10:50:02.906Z</time>
      </trkpt>
      <trkpt lat="52.076958" lon="5.145032">
        <ele>-0.827943</ele>
        <time>2026-08-29T10:50:10.905Z</time>
      </trkpt>
      <trkpt lat="52.076970" lon="5.145185">
        <ele>-0.896877</ele>
        <time>2026-08-29T10:50:18.902Z</time>
      </trkpt>
      <trkpt lat="52.076981" lon="5.145331">
        <ele>-0.962617</ele>
        <time>2026-08-29T10:50:27.906Z</time>
      </trkpt>
      <trkpt lat="52.077026" lon="5.145466">
        <ele>-1.031255</ele>
        <time>2026-08-29T10:50:43.905Z</time>
      </trkpt>
      <trkpt lat="52.077021" lon="5.145621">
        <ele>-1.100624</ele>
        <time>2026-08-29T10:50:52.906Z</time>
      </trkpt>
      <trkpt lat="52.077028" lon="5.145772">
        <ele>-1.168301</ele>
        <time>2026-08-29T10:51:00.904Z</time>
      </trkpt>
      <trkpt lat="52.077045" lon="5.145928">
        <ele>-1.239109</ele>
        <time>2026-08-29T10:51:09.904Z</time>
      </trkpt>
      <trkpt lat="52.077064" lon="5.146083">
        <ele>-1.309747</ele>
        <time>2026-08-29T10:51:18.905Z</time>
      </trkpt>
      <trkpt lat="52.077085" lon="5.146225">
        <ele>-1.375022</ele>
        <time>2026-08-29T10:51:26.907Z</time>
      </trkpt>
      <trkpt lat="52.077110" lon="5.146367">
        <ele>-1.441038</ele>
        <time>2026-08-29T10:51:34.904Z</time>
      </trkpt>
      <trkpt lat="52.077131" lon="5.146514">
        <ele>-1.508487</ele>
        <time>2026-08-29T10:51:42.905Z</time>
      </trkpt>
      <trkpt lat="52.077161" lon="5.146655">
        <ele>-1.575173</ele>
        <time>2026-08-29T10:51:50.907Z</time>
      </trkpt>
      <trkpt lat="52.077191" lon="5.146796">
        <ele>-1.641858</ele>
        <time>2026-08-29T10:51:58.903Z</time>
      </trkpt>
      <trkpt lat="52.077227" lon="5.146937">
        <ele>-1.635383</ele>
        <time>2026-08-29T10:52:07.908Z</time>
      </trkpt>
      <trkpt lat="52.077275" lon="5.147062">
        <ele>-1.556290</ele>
        <time>2026-08-29T10:52:14.904Z</time>
      </trkpt>
      <trkpt lat="52.077299" lon="5.147210">
        <ele>-1.474153</ele>
        <time>2026-08-29T10:52:22.907Z</time>
      </trkpt>
      <trkpt lat="52.077350" lon="5.147338">
        <ele>-1.392295</ele>
        <time>2026-08-29T10:52:29.910Z</time>
      </trkpt>
      <trkpt lat="52.077413" lon="5.147452">
        <ele>-1.310028</ele>
        <time>2026-08-29T10:52:36.907Z</time>
      </trkpt>
      <trkpt lat="52.077454" lon="5.147592">
        <ele>-1.226809</ele>
        <time>2026-08-29T10:52:42.907Z</time>
      </trkpt>
      <trkpt lat="52.077508" lon="5.147725">
        <ele>-1.141272</ele>
        <time>2026-08-29T10:52:50.905Z</time>
      </trkpt>
      <trkpt lat="52.077580" lon="5.147835">
        <ele>-1.055039</ele>
        <time>2026-08-29T10:52:58.912Z</time>
      </trkpt>
      <trkpt lat="52.077650" lon="5.147948">
        <ele>-0.968945</ele>
        <time>2026-08-29T10:53:06.906Z</time>
      </trkpt>
      <trkpt lat="52.077718" lon="5.148052">
        <ele>-0.887462</ele>
        <time>2026-08-29T10:53:14.903Z</time>
      </trkpt>
      <trkpt lat="52.077781" lon="5.148162">
        <ele>-0.806778</ele>
        <time>2026-08-29T10:53:22.908Z</time>
      </trkpt>
      <trkpt lat="52.077849" lon="5.148260">
        <ele>-0.727466</ele>
        <time>2026-08-29T10:53:30.903Z</time>
      </trkpt>
      <trkpt lat="52.077907" lon="5.148388">
        <ele>-0.642130</ele>
        <time>2026-08-29T10:53:38.905Z</time>
      </trkpt>
      <trkpt lat="52.077975" lon="5.148485">
        <ele>-0.563172</ele>
        <time>2026-08-29T10:53:45.905Z</time>
      </trkpt>
      <trkpt lat="52.078032" lon="5.148609">
        <ele>-0.480080</ele>
        <time>2026-08-29T10:53:55.904Z</time>
      </trkpt>
      <trkpt lat="52.078088" lon="5.148749">
        <ele>-0.390446</ele>
        <time>2026-08-29T10:54:02.906Z</time>
      </trkpt>
      <trkpt lat="52.078129" lon="5.148882">
        <ele>-0.310602</ele>
        <time>2026-08-29T10:54:09.904Z</time>
      </trkpt>
      <trkpt lat="52.078193" lon="5.148994">
        <ele>-0.228539</ele>
        <time>2026-08-29T10:54:16.912Z</time>
      </trkpt>
      <trkpt lat="52.078248" lon="5.149129">
        <ele>-0.141626</ele>
        <time>2026-08-29T10:54:24.904Z</time>
      </trkpt>
      <trkpt lat="52.078295" lon="5.149254">
        <ele>-0.100894</ele>
        <time>2026-08-29T10:54:35.902Z</time>
      </trkpt>
      <trkpt lat="52.078427" lon="5.149545">
        <ele>-0.078953</ele>
        <time>2026-08-29T10:55:01.908Z</time>
      </trkpt>
      <trkpt lat="52.078479" lon="5.149677">
        <ele>-0.069442</ele>
        <time>2026-08-29T10:55:05.906Z</time>
      </trkpt>
      <trkpt lat="52.078521" lon="5.149808">
        <ele>-0.060479</ele>
        <time>2026-08-29T10:55:10.904Z</time>
      </trkpt>
      <trkpt lat="52.078549" lon="5.149962">
        <ele>-0.050736</ele>
        <time>2026-08-29T10:55:16.906Z</time>
      </trkpt>
      <trkpt lat="52.078600" lon="5.150097">
        <ele>-0.041123</ele>
        <time>2026-08-29T10:55:24.906Z</time>
      </trkpt>
      <trkpt lat="52.078653" lon="5.150227">
        <ele>-0.031660</ele>
        <time>2026-08-29T10:55:32.908Z</time>
      </trkpt>
      <trkpt lat="52.078702" lon="5.150363">
        <ele>-0.022097</ele>
        <time>2026-08-29T10:55:40.902Z</time>
      </trkpt>
      <trkpt lat="52.078760" lon="5.150496">
        <ele>-0.012204</ele>
        <time>2026-08-29T10:55:49.905Z</time>
      </trkpt>
      <trkpt lat="52.078822" lon="5.150628">
        <ele>-0.002125</ele>
        <time>2026-08-29T10:55:58.905Z</time>
      </trkpt>
      <trkpt lat="52.078889" lon="5.150751">
        <ele>0.007845</ele>
        <time>2026-08-29T10:56:07.906Z</time>
      </trkpt>
      <trkpt lat="52.078961" lon="5.150859">
        <ele>0.017511</ele>
        <time>2026-08-29T10:56:15.906Z</time>
      </trkpt>
      <trkpt lat="52.079029" lon="5.150960">
        <ele>0.026599</ele>
        <time>2026-08-29T10:56:22.905Z</time>
      </trkpt>
      <trkpt lat="52.079100" lon="5.151052">
        <ele>0.035558</ele>
        <time>2026-08-29T10:56:29.906Z</time>
      </trkpt>
      <trkpt lat="52.079170" lon="5.151165">
        <ele>0.045290</ele>
        <time>2026-08-29T10:56:38.904Z</time>
      </trkpt>
      <trkpt lat="52.079242" lon="5.151275">
        <ele>0.055039</ele>
        <time>2026-08-29T10:56:47.905Z</time>
      </trkpt>
      <trkpt lat="52.079319" lon="5.151375">
        <ele>0.064763</ele>
        <time>2026-08-29T10:56:56.904Z</time>
      </trkpt>
      <trkpt lat="52.079384" lon="5.151481">
        <ele>0.082836</ele>
        <time>2026-08-29T10:57:05.906Z</time>
      </trkpt>
      <trkpt lat="52.079458" lon="5.151594">
        <ele>0.137114</ele>
        <time>2026-08-29T10:57:14.904Z</time>
      </trkpt>
      <trkpt lat="52.079530" lon="5.151685">
        <ele>0.185875</ele>
        <time>2026-08-29T10:57:22.907Z</time>
      </trkpt>
      <trkpt lat="52.079608" lon="5.151780">
        <ele>0.237985</ele>
        <time>2026-08-29T10:57:30.903Z</time>
      </trkpt>
      <trkpt lat="52.079681" lon="5.151891">
        <ele>0.291423</ele>
        <time>2026-08-29T10:57:39.906Z</time>
      </trkpt>
      <trkpt lat="52.079751" lon="5.152007">
        <ele>0.344860</ele>
        <time>2026-08-29T10:57:48.903Z</time>
      </trkpt>
      <trkpt lat="52.079821" lon="5.152109">
        <ele>0.395116</ele>
        <time>2026-08-29T10:57:56.905Z</time>
      </trkpt>
      <trkpt lat="52.079885" lon="5.152213">
        <ele>0.443493</ele>
        <time>2026-08-29T10:58:04.907Z</time>
      </trkpt>
      <trkpt lat="52.079957" lon="5.152322">
        <ele>0.496091</ele>
        <time>2026-08-29T10:58:12.905Z</time>
      </trkpt>
      <trkpt lat="52.080035" lon="5.152425">
        <ele>0.549818</ele>
        <time>2026-08-29T10:58:20.903Z</time>
      </trkpt>
      <trkpt lat="52.080107" lon="5.152533">
        <ele>0.602192</ele>
        <time>2026-08-29T10:58:28.903Z</time>
      </trkpt>
      <trkpt lat="52.080181" lon="5.152638">
        <ele>0.654705</ele>
        <time>2026-08-29T10:58:36.905Z</time>
      </trkpt>
      <trkpt lat="52.080255" lon="5.152748">
        <ele>0.708312</ele>
        <time>2026-08-29T10:58:44.904Z</time>
      </trkpt>
      <trkpt lat="52.080319" lon="5.152869">
        <ele>0.760786</ele>
        <time>2026-08-29T10:58:52.904Z</time>
      </trkpt>
      <trkpt lat="52.080386" lon="5.152981">
        <ele>0.812161</ele>
        <time>2026-08-29T10:59:01.907Z</time>
      </trkpt>
      <trkpt lat="52.080454" lon="5.153101">
        <ele>0.865812</ele>
        <time>2026-08-29T10:59:09.906Z</time>
      </trkpt>
      <trkpt lat="52.080510" lon="5.153222">
        <ele>0.915600</ele>
        <time>2026-08-29T10:59:17.906Z</time>
      </trkpt>
      <trkpt lat="52.080569" lon="5.153349">
        <ele>0.967929</ele>
        <time>2026-08-29T10:59:25.909Z</time>
      </trkpt>
      <trkpt lat="52.080632" lon="5.153469">
        <ele>1.019805</ele>
        <time>2026-08-29T10:59:33.901Z</time>
      </trkpt>
      <trkpt lat="52.080697" lon="5.153596">
        <ele>0.950784</ele>
        <time>2026-08-29T10:59:41.905Z</time>
      </trkpt>
      <trkpt lat="52.080754" lon="5.153711">
        <ele>0.850796</ele>
        <time>2026-08-29T10:59:48.907Z</time>
      </trkpt>
      <trkpt lat="52.080794" lon="5.153846">
        <ele>0.749367</ele>
        <time>2026-08-29T10:59:56.904Z</time>
      </trkpt>
      <trkpt lat="52.080852" lon="5.153968">
        <ele>0.644979</ele>
        <time>2026-08-29T11:00:05.910Z</time>
      </trkpt>
      <trkpt lat="52.080942" lon="5.153987">
        <ele>0.545035</ele>
        <time>2026-08-29T11:00:29.906Z</time>
      </trkpt>
      <trkpt lat="52.080950" lon="5.154138">
        <ele>0.442464</ele>
        <time>2026-08-29T11:00:41.904Z</time>
      </trkpt>
      <trkpt lat="52.080972" lon="5.154286">
        <ele>0.339414</ele>
        <time>2026-08-29T11:00:50.908Z</time>
      </trkpt>
      <trkpt lat="52.081006" lon="5.154437">
        <ele>0.230578</ele>
        <time>2026-08-29T11:01:00.903Z</time>
      </trkpt>
      <trkpt lat="52.081044" lon="5.154575">
        <ele>0.128237</ele>
        <time>2026-08-29T11:01:10.905Z</time>
      </trkpt>
      <trkpt lat="52.081078" lon="5.154711">
        <ele>0.028872</ele>
        <time>2026-08-29T11:01:21.900Z</time>
      </trkpt>
      <trkpt lat="52.081156" lon="5.154789">
        <ele>-0.071949</ele>
        <time>2026-08-29T11:01:41.904Z</time>
      </trkpt>
      <trkpt lat="52.081161" lon="5.154941">
        <ele>-0.174965</ele>
        <time>2026-08-29T11:01:55.919Z</time>
      </trkpt>
      <trkpt lat="52.081176" lon="5.155094">
        <ele>-0.279820</ele>
        <time>2026-08-29T11:02:11.900Z</time>
      </trkpt>
      <trkpt lat="52.081174" lon="5.155246">
        <ele>-0.382712</ele>
        <time>2026-08-29T11:02:25.902Z</time>
      </trkpt>
      <trkpt lat="52.081205" lon="5.155385">
        <ele>-0.482786</ele>
        <time>2026-08-29T11:02:50.909Z</time>
      </trkpt>
      <trkpt lat="52.081226" lon="5.155100">
        <ele>-0.677046</ele>
        <time>2026-08-29T11:05:42.904Z</time>
      </trkpt>
      <trkpt lat="52.081309" lon="5.155028">
        <ele>-0.780626</ele>
        <time>2026-08-29T11:05:55.906Z</time>
      </trkpt>
      <trkpt lat="52.081368" lon="5.155144">
        <ele>-0.882531</ele>
        <time>2026-08-29T11:06:14.905Z</time>
      </trkpt>
      <trkpt lat="52.081396" lon="5.155286">
        <ele>-0.920239</ele>
        <time>2026-08-29T11:07:02.905Z</time>
      </trkpt>
      <trkpt lat="52.081462" lon="5.155397">
        <ele>-0.843767</ele>
        <time>2026-08-29T11:10:22.902Z</time>
      </trkpt>
      <trkpt lat="52.081499" lon="5.155535">
        <ele>-0.769220</ele>
        <time>2026-08-29T11:10:32.904Z</time>
      </trkpt>
      <trkpt lat="52.081559" lon="5.155646">
        <ele>-0.696027</ele>
        <time>2026-08-29T11:10:43.902Z</time>
      </trkpt>
      <trkpt lat="52.081655" lon="5.155651">
        <ele>-0.618642</ele>
        <time>2026-08-29T11:10:55.905Z</time>
      </trkpt>
      <trkpt lat="52.081742" lon="5.155608">
        <ele>-0.545386</ele>
        <time>2026-08-29T11:11:04.904Z</time>
      </trkpt>
      <trkpt lat="52.081831" lon="5.155561">
        <ele>-0.470000</ele>
        <time>2026-08-29T11:11:13.903Z</time>
      </trkpt>
      <trkpt lat="52.081922" lon="5.155529">
        <ele>-0.394990</ele>
        <time>2026-08-29T11:11:24.901Z</time>
      </trkpt>
      <trkpt lat="52.082010" lon="5.155490">
        <ele>-0.321508</ele>
        <time>2026-08-29T11:11:37.905Z</time>
      </trkpt>
      <trkpt lat="52.082081" lon="5.155393">
        <ele>-0.246818</ele>
        <time>2026-08-29T11:11:50.903Z</time>
      </trkpt>
      <trkpt lat="52.082366" lon="5.155014">
        <ele>0.049723</ele>
        <time>2026-08-29T11:19:29.911Z</time>
      </trkpt>
      <trkpt lat="52.082384" lon="5.154869">
        <ele>0.122964</ele>
        <time>2026-08-29T11:19:49.909Z</time>
      </trkpt>
      <trkpt lat="52.082550" lon="5.154653">
        <ele>0.294207</ele>
        <time>2026-08-29T11:22:13.913Z</time>
      </trkpt>
      <trkpt lat="52.082623" lon="5.154548">
        <ele>0.372703</ele>
        <time>2026-08-29T11:22:20.909Z</time>
      </trkpt>
      <trkpt lat="52.082699" lon="5.154450">
        <ele>0.450828</ele>
        <time>2026-08-29T11:22:27.906Z</time>
      </trkpt>
      <trkpt lat="52.082775" lon="5.154351">
        <ele>0.463995</ele>
        <time>2026-08-29T11:22:35.908Z</time>
      </trkpt>
      <trkpt lat="52.082859" lon="5.154263">
        <ele>0.350522</ele>
        <time>2026-08-29T11:22:43.909Z</time>
      </trkpt>
      <trkpt lat="52.082934" lon="5.154160">
        <ele>0.239052</ele>
        <time>2026-08-29T11:22:51.908Z</time>
      </trkpt>
      <trkpt lat="52.083006" lon="5.154066">
        <ele>0.134205</ele>
        <time>2026-08-29T11:22:58.903Z</time>
      </trkpt>
      <trkpt lat="52.083080" lon="5.153964">
        <ele>0.024053</ele>
        <time>2026-08-29T11:23:05.911Z</time>
      </trkpt>
      <trkpt lat="52.083160" lon="5.153868">
        <ele>-0.088849</ele>
        <time>2026-08-29T11:23:15.901Z</time>
      </trkpt>
      <trkpt lat="52.083237" lon="5.153769">
        <ele>-0.200312</ele>
        <time>2026-08-29T11:23:23.903Z</time>
      </trkpt>
      <trkpt lat="52.083309" lon="5.153669">
        <ele>-0.307829</ele>
        <time>2026-08-29T11:23:30.910Z</time>
      </trkpt>
      <trkpt lat="52.083387" lon="5.153574">
        <ele>-0.418491</ele>
        <time>2026-08-29T11:23:37.905Z</time>
      </trkpt>
      <trkpt lat="52.083469" lon="5.153472">
        <ele>-0.535724</ele>
        <time>2026-08-29T11:23:44.910Z</time>
      </trkpt>
      <trkpt lat="52.083537" lon="5.153368">
        <ele>-0.641719</ele>
        <time>2026-08-29T11:23:51.903Z</time>
      </trkpt>
      <trkpt lat="52.083609" lon="5.153270">
        <ele>-0.748334</ele>
        <time>2026-08-29T11:23:58.904Z</time>
      </trkpt>
      <trkpt lat="52.083682" lon="5.153171">
        <ele>-0.856269</ele>
        <time>2026-08-29T11:24:05.903Z</time>
      </trkpt>
      <trkpt lat="52.083754" lon="5.153075">
        <ele>-0.961995</ele>
        <time>2026-08-29T11:24:12.909Z</time>
      </trkpt>
      <trkpt lat="52.083824" lon="5.152970">
        <ele>-1.070128</ele>
        <time>2026-08-29T11:24:19.911Z</time>
      </trkpt>
      <trkpt lat="52.083895" lon="5.152875">
        <ele>-1.174532</ele>
        <time>2026-08-29T11:24:26.905Z</time>
      </trkpt>
      <trkpt lat="52.083969" lon="5.152762">
        <ele>-1.289795</ele>
        <time>2026-08-29T11:24:34.909Z</time>
      </trkpt>
      <trkpt lat="52.084041" lon="5.152671">
        <ele>-1.393343</ele>
        <time>2026-08-29T11:24:42.911Z</time>
      </trkpt>
      <trkpt lat="52.084112" lon="5.152577">
        <ele>-1.497306</ele>
        <time>2026-08-29T11:24:51.904Z</time>
      </trkpt>
      <trkpt lat="52.084249" lon="5.152378">
        <ele>-1.467138</ele>
        <time>2026-08-29T11:26:11.908Z</time>
      </trkpt>
      <trkpt lat="52.084363" lon="5.152249">
        <ele>-1.396783</ele>
        <time>2026-08-29T11:27:15.913Z</time>
      </trkpt>
      <trkpt lat="52.084437" lon="5.152149">
        <ele>-1.348046</ele>
        <time>2026-08-29T11:27:23.897Z</time>
      </trkpt>
      <trkpt lat="52.084510" lon="5.152035">
        <ele>-1.296782</ele>
        <time>2026-08-29T11:27:31.906Z</time>
      </trkpt>
      <trkpt lat="52.084575" lon="5.151931">
        <ele>-1.250595</ele>
        <time>2026-08-29T11:27:38.904Z</time>
      </trkpt>
      <trkpt lat="52.084644" lon="5.151833">
        <ele>-1.204190</ele>
        <time>2026-08-29T11:27:45.907Z</time>
      </trkpt>
      <trkpt lat="52.084719" lon="5.151734">
        <ele>-1.155259</ele>
        <time>2026-08-29T11:27:53.905Z</time>
      </trkpt>
      <trkpt lat="52.084807" lon="5.151682">
        <ele>-1.107822</ele>
        <time>2026-08-29T11:28:01.903Z</time>
      </trkpt>
      <trkpt lat="52.084900" lon="5.151677">
        <ele>-1.060674</ele>
        <time>2026-08-29T11:28:09.908Z</time>
      </trkpt>
      <trkpt lat="52.084996" lon="5.151700">
        <ele>-1.011508</ele>
        <time>2026-08-29T11:28:17.905Z</time>
      </trkpt>
      <trkpt lat="52.085083" lon="5.151788">
        <ele>-0.959605</ele>
        <time>2026-08-29T11:28:25.903Z</time>
      </trkpt>
      <trkpt lat="52.085152" lon="5.151893">
        <ele>-0.911739</ele>
        <time>2026-08-29T11:28:32.910Z</time>
      </trkpt>
      <trkpt lat="52.085229" lon="5.151993">
        <ele>-0.861823</ele>
        <time>2026-08-29T11:28:40.909Z</time>
      </trkpt>
      <trkpt lat="52.085304" lon="5.152076">
        <ele>-0.815867</ele>
        <time>2026-08-29T11:28:48.903Z</time>
      </trkpt>
      <trkpt lat="52.085372" lon="5.152195">
        <ele>-0.765272</ele>
        <time>2026-08-29T11:28:57.904Z</time>
      </trkpt>
      <trkpt lat="52.085437" lon="5.152316">
        <ele>-0.715232</ele>
        <time>2026-08-29T11:29:05.910Z</time>
      </trkpt>
      <trkpt lat="52.085499" lon="5.152428">
        <ele>-0.668297</ele>
        <time>2026-08-29T11:29:12.910Z</time>
      </trkpt>
      <trkpt lat="52.085550" lon="5.152554">
        <ele>-0.631835</ele>
        <time>2026-08-29T11:29:19.905Z</time>
      </trkpt>
      <trkpt lat="52.085606" lon="5.152673">
        <ele>-0.645632</ele>
        <time>2026-08-29T11:29:26.909Z</time>
      </trkpt>
      <trkpt lat="52.085670" lon="5.152783">
        <ele>-0.659576</ele>
        <time>2026-08-29T11:29:33.903Z</time>
      </trkpt>
      <trkpt lat="52.085739" lon="5.152880">
        <ele>-0.673234</ele>
        <time>2026-08-29T11:29:40.907Z</time>
      </trkpt>
      <trkpt lat="52.085805" lon="5.152989">
        <ele>-0.687320</ele>
        <time>2026-08-29T11:29:47.904Z</time>
      </trkpt>
      <trkpt lat="52.085872" lon="5.153102">
        <ele>-0.701774</ele>
        <time>2026-08-29T11:29:55.909Z</time>
      </trkpt>
      <trkpt lat="52.085945" lon="5.153201">
        <ele>-0.716008</ele>
        <time>2026-08-29T11:30:06.902Z</time>
      </trkpt>
      <trkpt lat="52.086036" lon="5.153362">
        <ele>-0.736143</ele>
        <time>2026-08-29T11:31:19.912Z</time>
      </trkpt>
      <trkpt lat="52.085919" lon="5.153288">
        <ele>-0.754947</ele>
        <time>2026-08-29T11:35:01.911Z</time>
      </trkpt>
      <trkpt lat="52.085855" lon="5.153185">
        <ele>-0.768430</ele>
        <time>2026-08-29T11:35:10.907Z</time>
      </trkpt>
      <trkpt lat="52.085814" lon="5.153054">
        <ele>-0.781962</ele>
        <time>2026-08-29T11:35:20.906Z</time>
      </trkpt>
      <trkpt lat="52.085749" lon="5.152943">
        <ele>-0.796075</ele>
        <time>2026-08-29T11:35:30.909Z</time>
      </trkpt>
      <trkpt lat="52.085678" lon="5.152852">
        <ele>-0.809613</ele>
        <time>2026-08-29T11:35:45.909Z</time>
      </trkpt>
      <trkpt lat="52.085617" lon="5.152725">
        <ele>-0.824451</ele>
        <time>2026-08-29T11:35:59.909Z</time>
      </trkpt>
      <trkpt lat="52.085561" lon="5.152605">
        <ele>-0.838321</ele>
        <time>2026-08-29T11:36:09.899Z</time>
      </trkpt>
      <trkpt lat="52.085501" lon="5.152477">
        <ele>-0.853140</ele>
        <time>2026-08-29T11:36:20.899Z</time>
      </trkpt>
      <trkpt lat="52.085425" lon="5.152375">
        <ele>-0.867896</ele>
        <time>2026-08-29T11:36:29.907Z</time>
      </trkpt>
      <trkpt lat="52.085356" lon="5.152262">
        <ele>-0.882560</ele>
        <time>2026-08-29T11:36:38.901Z</time>
      </trkpt>
      <trkpt lat="52.085293" lon="5.152141">
        <ele>-0.897158</ele>
        <time>2026-08-29T11:36:48.902Z</time>
      </trkpt>
      <trkpt lat="52.085227" lon="5.152037">
        <ele>-0.964442</ele>
        <time>2026-08-29T11:36:57.901Z</time>
      </trkpt>
      <trkpt lat="52.085158" lon="5.151938">
        <ele>-1.039403</ele>
        <time>2026-08-29T11:37:05.902Z</time>
      </trkpt>
      <trkpt lat="52.085086" lon="5.151828">
        <ele>-1.119880</ele>
        <time>2026-08-29T11:37:13.902Z</time>
      </trkpt>
      <trkpt lat="52.085012" lon="5.151742">
        <ele>-1.193981</ele>
        <time>2026-08-29T11:37:21.904Z</time>
      </trkpt>
      <trkpt lat="52.084921" lon="5.151716">
        <ele>-1.269272</ele>
        <time>2026-08-29T11:37:30.907Z</time>
      </trkpt>
      <trkpt lat="52.084823" lon="5.151723">
        <ele>-1.349209</ele>
        <time>2026-08-29T11:37:40.905Z</time>
      </trkpt>
      <trkpt lat="52.084728" lon="5.151725">
        <ele>-1.426631</ele>
        <time>2026-08-29T11:37:55.905Z</time>
      </trkpt>
      <trkpt lat="52.084605" lon="5.151605">
        <ele>-1.543496</ele>
        <time>2026-08-29T11:40:53.910Z</time>
      </trkpt>
      <trkpt lat="52.084606" lon="5.151445">
        <ele>-1.623621</ele>
        <time>2026-08-29T11:41:01.906Z</time>
      </trkpt>
      <trkpt lat="52.084630" lon="5.151290">
        <ele>-1.703664</ele>
        <time>2026-08-29T11:41:07.902Z</time>
      </trkpt>
      <trkpt lat="52.084662" lon="5.151141">
        <ele>-1.782702</ele>
        <time>2026-08-29T11:41:13.904Z</time>
      </trkpt>
      <trkpt lat="52.084704" lon="5.151007">
        <ele>-1.858028</ele>
        <time>2026-08-29T11:41:20.896Z</time>
      </trkpt>
      <trkpt lat="52.084751" lon="5.150880">
        <ele>-1.932266</ele>
        <time>2026-08-29T11:41:27.900Z</time>
      </trkpt>
      <trkpt lat="52.084809" lon="5.150749">
        <ele>-2.013118</ele>
        <time>2026-08-29T11:41:35.902Z</time>
      </trkpt>
      <trkpt lat="52.084870" lon="5.150624">
        <ele>-2.093049</ele>
        <time>2026-08-29T11:41:44.908Z</time>
      </trkpt>
      <trkpt lat="52.084924" lon="5.150494">
        <ele>-2.171625</ele>
        <time>2026-08-29T11:41:53.907Z</time>
      </trkpt>
      <trkpt lat="52.084991" lon="5.150374">
        <ele>-2.252815</ele>
        <time>2026-08-29T11:42:02.906Z</time>
      </trkpt>
      <trkpt lat="52.085035" lon="5.150243">
        <ele>-2.327573</ele>
        <time>2026-08-29T11:42:12.901Z</time>
      </trkpt>
      <trkpt lat="52.085088" lon="5.150122">
        <ele>-2.302108</ele>
        <time>2026-08-29T11:42:25.901Z</time>
      </trkpt>
      <trkpt lat="52.085161" lon="5.150031">
        <ele>-2.176931</ele>
        <time>2026-08-29T11:42:34.913Z</time>
      </trkpt>
      <trkpt lat="52.085231" lon="5.149932">
        <ele>-2.050687</ele>
        <time>2026-08-29T11:42:42.912Z</time>
      </trkpt>
      <trkpt lat="52.085299" lon="5.149820">
        <ele>-1.918984</ele>
        <time>2026-08-29T11:42:50.903Z</time>
      </trkpt>
      <trkpt lat="52.085365" lon="5.149696">
        <ele>-1.781760</ele>
        <time>2026-08-29T11:42:58.904Z</time>
      </trkpt>
      <trkpt lat="52.085431" lon="5.149581">
        <ele>-1.650134</ele>
        <time>2026-08-29T11:43:06.904Z</time>
      </trkpt>
      <trkpt lat="52.085488" lon="5.149468">
        <ele>-1.527844</ele>
        <time>2026-08-29T11:43:15.901Z</time>
      </trkpt>
      <trkpt lat="52.085551" lon="5.149352">
        <ele>-1.398345</ele>
        <time>2026-08-29T11:43:25.904Z</time>
      </trkpt>
      <trkpt lat="52.085620" lon="5.149244">
        <ele>-1.268024</ele>
        <time>2026-08-29T11:43:34.903Z</time>
      </trkpt>
      <trkpt lat="52.085684" lon="5.149128">
        <ele>-1.137621</ele>
        <time>2026-08-29T11:43:43.899Z</time>
      </trkpt>
      <trkpt lat="52.085742" lon="5.149010">
        <ele>-1.011224</ele>
        <time>2026-08-29T11:43:51.900Z</time>
      </trkpt>
      <trkpt lat="52.085796" lon="5.148885">
        <ele>-0.883411</ele>
        <time>2026-08-29T11:43:59.898Z</time>
      </trkpt>
      <trkpt lat="52.086021" lon="5.148349">
        <ele>-0.340432</ele>
        <time>2026-08-29T11:44:35.904Z</time>
      </trkpt>
      <trkpt lat="52.086085" lon="5.148239">
        <ele>-0.213719</ele>
        <time>2026-08-29T11:44:41.908Z</time>
      </trkpt>
      <trkpt lat="52.086159" lon="5.148145">
        <ele>-0.085932</ele>
        <time>2026-08-29T11:44:49.897Z</time>
      </trkpt>
      <trkpt lat="52.086242" lon="5.148061">
        <ele>0.047119</ele>
        <time>2026-08-29T11:44:57.902Z</time>
      </trkpt>
      <trkpt lat="52.086321" lon="5.147990">
        <ele>0.027334</ele>
        <time>2026-08-29T11:45:05.899Z</time>
      </trkpt>
      <trkpt lat="52.086404" lon="5.147931">
        <ele>-0.053581</ele>
        <time>2026-08-29T11:45:13.899Z</time>
      </trkpt>
      <trkpt lat="52.086491" lon="5.147866">
        <ele>-0.139103</ele>
        <time>2026-08-29T11:45:22.900Z</time>
      </trkpt>
      <trkpt lat="52.086580" lon="5.147812">
        <ele>-0.223959</ele>
        <time>2026-08-29T11:45:30.915Z</time>
      </trkpt>
      <trkpt lat="52.086665" lon="5.147745">
        <ele>-0.308334</ele>
        <time>2026-08-29T11:45:37.897Z</time>
      </trkpt>
      <trkpt lat="52.086754" lon="5.147685">
        <ele>-0.394396</ele>
        <time>2026-08-29T11:45:44.904Z</time>
      </trkpt>
      <trkpt lat="52.086845" lon="5.147625">
        <ele>-0.482111</ele>
        <time>2026-08-29T11:45:51.900Z</time>
      </trkpt>
      <trkpt lat="52.086935" lon="5.147583">
        <ele>-0.565755</ele>
        <time>2026-08-29T11:45:58.904Z</time>
      </trkpt>
      <trkpt lat="52.087023" lon="5.147522">
        <ele>-0.651206</ele>
        <time>2026-08-29T11:46:07.899Z</time>
      </trkpt>
      <trkpt lat="52.087110" lon="5.147476">
        <ele>-0.732928</ele>
        <time>2026-08-29T11:46:13.902Z</time>
      </trkpt>
      <trkpt lat="52.087198" lon="5.147423">
        <ele>-0.816755</ele>
        <time>2026-08-29T11:46:21.903Z</time>
      </trkpt>
      <trkpt lat="52.087284" lon="5.147361">
        <ele>-0.900786</ele>
        <time>2026-08-29T11:46:29.904Z</time>
      </trkpt>
      <trkpt lat="52.087377" lon="5.147294">
        <ele>-0.991646</ele>
        <time>2026-08-29T11:46:37.899Z</time>
      </trkpt>
      <trkpt lat="52.087471" lon="5.147244">
        <ele>-1.079994</ele>
        <time>2026-08-29T11:46:45.900Z</time>
      </trkpt>
      <trkpt lat="52.087561" lon="5.147186">
        <ele>-1.166472</ele>
        <time>2026-08-29T11:46:52.901Z</time>
      </trkpt>
      <trkpt lat="52.087655" lon="5.147129">
        <ele>-1.256088</ele>
        <time>2026-08-29T11:46:59.899Z</time>
      </trkpt>
      <trkpt lat="52.087747" lon="5.147066">
        <ele>-1.345258</ele>
        <time>2026-08-29T11:47:06.914Z</time>
      </trkpt>
      <trkpt lat="52.087835" lon="5.147008">
        <ele>-1.430076</ele>
        <time>2026-08-29T11:47:13.904Z</time>
      </trkpt>
      <trkpt lat="52.087918" lon="5.146945">
        <ele>-1.511894</ele>
        <time>2026-08-29T11:47:23.904Z</time>
      </trkpt>
      <trkpt lat="52.087978" lon="5.146831">
        <ele>-1.458429</ele>
        <time>2026-08-29T11:47:31.904Z</time>
      </trkpt>
      <trkpt lat="52.087977" lon="5.146674">
        <ele>-1.380361</ele>
        <time>2026-08-29T11:47:40.896Z</time>
      </trkpt>
      <trkpt lat="52.087949" lon="5.146531">
        <ele>-1.305734</ele>
        <time>2026-08-29T11:47:49.912Z</time>
      </trkpt>
      <trkpt lat="52.087903" lon="5.146384">
        <ele>-1.223709</ele>
        <time>2026-08-29T11:47:57.912Z</time>
      </trkpt>
      <trkpt lat="52.087847" lon="5.146256">
        <ele>-1.145579</ele>
        <time>2026-08-29T11:48:05.912Z</time>
      </trkpt>
      <trkpt lat="52.087793" lon="5.146125">
        <ele>-1.067142</ele>
        <time>2026-08-29T11:48:14.901Z</time>
      </trkpt>
      <trkpt lat="52.087742" lon="5.145986">
        <ele>-0.986643</ele>
        <time>2026-08-29T11:48:26.913Z</time>
      </trkpt>
      <trkpt lat="52.087690" lon="5.145862">
        <ele>-0.911996</ele>
        <time>2026-08-29T11:48:35.912Z</time>
      </trkpt>
      <trkpt lat="52.087525" lon="5.145478">
        <ele>-0.679005</ele>
        <time>2026-08-29T11:50:05.904Z</time>
      </trkpt>
      <trkpt lat="52.087471" lon="5.145352">
        <ele>-0.602620</ele>
        <time>2026-08-29T11:50:13.897Z</time>
      </trkpt>
      <trkpt lat="52.087414" lon="5.145226">
        <ele>-0.524821</ele>
        <time>2026-08-29T11:50:22.898Z</time>
      </trkpt>
      <trkpt lat="52.087359" lon="5.145087">
        <ele>-0.442615</ele>
        <time>2026-08-29T11:50:31.898Z</time>
      </trkpt>
      <trkpt lat="52.087297" lon="5.144953">
        <ele>-0.359208</ele>
        <time>2026-08-29T11:50:39.897Z</time>
      </trkpt>
      <trkpt lat="52.087241" lon="5.144808">
        <ele>-0.274050</ele>
        <time>2026-08-29T11:50:48.912Z</time>
      </trkpt>
      <trkpt lat="52.087201" lon="5.144663">
        <ele>-0.195019</ele>
        <time>2026-08-29T11:50:56.898Z</time>
      </trkpt>
      <trkpt lat="52.087141" lon="5.144534">
        <ele>-0.114571</ele>
        <time>2026-08-29T11:51:05.899Z</time>
      </trkpt>
      <trkpt lat="52.087087" lon="5.144402">
        <ele>-0.051099</ele>
        <time>2026-08-29T11:51:16.896Z</time>
      </trkpt>
      <trkpt lat="52.087043" lon="5.144267">
        <ele>-0.011879</ele>
        <time>2026-08-29T11:51:27.899Z</time>
      </trkpt>
      <trkpt lat="52.087001" lon="5.144127">
        <ele>0.028105</ele>
        <time>2026-08-29T11:51:37.900Z</time>
      </trkpt>
      <trkpt lat="52.086960" lon="5.143994">
        <ele>0.066294</ele>
        <time>2026-08-29T11:51:45.901Z</time>
      </trkpt>
      <trkpt lat="52.086918" lon="5.143864">
        <ele>0.103988</ele>
        <time>2026-08-29T11:51:53.903Z</time>
      </trkpt>
      <trkpt lat="52.086877" lon="5.143733">
        <ele>0.141719</ele>
        <time>2026-08-29T11:52:02.914Z</time>
      </trkpt>
      <trkpt lat="52.086838" lon="5.143600">
        <ele>0.179540</ele>
        <time>2026-08-29T11:52:10.901Z</time>
      </trkpt>
      <trkpt lat="52.086798" lon="5.143464">
        <ele>0.218237</ele>
        <time>2026-08-29T11:52:18.903Z</time>
      </trkpt>
      <trkpt lat="52.086767" lon="5.143324">
        <ele>0.256429</ele>
        <time>2026-08-29T11:52:26.903Z</time>
      </trkpt>
      <trkpt lat="52.086735" lon="5.143170">
        <ele>0.298152</ele>
        <time>2026-08-29T11:52:35.903Z</time>
      </trkpt>
      <trkpt lat="52.086688" lon="5.143037">
        <ele>0.337528</ele>
        <time>2026-08-29T11:52:44.899Z</time>
      </trkpt>
      <trkpt lat="52.086622" lon="5.142937">
        <ele>0.375192</ele>
        <time>2026-08-29T11:52:54.899Z</time>
      </trkpt>
      <trkpt lat="52.086550" lon="5.142835">
        <ele>0.415063</ele>
        <time>2026-08-29T11:53:00.906Z</time>
      </trkpt>
      <trkpt lat="52.086475" lon="5.142738">
        <ele>0.455076</ele>
        <time>2026-08-29T11:53:07.908Z</time>
      </trkpt>
      <trkpt lat="52.086389" lon="5.142658">
        <ele>0.496450</ele>
        <time>2026-08-29T11:53:15.903Z</time>
      </trkpt>
      <trkpt lat="52.086312" lon="5.142577">
        <ele>0.534744</ele>
        <time>2026-08-29T11:53:23.905Z</time>
      </trkpt>
      <trkpt lat="52.086233" lon="5.142496">
        <ele>0.573743</ele>
        <time>2026-08-29T11:53:31.908Z</time>
      </trkpt>
      <trkpt lat="52.086155" lon="5.142401">
        <ele>0.614435</ele>
        <time>2026-08-29T11:53:40.900Z</time>
      </trkpt>
      <trkpt lat="52.086080" lon="5.142296">
        <ele>0.655757</ele>
        <time>2026-08-29T11:53:49.901Z</time>
      </trkpt>
      <trkpt lat="52.086011" lon="5.142200">
        <ele>0.672969</ele>
        <time>2026-08-29T11:53:57.904Z</time>
      </trkpt>
      <trkpt lat="52.085933" lon="5.142111">
        <ele>0.629795</ele>
        <time>2026-08-29T11:54:05.903Z</time>
      </trkpt>
      <trkpt lat="52.085854" lon="5.142023">
        <ele>0.586407</ele>
        <time>2026-08-29T11:54:13.900Z</time>
      </trkpt>
      <trkpt lat="52.085773" lon="5.141927">
        <ele>0.540993</ele>
        <time>2026-08-29T11:54:21.903Z</time>
      </trkpt>
      <trkpt lat="52.085701" lon="5.141831">
        <ele>0.498808</ele>
        <time>2026-08-29T11:54:29.906Z</time>
      </trkpt>
      <trkpt lat="52.085625" lon="5.141727">
        <ele>0.453805</ele>
        <time>2026-08-29T11:54:37.902Z</time>
      </trkpt>
      <trkpt lat="52.085548" lon="5.141632">
        <ele>0.410012</ele>
        <time>2026-08-29T11:54:44.904Z</time>
      </trkpt>
      <trkpt lat="52.085478" lon="5.141531">
        <ele>0.367614</ele>
        <time>2026-08-29T11:54:51.900Z</time>
      </trkpt>
      <trkpt lat="52.085256" lon="5.141214">
        <ele>0.233760</ele>
        <time>2026-08-29T11:55:17.901Z</time>
      </trkpt>
      <trkpt lat="52.085170" lon="5.141120">
        <ele>0.186808</ele>
        <time>2026-08-29T11:55:24.898Z</time>
      </trkpt>
      <trkpt lat="52.085100" lon="5.141006">
        <ele>0.141926</ele>
        <time>2026-08-29T11:55:32.899Z</time>
      </trkpt>
      <trkpt lat="52.085026" lon="5.140895">
        <ele>0.096314</ele>
        <time>2026-08-29T11:55:41.901Z</time>
      </trkpt>
      <trkpt lat="52.084950" lon="5.140800">
        <ele>0.052882</ele>
        <time>2026-08-29T11:55:49.904Z</time>
      </trkpt>
      <trkpt lat="52.084879" lon="5.140700">
        <ele>0.010325</ele>
        <time>2026-08-29T11:55:56.904Z</time>
      </trkpt>
      <trkpt lat="52.084805" lon="5.140601">
        <ele>-0.033091</ele>
        <time>2026-08-29T11:56:03.906Z</time>
      </trkpt>
      <trkpt lat="52.084737" lon="5.140497">
        <ele>-0.075383</ele>
        <time>2026-08-29T11:56:10.900Z</time>
      </trkpt>
      <trkpt lat="52.084668" lon="5.140382">
        <ele>-0.120146</ele>
        <time>2026-08-29T11:56:18.903Z</time>
      </trkpt>
      <trkpt lat="52.084611" lon="5.140265">
        <ele>-0.172065</ele>
        <time>2026-08-29T11:56:25.903Z</time>
      </trkpt>
      <trkpt lat="52.084547" lon="5.140162">
        <ele>-0.226775</ele>
        <time>2026-08-29T11:56:32.902Z</time>
      </trkpt>
      <trkpt lat="52.084511" lon="5.140021">
        <ele>-0.283804</ele>
        <time>2026-08-29T11:56:41.908Z</time>
      </trkpt>
      <trkpt lat="52.084465" lon="5.139895">
        <ele>-0.338544</ele>
        <time>2026-08-29T11:56:50.898Z</time>
      </trkpt>
      <trkpt lat="52.084424" lon="5.139753">
        <ele>-0.397144</ele>
        <time>2026-08-29T11:57:02.896Z</time>
      </trkpt>
      <trkpt lat="52.084377" lon="5.139609">
        <ele>-0.458044</ele>
        <time>2026-08-29T11:57:12.901Z</time>
      </trkpt>
      <trkpt lat="52.084330" lon="5.139462">
        <ele>-0.519936</ele>
        <time>2026-08-29T11:57:20.901Z</time>
      </trkpt>
      <trkpt lat="52.084294" lon="5.139312">
        <ele>-0.580083</ele>
        <time>2026-08-29T11:57:28.901Z</time>
      </trkpt>
      <trkpt lat="52.084259" lon="5.139162">
        <ele>-0.640012</ele>
        <time>2026-08-29T11:57:36.895Z</time>
      </trkpt>
      <trkpt lat="52.084231" lon="5.139015">
        <ele>-0.697494</ele>
        <time>2026-08-29T11:57:44.896Z</time>
      </trkpt>
      <trkpt lat="52.084218" lon="5.138865">
        <ele>-0.754074</ele>
        <time>2026-08-29T11:57:55.909Z</time>
      </trkpt>
      <trkpt lat="52.084191" lon="5.138723">
        <ele>-0.809592</ele>
        <time>2026-08-29T11:58:02.910Z</time>
      </trkpt>
      <trkpt lat="52.084175" lon="5.138562">
        <ele>-0.870508</ele>
        <time>2026-08-29T11:58:09.897Z</time>
      </trkpt>
      <trkpt lat="52.084178" lon="5.138406">
        <ele>-0.928803</ele>
        <time>2026-08-29T11:58:17.896Z</time>
      </trkpt>
      <trkpt lat="52.084173" lon="5.138245">
        <ele>-0.989014</ele>
        <time>2026-08-29T11:58:26.896Z</time>
      </trkpt>
      <trkpt lat="52.084170" lon="5.138084">
        <ele>-1.049175</ele>
        <time>2026-08-29T11:58:34.909Z</time>
      </trkpt>
      <trkpt lat="52.084165" lon="5.137934">
        <ele>-1.105283</ele>
        <time>2026-08-29T11:58:41.895Z</time>
      </trkpt>
      <trkpt lat="52.084159" lon="5.137775">
        <ele>-1.164783</ele>
        <time>2026-08-29T11:58:49.893Z</time>
      </trkpt>
      <trkpt lat="52.084164" lon="5.137616">
        <ele>-1.224247</ele>
        <time>2026-08-29T11:58:58.901Z</time>
      </trkpt>
      <trkpt lat="52.084167" lon="5.137447">
        <ele>-1.208147</ele>
        <time>2026-08-29T11:59:08.896Z</time>
      </trkpt>
      <trkpt lat="52.084171" lon="5.137300">
        <ele>-1.193673</ele>
        <time>2026-08-29T11:59:15.900Z</time>
      </trkpt>
      <trkpt lat="52.084208" lon="5.137154">
        <ele>-1.178137</ele>
        <time>2026-08-29T11:59:24.901Z</time>
      </trkpt>
      <trkpt lat="52.084276" lon="5.137042">
        <ele>-1.162649</ele>
        <time>2026-08-29T11:59:32.901Z</time>
      </trkpt>
      <trkpt lat="52.084350" lon="5.136939">
        <ele>-1.147061</ele>
        <time>2026-08-29T11:59:40.908Z</time>
      </trkpt>
      <trkpt lat="52.084426" lon="5.136859">
        <ele>-1.132571</ele>
        <time>2026-08-29T11:59:48.896Z</time>
      </trkpt>
      <trkpt lat="52.084501" lon="5.136761">
        <ele>-1.117174</ele>
        <time>2026-08-29T11:59:56.897Z</time>
      </trkpt>
      <trkpt lat="52.084576" lon="5.136656">
        <ele>-1.101336</ele>
        <time>2026-08-29T12:00:04.902Z</time>
      </trkpt>
      <trkpt lat="52.084640" lon="5.136532">
        <ele>-1.085407</ele>
        <time>2026-08-29T12:00:12.900Z</time>
      </trkpt>
      <trkpt lat="52.084700" lon="5.136400">
        <ele>-1.069256</ele>
        <time>2026-08-29T12:00:21.895Z</time>
      </trkpt>
      <trkpt lat="52.084732" lon="5.136259">
        <ele>-1.054470</ele>
        <time>2026-08-29T12:00:32.902Z</time>
      </trkpt>
      <trkpt lat="52.084762" lon="5.136111">
        <ele>-1.039140</ele>
        <time>2026-08-29T12:00:45.899Z</time>
      </trkpt>
      <trkpt lat="52.084802" lon="5.135974">
        <ele>-1.024219</ele>
        <time>2026-08-29T12:00:55.900Z</time>
      </trkpt>
      <trkpt lat="52.084835" lon="5.135837">
        <ele>-1.009744</ele>
        <time>2026-08-29T12:01:07.896Z</time>
      </trkpt>
      <trkpt lat="52.084859" lon="5.135692">
        <ele>-0.994972</ele>
        <time>2026-08-29T12:01:19.902Z</time>
      </trkpt>
      <trkpt lat="52.084881" lon="5.135542">
        <ele>-0.979803</ele>
        <time>2026-08-29T12:01:29.904Z</time>
      </trkpt>
      <trkpt lat="52.084916" lon="5.135393">
        <ele>-0.964111</ele>
        <time>2026-08-29T12:01:39.903Z</time>
      </trkpt>
      <trkpt lat="52.084938" lon="5.135238">
        <ele>-0.948463</ele>
        <time>2026-08-29T12:01:49.903Z</time>
      </trkpt>
      <trkpt lat="52.084951" lon="5.135091">
        <ele>-0.936535</ele>
        <time>2026-08-29T12:01:58.897Z</time>
      </trkpt>
      <trkpt lat="52.084962" lon="5.134926">
        <ele>-0.935380</ele>
        <time>2026-08-29T12:02:09.895Z</time>
      </trkpt>
      <trkpt lat="52.085001" lon="5.134776">
        <ele>-0.934247</ele>
        <time>2026-08-29T12:02:17.903Z</time>
      </trkpt>
      <trkpt lat="52.085026" lon="5.134628">
        <ele>-0.933179</ele>
        <time>2026-08-29T12:02:25.899Z</time>
      </trkpt>
      <trkpt lat="52.085046" lon="5.134482">
        <ele>-0.932138</ele>
        <time>2026-08-29T12:02:33.903Z</time>
      </trkpt>
      <trkpt lat="52.085063" lon="5.134331">
        <ele>-0.931070</ele>
        <time>2026-08-29T12:02:42.903Z</time>
      </trkpt>
      <trkpt lat="52.085089" lon="5.134183">
        <ele>-0.929999</ele>
        <time>2026-08-29T12:02:50.902Z</time>
      </trkpt>
      <trkpt lat="52.085116" lon="5.134032">
        <ele>-0.928905</ele>
        <time>2026-08-29T12:02:59.896Z</time>
      </trkpt>
      <trkpt lat="52.085131" lon="5.133885">
        <ele>-0.927868</ele>
        <time>2026-08-29T12:03:07.903Z</time>
      </trkpt>
      <trkpt lat="52.085150" lon="5.133727">
        <ele>-0.926748</ele>
        <time>2026-08-29T12:03:15.897Z</time>
      </trkpt>
      <trkpt lat="52.085169" lon="5.133567">
        <ele>-0.925614</ele>
        <time>2026-08-29T12:03:23.897Z</time>
      </trkpt>
      <trkpt lat="52.085171" lon="5.133405">
        <ele>-0.924486</ele>
        <time>2026-08-29T12:03:31.899Z</time>
      </trkpt>
      <trkpt lat="52.085174" lon="5.133252">
        <ele>-0.923421</ele>
        <time>2026-08-29T12:03:39.911Z</time>
      </trkpt>
      <trkpt lat="52.085155" lon="5.133086">
        <ele>-0.922246</ele>
        <time>2026-08-29T12:03:49.897Z</time>
      </trkpt>
      <trkpt lat="52.085144" lon="5.132937">
        <ele>-0.921202</ele>
        <time>2026-08-29T12:03:56.898Z</time>
      </trkpt>
      <trkpt lat="52.085122" lon="5.132783">
        <ele>-0.920102</ele>
        <time>2026-08-29T12:04:08.897Z</time>
      </trkpt>
      <trkpt lat="52.085115" lon="5.132630">
        <ele>-0.919035</ele>
        <time>2026-08-29T12:04:18.911Z</time>
      </trkpt>
      <trkpt lat="52.085103" lon="5.132467">
        <ele>-0.917892</ele>
        <time>2026-08-29T12:04:27.896Z</time>
      </trkpt>
      <trkpt lat="52.085074" lon="5.132328">
        <ele>-0.916871</ele>
        <time>2026-08-29T12:04:38.901Z</time>
      </trkpt>
      <trkpt lat="52.085062" lon="5.132182">
        <ele>-0.939845</ele>
        <time>2026-08-29T12:04:54.899Z</time>
      </trkpt>
      <trkpt lat="52.085010" lon="5.132059">
        <ele>-0.986136</ele>
        <time>2026-08-29T12:05:06.897Z</time>
      </trkpt>
      <trkpt lat="52.084966" lon="5.131925">
        <ele>-1.033243</ele>
        <time>2026-08-29T12:05:15.898Z</time>
      </trkpt>
      <trkpt lat="52.084917" lon="5.131786">
        <ele>-1.082929</ele>
        <time>2026-08-29T12:05:26.913Z</time>
      </trkpt>
      <trkpt lat="52.084851" lon="5.131682">
        <ele>-1.129284</ele>
        <time>2026-08-29T12:05:34.900Z</time>
      </trkpt>
      <trkpt lat="52.084796" lon="5.131564">
        <ele>-1.175205</ele>
        <time>2026-08-29T12:05:42.901Z</time>
      </trkpt>
      <trkpt lat="52.084757" lon="5.131429">
        <ele>-1.221457</ele>
        <time>2026-08-29T12:05:50.896Z</time>
      </trkpt>
      <trkpt lat="52.084734" lon="5.131283">
        <ele>-1.268189</ele>
        <time>2026-08-29T12:05:59.896Z</time>
      </trkpt>
      <trkpt lat="52.084700" lon="5.131145">
        <ele>-1.314288</ele>
        <time>2026-08-29T12:06:11.904Z</time>
      </trkpt>
      <trkpt lat="52.084657" lon="5.131013">
        <ele>-1.360611</ele>
        <time>2026-08-29T12:06:19.896Z</time>
      </trkpt>
      <trkpt lat="52.084597" lon="5.130903">
        <ele>-1.406216</ele>
        <time>2026-08-29T12:06:28.897Z</time>
      </trkpt>
      <trkpt lat="52.084524" lon="5.130814">
        <ele>-1.452240</ele>
        <time>2026-08-29T12:06:37.904Z</time>
      </trkpt>
      <trkpt lat="52.084458" lon="5.130706">
        <ele>-1.499466</ele>
        <time>2026-08-29T12:06:46.904Z</time>
      </trkpt>
      <trkpt lat="52.084396" lon="5.130594">
        <ele>-1.546206</ele>
        <time>2026-08-29T12:06:54.904Z</time>
      </trkpt>
      <trkpt lat="52.084319" lon="5.130489">
        <ele>-1.596895</ele>
        <time>2026-08-29T12:07:05.896Z</time>
      </trkpt>
      <trkpt lat="52.084246" lon="5.130391">
        <ele>-1.644645</ele>
        <time>2026-08-29T12:07:11.895Z</time>
      </trkpt>
      <trkpt lat="52.084171" lon="5.130291">
        <ele>-1.693568</ele>
        <time>2026-08-29T12:07:18.904Z</time>
      </trkpt>
      <trkpt lat="52.084104" lon="5.130185">
        <ele>-1.740717</ele>
        <time>2026-08-29T12:07:26.896Z</time>
      </trkpt>
      <trkpt lat="52.084038" lon="5.130071">
        <ele>-1.789281</ele>
        <time>2026-08-29T12:07:35.896Z</time>
      </trkpt>
      <trkpt lat="52.083976" lon="5.129960">
        <ele>-1.810725</ele>
        <time>2026-08-29T12:07:43.896Z</time>
      </trkpt>
      <trkpt lat="52.083909" lon="5.129844">
        <ele>-1.755880</ele>
        <time>2026-08-29T12:07:54.904Z</time>
      </trkpt>
      <trkpt lat="52.083865" lon="5.129716">
        <ele>-1.705353</ele>
        <time>2026-08-29T12:08:03.896Z</time>
      </trkpt>
      <trkpt lat="52.083829" lon="5.129571">
        <ele>-1.651476</ele>
        <time>2026-08-29T12:08:12.896Z</time>
      </trkpt>
      <trkpt lat="52.083812" lon="5.129426">
        <ele>-1.600621</ele>
        <time>2026-08-29T12:08:22.896Z</time>
      </trkpt>
      <trkpt lat="52.083854" lon="5.129287">
        <ele>-1.547258</ele>
        <time>2026-08-29T12:08:31.895Z</time>
      </trkpt>
      <trkpt lat="52.083891" lon="5.129136">
        <ele>-1.491254</ele>
        <time>2026-08-29T12:08:40.896Z</time>
      </trkpt>
      <trkpt lat="52.083940" lon="5.128997">
        <ele>-1.436048</ele>
        <time>2026-08-29T12:08:49.899Z</time>
      </trkpt>
      <trkpt lat="52.083977" lon="5.128864">
        <ele>-1.385751</ele>
        <time>2026-08-29T12:08:57.898Z</time>
      </trkpt>
      <trkpt lat="52.084018" lon="5.128714">
        <ele>-1.329194</ele>
        <time>2026-08-29T12:09:05.898Z</time>
      </trkpt>
      <trkpt lat="52.084067" lon="5.128578">
        <ele>-1.274881</ele>
        <time>2026-08-29T12:09:13.912Z</time>
      </trkpt>
      <trkpt lat="52.084111" lon="5.128448">
        <ele>-1.223751</ele>
        <time>2026-08-29T12:09:20.899Z</time>
      </trkpt>
      <trkpt lat="52.084147" lon="5.128290">
        <ele>-1.165698</ele>
        <time>2026-08-29T12:09:28.896Z</time>
      </trkpt>
      <trkpt lat="52.084204" lon="5.128151">
        <ele>-1.108128</ele>
        <time>2026-08-29T12:09:36.898Z</time>
      </trkpt>
      <trkpt lat="52.084267" lon="5.128039">
        <ele>-1.055819</ele>
        <time>2026-08-29T12:09:50.899Z</time>
      </trkpt>
      <trkpt lat="52.084346" lon="5.127959">
        <ele>-1.003655</ele>
        <time>2026-08-29T12:10:03.912Z</time>
      </trkpt>
      <trkpt lat="52.084432" lon="5.127880">
        <ele>-0.948290</ele>
        <time>2026-08-29T12:10:11.897Z</time>
      </trkpt>
      <trkpt lat="52.084515" lon="5.127807">
        <ele>-0.895396</ele>
        <time>2026-08-29T12:10:19.897Z</time>
      </trkpt>
      <trkpt lat="52.084604" lon="5.127737">
        <ele>-0.839979</ele>
        <time>2026-08-29T12:10:28.897Z</time>
      </trkpt>
      <trkpt lat="52.084698" lon="5.127675">
        <ele>-0.790601</ele>
        <time>2026-08-29T12:10:40.898Z</time>
      </trkpt>
      <trkpt lat="52.084786" lon="5.127627">
        <ele>-0.750576</ele>
        <time>2026-08-29T12:10:46.912Z</time>
      </trkpt>
      <trkpt lat="52.084885" lon="5.127575">
        <ele>-0.705713</ele>
        <time>2026-08-29T12:10:53.897Z</time>
      </trkpt>
      <trkpt lat="52.084978" lon="5.127523">
        <ele>-0.663306</ele>
        <time>2026-08-29T12:11:00.897Z</time>
      </trkpt>
      <trkpt lat="52.085071" lon="5.127477">
        <ele>-0.621388</ele>
        <time>2026-08-29T12:11:07.897Z</time>
      </trkpt>
      <trkpt lat="52.085161" lon="5.127440">
        <ele>-0.581356</ele>
        <time>2026-08-29T12:11:14.897Z</time>
      </trkpt>
      <trkpt lat="52.085258" lon="5.127389">
        <ele>-0.537396</ele>
        <time>2026-08-29T12:11:22.898Z</time>
      </trkpt>
      <trkpt lat="52.085349" lon="5.127317">
        <ele>-0.493760</ele>
        <time>2026-08-29T12:11:30.895Z</time>
      </trkpt>
      <trkpt lat="52.085435" lon="5.127264">
        <ele>-0.454102</ele>
        <time>2026-08-29T12:11:38.897Z</time>
      </trkpt>
      <trkpt lat="52.085531" lon="5.127209">
        <ele>-0.410211</ele>
        <time>2026-08-29T12:11:46.896Z</time>
      </trkpt>
      <trkpt lat="52.085625" lon="5.127155">
        <ele>-0.367222</ele>
        <time>2026-08-29T12:11:54.896Z</time>
      </trkpt>
      <trkpt lat="52.085711" lon="5.127106">
        <ele>-0.327927</ele>
        <time>2026-08-29T12:12:01.896Z</time>
      </trkpt>
      <trkpt lat="52.085805" lon="5.127040">
        <ele>-0.283778</ele>
        <time>2026-08-29T12:12:07.899Z</time>
      </trkpt>
      <trkpt lat="52.085894" lon="5.126950">
        <ele>-0.238590</ele>
        <time>2026-08-29T12:12:13.897Z</time>
      </trkpt>
      <trkpt lat="52.085981" lon="5.126874">
        <ele>-0.196008</ele>
        <time>2026-08-29T12:12:20.899Z</time>
      </trkpt>
      <trkpt lat="52.086077" lon="5.126835">
        <ele>-0.153337</ele>
        <time>2026-08-29T12:12:29.905Z</time>
      </trkpt>
      <trkpt lat="52.086170" lon="5.126789">
        <ele>-0.111419</ele>
        <time>2026-08-29T12:12:39.899Z</time>
      </trkpt>
      <trkpt lat="52.086255" lon="5.126712">
        <ele>-0.069467</ele>
        <time>2026-08-29T12:12:48.905Z</time>
      </trkpt>
      <trkpt lat="52.086344" lon="5.126656">
        <ele>-0.018421</ele>
        <time>2026-08-29T12:12:56.897Z</time>
      </trkpt>
      <trkpt lat="52.086434" lon="5.126600">
        <ele>0.058676</ele>
        <time>2026-08-29T12:13:05.899Z</time>
      </trkpt>
      <trkpt lat="52.086518" lon="5.126543">
        <ele>0.131496</ele>
        <time>2026-08-29T12:13:14.903Z</time>
      </trkpt>
      <trkpt lat="52.086598" lon="5.126471">
        <ele>0.204643</ele>
        <time>2026-08-29T12:13:22.903Z</time>
      </trkpt>
      <trkpt lat="52.086670" lon="5.126382">
        <ele>0.276986</ele>
        <time>2026-08-29T12:13:29.904Z</time>
      </trkpt>
      <trkpt lat="52.086746" lon="5.126303">
        <ele>0.349143</ele>
        <time>2026-08-29T12:13:38.893Z</time>
      </trkpt>
      <trkpt lat="52.086829" lon="5.126231">
        <ele>0.424399</ele>
        <time>2026-08-29T12:13:51.899Z</time>
      </trkpt>
      <trkpt lat="52.086918" lon="5.126195">
        <ele>0.497778</ele>
        <time>2026-08-29T12:13:59.900Z</time>
      </trkpt>
      <trkpt lat="52.087010" lon="5.126144">
        <ele>0.575544</ele>
        <time>2026-08-29T12:14:06.911Z</time>
      </trkpt>
      <trkpt lat="52.087088" lon="5.126056">
        <ele>0.651484</ele>
        <time>2026-08-29T12:14:14.903Z</time>
      </trkpt>
      <trkpt lat="52.087177" lon="5.125998">
        <ele>0.728194</ele>
        <time>2026-08-29T12:14:22.898Z</time>
      </trkpt>
      <trkpt lat="52.087269" lon="5.125936">
        <ele>0.807868</ele>
        <time>2026-08-29T12:14:31.899Z</time>
      </trkpt>
      <trkpt lat="52.087361" lon="5.125871">
        <ele>0.888118</ele>
        <time>2026-08-29T12:14:40.897Z</time>
      </trkpt>
      <trkpt lat="52.087450" lon="5.125796">
        <ele>0.968310</ele>
        <time>2026-08-29T12:14:50.897Z</time>
      </trkpt>
      <trkpt lat="52.087538" lon="5.125724">
        <ele>1.047119</ele>
        <time>2026-08-29T12:14:59.898Z</time>
      </trkpt>
      <trkpt lat="52.087612" lon="5.125635">
        <ele>1.120743</ele>
        <time>2026-08-29T12:15:09.903Z</time>
      </trkpt>
      <trkpt lat="52.087696" lon="5.125569">
        <ele>1.195378</ele>
        <time>2026-08-29T12:15:18.903Z</time>
      </trkpt>
      <trkpt lat="52.087771" lon="5.125483">
        <ele>1.268787</ele>
        <time>2026-08-29T12:15:27.903Z</time>
      </trkpt>
      <trkpt lat="52.087853" lon="5.125402">
        <ele>1.345538</ele>
        <time>2026-08-29T12:15:35.904Z</time>
      </trkpt>
      <trkpt lat="52.087936" lon="5.125316">
        <ele>1.481520</ele>
        <time>2026-08-29T12:15:44.903Z</time>
      </trkpt>
      <trkpt lat="52.088018" lon="5.125223">
        <ele>1.744679</ele>
        <time>2026-08-29T12:15:54.903Z</time>
      </trkpt>
      <trkpt lat="52.088102" lon="5.125140">
        <ele>2.003421</ele>
        <time>2026-08-29T12:16:02.895Z</time>
      </trkpt>
      <trkpt lat="52.088194" lon="5.125052">
        <ele>2.284394</ele>
        <time>2026-08-29T12:16:13.896Z</time>
      </trkpt>
      <trkpt lat="52.088280" lon="5.124971">
        <ele>2.546016</ele>
        <time>2026-08-29T12:16:19.898Z</time>
      </trkpt>
      <trkpt lat="52.088364" lon="5.124895">
        <ele>2.799065</ele>
        <time>2026-08-29T12:16:26.897Z</time>
      </trkpt>
      <trkpt lat="52.088455" lon="5.124817">
        <ele>3.069865</ele>
        <time>2026-08-29T12:16:33.903Z</time>
      </trkpt>
      <trkpt lat="52.088535" lon="5.124749">
        <ele>3.307501</ele>
        <time>2026-08-29T12:16:39.903Z</time>
      </trkpt>
      <trkpt lat="52.088623" lon="5.124665">
        <ele>3.576116</ele>
        <time>2026-08-29T12:16:46.895Z</time>
      </trkpt>
      <trkpt lat="52.088710" lon="5.124576">
        <ele>3.846679</ele>
        <time>2026-08-29T12:16:53.896Z</time>
      </trkpt>
      <trkpt lat="52.088783" lon="5.124487">
        <ele>4.086835</ele>
        <time>2026-08-29T12:17:00.903Z</time>
      </trkpt>
      <trkpt lat="52.088869" lon="5.124400">
        <ele>4.353451</ele>
        <time>2026-08-29T12:17:07.904Z</time>
      </trkpt>
      <trkpt lat="52.088954" lon="5.124325">
        <ele>4.608029</ele>
        <time>2026-08-29T12:17:14.903Z</time>
      </trkpt>
      <trkpt lat="52.089040" lon="5.124272">
        <ele>4.850155</ele>
        <time>2026-08-29T12:17:22.895Z</time>
      </trkpt>
      <trkpt lat="52.089135" lon="5.124213">
        <ele>5.117881</ele>
        <time>2026-08-29T12:17:29.896Z</time>
      </trkpt>
      <trkpt lat="52.089220" lon="5.124163">
        <ele>5.355854</ele>
        <time>2026-08-29T12:17:36.901Z</time>
      </trkpt>
      <trkpt lat="52.089303" lon="5.124105">
        <ele>5.593683</ele>
        <time>2026-08-29T12:17:43.898Z</time>
      </trkpt>
      <trkpt lat="52.089392" lon="5.124053">
        <ele>5.842661</ele>
        <time>2026-08-29T12:17:51.904Z</time>
      </trkpt>
      <trkpt lat="52.089483" lon="5.124013">
        <ele>6.090847</ele>
        <time>2026-08-29T12:17:59.903Z</time>
      </trkpt>
      <trkpt lat="52.089583" lon="5.123989">
        <ele>5.895719</ele>
        <time>2026-08-29T12:18:07.899Z</time>
      </trkpt>
      <trkpt lat="52.089679" lon="5.123962">
        <ele>5.619085</ele>
        <time>2026-08-29T12:18:15.903Z</time>
      </trkpt>
      <trkpt lat="52.089770" lon="5.123943">
        <ele>5.358572</ele>
        <time>2026-08-29T12:18:23.899Z</time>
      </trkpt>
      <trkpt lat="52.089866" lon="5.123912">
        <ele>5.080665</ele>
        <time>2026-08-29T12:18:31.904Z</time>
      </trkpt>
      <trkpt lat="52.089966" lon="5.123912">
        <ele>4.796713</ele>
        <time>2026-08-29T12:18:39.893Z</time>
      </trkpt>
      <trkpt lat="52.090053" lon="5.123971">
        <ele>4.529088</ele>
        <time>2026-08-29T12:18:47.903Z</time>
      </trkpt>
      <trkpt lat="52.090143" lon="5.124067">
        <ele>4.223538</ele>
        <time>2026-08-29T12:18:52.900Z</time>
      </trkpt>
      <trkpt lat="52.090198" lon="5.124209">
        <ele>3.930680</ele>
        <time>2026-08-29T12:19:04.903Z</time>
      </trkpt>
      <trkpt lat="52.090253" lon="5.124331">
        <ele>3.666683</ele>
        <time>2026-08-29T12:19:13.898Z</time>
      </trkpt>
      <trkpt lat="52.090294" lon="5.124465">
        <ele>3.405516</ele>
        <time>2026-08-29T12:19:20.903Z</time>
      </trkpt>
      <trkpt lat="52.090348" lon="5.124596">
        <ele>3.130296</ele>
        <time>2026-08-29T12:19:27.903Z</time>
      </trkpt>
      <trkpt lat="52.090389" lon="5.124734">
        <ele>2.862865</ele>
        <time>2026-08-29T12:19:38.911Z</time>
      </trkpt>
      <trkpt lat="52.090426" lon="5.124872">
        <ele>2.600179</ele>
        <time>2026-08-29T12:19:51.903Z</time>
      </trkpt>
      <trkpt lat="52.090479" lon="5.125000">
        <ele>2.330887</ele>
        <time>2026-08-29T12:20:11.910Z</time>
      </trkpt>
      <trkpt lat="52.090528" lon="5.125125">
        <ele>2.072202</ele>
        <time>2026-08-29T12:20:21.904Z</time>
      </trkpt>
      <trkpt lat="52.090579" lon="5.125260">
        <ele>1.795717</ele>
        <time>2026-08-29T12:20:33.905Z</time>
      </trkpt>
      <trkpt lat="52.090630" lon="5.125388">
        <ele>1.529558</ele>
        <time>2026-08-29T12:20:42.913Z</time>
      </trkpt>
      <trkpt lat="52.090678" lon="5.125520">
        <ele>1.261955</ele>
        <time>2026-08-29T12:20:54.894Z</time>
      </trkpt>
      <trkpt lat="52.090725" lon="5.125650">
        <ele>1.022462</ele>
        <time>2026-08-29T12:21:07.893Z</time>
      </trkpt>
      <trkpt lat="52.090797" lon="5.125738">
        <ele>0.975487</ele>
        <time>2026-08-29T12:21:15.895Z</time>
      </trkpt>
      <trkpt lat="52.090871" lon="5.125841">
        <ele>0.924689</ele>
        <time>2026-08-29T12:21:22.895Z</time>
      </trkpt>
      <trkpt lat="52.090946" lon="5.125951">
        <ele>0.872019</ele>
        <time>2026-08-29T12:21:29.893Z</time>
      </trkpt>
      <trkpt lat="52.091014" lon="5.126068">
        <ele>0.820395</ele>
        <time>2026-08-29T12:21:36.896Z</time>
      </trkpt>
      <trkpt lat="52.091086" lon="5.126168">
        <ele>0.771015</ele>
        <time>2026-08-29T12:21:44.894Z</time>
      </trkpt>
      <trkpt lat="52.091174" lon="5.126235">
        <ele>0.720331</ele>
        <time>2026-08-29T12:21:52.895Z</time>
      </trkpt>
      <trkpt lat="52.091274" lon="5.126217">
        <ele>0.667843</ele>
        <time>2026-08-29T12:22:00.893Z</time>
      </trkpt>
      <trkpt lat="52.091364" lon="5.126154">
        <ele>0.616731</ele>
        <time>2026-08-29T12:22:07.899Z</time>
      </trkpt>
      <trkpt lat="52.091452" lon="5.126095">
        <ele>0.567079</ele>
        <time>2026-08-29T12:22:15.895Z</time>
      </trkpt>
      <trkpt lat="52.091540" lon="5.126030">
        <ele>0.516663</ele>
        <time>2026-08-29T12:22:23.896Z</time>
      </trkpt>
      <trkpt lat="52.091705" lon="5.125945">
        <ele>0.426373</ele>
        <time>2026-08-29T12:22:57.909Z</time>
      </trkpt>
      <trkpt lat="52.091785" lon="5.125848">
        <ele>0.374329</ele>
        <time>2026-08-29T12:23:04.906Z</time>
      </trkpt>
      <trkpt lat="52.091863" lon="5.125748">
        <ele>0.322529</ele>
        <time>2026-08-29T12:23:28.898Z</time>
      </trkpt>
      <trkpt lat="52.091939" lon="5.125665">
        <ele>0.274781</ele>
        <time>2026-08-29T12:23:36.905Z</time>
      </trkpt>
      <trkpt lat="52.092005" lon="5.125545">
        <ele>0.223157</ele>
        <time>2026-08-29T12:23:44.895Z</time>
      </trkpt>
      <trkpt lat="52.092068" lon="5.125433">
        <ele>0.174485</ele>
        <time>2026-08-29T12:23:51.893Z</time>
      </trkpt>
      <trkpt lat="52.092106" lon="5.125291">
        <ele>0.124839</ele>
        <time>2026-08-29T12:23:59.904Z</time>
      </trkpt>
      <trkpt lat="52.092136" lon="5.125150">
        <ele>0.102202</ele>
        <time>2026-08-29T12:24:06.905Z</time>
      </trkpt>
      <trkpt lat="52.092155" lon="5.124994">
        <ele>0.154596</ele>
        <time>2026-08-29T12:24:14.905Z</time>
      </trkpt>
      <trkpt lat="52.092166" lon="5.124843">
        <ele>0.204692</ele>
        <time>2026-08-29T12:24:24.894Z</time>
      </trkpt>
      <trkpt lat="52.092191" lon="5.124696">
        <ele>0.254943</ele>
        <time>2026-08-29T12:24:35.895Z</time>
      </trkpt>
      <trkpt lat="52.092220" lon="5.124545">
        <ele>0.307064</ele>
        <time>2026-08-29T12:24:48.905Z</time>
      </trkpt>
      <trkpt lat="52.092247" lon="5.124155">
        <ele>0.436363</ele>
        <time>2026-08-29T12:27:54.902Z</time>
      </trkpt>
      <trkpt lat="52.092420" lon="5.123872">
        <ele>0.567886</ele>
        <time>2026-08-29T12:30:42.898Z</time>
      </trkpt>
      <trkpt lat="52.092480" lon="5.123737">
        <ele>0.622779</ele>
        <time>2026-08-29T12:30:49.895Z</time>
      </trkpt>
      <trkpt lat="52.092507" lon="5.123596">
        <ele>0.671435</ele>
        <time>2026-08-29T12:30:54.892Z</time>
      </trkpt>
      <trkpt lat="52.092545" lon="5.123461">
        <ele>0.720356</ele>
        <time>2026-08-29T12:31:11.893Z</time>
      </trkpt>
      <trkpt lat="52.092585" lon="5.123328">
        <ele>0.769141</ele>
        <time>2026-08-29T12:31:21.896Z</time>
      </trkpt>
      <trkpt lat="52.092838" lon="5.123188">
        <ele>0.912431</ele>
        <time>2026-08-29T12:31:59.896Z</time>
      </trkpt>
      <trkpt lat="52.092932" lon="5.123191">
        <ele>0.962846</ele>
        <time>2026-08-29T12:32:05.896Z</time>
      </trkpt>
      <trkpt lat="52.093028" lon="5.123165">
        <ele>1.015031</ele>
        <time>2026-08-29T12:32:12.892Z</time>
      </trkpt>
      <trkpt lat="52.093115" lon="5.123130">
        <ele>1.044932</ele>
        <time>2026-08-29T12:32:23.895Z</time>
      </trkpt>
      <trkpt lat="52.093208" lon="5.123095">
        <ele>0.994881</ele>
        <time>2026-08-29T12:32:35.894Z</time>
      </trkpt>
      <trkpt lat="52.093322" lon="5.123110">
        <ele>0.934910</ele>
        <time>2026-08-29T12:32:39.892Z</time>
      </trkpt>
      <trkpt lat="52.093426" lon="5.123126">
        <ele>0.880134</ele>
        <time>2026-08-29T12:32:44.901Z</time>
      </trkpt>
      <trkpt lat="52.093520" lon="5.123152">
        <ele>0.830138</ele>
        <time>2026-08-29T12:32:51.891Z</time>
      </trkpt>
      <trkpt lat="52.093768" lon="5.123209">
        <ele>0.698808</ele>
        <time>2026-08-29T12:33:35.901Z</time>
      </trkpt>
      <trkpt lat="52.093861" lon="5.123227">
        <ele>0.649700</ele>
        <time>2026-08-29T12:33:45.891Z</time>
      </trkpt>
      <trkpt lat="52.093955" lon="5.123276">
        <ele>0.597945</ele>
        <time>2026-08-29T12:33:56.894Z</time>
      </trkpt>
      <trkpt lat="52.094052" lon="5.123320">
        <ele>0.545144</ele>
        <time>2026-08-29T12:34:05.895Z</time>
      </trkpt>
      <trkpt lat="52.094162" lon="5.123349">
        <ele>0.486714</ele>
        <time>2026-08-29T12:34:13.894Z</time>
      </trkpt>
      <trkpt lat="52.094259" lon="5.123376">
        <ele>0.435113</ele>
        <time>2026-08-29T12:34:17.894Z</time>
      </trkpt>
      <trkpt lat="52.094349" lon="5.123421">
        <ele>0.385745</ele>
        <time>2026-08-29T12:34:22.895Z</time>
      </trkpt>
      <trkpt lat="52.094457" lon="5.123427">
        <ele>0.329082</ele>
        <time>2026-08-29T12:34:27.893Z</time>
      </trkpt>
      <trkpt lat="52.094553" lon="5.123428">
        <ele>0.278743</ele>
        <time>2026-08-29T12:34:33.894Z</time>
      </trkpt>
      <trkpt lat="52.094650" lon="5.123455">
        <ele>0.227142</ele>
        <time>2026-08-29T12:34:38.892Z</time>
      </trkpt>
      <trkpt lat="52.094758" lon="5.123462">
        <ele>0.170467</ele>
        <time>2026-08-29T12:34:45.895Z</time>
      </trkpt>
      <trkpt lat="52.094869" lon="5.123456">
        <ele>0.112232</ele>
        <time>2026-08-29T12:34:50.895Z</time>
      </trkpt>
      <trkpt lat="52.094963" lon="5.123464">
        <ele>0.086345</ele>
        <time>2026-08-29T12:35:01.902Z</time>
      </trkpt>
      <trkpt lat="52.095071" lon="5.123479">
        <ele>0.057353</ele>
        <time>2026-08-29T12:35:06.893Z</time>
      </trkpt>
      <trkpt lat="52.095165" lon="5.123504">
        <ele>0.031877</ele>
        <time>2026-08-29T12:35:11.894Z</time>
      </trkpt>
      <trkpt lat="52.095266" lon="5.123523">
        <ele>0.004682</ele>
        <time>2026-08-29T12:35:17.896Z</time>
      </trkpt>
      <trkpt lat="52.095364" lon="5.123523">
        <ele>-0.021530</ele>
        <time>2026-08-29T12:35:24.893Z</time>
      </trkpt>
      <trkpt lat="52.095457" lon="5.123535">
        <ele>-0.046483</ele>
        <time>2026-08-29T12:35:31.895Z</time>
      </trkpt>
      <trkpt lat="52.095554" lon="5.123543">
        <ele>-0.072462</ele>
        <time>2026-08-29T12:35:38.909Z</time>
      </trkpt>
      <trkpt lat="52.095655" lon="5.123572">
        <ele>-0.099894</ele>
        <time>2026-08-29T12:35:44.894Z</time>
      </trkpt>
      <trkpt lat="52.095754" lon="5.123595">
        <ele>-0.126642</ele>
        <time>2026-08-29T12:35:52.894Z</time>
      </trkpt>
      <trkpt lat="52.095852" lon="5.123634">
        <ele>-0.153627</ele>
        <time>2026-08-29T12:35:59.898Z</time>
      </trkpt>
      <trkpt lat="52.095940" lon="5.123678">
        <ele>-0.178250</ele>
        <time>2026-08-29T12:36:05.894Z</time>
      </trkpt>
      <trkpt lat="52.096040" lon="5.123677">
        <ele>-0.204998</ele>
        <time>2026-08-29T12:36:12.897Z</time>
      </trkpt>
      <trkpt lat="52.096138" lon="5.123708">
        <ele>-0.231701</ele>
        <time>2026-08-29T12:36:19.896Z</time>
      </trkpt>
      <trkpt lat="52.096231" lon="5.123727">
        <ele>-0.256771</ele>
        <time>2026-08-29T12:36:26.894Z</time>
      </trkpt>
      <trkpt lat="52.096328" lon="5.123763">
        <ele>-0.283382</ele>
        <time>2026-08-29T12:36:34.895Z</time>
      </trkpt>
      <trkpt lat="52.096423" lon="5.123790">
        <ele>-0.309176</ele>
        <time>2026-08-29T12:36:42.894Z</time>
      </trkpt>
      <trkpt lat="52.096514" lon="5.123812">
        <ele>-0.333784</ele>
        <time>2026-08-29T12:36:50.901Z</time>
      </trkpt>
      <trkpt lat="52.096604" lon="5.123833">
        <ele>-0.358102</ele>
        <time>2026-08-29T12:36:59.894Z</time>
      </trkpt>
      <trkpt lat="52.096694" lon="5.123857">
        <ele>-0.547435</ele>
        <time>2026-08-29T12:37:16.896Z</time>
      </trkpt>
      <trkpt lat="52.096781" lon="5.123900">
        <ele>-0.900874</ele>
        <time>2026-08-29T12:37:37.893Z</time>
      </trkpt>
      <trkpt lat="52.096866" lon="5.123834">
        <ele>-1.266958</ele>
        <time>2026-08-29T12:38:02.910Z</time>
      </trkpt>
      <trkpt lat="52.097044" lon="5.123581">
        <ele>-2.185546</ele>
        <time>2026-08-29T12:38:33.906Z</time>
      </trkpt>
      <trkpt lat="52.097065" lon="5.123428">
        <ele>-2.559926</ele>
        <time>2026-08-29T12:38:39.892Z</time>
      </trkpt>
      <trkpt lat="52.097077" lon="5.123271">
        <ele>-2.937740</ele>
        <time>2026-08-29T12:38:44.906Z</time>
      </trkpt>
      <trkpt lat="52.097045" lon="5.123128">
        <ele>-3.301181</ele>
        <time>2026-08-29T12:38:51.901Z</time>
      </trkpt>
      <trkpt lat="52.097013" lon="5.122968">
        <ele>-3.703008</ele>
        <time>2026-08-29T12:38:59.906Z</time>
      </trkpt>
      <trkpt lat="52.096998" lon="5.122813">
        <ele>-4.077721</ele>
        <time>2026-08-29T12:39:07.906Z</time>
      </trkpt>
      <trkpt lat="52.097003" lon="5.122655">
        <ele>-4.455534</ele>
        <time>2026-08-29T12:39:20.891Z</time>
      </trkpt>
      <trkpt lat="52.097043" lon="5.122502">
        <ele>-4.852616</ele>
        <time>2026-08-29T12:39:27.906Z</time>
      </trkpt>
      <trkpt lat="52.097075" lon="5.122353">
        <ele>-5.229552</ele>
        <time>2026-08-29T12:39:34.894Z</time>
      </trkpt>
      <trkpt lat="52.097109" lon="5.122196">
        <ele>-5.627089</ele>
        <time>2026-08-29T12:39:42.906Z</time>
      </trkpt>
      <trkpt lat="52.097147" lon="5.122059">
        <ele>-5.986053</ele>
        <time>2026-08-29T12:39:49.894Z</time>
      </trkpt>
      <trkpt lat="52.097184" lon="5.121923">
        <ele>-6.341250</ele>
        <time>2026-08-29T12:39:56.898Z</time>
      </trkpt>
      <trkpt lat="52.097225" lon="5.121788">
        <ele>-6.700880</ele>
        <time>2026-08-29T12:40:04.897Z</time>
      </trkpt>
      <trkpt lat="52.097257" lon="5.121640">
        <ele>-7.075562</ele>
        <time>2026-08-29T12:40:13.892Z</time>
      </trkpt>
      <trkpt lat="52.097280" lon="5.121484">
        <ele>-7.430324</ele>
        <time>2026-08-29T12:40:20.891Z</time>
      </trkpt>
      <trkpt lat="52.097270" lon="5.121083">
        <ele>-8.107317</ele>
        <time>2026-08-29T12:41:00.906Z</time>
      </trkpt>
      <trkpt lat="52.097224" lon="5.120925">
        <ele>-8.402259</ele>
        <time>2026-08-29T12:41:06.902Z</time>
      </trkpt>
      <trkpt lat="52.097168" lon="5.120787">
        <ele>-8.681250</ele>
        <time>2026-08-29T12:41:15.894Z</time>
      </trkpt>
      <trkpt lat="52.097114" lon="5.120666">
        <ele>-8.933536</ele>
        <time>2026-08-29T12:41:21.906Z</time>
      </trkpt>
      <trkpt lat="52.097037" lon="5.120581">
        <ele>-9.189004</ele>
        <time>2026-08-29T12:41:27.898Z</time>
      </trkpt>
      <trkpt lat="52.096956" lon="5.120501">
        <ele>-9.449161</ele>
        <time>2026-08-29T12:41:37.890Z</time>
      </trkpt>
      <trkpt lat="52.096874" lon="5.120395">
        <ele>-9.736688</ele>
        <time>2026-08-29T12:41:44.889Z</time>
      </trkpt>
      <trkpt lat="52.096813" lon="5.120266">
        <ele>-10.011297</ele>
        <time>2026-08-29T12:41:50.893Z</time>
      </trkpt>
      <trkpt lat="52.096742" lon="5.120131">
        <ele>-10.311080</ele>
        <time>2026-08-29T12:41:56.892Z</time>
      </trkpt>
      <trkpt lat="52.096674" lon="5.120000">
        <ele>-10.600387</ele>
        <time>2026-08-29T12:42:01.894Z</time>
      </trkpt>
      <trkpt lat="52.096623" lon="5.119849">
        <ele>-10.891067</ele>
        <time>2026-08-29T12:42:07.897Z</time>
      </trkpt>
      <trkpt lat="52.096588" lon="5.119712">
        <ele>-11.141358</ele>
        <time>2026-08-29T12:42:21.897Z</time>
      </trkpt>
      <trkpt lat="52.096590" lon="5.119552">
        <ele>-11.411318</ele>
        <time>2026-08-29T12:42:30.897Z</time>
      </trkpt>
      <trkpt lat="52.096593" lon="5.119399">
        <ele>-11.669545</ele>
        <time>2026-08-29T12:42:38.898Z</time>
      </trkpt>
      <trkpt lat="52.096601" lon="5.119253">
        <ele>-11.916810</ele>
        <time>2026-08-29T12:42:44.893Z</time>
      </trkpt>
      <trkpt lat="52.096601" lon="5.119096">
        <ele>-12.181652</ele>
        <time>2026-08-29T12:42:49.893Z</time>
      </trkpt>
      <trkpt lat="52.096586" lon="5.118950">
        <ele>-12.148390</ele>
        <time>2026-08-29T12:42:53.893Z</time>
      </trkpt>
      <trkpt lat="52.096574" lon="5.118803">
        <ele>-11.855441</ele>
        <time>2026-08-29T12:42:57.898Z</time>
      </trkpt>
      <trkpt lat="52.096567" lon="5.118641">
        <ele>-11.534623</ele>
        <time>2026-08-29T12:43:02.890Z</time>
      </trkpt>
      <trkpt lat="52.096560" lon="5.118493">
        <ele>-11.241386</ele>
        <time>2026-08-29T12:43:07.891Z</time>
      </trkpt>
      <trkpt lat="52.096550" lon="5.118337">
        <ele>-10.931538</ele>
        <time>2026-08-29T12:43:13.890Z</time>
      </trkpt>
      <trkpt lat="52.096554" lon="5.118168">
        <ele>-10.597433</ele>
        <time>2026-08-29T12:43:20.891Z</time>
      </trkpt>
      <trkpt lat="52.096559" lon="5.118006">
        <ele>-10.277002</ele>
        <time>2026-08-29T12:43:27.893Z</time>
      </trkpt>
      <trkpt lat="52.096565" lon="5.117855">
        <ele>-9.978080</ele>
        <time>2026-08-29T12:43:34.898Z</time>
      </trkpt>
      <trkpt lat="52.096581" lon="5.117395">
        <ele>-9.067904</ele>
        <time>2026-08-29T12:43:58.894Z</time>
      </trkpt>
      <trkpt lat="52.096585" lon="5.117235">
        <ele>-8.751565</ele>
        <time>2026-08-29T12:44:03.890Z</time>
      </trkpt>
      <trkpt lat="52.096587" lon="5.117062">
        <ele>-8.409746</ele>
        <time>2026-08-29T12:44:09.895Z</time>
      </trkpt>
      <trkpt lat="52.096580" lon="5.116910">
        <ele>-8.108630</ele>
        <time>2026-08-29T12:44:15.891Z</time>
      </trkpt>
      <trkpt lat="52.096570" lon="5.116751">
        <ele>-7.792887</ele>
        <time>2026-08-29T12:44:22.897Z</time>
      </trkpt>
      <trkpt lat="52.096566" lon="5.116586">
        <ele>-7.466679</ele>
        <time>2026-08-29T12:44:29.898Z</time>
      </trkpt>
      <trkpt lat="52.096557" lon="5.116421">
        <ele>-7.139442</ele>
        <time>2026-08-29T12:44:36.898Z</time>
      </trkpt>
      <trkpt lat="52.096570" lon="5.116256">
        <ele>-6.810818</ele>
        <time>2026-08-29T12:44:43.906Z</time>
      </trkpt>
      <trkpt lat="52.096580" lon="5.116092">
        <ele>-6.474257</ele>
        <time>2026-08-29T12:44:55.898Z</time>
      </trkpt>
      <trkpt lat="52.096629" lon="5.115966">
        <ele>-6.078360</ele>
        <time>2026-08-29T12:45:01.894Z</time>
      </trkpt>
      <trkpt lat="52.096691" lon="5.115850">
        <ele>-5.670161</ele>
        <time>2026-08-29T12:45:07.890Z</time>
      </trkpt>
      <trkpt lat="52.096761" lon="5.115735">
        <ele>-5.240371</ele>
        <time>2026-08-29T12:45:14.892Z</time>
      </trkpt>
      <trkpt lat="52.096838" lon="5.115636">
        <ele>-4.816340</ele>
        <time>2026-08-29T12:45:21.892Z</time>
      </trkpt>
      <trkpt lat="52.096909" lon="5.115540">
        <ele>-4.417471</ele>
        <time>2026-08-29T12:45:28.891Z</time>
      </trkpt>
      <trkpt lat="52.096983" lon="5.115444">
        <ele>-4.008546</ele>
        <time>2026-08-29T12:45:38.899Z</time>
      </trkpt>
      <trkpt lat="52.097132" lon="5.115411">
        <ele>-3.358713</ele>
        <time>2026-08-29T12:48:05.898Z</time>
      </trkpt>
      <trkpt lat="52.097215" lon="5.115334">
        <ele>-2.945869</ele>
        <time>2026-08-29T12:48:13.900Z</time>
      </trkpt>
      <trkpt lat="52.097232" lon="5.115480">
        <ele>-2.551369</ele>
        <time>2026-08-29T12:48:30.901Z</time>
      </trkpt>
      <trkpt lat="52.097171" lon="5.115602">
        <ele>-2.133767</ele>
        <time>2026-08-29T12:48:38.896Z</time>
      </trkpt>
      <trkpt lat="52.097083" lon="5.115681">
        <ele>-1.699478</ele>
        <time>2026-08-29T12:48:47.898Z</time>
      </trkpt>
      <trkpt lat="52.097004" lon="5.115758">
        <ele>-1.301560</ele>
        <time>2026-08-29T12:48:55.902Z</time>
      </trkpt>
      <trkpt lat="52.096918" lon="5.115845">
        <ele>-0.863989</ele>
        <time>2026-08-29T12:49:04.897Z</time>
      </trkpt>
      <trkpt lat="52.096829" lon="5.115926">
        <ele>-0.423344</ele>
        <time>2026-08-29T12:49:12.901Z</time>
      </trkpt>
      <trkpt lat="52.096749" lon="5.116002">
        <ele>-0.023056</ele>
        <time>2026-08-29T12:49:19.901Z</time>
      </trkpt>
      <trkpt lat="52.096673" lon="5.116094">
        <ele>0.386240</ele>
        <time>2026-08-29T12:49:26.897Z</time>
      </trkpt>
      <trkpt lat="52.096586" lon="5.116139">
        <ele>0.780733</ele>
        <time>2026-08-29T12:49:33.900Z</time>
      </trkpt>
      <trkpt lat="52.096499" lon="5.116205">
        <ele>1.195527</ele>
        <time>2026-08-29T12:49:40.909Z</time>
      </trkpt>
      <trkpt lat="52.096406" lon="5.116242">
        <ele>1.457115</ele>
        <time>2026-08-29T12:49:47.900Z</time>
      </trkpt>
      <trkpt lat="52.096313" lon="5.116299">
        <ele>1.701817</ele>
        <time>2026-08-29T12:49:55.897Z</time>
      </trkpt>
      <trkpt lat="52.096225" lon="5.116373">
        <ele>1.945718</ele>
        <time>2026-08-29T12:50:04.900Z</time>
      </trkpt>
      <trkpt lat="52.096138" lon="5.116328">
        <ele>2.170506</ele>
        <time>2026-08-29T12:50:12.898Z</time>
      </trkpt>
      <trkpt lat="52.096059" lon="5.116235">
        <ele>2.410580</ele>
        <time>2026-08-29T12:50:25.900Z</time>
      </trkpt>
      <trkpt lat="52.095976" lon="5.116312">
        <ele>2.645825</ele>
        <time>2026-08-29T12:50:37.899Z</time>
      </trkpt>
      <trkpt lat="52.095889" lon="5.116390">
        <ele>2.890403</ele>
        <time>2026-08-29T12:50:48.895Z</time>
      </trkpt>
      <trkpt lat="52.095795" lon="5.116198">
        <ele>3.261807</ele>
        <time>2026-08-29T12:50:58.897Z</time>
      </trkpt>
      <trkpt lat="52.095700" lon="5.116161">
        <ele>3.502341</ele>
        <time>2026-08-29T12:53:04.893Z</time>
      </trkpt>
      <trkpt lat="52.096005" lon="5.116139">
        <ele>4.254120</ele>
        <time>2026-08-29T12:54:31.897Z</time>
      </trkpt>
      <trkpt lat="52.096097" lon="5.116182">
        <ele>4.489818</ele>
        <time>2026-08-29T12:54:41.897Z</time>
      </trkpt>
      <trkpt lat="52.096209" lon="5.116274">
        <ele>4.798737</ele>
        <time>2026-08-29T12:56:51.896Z</time>
      </trkpt>
      <trkpt lat="52.096314" lon="5.116236">
        <ele>5.063605</ele>
        <time>2026-08-29T12:56:56.900Z</time>
      </trkpt>
      <trkpt lat="52.096423" lon="5.116204">
        <ele>5.336341</ele>
        <time>2026-08-29T12:57:00.903Z</time>
      </trkpt>
      <trkpt lat="52.096518" lon="5.116144">
        <ele>5.587263</ele>
        <time>2026-08-29T12:57:04.891Z</time>
      </trkpt>
      <trkpt lat="52.096609" lon="5.116061">
        <ele>5.526811</ele>
        <time>2026-08-29T12:57:09.903Z</time>
      </trkpt>
      <trkpt lat="52.096678" lon="5.115964">
        <ele>5.304659</ele>
        <time>2026-08-29T12:57:12.893Z</time>
      </trkpt>
      <trkpt lat="52.096760" lon="5.115869">
        <ele>5.059412</ele>
        <time>2026-08-29T12:57:15.903Z</time>
      </trkpt>
      <trkpt lat="52.096845" lon="5.115777">
        <ele>4.810688</ele>
        <time>2026-08-29T12:57:18.891Z</time>
      </trkpt>
      <trkpt lat="52.096935" lon="5.115690">
        <ele>4.555633</ele>
        <time>2026-08-29T12:57:21.893Z</time>
      </trkpt>
      <trkpt lat="52.097020" lon="5.115600">
        <ele>4.308554</ele>
        <time>2026-08-29T12:57:24.892Z</time>
      </trkpt>
      <trkpt lat="52.097103" lon="5.115512">
        <ele>4.067193</ele>
        <time>2026-08-29T12:57:27.892Z</time>
      </trkpt>
      <trkpt lat="52.097197" lon="5.115425">
        <ele>3.803711</ele>
        <time>2026-08-29T12:57:30.892Z</time>
      </trkpt>
      <trkpt lat="52.097283" lon="5.115334">
        <ele>3.553774</ele>
        <time>2026-08-29T12:57:33.894Z</time>
      </trkpt>
      <trkpt lat="52.097382" lon="5.115234">
        <ele>3.269873</ele>
        <time>2026-08-29T12:57:36.903Z</time>
      </trkpt>
      <trkpt lat="52.097479" lon="5.115137">
        <ele>2.992478</ele>
        <time>2026-08-29T12:57:39.891Z</time>
      </trkpt>
      <trkpt lat="52.097583" lon="5.115049">
        <ele>2.706872</ele>
        <time>2026-08-29T12:57:42.895Z</time>
      </trkpt>
      <trkpt lat="52.097686" lon="5.114955">
        <ele>2.419142</ele>
        <time>2026-08-29T12:57:45.903Z</time>
      </trkpt>
      <trkpt lat="52.097783" lon="5.114862">
        <ele>2.144834</ele>
        <time>2026-08-29T12:57:48.891Z</time>
      </trkpt>
      <trkpt lat="52.097880" lon="5.114764">
        <ele>1.866654</ele>
        <time>2026-08-29T12:57:51.891Z</time>
      </trkpt>
      <trkpt lat="52.097978" lon="5.114667">
        <ele>1.587181</ele>
        <time>2026-08-29T12:57:54.891Z</time>
      </trkpt>
      <trkpt lat="52.098059" lon="5.114582">
        <ele>1.352353</ele>
        <time>2026-08-29T12:57:57.892Z</time>
      </trkpt>
      <trkpt lat="52.098151" lon="5.114500">
        <ele>1.327939</ele>
        <time>2026-08-29T12:58:00.903Z</time>
      </trkpt>
      <trkpt lat="52.098240" lon="5.114406">
        <ele>1.360727</ele>
        <time>2026-08-29T12:58:03.903Z</time>
      </trkpt>
      <trkpt lat="52.098330" lon="5.114322">
        <ele>1.392789</ele>
        <time>2026-08-29T12:58:06.892Z</time>
      </trkpt>
      <trkpt lat="52.098418" lon="5.114230">
        <ele>1.425111</ele>
        <time>2026-08-29T12:58:09.903Z</time>
      </trkpt>
      <trkpt lat="52.098506" lon="5.114144">
        <ele>1.456832</ele>
        <time>2026-08-29T12:58:12.890Z</time>
      </trkpt>
      <trkpt lat="52.098595" lon="5.114055">
        <ele>1.489112</ele>
        <time>2026-08-29T12:58:16.895Z</time>
      </trkpt>
      <trkpt lat="52.098680" lon="5.113977">
        <ele>1.519268</ele>
        <time>2026-08-29T12:58:21.903Z</time>
      </trkpt>
      <trkpt lat="52.098575" lon="5.114010">
        <ele>1.552317</ele>
        <time>2026-08-29T12:58:36.892Z</time>
      </trkpt>
      <trkpt lat="52.098740" lon="5.113908">
        <ele>1.606864</ele>
        <time>2026-08-29T12:59:21.894Z</time>
      </trkpt>
      <trkpt lat="52.098833" lon="5.113830">
        <ele>1.639196</ele>
        <time>2026-08-29T12:59:24.895Z</time>
      </trkpt>
      <trkpt lat="52.098944" lon="5.113729">
        <ele>1.678496</ele>
        <time>2026-08-29T12:59:27.893Z</time>
      </trkpt>
      <trkpt lat="52.099063" lon="5.113633">
        <ele>1.719541</ele>
        <time>2026-08-29T12:59:30.893Z</time>
      </trkpt>
      <trkpt lat="52.099179" lon="5.113541">
        <ele>1.759419</ele>
        <time>2026-08-29T12:59:33.893Z</time>
      </trkpt>
      <trkpt lat="52.099300" lon="5.113447">
        <ele>1.800854</ele>
        <time>2026-08-29T12:59:36.893Z</time>
      </trkpt>
      <trkpt lat="52.099424" lon="5.113355">
        <ele>1.842968</ele>
        <time>2026-08-29T12:59:39.908Z</time>
      </trkpt>
      <trkpt lat="52.099506" lon="5.113292">
        <ele>1.899243</ele>
        <time>2026-08-29T12:59:41.897Z</time>
      </trkpt>
      <trkpt lat="52.099625" lon="5.113211">
        <ele>2.024414</ele>
        <time>2026-08-29T12:59:44.907Z</time>
      </trkpt>
      <trkpt lat="52.099742" lon="5.113140">
        <ele>2.145589</ele>
        <time>2026-08-29T12:59:47.898Z</time>
      </trkpt>
      <trkpt lat="52.099866" lon="5.113069">
        <ele>2.273150</ele>
        <time>2026-08-29T12:59:50.906Z</time>
      </trkpt>
      <trkpt lat="52.099973" lon="5.113022">
        <ele>2.380701</ele>
        <time>2026-08-29T12:59:53.906Z</time>
      </trkpt>
      <trkpt lat="52.100077" lon="5.112976">
        <ele>2.485286</ele>
        <time>2026-08-29T12:59:58.894Z</time>
      </trkpt>
      <trkpt lat="52.100178" lon="5.112863">
        <ele>2.604217</ele>
        <time>2026-08-29T13:00:02.894Z</time>
      </trkpt>
      <trkpt lat="52.100269" lon="5.112759">
        <ele>2.712116</ele>
        <time>2026-08-29T13:00:05.895Z</time>
      </trkpt>
      <trkpt lat="52.100351" lon="5.112672">
        <ele>2.807101</ele>
        <time>2026-08-29T13:00:08.893Z</time>
      </trkpt>
      <trkpt lat="52.100441" lon="5.112565">
        <ele>2.915253</ele>
        <time>2026-08-29T13:00:11.894Z</time>
      </trkpt>
      <trkpt lat="52.100551" lon="5.112483">
        <ele>3.032661</ele>
        <time>2026-08-29T13:00:14.907Z</time>
      </trkpt>
      <trkpt lat="52.100666" lon="5.112451">
        <ele>3.145881</ele>
        <time>2026-08-29T13:00:17.906Z</time>
      </trkpt>
      <trkpt lat="52.100773" lon="5.112442">
        <ele>3.249857</ele>
        <time>2026-08-29T13:00:20.894Z</time>
      </trkpt>
      <trkpt lat="52.100990" lon="5.112409">
        <ele>3.461360</ele>
        <time>2026-08-29T13:00:38.906Z</time>
      </trkpt>
      <trkpt lat="52.101107" lon="5.112399">
        <ele>3.575058</ele>
        <time>2026-08-29T13:00:41.894Z</time>
      </trkpt>
      <trkpt lat="52.101234" lon="5.112373">
        <ele>3.554199</ele>
        <time>2026-08-29T13:00:44.894Z</time>
      </trkpt>
      <trkpt lat="52.101364" lon="5.112351">
        <ele>3.489370</ele>
        <time>2026-08-29T13:00:47.894Z</time>
      </trkpt>
      <trkpt lat="52.101456" lon="5.112345">
        <ele>3.443700</ele>
        <time>2026-08-29T13:00:49.894Z</time>
      </trkpt>
      <trkpt lat="52.101588" lon="5.112355">
        <ele>3.378156</ele>
        <time>2026-08-29T13:00:52.895Z</time>
      </trkpt>
      <trkpt lat="52.101711" lon="5.112335">
        <ele>3.316843</ele>
        <time>2026-08-29T13:00:55.894Z</time>
      </trkpt>
      <trkpt lat="52.101827" lon="5.112320">
        <ele>3.259124</ele>
        <time>2026-08-29T13:00:58.893Z</time>
      </trkpt>
      <trkpt lat="52.101949" lon="5.112296">
        <ele>3.198171</ele>
        <time>2026-08-29T13:01:01.895Z</time>
      </trkpt>
      <trkpt lat="52.102068" lon="5.112267">
        <ele>3.138487</ele>
        <time>2026-08-29T13:01:04.894Z</time>
      </trkpt>
      <trkpt lat="52.102182" lon="5.112236">
        <ele>3.081159</ele>
        <time>2026-08-29T13:01:07.907Z</time>
      </trkpt>
      <trkpt lat="52.102296" lon="5.112198">
        <ele>3.023440</ele>
        <time>2026-08-29T13:01:10.906Z</time>
      </trkpt>
      <trkpt lat="52.102407" lon="5.112162">
        <ele>2.967301</ele>
        <time>2026-08-29T13:01:13.892Z</time>
      </trkpt>
      <trkpt lat="52.102523" lon="5.112081">
        <ele>2.904694</ele>
        <time>2026-08-29T13:01:16.907Z</time>
      </trkpt>
      <trkpt lat="52.102644" lon="5.112007">
        <ele>2.840582</ele>
        <time>2026-08-29T13:01:19.895Z</time>
      </trkpt>
      <trkpt lat="52.102753" lon="5.111940">
        <ele>2.782791</ele>
        <time>2026-08-29T13:01:22.894Z</time>
      </trkpt>
      <trkpt lat="52.102864" lon="5.111864">
        <ele>2.723063</ele>
        <time>2026-08-29T13:01:25.896Z</time>
      </trkpt>
      <trkpt lat="52.102981" lon="5.111790">
        <ele>2.703725</ele>
        <time>2026-08-29T13:01:28.895Z</time>
      </trkpt>
      <trkpt lat="52.103098" lon="5.111713">
        <ele>2.694524</ele>
        <time>2026-08-29T13:01:31.897Z</time>
      </trkpt>
      <trkpt lat="52.103220" lon="5.111646">
        <ele>2.685137</ele>
        <time>2026-08-29T13:01:34.896Z</time>
      </trkpt>
      <trkpt lat="52.103340" lon="5.111590">
        <ele>2.676037</ele>
        <time>2026-08-29T13:01:37.900Z</time>
      </trkpt>
      <trkpt lat="52.103459" lon="5.111522">
        <ele>2.666842</ele>
        <time>2026-08-29T13:01:40.893Z</time>
      </trkpt>
      <trkpt lat="52.103583" lon="5.111445">
        <ele>2.657166</ele>
        <time>2026-08-29T13:01:43.894Z</time>
      </trkpt>
      <trkpt lat="52.103706" lon="5.111357">
        <ele>2.647371</ele>
        <time>2026-08-29T13:01:46.893Z</time>
      </trkpt>
      <trkpt lat="52.103822" lon="5.111252">
        <ele>2.637695</ele>
        <time>2026-08-29T13:01:49.894Z</time>
      </trkpt>
      <trkpt lat="52.103907" lon="5.111181">
        <ele>2.630730</ele>
        <time>2026-08-29T13:01:51.893Z</time>
      </trkpt>
      <trkpt lat="52.103990" lon="5.111108">
        <ele>2.623852</ele>
        <time>2026-08-29T13:01:53.907Z</time>
      </trkpt>
      <trkpt lat="52.104069" lon="5.111036">
        <ele>2.617252</ele>
        <time>2026-08-29T13:01:55.894Z</time>
      </trkpt>
      <trkpt lat="52.104185" lon="5.110928">
        <ele>2.607509</ele>
        <time>2026-08-29T13:01:58.894Z</time>
      </trkpt>
      <trkpt lat="52.104262" lon="5.110848">
        <ele>2.600850</ele>
        <time>2026-08-29T13:02:00.909Z</time>
      </trkpt>
      <trkpt lat="52.104372" lon="5.110727">
        <ele>2.591172</ele>
        <time>2026-08-29T13:02:03.891Z</time>
      </trkpt>
      <trkpt lat="52.104444" lon="5.110636">
        <ele>2.584526</ele>
        <time>2026-08-29T13:02:05.892Z</time>
      </trkpt>
      <trkpt lat="52.104518" lon="5.110544">
        <ele>2.574764</ele>
        <time>2026-08-29T13:02:07.898Z</time>
      </trkpt>
      <trkpt lat="52.104588" lon="5.110443">
        <ele>2.558938</ele>
        <time>2026-08-29T13:02:09.892Z</time>
      </trkpt>
      <trkpt lat="52.104670" lon="5.110280">
        <ele>2.537040</ele>
        <time>2026-08-29T13:02:12.892Z</time>
      </trkpt>
      <trkpt lat="52.104747" lon="5.110117">
        <ele>2.515669</ele>
        <time>2026-08-29T13:02:15.898Z</time>
      </trkpt>
      <trkpt lat="52.104825" lon="5.109986">
        <ele>2.496707</ele>
        <time>2026-08-29T13:02:18.898Z</time>
      </trkpt>
      <trkpt lat="52.104896" lon="5.109867">
        <ele>2.479465</ele>
        <time>2026-08-29T13:02:21.898Z</time>
      </trkpt>
      <trkpt lat="52.104988" lon="5.109712">
        <ele>2.457064</ele>
        <time>2026-08-29T13:02:24.898Z</time>
      </trkpt>
      <trkpt lat="52.105068" lon="5.109536">
        <ele>2.434308</ele>
        <time>2026-08-29T13:02:27.898Z</time>
      </trkpt>
      <trkpt lat="52.105138" lon="5.109372">
        <ele>2.413553</ele>
        <time>2026-08-29T13:02:30.898Z</time>
      </trkpt>
      <trkpt lat="52.105214" lon="5.109196">
        <ele>2.391193</ele>
        <time>2026-08-29T13:02:33.894Z</time>
      </trkpt>
      <trkpt lat="52.105296" lon="5.109043">
        <ele>2.370090</ele>
        <time>2026-08-29T13:02:36.893Z</time>
      </trkpt>
      <trkpt lat="52.105401" lon="5.108943">
        <ele>2.349507</ele>
        <time>2026-08-29T13:02:39.900Z</time>
      </trkpt>
      <trkpt lat="52.105524" lon="5.108878">
        <ele>2.327626</ele>
        <time>2026-08-29T13:02:42.892Z</time>
      </trkpt>
      <trkpt lat="52.105647" lon="5.108810">
        <ele>2.305646</ele>
        <time>2026-08-29T13:02:45.898Z</time>
      </trkpt>
      <trkpt lat="52.105771" lon="5.108744">
        <ele>2.283572</ele>
        <time>2026-08-29T13:02:48.892Z</time>
      </trkpt>
      <trkpt lat="52.105899" lon="5.108689">
        <ele>2.289658</ele>
        <time>2026-08-29T13:02:51.893Z</time>
      </trkpt>
      <trkpt lat="52.105987" lon="5.108657">
        <ele>2.304420</ele>
        <time>2026-08-29T13:02:53.894Z</time>
      </trkpt>
      <trkpt lat="52.106078" lon="5.108617">
        <ele>2.319853</ele>
        <time>2026-08-29T13:02:55.907Z</time>
      </trkpt>
      <trkpt lat="52.106170" lon="5.108576">
        <ele>2.335469</ele>
        <time>2026-08-29T13:02:57.907Z</time>
      </trkpt>
      <trkpt lat="52.106293" lon="5.108521">
        <ele>2.356353</ele>
        <time>2026-08-29T13:03:00.893Z</time>
      </trkpt>
      <trkpt lat="52.106416" lon="5.108472">
        <ele>2.377085</ele>
        <time>2026-08-29T13:03:03.893Z</time>
      </trkpt>
      <trkpt lat="52.106530" lon="5.108418">
        <ele>2.396524</ele>
        <time>2026-08-29T13:03:06.899Z</time>
      </trkpt>
      <trkpt lat="52.106636" lon="5.108349">
        <ele>2.415214</ele>
        <time>2026-08-29T13:03:10.893Z</time>
      </trkpt>
      <trkpt lat="52.106707" lon="5.108189">
        <ele>2.435063</ele>
        <time>2026-08-29T13:03:15.894Z</time>
      </trkpt>
      <trkpt lat="52.106670" lon="5.108010">
        <ele>2.454055</ele>
        <time>2026-08-29T13:03:18.906Z</time>
      </trkpt>
      <trkpt lat="52.106619" lon="5.107862">
        <ele>2.471120</ele>
        <time>2026-08-29T13:03:21.894Z</time>
      </trkpt>
      <trkpt lat="52.106573" lon="5.107706">
        <ele>2.488521</ele>
        <time>2026-08-29T13:03:24.893Z</time>
      </trkpt>
      <trkpt lat="52.106546" lon="5.107537">
        <ele>2.506081</ele>
        <time>2026-08-29T13:03:27.892Z</time>
      </trkpt>
      <trkpt lat="52.106625" lon="5.107436">
        <ele>2.522526</ele>
        <time>2026-08-29T13:03:30.893Z</time>
      </trkpt>
      <trkpt lat="52.106745" lon="5.107349">
        <ele>2.544033</ele>
        <time>2026-08-29T13:03:33.893Z</time>
      </trkpt>
      <trkpt lat="52.106825" lon="5.107277">
        <ele>2.558999</ele>
        <time>2026-08-29T13:03:35.894Z</time>
      </trkpt>
      <trkpt lat="52.106909" lon="5.107213">
        <ele>2.559747</ele>
        <time>2026-08-29T13:03:37.892Z</time>
      </trkpt>
      <trkpt lat="52.106989" lon="5.107145">
        <ele>2.521892</ele>
        <time>2026-08-29T13:03:39.894Z</time>
      </trkpt>
      <trkpt lat="52.107071" lon="5.107080">
        <ele>2.483635</ele>
        <time>2026-08-29T13:03:41.907Z</time>
      </trkpt>
      <trkpt lat="52.107155" lon="5.107010">
        <ele>2.444053</ele>
        <time>2026-08-29T13:03:43.894Z</time>
      </trkpt>
      <trkpt lat="52.107240" lon="5.106946">
        <ele>2.404770</ele>
        <time>2026-08-29T13:03:45.894Z</time>
      </trkpt>
      <trkpt lat="52.107326" lon="5.106882">
        <ele>2.365106</ele>
        <time>2026-08-29T13:03:47.894Z</time>
      </trkpt>
      <trkpt lat="52.107415" lon="5.106818">
        <ele>2.324295</ele>
        <time>2026-08-29T13:03:49.906Z</time>
      </trkpt>
      <trkpt lat="52.107504" lon="5.106753">
        <ele>2.283378</ele>
        <time>2026-08-29T13:03:51.894Z</time>
      </trkpt>
      <trkpt lat="52.107600" lon="5.106695">
        <ele>2.240426</ele>
        <time>2026-08-29T13:03:53.893Z</time>
      </trkpt>
      <trkpt lat="52.107700" lon="5.106644">
        <ele>2.196470</ele>
        <time>2026-08-29T13:03:55.907Z</time>
      </trkpt>
      <trkpt lat="52.107801" lon="5.106593">
        <ele>2.152113</ele>
        <time>2026-08-29T13:03:57.893Z</time>
      </trkpt>
      <trkpt lat="52.107896" lon="5.106538">
        <ele>2.109819</ele>
        <time>2026-08-29T13:03:59.892Z</time>
      </trkpt>
      <trkpt lat="52.107987" lon="5.106490">
        <ele>2.069694</ele>
        <time>2026-08-29T13:04:01.896Z</time>
      </trkpt>
      <trkpt lat="52.108077" lon="5.106453">
        <ele>2.030757</ele>
        <time>2026-08-29T13:04:03.893Z</time>
      </trkpt>
      <trkpt lat="52.108171" lon="5.106397">
        <ele>1.988770</ele>
        <time>2026-08-29T13:04:05.900Z</time>
      </trkpt>
      <trkpt lat="52.108259" lon="5.106336">
        <ele>1.948651</ele>
        <time>2026-08-29T13:04:07.895Z</time>
      </trkpt>
      <trkpt lat="52.108340" lon="5.106270">
        <ele>1.910657</ele>
        <time>2026-08-29T13:04:09.891Z</time>
      </trkpt>
      <trkpt lat="52.108456" lon="5.106181">
        <ele>1.856867</ele>
        <time>2026-08-29T13:04:12.894Z</time>
      </trkpt>
      <trkpt lat="52.108586" lon="5.106146">
        <ele>1.820018</ele>
        <time>2026-08-29T13:04:15.893Z</time>
      </trkpt>
      <trkpt lat="52.108686" lon="5.105990">
        <ele>1.838044</ele>
        <time>2026-08-29T13:04:18.893Z</time>
      </trkpt>
      <trkpt lat="52.108763" lon="5.105886">
        <ele>1.851065</ele>
        <time>2026-08-29T13:04:20.892Z</time>
      </trkpt>
      <trkpt lat="52.108839" lon="5.105786">
        <ele>1.863784</ele>
        <time>2026-08-29T13:04:22.892Z</time>
      </trkpt>
      <trkpt lat="52.108912" lon="5.105672">
        <ele>1.876949</ele>
        <time>2026-08-29T13:04:24.906Z</time>
      </trkpt>
      <trkpt lat="52.108981" lon="5.105556">
        <ele>1.889858</ele>
        <time>2026-08-29T13:04:26.893Z</time>
      </trkpt>
      <trkpt lat="52.109052" lon="5.105444">
        <ele>1.902725</ele>
        <time>2026-08-29T13:04:28.893Z</time>
      </trkpt>
      <trkpt lat="52.109121" lon="5.105332">
        <ele>1.915406</ele>
        <time>2026-08-29T13:04:30.893Z</time>
      </trkpt>
      <trkpt lat="52.109192" lon="5.105216">
        <ele>1.928497</ele>
        <time>2026-08-29T13:04:32.907Z</time>
      </trkpt>
      <trkpt lat="52.109266" lon="5.105093">
        <ele>1.942261</ele>
        <time>2026-08-29T13:04:34.894Z</time>
      </trkpt>
      <trkpt lat="52.109347" lon="5.104992">
        <ele>1.955540</ele>
        <time>2026-08-29T13:04:36.896Z</time>
      </trkpt>
      <trkpt lat="52.109436" lon="5.104892">
        <ele>1.969615</ele>
        <time>2026-08-29T13:04:38.895Z</time>
      </trkpt>
      <trkpt lat="52.109516" lon="5.104761">
        <ele>1.984382</ele>
        <time>2026-08-29T13:04:40.894Z</time>
      </trkpt>
      <trkpt lat="52.109599" lon="5.104636">
        <ele>1.999098</ele>
        <time>2026-08-29T13:04:42.895Z</time>
      </trkpt>
      <trkpt lat="52.109684" lon="5.104512">
        <ele>2.013952</ele>
        <time>2026-08-29T13:04:44.896Z</time>
      </trkpt>
      <trkpt lat="52.109770" lon="5.104391">
        <ele>2.028746</ele>
        <time>2026-08-29T13:04:46.893Z</time>
      </trkpt>
      <trkpt lat="52.109860" lon="5.104271">
        <ele>2.043886</ele>
        <time>2026-08-29T13:04:48.894Z</time>
      </trkpt>
      <trkpt lat="52.109941" lon="5.104151">
        <ele>2.065842</ele>
        <time>2026-08-29T13:04:50.894Z</time>
      </trkpt>
      <trkpt lat="52.110024" lon="5.104035">
        <ele>2.093168</ele>
        <time>2026-08-29T13:04:52.906Z</time>
      </trkpt>
      <trkpt lat="52.110107" lon="5.103912">
        <ele>2.121206</ele>
        <time>2026-08-29T13:04:54.897Z</time>
      </trkpt>
      <trkpt lat="52.110191" lon="5.103776">
        <ele>2.150800</ele>
        <time>2026-08-29T13:04:56.895Z</time>
      </trkpt>
      <trkpt lat="52.110273" lon="5.103644">
        <ele>2.179608</ele>
        <time>2026-08-29T13:04:58.906Z</time>
      </trkpt>
      <trkpt lat="52.110355" lon="5.103520">
        <ele>2.207565</ele>
        <time>2026-08-29T13:05:00.906Z</time>
      </trkpt>
      <trkpt lat="52.110438" lon="5.103395">
        <ele>2.235811</ele>
        <time>2026-08-29T13:05:02.906Z</time>
      </trkpt>
      <trkpt lat="52.110521" lon="5.103263">
        <ele>2.264796</ele>
        <time>2026-08-29T13:05:04.895Z</time>
      </trkpt>
      <trkpt lat="52.110601" lon="5.103136">
        <ele>2.292709</ele>
        <time>2026-08-29T13:05:06.895Z</time>
      </trkpt>
      <trkpt lat="52.110687" lon="5.103013">
        <ele>2.321306</ele>
        <time>2026-08-29T13:05:08.896Z</time>
      </trkpt>
      <trkpt lat="52.110764" lon="5.102886">
        <ele>2.348687</ele>
        <time>2026-08-29T13:05:10.896Z</time>
      </trkpt>
      <trkpt lat="52.110841" lon="5.102757">
        <ele>2.376288</ele>
        <time>2026-08-29T13:05:12.894Z</time>
      </trkpt>
      <trkpt lat="52.110918" lon="5.102622">
        <ele>2.404556</ele>
        <time>2026-08-29T13:05:14.906Z</time>
      </trkpt>
      <trkpt lat="52.110995" lon="5.102489">
        <ele>2.432600</ele>
        <time>2026-08-29T13:05:16.894Z</time>
      </trkpt>
      <trkpt lat="52.111074" lon="5.102371">
        <ele>2.459382</ele>
        <time>2026-08-29T13:05:18.894Z</time>
      </trkpt>
      <trkpt lat="52.111154" lon="5.102243">
        <ele>2.487402</ele>
        <time>2026-08-29T13:05:20.892Z</time>
      </trkpt>
      <trkpt lat="52.111245" lon="5.102126">
        <ele>2.503338</ele>
        <time>2026-08-29T13:05:22.892Z</time>
      </trkpt>
      <trkpt lat="52.111332" lon="5.101994">
        <ele>2.510607</ele>
        <time>2026-08-29T13:05:24.899Z</time>
      </trkpt>
      <trkpt lat="52.111413" lon="5.101863">
        <ele>2.517586</ele>
        <time>2026-08-29T13:05:26.893Z</time>
      </trkpt>
      <trkpt lat="52.111498" lon="5.101759">
        <ele>2.524086</ele>
        <time>2026-08-29T13:05:28.896Z</time>
      </trkpt>
      <trkpt lat="52.111588" lon="5.101655">
        <ele>2.530832</ele>
        <time>2026-08-29T13:05:30.907Z</time>
      </trkpt>
      <trkpt lat="52.111671" lon="5.101547">
        <ele>2.537327</ele>
        <time>2026-08-29T13:05:32.891Z</time>
      </trkpt>
      <trkpt lat="52.111754" lon="5.101433">
        <ele>2.543965</ele>
        <time>2026-08-29T13:05:34.894Z</time>
      </trkpt>
      <trkpt lat="52.111842" lon="5.101308">
        <ele>2.551103</ele>
        <time>2026-08-29T13:05:36.907Z</time>
      </trkpt>
      <trkpt lat="52.111928" lon="5.101181">
        <ele>2.558201</ele>
        <time>2026-08-29T13:05:38.894Z</time>
      </trkpt>
      <trkpt lat="52.112016" lon="5.101059">
        <ele>2.565266</ele>
        <time>2026-08-29T13:05:40.895Z</time>
      </trkpt>
      <trkpt lat="52.112103" lon="5.100944">
        <ele>2.572116</ele>
        <time>2026-08-29T13:05:42.894Z</time>
      </trkpt>
      <trkpt lat="52.112189" lon="5.100827">
        <ele>2.578967</ele>
        <time>2026-08-29T13:05:44.892Z</time>
      </trkpt>
      <trkpt lat="52.112279" lon="5.100710">
        <ele>2.586007</ele>
        <time>2026-08-29T13:05:46.892Z</time>
      </trkpt>
      <trkpt lat="52.112368" lon="5.100586">
        <ele>2.593167</ele>
        <time>2026-08-29T13:05:48.892Z</time>
      </trkpt>
      <trkpt lat="52.112457" lon="5.100465">
        <ele>2.600255</ele>
        <time>2026-08-29T13:05:50.894Z</time>
      </trkpt>
      <trkpt lat="52.112548" lon="5.100342">
        <ele>2.607484</ele>
        <time>2026-08-29T13:05:52.893Z</time>
      </trkpt>
      <trkpt lat="52.112638" lon="5.100223">
        <ele>2.578778</ele>
        <time>2026-08-29T13:05:54.906Z</time>
      </trkpt>
      <trkpt lat="52.112729" lon="5.100100">
        <ele>2.538980</ele>
        <time>2026-08-29T13:05:56.895Z</time>
      </trkpt>
      <trkpt lat="52.112814" lon="5.099971">
        <ele>2.499880</ele>
        <time>2026-08-29T13:05:58.906Z</time>
      </trkpt>
      <trkpt lat="52.112898" lon="5.099851">
        <ele>2.462277</ele>
        <time>2026-08-29T13:06:00.894Z</time>
      </trkpt>
      <trkpt lat="52.112983" lon="5.099739">
        <ele>2.425482</ele>
        <time>2026-08-29T13:06:02.892Z</time>
      </trkpt>
      <trkpt lat="52.113068" lon="5.099622">
        <ele>2.388028</ele>
        <time>2026-08-29T13:06:04.894Z</time>
      </trkpt>
      <trkpt lat="52.113151" lon="5.099501">
        <ele>2.350540</ele>
        <time>2026-08-29T13:06:06.893Z</time>
      </trkpt>
      <trkpt lat="52.113234" lon="5.099393">
        <ele>2.314788</ele>
        <time>2026-08-29T13:06:08.906Z</time>
      </trkpt>
      <trkpt lat="52.113329" lon="5.099322">
        <ele>2.279613</ele>
        <time>2026-08-29T13:06:10.893Z</time>
      </trkpt>
      <trkpt lat="52.113415" lon="5.099226">
        <ele>2.244526</ele>
        <time>2026-08-29T13:06:12.893Z</time>
      </trkpt>
      <trkpt lat="52.113451" lon="5.099060">
        <ele>2.208145</ele>
        <time>2026-08-29T13:06:14.894Z</time>
      </trkpt>
      <trkpt lat="52.113518" lon="5.098916">
        <ele>2.170811</ele>
        <time>2026-08-29T13:06:16.893Z</time>
      </trkpt>
      <trkpt lat="52.113605" lon="5.098797">
        <ele>2.132576</ele>
        <time>2026-08-29T13:06:18.906Z</time>
      </trkpt>
      <trkpt lat="52.113684" lon="5.098670">
        <ele>2.095220</ele>
        <time>2026-08-29T13:06:20.895Z</time>
      </trkpt>
      <trkpt lat="52.113759" lon="5.098540">
        <ele>2.058360</ele>
        <time>2026-08-29T13:06:22.893Z</time>
      </trkpt>
      <trkpt lat="52.113837" lon="5.098407">
        <ele>2.020355</ele>
        <time>2026-08-29T13:06:24.896Z</time>
      </trkpt>
      <trkpt lat="52.113917" lon="5.098276">
        <ele>1.995326</ele>
        <time>2026-08-29T13:06:26.894Z</time>
      </trkpt>
      <trkpt lat="52.114002" lon="5.098160">
        <ele>1.980696</ele>
        <time>2026-08-29T13:06:28.895Z</time>
      </trkpt>
      <trkpt lat="52.114089" lon="5.098036">
        <ele>1.965444</ele>
        <time>2026-08-29T13:06:30.895Z</time>
      </trkpt>
      <trkpt lat="52.114174" lon="5.097912">
        <ele>1.950389</ele>
        <time>2026-08-29T13:06:32.894Z</time>
      </trkpt>
      <trkpt lat="52.114264" lon="5.097782">
        <ele>1.934519</ele>
        <time>2026-08-29T13:06:34.896Z</time>
      </trkpt>
      <trkpt lat="52.114347" lon="5.097641">
        <ele>1.918697</ele>
        <time>2026-08-29T13:06:36.894Z</time>
      </trkpt>
      <trkpt lat="52.114431" lon="5.097504">
        <ele>1.903014</ele>
        <time>2026-08-29T13:06:38.907Z</time>
      </trkpt>
      <trkpt lat="52.114524" lon="5.097384">
        <ele>1.887361</ele>
        <time>2026-08-29T13:06:40.893Z</time>
      </trkpt>
      <trkpt lat="52.114622" lon="5.097263">
        <ele>1.871137</ele>
        <time>2026-08-29T13:06:42.895Z</time>
      </trkpt>
      <trkpt lat="52.114718" lon="5.097139">
        <ele>1.854973</ele>
        <time>2026-08-29T13:06:44.893Z</time>
      </trkpt>
      <trkpt lat="52.114813" lon="5.097004">
        <ele>1.838340</ele>
        <time>2026-08-29T13:06:46.894Z</time>
      </trkpt>
      <trkpt lat="52.114908" lon="5.096871">
        <ele>1.821813</ele>
        <time>2026-08-29T13:06:48.893Z</time>
      </trkpt>
      <trkpt lat="52.115003" lon="5.096736">
        <ele>1.805181</ele>
        <time>2026-08-29T13:06:50.893Z</time>
      </trkpt>
      <trkpt lat="52.115098" lon="5.096604">
        <ele>1.788707</ele>
        <time>2026-08-29T13:06:52.906Z</time>
      </trkpt>
      <trkpt lat="52.115193" lon="5.096473">
        <ele>1.772285</ele>
        <time>2026-08-29T13:06:54.892Z</time>
      </trkpt>
      <trkpt lat="52.115289" lon="5.096343">
        <ele>1.788831</ele>
        <time>2026-08-29T13:06:56.895Z</time>
      </trkpt>
      <trkpt lat="52.115384" lon="5.096209">
        <ele>1.823327</ele>
        <time>2026-08-29T13:06:58.906Z</time>
      </trkpt>
      <trkpt lat="52.115478" lon="5.096074">
        <ele>1.857727</ele>
        <time>2026-08-29T13:07:00.893Z</time>
      </trkpt>
      <trkpt lat="52.115575" lon="5.095941">
        <ele>1.892531</ele>
        <time>2026-08-29T13:07:02.895Z</time>
      </trkpt>
      <trkpt lat="52.115674" lon="5.095811">
        <ele>1.927437</ele>
        <time>2026-08-29T13:07:04.892Z</time>
      </trkpt>
      <trkpt lat="52.115780" lon="5.095688">
        <ele>1.963161</ele>
        <time>2026-08-29T13:07:06.906Z</time>
      </trkpt>
      <trkpt lat="52.115889" lon="5.095581">
        <ele>1.998093</ele>
        <time>2026-08-29T13:07:08.892Z</time>
      </trkpt>
      <trkpt lat="52.115998" lon="5.095480">
        <ele>2.032514</ele>
        <time>2026-08-29T13:07:10.895Z</time>
      </trkpt>
      <trkpt lat="52.116108" lon="5.095388">
        <ele>2.066455</ele>
        <time>2026-08-29T13:07:12.893Z</time>
      </trkpt>
      <trkpt lat="52.116218" lon="5.095297">
        <ele>2.100319</ele>
        <time>2026-08-29T13:07:14.893Z</time>
      </trkpt>
      <trkpt lat="52.116328" lon="5.095205">
        <ele>2.134260</ele>
        <time>2026-08-29T13:07:16.892Z</time>
      </trkpt>
      <trkpt lat="52.116438" lon="5.095116">
        <ele>2.167972</ele>
        <time>2026-08-29T13:07:18.906Z</time>
      </trkpt>
      <trkpt lat="52.116549" lon="5.095035">
        <ele>2.201357</ele>
        <time>2026-08-29T13:07:20.891Z</time>
      </trkpt>
      <trkpt lat="52.116658" lon="5.094956">
        <ele>2.234104</ele>
        <time>2026-08-29T13:07:22.895Z</time>
      </trkpt>
      <trkpt lat="52.116769" lon="5.094884">
        <ele>2.254525</ele>
        <time>2026-08-29T13:07:24.908Z</time>
      </trkpt>
      <trkpt lat="52.116881" lon="5.094803">
        <ele>2.225974</ele>
        <time>2026-08-29T13:07:26.892Z</time>
      </trkpt>
      <trkpt lat="52.116999" lon="5.094729">
        <ele>2.196515</ele>
        <time>2026-08-29T13:07:28.892Z</time>
      </trkpt>
      <trkpt lat="52.117116" lon="5.094651">
        <ele>2.167062</ele>
        <time>2026-08-29T13:07:30.907Z</time>
      </trkpt>
      <trkpt lat="52.117224" lon="5.094566">
        <ele>2.139116</ele>
        <time>2026-08-29T13:07:32.891Z</time>
      </trkpt>
      <trkpt lat="52.117325" lon="5.094484">
        <ele>2.112824</ele>
        <time>2026-08-29T13:07:34.892Z</time>
      </trkpt>
      <trkpt lat="52.117429" lon="5.094405">
        <ele>2.086088</ele>
        <time>2026-08-29T13:07:36.892Z</time>
      </trkpt>
      <trkpt lat="52.117534" lon="5.094306">
        <ele>2.057822</ele>
        <time>2026-08-29T13:07:38.892Z</time>
      </trkpt>
      <trkpt lat="52.117636" lon="5.094196">
        <ele>2.029321</ele>
        <time>2026-08-29T13:07:40.907Z</time>
      </trkpt>
      <trkpt lat="52.117729" lon="5.094075">
        <ele>2.001589</ele>
        <time>2026-08-29T13:07:42.892Z</time>
      </trkpt>
      <trkpt lat="52.117817" lon="5.093944">
        <ele>1.973812</ele>
        <time>2026-08-29T13:07:44.906Z</time>
      </trkpt>
      <trkpt lat="52.117891" lon="5.093796">
        <ele>1.946509</ele>
        <time>2026-08-29T13:07:46.907Z</time>
      </trkpt>
      <trkpt lat="52.117954" lon="5.093648">
        <ele>1.920747</ele>
        <time>2026-08-29T13:07:48.894Z</time>
      </trkpt>
      <trkpt lat="52.118012" lon="5.093486">
        <ele>1.893920</ele>
        <time>2026-08-29T13:07:50.893Z</time>
      </trkpt>
      <trkpt lat="52.118076" lon="5.093328">
        <ele>1.866842</ele>
        <time>2026-08-29T13:07:52.892Z</time>
      </trkpt>
      <trkpt lat="52.118138" lon="5.093168">
        <ele>1.839843</ele>
        <time>2026-08-29T13:07:54.892Z</time>
      </trkpt>
      <trkpt lat="52.118193" lon="5.093002">
        <ele>1.814138</ele>
        <time>2026-08-29T13:07:56.898Z</time>
      </trkpt>
      <trkpt lat="52.118239" lon="5.092831">
        <ele>1.788697</ele>
        <time>2026-08-29T13:07:58.898Z</time>
      </trkpt>
      <trkpt lat="52.118279" lon="5.092650">
        <ele>1.762483</ele>
        <time>2026-08-29T13:08:00.900Z</time>
      </trkpt>
      <trkpt lat="52.118311" lon="5.092462">
        <ele>1.735897</ele>
        <time>2026-08-29T13:08:02.915Z</time>
      </trkpt>
      <trkpt lat="52.118333" lon="5.092270">
        <ele>1.709281</ele>
        <time>2026-08-29T13:08:04.898Z</time>
      </trkpt>
      <trkpt lat="52.118360" lon="5.092076">
        <ele>1.682174</ele>
        <time>2026-08-29T13:08:06.898Z</time>
      </trkpt>
      <trkpt lat="52.118382" lon="5.091891">
        <ele>1.656495</ele>
        <time>2026-08-29T13:08:08.893Z</time>
      </trkpt>
      <trkpt lat="52.118398" lon="5.091706">
        <ele>1.631035</ele>
        <time>2026-08-29T13:08:10.894Z</time>
      </trkpt>
      <trkpt lat="52.118416" lon="5.091514">
        <ele>1.604568</ele>
        <time>2026-08-29T13:08:12.895Z</time>
      </trkpt>
      <trkpt lat="52.118432" lon="5.091322">
        <ele>1.578163</ele>
        <time>2026-08-29T13:08:14.901Z</time>
      </trkpt>
      <trkpt lat="52.118457" lon="5.091139">
        <ele>1.552616</ele>
        <time>2026-08-29T13:08:16.896Z</time>
      </trkpt>
      <trkpt lat="52.118484" lon="5.090970">
        <ele>1.528819</ele>
        <time>2026-08-29T13:08:18.898Z</time>
      </trkpt>
      <trkpt lat="52.118515" lon="5.090804">
        <ele>1.505174</ele>
        <time>2026-08-29T13:08:20.899Z</time>
      </trkpt>
      <trkpt lat="52.118545" lon="5.090656">
        <ele>1.483935</ele>
        <time>2026-08-29T13:08:22.898Z</time>
      </trkpt>
      <trkpt lat="52.118517" lon="5.090511">
        <ele>1.463222</ele>
        <time>2026-08-29T13:08:24.899Z</time>
      </trkpt>
      <trkpt lat="52.118481" lon="5.090345">
        <ele>1.437146</ele>
        <time>2026-08-29T13:08:26.898Z</time>
      </trkpt>
      <trkpt lat="52.118489" lon="5.090159">
        <ele>1.392544</ele>
        <time>2026-08-29T13:08:28.899Z</time>
      </trkpt>
      <trkpt lat="52.118521" lon="5.089981">
        <ele>1.348177</ele>
        <time>2026-08-29T13:08:30.895Z</time>
      </trkpt>
      <trkpt lat="52.118553" lon="5.089801">
        <ele>1.303350</ele>
        <time>2026-08-29T13:08:32.898Z</time>
      </trkpt>
      <trkpt lat="52.118591" lon="5.089623">
        <ele>1.258271</ele>
        <time>2026-08-29T13:08:34.894Z</time>
      </trkpt>
      <trkpt lat="52.118621" lon="5.089441">
        <ele>1.213193</ele>
        <time>2026-08-29T13:08:36.896Z</time>
      </trkpt>
      <trkpt lat="52.118650" lon="5.089257">
        <ele>1.167751</ele>
        <time>2026-08-29T13:08:38.894Z</time>
      </trkpt>
      <trkpt lat="52.118684" lon="5.089073">
        <ele>1.121786</ele>
        <time>2026-08-29T13:08:40.894Z</time>
      </trkpt>
      <trkpt lat="52.118709" lon="5.088882">
        <ele>1.075071</ele>
        <time>2026-08-29T13:08:42.907Z</time>
      </trkpt>
      <trkpt lat="52.118731" lon="5.088687">
        <ele>1.027644</ele>
        <time>2026-08-29T13:08:44.895Z</time>
      </trkpt>
      <trkpt lat="52.118757" lon="5.088485">
        <ele>0.978273</ele>
        <time>2026-08-29T13:08:46.895Z</time>
      </trkpt>
      <trkpt lat="52.118784" lon="5.088285">
        <ele>0.929288</ele>
        <time>2026-08-29T13:08:48.896Z</time>
      </trkpt>
      <trkpt lat="52.118803" lon="5.088090">
        <ele>0.882059</ele>
        <time>2026-08-29T13:08:50.891Z</time>
      </trkpt>
      <trkpt lat="52.118818" lon="5.087904">
        <ele>0.837184</ele>
        <time>2026-08-29T13:08:52.893Z</time>
      </trkpt>
      <trkpt lat="52.118832" lon="5.087711">
        <ele>0.790695</ele>
        <time>2026-08-29T13:08:54.900Z</time>
      </trkpt>
      <trkpt lat="52.118845" lon="5.087516">
        <ele>0.743775</ele>
        <time>2026-08-29T13:08:56.892Z</time>
      </trkpt>
      <trkpt lat="52.118857" lon="5.087317">
        <ele>0.762568</ele>
        <time>2026-08-29T13:08:58.894Z</time>
      </trkpt>
      <trkpt lat="52.118872" lon="5.087122">
        <ele>0.784638</ele>
        <time>2026-08-29T13:09:00.894Z</time>
      </trkpt>
      <trkpt lat="52.118893" lon="5.086929">
        <ele>0.806650</ele>
        <time>2026-08-29T13:09:02.907Z</time>
      </trkpt>
      <trkpt lat="52.118909" lon="5.086733">
        <ele>0.828854</ele>
        <time>2026-08-29T13:09:04.892Z</time>
      </trkpt>
      <trkpt lat="52.118934" lon="5.086545">
        <ele>0.850457</ele>
        <time>2026-08-29T13:09:06.892Z</time>
      </trkpt>
      <trkpt lat="52.118972" lon="5.086363">
        <ele>0.872045</ele>
        <time>2026-08-29T13:09:08.893Z</time>
      </trkpt>
      <trkpt lat="52.119012" lon="5.086191">
        <ele>0.892700</ele>
        <time>2026-08-29T13:09:10.894Z</time>
      </trkpt>
      <trkpt lat="52.119031" lon="5.086007">
        <ele>0.913654</ele>
        <time>2026-08-29T13:09:12.892Z</time>
      </trkpt>
      <trkpt lat="52.119051" lon="5.085818">
        <ele>0.935191</ele>
        <time>2026-08-29T13:09:14.896Z</time>
      </trkpt>
      <trkpt lat="52.119074" lon="5.085637">
        <ele>0.955949</ele>
        <time>2026-08-29T13:09:16.894Z</time>
      </trkpt>
      <trkpt lat="52.119097" lon="5.085454">
        <ele>0.976926</ele>
        <time>2026-08-29T13:09:18.893Z</time>
      </trkpt>
      <trkpt lat="52.119117" lon="5.085288">
        <ele>0.995924</ele>
        <time>2026-08-29T13:09:20.898Z</time>
      </trkpt>
      <trkpt lat="52.119130" lon="5.085114">
        <ele>1.015608</ele>
        <time>2026-08-29T13:09:22.908Z</time>
      </trkpt>
      <trkpt lat="52.119146" lon="5.084942">
        <ele>1.035144</ele>
        <time>2026-08-29T13:09:24.909Z</time>
      </trkpt>
      <trkpt lat="52.119185" lon="5.084796">
        <ele>1.053025</ele>
        <time>2026-08-29T13:09:26.900Z</time>
      </trkpt>
      <trkpt lat="52.119318" lon="5.084786">
        <ele>1.073786</ele>
        <time>2026-08-29T13:09:29.892Z</time>
      </trkpt>
      <trkpt lat="52.119421" lon="5.084818">
        <ele>1.083311</ele>
        <time>2026-08-29T13:09:31.895Z</time>
      </trkpt>
      <trkpt lat="52.119522" lon="5.084855">
        <ele>1.092715</ele>
        <time>2026-08-29T13:09:33.895Z</time>
      </trkpt>
      <trkpt lat="52.119617" lon="5.084889">
        <ele>1.101551</ele>
        <time>2026-08-29T13:09:35.911Z</time>
      </trkpt>
      <trkpt lat="52.119719" lon="5.084917">
        <ele>1.110947</ele>
        <time>2026-08-29T13:09:37.908Z</time>
      </trkpt>
      <trkpt lat="52.119822" lon="5.084942">
        <ele>1.120406</ele>
        <time>2026-08-29T13:09:39.896Z</time>
      </trkpt>
      <trkpt lat="52.119922" lon="5.084971">
        <ele>1.129633</ele>
        <time>2026-08-29T13:09:41.895Z</time>
      </trkpt>
      <trkpt lat="52.120009" lon="5.085040">
        <ele>1.138423</ele>
        <time>2026-08-29T13:09:43.906Z</time>
      </trkpt>
      <trkpt lat="52.120082" lon="5.085187">
        <ele>1.148968</ele>
        <time>2026-08-29T13:09:46.896Z</time>
      </trkpt>
      <trkpt lat="52.120178" lon="5.085102">
        <ele>1.158894</ele>
        <time>2026-08-29T13:09:49.895Z</time>
      </trkpt>
      <trkpt lat="52.120232" lon="5.084949">
        <ele>1.168737</ele>
        <time>2026-08-29T13:09:51.906Z</time>
      </trkpt>
      <trkpt lat="52.120285" lon="5.084787">
        <ele>1.178975</ele>
        <time>2026-08-29T13:09:53.893Z</time>
      </trkpt>
      <trkpt lat="52.120335" lon="5.084629">
        <ele>1.188889</ele>
        <time>2026-08-29T13:09:55.894Z</time>
      </trkpt>
      <trkpt lat="52.120386" lon="5.084472">
        <ele>1.198795</ele>
        <time>2026-08-29T13:09:57.894Z</time>
      </trkpt>
      <trkpt lat="52.120428" lon="5.084324">
        <ele>1.207889</ele>
        <time>2026-08-29T13:09:59.895Z</time>
      </trkpt>
      <trkpt lat="52.120472" lon="5.084173">
        <ele>1.217211</ele>
        <time>2026-08-29T13:10:01.894Z</time>
      </trkpt>
      <trkpt lat="52.120513" lon="5.084018">
        <ele>1.226624</ele>
        <time>2026-08-29T13:10:03.894Z</time>
      </trkpt>
      <trkpt lat="52.120553" lon="5.083875">
        <ele>1.207800</ele>
        <time>2026-08-29T13:10:05.896Z</time>
      </trkpt>
      <trkpt lat="52.120591" lon="5.083741">
        <ele>1.086972</ele>
        <time>2026-08-29T13:10:07.895Z</time>
      </trkpt>
      <trkpt lat="52.120642" lon="5.083573">
        <ele>0.933556</ele>
        <time>2026-08-29T13:10:10.894Z</time>
      </trkpt>
      <trkpt lat="52.120685" lon="5.083406">
        <ele>0.785315</ele>
        <time>2026-08-29T13:10:13.908Z</time>
      </trkpt>
      <trkpt lat="52.120747" lon="5.083209">
        <ele>0.604099</ele>
        <time>2026-08-29T13:11:26.900Z</time>
      </trkpt>
      <trkpt lat="52.120798" lon="5.083034">
        <ele>0.445526</ele>
        <time>2026-08-29T13:11:30.895Z</time>
      </trkpt>
      <trkpt lat="52.120834" lon="5.082879">
        <ele>0.309869</ele>
        <time>2026-08-29T13:11:33.900Z</time>
      </trkpt>
      <trkpt lat="52.120881" lon="5.082722">
        <ele>0.166886</ele>
        <time>2026-08-29T13:11:36.894Z</time>
      </trkpt>
      <trkpt lat="52.120931" lon="5.082561">
        <ele>0.019192</ele>
        <time>2026-08-29T13:11:39.900Z</time>
      </trkpt>
      <trkpt lat="52.120976" lon="5.082385">
        <ele>-0.136874</ele>
        <time>2026-08-29T13:11:42.896Z</time>
      </trkpt>
      <trkpt lat="52.121012" lon="5.082197">
        <ele>-0.298081</ele>
        <time>2026-08-29T13:11:45.893Z</time>
      </trkpt>
      <trkpt lat="52.121065" lon="5.082023">
        <ele>-0.457081</ele>
        <time>2026-08-29T13:11:48.894Z</time>
      </trkpt>
      <trkpt lat="52.121175" lon="5.081909">
        <ele>-0.630909</ele>
        <time>2026-08-29T13:11:51.900Z</time>
      </trkpt>
      <trkpt lat="52.121273" lon="5.081925">
        <ele>-0.762221</ele>
        <time>2026-08-29T13:11:53.895Z</time>
      </trkpt>
      <trkpt lat="52.121366" lon="5.081960">
        <ele>-0.889478</ele>
        <time>2026-08-29T13:11:55.893Z</time>
      </trkpt>
      <trkpt lat="52.121455" lon="5.082005">
        <ele>-1.013722</ele>
        <time>2026-08-29T13:11:57.899Z</time>
      </trkpt>
      <trkpt lat="52.121586" lon="5.082072">
        <ele>-1.160577</ele>
        <time>2026-08-29T13:12:00.900Z</time>
      </trkpt>
      <trkpt lat="52.121680" lon="5.082120">
        <ele>-1.145177</ele>
        <time>2026-08-29T13:12:02.900Z</time>
      </trkpt>
      <trkpt lat="52.121763" lon="5.082187">
        <ele>-1.130696</ele>
        <time>2026-08-29T13:12:04.901Z</time>
      </trkpt>
      <trkpt lat="52.121872" lon="5.082278">
        <ele>-1.111549</ele>
        <time>2026-08-29T13:12:07.900Z</time>
      </trkpt>
      <trkpt lat="52.121958" lon="5.082338">
        <ele>-1.096924</ele>
        <time>2026-08-29T13:12:09.893Z</time>
      </trkpt>
      <trkpt lat="52.122047" lon="5.082405">
        <ele>-1.081598</ele>
        <time>2026-08-29T13:12:11.900Z</time>
      </trkpt>
      <trkpt lat="52.122129" lon="5.082486">
        <ele>-1.066606</ele>
        <time>2026-08-29T13:12:13.900Z</time>
      </trkpt>
      <trkpt lat="52.122209" lon="5.082583">
        <ele>-1.051016</ele>
        <time>2026-08-29T13:12:15.909Z</time>
      </trkpt>
      <trkpt lat="52.122302" lon="5.082680">
        <ele>-1.033752</ele>
        <time>2026-08-29T13:12:17.895Z</time>
      </trkpt>
      <trkpt lat="52.122392" lon="5.082784">
        <ele>-1.016502</ele>
        <time>2026-08-29T13:12:19.895Z</time>
      </trkpt>
      <trkpt lat="52.122473" lon="5.082891">
        <ele>-1.000199</ele>
        <time>2026-08-29T13:12:21.894Z</time>
      </trkpt>
      <trkpt lat="52.122547" lon="5.082999">
        <ele>-0.984667</ele>
        <time>2026-08-29T13:12:23.908Z</time>
      </trkpt>
      <trkpt lat="52.122618" lon="5.083096">
        <ele>-0.970180</ele>
        <time>2026-08-29T13:12:25.897Z</time>
      </trkpt>
      <trkpt lat="52.122687" lon="5.083202">
        <ele>-0.955353</ele>
        <time>2026-08-29T13:12:27.894Z</time>
      </trkpt>
      <trkpt lat="52.122788" lon="5.083334">
        <ele>-0.935111</ele>
        <time>2026-08-29T13:12:30.892Z</time>
      </trkpt>
      <trkpt lat="52.122911" lon="5.083299">
        <ele>-0.915592</ele>
        <time>2026-08-29T13:12:33.894Z</time>
      </trkpt>
      <trkpt lat="52.122987" lon="5.083189">
        <ele>-0.899699</ele>
        <time>2026-08-29T13:12:35.894Z</time>
      </trkpt>
      <trkpt lat="52.123059" lon="5.083060">
        <ele>-0.882646</ele>
        <time>2026-08-29T13:12:37.898Z</time>
      </trkpt>
      <trkpt lat="52.123128" lon="5.082941">
        <ele>-0.846418</ele>
        <time>2026-08-29T13:12:39.908Z</time>
      </trkpt>
      <trkpt lat="52.123199" lon="5.082820">
        <ele>-0.809371</ele>
        <time>2026-08-29T13:12:41.909Z</time>
      </trkpt>
      <trkpt lat="52.123273" lon="5.082703">
        <ele>-0.772192</ele>
        <time>2026-08-29T13:12:43.896Z</time>
      </trkpt>
      <trkpt lat="52.123365" lon="5.082520">
        <ele>-0.719841</ele>
        <time>2026-08-29T13:12:46.897Z</time>
      </trkpt>
      <trkpt lat="52.123433" lon="5.082382">
        <ele>-0.680676</ele>
        <time>2026-08-29T13:12:48.895Z</time>
      </trkpt>
      <trkpt lat="52.123505" lon="5.082253">
        <ele>-0.642089</ele>
        <time>2026-08-29T13:12:50.909Z</time>
      </trkpt>
      <trkpt lat="52.123575" lon="5.082129">
        <ele>-0.604805</ele>
        <time>2026-08-29T13:12:52.899Z</time>
      </trkpt>
      <trkpt lat="52.123650" lon="5.081998">
        <ele>-0.565160</ele>
        <time>2026-08-29T13:12:54.896Z</time>
      </trkpt>
      <trkpt lat="52.123723" lon="5.081875">
        <ele>-0.527295</ele>
        <time>2026-08-29T13:12:56.897Z</time>
      </trkpt>
      <trkpt lat="52.123800" lon="5.081753">
        <ele>-0.488569</ele>
        <time>2026-08-29T13:12:58.894Z</time>
      </trkpt>
      <trkpt lat="52.123870" lon="5.081620">
        <ele>-0.449796</ele>
        <time>2026-08-29T13:13:00.908Z</time>
      </trkpt>
      <trkpt lat="52.123946" lon="5.081487">
        <ele>-0.409581</ele>
        <time>2026-08-29T13:13:02.895Z</time>
      </trkpt>
      <trkpt lat="52.124023" lon="5.081360">
        <ele>-0.370075</ele>
        <time>2026-08-29T13:13:04.900Z</time>
      </trkpt>
      <trkpt lat="52.124098" lon="5.081233">
        <ele>-0.331073</ele>
        <time>2026-08-29T13:13:06.895Z</time>
      </trkpt>
      <trkpt lat="52.124181" lon="5.081121">
        <ele>-0.292217</ele>
        <time>2026-08-29T13:13:08.894Z</time>
      </trkpt>
      <trkpt lat="52.124258" lon="5.080974">
        <ele>-0.249448</ele>
        <time>2026-08-29T13:13:10.894Z</time>
      </trkpt>
      <trkpt lat="52.124331" lon="5.080848">
        <ele>-0.280289</ele>
        <time>2026-08-29T13:13:12.893Z</time>
      </trkpt>
      <trkpt lat="52.124407" lon="5.080718">
        <ele>-0.356592</ele>
        <time>2026-08-29T13:13:14.894Z</time>
      </trkpt>
      <trkpt lat="52.124489" lon="5.080598">
        <ele>-0.432914</ele>
        <time>2026-08-29T13:13:16.896Z</time>
      </trkpt>
      <trkpt lat="52.124567" lon="5.080462">
        <ele>-0.512023</ele>
        <time>2026-08-29T13:13:18.894Z</time>
      </trkpt>
      <trkpt lat="52.124641" lon="5.080344">
        <ele>-0.583721</ele>
        <time>2026-08-29T13:13:20.893Z</time>
      </trkpt>
      <trkpt lat="52.124720" lon="5.080206">
        <ele>-0.663924</ele>
        <time>2026-08-29T13:13:22.893Z</time>
      </trkpt>
      <trkpt lat="52.124792" lon="5.080067">
        <ele>-0.741227</ele>
        <time>2026-08-29T13:13:24.909Z</time>
      </trkpt>
      <trkpt lat="52.124864" lon="5.079940">
        <ele>-0.814706</ele>
        <time>2026-08-29T13:13:26.895Z</time>
      </trkpt>
      <trkpt lat="52.124933" lon="5.079829">
        <ele>-0.881850</ele>
        <time>2026-08-29T13:13:28.895Z</time>
      </trkpt>
      <trkpt lat="52.125000" lon="5.079720">
        <ele>-0.947412</ele>
        <time>2026-08-29T13:13:30.892Z</time>
      </trkpt>
      <trkpt lat="52.125065" lon="5.079616">
        <ele>-1.010495</ele>
        <time>2026-08-29T13:13:32.908Z</time>
      </trkpt>
      <trkpt lat="52.125137" lon="5.079511">
        <ele>-1.077404</ele>
        <time>2026-08-29T13:13:34.894Z</time>
      </trkpt>
      <trkpt lat="52.125207" lon="5.079378">
        <ele>-1.151868</ele>
        <time>2026-08-29T13:13:36.908Z</time>
      </trkpt>
      <trkpt lat="52.125280" lon="5.079249">
        <ele>-1.226440</ele>
        <time>2026-08-29T13:13:38.900Z</time>
      </trkpt>
      <trkpt lat="52.125356" lon="5.079118">
        <ele>-1.303051</ele>
        <time>2026-08-29T13:13:40.894Z</time>
      </trkpt>
      <trkpt lat="52.125426" lon="5.078979">
        <ele>-1.379468</ele>
        <time>2026-08-29T13:13:42.892Z</time>
      </trkpt>
      <trkpt lat="52.125501" lon="5.078836">
        <ele>-1.459412</ele>
        <time>2026-08-29T13:13:44.894Z</time>
      </trkpt>
      <trkpt lat="52.125572" lon="5.078684">
        <ele>-1.506434</ele>
        <time>2026-08-29T13:13:46.894Z</time>
      </trkpt>
      <trkpt lat="52.125651" lon="5.078542">
        <ele>-1.541906</ele>
        <time>2026-08-29T13:13:48.893Z</time>
      </trkpt>
      <trkpt lat="52.125728" lon="5.078407">
        <ele>-1.576015</ele>
        <time>2026-08-29T13:13:50.894Z</time>
      </trkpt>
      <trkpt lat="52.125800" lon="5.078266">
        <ele>-1.609963</ele>
        <time>2026-08-29T13:13:52.894Z</time>
      </trkpt>
      <trkpt lat="52.125870" lon="5.078122">
        <ele>-1.643962</ele>
        <time>2026-08-29T13:13:54.896Z</time>
      </trkpt>
      <trkpt lat="52.125943" lon="5.077984">
        <ele>-1.677681</ele>
        <time>2026-08-29T13:13:56.894Z</time>
      </trkpt>
      <trkpt lat="52.126001" lon="5.077857">
        <ele>-1.706980</ele>
        <time>2026-08-29T13:13:58.897Z</time>
      </trkpt>
      <trkpt lat="52.126083" lon="5.077720">
        <ele>-1.742397</ele>
        <time>2026-08-29T13:14:00.894Z</time>
      </trkpt>
      <trkpt lat="52.126156" lon="5.077561">
        <ele>-1.779149</ele>
        <time>2026-08-29T13:14:02.893Z</time>
      </trkpt>
      <trkpt lat="52.126254" lon="5.077456">
        <ele>-1.814516</ele>
        <time>2026-08-29T13:14:04.899Z</time>
      </trkpt>
      <trkpt lat="52.126318" lon="5.077313">
        <ele>-1.847272</ele>
        <time>2026-08-29T13:14:06.910Z</time>
      </trkpt>
      <trkpt lat="52.126401" lon="5.077169">
        <ele>-1.883834</ele>
        <time>2026-08-29T13:14:08.898Z</time>
      </trkpt>
      <trkpt lat="52.126476" lon="5.077030">
        <ele>-1.918088</ele>
        <time>2026-08-29T13:14:10.893Z</time>
      </trkpt>
      <trkpt lat="52.126554" lon="5.076886">
        <ele>-1.953634</ele>
        <time>2026-08-29T13:14:12.898Z</time>
      </trkpt>
      <trkpt lat="52.126627" lon="5.076746">
        <ele>-1.987634</ele>
        <time>2026-08-29T13:14:14.908Z</time>
      </trkpt>
      <trkpt lat="52.126704" lon="5.076601">
        <ele>-2.021705</ele>
        <time>2026-08-29T13:14:16.896Z</time>
      </trkpt>
      <trkpt lat="52.126787" lon="5.076473">
        <ele>-1.989670</ele>
        <time>2026-08-29T13:14:18.902Z</time>
      </trkpt>
      <trkpt lat="52.126860" lon="5.076333">
        <ele>-1.958065</ele>
        <time>2026-08-29T13:14:20.900Z</time>
      </trkpt>
      <trkpt lat="52.126929" lon="5.076202">
        <ele>-1.928365</ele>
        <time>2026-08-29T13:14:22.900Z</time>
      </trkpt>
      <trkpt lat="52.126998" lon="5.076074">
        <ele>-1.899056</ele>
        <time>2026-08-29T13:14:24.900Z</time>
      </trkpt>
      <trkpt lat="52.127064" lon="5.075939">
        <ele>-1.869361</ele>
        <time>2026-08-29T13:14:26.895Z</time>
      </trkpt>
      <trkpt lat="52.127136" lon="5.075810">
        <ele>-1.839363</ele>
        <time>2026-08-29T13:14:28.893Z</time>
      </trkpt>
      <trkpt lat="52.127192" lon="5.075683">
        <ele>-1.812459</ele>
        <time>2026-08-29T13:14:30.897Z</time>
      </trkpt>
      <trkpt lat="52.127189" lon="5.075509">
        <ele>-1.782508</ele>
        <time>2026-08-29T13:14:33.898Z</time>
      </trkpt>
      <trkpt lat="52.127117" lon="5.075376">
        <ele>-1.751997</ele>
        <time>2026-08-29T13:14:36.892Z</time>
      </trkpt>
      <trkpt lat="52.127043" lon="5.075215">
        <ele>-1.717391</ele>
        <time>2026-08-29T13:14:39.895Z</time>
      </trkpt>
      <trkpt lat="52.126962" lon="5.075109">
        <ele>-1.688270</ele>
        <time>2026-08-29T13:14:41.901Z</time>
      </trkpt>
      <trkpt lat="52.126899" lon="5.074989">
        <ele>-1.661102</ele>
        <time>2026-08-29T13:14:43.908Z</time>
      </trkpt>
      <trkpt lat="52.126828" lon="5.074860">
        <ele>-1.631292</ele>
        <time>2026-08-29T13:14:45.894Z</time>
      </trkpt>
      <trkpt lat="52.126759" lon="5.074732">
        <ele>-1.601982</ele>
        <time>2026-08-29T13:14:47.895Z</time>
      </trkpt>
      <trkpt lat="52.126691" lon="5.074624">
        <ele>-1.575363</ele>
        <time>2026-08-29T13:14:49.894Z</time>
      </trkpt>
      <trkpt lat="52.126625" lon="5.074495">
        <ele>-1.546469</ele>
        <time>2026-08-29T13:14:51.909Z</time>
      </trkpt>
      <trkpt lat="52.126551" lon="5.074369">
        <ele>-1.515087</ele>
        <time>2026-08-29T13:14:53.900Z</time>
      </trkpt>
      <trkpt lat="52.126490" lon="5.074252">
        <ele>-1.468535</ele>
        <time>2026-08-29T13:14:55.894Z</time>
      </trkpt>
      <trkpt lat="52.126416" lon="5.074126">
        <ele>-1.415653</ele>
        <time>2026-08-29T13:14:58.908Z</time>
      </trkpt>
      <trkpt lat="52.126349" lon="5.073991">
        <ele>-1.363007</ele>
        <time>2026-08-29T13:15:04.896Z</time>
      </trkpt>
      <trkpt lat="52.126261" lon="5.073852">
        <ele>-1.302452</ele>
        <time>2026-08-29T13:15:08.893Z</time>
      </trkpt>
      <trkpt lat="52.126194" lon="5.073706">
        <ele>-1.247172</ele>
        <time>2026-08-29T13:15:12.898Z</time>
      </trkpt>
      <trkpt lat="52.126114" lon="5.073569">
        <ele>-1.189830</ele>
        <time>2026-08-29T13:15:15.894Z</time>
      </trkpt>
      <trkpt lat="52.126027" lon="5.073415">
        <ele>-1.126361</ele>
        <time>2026-08-29T13:15:18.896Z</time>
      </trkpt>
      <trkpt lat="52.125936" lon="5.073264">
        <ele>-1.062189</ele>
        <time>2026-08-29T13:15:21.894Z</time>
      </trkpt>
      <trkpt lat="52.125842" lon="5.073102">
        <ele>-0.994587</ele>
        <time>2026-08-29T13:15:24.894Z</time>
      </trkpt>
      <trkpt lat="52.125772" lon="5.072985">
        <ele>-0.945041</ele>
        <time>2026-08-29T13:15:26.900Z</time>
      </trkpt>
      <trkpt lat="52.125704" lon="5.072873">
        <ele>-0.897269</ele>
        <time>2026-08-29T13:15:28.908Z</time>
      </trkpt>
      <trkpt lat="52.125627" lon="5.072714">
        <ele>-0.835852</ele>
        <time>2026-08-29T13:15:31.893Z</time>
      </trkpt>
      <trkpt lat="52.125641" lon="5.072549">
        <ele>-0.785335</ele>
        <time>2026-08-29T13:15:34.908Z</time>
      </trkpt>
      <trkpt lat="52.125742" lon="5.072435">
        <ele>-0.724634</ele>
        <time>2026-08-29T13:15:37.893Z</time>
      </trkpt>
      <trkpt lat="52.125850" lon="5.072329">
        <ele>-0.662346</ele>
        <time>2026-08-29T13:15:40.895Z</time>
      </trkpt>
      <trkpt lat="52.125955" lon="5.072214">
        <ele>-0.612676</ele>
        <time>2026-08-29T13:15:43.908Z</time>
      </trkpt>
      <trkpt lat="52.126056" lon="5.072089">
        <ele>-0.576895</ele>
        <time>2026-08-29T13:15:46.895Z</time>
      </trkpt>
      <trkpt lat="52.126165" lon="5.071961">
        <ele>-0.538991</ele>
        <time>2026-08-29T13:15:49.896Z</time>
      </trkpt>
      <trkpt lat="52.126269" lon="5.071838">
        <ele>-0.502738</ele>
        <time>2026-08-29T13:15:52.908Z</time>
      </trkpt>
      <trkpt lat="52.126376" lon="5.071725">
        <ele>-0.466767</ele>
        <time>2026-08-29T13:15:55.908Z</time>
      </trkpt>
      <trkpt lat="52.126470" lon="5.071599">
        <ele>-0.432428</ele>
        <time>2026-08-29T13:15:58.895Z</time>
      </trkpt>
      <trkpt lat="52.126571" lon="5.071487">
        <ele>-0.397963</ele>
        <time>2026-08-29T13:16:01.895Z</time>
      </trkpt>
      <trkpt lat="52.126679" lon="5.071366">
        <ele>-0.360988</ele>
        <time>2026-08-29T13:16:04.898Z</time>
      </trkpt>
      <trkpt lat="52.126780" lon="5.071250">
        <ele>-0.326129</ele>
        <time>2026-08-29T13:16:07.909Z</time>
      </trkpt>
      <trkpt lat="52.126877" lon="5.071122">
        <ele>-0.290916</ele>
        <time>2026-08-29T13:16:10.900Z</time>
      </trkpt>
      <trkpt lat="52.126972" lon="5.070982">
        <ele>-0.254779</ele>
        <time>2026-08-29T13:16:13.894Z</time>
      </trkpt>
      <trkpt lat="52.127060" lon="5.070835">
        <ele>-0.219223</ele>
        <time>2026-08-29T13:16:16.900Z</time>
      </trkpt>
      <trkpt lat="52.127154" lon="5.070700">
        <ele>-0.183874</ele>
        <time>2026-08-29T13:16:19.894Z</time>
      </trkpt>
      <trkpt lat="52.127222" lon="5.070596">
        <ele>-0.157563</ele>
        <time>2026-08-29T13:16:22.902Z</time>
      </trkpt>
      <trkpt lat="52.127285" lon="5.070483">
        <ele>-0.131130</ele>
        <time>2026-08-29T13:16:26.900Z</time>
      </trkpt>
      <trkpt lat="52.127347" lon="5.070357">
        <ele>-0.114443</ele>
        <time>2026-08-29T13:16:30.901Z</time>
      </trkpt>
      <trkpt lat="52.127413" lon="5.070245">
        <ele>-0.103318</ele>
        <time>2026-08-29T13:16:33.900Z</time>
      </trkpt>
      <trkpt lat="52.127502" lon="5.070132">
        <ele>-0.090147</ele>
        <time>2026-08-29T13:16:36.900Z</time>
      </trkpt>
      <trkpt lat="52.127604" lon="5.070134">
        <ele>-0.078240</ele>
        <time>2026-08-29T13:16:39.900Z</time>
      </trkpt>
      <trkpt lat="52.127724" lon="5.070134">
        <ele>-0.064233</ele>
        <time>2026-08-29T13:16:42.901Z</time>
      </trkpt>
      <trkpt lat="52.127803" lon="5.070039">
        <ele>-0.052771</ele>
        <time>2026-08-29T13:16:44.901Z</time>
      </trkpt>
      <trkpt lat="52.127922" lon="5.069926">
        <ele>-0.036693</ele>
        <time>2026-08-29T13:16:47.900Z</time>
      </trkpt>
      <trkpt lat="52.128003" lon="5.069840">
        <ele>-0.025407</ele>
        <time>2026-08-29T13:16:49.909Z</time>
      </trkpt>
      <trkpt lat="52.128078" lon="5.069746">
        <ele>-0.014361</ele>
        <time>2026-08-29T13:16:51.903Z</time>
      </trkpt>
      <trkpt lat="52.128172" lon="5.069690">
        <ele>-0.002678</ele>
        <time>2026-08-29T13:16:53.893Z</time>
      </trkpt>
      <trkpt lat="52.128263" lon="5.069634">
        <ele>0.008677</ele>
        <time>2026-08-29T13:16:55.896Z</time>
      </trkpt>
      <trkpt lat="52.128355" lon="5.069586">
        <ele>0.019953</ele>
        <time>2026-08-29T13:16:57.902Z</time>
      </trkpt>
      <trkpt lat="52.128451" lon="5.069543">
        <ele>0.031574</ele>
        <time>2026-08-29T13:16:59.892Z</time>
      </trkpt>
      <trkpt lat="52.128546" lon="5.069486">
        <ele>0.043392</ele>
        <time>2026-08-29T13:17:01.900Z</time>
      </trkpt>
      <trkpt lat="52.128647" lon="5.069439">
        <ele>0.055652</ele>
        <time>2026-08-29T13:17:03.900Z</time>
      </trkpt>
      <trkpt lat="52.128755" lon="5.069394">
        <ele>0.068665</ele>
        <time>2026-08-29T13:17:05.900Z</time>
      </trkpt>
      <trkpt lat="52.128864" lon="5.069364">
        <ele>0.081568</ele>
        <time>2026-08-29T13:17:07.900Z</time>
      </trkpt>
      <trkpt lat="52.128967" lon="5.069346">
        <ele>0.065166</ele>
        <time>2026-08-29T13:17:09.901Z</time>
      </trkpt>
      <trkpt lat="52.129069" lon="5.069326">
        <ele>0.021288</ele>
        <time>2026-08-29T13:17:11.900Z</time>
      </trkpt>
      <trkpt lat="52.129193" lon="5.069305">
        <ele>-0.031957</ele>
        <time>2026-08-29T13:17:13.901Z</time>
      </trkpt>
      <trkpt lat="52.129305" lon="5.069253">
        <ele>-0.081696</ele>
        <time>2026-08-29T13:17:15.900Z</time>
      </trkpt>
      <trkpt lat="52.129423" lon="5.069195">
        <ele>-0.134336</ele>
        <time>2026-08-29T13:17:17.905Z</time>
      </trkpt>
      <trkpt lat="52.129535" lon="5.069135">
        <ele>-0.184691</ele>
        <time>2026-08-29T13:17:19.904Z</time>
      </trkpt>
      <trkpt lat="52.129641" lon="5.069072">
        <ele>-0.232881</ele>
        <time>2026-08-29T13:17:21.901Z</time>
      </trkpt>
      <trkpt lat="52.129741" lon="5.069030">
        <ele>-0.276987</ele>
        <time>2026-08-29T13:17:23.903Z</time>
      </trkpt>
      <trkpt lat="52.129852" lon="5.069004">
        <ele>-0.324882</ele>
        <time>2026-08-29T13:17:25.901Z</time>
      </trkpt>
      <trkpt lat="52.129970" lon="5.068977">
        <ele>-0.375773</ele>
        <time>2026-08-29T13:17:27.901Z</time>
      </trkpt>
      <trkpt lat="52.130081" lon="5.068937">
        <ele>-0.424326</ele>
        <time>2026-08-29T13:17:29.900Z</time>
      </trkpt>
      <trkpt lat="52.130190" lon="5.068888">
        <ele>-0.472619</ele>
        <time>2026-08-29T13:17:31.896Z</time>
      </trkpt>
      <trkpt lat="52.130288" lon="5.068828">
        <ele>-0.517332</ele>
        <time>2026-08-29T13:17:33.902Z</time>
      </trkpt>
      <trkpt lat="52.130388" lon="5.068761">
        <ele>-0.563513</ele>
        <time>2026-08-29T13:17:35.901Z</time>
      </trkpt>
      <trkpt lat="52.130479" lon="5.068672">
        <ele>-0.608844</ele>
        <time>2026-08-29T13:17:37.901Z</time>
      </trkpt>
      <trkpt lat="52.130570" lon="5.068583">
        <ele>-0.654176</ele>
        <time>2026-08-29T13:17:39.900Z</time>
      </trkpt>
      <trkpt lat="52.130663" lon="5.068498">
        <ele>-0.660549</ele>
        <time>2026-08-29T13:17:41.893Z</time>
      </trkpt>
      <trkpt lat="52.130762" lon="5.068409">
        <ele>-0.609704</ele>
        <time>2026-08-29T13:17:43.895Z</time>
      </trkpt>
      <trkpt lat="52.130853" lon="5.068315">
        <ele>-0.561252</ele>
        <time>2026-08-29T13:17:45.900Z</time>
      </trkpt>
      <trkpt lat="52.130943" lon="5.068203">
        <ele>-0.510325</ele>
        <time>2026-08-29T13:17:47.896Z</time>
      </trkpt>
      <trkpt lat="52.131013" lon="5.068080">
        <ele>-0.464027</ele>
        <time>2026-08-29T13:17:49.902Z</time>
      </trkpt>
      <trkpt lat="52.131074" lon="5.067961">
        <ele>-0.421233</ele>
        <time>2026-08-29T13:17:51.901Z</time>
      </trkpt>
      <trkpt lat="52.131137" lon="5.067853">
        <ele>-0.380108</ele>
        <time>2026-08-29T13:17:53.900Z</time>
      </trkpt>
      <trkpt lat="52.131218" lon="5.067680">
        <ele>-0.320051</ele>
        <time>2026-08-29T13:17:56.902Z</time>
      </trkpt>
      <trkpt lat="52.131263" lon="5.067543">
        <ele>-0.277161</ele>
        <time>2026-08-29T13:17:59.895Z</time>
      </trkpt>
      <trkpt lat="52.131331" lon="5.067428">
        <ele>-0.233087</ele>
        <time>2026-08-29T13:18:05.899Z</time>
      </trkpt>
      <trkpt lat="52.131354" lon="5.067172">
        <ele>-0.161671</ele>
        <time>2026-08-29T13:19:14.893Z</time>
      </trkpt>
      <trkpt lat="52.131383" lon="5.067028">
        <ele>-0.119838</ele>
        <time>2026-08-29T13:19:17.894Z</time>
      </trkpt>
      <trkpt lat="52.131405" lon="5.066868">
        <ele>-0.074580</ele>
        <time>2026-08-29T13:19:20.895Z</time>
      </trkpt>
      <trkpt lat="52.131425" lon="5.066693">
        <ele>-0.025445</ele>
        <time>2026-08-29T13:19:23.895Z</time>
      </trkpt>
      <trkpt lat="52.131447" lon="5.066488">
        <ele>0.031999</ele>
        <time>2026-08-29T13:19:26.893Z</time>
      </trkpt>
      <trkpt lat="52.131480" lon="5.066284">
        <ele>0.090231</ele>
        <time>2026-08-29T13:19:29.895Z</time>
      </trkpt>
      <trkpt lat="52.131525" lon="5.066104">
        <ele>0.141767</ele>
        <time>2026-08-29T13:19:32.908Z</time>
      </trkpt>
      <trkpt lat="52.131573" lon="5.065916">
        <ele>0.190430</ele>
        <time>2026-08-29T13:19:35.893Z</time>
      </trkpt>
      <trkpt lat="52.131620" lon="5.065738">
        <ele>0.236739</ele>
        <time>2026-08-29T13:19:38.900Z</time>
      </trkpt>
      <trkpt lat="52.131675" lon="5.065553">
        <ele>0.285866</ele>
        <time>2026-08-29T13:19:41.889Z</time>
      </trkpt>
      <trkpt lat="52.131750" lon="5.065377">
        <ele>0.337071</ele>
        <time>2026-08-29T13:19:44.893Z</time>
      </trkpt>
      <trkpt lat="52.131845" lon="5.065221">
        <ele>0.389588</ele>
        <time>2026-08-29T13:19:47.901Z</time>
      </trkpt>
      <trkpt lat="52.131911" lon="5.065103">
        <ele>0.427741</ele>
        <time>2026-08-29T13:19:49.900Z</time>
      </trkpt>
      <trkpt lat="52.131987" lon="5.065005">
        <ele>0.465478</ele>
        <time>2026-08-29T13:19:51.892Z</time>
      </trkpt>
      <trkpt lat="52.132064" lon="5.064902">
        <ele>0.504268</ele>
        <time>2026-08-29T13:19:53.895Z</time>
      </trkpt>
      <trkpt lat="52.132135" lon="5.064802">
        <ele>0.540810</ele>
        <time>2026-08-29T13:19:55.908Z</time>
      </trkpt>
      <trkpt lat="52.132215" lon="5.064705">
        <ele>0.579637</ele>
        <time>2026-08-29T13:19:57.896Z</time>
      </trkpt>
      <trkpt lat="52.132290" lon="5.064597">
        <ele>0.618610</ele>
        <time>2026-08-29T13:19:59.894Z</time>
      </trkpt>
      <trkpt lat="52.132367" lon="5.064491">
        <ele>0.657859</ele>
        <time>2026-08-29T13:20:01.892Z</time>
      </trkpt>
      <trkpt lat="52.132432" lon="5.064370">
        <ele>0.696287</ele>
        <time>2026-08-29T13:20:03.894Z</time>
      </trkpt>
      <trkpt lat="52.132501" lon="5.064257">
        <ele>0.734379</ele>
        <time>2026-08-29T13:20:05.894Z</time>
      </trkpt>
      <trkpt lat="52.132567" lon="5.064142">
        <ele>0.772004</ele>
        <time>2026-08-29T13:20:07.893Z</time>
      </trkpt>
      <trkpt lat="52.132663" lon="5.063984">
        <ele>0.825135</ele>
        <time>2026-08-29T13:20:10.894Z</time>
      </trkpt>
      <trkpt lat="52.132745" lon="5.063898">
        <ele>0.766955</ele>
        <time>2026-08-29T13:20:12.889Z</time>
      </trkpt>
      <trkpt lat="52.132849" lon="5.063778">
        <ele>0.679008</ele>
        <time>2026-08-29T13:20:15.893Z</time>
      </trkpt>
      <trkpt lat="52.132913" lon="5.063884">
        <ele>0.616026</ele>
        <time>2026-08-29T13:20:18.896Z</time>
      </trkpt>
      <trkpt lat="52.132982" lon="5.064010">
        <ele>0.544500</ele>
        <time>2026-08-29T13:20:21.903Z</time>
      </trkpt>
      <trkpt lat="52.133053" lon="5.064146">
        <ele>0.468873</ele>
        <time>2026-08-29T13:20:24.895Z</time>
      </trkpt>
      <trkpt lat="52.133135" lon="5.064278">
        <ele>0.389321</ele>
        <time>2026-08-29T13:20:27.899Z</time>
      </trkpt>
      <trkpt lat="52.133226" lon="5.064406">
        <ele>0.306355</ele>
        <time>2026-08-29T13:20:30.897Z</time>
      </trkpt>
      <trkpt lat="52.133316" lon="5.064541">
        <ele>0.221931</ele>
        <time>2026-08-29T13:20:33.896Z</time>
      </trkpt>
      <trkpt lat="52.133413" lon="5.064671">
        <ele>0.135253</ele>
        <time>2026-08-29T13:20:36.894Z</time>
      </trkpt>
      <trkpt lat="52.133517" lon="5.064792">
        <ele>0.047061</ele>
        <time>2026-08-29T13:20:39.908Z</time>
      </trkpt>
      <trkpt lat="52.133619" lon="5.064911">
        <ele>-0.039515</ele>
        <time>2026-08-29T13:20:42.901Z</time>
      </trkpt>
      <trkpt lat="52.133720" lon="5.065024">
        <ele>-0.124067</ele>
        <time>2026-08-29T13:20:45.901Z</time>
      </trkpt>
      <trkpt lat="52.133818" lon="5.065121">
        <ele>-0.203199</ele>
        <time>2026-08-29T13:20:48.894Z</time>
      </trkpt>
      <trkpt lat="52.133823" lon="5.065284">
        <ele>-0.272330</ele>
        <time>2026-08-29T13:20:56.899Z</time>
      </trkpt>
      <trkpt lat="52.133893" lon="5.065403">
        <ele>-0.342146</ele>
        <time>2026-08-29T13:21:00.895Z</time>
      </trkpt>
      <trkpt lat="52.133985" lon="5.065524">
        <ele>-0.419640</ele>
        <time>2026-08-29T13:21:04.908Z</time>
      </trkpt>
      <trkpt lat="52.134069" lon="5.065629">
        <ele>-0.465337</ele>
        <time>2026-08-29T13:21:08.908Z</time>
      </trkpt>
      <trkpt lat="52.134147" lon="5.065719">
        <ele>-0.506591</ele>
        <time>2026-08-29T13:21:12.895Z</time>
      </trkpt>
      <trkpt lat="52.134228" lon="5.065813">
        <ele>-0.549513</ele>
        <time>2026-08-29T13:21:16.901Z</time>
      </trkpt>
      <trkpt lat="52.134312" lon="5.065910">
        <ele>-0.593952</ele>
        <time>2026-08-29T13:21:19.894Z</time>
      </trkpt>
      <trkpt lat="52.134397" lon="5.065997">
        <ele>-0.637278</ele>
        <time>2026-08-29T13:21:22.894Z</time>
      </trkpt>
      <trkpt lat="52.134504" lon="5.066084">
        <ele>-0.688892</ele>
        <time>2026-08-29T13:21:25.896Z</time>
      </trkpt>
      <trkpt lat="52.134606" lon="5.066221">
        <ele>-0.745947</ele>
        <time>2026-08-29T13:21:28.894Z</time>
      </trkpt>
      <trkpt lat="52.134712" lon="5.066368">
        <ele>-0.806028</ele>
        <time>2026-08-29T13:21:31.894Z</time>
      </trkpt>
      <trkpt lat="52.134795" lon="5.066475">
        <ele>-0.851710</ele>
        <time>2026-08-29T13:21:33.907Z</time>
      </trkpt>
      <trkpt lat="52.134874" lon="5.066591">
        <ele>-0.897612</ele>
        <time>2026-08-29T13:21:35.895Z</time>
      </trkpt>
      <trkpt lat="52.134957" lon="5.066700">
        <ele>-0.943624</ele>
        <time>2026-08-29T13:21:37.897Z</time>
      </trkpt>
      <trkpt lat="52.135041" lon="5.066815">
        <ele>-0.990980</ele>
        <time>2026-08-29T13:21:39.894Z</time>
      </trkpt>
      <trkpt lat="52.135121" lon="5.066930">
        <ele>-1.037028</ele>
        <time>2026-08-29T13:21:41.908Z</time>
      </trkpt>
      <trkpt lat="52.135203" lon="5.067042">
        <ele>-1.083211</ele>
        <time>2026-08-29T13:21:43.908Z</time>
      </trkpt>
      <trkpt lat="52.135288" lon="5.067157">
        <ele>-1.130898</ele>
        <time>2026-08-29T13:21:45.896Z</time>
      </trkpt>
      <trkpt lat="52.135365" lon="5.067267">
        <ele>-1.175099</ele>
        <time>2026-08-29T13:21:47.895Z</time>
      </trkpt>
      <trkpt lat="52.135435" lon="5.067383">
        <ele>-1.226947</ele>
        <time>2026-08-29T13:21:49.894Z</time>
      </trkpt>
      <trkpt lat="52.135503" lon="5.067505">
        <ele>-1.283738</ele>
        <time>2026-08-29T13:21:51.894Z</time>
      </trkpt>
      <trkpt lat="52.135589" lon="5.067564">
        <ele>-1.336129</ele>
        <time>2026-08-29T13:21:53.894Z</time>
      </trkpt>
      <trkpt lat="52.135681" lon="5.067529">
        <ele>-1.389172</ele>
        <time>2026-08-29T13:21:55.893Z</time>
      </trkpt>
      <trkpt lat="52.135769" lon="5.067499">
        <ele>-1.439649</ele>
        <time>2026-08-29T13:21:57.894Z</time>
      </trkpt>
      <trkpt lat="52.135871" lon="5.067474">
        <ele>-1.497561</ele>
        <time>2026-08-29T13:21:59.896Z</time>
      </trkpt>
      <trkpt lat="52.135981" lon="5.067443">
        <ele>-1.560238</ele>
        <time>2026-08-29T13:22:01.895Z</time>
      </trkpt>
      <trkpt lat="52.136100" lon="5.067399">
        <ele>-1.628749</ele>
        <time>2026-08-29T13:22:03.894Z</time>
      </trkpt>
      <trkpt lat="52.136230" lon="5.067362">
        <ele>-1.702843</ele>
        <time>2026-08-29T13:22:05.896Z</time>
      </trkpt>
      <trkpt lat="52.136361" lon="5.067315">
        <ele>-1.778155</ele>
        <time>2026-08-29T13:22:07.895Z</time>
      </trkpt>
      <trkpt lat="52.136599" lon="5.067206">
        <ele>-1.916959</ele>
        <time>2026-08-29T13:22:11.911Z</time>
      </trkpt>
      <trkpt lat="52.136706" lon="5.067207">
        <ele>-1.977034</ele>
        <time>2026-08-29T13:22:13.895Z</time>
      </trkpt>
      <trkpt lat="52.136810" lon="5.067163">
        <ele>-2.037362</ele>
        <time>2026-08-29T13:22:15.897Z</time>
      </trkpt>
      <trkpt lat="52.136901" lon="5.067128">
        <ele>-2.089858</ele>
        <time>2026-08-29T13:22:17.895Z</time>
      </trkpt>
      <trkpt lat="52.137027" lon="5.067063">
        <ele>-2.164062</ele>
        <time>2026-08-29T13:22:20.903Z</time>
      </trkpt>
      <trkpt lat="52.137133" lon="5.067157">
        <ele>-2.161496</ele>
        <time>2026-08-29T13:22:23.893Z</time>
      </trkpt>
      <trkpt lat="52.137211" lon="5.067260">
        <ele>-2.097291</ele>
        <time>2026-08-29T13:22:25.893Z</time>
      </trkpt>
      <trkpt lat="52.137289" lon="5.067377">
        <ele>-2.029492</ele>
        <time>2026-08-29T13:22:27.898Z</time>
      </trkpt>
      <trkpt lat="52.137366" lon="5.067478">
        <ele>-1.966279</ele>
        <time>2026-08-29T13:22:29.900Z</time>
      </trkpt>
      <trkpt lat="52.137441" lon="5.067584">
        <ele>-1.902788</ele>
        <time>2026-08-29T13:22:31.900Z</time>
      </trkpt>
      <trkpt lat="52.137523" lon="5.067690">
        <ele>-1.835851</ele>
        <time>2026-08-29T13:22:33.899Z</time>
      </trkpt>
      <trkpt lat="52.137596" lon="5.067804">
        <ele>-1.771189</ele>
        <time>2026-08-29T13:22:35.903Z</time>
      </trkpt>
      <trkpt lat="52.137679" lon="5.067909">
        <ele>-1.703992</ele>
        <time>2026-08-29T13:22:37.894Z</time>
      </trkpt>
      <trkpt lat="52.137758" lon="5.068025">
        <ele>-1.635985</ele>
        <time>2026-08-29T13:22:39.895Z</time>
      </trkpt>
      <trkpt lat="52.137835" lon="5.068124">
        <ele>-1.573261</ele>
        <time>2026-08-29T13:22:41.892Z</time>
      </trkpt>
      <trkpt lat="52.137912" lon="5.068234">
        <ele>-1.507774</ele>
        <time>2026-08-29T13:22:43.894Z</time>
      </trkpt>
      <trkpt lat="52.137997" lon="5.068350">
        <ele>-1.436871</ele>
        <time>2026-08-29T13:22:45.903Z</time>
      </trkpt>
      <trkpt lat="52.138086" lon="5.068463">
        <ele>-1.364717</ele>
        <time>2026-08-29T13:22:47.893Z</time>
      </trkpt>
      <trkpt lat="52.138161" lon="5.068575">
        <ele>-1.299659</ele>
        <time>2026-08-29T13:22:49.905Z</time>
      </trkpt>
      <trkpt lat="52.138243" lon="5.068693">
        <ele>-1.229699</ele>
        <time>2026-08-29T13:22:51.902Z</time>
      </trkpt>
      <trkpt lat="52.138327" lon="5.068802">
        <ele>-1.161029</ele>
        <time>2026-08-29T13:22:53.903Z</time>
      </trkpt>
      <trkpt lat="52.138412" lon="5.068900">
        <ele>-1.094441</ele>
        <time>2026-08-29T13:22:55.902Z</time>
      </trkpt>
      <trkpt lat="52.138486" lon="5.069010">
        <ele>-1.057038</ele>
        <time>2026-08-29T13:22:57.902Z</time>
      </trkpt>
      <trkpt lat="52.138567" lon="5.069129">
        <ele>-1.088474</ele>
        <time>2026-08-29T13:22:59.900Z</time>
      </trkpt>
      <trkpt lat="52.138643" lon="5.069250">
        <ele>-1.119101</ele>
        <time>2026-08-29T13:23:01.903Z</time>
      </trkpt>
      <trkpt lat="52.138662" lon="5.069473">
        <ele>-1.158928</ele>
        <time>2026-08-29T13:23:04.908Z</time>
      </trkpt>
      <trkpt lat="52.138645" lon="5.069638">
        <ele>-1.188525</ele>
        <time>2026-08-29T13:23:06.908Z</time>
      </trkpt>
      <trkpt lat="52.138626" lon="5.069814">
        <ele>-1.220138</ele>
        <time>2026-08-29T13:23:08.900Z</time>
      </trkpt>
      <trkpt lat="52.138615" lon="5.069992">
        <ele>-1.251785</ele>
        <time>2026-08-29T13:23:10.893Z</time>
      </trkpt>
      <trkpt lat="52.138604" lon="5.070149">
        <ele>-1.279739</ele>
        <time>2026-08-29T13:23:12.898Z</time>
      </trkpt>
      <trkpt lat="52.138598" lon="5.070308">
        <ele>-1.307919</ele>
        <time>2026-08-29T13:23:14.908Z</time>
      </trkpt>
      <trkpt lat="52.138626" lon="5.070485">
        <ele>-1.340254</ele>
        <time>2026-08-29T13:23:16.897Z</time>
      </trkpt>
      <trkpt lat="52.138688" lon="5.070618">
        <ele>-1.369799</ele>
        <time>2026-08-29T13:23:18.900Z</time>
      </trkpt>
      <trkpt lat="52.138769" lon="5.070740">
        <ele>-1.401593</ele>
        <time>2026-08-29T13:23:20.893Z</time>
      </trkpt>
      <trkpt lat="52.138853" lon="5.070847">
        <ele>-1.432325</ele>
        <time>2026-08-29T13:23:22.895Z</time>
      </trkpt>
      <trkpt lat="52.138930" lon="5.070954">
        <ele>-1.461494</ele>
        <time>2026-08-29T13:23:24.908Z</time>
      </trkpt>
      <trkpt lat="52.139005" lon="5.071055">
        <ele>-1.489539</ele>
        <time>2026-08-29T13:23:26.908Z</time>
      </trkpt>
      <trkpt lat="52.139087" lon="5.071171">
        <ele>-1.520839</ele>
        <time>2026-08-29T13:23:28.898Z</time>
      </trkpt>
      <trkpt lat="52.139178" lon="5.071286">
        <ele>-1.554033</ele>
        <time>2026-08-29T13:23:30.908Z</time>
      </trkpt>
      <trkpt lat="52.139283" lon="5.071370">
        <ele>-1.580205</ele>
        <time>2026-08-29T13:23:32.895Z</time>
      </trkpt>
      <trkpt lat="52.139405" lon="5.071397">
        <ele>-1.602678</ele>
        <time>2026-08-29T13:23:34.908Z</time>
      </trkpt>
      <trkpt lat="52.139529" lon="5.071402">
        <ele>-1.625320</ele>
        <time>2026-08-29T13:23:36.908Z</time>
      </trkpt>
      <trkpt lat="52.139658" lon="5.071407">
        <ele>-1.648874</ele>
        <time>2026-08-29T13:23:38.895Z</time>
      </trkpt>
      <trkpt lat="52.139780" lon="5.071430">
        <ele>-1.671291</ele>
        <time>2026-08-29T13:23:40.895Z</time>
      </trkpt>
      <trkpt lat="52.139893" lon="5.071473">
        <ele>-1.692473</ele>
        <time>2026-08-29T13:23:42.897Z</time>
      </trkpt>
      <trkpt lat="52.140008" lon="5.071526">
        <ele>-1.714288</ele>
        <time>2026-08-29T13:23:44.908Z</time>
      </trkpt>
      <trkpt lat="52.140109" lon="5.071616">
        <ele>-1.735301</ele>
        <time>2026-08-29T13:23:46.893Z</time>
      </trkpt>
      <trkpt lat="52.140204" lon="5.071728">
        <ele>-1.756705</ele>
        <time>2026-08-29T13:23:48.895Z</time>
      </trkpt>
      <trkpt lat="52.140297" lon="5.071850">
        <ele>-1.778499</ele>
        <time>2026-08-29T13:23:50.908Z</time>
      </trkpt>
      <trkpt lat="52.140397" lon="5.071973">
        <ele>-1.801370</ele>
        <time>2026-08-29T13:23:52.908Z</time>
      </trkpt>
      <trkpt lat="52.140484" lon="5.072086">
        <ele>-1.821679</ele>
        <time>2026-08-29T13:23:54.904Z</time>
      </trkpt>
      <trkpt lat="52.140571" lon="5.072221">
        <ele>-1.843608</ele>
        <time>2026-08-29T13:23:56.901Z</time>
      </trkpt>
      <trkpt lat="52.140658" lon="5.072350">
        <ele>-1.865080</ele>
        <time>2026-08-29T13:23:58.924Z</time>
      </trkpt>
      <trkpt lat="52.140747" lon="5.072478">
        <ele>-1.886749</ele>
        <time>2026-08-29T13:24:00.908Z</time>
      </trkpt>
      <trkpt lat="52.140836" lon="5.072599">
        <ele>-1.864583</ele>
        <time>2026-08-29T13:24:02.897Z</time>
      </trkpt>
      <trkpt lat="52.140917" lon="5.072713">
        <ele>-1.815935</ele>
        <time>2026-08-29T13:24:04.895Z</time>
      </trkpt>
      <trkpt lat="52.141000" lon="5.072824">
        <ele>-1.767130</ele>
        <time>2026-08-29T13:24:06.900Z</time>
      </trkpt>
      <trkpt lat="52.141084" lon="5.072941">
        <ele>-1.716902</ele>
        <time>2026-08-29T13:24:08.897Z</time>
      </trkpt>
      <trkpt lat="52.141173" lon="5.073054">
        <ele>-1.665618</ele>
        <time>2026-08-29T13:24:10.908Z</time>
      </trkpt>
      <trkpt lat="52.141261" lon="5.073156">
        <ele>-1.616533</ele>
        <time>2026-08-29T13:24:12.896Z</time>
      </trkpt>
      <trkpt lat="52.141340" lon="5.073232">
        <ele>-1.574835</ele>
        <time>2026-08-29T13:24:14.896Z</time>
      </trkpt>
      <trkpt lat="52.141410" lon="5.073330">
        <ele>-1.532887</ele>
        <time>2026-08-29T13:24:16.895Z</time>
      </trkpt>
      <trkpt lat="52.141480" lon="5.073489">
        <ele>-1.478303</ele>
        <time>2026-08-29T13:24:19.897Z</time>
      </trkpt>
      <trkpt lat="52.141511" lon="5.073678">
        <ele>-1.423732</ele>
        <time>2026-08-29T13:24:22.894Z</time>
      </trkpt>
      <trkpt lat="52.141560" lon="5.073808">
        <ele>-1.381176</ele>
        <time>2026-08-29T13:24:25.896Z</time>
      </trkpt>
      <trkpt lat="52.141664" lon="5.073820">
        <ele>-1.333788</ele>
        <time>2026-08-29T13:24:28.908Z</time>
      </trkpt>
      <trkpt lat="52.141768" lon="5.073953">
        <ele>-1.273697</ele>
        <time>2026-08-29T13:24:31.901Z</time>
      </trkpt>
      <trkpt lat="52.141830" lon="5.074079">
        <ele>-1.228648</ele>
        <time>2026-08-29T13:24:33.894Z</time>
      </trkpt>
      <trkpt lat="52.141887" lon="5.074230">
        <ele>-1.179198</ele>
        <time>2026-08-29T13:24:35.908Z</time>
      </trkpt>
      <trkpt lat="52.141942" lon="5.074395">
        <ele>-1.126821</ele>
        <time>2026-08-29T13:24:37.897Z</time>
      </trkpt>
      <trkpt lat="52.141995" lon="5.074552">
        <ele>-1.077660</ele>
        <time>2026-08-29T13:24:39.895Z</time>
      </trkpt>
      <trkpt lat="52.142046" lon="5.074721">
        <ele>-1.063159</ele>
        <time>2026-08-29T13:24:41.894Z</time>
      </trkpt>
      <trkpt lat="52.142103" lon="5.074891">
        <ele>-1.048242</ele>
        <time>2026-08-29T13:24:43.908Z</time>
      </trkpt>
      <trkpt lat="52.142159" lon="5.075052">
        <ele>-1.033992</ele>
        <time>2026-08-29T13:24:45.908Z</time>
      </trkpt>
      <trkpt lat="52.142217" lon="5.075210">
        <ele>-1.019815</ele>
        <time>2026-08-29T13:24:47.897Z</time>
      </trkpt>
      <trkpt lat="52.142284" lon="5.075363">
        <ele>-1.005342</ele>
        <time>2026-08-29T13:24:49.896Z</time>
      </trkpt>
      <trkpt lat="52.142351" lon="5.075483">
        <ele>-0.992850</ele>
        <time>2026-08-29T13:24:51.894Z</time>
      </trkpt>
      <trkpt lat="52.142444" lon="5.075586">
        <ele>-0.978741</ele>
        <time>2026-08-29T13:24:53.908Z</time>
      </trkpt>
      <trkpt lat="52.142528" lon="5.075693">
        <ele>-0.965363</ele>
        <time>2026-08-29T13:24:55.908Z</time>
      </trkpt>
      <trkpt lat="52.142603" lon="5.075810">
        <ele>-0.952335</ele>
        <time>2026-08-29T13:24:57.896Z</time>
      </trkpt>
      <trkpt lat="52.142688" lon="5.075930">
        <ele>-0.938224</ele>
        <time>2026-08-29T13:24:59.895Z</time>
      </trkpt>
      <trkpt lat="52.142772" lon="5.076040">
        <ele>-0.924703</ele>
        <time>2026-08-29T13:25:01.898Z</time>
      </trkpt>
      <trkpt lat="52.142857" lon="5.076141">
        <ele>-0.911503</ele>
        <time>2026-08-29T13:25:03.895Z</time>
      </trkpt>
      <trkpt lat="52.142940" lon="5.076243">
        <ele>-0.898459</ele>
        <time>2026-08-29T13:25:05.908Z</time>
      </trkpt>
      <trkpt lat="52.143024" lon="5.076362">
        <ele>-0.884494</ele>
        <time>2026-08-29T13:25:07.910Z</time>
      </trkpt>
      <trkpt lat="52.143109" lon="5.076477">
        <ele>-0.870632</ele>
        <time>2026-08-29T13:25:09.895Z</time>
      </trkpt>
      <trkpt lat="52.143194" lon="5.076591">
        <ele>-0.856819</ele>
        <time>2026-08-29T13:25:11.895Z</time>
      </trkpt>
      <trkpt lat="52.143277" lon="5.076702">
        <ele>-0.839270</ele>
        <time>2026-08-29T13:25:13.908Z</time>
      </trkpt>
      <trkpt lat="52.143356" lon="5.076799">
        <ele>-0.821205</ele>
        <time>2026-08-29T13:25:15.898Z</time>
      </trkpt>
      <trkpt lat="52.143424" lon="5.076906">
        <ele>-0.803941</ele>
        <time>2026-08-29T13:25:17.900Z</time>
      </trkpt>
      <trkpt lat="52.143540" lon="5.076871">
        <ele>-0.782396</ele>
        <time>2026-08-29T13:25:21.900Z</time>
      </trkpt>
      <trkpt lat="52.143598" lon="5.076757">
        <ele>-0.765799</ele>
        <time>2026-08-29T13:25:23.897Z</time>
      </trkpt>
      <trkpt lat="52.143656" lon="5.076631">
        <ele>-0.748147</ele>
        <time>2026-08-29T13:25:25.900Z</time>
      </trkpt>
      <trkpt lat="52.143729" lon="5.076508">
        <ele>-0.728969</ele>
        <time>2026-08-29T13:25:27.900Z</time>
      </trkpt>
      <trkpt lat="52.143793" lon="5.076376">
        <ele>-0.710115</ele>
        <time>2026-08-29T13:25:29.896Z</time>
      </trkpt>
      <trkpt lat="52.143852" lon="5.076233">
        <ele>-0.690803</ele>
        <time>2026-08-29T13:25:31.900Z</time>
      </trkpt>
      <trkpt lat="52.143915" lon="5.076090">
        <ele>-0.671074</ele>
        <time>2026-08-29T13:25:33.897Z</time>
      </trkpt>
      <trkpt lat="52.143983" lon="5.075933">
        <ele>-0.649537</ele>
        <time>2026-08-29T13:25:35.900Z</time>
      </trkpt>
      <trkpt lat="52.144057" lon="5.075777">
        <ele>-0.627439</ele>
        <time>2026-08-29T13:25:37.896Z</time>
      </trkpt>
      <trkpt lat="52.144130" lon="5.075615">
        <ele>-0.604914</ele>
        <time>2026-08-29T13:25:39.900Z</time>
      </trkpt>
      <trkpt lat="52.144203" lon="5.075458">
        <ele>-0.582838</ele>
        <time>2026-08-29T13:25:41.900Z</time>
      </trkpt>
      <trkpt lat="52.144271" lon="5.075310">
        <ele>-0.562117</ele>
        <time>2026-08-29T13:25:43.900Z</time>
      </trkpt>
      <trkpt lat="52.144337" lon="5.075158">
        <ele>-0.541249</ele>
        <time>2026-08-29T13:25:45.897Z</time>
      </trkpt>
      <trkpt lat="52.144403" lon="5.075005">
        <ele>-0.536782</ele>
        <time>2026-08-29T13:25:47.900Z</time>
      </trkpt>
      <trkpt lat="52.144475" lon="5.074847">
        <ele>-0.617973</ele>
        <time>2026-08-29T13:25:49.893Z</time>
      </trkpt>
      <trkpt lat="52.144536" lon="5.074708">
        <ele>-0.688474</ele>
        <time>2026-08-29T13:25:51.900Z</time>
      </trkpt>
      <trkpt lat="52.144602" lon="5.074567">
        <ele>-0.761635</ele>
        <time>2026-08-29T13:25:53.901Z</time>
      </trkpt>
      <trkpt lat="52.144664" lon="5.074419">
        <ele>-0.835565</ele>
        <time>2026-08-29T13:25:55.910Z</time>
      </trkpt>
      <trkpt lat="52.144738" lon="5.074283">
        <ele>-0.910552</ele>
        <time>2026-08-29T13:25:57.901Z</time>
      </trkpt>
      <trkpt lat="52.144833" lon="5.074223">
        <ele>-0.979048</ele>
        <time>2026-08-29T13:25:59.900Z</time>
      </trkpt>
      <trkpt lat="52.144956" lon="5.074217">
        <ele>-1.061776</ele>
        <time>2026-08-29T13:26:01.901Z</time>
      </trkpt>
      <trkpt lat="52.145086" lon="5.074208">
        <ele>-1.149251</ele>
        <time>2026-08-29T13:26:03.900Z</time>
      </trkpt>
      <trkpt lat="52.145220" lon="5.074188">
        <ele>-1.239714</ele>
        <time>2026-08-29T13:26:05.895Z</time>
      </trkpt>
      <trkpt lat="52.145329" lon="5.074210">
        <ele>-1.313553</ele>
        <time>2026-08-29T13:26:07.895Z</time>
      </trkpt>
      <trkpt lat="52.145429" lon="5.074304">
        <ele>-1.391164</ele>
        <time>2026-08-29T13:26:09.896Z</time>
      </trkpt>
      <trkpt lat="52.145530" lon="5.074438">
        <ele>-1.478723</ele>
        <time>2026-08-29T13:26:11.911Z</time>
      </trkpt>
      <trkpt lat="52.145619" lon="5.074550">
        <ele>-1.554321</ele>
        <time>2026-08-29T13:26:13.900Z</time>
      </trkpt>
      <trkpt lat="52.145695" lon="5.074664">
        <ele>-1.623764</ele>
        <time>2026-08-29T13:26:15.909Z</time>
      </trkpt>
      <trkpt lat="52.145788" lon="5.074778">
        <ele>-1.702001</ele>
        <time>2026-08-29T13:26:17.925Z</time>
      </trkpt>
      <trkpt lat="52.145871" lon="5.074890">
        <ele>-1.727546</ele>
        <time>2026-08-29T13:26:19.897Z</time>
      </trkpt>
      <trkpt lat="52.145953" lon="5.075016">
        <ele>-1.717559</ele>
        <time>2026-08-29T13:26:21.895Z</time>
      </trkpt>
      <trkpt lat="52.146042" lon="5.075148">
        <ele>-1.706895</ele>
        <time>2026-08-29T13:26:23.894Z</time>
      </trkpt>
      <trkpt lat="52.146131" lon="5.075280">
        <ele>-1.696231</ele>
        <time>2026-08-29T13:26:25.895Z</time>
      </trkpt>
      <trkpt lat="52.146219" lon="5.075389">
        <ele>-1.686436</ele>
        <time>2026-08-29T13:26:27.896Z</time>
      </trkpt>
      <trkpt lat="52.146310" lon="5.075516">
        <ele>-1.675819</ele>
        <time>2026-08-29T13:26:29.908Z</time>
      </trkpt>
      <trkpt lat="52.146400" lon="5.075637">
        <ele>-1.665480</ele>
        <time>2026-08-29T13:26:31.901Z</time>
      </trkpt>
      <trkpt lat="52.146491" lon="5.075762">
        <ele>-1.654934</ele>
        <time>2026-08-29T13:26:33.894Z</time>
      </trkpt>
      <trkpt lat="52.146589" lon="5.075878">
        <ele>-1.644201</ele>
        <time>2026-08-29T13:26:35.899Z</time>
      </trkpt>
      <trkpt lat="52.146680" lon="5.075995">
        <ele>-1.633930</ele>
        <time>2026-08-29T13:26:37.897Z</time>
      </trkpt>
      <trkpt lat="52.146769" lon="5.076112">
        <ele>-1.623797</ele>
        <time>2026-08-29T13:26:39.909Z</time>
      </trkpt>
      <trkpt lat="52.146852" lon="5.076235">
        <ele>-1.613855</ele>
        <time>2026-08-29T13:26:41.908Z</time>
      </trkpt>
      <trkpt lat="52.146934" lon="5.076339">
        <ele>-1.604648</ele>
        <time>2026-08-29T13:26:43.900Z</time>
      </trkpt>
      <trkpt lat="52.147026" lon="5.076441">
        <ele>-1.594788</ele>
        <time>2026-08-29T13:26:45.893Z</time>
      </trkpt>
      <trkpt lat="52.147112" lon="5.076535">
        <ele>-1.585611</ele>
        <time>2026-08-29T13:26:47.907Z</time>
      </trkpt>
      <trkpt lat="52.147199" lon="5.076636">
        <ele>-1.576146</ele>
        <time>2026-08-29T13:26:49.908Z</time>
      </trkpt>
      <trkpt lat="52.147302" lon="5.076742">
        <ele>-1.556579</ele>
        <time>2026-08-29T13:26:51.895Z</time>
      </trkpt>
      <trkpt lat="52.147391" lon="5.076839">
        <ele>-1.537033</ele>
        <time>2026-08-29T13:26:53.896Z</time>
      </trkpt>
      <trkpt lat="52.147467" lon="5.076931">
        <ele>-1.519749</ele>
        <time>2026-08-29T13:26:55.908Z</time>
      </trkpt>
      <trkpt lat="52.147550" lon="5.077050">
        <ele>-1.499567</ele>
        <time>2026-08-29T13:26:57.908Z</time>
      </trkpt>
      <trkpt lat="52.147643" lon="5.077178">
        <ele>-1.477343</ele>
        <time>2026-08-29T13:26:59.914Z</time>
      </trkpt>
      <trkpt lat="52.147722" lon="5.077290">
        <ele>-1.458227</ele>
        <time>2026-08-29T13:27:01.897Z</time>
      </trkpt>
      <trkpt lat="52.147796" lon="5.077410">
        <ele>-1.439169</ele>
        <time>2026-08-29T13:27:03.895Z</time>
      </trkpt>
      <trkpt lat="52.147887" lon="5.077543">
        <ele>-1.416853</ele>
        <time>2026-08-29T13:27:05.909Z</time>
      </trkpt>
      <trkpt lat="52.147975" lon="5.077658">
        <ele>-1.396260</ele>
        <time>2026-08-29T13:27:07.908Z</time>
      </trkpt>
      <trkpt lat="52.148058" lon="5.077773">
        <ele>-1.376371</ele>
        <time>2026-08-29T13:27:09.897Z</time>
      </trkpt>
      <trkpt lat="52.148135" lon="5.077892">
        <ele>-1.356998</ele>
        <time>2026-08-29T13:27:11.909Z</time>
      </trkpt>
      <trkpt lat="52.148225" lon="5.077995">
        <ele>-1.336921</ele>
        <time>2026-08-29T13:27:13.895Z</time>
      </trkpt>
      <trkpt lat="52.148321" lon="5.078105">
        <ele>-1.315496</ele>
        <time>2026-08-29T13:27:15.908Z</time>
      </trkpt>
      <trkpt lat="52.148396" lon="5.078233">
        <ele>-1.295670</ele>
        <time>2026-08-29T13:27:17.896Z</time>
      </trkpt>
      <trkpt lat="52.148485" lon="5.078353">
        <ele>-1.274582</ele>
        <time>2026-08-29T13:27:19.895Z</time>
      </trkpt>
      <trkpt lat="52.148569" lon="5.078464">
        <ele>-1.254839</ele>
        <time>2026-08-29T13:27:21.894Z</time>
      </trkpt>
      <trkpt lat="52.148644" lon="5.078571">
        <ele>-1.228207</ele>
        <time>2026-08-29T13:27:23.902Z</time>
      </trkpt>
      <trkpt lat="52.148712" lon="5.078676">
        <ele>-1.194371</ele>
        <time>2026-08-29T13:27:25.896Z</time>
      </trkpt>
      <trkpt lat="52.148723" lon="5.078873">
        <ele>-1.150527</ele>
        <time>2026-08-29T13:27:28.908Z</time>
      </trkpt>
      <trkpt lat="52.148667" lon="5.079019">
        <ele>-1.112365</ele>
        <time>2026-08-29T13:27:30.917Z</time>
      </trkpt>
      <trkpt lat="52.148603" lon="5.079167">
        <ele>-1.072235</ele>
        <time>2026-08-29T13:27:32.896Z</time>
      </trkpt>
      <trkpt lat="52.148542" lon="5.079325">
        <ele>-1.030861</ele>
        <time>2026-08-29T13:27:34.894Z</time>
      </trkpt>
      <trkpt lat="52.148479" lon="5.079460">
        <ele>-0.993269</ele>
        <time>2026-08-29T13:27:36.892Z</time>
      </trkpt>
      <trkpt lat="52.148422" lon="5.079593">
        <ele>-0.957312</ele>
        <time>2026-08-29T13:27:38.901Z</time>
      </trkpt>
      <trkpt lat="52.148362" lon="5.079732">
        <ele>-0.919644</ele>
        <time>2026-08-29T13:27:40.900Z</time>
      </trkpt>
      <trkpt lat="52.148301" lon="5.079875">
        <ele>-0.881043</ele>
        <time>2026-08-29T13:27:42.902Z</time>
      </trkpt>
      <trkpt lat="52.148244" lon="5.080022">
        <ele>-0.842502</ele>
        <time>2026-08-29T13:27:44.901Z</time>
      </trkpt>
      <trkpt lat="52.148184" lon="5.080154">
        <ele>-0.806092</ele>
        <time>2026-08-29T13:27:46.911Z</time>
      </trkpt>
      <trkpt lat="52.148127" lon="5.080281">
        <ele>-0.771217</ele>
        <time>2026-08-29T13:27:48.898Z</time>
      </trkpt>
      <trkpt lat="52.148066" lon="5.080430">
        <ele>-0.731516</ele>
        <time>2026-08-29T13:27:50.895Z</time>
      </trkpt>
      <trkpt lat="52.148005" lon="5.080567">
        <ele>-0.693999</ele>
        <time>2026-08-29T13:27:52.903Z</time>
      </trkpt>
      <trkpt lat="52.147943" lon="5.080703">
        <ele>-0.656447</ele>
        <time>2026-08-29T13:27:54.900Z</time>
      </trkpt>
      <trkpt lat="52.147883" lon="5.080837">
        <ele>-0.619680</ele>
        <time>2026-08-29T13:27:56.905Z</time>
      </trkpt>
      <trkpt lat="52.147819" lon="5.080983">
        <ele>-0.612205</ele>
        <time>2026-08-29T13:27:58.892Z</time>
      </trkpt>
      <trkpt lat="52.147754" lon="5.081120">
        <ele>-0.652940</ele>
        <time>2026-08-29T13:28:00.900Z</time>
      </trkpt>
      <trkpt lat="52.147690" lon="5.081255">
        <ele>-0.693067</ele>
        <time>2026-08-29T13:28:02.900Z</time>
      </trkpt>
      <trkpt lat="52.147624" lon="5.081399">
        <ele>-0.735345</ele>
        <time>2026-08-29T13:28:04.898Z</time>
      </trkpt>
      <trkpt lat="52.147563" lon="5.081544">
        <ele>-0.776697</ele>
        <time>2026-08-29T13:28:06.903Z</time>
      </trkpt>
      <trkpt lat="52.147504" lon="5.081684">
        <ele>-0.816647</ele>
        <time>2026-08-29T13:28:08.903Z</time>
      </trkpt>
      <trkpt lat="52.147439" lon="5.081829">
        <ele>-0.858886</ele>
        <time>2026-08-29T13:28:10.900Z</time>
      </trkpt>
      <trkpt lat="52.147377" lon="5.081973">
        <ele>-0.900264</ele>
        <time>2026-08-29T13:28:12.902Z</time>
      </trkpt>
      <trkpt lat="52.147318" lon="5.082116">
        <ele>-0.940797</ele>
        <time>2026-08-29T13:28:14.899Z</time>
      </trkpt>
      <trkpt lat="52.147256" lon="5.082261">
        <ele>-0.982368</ele>
        <time>2026-08-29T13:28:16.900Z</time>
      </trkpt>
      <trkpt lat="52.147193" lon="5.082400">
        <ele>-1.023015</ele>
        <time>2026-08-29T13:28:18.903Z</time>
      </trkpt>
      <trkpt lat="52.147135" lon="5.082537">
        <ele>-1.062166</ele>
        <time>2026-08-29T13:28:20.903Z</time>
      </trkpt>
      <trkpt lat="52.147076" lon="5.082671">
        <ele>-1.100961</ele>
        <time>2026-08-29T13:28:22.903Z</time>
      </trkpt>
      <trkpt lat="52.147016" lon="5.082807">
        <ele>-1.140361</ele>
        <time>2026-08-29T13:28:24.906Z</time>
      </trkpt>
      <trkpt lat="52.146959" lon="5.082945">
        <ele>-1.179490</ele>
        <time>2026-08-29T13:28:26.900Z</time>
      </trkpt>
      <trkpt lat="52.146908" lon="5.083072">
        <ele>-1.215192</ele>
        <time>2026-08-29T13:28:28.894Z</time>
      </trkpt>
      <trkpt lat="52.146853" lon="5.083238">
        <ele>-1.259568</ele>
        <time>2026-08-29T13:28:31.893Z</time>
      </trkpt>
      <trkpt lat="52.146903" lon="5.083371">
        <ele>-1.269825</ele>
        <time>2026-08-29T13:28:34.896Z</time>
      </trkpt>
      <trkpt lat="52.147023" lon="5.083513">
        <ele>-1.192622</ele>
        <time>2026-08-29T13:28:37.901Z</time>
      </trkpt>
      <trkpt lat="52.147110" lon="5.083592">
        <ele>-1.140774</ele>
        <time>2026-08-29T13:28:39.900Z</time>
      </trkpt>
      <trkpt lat="52.147207" lon="5.083695">
        <ele>-1.080502</ele>
        <time>2026-08-29T13:28:41.900Z</time>
      </trkpt>
      <trkpt lat="52.147298" lon="5.083811">
        <ele>-1.020357</ele>
        <time>2026-08-29T13:28:43.900Z</time>
      </trkpt>
      <trkpt lat="52.147391" lon="5.083924">
        <ele>-0.959966</ele>
        <time>2026-08-29T13:28:45.906Z</time>
      </trkpt>
      <trkpt lat="52.147488" lon="5.084039">
        <ele>-0.897520</ele>
        <time>2026-08-29T13:28:48.899Z</time>
      </trkpt>
      <trkpt lat="52.147553" lon="5.084157">
        <ele>-0.846865</ele>
        <time>2026-08-29T13:28:51.900Z</time>
      </trkpt>
      <trkpt lat="52.147625" lon="5.084259">
        <ele>-0.797199</ele>
        <time>2026-08-29T13:28:54.900Z</time>
      </trkpt>
      <trkpt lat="52.147702" lon="5.084385">
        <ele>-0.740393</ele>
        <time>2026-08-29T13:28:57.894Z</time>
      </trkpt>
      <trkpt lat="52.147797" lon="5.084509">
        <ele>-0.677029</ele>
        <time>2026-08-29T13:29:00.893Z</time>
      </trkpt>
      <trkpt lat="52.147889" lon="5.084635">
        <ele>-0.614468</ele>
        <time>2026-08-29T13:29:03.900Z</time>
      </trkpt>
      <trkpt lat="52.147977" lon="5.084765">
        <ele>-0.552635</ele>
        <time>2026-08-29T13:29:06.900Z</time>
      </trkpt>
      <trkpt lat="52.148074" lon="5.084893">
        <ele>-0.487659</ele>
        <time>2026-08-29T13:29:09.900Z</time>
      </trkpt>
      <trkpt lat="52.148166" lon="5.085032">
        <ele>-0.422348</ele>
        <time>2026-08-29T13:29:12.900Z</time>
      </trkpt>
      <trkpt lat="52.148256" lon="5.085158">
        <ele>-0.360580</ele>
        <time>2026-08-29T13:29:15.901Z</time>
      </trkpt>
      <trkpt lat="52.148350" lon="5.085276">
        <ele>-0.328946</ele>
        <time>2026-08-29T13:29:18.900Z</time>
      </trkpt>
      <trkpt lat="52.148446" lon="5.085417">
        <ele>-0.302314</ele>
        <time>2026-08-29T13:29:21.900Z</time>
      </trkpt>
      <trkpt lat="52.148515" lon="5.085510">
        <ele>-0.283862</ele>
        <time>2026-08-29T13:29:23.900Z</time>
      </trkpt>
      <trkpt lat="52.148582" lon="5.085615">
        <ele>-0.264706</ele>
        <time>2026-08-29T13:29:25.900Z</time>
      </trkpt>
      <trkpt lat="52.148651" lon="5.085715">
        <ele>-0.245678</ele>
        <time>2026-08-29T13:29:27.900Z</time>
      </trkpt>
      <trkpt lat="52.148723" lon="5.085821">
        <ele>-0.225682</ele>
        <time>2026-08-29T13:29:29.900Z</time>
      </trkpt>
      <trkpt lat="52.148805" lon="5.085940">
        <ele>-0.203055</ele>
        <time>2026-08-29T13:29:31.903Z</time>
      </trkpt>
      <trkpt lat="52.148891" lon="5.086060">
        <ele>-0.179724</ele>
        <time>2026-08-29T13:29:33.901Z</time>
      </trkpt>
      <trkpt lat="52.148975" lon="5.086171">
        <ele>-0.157438</ele>
        <time>2026-08-29T13:29:35.895Z</time>
      </trkpt>
      <trkpt lat="52.149062" lon="5.086289">
        <ele>-0.134112</ele>
        <time>2026-08-29T13:29:37.900Z</time>
      </trkpt>
      <trkpt lat="52.149149" lon="5.086408">
        <ele>-0.110706</ele>
        <time>2026-08-29T13:29:39.899Z</time>
      </trkpt>
      <trkpt lat="52.149227" lon="5.086548">
        <ele>-0.086794</ele>
        <time>2026-08-29T13:29:41.900Z</time>
      </trkpt>
      <trkpt lat="52.149294" lon="5.086692">
        <ele>-0.063943</ele>
        <time>2026-08-29T13:29:43.896Z</time>
      </trkpt>
      <trkpt lat="52.149337" lon="5.086860">
        <ele>-0.040925</ele>
        <time>2026-08-29T13:29:45.900Z</time>
      </trkpt>
      <trkpt lat="52.149339" lon="5.087048">
        <ele>-0.017149</ele>
        <time>2026-08-29T13:29:47.900Z</time>
      </trkpt>
      <trkpt lat="52.149319" lon="5.087232">
        <ele>0.006480</ele>
        <time>2026-08-29T13:29:49.895Z</time>
      </trkpt>
      <trkpt lat="52.149295" lon="5.087415">
        <ele>0.031843</ele>
        <time>2026-08-29T13:29:51.901Z</time>
      </trkpt>
      <trkpt lat="52.149282" lon="5.087595">
        <ele>0.059525</ele>
        <time>2026-08-29T13:29:53.900Z</time>
      </trkpt>
      <trkpt lat="52.149299" lon="5.087779">
        <ele>0.087944</ele>
        <time>2026-08-29T13:29:55.901Z</time>
      </trkpt>
      <trkpt lat="52.149352" lon="5.087939">
        <ele>0.115715</ele>
        <time>2026-08-29T13:29:57.893Z</time>
      </trkpt>
      <trkpt lat="52.149430" lon="5.088082">
        <ele>0.144938</ele>
        <time>2026-08-29T13:29:59.902Z</time>
      </trkpt>
      <trkpt lat="52.149512" lon="5.088198">
        <ele>0.171965</ele>
        <time>2026-08-29T13:30:01.899Z</time>
      </trkpt>
      <trkpt lat="52.149606" lon="5.088318">
        <ele>0.201687</ele>
        <time>2026-08-29T13:30:03.900Z</time>
      </trkpt>
      <trkpt lat="52.149700" lon="5.088439">
        <ele>0.231503</ele>
        <time>2026-08-29T13:30:05.900Z</time>
      </trkpt>
      <trkpt lat="52.149798" lon="5.088570">
        <ele>0.263052</ele>
        <time>2026-08-29T13:30:07.900Z</time>
      </trkpt>
      <trkpt lat="52.149897" lon="5.088690">
        <ele>0.293762</ele>
        <time>2026-08-29T13:30:09.901Z</time>
      </trkpt>
      <trkpt lat="52.149991" lon="5.088819">
        <ele>0.324350</ele>
        <time>2026-08-29T13:30:11.900Z</time>
      </trkpt>
      <trkpt lat="52.150073" lon="5.088939">
        <ele>0.351782</ele>
        <time>2026-08-29T13:30:13.899Z</time>
      </trkpt>
      <trkpt lat="52.150163" lon="5.089069">
        <ele>0.381717</ele>
        <time>2026-08-29T13:30:15.901Z</time>
      </trkpt>
      <trkpt lat="52.150249" lon="5.089202">
        <ele>0.411227</ele>
        <time>2026-08-29T13:30:17.901Z</time>
      </trkpt>
      <trkpt lat="52.150341" lon="5.089330">
        <ele>0.441336</ele>
        <time>2026-08-29T13:30:19.901Z</time>
      </trkpt>
      <trkpt lat="52.150430" lon="5.089457">
        <ele>0.469155</ele>
        <time>2026-08-29T13:30:21.897Z</time>
      </trkpt>
      <trkpt lat="52.150521" lon="5.089584">
        <ele>0.455389</ele>
        <time>2026-08-29T13:30:23.900Z</time>
      </trkpt>
      <trkpt lat="52.150614" lon="5.089707">
        <ele>0.441628</ele>
        <time>2026-08-29T13:30:25.908Z</time>
      </trkpt>
      <trkpt lat="52.150710" lon="5.089820">
        <ele>0.428022</ele>
        <time>2026-08-29T13:30:27.910Z</time>
      </trkpt>
      <trkpt lat="52.150786" lon="5.089945">
        <ele>0.415616</ele>
        <time>2026-08-29T13:30:29.896Z</time>
      </trkpt>
      <trkpt lat="52.150865" lon="5.090058">
        <ele>0.403539</ele>
        <time>2026-08-29T13:30:31.895Z</time>
      </trkpt>
      <trkpt lat="52.150960" lon="5.090174">
        <ele>0.389900</ele>
        <time>2026-08-29T13:30:33.896Z</time>
      </trkpt>
      <trkpt lat="52.151052" lon="5.090292">
        <ele>0.376449</ele>
        <time>2026-08-29T13:30:35.895Z</time>
      </trkpt>
      <trkpt lat="52.151137" lon="5.090414">
        <ele>0.363435</ele>
        <time>2026-08-29T13:30:37.896Z</time>
      </trkpt>
      <trkpt lat="52.151236" lon="5.090536">
        <ele>0.349175</ele>
        <time>2026-08-29T13:30:39.898Z</time>
      </trkpt>
      <trkpt lat="52.151329" lon="5.090653">
        <ele>0.335676</ele>
        <time>2026-08-29T13:30:41.895Z</time>
      </trkpt>
      <trkpt lat="52.151422" lon="5.090771">
        <ele>0.322135</ele>
        <time>2026-08-29T13:30:43.895Z</time>
      </trkpt>
      <trkpt lat="52.151515" lon="5.090887">
        <ele>0.308679</ele>
        <time>2026-08-29T13:30:45.900Z</time>
      </trkpt>
      <trkpt lat="52.151598" lon="5.090995">
        <ele>0.296476</ele>
        <time>2026-08-29T13:30:47.895Z</time>
      </trkpt>
      <trkpt lat="52.151695" lon="5.091110">
        <ele>0.282694</ele>
        <time>2026-08-29T13:30:49.900Z</time>
      </trkpt>
      <trkpt lat="52.151783" lon="5.091229">
        <ele>0.269556</ele>
        <time>2026-08-29T13:30:51.899Z</time>
      </trkpt>
      <trkpt lat="52.151874" lon="5.091354">
        <ele>0.254434</ele>
        <time>2026-08-29T13:30:53.894Z</time>
      </trkpt>
      <trkpt lat="52.151962" lon="5.091485">
        <ele>0.237957</ele>
        <time>2026-08-29T13:30:55.900Z</time>
      </trkpt>
      <trkpt lat="52.152049" lon="5.091620">
        <ele>0.221350</ele>
        <time>2026-08-29T13:30:57.899Z</time>
      </trkpt>
      <trkpt lat="52.152139" lon="5.091753">
        <ele>0.204554</ele>
        <time>2026-08-29T13:30:59.900Z</time>
      </trkpt>
      <trkpt lat="52.152231" lon="5.091889">
        <ele>0.187383</ele>
        <time>2026-08-29T13:31:01.894Z</time>
      </trkpt>
      <trkpt lat="52.152323" lon="5.092023">
        <ele>0.170325</ele>
        <time>2026-08-29T13:31:03.894Z</time>
      </trkpt>
      <trkpt lat="52.152417" lon="5.092144">
        <ele>0.153765</ele>
        <time>2026-08-29T13:31:05.893Z</time>
      </trkpt>
      <trkpt lat="52.152503" lon="5.092272">
        <ele>0.137664</ele>
        <time>2026-08-29T13:31:07.890Z</time>
      </trkpt>
      <trkpt lat="52.152594" lon="5.092402">
        <ele>0.120935</ele>
        <time>2026-08-29T13:31:09.896Z</time>
      </trkpt>
      <trkpt lat="52.152682" lon="5.092528">
        <ele>0.104741</ele>
        <time>2026-08-29T13:31:11.901Z</time>
      </trkpt>
      <trkpt lat="52.152767" lon="5.092650">
        <ele>0.089083</ele>
        <time>2026-08-29T13:31:13.899Z</time>
      </trkpt>
      <trkpt lat="52.152859" lon="5.092769">
        <ele>0.072846</ele>
        <time>2026-08-29T13:31:15.902Z</time>
      </trkpt>
      <trkpt lat="52.152947" lon="5.092904">
        <ele>0.056138</ele>
        <time>2026-08-29T13:31:17.905Z</time>
      </trkpt>
      <trkpt lat="52.153030" lon="5.093025">
        <ele>0.040743</ele>
        <time>2026-08-29T13:31:19.917Z</time>
      </trkpt>
      <trkpt lat="52.153114" lon="5.093155">
        <ele>0.024729</ele>
        <time>2026-08-29T13:31:21.901Z</time>
      </trkpt>
      <trkpt lat="52.153202" lon="5.093280">
        <ele>0.013967</ele>
        <time>2026-08-29T13:31:23.894Z</time>
      </trkpt>
      <trkpt lat="52.153286" lon="5.093423">
        <ele>0.012849</ele>
        <time>2026-08-29T13:31:25.894Z</time>
      </trkpt>
      <trkpt lat="52.153372" lon="5.093545">
        <ele>0.011799</ele>
        <time>2026-08-29T13:31:27.889Z</time>
      </trkpt>
      <trkpt lat="52.153456" lon="5.093668">
        <ele>0.010760</ele>
        <time>2026-08-29T13:31:29.890Z</time>
      </trkpt>
      <trkpt lat="52.153542" lon="5.093788">
        <ele>0.009717</ele>
        <time>2026-08-29T13:31:31.901Z</time>
      </trkpt>
      <trkpt lat="52.153635" lon="5.093892">
        <ele>0.008679</ele>
        <time>2026-08-29T13:31:33.900Z</time>
      </trkpt>
      <trkpt lat="52.153740" lon="5.093978">
        <ele>0.007597</ele>
        <time>2026-08-29T13:31:35.899Z</time>
      </trkpt>
      <trkpt lat="52.153849" lon="5.094052">
        <ele>0.006510</ele>
        <time>2026-08-29T13:31:37.900Z</time>
      </trkpt>
      <trkpt lat="52.153949" lon="5.094125">
        <ele>0.005502</ele>
        <time>2026-08-29T13:31:39.893Z</time>
      </trkpt>
      <trkpt lat="52.154049" lon="5.094206">
        <ele>0.004474</ele>
        <time>2026-08-29T13:31:41.894Z</time>
      </trkpt>
      <trkpt lat="52.154159" lon="5.094296">
        <ele>0.003340</ele>
        <time>2026-08-29T13:31:43.896Z</time>
      </trkpt>
      <trkpt lat="52.154259" lon="5.094402">
        <ele>0.002242</ele>
        <time>2026-08-29T13:31:45.899Z</time>
      </trkpt>
      <trkpt lat="52.154351" lon="5.094515">
        <ele>0.001182</ele>
        <time>2026-08-29T13:31:47.900Z</time>
      </trkpt>
      <trkpt lat="52.154437" lon="5.094632">
        <ele>0.000151</ele>
        <time>2026-08-29T13:31:49.901Z</time>
      </trkpt>
      <trkpt lat="52.154521" lon="5.094749">
        <ele>-0.000867</ele>
        <time>2026-08-29T13:31:51.895Z</time>
      </trkpt>
      <trkpt lat="52.154608" lon="5.094877">
        <ele>-0.001946</ele>
        <time>2026-08-29T13:31:53.900Z</time>
      </trkpt>
      <trkpt lat="52.154694" lon="5.095007">
        <ele>-0.009129</ele>
        <time>2026-08-29T13:31:55.900Z</time>
      </trkpt>
      <trkpt lat="52.154784" lon="5.095126">
        <ele>-0.018159</ele>
        <time>2026-08-29T13:31:57.899Z</time>
      </trkpt>
      <trkpt lat="52.154861" lon="5.095248">
        <ele>-0.026527</ele>
        <time>2026-08-29T13:31:59.900Z</time>
      </trkpt>
      <trkpt lat="52.154925" lon="5.095359">
        <ele>-0.033809</ele>
        <time>2026-08-29T13:32:01.900Z</time>
      </trkpt>
      <trkpt lat="52.155016" lon="5.095389">
        <ele>-0.041043</ele>
        <time>2026-08-29T13:32:04.901Z</time>
      </trkpt>
      <trkpt lat="52.155079" lon="5.095211">
        <ele>-0.050867</ele>
        <time>2026-08-29T13:32:08.901Z</time>
      </trkpt>
      <trkpt lat="52.155137" lon="5.095097">
        <ele>-0.057947</ele>
        <time>2026-08-29T13:32:10.916Z</time>
      </trkpt>
      <trkpt lat="52.155208" lon="5.094972">
        <ele>-0.066091</ele>
        <time>2026-08-29T13:32:12.897Z</time>
      </trkpt>
      <trkpt lat="52.155274" lon="5.094845">
        <ele>-0.074048</ele>
        <time>2026-08-29T13:32:14.900Z</time>
      </trkpt>
      <trkpt lat="52.155342" lon="5.094728">
        <ele>-0.081752</ele>
        <time>2026-08-29T13:32:16.901Z</time>
      </trkpt>
      <trkpt lat="52.155409" lon="5.094589">
        <ele>-0.090203</ele>
        <time>2026-08-29T13:32:18.901Z</time>
      </trkpt>
      <trkpt lat="52.155475" lon="5.094450">
        <ele>-0.098606</ele>
        <time>2026-08-29T13:32:20.900Z</time>
      </trkpt>
      <trkpt lat="52.155541" lon="5.094322">
        <ele>-0.106599</ele>
        <time>2026-08-29T13:32:22.901Z</time>
      </trkpt>
      <trkpt lat="52.155601" lon="5.094185">
        <ele>-0.114646</ele>
        <time>2026-08-29T13:32:24.901Z</time>
      </trkpt>
      <trkpt lat="52.155664" lon="5.094045">
        <ele>-0.122946</ele>
        <time>2026-08-29T13:32:26.896Z</time>
      </trkpt>
      <trkpt lat="52.155727" lon="5.093893">
        <ele>-0.131715</ele>
        <time>2026-08-29T13:32:28.901Z</time>
      </trkpt>
      <trkpt lat="52.155801" lon="5.093756">
        <ele>-0.140441</ele>
        <time>2026-08-29T13:32:30.901Z</time>
      </trkpt>
      <trkpt lat="52.155868" lon="5.093614">
        <ele>-0.117488</ele>
        <time>2026-08-29T13:32:32.899Z</time>
      </trkpt>
      <trkpt lat="52.155931" lon="5.093472">
        <ele>-0.086130</ele>
        <time>2026-08-29T13:32:34.899Z</time>
      </trkpt>
      <trkpt lat="52.156006" lon="5.093328">
        <ele>-0.052330</ele>
        <time>2026-08-29T13:32:36.900Z</time>
      </trkpt>
      <trkpt lat="52.156078" lon="5.093187">
        <ele>-0.019504</ele>
        <time>2026-08-29T13:32:38.900Z</time>
      </trkpt>
      <trkpt lat="52.156152" lon="5.093059">
        <ele>0.011967</ele>
        <time>2026-08-29T13:32:40.900Z</time>
      </trkpt>
      <trkpt lat="52.156228" lon="5.092915">
        <ele>0.045957</ele>
        <time>2026-08-29T13:32:42.900Z</time>
      </trkpt>
      <trkpt lat="52.156307" lon="5.092777">
        <ele>0.079730</ele>
        <time>2026-08-29T13:32:44.901Z</time>
      </trkpt>
      <trkpt lat="52.156384" lon="5.092640">
        <ele>0.112977</ele>
        <time>2026-08-29T13:32:46.900Z</time>
      </trkpt>
      <trkpt lat="52.156466" lon="5.092496">
        <ele>0.148133</ele>
        <time>2026-08-29T13:32:48.901Z</time>
      </trkpt>
      <trkpt lat="52.156550" lon="5.092352">
        <ele>0.183688</ele>
        <time>2026-08-29T13:32:50.901Z</time>
      </trkpt>
      <trkpt lat="52.156626" lon="5.092237">
        <ele>0.213933</ele>
        <time>2026-08-29T13:32:52.900Z</time>
      </trkpt>
      <trkpt lat="52.156708" lon="5.092111">
        <ele>0.246802</ele>
        <time>2026-08-29T13:32:54.901Z</time>
      </trkpt>
      <trkpt lat="52.156785" lon="5.091989">
        <ele>0.278121</ele>
        <time>2026-08-29T13:32:56.902Z</time>
      </trkpt>
      <trkpt lat="52.156877" lon="5.091871">
        <ele>0.312265</ele>
        <time>2026-08-29T13:32:58.901Z</time>
      </trkpt>
      <trkpt lat="52.156972" lon="5.091758">
        <ele>0.346567</ele>
        <time>2026-08-29T13:33:00.901Z</time>
      </trkpt>
      <trkpt lat="52.157068" lon="5.091647">
        <ele>0.380895</ele>
        <time>2026-08-29T13:33:02.900Z</time>
      </trkpt>
      <trkpt lat="52.157167" lon="5.091547">
        <ele>0.410661</ele>
        <time>2026-08-29T13:33:04.894Z</time>
      </trkpt>
      <trkpt lat="52.157267" lon="5.091461">
        <ele>0.439388</ele>
        <time>2026-08-29T13:33:06.900Z</time>
      </trkpt>
      <trkpt lat="52.157377" lon="5.091365">
        <ele>0.471091</ele>
        <time>2026-08-29T13:33:08.893Z</time>
      </trkpt>
      <trkpt lat="52.157486" lon="5.091287">
        <ele>0.501337</ele>
        <time>2026-08-29T13:33:10.894Z</time>
      </trkpt>
      <trkpt lat="52.157595" lon="5.091215">
        <ele>0.531220</ele>
        <time>2026-08-29T13:33:12.895Z</time>
      </trkpt>
      <trkpt lat="52.157706" lon="5.091135">
        <ele>0.562056</ele>
        <time>2026-08-29T13:33:14.896Z</time>
      </trkpt>
      <trkpt lat="52.157809" lon="5.091059">
        <ele>0.590783</ele>
        <time>2026-08-29T13:33:16.908Z</time>
      </trkpt>
      <trkpt lat="52.157918" lon="5.090983">
        <ele>0.620905</ele>
        <time>2026-08-29T13:33:18.895Z</time>
      </trkpt>
      <trkpt lat="52.158023" lon="5.090904">
        <ele>0.650289</ele>
        <time>2026-08-29T13:33:20.891Z</time>
      </trkpt>
      <trkpt lat="52.158123" lon="5.090833">
        <ele>0.678002</ele>
        <time>2026-08-29T13:33:22.895Z</time>
      </trkpt>
      <trkpt lat="52.158225" lon="5.090751">
        <ele>0.706899</ele>
        <time>2026-08-29T13:33:24.897Z</time>
      </trkpt>
      <trkpt lat="52.158331" lon="5.090678">
        <ele>0.736137</ele>
        <time>2026-08-29T13:33:26.896Z</time>
      </trkpt>
      <trkpt lat="52.158432" lon="5.090598">
        <ele>0.764668</ele>
        <time>2026-08-29T13:33:28.897Z</time>
      </trkpt>
      <trkpt lat="52.158531" lon="5.090515">
        <ele>0.792954</ele>
        <time>2026-08-29T13:33:30.894Z</time>
      </trkpt>
      <trkpt lat="52.158625" lon="5.090416">
        <ele>0.821389</ele>
        <time>2026-08-29T13:33:32.894Z</time>
      </trkpt>
      <trkpt lat="52.158720" lon="5.090307">
        <ele>0.834261</ele>
        <time>2026-08-29T13:33:34.908Z</time>
      </trkpt>
      <trkpt lat="52.158818" lon="5.090205">
        <ele>0.821662</ele>
        <time>2026-08-29T13:33:36.896Z</time>
      </trkpt>
      <trkpt lat="52.158908" lon="5.090102">
        <ele>0.809747</ele>
        <time>2026-08-29T13:33:38.897Z</time>
      </trkpt>
      <trkpt lat="52.158997" lon="5.090000">
        <ele>0.797958</ele>
        <time>2026-08-29T13:33:40.901Z</time>
      </trkpt>
      <trkpt lat="52.159097" lon="5.089883">
        <ele>0.784620</ele>
        <time>2026-08-29T13:33:42.908Z</time>
      </trkpt>
      <trkpt lat="52.159184" lon="5.089767">
        <ele>0.772441</ele>
        <time>2026-08-29T13:33:44.896Z</time>
      </trkpt>
      <trkpt lat="52.159281" lon="5.089649">
        <ele>0.759326</ele>
        <time>2026-08-29T13:33:46.908Z</time>
      </trkpt>
      <trkpt lat="52.159384" lon="5.089537">
        <ele>0.745910</ele>
        <time>2026-08-29T13:33:48.901Z</time>
      </trkpt>
      <trkpt lat="52.159488" lon="5.089436">
        <ele>0.732793</ele>
        <time>2026-08-29T13:33:50.894Z</time>
      </trkpt>
      <trkpt lat="52.159598" lon="5.089328">
        <ele>0.718878</ele>
        <time>2026-08-29T13:33:52.896Z</time>
      </trkpt>
      <trkpt lat="52.159707" lon="5.089225">
        <ele>0.705226</ele>
        <time>2026-08-29T13:33:54.897Z</time>
      </trkpt>
      <trkpt lat="52.159815" lon="5.089125">
        <ele>0.691768</ele>
        <time>2026-08-29T13:33:56.901Z</time>
      </trkpt>
      <trkpt lat="52.159918" lon="5.089019">
        <ele>0.678569</ele>
        <time>2026-08-29T13:33:58.908Z</time>
      </trkpt>
      <trkpt lat="52.160022" lon="5.088919">
        <ele>0.665485</ele>
        <time>2026-08-29T13:34:00.908Z</time>
      </trkpt>
      <trkpt lat="52.160122" lon="5.088823">
        <ele>0.652910</ele>
        <time>2026-08-29T13:34:02.898Z</time>
      </trkpt>
      <trkpt lat="52.160217" lon="5.088731">
        <ele>0.629790</ele>
        <time>2026-08-29T13:34:04.908Z</time>
      </trkpt>
      <trkpt lat="52.160316" lon="5.088629">
        <ele>0.575567</ele>
        <time>2026-08-29T13:34:06.898Z</time>
      </trkpt>
      <trkpt lat="52.160421" lon="5.088526">
        <ele>0.518830</ele>
        <time>2026-08-29T13:34:08.893Z</time>
      </trkpt>
      <trkpt lat="52.160529" lon="5.088422">
        <ele>0.460754</ele>
        <time>2026-08-29T13:34:10.908Z</time>
      </trkpt>
      <trkpt lat="52.160634" lon="5.088306">
        <ele>0.402028</ele>
        <time>2026-08-29T13:34:12.896Z</time>
      </trkpt>
      <trkpt lat="52.160746" lon="5.088180">
        <ele>0.339023</ele>
        <time>2026-08-29T13:34:14.898Z</time>
      </trkpt>
      <trkpt lat="52.160858" lon="5.088074">
        <ele>0.279063</ele>
        <time>2026-08-29T13:34:16.898Z</time>
      </trkpt>
      <trkpt lat="52.160972" lon="5.087968">
        <ele>0.218300</ele>
        <time>2026-08-29T13:34:18.894Z</time>
      </trkpt>
      <trkpt lat="52.161076" lon="5.087861">
        <ele>0.161361</ele>
        <time>2026-08-29T13:34:20.895Z</time>
      </trkpt>
      <trkpt lat="52.161184" lon="5.087760">
        <ele>0.103714</ele>
        <time>2026-08-29T13:34:22.898Z</time>
      </trkpt>
      <trkpt lat="52.161287" lon="5.087658">
        <ele>0.047917</ele>
        <time>2026-08-29T13:34:24.897Z</time>
      </trkpt>
      <trkpt lat="52.161396" lon="5.087548">
        <ele>-0.011436</ele>
        <time>2026-08-29T13:34:26.895Z</time>
      </trkpt>
      <trkpt lat="52.161499" lon="5.087443">
        <ele>-0.067681</ele>
        <time>2026-08-29T13:34:28.901Z</time>
      </trkpt>
      <trkpt lat="52.161601" lon="5.087338">
        <ele>-0.123533</ele>
        <time>2026-08-29T13:34:30.908Z</time>
      </trkpt>
      <trkpt lat="52.161700" lon="5.087238">
        <ele>-0.177455</ele>
        <time>2026-08-29T13:34:32.908Z</time>
      </trkpt>
      <trkpt lat="52.161790" lon="5.087140">
        <ele>-0.151422</ele>
        <time>2026-08-29T13:34:34.908Z</time>
      </trkpt>
      <trkpt lat="52.161886" lon="5.087051">
        <ele>-0.103129</ele>
        <time>2026-08-29T13:34:36.908Z</time>
      </trkpt>
      <trkpt lat="52.161982" lon="5.086954">
        <ele>-0.053740</ele>
        <time>2026-08-29T13:34:38.908Z</time>
      </trkpt>
      <trkpt lat="52.162093" lon="5.086853">
        <ele>0.001847</ele>
        <time>2026-08-29T13:34:40.896Z</time>
      </trkpt>
      <trkpt lat="52.162192" lon="5.086749">
        <ele>0.053348</ele>
        <time>2026-08-29T13:34:42.896Z</time>
      </trkpt>
      <trkpt lat="52.162297" lon="5.086655">
        <ele>0.105731</ele>
        <time>2026-08-29T13:34:44.898Z</time>
      </trkpt>
      <trkpt lat="52.162393" lon="5.086574">
        <ele>0.153000</ele>
        <time>2026-08-29T13:34:46.897Z</time>
      </trkpt>
      <trkpt lat="52.162492" lon="5.086480">
        <ele>0.203099</ele>
        <time>2026-08-29T13:34:48.908Z</time>
      </trkpt>
      <trkpt lat="52.162591" lon="5.086387">
        <ele>0.253063</ele>
        <time>2026-08-29T13:34:50.908Z</time>
      </trkpt>
      <trkpt lat="52.162684" lon="5.086282">
        <ele>0.302532</ele>
        <time>2026-08-29T13:34:52.894Z</time>
      </trkpt>
      <trkpt lat="52.162777" lon="5.086182">
        <ele>0.351249</ele>
        <time>2026-08-29T13:34:54.893Z</time>
      </trkpt>
      <trkpt lat="52.162878" lon="5.086070">
        <ele>0.404664</ele>
        <time>2026-08-29T13:34:56.908Z</time>
      </trkpt>
      <trkpt lat="52.162972" lon="5.085970">
        <ele>0.453746</ele>
        <time>2026-08-29T13:34:58.894Z</time>
      </trkpt>
      <trkpt lat="52.163067" lon="5.085869">
        <ele>0.503342</ele>
        <time>2026-08-29T13:35:00.897Z</time>
      </trkpt>
      <trkpt lat="52.163161" lon="5.085764">
        <ele>0.553170</ele>
        <time>2026-08-29T13:35:02.893Z</time>
      </trkpt>
      <trkpt lat="52.163259" lon="5.085658">
        <ele>0.592257</ele>
        <time>2026-08-29T13:35:04.908Z</time>
      </trkpt>
      <trkpt lat="52.163354" lon="5.085562">
        <ele>0.548161</ele>
        <time>2026-08-29T13:35:06.897Z</time>
      </trkpt>
      <trkpt lat="52.163453" lon="5.085465">
        <ele>0.502591</ele>
        <time>2026-08-29T13:35:08.897Z</time>
      </trkpt>
      <trkpt lat="52.163553" lon="5.085363">
        <ele>0.456053</ele>
        <time>2026-08-29T13:35:10.895Z</time>
      </trkpt>
      <trkpt lat="52.163652" lon="5.085262">
        <ele>0.409977</ele>
        <time>2026-08-29T13:35:12.893Z</time>
      </trkpt>
      <trkpt lat="52.163753" lon="5.085155">
        <ele>0.362455</ele>
        <time>2026-08-29T13:35:14.908Z</time>
      </trkpt>
      <trkpt lat="52.163853" lon="5.085050">
        <ele>0.315528</ele>
        <time>2026-08-29T13:35:16.897Z</time>
      </trkpt>
      <trkpt lat="52.163945" lon="5.084953">
        <ele>0.272302</ele>
        <time>2026-08-29T13:35:18.908Z</time>
      </trkpt>
      <trkpt lat="52.164045" lon="5.084843">
        <ele>0.224709</ele>
        <time>2026-08-29T13:35:20.894Z</time>
      </trkpt>
      <trkpt lat="52.164153" lon="5.084744">
        <ele>0.175826</ele>
        <time>2026-08-29T13:35:22.908Z</time>
      </trkpt>
      <trkpt lat="52.164257" lon="5.084654">
        <ele>0.129373</ele>
        <time>2026-08-29T13:35:24.895Z</time>
      </trkpt>
      <trkpt lat="52.164364" lon="5.084573">
        <ele>0.082830</ele>
        <time>2026-08-29T13:35:26.908Z</time>
      </trkpt>
      <trkpt lat="52.164466" lon="5.084489">
        <ele>0.037745</ele>
        <time>2026-08-29T13:35:28.895Z</time>
      </trkpt>
      <trkpt lat="52.164570" lon="5.084412">
        <ele>-0.007319</ele>
        <time>2026-08-29T13:35:30.896Z</time>
      </trkpt>
      <trkpt lat="52.164675" lon="5.084352">
        <ele>-0.051215</ele>
        <time>2026-08-29T13:35:32.895Z</time>
      </trkpt>
      <trkpt lat="52.164774" lon="5.084282">
        <ele>-0.093788</ele>
        <time>2026-08-29T13:35:34.896Z</time>
      </trkpt>
      <trkpt lat="52.164873" lon="5.084212">
        <ele>-0.093063</ele>
        <time>2026-08-29T13:35:36.896Z</time>
      </trkpt>
      <trkpt lat="52.164977" lon="5.084137">
        <ele>-0.059793</ele>
        <time>2026-08-29T13:35:38.900Z</time>
      </trkpt>
      <trkpt lat="52.165078" lon="5.084059">
        <ele>-0.027097</ele>
        <time>2026-08-29T13:35:40.894Z</time>
      </trkpt>
      <trkpt lat="52.165175" lon="5.083988">
        <ele>0.004010</ele>
        <time>2026-08-29T13:35:42.897Z</time>
      </trkpt>
      <trkpt lat="52.165268" lon="5.083919">
        <ele>0.033903</ele>
        <time>2026-08-29T13:35:44.895Z</time>
      </trkpt>
      <trkpt lat="52.165357" lon="5.083849">
        <ele>0.062812</ele>
        <time>2026-08-29T13:35:46.898Z</time>
      </trkpt>
      <trkpt lat="52.165451" lon="5.083792">
        <ele>0.092153</ele>
        <time>2026-08-29T13:35:48.897Z</time>
      </trkpt>
      <trkpt lat="52.165552" lon="5.083730">
        <ele>0.123727</ele>
        <time>2026-08-29T13:35:50.898Z</time>
      </trkpt>
      <trkpt lat="52.165655" lon="5.083653">
        <ele>0.156878</ele>
        <time>2026-08-29T13:35:52.908Z</time>
      </trkpt>
      <trkpt lat="52.165757" lon="5.083577">
        <ele>0.189687</ele>
        <time>2026-08-29T13:35:54.902Z</time>
      </trkpt>
      <trkpt lat="52.165861" lon="5.083510">
        <ele>0.222403</ele>
        <time>2026-08-29T13:35:56.894Z</time>
      </trkpt>
      <trkpt lat="52.165967" lon="5.083437">
        <ele>0.256067</ele>
        <time>2026-08-29T13:35:58.908Z</time>
      </trkpt>
      <trkpt lat="52.166075" lon="5.083362">
        <ele>0.290411</ele>
        <time>2026-08-29T13:36:00.899Z</time>
      </trkpt>
      <trkpt lat="52.166186" lon="5.083284">
        <ele>0.325773</ele>
        <time>2026-08-29T13:36:02.896Z</time>
      </trkpt>
      <trkpt lat="52.166290" lon="5.083214">
        <ele>0.358690</ele>
        <time>2026-08-29T13:36:04.900Z</time>
      </trkpt>
      <trkpt lat="52.166393" lon="5.083140">
        <ele>0.391619</ele>
        <time>2026-08-29T13:36:06.898Z</time>
      </trkpt>
      <trkpt lat="52.166498" lon="5.083073">
        <ele>0.413531</ele>
        <time>2026-08-29T13:36:08.896Z</time>
      </trkpt>
      <trkpt lat="52.166605" lon="5.083002">
        <ele>0.409511</ele>
        <time>2026-08-29T13:36:10.896Z</time>
      </trkpt>
      <trkpt lat="52.166709" lon="5.082930">
        <ele>0.405578</ele>
        <time>2026-08-29T13:36:12.901Z</time>
      </trkpt>
      <trkpt lat="52.166812" lon="5.082859">
        <ele>0.401686</ele>
        <time>2026-08-29T13:36:14.897Z</time>
      </trkpt>
      <trkpt lat="52.166917" lon="5.082781">
        <ele>0.397671</ele>
        <time>2026-08-29T13:36:16.900Z</time>
      </trkpt>
      <trkpt lat="52.167021" lon="5.082705">
        <ele>0.393704</ele>
        <time>2026-08-29T13:36:18.900Z</time>
      </trkpt>
      <trkpt lat="52.167124" lon="5.082628">
        <ele>0.389761</ele>
        <time>2026-08-29T13:36:20.901Z</time>
      </trkpt>
      <trkpt lat="52.167223" lon="5.082563">
        <ele>0.386046</ele>
        <time>2026-08-29T13:36:22.900Z</time>
      </trkpt>
      <trkpt lat="52.167331" lon="5.082475">
        <ele>0.381844</ele>
        <time>2026-08-29T13:36:24.893Z</time>
      </trkpt>
      <trkpt lat="52.167435" lon="5.082404">
        <ele>0.377920</ele>
        <time>2026-08-29T13:36:26.900Z</time>
      </trkpt>
      <trkpt lat="52.167541" lon="5.082333">
        <ele>0.373932</ele>
        <time>2026-08-29T13:36:28.901Z</time>
      </trkpt>
      <trkpt lat="52.167644" lon="5.082260">
        <ele>0.370023</ele>
        <time>2026-08-29T13:36:30.899Z</time>
      </trkpt>
      <trkpt lat="52.167758" lon="5.082183">
        <ele>0.365729</ele>
        <time>2026-08-29T13:36:32.900Z</time>
      </trkpt>
      <trkpt lat="52.167857" lon="5.082116">
        <ele>0.361998</ele>
        <time>2026-08-29T13:36:34.897Z</time>
      </trkpt>
      <trkpt lat="52.167960" lon="5.082045">
        <ele>0.358106</ele>
        <time>2026-08-29T13:36:36.899Z</time>
      </trkpt>
      <trkpt lat="52.168066" lon="5.081974">
        <ele>0.354118</ele>
        <time>2026-08-29T13:36:38.900Z</time>
      </trkpt>
      <trkpt lat="52.168179" lon="5.081910">
        <ele>0.361373</ele>
        <time>2026-08-29T13:36:40.900Z</time>
      </trkpt>
      <trkpt lat="52.168287" lon="5.081848">
        <ele>0.378491</ele>
        <time>2026-08-29T13:36:42.895Z</time>
      </trkpt>
      <trkpt lat="52.168404" lon="5.081782">
        <ele>0.397001</ele>
        <time>2026-08-29T13:36:44.900Z</time>
      </trkpt>
      <trkpt lat="52.168511" lon="5.081718">
        <ele>0.414040</ele>
        <time>2026-08-29T13:36:46.901Z</time>
      </trkpt>
      <trkpt lat="52.168611" lon="5.081656">
        <ele>0.430035</ele>
        <time>2026-08-29T13:36:48.902Z</time>
      </trkpt>
      <trkpt lat="52.168725" lon="5.081586">
        <ele>0.448247</ele>
        <time>2026-08-29T13:36:50.916Z</time>
      </trkpt>
      <trkpt lat="52.168831" lon="5.081517">
        <ele>0.465311</ele>
        <time>2026-08-29T13:36:52.895Z</time>
      </trkpt>
      <trkpt lat="52.168934" lon="5.081449">
        <ele>0.481925</ele>
        <time>2026-08-29T13:36:54.895Z</time>
      </trkpt>
      <trkpt lat="52.169034" lon="5.081388">
        <ele>0.497888</ele>
        <time>2026-08-29T13:36:56.895Z</time>
      </trkpt>
      <trkpt lat="52.169134" lon="5.081328">
        <ele>0.513818</ele>
        <time>2026-08-29T13:36:58.900Z</time>
      </trkpt>
      <trkpt lat="52.169239" lon="5.081263">
        <ele>0.530610</ele>
        <time>2026-08-29T13:37:00.900Z</time>
      </trkpt>
      <trkpt lat="52.169337" lon="5.081192">
        <ele>0.546643</ele>
        <time>2026-08-29T13:37:02.902Z</time>
      </trkpt>
      <trkpt lat="52.169436" lon="5.081130">
        <ele>0.562498</ele>
        <time>2026-08-29T13:37:04.900Z</time>
      </trkpt>
      <trkpt lat="52.169536" lon="5.081054">
        <ele>0.578993</ele>
        <time>2026-08-29T13:37:06.900Z</time>
      </trkpt>
      <trkpt lat="52.169636" lon="5.080983">
        <ele>0.595300</ele>
        <time>2026-08-29T13:37:08.901Z</time>
      </trkpt>
      <trkpt lat="52.169724" lon="5.080910">
        <ele>0.610061</ele>
        <time>2026-08-29T13:37:10.901Z</time>
      </trkpt>
      <trkpt lat="52.169826" lon="5.080929">
        <ele>0.601611</ele>
        <time>2026-08-29T13:37:13.900Z</time>
      </trkpt>
      <trkpt lat="52.169857" lon="5.081092">
        <ele>0.532466</ele>
        <time>2026-08-29T13:37:16.900Z</time>
      </trkpt>
      <trkpt lat="52.169884" lon="5.081236">
        <ele>0.471456</ele>
        <time>2026-08-29T13:37:18.900Z</time>
      </trkpt>
      <trkpt lat="52.169915" lon="5.081392">
        <ele>0.405015</ele>
        <time>2026-08-29T13:37:20.896Z</time>
      </trkpt>
      <trkpt lat="52.169951" lon="5.081544">
        <ele>0.338997</ele>
        <time>2026-08-29T13:37:22.900Z</time>
      </trkpt>
      <trkpt lat="52.169988" lon="5.081702">
        <ele>0.270472</ele>
        <time>2026-08-29T13:37:24.900Z</time>
      </trkpt>
      <trkpt lat="52.170024" lon="5.081870">
        <ele>0.198369</ele>
        <time>2026-08-29T13:37:26.900Z</time>
      </trkpt>
      <trkpt lat="52.170060" lon="5.082036">
        <ele>0.127030</ele>
        <time>2026-08-29T13:37:28.899Z</time>
      </trkpt>
      <trkpt lat="52.170098" lon="5.082206">
        <ele>0.053720</ele>
        <time>2026-08-29T13:37:30.902Z</time>
      </trkpt>
      <trkpt lat="52.170131" lon="5.082388">
        <ele>-0.023176</ele>
        <time>2026-08-29T13:37:32.902Z</time>
      </trkpt>
      <trkpt lat="52.170174" lon="5.082563">
        <ele>-0.099558</ele>
        <time>2026-08-29T13:37:34.900Z</time>
      </trkpt>
      <trkpt lat="52.170209" lon="5.082732">
        <ele>-0.171830</ele>
        <time>2026-08-29T13:37:36.900Z</time>
      </trkpt>
      <trkpt lat="52.170250" lon="5.082904">
        <ele>-0.246597</ele>
        <time>2026-08-29T13:37:38.900Z</time>
      </trkpt>
      <trkpt lat="52.170295" lon="5.083075">
        <ele>-0.321989</ele>
        <time>2026-08-29T13:37:40.900Z</time>
      </trkpt>
      <trkpt lat="52.170331" lon="5.083244">
        <ele>-0.394474</ele>
        <time>2026-08-29T13:37:42.900Z</time>
      </trkpt>
      <trkpt lat="52.170367" lon="5.083428">
        <ele>-0.472726</ele>
        <time>2026-08-29T13:37:44.902Z</time>
      </trkpt>
      <trkpt lat="52.170406" lon="5.083597">
        <ele>-0.545885</ele>
        <time>2026-08-29T13:37:46.901Z</time>
      </trkpt>
      <trkpt lat="52.170448" lon="5.083769">
        <ele>-0.539266</ele>
        <time>2026-08-29T13:37:48.901Z</time>
      </trkpt>
      <trkpt lat="52.170490" lon="5.083948">
        <ele>-0.498889</ele>
        <time>2026-08-29T13:37:50.900Z</time>
      </trkpt>
      <trkpt lat="52.170524" lon="5.084117">
        <ele>-0.461417</ele>
        <time>2026-08-29T13:37:52.900Z</time>
      </trkpt>
      <trkpt lat="52.170562" lon="5.084283">
        <ele>-0.424088</ele>
        <time>2026-08-29T13:37:54.901Z</time>
      </trkpt>
      <trkpt lat="52.170595" lon="5.084462">
        <ele>-0.384709</ele>
        <time>2026-08-29T13:37:56.900Z</time>
      </trkpt>
      <trkpt lat="52.170632" lon="5.084643">
        <ele>-0.344514</ele>
        <time>2026-08-29T13:37:58.895Z</time>
      </trkpt>
      <trkpt lat="52.170669" lon="5.084819">
        <ele>-0.305316</ele>
        <time>2026-08-29T13:38:00.908Z</time>
      </trkpt>
      <trkpt lat="52.170705" lon="5.084986">
        <ele>-0.268023</ele>
        <time>2026-08-29T13:38:02.895Z</time>
      </trkpt>
      <trkpt lat="52.170747" lon="5.085157">
        <ele>-0.229215</ele>
        <time>2026-08-29T13:38:04.895Z</time>
      </trkpt>
      <trkpt lat="52.170779" lon="5.085328">
        <ele>-0.191549</ele>
        <time>2026-08-29T13:38:06.896Z</time>
      </trkpt>
      <trkpt lat="52.170811" lon="5.085502">
        <ele>-0.153278</ele>
        <time>2026-08-29T13:38:08.893Z</time>
      </trkpt>
      <trkpt lat="52.170845" lon="5.085660">
        <ele>-0.118002</ele>
        <time>2026-08-29T13:38:10.896Z</time>
      </trkpt>
      <trkpt lat="52.170881" lon="5.085827">
        <ele>-0.080708</ele>
        <time>2026-08-29T13:38:12.893Z</time>
      </trkpt>
      <trkpt lat="52.170914" lon="5.086004">
        <ele>-0.041733</ele>
        <time>2026-08-29T13:38:14.895Z</time>
      </trkpt>
      <trkpt lat="52.170955" lon="5.086173">
        <ele>-0.003444</ele>
        <time>2026-08-29T13:38:16.893Z</time>
      </trkpt>
      <trkpt lat="52.170988" lon="5.086341">
        <ele>0.033721</ele>
        <time>2026-08-29T13:38:18.908Z</time>
      </trkpt>
      <trkpt lat="52.171016" lon="5.086520">
        <ele>0.074141</ele>
        <time>2026-08-29T13:38:20.896Z</time>
      </trkpt>
      <trkpt lat="52.171041" lon="5.086694">
        <ele>0.114365</ele>
        <time>2026-08-29T13:38:22.896Z</time>
      </trkpt>
      <trkpt lat="52.171074" lon="5.086846">
        <ele>0.150657</ele>
        <time>2026-08-29T13:38:24.901Z</time>
      </trkpt>
      <trkpt lat="52.171109" lon="5.086998">
        <ele>0.187200</ele>
        <time>2026-08-29T13:38:26.896Z</time>
      </trkpt>
      <trkpt lat="52.171140" lon="5.087159">
        <ele>0.225182</ele>
        <time>2026-08-29T13:38:28.900Z</time>
      </trkpt>
      <trkpt lat="52.171171" lon="5.087327">
        <ele>0.264669</ele>
        <time>2026-08-29T13:38:30.901Z</time>
      </trkpt>
      <trkpt lat="52.171204" lon="5.087495">
        <ele>0.304374</ele>
        <time>2026-08-29T13:38:32.893Z</time>
      </trkpt>
      <trkpt lat="52.171239" lon="5.087673">
        <ele>0.346446</ele>
        <time>2026-08-29T13:38:34.901Z</time>
      </trkpt>
      <trkpt lat="52.171268" lon="5.087847">
        <ele>0.387029</ele>
        <time>2026-08-29T13:38:36.902Z</time>
      </trkpt>
      <trkpt lat="52.171301" lon="5.088014">
        <ele>0.426520</ele>
        <time>2026-08-29T13:38:38.905Z</time>
      </trkpt>
      <trkpt lat="52.171336" lon="5.088174">
        <ele>0.464754</ele>
        <time>2026-08-29T13:38:40.900Z</time>
      </trkpt>
      <trkpt lat="52.171372" lon="5.088337">
        <ele>0.503747</ele>
        <time>2026-08-29T13:38:42.892Z</time>
      </trkpt>
      <trkpt lat="52.171402" lon="5.088500">
        <ele>0.542051</ele>
        <time>2026-08-29T13:38:44.891Z</time>
      </trkpt>
      <trkpt lat="52.171433" lon="5.088645">
        <ele>0.576613</ele>
        <time>2026-08-29T13:38:46.893Z</time>
      </trkpt>
      <trkpt lat="52.171463" lon="5.088813">
        <ele>0.615996</ele>
        <time>2026-08-29T13:38:49.895Z</time>
      </trkpt>
      <trkpt lat="52.171542" lon="5.089123">
        <ele>0.691552</ele>
        <time>2026-08-29T13:39:24.901Z</time>
      </trkpt>
      <trkpt lat="52.171622" lon="5.089483">
        <ele>0.743095</ele>
        <time>2026-08-29T13:41:13.896Z</time>
      </trkpt>
      <trkpt lat="52.171652" lon="5.089633">
        <ele>0.760243</ele>
        <time>2026-08-29T13:41:16.899Z</time>
      </trkpt>
      <trkpt lat="52.171685" lon="5.089781">
        <ele>0.777359</ele>
        <time>2026-08-29T13:41:19.897Z</time>
      </trkpt>
      <trkpt lat="52.171721" lon="5.089951">
        <ele>0.796906</ele>
        <time>2026-08-29T13:41:22.896Z</time>
      </trkpt>
      <trkpt lat="52.171755" lon="5.090131">
        <ele>0.817377</ele>
        <time>2026-08-29T13:41:25.896Z</time>
      </trkpt>
      <trkpt lat="52.171791" lon="5.090315">
        <ele>0.838369</ele>
        <time>2026-08-29T13:41:28.908Z</time>
      </trkpt>
      <trkpt lat="52.171831" lon="5.090497">
        <ele>0.859382</ele>
        <time>2026-08-29T13:41:31.899Z</time>
      </trkpt>
      <trkpt lat="52.171872" lon="5.090688">
        <ele>0.881376</ele>
        <time>2026-08-29T13:41:34.897Z</time>
      </trkpt>
      <trkpt lat="52.171913" lon="5.090888">
        <ele>0.904296</ele>
        <time>2026-08-29T13:41:37.894Z</time>
      </trkpt>
      <trkpt lat="52.171955" lon="5.091092">
        <ele>0.927685</ele>
        <time>2026-08-29T13:41:40.895Z</time>
      </trkpt>
      <trkpt lat="52.171984" lon="5.091236">
        <ele>0.944158</ele>
        <time>2026-08-29T13:41:42.895Z</time>
      </trkpt>
      <trkpt lat="52.172013" lon="5.091379">
        <ele>0.960528</ele>
        <time>2026-08-29T13:41:44.896Z</time>
      </trkpt>
      <trkpt lat="52.172043" lon="5.091519">
        <ele>0.976646</ele>
        <time>2026-08-29T13:41:46.908Z</time>
      </trkpt>
      <trkpt lat="52.172073" lon="5.091666">
        <ele>0.993485</ele>
        <time>2026-08-29T13:41:48.893Z</time>
      </trkpt>
      <trkpt lat="52.172104" lon="5.091810">
        <ele>1.010072</ele>
        <time>2026-08-29T13:41:50.894Z</time>
      </trkpt>
      <trkpt lat="52.172132" lon="5.091959">
        <ele>1.027010</ele>
        <time>2026-08-29T13:41:52.908Z</time>
      </trkpt>
      <trkpt lat="52.172157" lon="5.092108">
        <ele>1.048498</ele>
        <time>2026-08-29T13:41:54.896Z</time>
      </trkpt>
      <trkpt lat="52.172196" lon="5.092317">
        <ele>1.080044</ele>
        <time>2026-08-29T13:41:57.894Z</time>
      </trkpt>
      <trkpt lat="52.172227" lon="5.092457">
        <ele>1.101538</ele>
        <time>2026-08-29T13:41:59.908Z</time>
      </trkpt>
      <trkpt lat="52.172260" lon="5.092610">
        <ele>1.124958</ele>
        <time>2026-08-29T13:42:01.895Z</time>
      </trkpt>
      <trkpt lat="52.172288" lon="5.092773">
        <ele>1.149402</ele>
        <time>2026-08-29T13:42:03.894Z</time>
      </trkpt>
      <trkpt lat="52.172319" lon="5.092943">
        <ele>1.175013</ele>
        <time>2026-08-29T13:42:05.892Z</time>
      </trkpt>
      <trkpt lat="52.172359" lon="5.093116">
        <ele>1.201711</ele>
        <time>2026-08-29T13:42:07.908Z</time>
      </trkpt>
      <trkpt lat="52.172398" lon="5.093298">
        <ele>1.229551</ele>
        <time>2026-08-29T13:42:09.893Z</time>
      </trkpt>
      <trkpt lat="52.172431" lon="5.093469">
        <ele>1.255438</ele>
        <time>2026-08-29T13:42:11.894Z</time>
      </trkpt>
      <trkpt lat="52.172468" lon="5.093647">
        <ele>1.282578</ele>
        <time>2026-08-29T13:42:13.895Z</time>
      </trkpt>
      <trkpt lat="52.172506" lon="5.093821">
        <ele>1.309249</ele>
        <time>2026-08-29T13:42:15.908Z</time>
      </trkpt>
      <trkpt lat="52.172541" lon="5.093999">
        <ele>1.336242</ele>
        <time>2026-08-29T13:42:17.894Z</time>
      </trkpt>
      <trkpt lat="52.172578" lon="5.094181">
        <ele>1.363930</ele>
        <time>2026-08-29T13:42:19.893Z</time>
      </trkpt>
      <trkpt lat="52.172614" lon="5.094345">
        <ele>1.389083</ele>
        <time>2026-08-29T13:42:21.896Z</time>
      </trkpt>
      <trkpt lat="52.172653" lon="5.094497">
        <ele>1.412876</ele>
        <time>2026-08-29T13:42:23.908Z</time>
      </trkpt>
      <trkpt lat="52.172716" lon="5.094621">
        <ele>1.436128</ele>
        <time>2026-08-29T13:42:25.908Z</time>
      </trkpt>
      <trkpt lat="52.172810" lon="5.094651">
        <ele>1.430798</ele>
        <time>2026-08-29T13:42:27.908Z</time>
      </trkpt>
      <trkpt lat="52.172906" lon="5.094605">
        <ele>1.338581</ele>
        <time>2026-08-29T13:42:29.896Z</time>
      </trkpt>
      <trkpt lat="52.173007" lon="5.094538">
        <ele>1.238088</ele>
        <time>2026-08-29T13:42:31.895Z</time>
      </trkpt>
      <trkpt lat="52.173115" lon="5.094462">
        <ele>1.129679</ele>
        <time>2026-08-29T13:42:33.895Z</time>
      </trkpt>
      <trkpt lat="52.173220" lon="5.094372">
        <ele>1.020352</ele>
        <time>2026-08-29T13:42:35.895Z</time>
      </trkpt>
      <trkpt lat="52.173321" lon="5.094292">
        <ele>0.916867</ele>
        <time>2026-08-29T13:42:37.895Z</time>
      </trkpt>
      <trkpt lat="52.173421" lon="5.094224">
        <ele>0.817011</ele>
        <time>2026-08-29T13:42:39.894Z</time>
      </trkpt>
      <trkpt lat="52.173521" lon="5.094150">
        <ele>0.715802</ele>
        <time>2026-08-29T13:42:41.908Z</time>
      </trkpt>
      <trkpt lat="52.173617" lon="5.094078">
        <ele>0.618416</ele>
        <time>2026-08-29T13:42:43.897Z</time>
      </trkpt>
      <trkpt lat="52.173718" lon="5.094006">
        <ele>0.516825</ele>
        <time>2026-08-29T13:42:45.898Z</time>
      </trkpt>
      <trkpt lat="52.173826" lon="5.093937">
        <ele>0.409922</ele>
        <time>2026-08-29T13:42:47.896Z</time>
      </trkpt>
      <trkpt lat="52.173931" lon="5.093874">
        <ele>0.306808</ele>
        <time>2026-08-29T13:42:49.895Z</time>
      </trkpt>
      <trkpt lat="52.174039" lon="5.093819">
        <ele>0.202531</ele>
        <time>2026-08-29T13:42:51.894Z</time>
      </trkpt>
      <trkpt lat="52.174155" lon="5.093766">
        <ele>0.091505</ele>
        <time>2026-08-29T13:42:53.900Z</time>
      </trkpt>
      <trkpt lat="52.174270" lon="5.093727">
        <ele>-0.016750</ele>
        <time>2026-08-29T13:42:55.908Z</time>
      </trkpt>
      <trkpt lat="52.174382" lon="5.093689">
        <ele>-0.122183</ele>
        <time>2026-08-29T13:42:57.895Z</time>
      </trkpt>
      <trkpt lat="52.174495" lon="5.093651">
        <ele>-0.195511</ele>
        <time>2026-08-29T13:42:59.908Z</time>
      </trkpt>
      <trkpt lat="52.174607" lon="5.093617">
        <ele>-0.155190</ele>
        <time>2026-08-29T13:43:01.895Z</time>
      </trkpt>
      <trkpt lat="52.174719" lon="5.093573">
        <ele>-0.114416</ele>
        <time>2026-08-29T13:43:03.895Z</time>
      </trkpt>
      <trkpt lat="52.174833" lon="5.093527">
        <ele>-0.072851</ele>
        <time>2026-08-29T13:43:05.895Z</time>
      </trkpt>
      <trkpt lat="52.174956" lon="5.093473">
        <ele>-0.027767</ele>
        <time>2026-08-29T13:43:07.896Z</time>
      </trkpt>
      <trkpt lat="52.175083" lon="5.093418">
        <ele>0.018740</ele>
        <time>2026-08-29T13:43:09.897Z</time>
      </trkpt>
      <trkpt lat="52.175201" lon="5.093379">
        <ele>0.061353</ele>
        <time>2026-08-29T13:43:11.897Z</time>
      </trkpt>
      <trkpt lat="52.175312" lon="5.093339">
        <ele>0.101587</ele>
        <time>2026-08-29T13:43:13.896Z</time>
      </trkpt>
      <trkpt lat="52.175424" lon="5.093300">
        <ele>0.142121</ele>
        <time>2026-08-29T13:43:15.895Z</time>
      </trkpt>
      <trkpt lat="52.175529" lon="5.093257">
        <ele>0.180438</ele>
        <time>2026-08-29T13:43:17.895Z</time>
      </trkpt>
      <trkpt lat="52.175620" lon="5.093209">
        <ele>0.214289</ele>
        <time>2026-08-29T13:43:19.897Z</time>
      </trkpt>
      <trkpt lat="52.175678" lon="5.093051">
        <ele>0.254256</ele>
        <time>2026-08-29T13:43:22.893Z</time>
      </trkpt>
      <trkpt lat="52.175647" lon="5.092881">
        <ele>0.292751</ele>
        <time>2026-08-29T13:43:25.896Z</time>
      </trkpt>
      <trkpt lat="52.175619" lon="5.092701">
        <ele>0.333056</ele>
        <time>2026-08-29T13:43:28.897Z</time>
      </trkpt>
      <trkpt lat="52.175585" lon="5.092504">
        <ele>0.377475</ele>
        <time>2026-08-29T13:43:31.895Z</time>
      </trkpt>
      <trkpt lat="52.175550" lon="5.092295">
        <ele>0.424499</ele>
        <time>2026-08-29T13:43:34.894Z</time>
      </trkpt>
      <trkpt lat="52.175525" lon="5.092154">
        <ele>0.430361</ele>
        <time>2026-08-29T13:43:36.908Z</time>
      </trkpt>
      <trkpt lat="52.175498" lon="5.092015">
        <ele>0.428336</ele>
        <time>2026-08-29T13:43:38.900Z</time>
      </trkpt>
      <trkpt lat="52.175459" lon="5.091807">
        <ele>0.425314</ele>
        <time>2026-08-29T13:43:41.895Z</time>
      </trkpt>
      <trkpt lat="52.175433" lon="5.091667">
        <ele>0.423283</ele>
        <time>2026-08-29T13:43:43.895Z</time>
      </trkpt>
      <trkpt lat="52.175398" lon="5.091455">
        <ele>0.420233</ele>
        <time>2026-08-29T13:43:46.894Z</time>
      </trkpt>
      <trkpt lat="52.175363" lon="5.091243">
        <ele>0.417184</ele>
        <time>2026-08-29T13:43:49.895Z</time>
      </trkpt>
      <trkpt lat="52.175336" lon="5.091103">
        <ele>0.415145</ele>
        <time>2026-08-29T13:43:51.895Z</time>
      </trkpt>
      <trkpt lat="52.175294" lon="5.090898">
        <ele>0.412143</ele>
        <time>2026-08-29T13:43:54.896Z</time>
      </trkpt>
      <trkpt lat="52.175257" lon="5.090696">
        <ele>0.409215</ele>
        <time>2026-08-29T13:43:57.895Z</time>
      </trkpt>
      <trkpt lat="52.175229" lon="5.090519">
        <ele>0.406676</ele>
        <time>2026-08-29T13:44:00.892Z</time>
      </trkpt>
      <trkpt lat="52.175195" lon="5.090360">
        <ele>0.404337</ele>
        <time>2026-08-29T13:44:03.896Z</time>
      </trkpt>
      <trkpt lat="52.175145" lon="5.090233">
        <ele>0.402241</ele>
        <time>2026-08-29T13:44:14.908Z</time>
      </trkpt>
      <trkpt lat="52.175139" lon="5.090048">
        <ele>0.399668</ele>
        <time>2026-08-29T13:44:23.894Z</time>
      </trkpt>
      <trkpt lat="52.175108" lon="5.089883">
        <ele>0.397271</ele>
        <time>2026-08-29T13:44:27.899Z</time>
      </trkpt>
      <trkpt lat="52.175076" lon="5.089702">
        <ele>0.394655</ele>
        <time>2026-08-29T13:44:31.895Z</time>
      </trkpt>
      <trkpt lat="52.175040" lon="5.089532">
        <ele>0.392156</ele>
        <time>2026-08-29T13:44:35.894Z</time>
      </trkpt>
      <trkpt lat="52.175007" lon="5.089359">
        <ele>0.372780</ele>
        <time>2026-08-29T13:44:40.894Z</time>
      </trkpt>
      <trkpt lat="52.174973" lon="5.089187">
        <ele>0.342898</ele>
        <time>2026-08-29T13:44:45.894Z</time>
      </trkpt>
      <trkpt lat="52.174941" lon="5.089018">
        <ele>0.313651</ele>
        <time>2026-08-29T13:44:49.908Z</time>
      </trkpt>
      <trkpt lat="52.174908" lon="5.088852">
        <ele>0.284796</ele>
        <time>2026-08-29T13:44:53.909Z</time>
      </trkpt>
      <trkpt lat="52.174874" lon="5.088682">
        <ele>0.255229</ele>
        <time>2026-08-29T13:44:57.894Z</time>
      </trkpt>
      <trkpt lat="52.174848" lon="5.088541">
        <ele>0.230883</ele>
        <time>2026-08-29T13:45:00.897Z</time>
      </trkpt>
      <trkpt lat="52.174823" lon="5.088387">
        <ele>0.204541</ele>
        <time>2026-08-29T13:45:03.908Z</time>
      </trkpt>
      <trkpt lat="52.174792" lon="5.088231">
        <ele>0.177425</ele>
        <time>2026-08-29T13:45:06.896Z</time>
      </trkpt>
      <trkpt lat="52.174757" lon="5.088067">
        <ele>0.148712</ele>
        <time>2026-08-29T13:45:09.894Z</time>
      </trkpt>
      <trkpt lat="52.174728" lon="5.087887">
        <ele>0.117938</ele>
        <time>2026-08-29T13:45:12.896Z</time>
      </trkpt>
      <trkpt lat="52.174696" lon="5.087707">
        <ele>0.086949</ele>
        <time>2026-08-29T13:45:15.908Z</time>
      </trkpt>
      <trkpt lat="52.174662" lon="5.087532">
        <ele>0.056594</ele>
        <time>2026-08-29T13:45:18.897Z</time>
      </trkpt>
      <trkpt lat="52.174622" lon="5.087352">
        <ele>0.024936</ele>
        <time>2026-08-29T13:45:21.908Z</time>
      </trkpt>
      <trkpt lat="52.174586" lon="5.087172">
        <ele>-0.006371</ele>
        <time>2026-08-29T13:45:24.896Z</time>
      </trkpt>
      <trkpt lat="52.174555" lon="5.086985">
        <ele>-0.038402</ele>
        <time>2026-08-29T13:45:27.909Z</time>
      </trkpt>
      <trkpt lat="52.174523" lon="5.086803">
        <ele>-0.069709</ele>
        <time>2026-08-29T13:45:30.894Z</time>
      </trkpt>
      <trkpt lat="52.174489" lon="5.086627">
        <ele>-0.088653</ele>
        <time>2026-08-29T13:45:33.895Z</time>
      </trkpt>
      <trkpt lat="52.174462" lon="5.086450">
        <ele>-0.064562</ele>
        <time>2026-08-29T13:45:36.908Z</time>
      </trkpt>
      <trkpt lat="52.174424" lon="5.086280">
        <ele>-0.040662</ele>
        <time>2026-08-29T13:45:39.895Z</time>
      </trkpt>
      <trkpt lat="52.174387" lon="5.086105">
        <ele>-0.016212</ele>
        <time>2026-08-29T13:45:42.895Z</time>
      </trkpt>
      <trkpt lat="52.174354" lon="5.085924">
        <ele>0.008730</ele>
        <time>2026-08-29T13:45:45.893Z</time>
      </trkpt>
      <trkpt lat="52.174320" lon="5.085739">
        <ele>0.034240</ele>
        <time>2026-08-29T13:45:48.896Z</time>
      </trkpt>
      <trkpt lat="52.174289" lon="5.085558">
        <ele>0.059063</ele>
        <time>2026-08-29T13:45:51.908Z</time>
      </trkpt>
      <trkpt lat="52.174257" lon="5.085388">
        <ele>0.082552</ele>
        <time>2026-08-29T13:45:54.907Z</time>
      </trkpt>
      <trkpt lat="52.174223" lon="5.085222">
        <ele>0.105669</ele>
        <time>2026-08-29T13:45:57.895Z</time>
      </trkpt>
      <trkpt lat="52.174196" lon="5.085054">
        <ele>0.128609</ele>
        <time>2026-08-29T13:46:00.897Z</time>
      </trkpt>
      <trkpt lat="52.174164" lon="5.084883">
        <ele>0.152224</ele>
        <time>2026-08-29T13:46:03.896Z</time>
      </trkpt>
      <trkpt lat="52.174140" lon="5.084706">
        <ele>0.176168</ele>
        <time>2026-08-29T13:46:06.908Z</time>
      </trkpt>
      <trkpt lat="52.174114" lon="5.084533">
        <ele>0.199695</ele>
        <time>2026-08-29T13:46:09.896Z</time>
      </trkpt>
      <trkpt lat="52.174087" lon="5.084382">
        <ele>0.220471</ele>
        <time>2026-08-29T13:46:12.894Z</time>
      </trkpt>
      <trkpt lat="52.174047" lon="5.084249">
        <ele>0.240038</ele>
        <time>2026-08-29T13:46:15.895Z</time>
      </trkpt>
      <trkpt lat="52.174013" lon="5.084095">
        <ele>0.261657</ele>
        <time>2026-08-29T13:46:18.897Z</time>
      </trkpt>
      <trkpt lat="52.173989" lon="5.083932">
        <ele>0.283799</ele>
        <time>2026-08-29T13:46:21.897Z</time>
      </trkpt>
      <trkpt lat="52.173964" lon="5.083768">
        <ele>0.281589</ele>
        <time>2026-08-29T13:46:24.901Z</time>
      </trkpt>
      <trkpt lat="52.173928" lon="5.083613">
        <ele>0.260555</ele>
        <time>2026-08-29T13:46:27.901Z</time>
      </trkpt>
      <trkpt lat="52.173898" lon="5.083462">
        <ele>0.240411</ele>
        <time>2026-08-29T13:46:30.900Z</time>
      </trkpt>
      <trkpt lat="52.173876" lon="5.083310">
        <ele>0.220591</ele>
        <time>2026-08-29T13:46:33.894Z</time>
      </trkpt>
      <trkpt lat="52.173852" lon="5.083159">
        <ele>0.200794</ele>
        <time>2026-08-29T13:46:36.900Z</time>
      </trkpt>
      <trkpt lat="52.173824" lon="5.082996">
        <ele>0.179312</ele>
        <time>2026-08-29T13:46:39.900Z</time>
      </trkpt>
      <trkpt lat="52.173796" lon="5.082833">
        <ele>0.157830</ele>
        <time>2026-08-29T13:46:42.900Z</time>
      </trkpt>
      <trkpt lat="52.173770" lon="5.082675">
        <ele>0.137069</ele>
        <time>2026-08-29T13:46:45.893Z</time>
      </trkpt>
      <trkpt lat="52.173733" lon="5.082529">
        <ele>0.117020</ele>
        <time>2026-08-29T13:46:48.900Z</time>
      </trkpt>
      <trkpt lat="52.173707" lon="5.082375">
        <ele>0.096749</ele>
        <time>2026-08-29T13:46:51.900Z</time>
      </trkpt>
      <trkpt lat="52.173677" lon="5.082218">
        <ele>0.075880</ele>
        <time>2026-08-29T13:46:54.900Z</time>
      </trkpt>
      <trkpt lat="52.173643" lon="5.082054">
        <ele>0.053909</ele>
        <time>2026-08-29T13:46:57.896Z</time>
      </trkpt>
      <trkpt lat="52.173608" lon="5.081892">
        <ele>0.032111</ele>
        <time>2026-08-29T13:47:00.900Z</time>
      </trkpt>
      <trkpt lat="52.173574" lon="5.081731">
        <ele>0.010502</ele>
        <time>2026-08-29T13:47:03.901Z</time>
      </trkpt>
      <trkpt lat="52.173543" lon="5.081564">
        <ele>-0.011642</ele>
        <time>2026-08-29T13:47:06.896Z</time>
      </trkpt>
      <trkpt lat="52.173507" lon="5.081397">
        <ele>-0.034107</ele>
        <time>2026-08-29T13:47:09.896Z</time>
      </trkpt>
      <trkpt lat="52.173463" lon="5.081237">
        <ele>-0.056361</ele>
        <time>2026-08-29T13:47:12.900Z</time>
      </trkpt>
      <trkpt lat="52.173428" lon="5.081066">
        <ele>-0.078416</ele>
        <time>2026-08-29T13:47:15.899Z</time>
      </trkpt>
      <trkpt lat="52.173396" lon="5.080901">
        <ele>-0.072113</ele>
        <time>2026-08-29T13:47:18.897Z</time>
      </trkpt>
      <trkpt lat="52.173358" lon="5.080749">
        <ele>-0.066134</ele>
        <time>2026-08-29T13:47:21.899Z</time>
      </trkpt>
      <trkpt lat="52.173315" lon="5.080579">
        <ele>-0.059436</ele>
        <time>2026-08-29T13:47:24.900Z</time>
      </trkpt>
      <trkpt lat="52.173285" lon="5.080408">
        <ele>-0.052958</ele>
        <time>2026-08-29T13:47:27.900Z</time>
      </trkpt>
      <trkpt lat="52.173267" lon="5.080257">
        <ele>-0.047355</ele>
        <time>2026-08-29T13:47:30.907Z</time>
      </trkpt>
      <trkpt lat="52.173225" lon="5.080123">
        <ele>-0.041874</ele>
        <time>2026-08-29T13:47:34.908Z</time>
      </trkpt>
      <trkpt lat="52.173205" lon="5.079961">
        <ele>-0.035855</ele>
        <time>2026-08-29T13:47:40.907Z</time>
      </trkpt>
      <trkpt lat="52.173164" lon="5.079782">
        <ele>-0.028895</ele>
        <time>2026-08-29T13:47:44.908Z</time>
      </trkpt>
      <trkpt lat="52.173128" lon="5.079640">
        <ele>-0.023298</ele>
        <time>2026-08-29T13:47:47.894Z</time>
      </trkpt>
      <trkpt lat="52.173095" lon="5.079498">
        <ele>-0.017767</ele>
        <time>2026-08-29T13:47:50.899Z</time>
      </trkpt>
      <trkpt lat="52.173058" lon="5.079349">
        <ele>-0.011912</ele>
        <time>2026-08-29T13:47:53.893Z</time>
      </trkpt>
      <trkpt lat="52.173018" lon="5.079196">
        <ele>-0.005854</ele>
        <time>2026-08-29T13:47:56.908Z</time>
      </trkpt>
      <trkpt lat="52.172979" lon="5.079040">
        <ele>0.000282</ele>
        <time>2026-08-29T13:47:59.908Z</time>
      </trkpt>
      <trkpt lat="52.172932" lon="5.078874">
        <ele>0.006942</ele>
        <time>2026-08-29T13:48:04.897Z</time>
      </trkpt>
      <trkpt lat="52.172906" lon="5.078721">
        <ele>0.012724</ele>
        <time>2026-08-29T13:48:07.897Z</time>
      </trkpt>
      <trkpt lat="52.172879" lon="5.078548">
        <ele>0.019227</ele>
        <time>2026-08-29T13:48:10.896Z</time>
      </trkpt>
      <trkpt lat="52.172827" lon="5.078358">
        <ele>0.026805</ele>
        <time>2026-08-29T13:48:13.897Z</time>
      </trkpt>
      <trkpt lat="52.172767" lon="5.078168">
        <ele>-0.022779</ele>
        <time>2026-08-29T13:48:16.893Z</time>
      </trkpt>
      <trkpt lat="52.172710" lon="5.078049">
        <ele>-0.066856</ele>
        <time>2026-08-29T13:48:18.893Z</time>
      </trkpt>
      <trkpt lat="52.172660" lon="5.077904">
        <ele>-0.115416</ele>
        <time>2026-08-29T13:48:20.895Z</time>
      </trkpt>
      <trkpt lat="52.172614" lon="5.077737">
        <ele>-0.168857</ele>
        <time>2026-08-29T13:48:22.894Z</time>
      </trkpt>
      <trkpt lat="52.172566" lon="5.077553">
        <ele>-0.227227</ele>
        <time>2026-08-29T13:48:24.896Z</time>
      </trkpt>
      <trkpt lat="52.172523" lon="5.077368">
        <ele>-0.284980</ele>
        <time>2026-08-29T13:48:26.893Z</time>
      </trkpt>
      <trkpt lat="52.172483" lon="5.077183">
        <ele>-0.342243</ele>
        <time>2026-08-29T13:48:28.894Z</time>
      </trkpt>
      <trkpt lat="52.172441" lon="5.077007">
        <ele>-0.397373</ele>
        <time>2026-08-29T13:48:30.894Z</time>
      </trkpt>
      <trkpt lat="52.172404" lon="5.076839">
        <ele>-0.449482</ele>
        <time>2026-08-29T13:48:32.895Z</time>
      </trkpt>
      <trkpt lat="52.172365" lon="5.076673">
        <ele>-0.501374</ele>
        <time>2026-08-29T13:48:34.896Z</time>
      </trkpt>
      <trkpt lat="52.172328" lon="5.076510">
        <ele>-0.552111</ele>
        <time>2026-08-29T13:48:36.899Z</time>
      </trkpt>
      <trkpt lat="52.172292" lon="5.076355">
        <ele>-0.600495</ele>
        <time>2026-08-29T13:48:38.899Z</time>
      </trkpt>
      <trkpt lat="52.172252" lon="5.076195">
        <ele>-0.650933</ele>
        <time>2026-08-29T13:48:40.900Z</time>
      </trkpt>
      <trkpt lat="52.172215" lon="5.076028">
        <ele>-0.702767</ele>
        <time>2026-08-29T13:48:42.908Z</time>
      </trkpt>
      <trkpt lat="52.172182" lon="5.075866">
        <ele>-0.752599</ele>
        <time>2026-08-29T13:48:44.894Z</time>
      </trkpt>
      <trkpt lat="52.172145" lon="5.075707">
        <ele>-0.802243</ele>
        <time>2026-08-29T13:48:46.894Z</time>
      </trkpt>
      <trkpt lat="52.172108" lon="5.075549">
        <ele>-0.841792</ele>
        <time>2026-08-29T13:48:48.896Z</time>
      </trkpt>
      <trkpt lat="52.172072" lon="5.075387">
        <ele>-0.871252</ele>
        <time>2026-08-29T13:48:50.894Z</time>
      </trkpt>
      <trkpt lat="52.172035" lon="5.075228">
        <ele>-0.900328</ele>
        <time>2026-08-29T13:48:52.894Z</time>
      </trkpt>
      <trkpt lat="52.172002" lon="5.075068">
        <ele>-0.929189</ele>
        <time>2026-08-29T13:48:54.894Z</time>
      </trkpt>
      <trkpt lat="52.171963" lon="5.074903">
        <ele>-0.959422</ele>
        <time>2026-08-29T13:48:56.895Z</time>
      </trkpt>
      <trkpt lat="52.171928" lon="5.074732">
        <ele>-0.990244</ele>
        <time>2026-08-29T13:48:58.896Z</time>
      </trkpt>
      <trkpt lat="52.171890" lon="5.074574">
        <ele>-1.019261</ele>
        <time>2026-08-29T13:49:00.896Z</time>
      </trkpt>
      <trkpt lat="52.171862" lon="5.074433">
        <ele>-1.044600</ele>
        <time>2026-08-29T13:49:02.894Z</time>
      </trkpt>
      <trkpt lat="52.171815" lon="5.074230">
        <ele>-1.081699</ele>
        <time>2026-08-29T13:49:05.901Z</time>
      </trkpt>
      <trkpt lat="52.171779" lon="5.074076">
        <ele>-1.109876</ele>
        <time>2026-08-29T13:49:07.896Z</time>
      </trkpt>
      <trkpt lat="52.171736" lon="5.073898">
        <ele>-1.142586</ele>
        <time>2026-08-29T13:49:09.908Z</time>
      </trkpt>
      <trkpt lat="52.171693" lon="5.073714">
        <ele>-1.176251</ele>
        <time>2026-08-29T13:49:11.908Z</time>
      </trkpt>
      <trkpt lat="52.171648" lon="5.073531">
        <ele>-1.209961</ele>
        <time>2026-08-29T13:49:13.898Z</time>
      </trkpt>
      <trkpt lat="52.171605" lon="5.073355">
        <ele>-1.242352</ele>
        <time>2026-08-29T13:49:15.908Z</time>
      </trkpt>
      <trkpt lat="52.171563" lon="5.073181">
        <ele>-1.274323</ele>
        <time>2026-08-29T13:49:17.909Z</time>
      </trkpt>
      <trkpt lat="52.171521" lon="5.073007">
        <ele>-1.306294</ele>
        <time>2026-08-29T13:49:19.898Z</time>
      </trkpt>
      <trkpt lat="52.171481" lon="5.072829">
        <ele>-1.300038</ele>
        <time>2026-08-29T13:49:21.895Z</time>
      </trkpt>
      <trkpt lat="52.171436" lon="5.072651">
        <ele>-1.197173</ele>
        <time>2026-08-29T13:49:23.895Z</time>
      </trkpt>
      <trkpt lat="52.171396" lon="5.072477">
        <ele>-1.097892</ele>
        <time>2026-08-29T13:49:25.897Z</time>
      </trkpt>
      <trkpt lat="52.171356" lon="5.072306">
        <ele>-1.000110</ele>
        <time>2026-08-29T13:49:27.896Z</time>
      </trkpt>
      <trkpt lat="52.171322" lon="5.072146">
        <ele>-0.909639</ele>
        <time>2026-08-29T13:49:29.901Z</time>
      </trkpt>
      <trkpt lat="52.171279" lon="5.071986">
        <ele>-0.816306</ele>
        <time>2026-08-29T13:49:31.906Z</time>
      </trkpt>
      <trkpt lat="52.171239" lon="5.071812">
        <ele>-0.717025</ele>
        <time>2026-08-29T13:49:33.892Z</time>
      </trkpt>
      <trkpt lat="52.171198" lon="5.071642">
        <ele>-0.619426</ele>
        <time>2026-08-29T13:49:35.900Z</time>
      </trkpt>
      <trkpt lat="52.171157" lon="5.071475">
        <ele>-0.523317</ele>
        <time>2026-08-29T13:49:37.900Z</time>
      </trkpt>
      <trkpt lat="52.171119" lon="5.071305">
        <ele>-0.426644</ele>
        <time>2026-08-29T13:49:39.900Z</time>
      </trkpt>
      <trkpt lat="52.171082" lon="5.071143">
        <ele>-0.334283</ele>
        <time>2026-08-29T13:49:41.902Z</time>
      </trkpt>
      <trkpt lat="52.171056" lon="5.070990">
        <ele>-0.249457</ele>
        <time>2026-08-29T13:49:43.899Z</time>
      </trkpt>
      <trkpt lat="52.171046" lon="5.070831">
        <ele>-0.164060</ele>
        <time>2026-08-29T13:49:45.900Z</time>
      </trkpt>
      <trkpt lat="52.171040" lon="5.070680">
        <ele>-0.083214</ele>
        <time>2026-08-29T13:49:47.900Z</time>
      </trkpt>
      <trkpt lat="52.171005" lon="5.070478">
        <ele>0.028936</ele>
        <time>2026-08-29T13:49:50.899Z</time>
      </trkpt>
      <trkpt lat="52.170966" lon="5.070317">
        <ele>0.121423</ele>
        <time>2026-08-29T13:49:53.900Z</time>
      </trkpt>
      <trkpt lat="52.171060" lon="5.070234">
        <ele>0.214548</ele>
        <time>2026-08-29T13:49:58.893Z</time>
      </trkpt>
      <trkpt lat="52.171154" lon="5.070173">
        <ele>0.255786</ele>
        <time>2026-08-29T13:50:01.903Z</time>
      </trkpt>
      <trkpt lat="52.171284" lon="5.070113">
        <ele>0.288714</ele>
        <time>2026-08-29T13:50:04.902Z</time>
      </trkpt>
      <trkpt lat="52.171382" lon="5.070084">
        <ele>0.312989</ele>
        <time>2026-08-29T13:50:06.904Z</time>
      </trkpt>
      <trkpt lat="52.171486" lon="5.070060">
        <ele>0.338588</ele>
        <time>2026-08-29T13:50:08.901Z</time>
      </trkpt>
      <trkpt lat="52.171586" lon="5.070047">
        <ele>0.363038</ele>
        <time>2026-08-29T13:50:10.899Z</time>
      </trkpt>
      <trkpt lat="52.171688" lon="5.070029">
        <ele>0.388042</ele>
        <time>2026-08-29T13:50:12.900Z</time>
      </trkpt>
      <trkpt lat="52.171793" lon="5.070008">
        <ele>0.413824</ele>
        <time>2026-08-29T13:50:14.893Z</time>
      </trkpt>
      <trkpt lat="52.171901" lon="5.069987">
        <ele>0.440333</ele>
        <time>2026-08-29T13:50:16.897Z</time>
      </trkpt>
      <trkpt lat="52.172013" lon="5.069982">
        <ele>0.467639</ele>
        <time>2026-08-29T13:50:18.900Z</time>
      </trkpt>
      <trkpt lat="52.172123" lon="5.069966">
        <ele>0.494555</ele>
        <time>2026-08-29T13:50:20.895Z</time>
      </trkpt>
      <trkpt lat="52.172234" lon="5.069960">
        <ele>0.521623</ele>
        <time>2026-08-29T13:50:22.899Z</time>
      </trkpt>
      <trkpt lat="52.172342" lon="5.069946">
        <ele>0.548027</ele>
        <time>2026-08-29T13:50:24.894Z</time>
      </trkpt>
      <trkpt lat="52.172451" lon="5.069933">
        <ele>0.574664</ele>
        <time>2026-08-29T13:50:26.895Z</time>
      </trkpt>
      <trkpt lat="52.172563" lon="5.069923">
        <ele>0.602001</ele>
        <time>2026-08-29T13:50:28.895Z</time>
      </trkpt>
      <trkpt lat="52.172675" lon="5.069914">
        <ele>0.629331</ele>
        <time>2026-08-29T13:50:30.894Z</time>
      </trkpt>
      <trkpt lat="52.172787" lon="5.069899">
        <ele>0.656719</ele>
        <time>2026-08-29T13:50:32.897Z</time>
      </trkpt>
      <trkpt lat="52.172903" lon="5.069886">
        <ele>0.680673</ele>
        <time>2026-08-29T13:50:34.896Z</time>
      </trkpt>
      <trkpt lat="52.173021" lon="5.069878">
        <ele>0.695624</ele>
        <time>2026-08-29T13:50:36.895Z</time>
      </trkpt>
      <trkpt lat="52.173137" lon="5.069868">
        <ele>0.710330</ele>
        <time>2026-08-29T13:50:38.895Z</time>
      </trkpt>
      <trkpt lat="52.173252" lon="5.069853">
        <ele>0.724936</ele>
        <time>2026-08-29T13:50:40.893Z</time>
      </trkpt>
      <trkpt lat="52.173372" lon="5.069836">
        <ele>0.740185</ele>
        <time>2026-08-29T13:50:42.894Z</time>
      </trkpt>
      <trkpt lat="52.173503" lon="5.069816">
        <ele>0.756842</ele>
        <time>2026-08-29T13:50:44.900Z</time>
      </trkpt>
      <trkpt lat="52.173631" lon="5.069798">
        <ele>0.773107</ele>
        <time>2026-08-29T13:50:46.900Z</time>
      </trkpt>
      <trkpt lat="52.173760" lon="5.069784">
        <ele>0.789475</ele>
        <time>2026-08-29T13:50:48.895Z</time>
      </trkpt>
      <trkpt lat="52.173887" lon="5.069767">
        <ele>0.805607</ele>
        <time>2026-08-29T13:50:50.899Z</time>
      </trkpt>
      <trkpt lat="52.174009" lon="5.069746">
        <ele>0.821138</ele>
        <time>2026-08-29T13:50:52.908Z</time>
      </trkpt>
      <trkpt lat="52.174130" lon="5.069733">
        <ele>0.836490</ele>
        <time>2026-08-29T13:50:54.894Z</time>
      </trkpt>
      <trkpt lat="52.174253" lon="5.069717">
        <ele>0.852111</ele>
        <time>2026-08-29T13:50:56.900Z</time>
      </trkpt>
      <trkpt lat="52.174372" lon="5.069710">
        <ele>0.867186</ele>
        <time>2026-08-29T13:50:58.895Z</time>
      </trkpt>
      <trkpt lat="52.174493" lon="5.069693">
        <ele>0.882561</ele>
        <time>2026-08-29T13:51:00.900Z</time>
      </trkpt>
      <trkpt lat="52.174616" lon="5.069673">
        <ele>0.898211</ele>
        <time>2026-08-29T13:51:02.899Z</time>
      </trkpt>
      <trkpt lat="52.174737" lon="5.069656">
        <ele>0.899196</ele>
        <time>2026-08-29T13:51:04.900Z</time>
      </trkpt>
      <trkpt lat="52.174855" lon="5.069651">
        <ele>0.892517</ele>
        <time>2026-08-29T13:51:06.892Z</time>
      </trkpt>
      <trkpt lat="52.174970" lon="5.069643">
        <ele>0.886005</ele>
        <time>2026-08-29T13:51:08.893Z</time>
      </trkpt>
      <trkpt lat="52.175089" lon="5.069630">
        <ele>0.879257</ele>
        <time>2026-08-29T13:51:10.893Z</time>
      </trkpt>
      <trkpt lat="52.175204" lon="5.069613">
        <ele>0.872723</ele>
        <time>2026-08-29T13:51:12.896Z</time>
      </trkpt>
      <trkpt lat="52.175320" lon="5.069595">
        <ele>0.866130</ele>
        <time>2026-08-29T13:51:14.895Z</time>
      </trkpt>
      <trkpt lat="52.175435" lon="5.069575">
        <ele>0.859587</ele>
        <time>2026-08-29T13:51:16.893Z</time>
      </trkpt>
      <trkpt lat="52.175549" lon="5.069556">
        <ele>0.853103</ele>
        <time>2026-08-29T13:51:18.908Z</time>
      </trkpt>
      <trkpt lat="52.175667" lon="5.069542">
        <ele>0.846409</ele>
        <time>2026-08-29T13:51:20.908Z</time>
      </trkpt>
      <trkpt lat="52.175784" lon="5.069530">
        <ele>0.839776</ele>
        <time>2026-08-29T13:51:22.908Z</time>
      </trkpt>
      <trkpt lat="52.175907" lon="5.069521">
        <ele>0.832809</ele>
        <time>2026-08-29T13:51:24.897Z</time>
      </trkpt>
      <trkpt lat="52.176027" lon="5.069511">
        <ele>0.826011</ele>
        <time>2026-08-29T13:51:26.896Z</time>
      </trkpt>
      <trkpt lat="52.176144" lon="5.069497">
        <ele>0.819373</ele>
        <time>2026-08-29T13:51:28.908Z</time>
      </trkpt>
      <trkpt lat="52.176264" lon="5.069484">
        <ele>0.812569</ele>
        <time>2026-08-29T13:51:30.908Z</time>
      </trkpt>
      <trkpt lat="52.176383" lon="5.069465">
        <ele>0.805803</ele>
        <time>2026-08-29T13:51:32.901Z</time>
      </trkpt>
      <trkpt lat="52.176497" lon="5.069446">
        <ele>0.809107</ele>
        <time>2026-08-29T13:51:34.900Z</time>
      </trkpt>
      <trkpt lat="52.176614" lon="5.069427">
        <ele>0.827954</ele>
        <time>2026-08-29T13:51:36.900Z</time>
      </trkpt>
      <trkpt lat="52.176730" lon="5.069412">
        <ele>0.846607</ele>
        <time>2026-08-29T13:51:38.902Z</time>
      </trkpt>
      <trkpt lat="52.176847" lon="5.069400">
        <ele>0.865398</ele>
        <time>2026-08-29T13:51:40.900Z</time>
      </trkpt>
      <trkpt lat="52.176964" lon="5.069380">
        <ele>0.884255</ele>
        <time>2026-08-29T13:51:42.900Z</time>
      </trkpt>
      <trkpt lat="52.177077" lon="5.069363">
        <ele>0.902445</ele>
        <time>2026-08-29T13:51:44.900Z</time>
      </trkpt>
      <trkpt lat="52.177185" lon="5.069348">
        <ele>0.919820</ele>
        <time>2026-08-29T13:51:46.897Z</time>
      </trkpt>
      <trkpt lat="52.177300" lon="5.069339">
        <ele>0.938275</ele>
        <time>2026-08-29T13:51:48.908Z</time>
      </trkpt>
      <trkpt lat="52.177413" lon="5.069328">
        <ele>0.956420</ele>
        <time>2026-08-29T13:51:50.895Z</time>
      </trkpt>
      <trkpt lat="52.177525" lon="5.069319">
        <ele>0.974395</ele>
        <time>2026-08-29T13:51:52.895Z</time>
      </trkpt>
      <trkpt lat="52.177644" lon="5.069304">
        <ele>0.993527</ele>
        <time>2026-08-29T13:51:54.894Z</time>
      </trkpt>
      <trkpt lat="52.177764" lon="5.069294">
        <ele>1.012787</ele>
        <time>2026-08-29T13:51:56.895Z</time>
      </trkpt>
      <trkpt lat="52.177883" lon="5.069282">
        <ele>1.031899</ele>
        <time>2026-08-29T13:51:58.896Z</time>
      </trkpt>
      <trkpt lat="52.178000" lon="5.069267">
        <ele>1.050711</ele>
        <time>2026-08-29T13:52:00.894Z</time>
      </trkpt>
      <trkpt lat="52.178119" lon="5.069250">
        <ele>1.069859</ele>
        <time>2026-08-29T13:52:02.895Z</time>
      </trkpt>
      <trkpt lat="52.178241" lon="5.069236">
        <ele>1.089463</ele>
        <time>2026-08-29T13:52:04.895Z</time>
      </trkpt>
      <trkpt lat="52.178366" lon="5.069224">
        <ele>1.026759</ele>
        <time>2026-08-29T13:52:06.899Z</time>
      </trkpt>
      <trkpt lat="52.178489" lon="5.069209">
        <ele>0.961953</ele>
        <time>2026-08-29T13:52:08.896Z</time>
      </trkpt>
      <trkpt lat="52.178611" lon="5.069193">
        <ele>0.897645</ele>
        <time>2026-08-29T13:52:10.895Z</time>
      </trkpt>
      <trkpt lat="52.178728" lon="5.069183">
        <ele>0.836087</ele>
        <time>2026-08-29T13:52:12.908Z</time>
      </trkpt>
      <trkpt lat="52.178846" lon="5.069167">
        <ele>0.773875</ele>
        <time>2026-08-29T13:52:14.893Z</time>
      </trkpt>
      <trkpt lat="52.178963" lon="5.069151">
        <ele>0.712186</ele>
        <time>2026-08-29T13:52:16.894Z</time>
      </trkpt>
      <trkpt lat="52.179076" lon="5.069139">
        <ele>0.652688</ele>
        <time>2026-08-29T13:52:18.895Z</time>
      </trkpt>
      <trkpt lat="52.179192" lon="5.069127">
        <ele>0.591618</ele>
        <time>2026-08-29T13:52:20.908Z</time>
      </trkpt>
      <trkpt lat="52.179312" lon="5.069102">
        <ele>0.528056</ele>
        <time>2026-08-29T13:52:22.894Z</time>
      </trkpt>
      <trkpt lat="52.179435" lon="5.069083">
        <ele>0.463141</ele>
        <time>2026-08-29T13:52:24.896Z</time>
      </trkpt>
      <trkpt lat="52.179559" lon="5.069083">
        <ele>0.397989</ele>
        <time>2026-08-29T13:52:26.896Z</time>
      </trkpt>
      <trkpt lat="52.179681" lon="5.069075">
        <ele>0.333837</ele>
        <time>2026-08-29T13:52:28.896Z</time>
      </trkpt>
      <trkpt lat="52.179802" lon="5.069066">
        <ele>0.270196</ele>
        <time>2026-08-29T13:52:30.908Z</time>
      </trkpt>
      <trkpt lat="52.179924" lon="5.069054">
        <ele>0.205979</ele>
        <time>2026-08-29T13:52:32.895Z</time>
      </trkpt>
      <trkpt lat="52.180043" lon="5.069035">
        <ele>0.144727</ele>
        <time>2026-08-29T13:52:34.894Z</time>
      </trkpt>
      <trkpt lat="52.180170" lon="5.069017">
        <ele>0.130436</ele>
        <time>2026-08-29T13:52:36.896Z</time>
      </trkpt>
      <trkpt lat="52.180290" lon="5.069000">
        <ele>0.116932</ele>
        <time>2026-08-29T13:52:38.894Z</time>
      </trkpt>
      <trkpt lat="52.180409" lon="5.068972">
        <ele>0.103453</ele>
        <time>2026-08-29T13:52:40.896Z</time>
      </trkpt>
      <trkpt lat="52.180540" lon="5.068949">
        <ele>0.088682</ele>
        <time>2026-08-29T13:52:42.896Z</time>
      </trkpt>
      <trkpt lat="52.180665" lon="5.068934">
        <ele>0.074630</ele>
        <time>2026-08-29T13:52:44.891Z</time>
      </trkpt>
      <trkpt lat="52.180789" lon="5.068920">
        <ele>0.060695</ele>
        <time>2026-08-29T13:52:46.898Z</time>
      </trkpt>
      <trkpt lat="52.180916" lon="5.068893">
        <ele>0.046337</ele>
        <time>2026-08-29T13:52:48.894Z</time>
      </trkpt>
      <trkpt lat="52.181034" lon="5.068882">
        <ele>0.033087</ele>
        <time>2026-08-29T13:52:50.900Z</time>
      </trkpt>
      <trkpt lat="52.181154" lon="5.068869">
        <ele>0.019604</ele>
        <time>2026-08-29T13:52:52.895Z</time>
      </trkpt>
      <trkpt lat="52.181277" lon="5.068860">
        <ele>0.005801</ele>
        <time>2026-08-29T13:52:54.900Z</time>
      </trkpt>
      <trkpt lat="52.181398" lon="5.068845">
        <ele>-0.007804</ele>
        <time>2026-08-29T13:52:56.895Z</time>
      </trkpt>
      <trkpt lat="52.181523" lon="5.068831">
        <ele>-0.021850</ele>
        <time>2026-08-29T13:52:58.902Z</time>
      </trkpt>
      <trkpt lat="52.181644" lon="5.068811">
        <ele>-0.035485</ele>
        <time>2026-08-29T13:53:00.896Z</time>
      </trkpt>
      <trkpt lat="52.181767" lon="5.068801">
        <ele>-0.049291</ele>
        <time>2026-08-29T13:53:02.902Z</time>
      </trkpt>
      <trkpt lat="52.181895" lon="5.068790">
        <ele>-0.035854</ele>
        <time>2026-08-29T13:53:04.894Z</time>
      </trkpt>
      <trkpt lat="52.182020" lon="5.068775">
        <ele>0.004586</ele>
        <time>2026-08-29T13:53:06.903Z</time>
      </trkpt>
      <trkpt lat="52.182140" lon="5.068762">
        <ele>0.043389</ele>
        <time>2026-08-29T13:53:08.900Z</time>
      </trkpt>
      <trkpt lat="52.182266" lon="5.068752">
        <ele>0.084091</ele>
        <time>2026-08-29T13:53:10.894Z</time>
      </trkpt>
      <trkpt lat="52.182393" lon="5.068745">
        <ele>0.125090</ele>
        <time>2026-08-29T13:53:12.900Z</time>
      </trkpt>
      <trkpt lat="52.182515" lon="5.068729">
        <ele>0.164580</ele>
        <time>2026-08-29T13:53:14.900Z</time>
      </trkpt>
      <trkpt lat="52.182637" lon="5.068716">
        <ele>0.204027</ele>
        <time>2026-08-29T13:53:16.900Z</time>
      </trkpt>
      <trkpt lat="52.182756" lon="5.068706">
        <ele>0.242473</ele>
        <time>2026-08-29T13:53:18.899Z</time>
      </trkpt>
      <trkpt lat="52.182868" lon="5.068692">
        <ele>0.278715</ele>
        <time>2026-08-29T13:53:20.896Z</time>
      </trkpt>
      <trkpt lat="52.182977" lon="5.068676">
        <ele>0.314026</ele>
        <time>2026-08-29T13:53:22.901Z</time>
      </trkpt>
      <trkpt lat="52.183088" lon="5.068677">
        <ele>0.349840</ele>
        <time>2026-08-29T13:53:24.899Z</time>
      </trkpt>
      <trkpt lat="52.183203" lon="5.068675">
        <ele>0.386947</ele>
        <time>2026-08-29T13:53:26.897Z</time>
      </trkpt>
      <trkpt lat="52.183310" lon="5.068677">
        <ele>0.421472</ele>
        <time>2026-08-29T13:53:28.895Z</time>
      </trkpt>
      <trkpt lat="52.183425" lon="5.068692">
        <ele>0.458695</ele>
        <time>2026-08-29T13:53:30.896Z</time>
      </trkpt>
      <trkpt lat="52.183542" lon="5.068706">
        <ele>0.496546</ele>
        <time>2026-08-29T13:53:32.895Z</time>
      </trkpt>
      <trkpt lat="52.183659" lon="5.068733">
        <ele>0.539230</ele>
        <time>2026-08-29T13:53:34.896Z</time>
      </trkpt>
      <trkpt lat="52.183781" lon="5.068757">
        <ele>0.595558</ele>
        <time>2026-08-29T13:53:36.908Z</time>
      </trkpt>
      <trkpt lat="52.183902" lon="5.068785">
        <ele>0.651577</ele>
        <time>2026-08-29T13:53:38.895Z</time>
      </trkpt>
      <trkpt lat="52.184018" lon="5.068806">
        <ele>0.705075</ele>
        <time>2026-08-29T13:53:40.908Z</time>
      </trkpt>
      <trkpt lat="52.184143" lon="5.068837">
        <ele>0.763031</ele>
        <time>2026-08-29T13:53:42.898Z</time>
      </trkpt>
      <trkpt lat="52.184269" lon="5.068870">
        <ele>0.821527</ele>
        <time>2026-08-29T13:53:44.895Z</time>
      </trkpt>
      <trkpt lat="52.184398" lon="5.068905">
        <ele>0.881470</ele>
        <time>2026-08-29T13:53:46.896Z</time>
      </trkpt>
      <trkpt lat="52.184527" lon="5.068932">
        <ele>0.941086</ele>
        <time>2026-08-29T13:53:48.897Z</time>
      </trkpt>
      <trkpt lat="52.184659" lon="5.068961">
        <ele>1.002138</ele>
        <time>2026-08-29T13:53:50.908Z</time>
      </trkpt>
      <trkpt lat="52.184787" lon="5.068994">
        <ele>1.061539</ele>
        <time>2026-08-29T13:53:52.897Z</time>
      </trkpt>
      <trkpt lat="52.184917" lon="5.069025">
        <ele>1.121762</ele>
        <time>2026-08-29T13:53:54.896Z</time>
      </trkpt>
      <trkpt lat="52.185048" lon="5.069056">
        <ele>1.182438</ele>
        <time>2026-08-29T13:53:56.898Z</time>
      </trkpt>
      <trkpt lat="52.185178" lon="5.069087">
        <ele>1.242661</ele>
        <time>2026-08-29T13:53:58.895Z</time>
      </trkpt>
      <trkpt lat="52.185306" lon="5.069121">
        <ele>1.302106</ele>
        <time>2026-08-29T13:54:00.897Z</time>
      </trkpt>
      <trkpt lat="52.185436" lon="5.069157">
        <ele>1.333897</ele>
        <time>2026-08-29T13:54:02.895Z</time>
      </trkpt>
      <trkpt lat="52.185566" lon="5.069182">
        <ele>1.273292</ele>
        <time>2026-08-29T13:54:04.908Z</time>
      </trkpt>
      <trkpt lat="52.185690" lon="5.069215">
        <ele>1.215122</ele>
        <time>2026-08-29T13:54:06.894Z</time>
      </trkpt>
      <trkpt lat="52.185820" lon="5.069244">
        <ele>1.154374</ele>
        <time>2026-08-29T13:54:08.894Z</time>
      </trkpt>
      <trkpt lat="52.185946" lon="5.069284">
        <ele>1.094943</ele>
        <time>2026-08-29T13:54:10.900Z</time>
      </trkpt>
      <trkpt lat="52.186074" lon="5.069312">
        <ele>1.035150</ele>
        <time>2026-08-29T13:54:12.908Z</time>
      </trkpt>
      <trkpt lat="52.186195" lon="5.069351">
        <ele>0.978045</ele>
        <time>2026-08-29T13:54:14.908Z</time>
      </trkpt>
      <trkpt lat="52.186311" lon="5.069417">
        <ele>0.921165</ele>
        <time>2026-08-29T13:54:16.908Z</time>
      </trkpt>
      <trkpt lat="52.186410" lon="5.069534">
        <ele>0.864562</ele>
        <time>2026-08-29T13:54:18.893Z</time>
      </trkpt>
      <trkpt lat="52.186488" lon="5.069685">
        <ele>0.808515</ele>
        <time>2026-08-29T13:54:20.908Z</time>
      </trkpt>
      <trkpt lat="52.186531" lon="5.069872">
        <ele>0.751823</ele>
        <time>2026-08-29T13:54:22.908Z</time>
      </trkpt>
      <trkpt lat="52.186548" lon="5.070066">
        <ele>0.696196</ele>
        <time>2026-08-29T13:54:24.899Z</time>
      </trkpt>
      <trkpt lat="52.186561" lon="5.070262">
        <ele>0.640236</ele>
        <time>2026-08-29T13:54:26.895Z</time>
      </trkpt>
      <trkpt lat="52.186563" lon="5.070460">
        <ele>0.584026</ele>
        <time>2026-08-29T13:54:28.900Z</time>
      </trkpt>
      <trkpt lat="52.186564" lon="5.070659">
        <ele>0.527537</ele>
        <time>2026-08-29T13:54:30.895Z</time>
      </trkpt>
      <trkpt lat="52.186563" lon="5.070862">
        <ele>0.449062</ele>
        <time>2026-08-29T13:54:32.894Z</time>
      </trkpt>
      <trkpt lat="52.186564" lon="5.071061">
        <ele>0.366762</ele>
        <time>2026-08-29T13:54:34.902Z</time>
      </trkpt>
      <trkpt lat="52.186560" lon="5.071255">
        <ele>0.286488</ele>
        <time>2026-08-29T13:54:36.900Z</time>
      </trkpt>
      <trkpt lat="52.186556" lon="5.071445">
        <ele>0.207867</ele>
        <time>2026-08-29T13:54:38.900Z</time>
      </trkpt>
      <trkpt lat="52.186556" lon="5.071634">
        <ele>0.129706</ele>
        <time>2026-08-29T13:54:40.901Z</time>
      </trkpt>
      <trkpt lat="52.186553" lon="5.071817">
        <ele>0.053999</ele>
        <time>2026-08-29T13:54:42.893Z</time>
      </trkpt>
      <trkpt lat="52.186551" lon="5.072005">
        <ele>-0.023761</ele>
        <time>2026-08-29T13:54:44.893Z</time>
      </trkpt>
      <trkpt lat="52.186544" lon="5.072196">
        <ele>-0.102890</ele>
        <time>2026-08-29T13:54:46.900Z</time>
      </trkpt>
      <trkpt lat="52.186544" lon="5.072386">
        <ele>-0.181465</ele>
        <time>2026-08-29T13:54:48.900Z</time>
      </trkpt>
      <trkpt lat="52.186538" lon="5.072574">
        <ele>-0.259318</ele>
        <time>2026-08-29T13:54:50.895Z</time>
      </trkpt>
      <trkpt lat="52.186535" lon="5.072763">
        <ele>-0.337505</ele>
        <time>2026-08-29T13:54:52.894Z</time>
      </trkpt>
      <trkpt lat="52.186536" lon="5.072953">
        <ele>-0.416083</ele>
        <time>2026-08-29T13:54:54.893Z</time>
      </trkpt>
      <trkpt lat="52.186536" lon="5.073145">
        <ele>-0.495485</ele>
        <time>2026-08-29T13:54:56.895Z</time>
      </trkpt>
      <trkpt lat="52.186532" lon="5.073337">
        <ele>-0.574932</ele>
        <time>2026-08-29T13:54:58.895Z</time>
      </trkpt>
      <trkpt lat="52.186532" lon="5.073523">
        <ele>-0.651853</ele>
        <time>2026-08-29T13:55:00.901Z</time>
      </trkpt>
      <trkpt lat="52.186531" lon="5.073716">
        <ele>-0.680405</ele>
        <time>2026-08-29T13:55:02.899Z</time>
      </trkpt>
      <trkpt lat="52.186530" lon="5.073902">
        <ele>-0.641248</ele>
        <time>2026-08-29T13:55:04.894Z</time>
      </trkpt>
      <trkpt lat="52.186528" lon="5.074087">
        <ele>-0.602296</ele>
        <time>2026-08-29T13:55:06.900Z</time>
      </trkpt>
      <trkpt lat="52.186527" lon="5.074278">
        <ele>-0.562086</ele>
        <time>2026-08-29T13:55:08.894Z</time>
      </trkpt>
      <trkpt lat="52.186526" lon="5.074475">
        <ele>-0.520613</ele>
        <time>2026-08-29T13:55:10.899Z</time>
      </trkpt>
      <trkpt lat="52.186524" lon="5.074668">
        <ele>-0.479978</ele>
        <time>2026-08-29T13:55:12.894Z</time>
      </trkpt>
      <trkpt lat="52.186519" lon="5.074862">
        <ele>-0.439102</ele>
        <time>2026-08-29T13:55:14.895Z</time>
      </trkpt>
      <trkpt lat="52.186512" lon="5.075050">
        <ele>-0.399452</ele>
        <time>2026-08-29T13:55:16.899Z</time>
      </trkpt>
      <trkpt lat="52.186508" lon="5.075234">
        <ele>-0.360692</ele>
        <time>2026-08-29T13:55:18.899Z</time>
      </trkpt>
      <trkpt lat="52.186502" lon="5.075427">
        <ele>-0.320011</ele>
        <time>2026-08-29T13:55:20.900Z</time>
      </trkpt>
      <trkpt lat="52.186495" lon="5.075621">
        <ele>-0.279100</ele>
        <time>2026-08-29T13:55:22.902Z</time>
      </trkpt>
      <trkpt lat="52.186488" lon="5.075814">
        <ele>-0.238399</ele>
        <time>2026-08-29T13:55:24.902Z</time>
      </trkpt>
      <trkpt lat="52.186482" lon="5.076004">
        <ele>-0.198348</ele>
        <time>2026-08-29T13:55:26.900Z</time>
      </trkpt>
      <trkpt lat="52.186477" lon="5.076196">
        <ele>-0.157893</ele>
        <time>2026-08-29T13:55:28.902Z</time>
      </trkpt>
      <trkpt lat="52.186468" lon="5.076370">
        <ele>-0.121133</ele>
        <time>2026-08-29T13:55:30.897Z</time>
      </trkpt>
      <trkpt lat="52.186458" lon="5.076550">
        <ele>-0.083085</ele>
        <time>2026-08-29T13:55:32.895Z</time>
      </trkpt>
      <trkpt lat="52.186453" lon="5.076742">
        <ele>-0.088262</ele>
        <time>2026-08-29T13:55:34.896Z</time>
      </trkpt>
      <trkpt lat="52.186449" lon="5.076932">
        <ele>-0.096974</ele>
        <time>2026-08-29T13:55:36.895Z</time>
      </trkpt>
      <trkpt lat="52.186442" lon="5.077110">
        <ele>-0.105147</ele>
        <time>2026-08-29T13:55:38.895Z</time>
      </trkpt>
      <trkpt lat="52.186435" lon="5.077291">
        <ele>-0.113458</ele>
        <time>2026-08-29T13:55:40.897Z</time>
      </trkpt>
      <trkpt lat="52.186428" lon="5.077470">
        <ele>-0.121677</ele>
        <time>2026-08-29T13:55:42.908Z</time>
      </trkpt>
      <trkpt lat="52.186421" lon="5.077653">
        <ele>-0.130080</ele>
        <time>2026-08-29T13:55:44.900Z</time>
      </trkpt>
      <trkpt lat="52.186414" lon="5.077845">
        <ele>-0.138894</ele>
        <time>2026-08-29T13:55:46.908Z</time>
      </trkpt>
      <trkpt lat="52.186406" lon="5.078037">
        <ele>-0.147712</ele>
        <time>2026-08-29T13:55:48.908Z</time>
      </trkpt>
      <trkpt lat="52.186406" lon="5.078234">
        <ele>-0.156740</ele>
        <time>2026-08-29T13:55:50.899Z</time>
      </trkpt>
      <trkpt lat="52.186400" lon="5.078422">
        <ele>-0.165367</ele>
        <time>2026-08-29T13:55:52.895Z</time>
      </trkpt>
      <trkpt lat="52.186394" lon="5.078618">
        <ele>-0.174360</ele>
        <time>2026-08-29T13:55:54.908Z</time>
      </trkpt>
      <trkpt lat="52.186391" lon="5.078813">
        <ele>-0.183298</ele>
        <time>2026-08-29T13:55:56.901Z</time>
      </trkpt>
      <trkpt lat="52.186382" lon="5.079011">
        <ele>-0.192397</ele>
        <time>2026-08-29T13:55:58.896Z</time>
      </trkpt>
      <trkpt lat="52.186380" lon="5.079212">
        <ele>-0.201609</ele>
        <time>2026-08-29T13:56:00.895Z</time>
      </trkpt>
      <trkpt lat="52.186381" lon="5.079408">
        <ele>-0.210591</ele>
        <time>2026-08-29T13:56:02.899Z</time>
      </trkpt>
      <trkpt lat="52.186377" lon="5.079605">
        <ele>-0.222116</ele>
        <time>2026-08-29T13:56:04.900Z</time>
      </trkpt>
      <trkpt lat="52.186373" lon="5.079800">
        <ele>-0.235443</ele>
        <time>2026-08-29T13:56:06.900Z</time>
      </trkpt>
      <trkpt lat="52.186375" lon="5.079996">
        <ele>-0.248833</ele>
        <time>2026-08-29T13:56:08.894Z</time>
      </trkpt>
      <trkpt lat="52.186380" lon="5.080194">
        <ele>-0.262370</ele>
        <time>2026-08-29T13:56:10.899Z</time>
      </trkpt>
      <trkpt lat="52.186381" lon="5.080394">
        <ele>-0.276032</ele>
        <time>2026-08-29T13:56:12.903Z</time>
      </trkpt>
      <trkpt lat="52.186387" lon="5.080589">
        <ele>-0.289368</ele>
        <time>2026-08-29T13:56:14.903Z</time>
      </trkpt>
      <trkpt lat="52.186386" lon="5.080789">
        <ele>-0.303030</ele>
        <time>2026-08-29T13:56:16.902Z</time>
      </trkpt>
      <trkpt lat="52.186381" lon="5.080992">
        <ele>-0.316908</ele>
        <time>2026-08-29T13:56:18.909Z</time>
      </trkpt>
      <trkpt lat="52.186379" lon="5.081195">
        <ele>-0.330776</ele>
        <time>2026-08-29T13:56:20.908Z</time>
      </trkpt>
      <trkpt lat="52.186389" lon="5.081399">
        <ele>-0.344755</ele>
        <time>2026-08-29T13:56:22.900Z</time>
      </trkpt>
      <trkpt lat="52.186399" lon="5.081605">
        <ele>-0.358870</ele>
        <time>2026-08-29T13:56:24.916Z</time>
      </trkpt>
      <trkpt lat="52.186413" lon="5.081806">
        <ele>-0.372688</ele>
        <time>2026-08-29T13:56:26.904Z</time>
      </trkpt>
      <trkpt lat="52.186427" lon="5.082002">
        <ele>-0.386167</ele>
        <time>2026-08-29T13:56:28.892Z</time>
      </trkpt>
      <trkpt lat="52.186440" lon="5.082202">
        <ele>-0.399905</ele>
        <time>2026-08-29T13:56:30.894Z</time>
      </trkpt>
      <trkpt lat="52.186457" lon="5.082401">
        <ele>-0.413629</ele>
        <time>2026-08-29T13:56:32.896Z</time>
      </trkpt>
      <trkpt lat="52.186473" lon="5.082595">
        <ele>-0.356180</ele>
        <time>2026-08-29T13:56:34.894Z</time>
      </trkpt>
      <trkpt lat="52.186489" lon="5.082791">
        <ele>-0.290407</ele>
        <time>2026-08-29T13:56:36.894Z</time>
      </trkpt>
      <trkpt lat="52.186510" lon="5.082991">
        <ele>-0.222910</ele>
        <time>2026-08-29T13:56:38.908Z</time>
      </trkpt>
      <trkpt lat="52.186528" lon="5.083182">
        <ele>-0.158630</ele>
        <time>2026-08-29T13:56:40.896Z</time>
      </trkpt>
      <trkpt lat="52.186548" lon="5.083373">
        <ele>-0.094176</ele>
        <time>2026-08-29T13:56:42.894Z</time>
      </trkpt>
      <trkpt lat="52.186561" lon="5.083571">
        <ele>-0.027936</ele>
        <time>2026-08-29T13:56:44.897Z</time>
      </trkpt>
      <trkpt lat="52.186577" lon="5.083773">
        <ele>0.039816</ele>
        <time>2026-08-29T13:56:46.895Z</time>
      </trkpt>
      <trkpt lat="52.186593" lon="5.083968">
        <ele>0.105259</ele>
        <time>2026-08-29T13:56:48.908Z</time>
      </trkpt>
      <trkpt lat="52.186616" lon="5.084154">
        <ele>0.168376</ele>
        <time>2026-08-29T13:56:50.896Z</time>
      </trkpt>
      <trkpt lat="52.186633" lon="5.084343">
        <ele>0.231918</ele>
        <time>2026-08-29T13:56:52.895Z</time>
      </trkpt>
      <trkpt lat="52.186648" lon="5.084525">
        <ele>0.293003</ele>
        <time>2026-08-29T13:56:54.895Z</time>
      </trkpt>
      <trkpt lat="52.186663" lon="5.084707">
        <ele>0.354088</ele>
        <time>2026-08-29T13:56:56.894Z</time>
      </trkpt>
      <trkpt lat="52.186676" lon="5.084887">
        <ele>0.414377</ele>
        <time>2026-08-29T13:56:58.908Z</time>
      </trkpt>
      <trkpt lat="52.186691" lon="5.085060">
        <ele>0.472496</ele>
        <time>2026-08-29T13:57:00.895Z</time>
      </trkpt>
      <trkpt lat="52.186708" lon="5.085228">
        <ele>0.529136</ele>
        <time>2026-08-29T13:57:02.908Z</time>
      </trkpt>
      <trkpt lat="52.186717" lon="5.085390">
        <ele>0.552646</ele>
        <time>2026-08-29T13:57:04.907Z</time>
      </trkpt>
      <trkpt lat="52.186731" lon="5.085556">
        <ele>0.531918</ele>
        <time>2026-08-29T13:57:06.908Z</time>
      </trkpt>
      <trkpt lat="52.186746" lon="5.085735">
        <ele>0.509570</ele>
        <time>2026-08-29T13:57:08.899Z</time>
      </trkpt>
      <trkpt lat="52.186760" lon="5.085924">
        <ele>0.486021</ele>
        <time>2026-08-29T13:57:10.898Z</time>
      </trkpt>
      <trkpt lat="52.186776" lon="5.086121">
        <ele>0.461439</ele>
        <time>2026-08-29T13:57:12.895Z</time>
      </trkpt>
      <trkpt lat="52.186789" lon="5.086321">
        <ele>0.436561</ele>
        <time>2026-08-29T13:57:14.896Z</time>
      </trkpt>
      <trkpt lat="52.186801" lon="5.086523">
        <ele>0.411456</ele>
        <time>2026-08-29T13:57:16.908Z</time>
      </trkpt>
      <trkpt lat="52.186809" lon="5.086717">
        <ele>0.387404</ele>
        <time>2026-08-29T13:57:18.896Z</time>
      </trkpt>
      <trkpt lat="52.186824" lon="5.086912">
        <ele>0.363094</ele>
        <time>2026-08-29T13:57:20.908Z</time>
      </trkpt>
      <trkpt lat="52.186838" lon="5.087108">
        <ele>0.338685</ele>
        <time>2026-08-29T13:57:22.898Z</time>
      </trkpt>
      <trkpt lat="52.186855" lon="5.087305">
        <ele>0.314076</ele>
        <time>2026-08-29T13:57:24.896Z</time>
      </trkpt>
      <trkpt lat="52.186873" lon="5.087498">
        <ele>0.289927</ele>
        <time>2026-08-29T13:57:26.897Z</time>
      </trkpt>
      <trkpt lat="52.186895" lon="5.087684">
        <ele>0.266495</ele>
        <time>2026-08-29T13:57:28.908Z</time>
      </trkpt>
      <trkpt lat="52.186915" lon="5.087868">
        <ele>0.243380</ele>
        <time>2026-08-29T13:57:30.908Z</time>
      </trkpt>
      <trkpt lat="52.186933" lon="5.088062">
        <ele>0.219109</ele>
        <time>2026-08-29T13:57:32.908Z</time>
      </trkpt>
      <trkpt lat="52.186952" lon="5.088260">
        <ele>0.199237</ele>
        <time>2026-08-29T13:57:34.896Z</time>
      </trkpt>
      <trkpt lat="52.186974" lon="5.088458">
        <ele>0.207253</ele>
        <time>2026-08-29T13:57:36.896Z</time>
      </trkpt>
      <trkpt lat="52.186999" lon="5.088654">
        <ele>0.215228</ele>
        <time>2026-08-29T13:57:38.895Z</time>
      </trkpt>
      <trkpt lat="52.187019" lon="5.088849">
        <ele>0.223105</ele>
        <time>2026-08-29T13:57:40.895Z</time>
      </trkpt>
      <trkpt lat="52.187044" lon="5.089038">
        <ele>0.230807</ele>
        <time>2026-08-29T13:57:42.894Z</time>
      </trkpt>
      <trkpt lat="52.187068" lon="5.089233">
        <ele>0.238730</ele>
        <time>2026-08-29T13:57:44.908Z</time>
      </trkpt>
      <trkpt lat="52.187091" lon="5.089424">
        <ele>0.246485</ele>
        <time>2026-08-29T13:57:46.895Z</time>
      </trkpt>
      <trkpt lat="52.187111" lon="5.089620">
        <ele>0.254400</ele>
        <time>2026-08-29T13:57:48.897Z</time>
      </trkpt>
      <trkpt lat="52.187133" lon="5.089814">
        <ele>0.262260</ele>
        <time>2026-08-29T13:57:50.897Z</time>
      </trkpt>
      <trkpt lat="52.187154" lon="5.090003">
        <ele>0.269912</ele>
        <time>2026-08-29T13:57:52.895Z</time>
      </trkpt>
      <trkpt lat="52.187178" lon="5.090196">
        <ele>0.277757</ele>
        <time>2026-08-29T13:57:54.894Z</time>
      </trkpt>
      <trkpt lat="52.187199" lon="5.090382">
        <ele>0.285291</ele>
        <time>2026-08-29T13:57:56.895Z</time>
      </trkpt>
      <trkpt lat="52.187226" lon="5.090573">
        <ele>0.293100</ele>
        <time>2026-08-29T13:57:58.894Z</time>
      </trkpt>
      <trkpt lat="52.187245" lon="5.090758">
        <ele>0.300572</ele>
        <time>2026-08-29T13:58:00.895Z</time>
      </trkpt>
      <trkpt lat="52.187269" lon="5.090942">
        <ele>0.308066</ele>
        <time>2026-08-29T13:58:02.894Z</time>
      </trkpt>
      <trkpt lat="52.187288" lon="5.091121">
        <ele>0.315318</ele>
        <time>2026-08-29T13:58:04.894Z</time>
      </trkpt>
      <trkpt lat="52.187306" lon="5.091302">
        <ele>0.322890</ele>
        <time>2026-08-29T13:58:06.894Z</time>
      </trkpt>
      <trkpt lat="52.187317" lon="5.091487">
        <ele>0.330566</ele>
        <time>2026-08-29T13:58:08.895Z</time>
      </trkpt>
      <trkpt lat="52.187337" lon="5.091668">
        <ele>0.338162</ele>
        <time>2026-08-29T13:58:10.894Z</time>
      </trkpt>
      <trkpt lat="52.187356" lon="5.091847">
        <ele>0.345664</ele>
        <time>2026-08-29T13:58:12.894Z</time>
      </trkpt>
      <trkpt lat="52.187379" lon="5.092028">
        <ele>0.353298</ele>
        <time>2026-08-29T13:58:14.896Z</time>
      </trkpt>
      <trkpt lat="52.187399" lon="5.092227">
        <ele>0.361626</ele>
        <time>2026-08-29T13:58:16.894Z</time>
      </trkpt>
      <trkpt lat="52.187421" lon="5.092423">
        <ele>0.369855</ele>
        <time>2026-08-29T13:58:18.894Z</time>
      </trkpt>
      <trkpt lat="52.187443" lon="5.092608">
        <ele>0.377638</ele>
        <time>2026-08-29T13:58:20.892Z</time>
      </trkpt>
      <trkpt lat="52.187450" lon="5.092786">
        <ele>0.385004</ele>
        <time>2026-08-29T13:58:22.891Z</time>
      </trkpt>
      <trkpt lat="52.187463" lon="5.092949">
        <ele>0.391792</ele>
        <time>2026-08-29T13:58:24.894Z</time>
      </trkpt>
      <trkpt lat="52.187484" lon="5.093115">
        <ele>0.398792</ele>
        <time>2026-08-29T13:58:26.893Z</time>
      </trkpt>
      <trkpt lat="52.187501" lon="5.093279">
        <ele>0.405661</ele>
        <time>2026-08-29T13:58:28.895Z</time>
      </trkpt>
      <trkpt lat="52.187522" lon="5.093445">
        <ele>0.412661</ele>
        <time>2026-08-29T13:58:30.896Z</time>
      </trkpt>
      <trkpt lat="52.187538" lon="5.093604">
        <ele>0.419315</ele>
        <time>2026-08-29T13:58:32.892Z</time>
      </trkpt>
      <trkpt lat="52.187557" lon="5.093765">
        <ele>0.426086</ele>
        <time>2026-08-29T13:58:34.894Z</time>
      </trkpt>
      <trkpt lat="52.187571" lon="5.093929">
        <ele>0.432925</ele>
        <time>2026-08-29T13:58:36.895Z</time>
      </trkpt>
      <trkpt lat="52.187587" lon="5.094080">
        <ele>0.417738</ele>
        <time>2026-08-29T13:58:38.894Z</time>
      </trkpt>
      <trkpt lat="52.187614" lon="5.094294">
        <ele>0.365743</ele>
        <time>2026-08-29T13:58:41.908Z</time>
      </trkpt>
      <trkpt lat="52.187634" lon="5.094441">
        <ele>0.329908</ele>
        <time>2026-08-29T13:58:43.909Z</time>
      </trkpt>
      <trkpt lat="52.187652" lon="5.094593">
        <ele>0.293067</ele>
        <time>2026-08-29T13:58:45.894Z</time>
      </trkpt>
      <trkpt lat="52.187671" lon="5.094741">
        <ele>0.257081</ele>
        <time>2026-08-29T13:58:47.894Z</time>
      </trkpt>
      <trkpt lat="52.187689" lon="5.094896">
        <ele>0.219539</ele>
        <time>2026-08-29T13:58:49.893Z</time>
      </trkpt>
      <trkpt lat="52.187711" lon="5.095055">
        <ele>0.180748</ele>
        <time>2026-08-29T13:58:51.893Z</time>
      </trkpt>
      <trkpt lat="52.187733" lon="5.095214">
        <ele>0.141957</ele>
        <time>2026-08-29T13:58:53.895Z</time>
      </trkpt>
      <trkpt lat="52.187755" lon="5.095363">
        <ele>0.105484</ele>
        <time>2026-08-29T13:58:55.893Z</time>
      </trkpt>
      <trkpt lat="52.187772" lon="5.095508">
        <ele>0.070352</ele>
        <time>2026-08-29T13:58:57.908Z</time>
      </trkpt>
      <trkpt lat="52.187791" lon="5.095655">
        <ele>0.034600</ele>
        <time>2026-08-29T13:58:59.896Z</time>
      </trkpt>
      <trkpt lat="52.187810" lon="5.095805">
        <ele>-0.001851</ele>
        <time>2026-08-29T13:59:01.900Z</time>
      </trkpt>
      <trkpt lat="52.187832" lon="5.095961">
        <ele>-0.039946</ele>
        <time>2026-08-29T13:59:03.900Z</time>
      </trkpt>
      <trkpt lat="52.187855" lon="5.096121">
        <ele>-0.079055</ele>
        <time>2026-08-29T13:59:05.894Z</time>
      </trkpt>
      <trkpt lat="52.187876" lon="5.096271">
        <ele>-0.115671</ele>
        <time>2026-08-29T13:59:07.894Z</time>
      </trkpt>
      <trkpt lat="52.187891" lon="5.096431">
        <ele>-0.154190</ele>
        <time>2026-08-29T13:59:09.893Z</time>
      </trkpt>
      <trkpt lat="52.187910" lon="5.096590">
        <ele>-0.192741</ele>
        <time>2026-08-29T13:59:11.908Z</time>
      </trkpt>
      <trkpt lat="52.187931" lon="5.096745">
        <ele>-0.230518</ele>
        <time>2026-08-29T13:59:13.892Z</time>
      </trkpt>
      <trkpt lat="52.187955" lon="5.096906">
        <ele>-0.264534</ele>
        <time>2026-08-29T13:59:15.908Z</time>
      </trkpt>
      <trkpt lat="52.187973" lon="5.097069">
        <ele>-0.276702</ele>
        <time>2026-08-29T13:59:17.896Z</time>
      </trkpt>
      <trkpt lat="52.187995" lon="5.097234">
        <ele>-0.289108</ele>
        <time>2026-08-29T13:59:19.895Z</time>
      </trkpt>
      <trkpt lat="52.188015" lon="5.097407">
        <ele>-0.302042</ele>
        <time>2026-08-29T13:59:21.893Z</time>
      </trkpt>
      <trkpt lat="52.188041" lon="5.097579">
        <ele>-0.315057</ele>
        <time>2026-08-29T13:59:23.893Z</time>
      </trkpt>
      <trkpt lat="52.188061" lon="5.097748">
        <ele>-0.327703</ele>
        <time>2026-08-29T13:59:25.901Z</time>
      </trkpt>
      <trkpt lat="52.188080" lon="5.097918">
        <ele>-0.340398</ele>
        <time>2026-08-29T13:59:27.894Z</time>
      </trkpt>
      <trkpt lat="52.188103" lon="5.098090">
        <ele>-0.353332</ele>
        <time>2026-08-29T13:59:29.899Z</time>
      </trkpt>
      <trkpt lat="52.188127" lon="5.098265">
        <ele>-0.366507</ele>
        <time>2026-08-29T13:59:31.900Z</time>
      </trkpt>
      <trkpt lat="52.188149" lon="5.098446">
        <ele>-0.380064</ele>
        <time>2026-08-29T13:59:33.901Z</time>
      </trkpt>
      <trkpt lat="52.188171" lon="5.098623">
        <ele>-0.393332</ele>
        <time>2026-08-29T13:59:35.894Z</time>
      </trkpt>
      <trkpt lat="52.188194" lon="5.098796">
        <ele>-0.406338</ele>
        <time>2026-08-29T13:59:37.894Z</time>
      </trkpt>
      <trkpt lat="52.188215" lon="5.098981">
        <ele>-0.420161</ele>
        <time>2026-08-29T13:59:39.900Z</time>
      </trkpt>
      <trkpt lat="52.188238" lon="5.099169">
        <ele>-0.434245</ele>
        <time>2026-08-29T13:59:41.901Z</time>
      </trkpt>
      <trkpt lat="52.188261" lon="5.099357">
        <ele>-0.448330</ele>
        <time>2026-08-29T13:59:43.899Z</time>
      </trkpt>
      <trkpt lat="52.188285" lon="5.099541">
        <ele>-0.462150</ele>
        <time>2026-08-29T13:59:45.893Z</time>
      </trkpt>
      <trkpt lat="52.188308" lon="5.099727">
        <ele>-0.476091</ele>
        <time>2026-08-29T13:59:47.900Z</time>
      </trkpt>
      <trkpt lat="52.188331" lon="5.099909">
        <ele>-0.420318</ele>
        <time>2026-08-29T13:59:49.899Z</time>
      </trkpt>
      <trkpt lat="52.188351" lon="5.100094">
        <ele>-0.354816</ele>
        <time>2026-08-29T13:59:51.900Z</time>
      </trkpt>
      <trkpt lat="52.188373" lon="5.100270">
        <ele>-0.292184</ele>
        <time>2026-08-29T13:59:53.900Z</time>
      </trkpt>
      <trkpt lat="52.188393" lon="5.100445">
        <ele>-0.230113</ele>
        <time>2026-08-29T13:59:55.894Z</time>
      </trkpt>
      <trkpt lat="52.188413" lon="5.100616">
        <ele>-0.169412</ele>
        <time>2026-08-29T13:59:57.894Z</time>
      </trkpt>
      <trkpt lat="52.188435" lon="5.100793">
        <ele>-0.106439</ele>
        <time>2026-08-29T13:59:59.901Z</time>
      </trkpt>
      <trkpt lat="52.188453" lon="5.100964">
        <ele>-0.045941</ele>
        <time>2026-08-29T14:00:01.893Z</time>
      </trkpt>
      <trkpt lat="52.188463" lon="5.101137">
        <ele>0.014650</ele>
        <time>2026-08-29T14:00:03.908Z</time>
      </trkpt>
      <trkpt lat="52.188475" lon="5.101310">
        <ele>0.075357</ele>
        <time>2026-08-29T14:00:05.896Z</time>
      </trkpt>
      <trkpt lat="52.188495" lon="5.101487">
        <ele>0.138114</ele>
        <time>2026-08-29T14:00:07.896Z</time>
      </trkpt>
      <trkpt lat="52.188514" lon="5.101671">
        <ele>0.203176</ele>
        <time>2026-08-29T14:00:09.908Z</time>
      </trkpt>
      <trkpt lat="52.188535" lon="5.101853">
        <ele>0.267751</ele>
        <time>2026-08-29T14:00:11.908Z</time>
      </trkpt>
      <trkpt lat="52.188557" lon="5.102031">
        <ele>0.331066</ele>
        <time>2026-08-29T14:00:13.896Z</time>
      </trkpt>
      <trkpt lat="52.188578" lon="5.102213">
        <ele>0.395641</ele>
        <time>2026-08-29T14:00:15.896Z</time>
      </trkpt>
      <trkpt lat="52.188597" lon="5.102388">
        <ele>0.457611</ele>
        <time>2026-08-29T14:00:17.898Z</time>
      </trkpt>
      <trkpt lat="52.188618" lon="5.102568">
        <ele>0.521500</ele>
        <time>2026-08-29T14:00:19.895Z</time>
      </trkpt>
      <trkpt lat="52.188633" lon="5.102747">
        <ele>0.513913</ele>
        <time>2026-08-29T14:00:21.893Z</time>
      </trkpt>
      <trkpt lat="52.188650" lon="5.102921">
        <ele>0.464623</ele>
        <time>2026-08-29T14:00:23.893Z</time>
      </trkpt>
      <trkpt lat="52.188668" lon="5.103097">
        <ele>0.414709</ele>
        <time>2026-08-29T14:00:25.894Z</time>
      </trkpt>
      <trkpt lat="52.188689" lon="5.103272">
        <ele>0.364825</ele>
        <time>2026-08-29T14:00:27.895Z</time>
      </trkpt>
      <trkpt lat="52.188711" lon="5.103450">
        <ele>0.314029</ele>
        <time>2026-08-29T14:00:29.908Z</time>
      </trkpt>
      <trkpt lat="52.188735" lon="5.103631">
        <ele>0.262225</ele>
        <time>2026-08-29T14:00:31.893Z</time>
      </trkpt>
      <trkpt lat="52.188760" lon="5.103805">
        <ele>0.212231</ele>
        <time>2026-08-29T14:00:33.908Z</time>
      </trkpt>
      <trkpt lat="52.188787" lon="5.103984">
        <ele>0.160664</ele>
        <time>2026-08-29T14:00:35.894Z</time>
      </trkpt>
      <trkpt lat="52.188816" lon="5.104160">
        <ele>0.109683</ele>
        <time>2026-08-29T14:00:37.894Z</time>
      </trkpt>
      <trkpt lat="52.188844" lon="5.104336">
        <ele>0.058818</ele>
        <time>2026-08-29T14:00:39.894Z</time>
      </trkpt>
      <trkpt lat="52.188877" lon="5.104513">
        <ele>0.007065</ele>
        <time>2026-08-29T14:00:41.894Z</time>
      </trkpt>
      <trkpt lat="52.188908" lon="5.104693">
        <ele>-0.045238</ele>
        <time>2026-08-29T14:00:43.893Z</time>
      </trkpt>
      <trkpt lat="52.188940" lon="5.104865">
        <ele>-0.095520</ele>
        <time>2026-08-29T14:00:45.893Z</time>
      </trkpt>
      <trkpt lat="52.188973" lon="5.105040">
        <ele>-0.146738</ele>
        <time>2026-08-29T14:00:47.896Z</time>
      </trkpt>
      <trkpt lat="52.189005" lon="5.105214">
        <ele>-0.197555</ele>
        <time>2026-08-29T14:00:49.893Z</time>
      </trkpt>
      <trkpt lat="52.189036" lon="5.105370">
        <ele>-0.243430</ele>
        <time>2026-08-29T14:00:51.894Z</time>
      </trkpt>
      <trkpt lat="52.189060" lon="5.105548">
        <ele>-0.261743</ele>
        <time>2026-08-29T14:00:53.895Z</time>
      </trkpt>
      <trkpt lat="52.189097" lon="5.105722">
        <ele>-0.224783</ele>
        <time>2026-08-29T14:00:55.908Z</time>
      </trkpt>
      <trkpt lat="52.189136" lon="5.105899">
        <ele>-0.187036</ele>
        <time>2026-08-29T14:00:57.896Z</time>
      </trkpt>
      <trkpt lat="52.189167" lon="5.106082">
        <ele>-0.148934</ele>
        <time>2026-08-29T14:00:59.894Z</time>
      </trkpt>
      <trkpt lat="52.189195" lon="5.106268">
        <ele>-0.110498</ele>
        <time>2026-08-29T14:01:01.895Z</time>
      </trkpt>
      <trkpt lat="52.189229" lon="5.106450">
        <ele>-0.072314</ele>
        <time>2026-08-29T14:01:03.898Z</time>
      </trkpt>
      <trkpt lat="52.189267" lon="5.106629">
        <ele>-0.034299</ele>
        <time>2026-08-29T14:01:05.908Z</time>
      </trkpt>
      <trkpt lat="52.189312" lon="5.106809">
        <ele>0.004713</ele>
        <time>2026-08-29T14:01:07.898Z</time>
      </trkpt>
      <trkpt lat="52.189356" lon="5.106991">
        <ele>0.043975</ele>
        <time>2026-08-29T14:01:09.897Z</time>
      </trkpt>
      <trkpt lat="52.189399" lon="5.107177">
        <ele>0.083869</ele>
        <time>2026-08-29T14:01:11.896Z</time>
      </trkpt>
      <trkpt lat="52.189440" lon="5.107367">
        <ele>0.124292</ele>
        <time>2026-08-29T14:01:13.895Z</time>
      </trkpt>
      <trkpt lat="52.189481" lon="5.107545">
        <ele>0.162453</ele>
        <time>2026-08-29T14:01:15.897Z</time>
      </trkpt>
      <trkpt lat="52.189522" lon="5.107724">
        <ele>0.200801</ele>
        <time>2026-08-29T14:01:17.895Z</time>
      </trkpt>
      <trkpt lat="52.189562" lon="5.107904">
        <ele>0.239224</ele>
        <time>2026-08-29T14:01:19.908Z</time>
      </trkpt>
      <trkpt lat="52.189603" lon="5.108086">
        <ele>0.278137</ele>
        <time>2026-08-29T14:01:21.896Z</time>
      </trkpt>
      <trkpt lat="52.189644" lon="5.108262">
        <ele>0.316967</ele>
        <time>2026-08-29T14:01:23.893Z</time>
      </trkpt>
      <trkpt lat="52.189685" lon="5.108442">
        <ele>0.371507</ele>
        <time>2026-08-29T14:01:25.896Z</time>
      </trkpt>
      <trkpt lat="52.189729" lon="5.108626">
        <ele>0.427604</ele>
        <time>2026-08-29T14:01:27.908Z</time>
      </trkpt>
      <trkpt lat="52.189771" lon="5.108807">
        <ele>0.482572</ele>
        <time>2026-08-29T14:01:29.895Z</time>
      </trkpt>
      <trkpt lat="52.189813" lon="5.108983">
        <ele>0.536215</ele>
        <time>2026-08-29T14:01:31.897Z</time>
      </trkpt>
      <trkpt lat="52.189855" lon="5.109163">
        <ele>0.590918</ele>
        <time>2026-08-29T14:01:33.908Z</time>
      </trkpt>
      <trkpt lat="52.189896" lon="5.109341">
        <ele>0.644926</ele>
        <time>2026-08-29T14:01:35.897Z</time>
      </trkpt>
      <trkpt lat="52.189940" lon="5.109517">
        <ele>0.698912</ele>
        <time>2026-08-29T14:01:37.908Z</time>
      </trkpt>
      <trkpt lat="52.189984" lon="5.109687">
        <ele>0.751324</ele>
        <time>2026-08-29T14:01:39.897Z</time>
      </trkpt>
      <trkpt lat="52.190031" lon="5.109854">
        <ele>0.803516</ele>
        <time>2026-08-29T14:01:41.896Z</time>
      </trkpt>
      <trkpt lat="52.190074" lon="5.110022">
        <ele>0.855224</ele>
        <time>2026-08-29T14:01:43.895Z</time>
      </trkpt>
      <trkpt lat="52.190118" lon="5.110180">
        <ele>0.904513</ele>
        <time>2026-08-29T14:01:45.895Z</time>
      </trkpt>
      <trkpt lat="52.190164" lon="5.110343">
        <ele>0.955480</ele>
        <time>2026-08-29T14:01:47.897Z</time>
      </trkpt>
      <trkpt lat="52.190209" lon="5.110509">
        <ele>1.007032</ele>
        <time>2026-08-29T14:01:49.896Z</time>
      </trkpt>
      <trkpt lat="52.190255" lon="5.110674">
        <ele>1.058515</ele>
        <time>2026-08-29T14:01:51.895Z</time>
      </trkpt>
      <trkpt lat="52.190299" lon="5.110829">
        <ele>1.107029</ele>
        <time>2026-08-29T14:01:53.908Z</time>
      </trkpt>
      <trkpt lat="52.190346" lon="5.110989">
        <ele>1.149109</ele>
        <time>2026-08-29T14:01:55.894Z</time>
      </trkpt>
      <trkpt lat="52.190387" lon="5.111155">
        <ele>1.160432</ele>
        <time>2026-08-29T14:01:57.895Z</time>
      </trkpt>
      <trkpt lat="52.190434" lon="5.111320">
        <ele>1.171944</ele>
        <time>2026-08-29T14:01:59.895Z</time>
      </trkpt>
      <trkpt lat="52.190478" lon="5.111479">
        <ele>1.182981</ele>
        <time>2026-08-29T14:02:01.900Z</time>
      </trkpt>
      <trkpt lat="52.190523" lon="5.111641">
        <ele>1.194234</ele>
        <time>2026-08-29T14:02:03.900Z</time>
      </trkpt>
      <trkpt lat="52.190569" lon="5.111810">
        <ele>1.205933</ele>
        <time>2026-08-29T14:02:05.897Z</time>
      </trkpt>
      <trkpt lat="52.190615" lon="5.111979">
        <ele>1.217632</ele>
        <time>2026-08-29T14:02:07.896Z</time>
      </trkpt>
      <trkpt lat="52.190661" lon="5.112149">
        <ele>1.229389</ele>
        <time>2026-08-29T14:02:09.900Z</time>
      </trkpt>
      <trkpt lat="52.190707" lon="5.112316">
        <ele>1.240973</ele>
        <time>2026-08-29T14:02:11.908Z</time>
      </trkpt>
      <trkpt lat="52.190752" lon="5.112485">
        <ele>1.252630</ele>
        <time>2026-08-29T14:02:13.900Z</time>
      </trkpt>
      <trkpt lat="52.190798" lon="5.112659">
        <ele>1.264619</ele>
        <time>2026-08-29T14:02:15.901Z</time>
      </trkpt>
      <trkpt lat="52.190842" lon="5.112835">
        <ele>1.276645</ele>
        <time>2026-08-29T14:02:17.900Z</time>
      </trkpt>
      <trkpt lat="52.190885" lon="5.113004">
        <ele>1.288222</ele>
        <time>2026-08-29T14:02:19.894Z</time>
      </trkpt>
      <trkpt lat="52.190929" lon="5.113170">
        <ele>1.299664</ele>
        <time>2026-08-29T14:02:21.900Z</time>
      </trkpt>
      <trkpt lat="52.190972" lon="5.113337">
        <ele>1.311124</ele>
        <time>2026-08-29T14:02:23.896Z</time>
      </trkpt>
      <trkpt lat="52.191014" lon="5.113498">
        <ele>1.322194</ele>
        <time>2026-08-29T14:02:25.897Z</time>
      </trkpt>
      <trkpt lat="52.191062" lon="5.113661">
        <ele>1.330635</ele>
        <time>2026-08-29T14:02:27.908Z</time>
      </trkpt>
      <trkpt lat="52.191107" lon="5.113834">
        <ele>1.314580</ele>
        <time>2026-08-29T14:02:29.908Z</time>
      </trkpt>
      <trkpt lat="52.191152" lon="5.114017">
        <ele>1.297735</ele>
        <time>2026-08-29T14:02:31.897Z</time>
      </trkpt>
      <trkpt lat="52.191195" lon="5.114207">
        <ele>1.280432</ele>
        <time>2026-08-29T14:02:33.908Z</time>
      </trkpt>
      <trkpt lat="52.191242" lon="5.114398">
        <ele>1.262849</ele>
        <time>2026-08-29T14:02:35.896Z</time>
      </trkpt>
      <trkpt lat="52.191297" lon="5.114588">
        <ele>1.244898</ele>
        <time>2026-08-29T14:02:37.900Z</time>
      </trkpt>
      <trkpt lat="52.191342" lon="5.114789">
        <ele>1.226617</ele>
        <time>2026-08-29T14:02:39.895Z</time>
      </trkpt>
      <trkpt lat="52.191389" lon="5.114979">
        <ele>1.209113</ele>
        <time>2026-08-29T14:02:41.899Z</time>
      </trkpt>
      <trkpt lat="52.191434" lon="5.115170">
        <ele>1.191632</ele>
        <time>2026-08-29T14:02:43.895Z</time>
      </trkpt>
      <trkpt lat="52.191480" lon="5.115358">
        <ele>1.174338</ele>
        <time>2026-08-29T14:02:45.900Z</time>
      </trkpt>
      <trkpt lat="52.191526" lon="5.115540">
        <ele>1.157520</ele>
        <time>2026-08-29T14:02:47.900Z</time>
      </trkpt>
      <trkpt lat="52.191569" lon="5.115719">
        <ele>1.141096</ele>
        <time>2026-08-29T14:02:49.899Z</time>
      </trkpt>
      <trkpt lat="52.191611" lon="5.115886">
        <ele>1.125675</ele>
        <time>2026-08-29T14:02:51.900Z</time>
      </trkpt>
      <trkpt lat="52.191651" lon="5.116053">
        <ele>1.110357</ele>
        <time>2026-08-29T14:02:53.900Z</time>
      </trkpt>
      <trkpt lat="52.191693" lon="5.116219">
        <ele>1.095015</ele>
        <time>2026-08-29T14:02:55.900Z</time>
      </trkpt>
      <trkpt lat="52.191731" lon="5.116384">
        <ele>1.081615</ele>
        <time>2026-08-29T14:02:57.900Z</time>
      </trkpt>
      <trkpt lat="52.191772" lon="5.116544">
        <ele>1.080911</ele>
        <time>2026-08-29T14:02:59.896Z</time>
      </trkpt>
      <trkpt lat="52.191807" lon="5.116705">
        <ele>1.080217</ele>
        <time>2026-08-29T14:03:01.896Z</time>
      </trkpt>
      <trkpt lat="52.191844" lon="5.116870">
        <ele>1.079503</ele>
        <time>2026-08-29T14:03:03.900Z</time>
      </trkpt>
      <trkpt lat="52.191885" lon="5.117039">
        <ele>1.078765</ele>
        <time>2026-08-29T14:03:05.894Z</time>
      </trkpt>
      <trkpt lat="52.191925" lon="5.117207">
        <ele>1.078033</ele>
        <time>2026-08-29T14:03:07.900Z</time>
      </trkpt>
      <trkpt lat="52.191966" lon="5.117377">
        <ele>1.077291</ele>
        <time>2026-08-29T14:03:09.900Z</time>
      </trkpt>
      <trkpt lat="52.192015" lon="5.117539">
        <ele>1.076558</ele>
        <time>2026-08-29T14:03:11.900Z</time>
      </trkpt>
      <trkpt lat="52.192062" lon="5.117712">
        <ele>1.075789</ele>
        <time>2026-08-29T14:03:13.894Z</time>
      </trkpt>
      <trkpt lat="52.192104" lon="5.117886">
        <ele>1.075030</ele>
        <time>2026-08-29T14:03:15.900Z</time>
      </trkpt>
      <trkpt lat="52.192149" lon="5.118063">
        <ele>1.074251</ele>
        <time>2026-08-29T14:03:17.893Z</time>
      </trkpt>
      <trkpt lat="52.192194" lon="5.118242">
        <ele>1.073466</ele>
        <time>2026-08-29T14:03:19.900Z</time>
      </trkpt>
      <trkpt lat="52.192231" lon="5.118413">
        <ele>1.072729</ele>
        <time>2026-08-29T14:03:21.900Z</time>
      </trkpt>
      <trkpt lat="52.192272" lon="5.118581">
        <ele>1.071995</ele>
        <time>2026-08-29T14:03:23.900Z</time>
      </trkpt>
      <trkpt lat="52.192312" lon="5.118751">
        <ele>1.071255</ele>
        <time>2026-08-29T14:03:25.899Z</time>
      </trkpt>
      <trkpt lat="52.192353" lon="5.118921">
        <ele>1.070513</ele>
        <time>2026-08-29T14:03:27.900Z</time>
      </trkpt>
      <trkpt lat="52.192395" lon="5.119085">
        <ele>1.069792</ele>
        <time>2026-08-29T14:03:29.894Z</time>
      </trkpt>
      <trkpt lat="52.192436" lon="5.119239">
        <ele>1.080788</ele>
        <time>2026-08-29T14:03:31.893Z</time>
      </trkpt>
      <trkpt lat="52.192480" lon="5.119404">
        <ele>1.092759</ele>
        <time>2026-08-29T14:03:33.900Z</time>
      </trkpt>
      <trkpt lat="52.192524" lon="5.119577">
        <ele>1.105221</ele>
        <time>2026-08-29T14:03:35.899Z</time>
      </trkpt>
      <trkpt lat="52.192571" lon="5.119752">
        <ele>1.117933</ele>
        <time>2026-08-29T14:03:37.900Z</time>
      </trkpt>
      <trkpt lat="52.192615" lon="5.119930">
        <ele>1.130703</ele>
        <time>2026-08-29T14:03:39.900Z</time>
      </trkpt>
      <trkpt lat="52.192658" lon="5.120094">
        <ele>1.142570</ele>
        <time>2026-08-29T14:03:41.900Z</time>
      </trkpt>
      <trkpt lat="52.192703" lon="5.120257">
        <ele>1.154464</ele>
        <time>2026-08-29T14:03:43.899Z</time>
      </trkpt>
      <trkpt lat="52.192745" lon="5.120425">
        <ele>1.166536</ele>
        <time>2026-08-29T14:03:45.900Z</time>
      </trkpt>
      <trkpt lat="52.192788" lon="5.120593">
        <ele>1.178649</ele>
        <time>2026-08-29T14:03:47.900Z</time>
      </trkpt>
      <trkpt lat="52.192831" lon="5.120756">
        <ele>1.190455</ele>
        <time>2026-08-29T14:03:49.900Z</time>
      </trkpt>
      <trkpt lat="52.192874" lon="5.120928">
        <ele>1.202814</ele>
        <time>2026-08-29T14:03:51.900Z</time>
      </trkpt>
      <trkpt lat="52.192915" lon="5.121098">
        <ele>1.214969</ele>
        <time>2026-08-29T14:03:53.900Z</time>
      </trkpt>
      <trkpt lat="52.192957" lon="5.121270">
        <ele>1.227287</ele>
        <time>2026-08-29T14:03:55.900Z</time>
      </trkpt>
      <trkpt lat="52.192997" lon="5.121445">
        <ele>1.239713</ele>
        <time>2026-08-29T14:03:57.900Z</time>
      </trkpt>
      <trkpt lat="52.193038" lon="5.121618">
        <ele>1.252054</ele>
        <time>2026-08-29T14:03:59.900Z</time>
      </trkpt>
      <trkpt lat="52.193082" lon="5.121787">
        <ele>1.264270</ele>
        <time>2026-08-29T14:04:01.900Z</time>
      </trkpt>
      <trkpt lat="52.193124" lon="5.121960">
        <ele>1.236422</ele>
        <time>2026-08-29T14:04:03.894Z</time>
      </trkpt>
      <trkpt lat="52.193168" lon="5.122118">
        <ele>1.208100</ele>
        <time>2026-08-29T14:04:05.899Z</time>
      </trkpt>
      <trkpt lat="52.193210" lon="5.122265">
        <ele>1.181632</ele>
        <time>2026-08-29T14:04:07.894Z</time>
      </trkpt>
      <trkpt lat="52.193246" lon="5.122401">
        <ele>1.157455</ele>
        <time>2026-08-29T14:04:09.900Z</time>
      </trkpt>
      <trkpt lat="52.193283" lon="5.122543">
        <ele>1.132274</ele>
        <time>2026-08-29T14:04:11.900Z</time>
      </trkpt>
      <trkpt lat="52.193323" lon="5.122692">
        <ele>1.105728</ele>
        <time>2026-08-29T14:04:13.894Z</time>
      </trkpt>
      <trkpt lat="52.193366" lon="5.122840">
        <ele>1.078998</ele>
        <time>2026-08-29T14:04:15.901Z</time>
      </trkpt>
      <trkpt lat="52.193409" lon="5.122983">
        <ele>1.053004</ele>
        <time>2026-08-29T14:04:17.900Z</time>
      </trkpt>
      <trkpt lat="52.193453" lon="5.123138">
        <ele>1.025127</ele>
        <time>2026-08-29T14:04:19.893Z</time>
      </trkpt>
      <trkpt lat="52.193498" lon="5.123288">
        <ele>0.997873</ele>
        <time>2026-08-29T14:04:21.899Z</time>
      </trkpt>
      <trkpt lat="52.193544" lon="5.123440">
        <ele>0.970208</ele>
        <time>2026-08-29T14:04:23.900Z</time>
      </trkpt>
      <trkpt lat="52.193593" lon="5.123592">
        <ele>0.942181</ele>
        <time>2026-08-29T14:04:25.900Z</time>
      </trkpt>
      <trkpt lat="52.193640" lon="5.123745">
        <ele>0.914251</ele>
        <time>2026-08-29T14:04:27.901Z</time>
      </trkpt>
      <trkpt lat="52.193688" lon="5.123901">
        <ele>0.885765</ele>
        <time>2026-08-29T14:04:29.894Z</time>
      </trkpt>
      <trkpt lat="52.193737" lon="5.124058">
        <ele>0.857013</ele>
        <time>2026-08-29T14:04:31.894Z</time>
      </trkpt>
      <trkpt lat="52.193785" lon="5.124213">
        <ele>0.828672</ele>
        <time>2026-08-29T14:04:33.900Z</time>
      </trkpt>
      <trkpt lat="52.193837" lon="5.124377">
        <ele>0.798539</ele>
        <time>2026-08-29T14:04:35.901Z</time>
      </trkpt>
      <trkpt lat="52.193893" lon="5.124540">
        <ele>0.786209</ele>
        <time>2026-08-29T14:04:37.899Z</time>
      </trkpt>
      <trkpt lat="52.193947" lon="5.124706">
        <ele>0.786323</ele>
        <time>2026-08-29T14:04:39.900Z</time>
      </trkpt>
      <trkpt lat="52.193999" lon="5.124859">
        <ele>0.786430</ele>
        <time>2026-08-29T14:04:41.900Z</time>
      </trkpt>
      <trkpt lat="52.194056" lon="5.124976">
        <ele>0.786520</ele>
        <time>2026-08-29T14:04:47.900Z</time>
      </trkpt>
      <trkpt lat="52.194054" lon="5.124817">
        <ele>0.786617</ele>
        <time>2026-08-29T14:04:53.895Z</time>
      </trkpt>
      <trkpt lat="52.193981" lon="5.124717">
        <ele>0.786711</ele>
        <time>2026-08-29T14:04:59.900Z</time>
      </trkpt>
      <trkpt lat="52.194079" lon="5.125074">
        <ele>0.786949</ele>
        <time>2026-08-29T14:05:31.894Z</time>
      </trkpt>
      <trkpt lat="52.194125" lon="5.125220">
        <ele>0.787049</ele>
        <time>2026-08-29T14:05:34.894Z</time>
      </trkpt>
      <trkpt lat="52.194182" lon="5.125393">
        <ele>0.787168</ele>
        <time>2026-08-29T14:05:37.893Z</time>
      </trkpt>
      <trkpt lat="52.194248" lon="5.125584">
        <ele>0.787302</ele>
        <time>2026-08-29T14:05:40.907Z</time>
      </trkpt>
      <trkpt lat="52.194298" lon="5.125717">
        <ele>0.787396</ele>
        <time>2026-08-29T14:05:42.894Z</time>
      </trkpt>
      <trkpt lat="52.194345" lon="5.125847">
        <ele>0.787488</ele>
        <time>2026-08-29T14:05:44.895Z</time>
      </trkpt>
      <trkpt lat="52.194388" lon="5.125977">
        <ele>0.787578</ele>
        <time>2026-08-29T14:05:46.894Z</time>
      </trkpt>
      <trkpt lat="52.194436" lon="5.126110">
        <ele>0.787672</ele>
        <time>2026-08-29T14:05:48.893Z</time>
      </trkpt>
      <trkpt lat="52.194490" lon="5.126243">
        <ele>0.787769</ele>
        <time>2026-08-29T14:05:50.898Z</time>
      </trkpt>
      <trkpt lat="52.194549" lon="5.126379">
        <ele>0.787870</ele>
        <time>2026-08-29T14:05:52.898Z</time>
      </trkpt>
      <trkpt lat="52.194609" lon="5.126521">
        <ele>0.781999</ele>
        <time>2026-08-29T14:05:54.899Z</time>
      </trkpt>
      <trkpt lat="52.194666" lon="5.126668">
        <ele>0.769448</ele>
        <time>2026-08-29T14:05:56.898Z</time>
      </trkpt>
      <trkpt lat="52.194723" lon="5.126803">
        <ele>0.757619</ele>
        <time>2026-08-29T14:05:58.897Z</time>
      </trkpt>
      <trkpt lat="52.194781" lon="5.126943">
        <ele>0.745426</ele>
        <time>2026-08-29T14:06:00.898Z</time>
      </trkpt>
      <trkpt lat="52.194843" lon="5.127090">
        <ele>0.732551</ele>
        <time>2026-08-29T14:06:02.899Z</time>
      </trkpt>
      <trkpt lat="52.194909" lon="5.127229">
        <ele>0.719864</ele>
        <time>2026-08-29T14:06:04.898Z</time>
      </trkpt>
      <trkpt lat="52.194982" lon="5.127369">
        <ele>0.706602</ele>
        <time>2026-08-29T14:06:06.895Z</time>
      </trkpt>
      <trkpt lat="52.195048" lon="5.127513">
        <ele>0.693628</ele>
        <time>2026-08-29T14:06:08.899Z</time>
      </trkpt>
      <trkpt lat="52.195116" lon="5.127656">
        <ele>0.680568</ele>
        <time>2026-08-29T14:06:10.899Z</time>
      </trkpt>
      <trkpt lat="52.195188" lon="5.127805">
        <ele>0.666878</ele>
        <time>2026-08-29T14:06:12.899Z</time>
      </trkpt>
      <trkpt lat="52.195258" lon="5.127948">
        <ele>0.653673</ele>
        <time>2026-08-29T14:06:14.900Z</time>
      </trkpt>
      <trkpt lat="52.195332" lon="5.128099">
        <ele>0.639723</ele>
        <time>2026-08-29T14:06:16.900Z</time>
      </trkpt>
      <trkpt lat="52.195404" lon="5.128256">
        <ele>0.625575</ele>
        <time>2026-08-29T14:06:18.899Z</time>
      </trkpt>
      <trkpt lat="52.195480" lon="5.128404">
        <ele>0.611644</ele>
        <time>2026-08-29T14:06:20.899Z</time>
      </trkpt>
      <trkpt lat="52.195547" lon="5.128556">
        <ele>0.598135</ele>
        <time>2026-08-29T14:06:22.895Z</time>
      </trkpt>
      <trkpt lat="52.195621" lon="5.128699">
        <ele>0.584631</ele>
        <time>2026-08-29T14:06:24.898Z</time>
      </trkpt>
      <trkpt lat="52.195694" lon="5.128842">
        <ele>0.564656</ele>
        <time>2026-08-29T14:06:26.908Z</time>
      </trkpt>
      <trkpt lat="52.195764" lon="5.128977">
        <ele>0.535168</ele>
        <time>2026-08-29T14:06:28.897Z</time>
      </trkpt>
      <trkpt lat="52.195823" lon="5.129108">
        <ele>0.508058</ele>
        <time>2026-08-29T14:06:30.896Z</time>
      </trkpt>
      <trkpt lat="52.195796" lon="5.129299">
        <ele>0.475370</ele>
        <time>2026-08-29T14:06:33.895Z</time>
      </trkpt>
      <trkpt lat="52.195743" lon="5.129425">
        <ele>0.449886</ele>
        <time>2026-08-29T14:06:35.909Z</time>
      </trkpt>
      <trkpt lat="52.195692" lon="5.129576">
        <ele>0.421134</ele>
        <time>2026-08-29T14:06:37.902Z</time>
      </trkpt>
      <trkpt lat="52.195639" lon="5.129736">
        <ele>0.390804</ele>
        <time>2026-08-29T14:06:39.895Z</time>
      </trkpt>
      <trkpt lat="52.195588" lon="5.129890">
        <ele>0.361613</ele>
        <time>2026-08-29T14:06:41.896Z</time>
      </trkpt>
      <trkpt lat="52.195537" lon="5.130052">
        <ele>0.331242</ele>
        <time>2026-08-29T14:06:43.895Z</time>
      </trkpt>
      <trkpt lat="52.195482" lon="5.130214">
        <ele>0.300358</ele>
        <time>2026-08-29T14:06:45.895Z</time>
      </trkpt>
      <trkpt lat="52.195431" lon="5.130383">
        <ele>0.268944</ele>
        <time>2026-08-29T14:06:47.907Z</time>
      </trkpt>
      <trkpt lat="52.195395" lon="5.130561">
        <ele>0.237685</ele>
        <time>2026-08-29T14:06:49.898Z</time>
      </trkpt>
      <trkpt lat="52.195394" lon="5.130748">
        <ele>0.206498</ele>
        <time>2026-08-29T14:06:51.907Z</time>
      </trkpt>
      <trkpt lat="52.195423" lon="5.130929">
        <ele>0.175299</ele>
        <time>2026-08-29T14:06:53.907Z</time>
      </trkpt>
      <trkpt lat="52.195460" lon="5.131103">
        <ele>0.144585</ele>
        <time>2026-08-29T14:06:55.898Z</time>
      </trkpt>
      <trkpt lat="52.195492" lon="5.131278">
        <ele>0.114130</ele>
        <time>2026-08-29T14:06:57.898Z</time>
      </trkpt>
      <trkpt lat="52.195529" lon="5.131448">
        <ele>0.087756</ele>
        <time>2026-08-29T14:06:59.895Z</time>
      </trkpt>
      <trkpt lat="52.195561" lon="5.131628">
        <ele>0.097905</ele>
        <time>2026-08-29T14:07:01.899Z</time>
      </trkpt>
      <trkpt lat="52.195596" lon="5.131806">
        <ele>0.108028</ele>
        <time>2026-08-29T14:07:03.907Z</time>
      </trkpt>
      <trkpt lat="52.195627" lon="5.131992">
        <ele>0.118467</ele>
        <time>2026-08-29T14:07:05.897Z</time>
      </trkpt>
      <trkpt lat="52.195637" lon="5.132183">
        <ele>0.128848</ele>
        <time>2026-08-29T14:07:07.907Z</time>
      </trkpt>
      <trkpt lat="52.195602" lon="5.132362">
        <ele>0.139022</ele>
        <time>2026-08-29T14:07:09.895Z</time>
      </trkpt>
      <trkpt lat="52.195557" lon="5.132529">
        <ele>0.148901</ele>
        <time>2026-08-29T14:07:11.896Z</time>
      </trkpt>
      <trkpt lat="52.195512" lon="5.132694">
        <ele>0.158681</ele>
        <time>2026-08-29T14:07:13.894Z</time>
      </trkpt>
      <trkpt lat="52.195465" lon="5.132863">
        <ele>0.168731</ele>
        <time>2026-08-29T14:07:15.893Z</time>
      </trkpt>
      <trkpt lat="52.195415" lon="5.133027">
        <ele>0.178650</ele>
        <time>2026-08-29T14:07:17.894Z</time>
      </trkpt>
      <trkpt lat="52.195370" lon="5.133192">
        <ele>0.188430</ele>
        <time>2026-08-29T14:07:19.907Z</time>
      </trkpt>
      <trkpt lat="52.195321" lon="5.133353">
        <ele>0.198164</ele>
        <time>2026-08-29T14:07:21.898Z</time>
      </trkpt>
      <trkpt lat="52.195276" lon="5.133518">
        <ele>0.207944</ele>
        <time>2026-08-29T14:07:23.894Z</time>
      </trkpt>
      <trkpt lat="52.195227" lon="5.133683">
        <ele>0.217873</ele>
        <time>2026-08-29T14:07:25.896Z</time>
      </trkpt>
      <trkpt lat="52.195178" lon="5.133843">
        <ele>0.227558</ele>
        <time>2026-08-29T14:07:27.895Z</time>
      </trkpt>
      <trkpt lat="52.195132" lon="5.134007">
        <ele>0.237325</ele>
        <time>2026-08-29T14:07:29.899Z</time>
      </trkpt>
      <trkpt lat="52.195085" lon="5.134172">
        <ele>0.255101</ele>
        <time>2026-08-29T14:07:31.895Z</time>
      </trkpt>
      <trkpt lat="52.195035" lon="5.134336">
        <ele>0.320014</ele>
        <time>2026-08-29T14:07:33.898Z</time>
      </trkpt>
      <trkpt lat="52.194985" lon="5.134496">
        <ele>0.383662</ele>
        <time>2026-08-29T14:07:35.898Z</time>
      </trkpt>
      <trkpt lat="52.194940" lon="5.134654">
        <ele>0.445406</ele>
        <time>2026-08-29T14:07:37.895Z</time>
      </trkpt>
      <trkpt lat="52.194893" lon="5.134812">
        <ele>0.507647</ele>
        <time>2026-08-29T14:07:39.896Z</time>
      </trkpt>
      <trkpt lat="52.194848" lon="5.134968">
        <ele>0.568749</ele>
        <time>2026-08-29T14:07:41.894Z</time>
      </trkpt>
      <trkpt lat="52.194801" lon="5.135126">
        <ele>0.630990</ele>
        <time>2026-08-29T14:07:43.894Z</time>
      </trkpt>
      <trkpt lat="52.194755" lon="5.135288">
        <ele>0.694264</ele>
        <time>2026-08-29T14:07:45.898Z</time>
      </trkpt>
      <trkpt lat="52.194717" lon="5.135455">
        <ele>0.757395</ele>
        <time>2026-08-29T14:07:47.900Z</time>
      </trkpt>
      <trkpt lat="52.194707" lon="5.135626">
        <ele>0.818273</ele>
        <time>2026-08-29T14:07:49.896Z</time>
      </trkpt>
      <trkpt lat="52.194760" lon="5.135774">
        <ele>0.879019</ele>
        <time>2026-08-29T14:07:51.898Z</time>
      </trkpt>
      <trkpt lat="52.194857" lon="5.135861">
        <ele>0.943018</ele>
        <time>2026-08-29T14:07:53.907Z</time>
      </trkpt>
      <trkpt lat="52.194962" lon="5.135932">
        <ele>1.008734</ele>
        <time>2026-08-29T14:07:55.896Z</time>
      </trkpt>
      <trkpt lat="52.195062" lon="5.135996">
        <ele>1.070840</ele>
        <time>2026-08-29T14:07:57.901Z</time>
      </trkpt>
      <trkpt lat="52.195168" lon="5.136064">
        <ele>1.136693</ele>
        <time>2026-08-29T14:07:59.907Z</time>
      </trkpt>
      <trkpt lat="52.195279" lon="5.136108">
        <ele>1.202736</ele>
        <time>2026-08-29T14:08:01.895Z</time>
      </trkpt>
      <trkpt lat="52.195391" lon="5.136160">
        <ele>1.270062</ele>
        <time>2026-08-29T14:08:03.896Z</time>
      </trkpt>
      <trkpt lat="52.195505" lon="5.136229">
        <ele>1.289433</ele>
        <time>2026-08-29T14:08:05.898Z</time>
      </trkpt>
      <trkpt lat="52.195616" lon="5.136311">
        <ele>1.294294</ele>
        <time>2026-08-29T14:08:07.907Z</time>
      </trkpt>
      <trkpt lat="52.195732" lon="5.136381">
        <ele>1.299228</ele>
        <time>2026-08-29T14:08:09.897Z</time>
      </trkpt>
      <trkpt lat="52.195842" lon="5.136449">
        <ele>1.303921</ele>
        <time>2026-08-29T14:08:11.894Z</time>
      </trkpt>
      <trkpt lat="52.195951" lon="5.136528">
        <ele>1.308679</ele>
        <time>2026-08-29T14:08:13.894Z</time>
      </trkpt>
      <trkpt lat="52.196061" lon="5.136594">
        <ele>1.313355</ele>
        <time>2026-08-29T14:08:15.899Z</time>
      </trkpt>
      <trkpt lat="52.196175" lon="5.136673">
        <ele>1.318296</ele>
        <time>2026-08-29T14:08:17.906Z</time>
      </trkpt>
      <trkpt lat="52.196279" lon="5.136752">
        <ele>1.322873</ele>
        <time>2026-08-29T14:08:19.895Z</time>
      </trkpt>
      <trkpt lat="52.196390" lon="5.136835">
        <ele>1.327744</ele>
        <time>2026-08-29T14:08:21.898Z</time>
      </trkpt>
      <trkpt lat="52.196499" lon="5.136909">
        <ele>1.332454</ele>
        <time>2026-08-29T14:08:23.900Z</time>
      </trkpt>
      <trkpt lat="52.196609" lon="5.136989">
        <ele>1.337259</ele>
        <time>2026-08-29T14:08:25.896Z</time>
      </trkpt>
      <trkpt lat="52.196712" lon="5.137075">
        <ele>1.341875</ele>
        <time>2026-08-29T14:08:27.906Z</time>
      </trkpt>
      <trkpt lat="52.196802" lon="5.137184">
        <ele>1.346346</ele>
        <time>2026-08-29T14:08:29.901Z</time>
      </trkpt>
      <trkpt lat="52.196888" lon="5.137316">
        <ele>1.351057</ele>
        <time>2026-08-29T14:08:31.893Z</time>
      </trkpt>
      <trkpt lat="52.196960" lon="5.137457">
        <ele>1.355545</ele>
        <time>2026-08-29T14:08:33.907Z</time>
      </trkpt>
      <trkpt lat="52.197024" lon="5.137612">
        <ele>1.339323</ele>
        <time>2026-08-29T14:08:35.895Z</time>
      </trkpt>
      <trkpt lat="52.197069" lon="5.137784">
        <ele>1.308693</ele>
        <time>2026-08-29T14:08:37.907Z</time>
      </trkpt>
      <trkpt lat="52.197101" lon="5.137966">
        <ele>1.277681</ele>
        <time>2026-08-29T14:08:39.907Z</time>
      </trkpt>
      <trkpt lat="52.197117" lon="5.138150">
        <ele>1.247243</ele>
        <time>2026-08-29T14:08:41.906Z</time>
      </trkpt>
      <trkpt lat="52.197124" lon="5.138339">
        <ele>1.216231</ele>
        <time>2026-08-29T14:08:43.891Z</time>
      </trkpt>
      <trkpt lat="52.197126" lon="5.138534">
        <ele>1.184289</ele>
        <time>2026-08-29T14:08:45.892Z</time>
      </trkpt>
      <trkpt lat="52.197126" lon="5.138735">
        <ele>1.151368</ele>
        <time>2026-08-29T14:08:47.892Z</time>
      </trkpt>
      <trkpt lat="52.197122" lon="5.138932">
        <ele>1.119084</ele>
        <time>2026-08-29T14:08:49.895Z</time>
      </trkpt>
      <trkpt lat="52.197110" lon="5.139127">
        <ele>1.086986</ele>
        <time>2026-08-29T14:08:51.899Z</time>
      </trkpt>
      <trkpt lat="52.197098" lon="5.139326">
        <ele>1.054235</ele>
        <time>2026-08-29T14:08:53.895Z</time>
      </trkpt>
      <trkpt lat="52.197080" lon="5.139519">
        <ele>1.022261</ele>
        <time>2026-08-29T14:08:55.895Z</time>
      </trkpt>
      <trkpt lat="52.197064" lon="5.139714">
        <ele>0.990038</ele>
        <time>2026-08-29T14:08:57.907Z</time>
      </trkpt>
      <trkpt lat="52.197040" lon="5.139903">
        <ele>0.958425</ele>
        <time>2026-08-29T14:08:59.907Z</time>
      </trkpt>
      <trkpt lat="52.197017" lon="5.140091">
        <ele>0.927026</ele>
        <time>2026-08-29T14:09:01.895Z</time>
      </trkpt>
      <trkpt lat="52.196994" lon="5.140282">
        <ele>0.895145</ele>
        <time>2026-08-29T14:09:03.895Z</time>
      </trkpt>
      <trkpt lat="52.196939" lon="5.140453">
        <ele>0.884874</ele>
        <time>2026-08-29T14:09:05.894Z</time>
      </trkpt>
      <trkpt lat="52.196854" lon="5.140590">
        <ele>0.904285</ele>
        <time>2026-08-29T14:09:07.894Z</time>
      </trkpt>
      <trkpt lat="52.196784" lon="5.140740">
        <ele>0.923057</ele>
        <time>2026-08-29T14:09:09.892Z</time>
      </trkpt>
      <trkpt lat="52.196724" lon="5.140900">
        <ele>0.941734</ele>
        <time>2026-08-29T14:09:11.907Z</time>
      </trkpt>
      <trkpt lat="52.196682" lon="5.141078">
        <ele>0.960726</ele>
        <time>2026-08-29T14:09:13.894Z</time>
      </trkpt>
      <trkpt lat="52.196638" lon="5.141247">
        <ele>0.979010</ele>
        <time>2026-08-29T14:09:15.907Z</time>
      </trkpt>
      <trkpt lat="52.196601" lon="5.141423">
        <ele>0.997537</ele>
        <time>2026-08-29T14:09:17.908Z</time>
      </trkpt>
      <trkpt lat="52.196554" lon="5.141591">
        <ele>1.015926</ele>
        <time>2026-08-29T14:09:19.907Z</time>
      </trkpt>
      <trkpt lat="52.196506" lon="5.141750">
        <ele>1.033574</ele>
        <time>2026-08-29T14:09:21.900Z</time>
      </trkpt>
      <trkpt lat="52.196453" lon="5.141904">
        <ele>1.051161</ele>
        <time>2026-08-29T14:09:23.899Z</time>
      </trkpt>
      <trkpt lat="52.196395" lon="5.142058">
        <ele>1.069159</ele>
        <time>2026-08-29T14:09:25.899Z</time>
      </trkpt>
      <trkpt lat="52.196340" lon="5.142218">
        <ele>1.087425</ele>
        <time>2026-08-29T14:09:27.898Z</time>
      </trkpt>
      <trkpt lat="52.196297" lon="5.142383">
        <ele>1.105278</ele>
        <time>2026-08-29T14:09:29.894Z</time>
      </trkpt>
      <trkpt lat="52.196256" lon="5.142551">
        <ele>1.123284</ele>
        <time>2026-08-29T14:09:31.898Z</time>
      </trkpt>
      <trkpt lat="52.196216" lon="5.142724">
        <ele>1.141696</ele>
        <time>2026-08-29T14:09:33.899Z</time>
      </trkpt>
      <trkpt lat="52.196177" lon="5.142891">
        <ele>1.159491</ele>
        <time>2026-08-29T14:09:35.891Z</time>
      </trkpt>
      <trkpt lat="52.196139" lon="5.143059">
        <ele>1.196422</ele>
        <time>2026-08-29T14:09:37.899Z</time>
      </trkpt>
      <trkpt lat="52.196101" lon="5.143226">
        <ele>1.254823</ele>
        <time>2026-08-29T14:09:39.898Z</time>
      </trkpt>
      <trkpt lat="52.196062" lon="5.143398">
        <ele>1.314947</ele>
        <time>2026-08-29T14:09:41.894Z</time>
      </trkpt>
      <trkpt lat="52.196022" lon="5.143569">
        <ele>1.374952</ele>
        <time>2026-08-29T14:09:43.898Z</time>
      </trkpt>
      <trkpt lat="52.195985" lon="5.143731">
        <ele>1.431630</ele>
        <time>2026-08-29T14:09:45.898Z</time>
      </trkpt>
      <trkpt lat="52.195944" lon="5.143873">
        <ele>1.483090</ele>
        <time>2026-08-29T14:09:47.895Z</time>
      </trkpt>
      <trkpt lat="52.195892" lon="5.143994">
        <ele>1.531538</ele>
        <time>2026-08-29T14:09:49.899Z</time>
      </trkpt>
      <trkpt lat="52.195837" lon="5.144140">
        <ele>1.587720</ele>
        <time>2026-08-29T14:09:52.898Z</time>
      </trkpt>
      <trkpt lat="52.195839" lon="5.144321">
        <ele>1.647070</ele>
        <time>2026-08-29T14:09:56.899Z</time>
      </trkpt>
      <trkpt lat="52.195920" lon="5.144411">
        <ele>1.699487</ele>
        <time>2026-08-29T14:09:59.900Z</time>
      </trkpt>
      <trkpt lat="52.196024" lon="5.144513">
        <ele>1.764390</ele>
        <time>2026-08-29T14:10:02.898Z</time>
      </trkpt>
      <trkpt lat="52.196137" lon="5.144631">
        <ele>1.836149</ele>
        <time>2026-08-29T14:10:05.899Z</time>
      </trkpt>
      <trkpt lat="52.196212" lon="5.144716">
        <ele>1.884992</ele>
        <time>2026-08-29T14:10:07.893Z</time>
      </trkpt>
      <trkpt lat="52.196290" lon="5.144801">
        <ele>1.935162</ele>
        <time>2026-08-29T14:10:09.893Z</time>
      </trkpt>
      <trkpt lat="52.196370" lon="5.144891">
        <ele>1.987137</ele>
        <time>2026-08-29T14:10:11.893Z</time>
      </trkpt>
      <trkpt lat="52.196449" lon="5.144982">
        <ele>2.038862</ele>
        <time>2026-08-29T14:10:13.899Z</time>
      </trkpt>
      <trkpt lat="52.196535" lon="5.145077">
        <ele>2.094411</ele>
        <time>2026-08-29T14:10:15.898Z</time>
      </trkpt>
      <trkpt lat="52.196621" lon="5.145166">
        <ele>2.139817</ele>
        <time>2026-08-29T14:10:17.900Z</time>
      </trkpt>
      <trkpt lat="52.196710" lon="5.145252">
        <ele>2.167091</ele>
        <time>2026-08-29T14:10:19.898Z</time>
      </trkpt>
      <trkpt lat="52.196808" lon="5.145323">
        <ele>2.195365</ele>
        <time>2026-08-29T14:10:21.898Z</time>
      </trkpt>
      <trkpt lat="52.196904" lon="5.145395">
        <ele>2.223224</ele>
        <time>2026-08-29T14:10:23.900Z</time>
      </trkpt>
      <trkpt lat="52.197007" lon="5.145450">
        <ele>2.251801</ele>
        <time>2026-08-29T14:10:25.898Z</time>
      </trkpt>
      <trkpt lat="52.197108" lon="5.145502">
        <ele>2.279726</ele>
        <time>2026-08-29T14:10:27.898Z</time>
      </trkpt>
      <trkpt lat="52.197211" lon="5.145548">
        <ele>2.307884</ele>
        <time>2026-08-29T14:10:29.895Z</time>
      </trkpt>
      <trkpt lat="52.197316" lon="5.145585">
        <ele>2.336208</ele>
        <time>2026-08-29T14:10:31.894Z</time>
      </trkpt>
      <trkpt lat="52.197425" lon="5.145622">
        <ele>2.365565</ele>
        <time>2026-08-29T14:10:33.898Z</time>
      </trkpt>
      <trkpt lat="52.197535" lon="5.145656">
        <ele>2.395085</ele>
        <time>2026-08-29T14:10:35.901Z</time>
      </trkpt>
      <trkpt lat="52.197646" lon="5.145689">
        <ele>2.424835</ele>
        <time>2026-08-29T14:10:37.892Z</time>
      </trkpt>
      <trkpt lat="52.197754" lon="5.145724">
        <ele>2.453868</ele>
        <time>2026-08-29T14:10:39.900Z</time>
      </trkpt>
      <trkpt lat="52.197862" lon="5.145753">
        <ele>2.482728</ele>
        <time>2026-08-29T14:10:41.891Z</time>
      </trkpt>
      <trkpt lat="52.197963" lon="5.145773">
        <ele>2.509555</ele>
        <time>2026-08-29T14:10:43.906Z</time>
      </trkpt>
      <trkpt lat="52.198058" lon="5.145778">
        <ele>2.534617</ele>
        <time>2026-08-29T14:10:45.899Z</time>
      </trkpt>
      <trkpt lat="52.198190" lon="5.145779">
        <ele>2.569423</ele>
        <time>2026-08-29T14:10:48.898Z</time>
      </trkpt>
      <trkpt lat="52.198314" lon="5.145819">
        <ele>2.602751</ele>
        <time>2026-08-29T14:10:51.899Z</time>
      </trkpt>
      <trkpt lat="52.198437" lon="5.145833">
        <ele>2.542454</ele>
        <time>2026-08-29T14:10:54.895Z</time>
      </trkpt>
      <trkpt lat="52.198548" lon="5.145832">
        <ele>2.481184</ele>
        <time>2026-08-29T14:10:57.903Z</time>
      </trkpt>
      <trkpt lat="52.198588" lon="5.145980">
        <ele>2.426461</ele>
        <time>2026-08-29T14:11:01.893Z</time>
      </trkpt>
      <trkpt lat="52.198498" lon="5.146097">
        <ele>2.362943</ele>
        <time>2026-08-29T14:11:04.901Z</time>
      </trkpt>
      <trkpt lat="52.198456" lon="5.146284">
        <ele>2.295564</ele>
        <time>2026-08-29T14:11:07.895Z</time>
      </trkpt>
      <trkpt lat="52.198437" lon="5.146503">
        <ele>2.220733</ele>
        <time>2026-08-29T14:11:10.902Z</time>
      </trkpt>
      <trkpt lat="52.198425" lon="5.146657">
        <ele>2.168213</ele>
        <time>2026-08-29T14:11:12.902Z</time>
      </trkpt>
      <trkpt lat="52.198408" lon="5.146820">
        <ele>2.112275</ele>
        <time>2026-08-29T14:11:14.903Z</time>
      </trkpt>
      <trkpt lat="52.198390" lon="5.146993">
        <ele>2.052908</ele>
        <time>2026-08-29T14:11:16.892Z</time>
      </trkpt>
      <trkpt lat="52.198375" lon="5.147168">
        <ele>1.993127</ele>
        <time>2026-08-29T14:11:18.901Z</time>
      </trkpt>
      <trkpt lat="52.198359" lon="5.147344">
        <ele>1.932931</ele>
        <time>2026-08-29T14:11:20.901Z</time>
      </trkpt>
      <trkpt lat="52.198345" lon="5.147513">
        <ele>1.875236</ele>
        <time>2026-08-29T14:11:22.899Z</time>
      </trkpt>
      <trkpt lat="52.198329" lon="5.147681">
        <ele>1.817716</ele>
        <time>2026-08-29T14:11:24.902Z</time>
      </trkpt>
      <trkpt lat="52.198313" lon="5.147848">
        <ele>1.760531</ele>
        <time>2026-08-29T14:11:26.902Z</time>
      </trkpt>
      <trkpt lat="52.198296" lon="5.148007">
        <ele>1.705926</ele>
        <time>2026-08-29T14:11:28.901Z</time>
      </trkpt>
      <trkpt lat="52.198279" lon="5.148168">
        <ele>1.650654</ele>
        <time>2026-08-29T14:11:30.898Z</time>
      </trkpt>
      <trkpt lat="52.198258" lon="5.148338">
        <ele>1.625146</ele>
        <time>2026-08-29T14:11:32.899Z</time>
      </trkpt>
      <trkpt lat="52.198239" lon="5.148514">
        <ele>1.662583</ele>
        <time>2026-08-29T14:11:34.893Z</time>
      </trkpt>
      <trkpt lat="52.198219" lon="5.148685">
        <ele>1.699051</ele>
        <time>2026-08-29T14:11:36.895Z</time>
      </trkpt>
      <trkpt lat="52.198198" lon="5.148853">
        <ele>1.734969</ele>
        <time>2026-08-29T14:11:38.894Z</time>
      </trkpt>
      <trkpt lat="52.198173" lon="5.149022">
        <ele>1.771388</ele>
        <time>2026-08-29T14:11:40.895Z</time>
      </trkpt>
      <trkpt lat="52.198146" lon="5.149190">
        <ele>1.807771</ele>
        <time>2026-08-29T14:11:42.893Z</time>
      </trkpt>
      <trkpt lat="52.198110" lon="5.149349">
        <ele>1.843279</ele>
        <time>2026-08-29T14:11:44.895Z</time>
      </trkpt>
      <trkpt lat="52.198077" lon="5.149499">
        <ele>1.876664</ele>
        <time>2026-08-29T14:11:46.907Z</time>
      </trkpt>
      <trkpt lat="52.198066" lon="5.149658">
        <ele>1.910184</ele>
        <time>2026-08-29T14:11:48.896Z</time>
      </trkpt>
      <trkpt lat="52.198068" lon="5.149860">
        <ele>1.952505</ele>
        <time>2026-08-29T14:11:51.895Z</time>
      </trkpt>
      <trkpt lat="52.198058" lon="5.150049">
        <ele>1.992245</ele>
        <time>2026-08-29T14:11:53.894Z</time>
      </trkpt>
      <trkpt lat="52.198053" lon="5.150230">
        <ele>2.030200</ele>
        <time>2026-08-29T14:11:55.907Z</time>
      </trkpt>
      <trkpt lat="52.198040" lon="5.150419">
        <ele>2.070042</ele>
        <time>2026-08-29T14:11:57.893Z</time>
      </trkpt>
      <trkpt lat="52.198019" lon="5.150606">
        <ele>2.109867</ele>
        <time>2026-08-29T14:11:59.900Z</time>
      </trkpt>
      <trkpt lat="52.198012" lon="5.150795">
        <ele>2.149532</ele>
        <time>2026-08-29T14:12:01.893Z</time>
      </trkpt>
      <trkpt lat="52.197995" lon="5.150966">
        <ele>2.185822</ele>
        <time>2026-08-29T14:12:03.898Z</time>
      </trkpt>
      <trkpt lat="52.197988" lon="5.151131">
        <ele>2.220470</ele>
        <time>2026-08-29T14:12:05.907Z</time>
      </trkpt>
      <trkpt lat="52.197968" lon="5.151298">
        <ele>2.252912</ele>
        <time>2026-08-29T14:12:07.894Z</time>
      </trkpt>
      <trkpt lat="52.197954" lon="5.151469">
        <ele>2.285049</ele>
        <time>2026-08-29T14:12:09.907Z</time>
      </trkpt>
      <trkpt lat="52.197937" lon="5.151639">
        <ele>2.317135</ele>
        <time>2026-08-29T14:12:11.907Z</time>
      </trkpt>
      <trkpt lat="52.197926" lon="5.151804">
        <ele>2.348053</ele>
        <time>2026-08-29T14:12:13.899Z</time>
      </trkpt>
      <trkpt lat="52.197910" lon="5.151970">
        <ele>2.379356</ele>
        <time>2026-08-29T14:12:15.892Z</time>
      </trkpt>
      <trkpt lat="52.197896" lon="5.152134">
        <ele>2.410201</ele>
        <time>2026-08-29T14:12:17.898Z</time>
      </trkpt>
      <trkpt lat="52.197884" lon="5.152294">
        <ele>2.440228</ele>
        <time>2026-08-29T14:12:19.898Z</time>
      </trkpt>
      <trkpt lat="52.197872" lon="5.152448">
        <ele>2.469147</ele>
        <time>2026-08-29T14:12:21.899Z</time>
      </trkpt>
      <trkpt lat="52.197858" lon="5.152605">
        <ele>2.498701</ele>
        <time>2026-08-29T14:12:23.894Z</time>
      </trkpt>
      <trkpt lat="52.197840" lon="5.152818">
        <ele>2.538754</ele>
        <time>2026-08-29T14:12:26.893Z</time>
      </trkpt>
      <trkpt lat="52.197825" lon="5.152972">
        <ele>2.567801</ele>
        <time>2026-08-29T14:12:28.900Z</time>
      </trkpt>
      <trkpt lat="52.197809" lon="5.153117">
        <ele>2.595246</ele>
        <time>2026-08-29T14:12:30.901Z</time>
      </trkpt>
      <trkpt lat="52.197795" lon="5.153270">
        <ele>2.624063</ele>
        <time>2026-08-29T14:12:32.899Z</time>
      </trkpt>
      <trkpt lat="52.197783" lon="5.153423">
        <ele>2.652797</ele>
        <time>2026-08-29T14:12:34.901Z</time>
      </trkpt>
      <trkpt lat="52.197777" lon="5.153586">
        <ele>2.683216</ele>
        <time>2026-08-29T14:12:36.897Z</time>
      </trkpt>
      <trkpt lat="52.197768" lon="5.153753">
        <ele>2.714445</ele>
        <time>2026-08-29T14:12:38.895Z</time>
      </trkpt>
      <trkpt lat="52.197757" lon="5.153920">
        <ele>2.745733</ele>
        <time>2026-08-29T14:12:40.899Z</time>
      </trkpt>
      <trkpt lat="52.197750" lon="5.154080">
        <ele>2.780521</ele>
        <time>2026-08-29T14:12:42.894Z</time>
      </trkpt>
      <trkpt lat="52.197746" lon="5.154242">
        <ele>2.893872</ele>
        <time>2026-08-29T14:12:44.894Z</time>
      </trkpt>
      <trkpt lat="52.197748" lon="5.154405">
        <ele>3.007854</ele>
        <time>2026-08-29T14:12:46.895Z</time>
      </trkpt>
      <trkpt lat="52.197753" lon="5.154558">
        <ele>3.114974</ele>
        <time>2026-08-29T14:12:48.900Z</time>
      </trkpt>
      <trkpt lat="52.197758" lon="5.154709">
        <ele>3.220697</ele>
        <time>2026-08-29T14:12:50.902Z</time>
      </trkpt>
      <trkpt lat="52.197759" lon="5.154861">
        <ele>3.326971</ele>
        <time>2026-08-29T14:12:52.899Z</time>
      </trkpt>
      <trkpt lat="52.197767" lon="5.155023">
        <ele>3.440598</ele>
        <time>2026-08-29T14:12:54.899Z</time>
      </trkpt>
      <trkpt lat="52.197780" lon="5.155177">
        <ele>3.549281</ele>
        <time>2026-08-29T14:12:56.900Z</time>
      </trkpt>
      <trkpt lat="52.197788" lon="5.155323">
        <ele>3.651762</ele>
        <time>2026-08-29T14:12:58.899Z</time>
      </trkpt>
      <trkpt lat="52.197798" lon="5.155534">
        <ele>3.799719</ele>
        <time>2026-08-29T14:13:01.900Z</time>
      </trkpt>
      <trkpt lat="52.197806" lon="5.155742">
        <ele>3.945425</ele>
        <time>2026-08-29T14:13:04.905Z</time>
      </trkpt>
      <trkpt lat="52.197815" lon="5.155948">
        <ele>4.089812</ele>
        <time>2026-08-29T14:13:07.899Z</time>
      </trkpt>
      <trkpt lat="52.197827" lon="5.156148">
        <ele>4.230307</ele>
        <time>2026-08-29T14:13:10.900Z</time>
      </trkpt>
      <trkpt lat="52.197838" lon="5.156345">
        <ele>4.368606</ele>
        <time>2026-08-29T14:13:13.904Z</time>
      </trkpt>
      <trkpt lat="52.197841" lon="5.156518">
        <ele>4.489605</ele>
        <time>2026-08-29T14:13:16.899Z</time>
      </trkpt>
      <trkpt lat="52.197847" lon="5.156679">
        <ele>4.602373</ele>
        <time>2026-08-29T14:13:19.904Z</time>
      </trkpt>
      <trkpt lat="52.197857" lon="5.156827">
        <ele>4.706472</ele>
        <time>2026-08-29T14:13:22.907Z</time>
      </trkpt>
      <trkpt lat="52.197934" lon="5.156932">
        <ele>4.820939</ele>
        <time>2026-08-29T14:13:26.901Z</time>
      </trkpt>
      <trkpt lat="52.198024" lon="5.156982">
        <ele>4.946171</ele>
        <time>2026-08-29T14:13:29.907Z</time>
      </trkpt>
      <trkpt lat="52.198138" lon="5.157034">
        <ele>5.102990</ele>
        <time>2026-08-29T14:13:32.895Z</time>
      </trkpt>
      <trkpt lat="52.198250" lon="5.157081">
        <ele>5.256198</ele>
        <time>2026-08-29T14:13:35.894Z</time>
      </trkpt>
      <trkpt lat="52.198377" lon="5.157143">
        <ele>5.431819</ele>
        <time>2026-08-29T14:13:38.896Z</time>
      </trkpt>
      <trkpt lat="52.198503" lon="5.157200">
        <ele>5.605042</ele>
        <time>2026-08-29T14:13:41.892Z</time>
      </trkpt>
      <trkpt lat="52.198628" lon="5.157265">
        <ele>5.778850</ele>
        <time>2026-08-29T14:13:44.898Z</time>
      </trkpt>
      <trkpt lat="52.198756" lon="5.157324">
        <ele>5.955062</ele>
        <time>2026-08-29T14:13:47.907Z</time>
      </trkpt>
      <trkpt lat="52.198842" lon="5.157371">
        <ele>6.075217</ele>
        <time>2026-08-29T14:13:49.892Z</time>
      </trkpt>
      <trkpt lat="52.198967" lon="5.157437">
        <ele>6.249274</ele>
        <time>2026-08-29T14:13:52.894Z</time>
      </trkpt>
      <trkpt lat="52.199097" lon="5.157511">
        <ele>6.431679</ele>
        <time>2026-08-29T14:13:55.908Z</time>
      </trkpt>
      <trkpt lat="52.199183" lon="5.157555">
        <ele>6.551083</ele>
        <time>2026-08-29T14:13:57.894Z</time>
      </trkpt>
      <trkpt lat="52.199311" lon="5.157631">
        <ele>6.731537</ele>
        <time>2026-08-29T14:14:00.894Z</time>
      </trkpt>
      <trkpt lat="52.199399" lon="5.157674">
        <ele>6.853236</ele>
        <time>2026-08-29T14:14:02.895Z</time>
      </trkpt>
      <trkpt lat="52.199488" lon="5.157721">
        <ele>6.977166</ele>
        <time>2026-08-29T14:14:04.893Z</time>
      </trkpt>
      <trkpt lat="52.199578" lon="5.157769">
        <ele>7.102607</ele>
        <time>2026-08-29T14:14:06.906Z</time>
      </trkpt>
      <trkpt lat="52.199666" lon="5.157818">
        <ele>7.215929</ele>
        <time>2026-08-29T14:14:08.895Z</time>
      </trkpt>
      <trkpt lat="52.199756" lon="5.157860">
        <ele>7.270164</ele>
        <time>2026-08-29T14:14:10.892Z</time>
      </trkpt>
      <trkpt lat="52.199851" lon="5.157894">
        <ele>7.326513</ele>
        <time>2026-08-29T14:14:12.895Z</time>
      </trkpt>
      <trkpt lat="52.199945" lon="5.157938">
        <ele>7.383172</ele>
        <time>2026-08-29T14:14:14.894Z</time>
      </trkpt>
      <trkpt lat="52.200042" lon="5.157987">
        <ele>7.442004</ele>
        <time>2026-08-29T14:14:16.907Z</time>
      </trkpt>
      <trkpt lat="52.200133" lon="5.158043">
        <ele>7.498353</ele>
        <time>2026-08-29T14:14:18.906Z</time>
      </trkpt>
      <trkpt lat="52.200238" lon="5.158084">
        <ele>7.560906</ele>
        <time>2026-08-29T14:14:20.908Z</time>
      </trkpt>
      <trkpt lat="52.200339" lon="5.158129">
        <ele>7.621566</ele>
        <time>2026-08-29T14:14:22.906Z</time>
      </trkpt>
      <trkpt lat="52.200436" lon="5.158174">
        <ele>7.679993</ele>
        <time>2026-08-29T14:14:24.895Z</time>
      </trkpt>
      <trkpt lat="52.200534" lon="5.158215">
        <ele>7.738609</ele>
        <time>2026-08-29T14:14:26.907Z</time>
      </trkpt>
      <trkpt lat="52.200633" lon="5.158256">
        <ele>7.797787</ele>
        <time>2026-08-29T14:14:28.907Z</time>
      </trkpt>
      <trkpt lat="52.200735" lon="5.158297">
        <ele>7.858650</ele>
        <time>2026-08-29T14:14:30.894Z</time>
      </trkpt>
      <trkpt lat="52.200836" lon="5.158342">
        <ele>7.919310</ele>
        <time>2026-08-29T14:14:32.898Z</time>
      </trkpt>
      <trkpt lat="52.200936" lon="5.158385">
        <ele>7.979227</ele>
        <time>2026-08-29T14:14:34.895Z</time>
      </trkpt>
      <trkpt lat="52.201029" lon="5.158428">
        <ele>8.035231</ele>
        <time>2026-08-29T14:14:36.895Z</time>
      </trkpt>
      <trkpt lat="52.201157" lon="5.158488">
        <ele>8.112391</ele>
        <time>2026-08-29T14:14:39.896Z</time>
      </trkpt>
      <trkpt lat="52.201275" lon="5.158547">
        <ele>8.183896</ele>
        <time>2026-08-29T14:14:42.907Z</time>
      </trkpt>
      <trkpt lat="52.201373" lon="5.158588">
        <ele>8.242512</ele>
        <time>2026-08-29T14:14:45.894Z</time>
      </trkpt>
      <trkpt lat="52.201463" lon="5.158631">
        <ele>8.198705</ele>
        <time>2026-08-29T14:14:48.895Z</time>
      </trkpt>
      <trkpt lat="52.201560" lon="5.158685">
        <ele>8.132722</ele>
        <time>2026-08-29T14:14:51.907Z</time>
      </trkpt>
      <trkpt lat="52.201667" lon="5.158739">
        <ele>8.060617</ele>
        <time>2026-08-29T14:14:54.907Z</time>
      </trkpt>
      <trkpt lat="52.201784" lon="5.158800">
        <ele>7.981542</ele>
        <time>2026-08-29T14:14:57.896Z</time>
      </trkpt>
      <trkpt lat="52.201909" lon="5.158873">
        <ele>7.896069</ele>
        <time>2026-08-29T14:15:00.894Z</time>
      </trkpt>
      <trkpt lat="52.202001" lon="5.158918">
        <ele>7.834236</ele>
        <time>2026-08-29T14:15:02.907Z</time>
      </trkpt>
      <trkpt lat="52.202096" lon="5.158961">
        <ele>7.770767</ele>
        <time>2026-08-29T14:15:04.894Z</time>
      </trkpt>
      <trkpt lat="52.202192" lon="5.158998">
        <ele>7.707262</ele>
        <time>2026-08-29T14:15:06.894Z</time>
      </trkpt>
      <trkpt lat="52.202292" lon="5.159049">
        <ele>7.639812</ele>
        <time>2026-08-29T14:15:08.894Z</time>
      </trkpt>
      <trkpt lat="52.202395" lon="5.159097">
        <ele>7.570850</ele>
        <time>2026-08-29T14:15:10.895Z</time>
      </trkpt>
      <trkpt lat="52.202501" lon="5.159149">
        <ele>7.499591</ele>
        <time>2026-08-29T14:15:12.907Z</time>
      </trkpt>
      <trkpt lat="52.202607" lon="5.159203">
        <ele>7.428100</ele>
        <time>2026-08-29T14:15:14.907Z</time>
      </trkpt>
      <trkpt lat="52.202713" lon="5.159255">
        <ele>7.356841</ele>
        <time>2026-08-29T14:15:16.907Z</time>
      </trkpt>
      <trkpt lat="52.202818" lon="5.159314">
        <ele>7.285348</ele>
        <time>2026-08-29T14:15:18.907Z</time>
      </trkpt>
      <trkpt lat="52.202925" lon="5.159366">
        <ele>7.213472</ele>
        <time>2026-08-29T14:15:20.898Z</time>
      </trkpt>
      <trkpt lat="52.203035" lon="5.159420">
        <ele>7.139519</ele>
        <time>2026-08-29T14:15:22.907Z</time>
      </trkpt>
      <trkpt lat="52.203145" lon="5.159469">
        <ele>7.122593</ele>
        <time>2026-08-29T14:15:24.907Z</time>
      </trkpt>
      <trkpt lat="52.203254" lon="5.159524">
        <ele>7.206872</ele>
        <time>2026-08-29T14:15:26.906Z</time>
      </trkpt>
      <trkpt lat="52.203368" lon="5.159587">
        <ele>7.295781</ele>
        <time>2026-08-29T14:15:28.896Z</time>
      </trkpt>
      <trkpt lat="52.203479" lon="5.159643">
        <ele>7.381606</ele>
        <time>2026-08-29T14:15:30.891Z</time>
      </trkpt>
      <trkpt lat="52.203578" lon="5.159696">
        <ele>7.458572</ele>
        <time>2026-08-29T14:15:32.892Z</time>
      </trkpt>
      <trkpt lat="52.203675" lon="5.159739">
        <ele>7.532822</ele>
        <time>2026-08-29T14:15:34.898Z</time>
      </trkpt>
      <trkpt lat="52.203775" lon="5.159791">
        <ele>7.610351</ele>
        <time>2026-08-29T14:15:36.894Z</time>
      </trkpt>
      <trkpt lat="52.203876" lon="5.159837">
        <ele>7.687810</ele>
        <time>2026-08-29T14:15:38.907Z</time>
      </trkpt>
      <trkpt lat="52.203975" lon="5.159886">
        <ele>7.764231</ele>
        <time>2026-08-29T14:15:40.895Z</time>
      </trkpt>
      <trkpt lat="52.204073" lon="5.159936">
        <ele>7.840079</ele>
        <time>2026-08-29T14:15:42.901Z</time>
      </trkpt>
      <trkpt lat="52.204171" lon="5.159986">
        <ele>7.915926</ele>
        <time>2026-08-29T14:15:44.895Z</time>
      </trkpt>
      <trkpt lat="52.204269" lon="5.160042">
        <ele>7.992629</ele>
        <time>2026-08-29T14:15:46.898Z</time>
      </trkpt>
      <trkpt lat="52.204369" lon="5.160087">
        <ele>8.069255</ele>
        <time>2026-08-29T14:15:48.901Z</time>
      </trkpt>
      <trkpt lat="52.204467" lon="5.160139">
        <ele>8.145378</ele>
        <time>2026-08-29T14:15:50.898Z</time>
      </trkpt>
      <trkpt lat="52.204566" lon="5.160194">
        <ele>8.222631</ele>
        <time>2026-08-29T14:15:52.893Z</time>
      </trkpt>
      <trkpt lat="52.204670" lon="5.160247">
        <ele>8.303114</ele>
        <time>2026-08-29T14:15:54.898Z</time>
      </trkpt>
      <trkpt lat="52.204773" lon="5.160298">
        <ele>8.382625</ele>
        <time>2026-08-29T14:15:56.898Z</time>
      </trkpt>
      <trkpt lat="52.204882" lon="5.160343">
        <ele>8.424855</ele>
        <time>2026-08-29T14:15:58.898Z</time>
      </trkpt>
      <trkpt lat="52.204987" lon="5.160400">
        <ele>8.431823</ele>
        <time>2026-08-29T14:16:00.892Z</time>
      </trkpt>
      <trkpt lat="52.205092" lon="5.160454">
        <ele>8.438755</ele>
        <time>2026-08-29T14:16:02.899Z</time>
      </trkpt>
      <trkpt lat="52.205195" lon="5.160513">
        <ele>8.445629</ele>
        <time>2026-08-29T14:16:04.899Z</time>
      </trkpt>
      <trkpt lat="52.205298" lon="5.160567">
        <ele>8.452441</ele>
        <time>2026-08-29T14:16:06.898Z</time>
      </trkpt>
      <trkpt lat="52.205398" lon="5.160619">
        <ele>8.459049</ele>
        <time>2026-08-29T14:16:08.899Z</time>
      </trkpt>
      <trkpt lat="52.205492" lon="5.160670">
        <ele>8.465287</ele>
        <time>2026-08-29T14:16:10.898Z</time>
      </trkpt>
      <trkpt lat="52.205591" lon="5.160720">
        <ele>8.471812</ele>
        <time>2026-08-29T14:16:12.901Z</time>
      </trkpt>
      <trkpt lat="52.205683" lon="5.160768">
        <ele>8.477894</ele>
        <time>2026-08-29T14:16:14.895Z</time>
      </trkpt>
      <trkpt lat="52.205812" lon="5.160831">
        <ele>8.486372</ele>
        <time>2026-08-29T14:16:17.898Z</time>
      </trkpt>
      <trkpt lat="52.205918" lon="5.160883">
        <ele>8.493342</ele>
        <time>2026-08-29T14:16:19.894Z</time>
      </trkpt>
      <trkpt lat="52.206021" lon="5.160938">
        <ele>8.500166</ele>
        <time>2026-08-29T14:16:21.898Z</time>
      </trkpt>
      <trkpt lat="52.206118" lon="5.160986">
        <ele>8.506548</ele>
        <time>2026-08-29T14:16:23.893Z</time>
      </trkpt>
      <trkpt lat="52.206218" lon="5.161039">
        <ele>8.513169</ele>
        <time>2026-08-29T14:16:25.893Z</time>
      </trkpt>
      <trkpt lat="52.206315" lon="5.161090">
        <ele>8.519586</ele>
        <time>2026-08-29T14:16:27.898Z</time>
      </trkpt>
      <trkpt lat="52.206411" lon="5.161142">
        <ele>8.525955</ele>
        <time>2026-08-29T14:16:29.898Z</time>
      </trkpt>
      <trkpt lat="52.206506" lon="5.161197">
        <ele>8.532302</ele>
        <time>2026-08-29T14:16:31.902Z</time>
      </trkpt>
      <trkpt lat="52.206612" lon="5.161244">
        <ele>8.477773</ele>
        <time>2026-08-29T14:16:33.898Z</time>
      </trkpt>
      <trkpt lat="52.206709" lon="5.161288">
        <ele>8.404835</ele>
        <time>2026-08-29T14:16:35.895Z</time>
      </trkpt>
      <trkpt lat="52.206803" lon="5.161333">
        <ele>8.333864</ele>
        <time>2026-08-29T14:16:37.895Z</time>
      </trkpt>
      <trkpt lat="52.206907" lon="5.161382">
        <ele>8.255441</ele>
        <time>2026-08-29T14:16:39.893Z</time>
      </trkpt>
      <trkpt lat="52.207001" lon="5.161433">
        <ele>8.183675</ele>
        <time>2026-08-29T14:16:41.898Z</time>
      </trkpt>
      <trkpt lat="52.207103" lon="5.161486">
        <ele>8.106123</ele>
        <time>2026-08-29T14:16:43.903Z</time>
      </trkpt>
      <trkpt lat="52.207192" lon="5.161534">
        <ele>8.038214</ele>
        <time>2026-08-29T14:16:45.893Z</time>
      </trkpt>
      <trkpt lat="52.207289" lon="5.161627">
        <ele>7.956708</ele>
        <time>2026-08-29T14:16:48.895Z</time>
      </trkpt>
      <trkpt lat="52.207364" lon="5.161796">
        <ele>7.864070</ele>
        <time>2026-08-29T14:16:51.902Z</time>
      </trkpt>
      <trkpt lat="52.207437" lon="5.161896">
        <ele>7.795020</ele>
        <time>2026-08-29T14:16:53.898Z</time>
      </trkpt>
      <trkpt lat="52.207536" lon="5.161940">
        <ele>7.720684</ele>
        <time>2026-08-29T14:16:55.902Z</time>
      </trkpt>
      <trkpt lat="52.207636" lon="5.161979">
        <ele>7.646196</ele>
        <time>2026-08-29T14:16:57.903Z</time>
      </trkpt>
      <trkpt lat="52.207740" lon="5.162032">
        <ele>7.567262</ele>
        <time>2026-08-29T14:16:59.899Z</time>
      </trkpt>
      <trkpt lat="52.207841" lon="5.162085">
        <ele>7.490400</ele>
        <time>2026-08-29T14:17:01.901Z</time>
      </trkpt>
      <trkpt lat="52.207939" lon="5.162141">
        <ele>7.415175</ele>
        <time>2026-08-29T14:17:03.899Z</time>
      </trkpt>
      <trkpt lat="52.208037" lon="5.162188">
        <ele>7.341174</ele>
        <time>2026-08-29T14:17:05.894Z</time>
      </trkpt>
      <trkpt lat="52.208138" lon="5.162238">
        <ele>7.264709</ele>
        <time>2026-08-29T14:17:07.899Z</time>
      </trkpt>
      <trkpt lat="52.208239" lon="5.162287">
        <ele>7.344321</ele>
        <time>2026-08-29T14:17:09.899Z</time>
      </trkpt>
      <trkpt lat="52.208344" lon="5.162331">
        <ele>7.551533</ele>
        <time>2026-08-29T14:17:11.898Z</time>
      </trkpt>
      <trkpt lat="52.208441" lon="5.162379">
        <ele>7.745279</ele>
        <time>2026-08-29T14:17:13.893Z</time>
      </trkpt>
      <trkpt lat="52.208534" lon="5.162428">
        <ele>7.932079</ele>
        <time>2026-08-29T14:17:15.894Z</time>
      </trkpt>
      <trkpt lat="52.208630" lon="5.162470">
        <ele>8.122057</ele>
        <time>2026-08-29T14:17:17.898Z</time>
      </trkpt>
      <trkpt lat="52.208719" lon="5.162514">
        <ele>8.299810</ele>
        <time>2026-08-29T14:17:19.891Z</time>
      </trkpt>
      <trkpt lat="52.208814" lon="5.162563">
        <ele>8.490251</ele>
        <time>2026-08-29T14:17:21.899Z</time>
      </trkpt>
      <trkpt lat="52.208910" lon="5.162614">
        <ele>8.683227</ele>
        <time>2026-08-29T14:17:23.898Z</time>
      </trkpt>
      <trkpt lat="52.209001" lon="5.162656">
        <ele>8.863991</ele>
        <time>2026-08-29T14:17:25.899Z</time>
      </trkpt>
      <trkpt lat="52.209096" lon="5.162710">
        <ele>9.056278</ele>
        <time>2026-08-29T14:17:27.899Z</time>
      </trkpt>
      <trkpt lat="52.209197" lon="5.162743">
        <ele>9.253164</ele>
        <time>2026-08-29T14:17:29.893Z</time>
      </trkpt>
      <trkpt lat="52.209294" lon="5.162783">
        <ele>9.444402</ele>
        <time>2026-08-29T14:17:31.894Z</time>
      </trkpt>
      <trkpt lat="52.209391" lon="5.162830">
        <ele>9.637811</ele>
        <time>2026-08-29T14:17:33.900Z</time>
      </trkpt>
      <trkpt lat="52.209487" lon="5.162869">
        <ele>9.826910</ele>
        <time>2026-08-29T14:17:35.899Z</time>
      </trkpt>
      <trkpt lat="52.209585" lon="5.162911">
        <ele>10.020582</ele>
        <time>2026-08-29T14:17:37.894Z</time>
      </trkpt>
      <trkpt lat="52.209686" lon="5.162950">
        <ele>10.218968</ele>
        <time>2026-08-29T14:17:39.899Z</time>
      </trkpt>
      <trkpt lat="52.209784" lon="5.162988">
        <ele>10.411504</ele>
        <time>2026-08-29T14:17:41.899Z</time>
      </trkpt>
      <trkpt lat="52.209886" lon="5.163031">
        <ele>10.612871</ele>
        <time>2026-08-29T14:17:43.892Z</time>
      </trkpt>
      <trkpt lat="52.209988" lon="5.163081">
        <ele>10.678811</ele>
        <time>2026-08-29T14:17:45.900Z</time>
      </trkpt>
      <trkpt lat="52.210088" lon="5.163129">
        <ele>10.691782</ele>
        <time>2026-08-29T14:17:47.898Z</time>
      </trkpt>
      <trkpt lat="52.210186" lon="5.163174">
        <ele>10.704450</ele>
        <time>2026-08-29T14:17:49.899Z</time>
      </trkpt>
      <trkpt lat="52.210290" lon="5.163221">
        <ele>10.717878</ele>
        <time>2026-08-29T14:17:51.899Z</time>
      </trkpt>
      <trkpt lat="52.210394" lon="5.163265">
        <ele>10.731247</ele>
        <time>2026-08-29T14:17:53.895Z</time>
      </trkpt>
      <trkpt lat="52.210498" lon="5.163313">
        <ele>10.744696</ele>
        <time>2026-08-29T14:17:55.898Z</time>
      </trkpt>
      <trkpt lat="52.210602" lon="5.163360">
        <ele>10.758124</ele>
        <time>2026-08-29T14:17:57.899Z</time>
      </trkpt>
      <trkpt lat="52.210712" lon="5.163407">
        <ele>10.772273</ele>
        <time>2026-08-29T14:17:59.899Z</time>
      </trkpt>
      <trkpt lat="52.210819" lon="5.163459">
        <ele>10.786166</ele>
        <time>2026-08-29T14:18:01.895Z</time>
      </trkpt>
      <trkpt lat="52.210921" lon="5.163511">
        <ele>10.799463</ele>
        <time>2026-08-29T14:18:03.892Z</time>
      </trkpt>
      <trkpt lat="52.211017" lon="5.163552">
        <ele>10.811811</ele>
        <time>2026-08-29T14:18:05.899Z</time>
      </trkpt>
      <trkpt lat="52.211103" lon="5.163611">
        <ele>10.823419</ele>
        <time>2026-08-29T14:18:10.900Z</time>
      </trkpt>
      <trkpt lat="52.211269" lon="5.163709">
        <ele>10.845385</ele>
        <time>2026-08-29T14:18:29.894Z</time>
      </trkpt>
      <trkpt lat="52.211394" lon="5.163701">
        <ele>10.860952</ele>
        <time>2026-08-29T14:18:32.898Z</time>
      </trkpt>
      <trkpt lat="52.211484" lon="5.163749">
        <ele>10.872734</ele>
        <time>2026-08-29T14:18:34.899Z</time>
      </trkpt>
      <trkpt lat="52.211582" lon="5.163797">
        <ele>10.885466</ele>
        <time>2026-08-29T14:18:36.899Z</time>
      </trkpt>
      <trkpt lat="52.211681" lon="5.163838">
        <ele>10.899849</ele>
        <time>2026-08-29T14:18:38.898Z</time>
      </trkpt>
      <trkpt lat="52.211783" lon="5.163872">
        <ele>10.917027</ele>
        <time>2026-08-29T14:18:40.892Z</time>
      </trkpt>
      <trkpt lat="52.211888" lon="5.163876">
        <ele>10.934358</ele>
        <time>2026-08-29T14:18:42.898Z</time>
      </trkpt>
      <trkpt lat="52.211997" lon="5.163888">
        <ele>10.952385</ele>
        <time>2026-08-29T14:18:44.898Z</time>
      </trkpt>
      <trkpt lat="52.212106" lon="5.163930">
        <ele>10.970865</ele>
        <time>2026-08-29T14:18:46.898Z</time>
      </trkpt>
      <trkpt lat="52.212211" lon="5.163978">
        <ele>10.988858</ele>
        <time>2026-08-29T14:18:48.899Z</time>
      </trkpt>
      <trkpt lat="52.212315" lon="5.164021">
        <ele>11.006560</ele>
        <time>2026-08-29T14:18:50.892Z</time>
      </trkpt>
      <trkpt lat="52.212423" lon="5.164065">
        <ele>11.024928</ele>
        <time>2026-08-29T14:18:52.899Z</time>
      </trkpt>
      <trkpt lat="52.212528" lon="5.164108">
        <ele>11.042791</ele>
        <time>2026-08-29T14:18:54.899Z</time>
      </trkpt>
      <trkpt lat="52.212640" lon="5.164154">
        <ele>11.061848</ele>
        <time>2026-08-29T14:18:56.893Z</time>
      </trkpt>
      <trkpt lat="52.212749" lon="5.164198">
        <ele>11.080376</ele>
        <time>2026-08-29T14:18:58.892Z</time>
      </trkpt>
      <trkpt lat="52.212859" lon="5.164242">
        <ele>11.099064</ele>
        <time>2026-08-29T14:19:00.899Z</time>
      </trkpt>
      <trkpt lat="52.212967" lon="5.164295">
        <ele>11.117673</ele>
        <time>2026-08-29T14:19:02.898Z</time>
      </trkpt>
      <trkpt lat="52.213077" lon="5.164337">
        <ele>11.136314</ele>
        <time>2026-08-29T14:19:04.892Z</time>
      </trkpt>
      <trkpt lat="52.213190" lon="5.164384">
        <ele>11.155556</ele>
        <time>2026-08-29T14:19:06.898Z</time>
      </trkpt>
      <trkpt lat="52.213300" lon="5.164431">
        <ele>11.174318</ele>
        <time>2026-08-29T14:19:08.893Z</time>
      </trkpt>
      <trkpt lat="52.213411" lon="5.164485">
        <ele>11.188096</ele>
        <time>2026-08-29T14:19:10.899Z</time>
      </trkpt>
      <trkpt lat="52.213521" lon="5.164532">
        <ele>11.179057</ele>
        <time>2026-08-29T14:19:12.898Z</time>
      </trkpt>
      <trkpt lat="52.213631" lon="5.164574">
        <ele>11.170077</ele>
        <time>2026-08-29T14:19:14.893Z</time>
      </trkpt>
      <trkpt lat="52.213737" lon="5.164628">
        <ele>11.161250</ele>
        <time>2026-08-29T14:19:16.898Z</time>
      </trkpt>
      <trkpt lat="52.213842" lon="5.164677">
        <ele>11.152569</ele>
        <time>2026-08-29T14:19:18.898Z</time>
      </trkpt>
      <trkpt lat="52.213944" lon="5.164735">
        <ele>11.143983</ele>
        <time>2026-08-29T14:19:20.898Z</time>
      </trkpt>
      <trkpt lat="52.214053" lon="5.164796">
        <ele>11.134823</ele>
        <time>2026-08-29T14:19:22.892Z</time>
      </trkpt>
      <trkpt lat="52.214164" lon="5.164867">
        <ele>11.125347</ele>
        <time>2026-08-29T14:19:24.899Z</time>
      </trkpt>
      <trkpt lat="52.214275" lon="5.164936">
        <ele>11.115905</ele>
        <time>2026-08-29T14:19:26.898Z</time>
      </trkpt>
      <trkpt lat="52.214382" lon="5.165019">
        <ele>11.106487</ele>
        <time>2026-08-29T14:19:28.898Z</time>
      </trkpt>
      <trkpt lat="52.214484" lon="5.165099">
        <ele>11.097492</ele>
        <time>2026-08-29T14:19:30.891Z</time>
      </trkpt>
      <trkpt lat="52.214586" lon="5.165170">
        <ele>11.088677</ele>
        <time>2026-08-29T14:19:32.891Z</time>
      </trkpt>
      <trkpt lat="52.214691" lon="5.165237">
        <ele>11.079715</ele>
        <time>2026-08-29T14:19:34.898Z</time>
      </trkpt>
      <trkpt lat="52.214795" lon="5.165300">
        <ele>11.070897</ele>
        <time>2026-08-29T14:19:36.893Z</time>
      </trkpt>
      <trkpt lat="52.214894" lon="5.165349">
        <ele>11.062674</ele>
        <time>2026-08-29T14:19:38.892Z</time>
      </trkpt>
      <trkpt lat="52.214991" lon="5.165389">
        <ele>11.054721</ele>
        <time>2026-08-29T14:19:40.901Z</time>
      </trkpt>
      <trkpt lat="52.215087" lon="5.165430">
        <ele>11.047020</ele>
        <time>2026-08-29T14:19:42.892Z</time>
      </trkpt>
      <trkpt lat="52.215181" lon="5.165480">
        <ele>11.106102</ele>
        <time>2026-08-29T14:19:44.901Z</time>
      </trkpt>
      <trkpt lat="52.215267" lon="5.165540">
        <ele>11.161993</ele>
        <time>2026-08-29T14:19:48.901Z</time>
      </trkpt>
      <trkpt lat="52.215364" lon="5.165564">
        <ele>11.220621</ele>
        <time>2026-08-29T14:19:54.901Z</time>
      </trkpt>
      <trkpt lat="52.215476" lon="5.165584">
        <ele>11.287951</ele>
        <time>2026-08-29T14:19:57.898Z</time>
      </trkpt>
      <trkpt lat="52.215600" lon="5.165639">
        <ele>11.364740</ele>
        <time>2026-08-29T14:20:00.898Z</time>
      </trkpt>
      <trkpt lat="52.215728" lon="5.165703">
        <ele>11.444740</ele>
        <time>2026-08-29T14:20:03.898Z</time>
      </trkpt>
      <trkpt lat="52.215818" lon="5.165743">
        <ele>11.500482</ele>
        <time>2026-08-29T14:20:05.890Z</time>
      </trkpt>
      <trkpt lat="52.215943" lon="5.165804">
        <ele>11.578448</ele>
        <time>2026-08-29T14:20:08.898Z</time>
      </trkpt>
      <trkpt lat="52.216029" lon="5.165848">
        <ele>11.632307</ele>
        <time>2026-08-29T14:20:10.899Z</time>
      </trkpt>
      <trkpt lat="52.216120" lon="5.165887">
        <ele>11.688531</ele>
        <time>2026-08-29T14:20:12.899Z</time>
      </trkpt>
      <trkpt lat="52.216208" lon="5.165932">
        <ele>11.743640</ele>
        <time>2026-08-29T14:20:14.891Z</time>
      </trkpt>
      <trkpt lat="52.216304" lon="5.165973">
        <ele>11.802940</ele>
        <time>2026-08-29T14:20:16.898Z</time>
      </trkpt>
      <trkpt lat="52.216394" lon="5.166023">
        <ele>11.859753</ele>
        <time>2026-08-29T14:20:18.895Z</time>
      </trkpt>
      <trkpt lat="52.216486" lon="5.166076">
        <ele>11.918056</ele>
        <time>2026-08-29T14:20:20.916Z</time>
      </trkpt>
      <trkpt lat="52.216582" lon="5.166127">
        <ele>11.978387</ele>
        <time>2026-08-29T14:20:22.903Z</time>
      </trkpt>
      <trkpt lat="52.216678" lon="5.166174">
        <ele>12.038281</ele>
        <time>2026-08-29T14:20:24.899Z</time>
      </trkpt>
      <trkpt lat="52.216778" lon="5.166223">
        <ele>12.100675</ele>
        <time>2026-08-29T14:20:26.895Z</time>
      </trkpt>
      <trkpt lat="52.216878" lon="5.166275">
        <ele>12.079599</ele>
        <time>2026-08-29T14:20:28.899Z</time>
      </trkpt>
      <trkpt lat="52.216986" lon="5.166326">
        <ele>12.011731</ele>
        <time>2026-08-29T14:20:30.894Z</time>
      </trkpt>
      <trkpt lat="52.217091" lon="5.166379">
        <ele>11.945387</ele>
        <time>2026-08-29T14:20:32.899Z</time>
      </trkpt>
      <trkpt lat="52.217196" lon="5.166431">
        <ele>11.879150</ele>
        <time>2026-08-29T14:20:34.893Z</time>
      </trkpt>
      <trkpt lat="52.217298" lon="5.166486">
        <ele>11.814305</ele>
        <time>2026-08-29T14:20:36.898Z</time>
      </trkpt>
      <trkpt lat="52.217405" lon="5.166527">
        <ele>11.747959</ele>
        <time>2026-08-29T14:20:38.894Z</time>
      </trkpt>
      <trkpt lat="52.217519" lon="5.166582">
        <ele>11.676200</ele>
        <time>2026-08-29T14:20:40.899Z</time>
      </trkpt>
      <trkpt lat="52.217643" lon="5.166648">
        <ele>11.597468</ele>
        <time>2026-08-29T14:20:42.894Z</time>
      </trkpt>
      <trkpt lat="52.217774" lon="5.166712">
        <ele>11.514924</ele>
        <time>2026-08-29T14:20:44.899Z</time>
      </trkpt>
      <trkpt lat="52.217906" lon="5.166773">
        <ele>11.432110</ele>
        <time>2026-08-29T14:20:46.900Z</time>
      </trkpt>
      <trkpt lat="52.218030" lon="5.166832">
        <ele>11.354143</ele>
        <time>2026-08-29T14:20:48.902Z</time>
      </trkpt>
      <trkpt lat="52.218153" lon="5.166887">
        <ele>11.277158</ele>
        <time>2026-08-29T14:20:50.900Z</time>
      </trkpt>
      <trkpt lat="52.218279" lon="5.166950">
        <ele>11.197610</ele>
        <time>2026-08-29T14:20:52.899Z</time>
      </trkpt>
      <trkpt lat="52.218399" lon="5.167002">
        <ele>11.122663</ele>
        <time>2026-08-29T14:20:54.900Z</time>
      </trkpt>
      <trkpt lat="52.218527" lon="5.167066">
        <ele>11.041852</ele>
        <time>2026-08-29T14:20:56.898Z</time>
      </trkpt>
      <trkpt lat="52.218653" lon="5.167121">
        <ele>10.955386</ele>
        <time>2026-08-29T14:20:58.900Z</time>
      </trkpt>
      <trkpt lat="52.218784" lon="5.167180">
        <ele>10.864643</ele>
        <time>2026-08-29T14:21:00.899Z</time>
      </trkpt>
      <trkpt lat="52.218912" lon="5.167234">
        <ele>10.776364</ele>
        <time>2026-08-29T14:21:02.900Z</time>
      </trkpt>
      <trkpt lat="52.219036" lon="5.167290">
        <ele>10.690453</ele>
        <time>2026-08-29T14:21:04.896Z</time>
      </trkpt>
      <trkpt lat="52.219148" lon="5.167358">
        <ele>10.610660</ele>
        <time>2026-08-29T14:21:06.900Z</time>
      </trkpt>
      <trkpt lat="52.219260" lon="5.167425">
        <ele>10.531009</ele>
        <time>2026-08-29T14:21:08.898Z</time>
      </trkpt>
      <trkpt lat="52.219370" lon="5.167476">
        <ele>10.454652</ele>
        <time>2026-08-29T14:21:10.898Z</time>
      </trkpt>
      <trkpt lat="52.219474" lon="5.167539">
        <ele>10.380579</ele>
        <time>2026-08-29T14:21:12.898Z</time>
      </trkpt>
      <trkpt lat="52.219579" lon="5.167597">
        <ele>10.306561</ele>
        <time>2026-08-29T14:21:14.899Z</time>
      </trkpt>
      <trkpt lat="52.219674" lon="5.167645">
        <ele>10.240156</ele>
        <time>2026-08-29T14:21:16.896Z</time>
      </trkpt>
      <trkpt lat="52.219768" lon="5.167700">
        <ele>10.173478</ele>
        <time>2026-08-29T14:21:18.900Z</time>
      </trkpt>
      <trkpt lat="52.219853" lon="5.167761">
        <ele>10.111476</ele>
        <time>2026-08-29T14:21:20.901Z</time>
      </trkpt>
      <trkpt lat="52.219938" lon="5.167824">
        <ele>10.049141</ele>
        <time>2026-08-29T14:21:22.915Z</time>
      </trkpt>
      <trkpt lat="52.220022" lon="5.167883">
        <ele>9.988079</ele>
        <time>2026-08-29T14:21:24.901Z</time>
      </trkpt>
      <trkpt lat="52.220111" lon="5.167928">
        <ele>9.925864</ele>
        <time>2026-08-29T14:21:26.904Z</time>
      </trkpt>
      <trkpt lat="52.220202" lon="5.167970">
        <ele>9.862718</ele>
        <time>2026-08-29T14:21:28.895Z</time>
      </trkpt>
      <trkpt lat="52.220330" lon="5.168024">
        <ele>9.903007</ele>
        <time>2026-08-29T14:21:31.899Z</time>
      </trkpt>
      <trkpt lat="52.220448" lon="5.168082">
        <ele>9.995600</ele>
        <time>2026-08-29T14:21:34.894Z</time>
      </trkpt>
      <trkpt lat="52.220552" lon="5.168134">
        <ele>10.077325</ele>
        <time>2026-08-29T14:21:37.893Z</time>
      </trkpt>
      <trkpt lat="52.220642" lon="5.168176">
        <ele>10.147657</ele>
        <time>2026-08-29T14:21:40.902Z</time>
      </trkpt>
      <trkpt lat="52.220745" lon="5.168228">
        <ele>10.228663</ele>
        <time>2026-08-29T14:21:44.901Z</time>
      </trkpt>
      <trkpt lat="52.220852" lon="5.168284">
        <ele>10.313090</ele>
        <time>2026-08-29T14:21:48.893Z</time>
      </trkpt>
      <trkpt lat="52.220954" lon="5.168350">
        <ele>10.395530</ele>
        <time>2026-08-29T14:21:52.893Z</time>
      </trkpt>
      <trkpt lat="52.221047" lon="5.168414">
        <ele>10.471363</ele>
        <time>2026-08-29T14:21:56.898Z</time>
      </trkpt>
      <trkpt lat="52.221154" lon="5.168476">
        <ele>10.556673</ele>
        <time>2026-08-29T14:22:02.894Z</time>
      </trkpt>
      <trkpt lat="52.221246" lon="5.168535">
        <ele>10.630942</ele>
        <time>2026-08-29T14:22:06.902Z</time>
      </trkpt>
      <trkpt lat="52.221352" lon="5.168602">
        <ele>10.716348</ele>
        <time>2026-08-29T14:22:10.900Z</time>
      </trkpt>
      <trkpt lat="52.221445" lon="5.168662">
        <ele>10.791484</ele>
        <time>2026-08-29T14:22:13.900Z</time>
      </trkpt>
      <trkpt lat="52.221531" lon="5.168730">
        <ele>10.863283</ele>
        <time>2026-08-29T14:22:16.899Z</time>
      </trkpt>
      <trkpt lat="52.221622" lon="5.168799">
        <ele>10.938673</ele>
        <time>2026-08-29T14:22:19.899Z</time>
      </trkpt>
      <trkpt lat="52.221715" lon="5.168869">
        <ele>11.015620</ele>
        <time>2026-08-29T14:22:22.899Z</time>
      </trkpt>
      <trkpt lat="52.221813" lon="5.168944">
        <ele>11.096944</ele>
        <time>2026-08-29T14:22:25.900Z</time>
      </trkpt>
      <trkpt lat="52.221907" lon="5.169010">
        <ele>11.173828</ele>
        <time>2026-08-29T14:22:28.899Z</time>
      </trkpt>
      <trkpt lat="52.222002" lon="5.169086">
        <ele>11.152227</ele>
        <time>2026-08-29T14:22:31.894Z</time>
      </trkpt>
      <trkpt lat="52.222105" lon="5.169177">
        <ele>11.107364</ele>
        <time>2026-08-29T14:22:34.910Z</time>
      </trkpt>
      <trkpt lat="52.222210" lon="5.169263">
        <ele>11.062364</ele>
        <time>2026-08-29T14:22:37.896Z</time>
      </trkpt>
      <trkpt lat="52.222311" lon="5.169349">
        <ele>11.018728</ele>
        <time>2026-08-29T14:22:40.896Z</time>
      </trkpt>
      <trkpt lat="52.222412" lon="5.169441">
        <ele>10.974423</ele>
        <time>2026-08-29T14:22:43.895Z</time>
      </trkpt>
      <trkpt lat="52.222509" lon="5.169536">
        <ele>10.931092</ele>
        <time>2026-08-29T14:22:46.892Z</time>
      </trkpt>
      <trkpt lat="52.222609" lon="5.169638">
        <ele>10.885923</ele>
        <time>2026-08-29T14:22:49.894Z</time>
      </trkpt>
      <trkpt lat="52.222703" lon="5.169758">
        <ele>10.840213</ele>
        <time>2026-08-29T14:22:52.893Z</time>
      </trkpt>
      <trkpt lat="52.222788" lon="5.169873">
        <ele>10.797923</ele>
        <time>2026-08-29T14:22:55.890Z</time>
      </trkpt>
      <trkpt lat="52.222882" lon="5.169971">
        <ele>10.755199</ele>
        <time>2026-08-29T14:22:58.894Z</time>
      </trkpt>
      <trkpt lat="52.222977" lon="5.170062">
        <ele>10.713006</ele>
        <time>2026-08-29T14:23:01.894Z</time>
      </trkpt>
      <trkpt lat="52.223069" lon="5.170140">
        <ele>10.673295</ele>
        <time>2026-08-29T14:23:04.894Z</time>
      </trkpt>
      <trkpt lat="52.223147" lon="5.170214">
        <ele>10.638737</ele>
        <time>2026-08-29T14:23:08.895Z</time>
      </trkpt>
      <trkpt lat="52.223229" lon="5.170324">
        <ele>10.598081</ele>
        <time>2026-08-29T14:23:16.895Z</time>
      </trkpt>
      <trkpt lat="52.223287" lon="5.170437">
        <ele>10.563488</ele>
        <time>2026-08-29T14:23:19.895Z</time>
      </trkpt>
      <trkpt lat="52.223351" lon="5.170581">
        <ele>10.521741</ele>
        <time>2026-08-29T14:23:23.896Z</time>
      </trkpt>
      <trkpt lat="52.223493" lon="5.170895">
        <ele>10.567099</ele>
        <time>2026-08-29T14:23:57.911Z</time>
      </trkpt>
      <trkpt lat="52.223579" lon="5.171020">
        <ele>10.612848</ele>
        <time>2026-08-29T14:24:00.894Z</time>
      </trkpt>
      <trkpt lat="52.223665" lon="5.171139">
        <ele>10.657639</ele>
        <time>2026-08-29T14:24:03.893Z</time>
      </trkpt>
      <trkpt lat="52.223754" lon="5.171189">
        <ele>10.695033</ele>
        <time>2026-08-29T14:24:06.908Z</time>
      </trkpt>
      <trkpt lat="52.223844" lon="5.171143">
        <ele>10.732502</ele>
        <time>2026-08-29T14:24:10.908Z</time>
      </trkpt>
      <trkpt lat="52.223899" lon="5.171288">
        <ele>10.774009</ele>
        <time>2026-08-29T14:24:16.910Z</time>
      </trkpt>
      <trkpt lat="52.223943" lon="5.171442">
        <ele>10.815365</ele>
        <time>2026-08-29T14:24:20.894Z</time>
      </trkpt>
      <trkpt lat="52.223994" lon="5.171590">
        <ele>10.856692</ele>
        <time>2026-08-29T14:24:24.895Z</time>
      </trkpt>
      <trkpt lat="52.224089" lon="5.171664">
        <ele>10.898512</ele>
        <time>2026-08-29T14:24:29.894Z</time>
      </trkpt>
      <trkpt lat="52.224178" lon="5.171738">
        <ele>10.938194</ele>
        <time>2026-08-29T14:24:35.895Z</time>
      </trkpt>
      <trkpt lat="52.224269" lon="5.171811">
        <ele>10.978477</ele>
        <time>2026-08-29T14:24:41.907Z</time>
      </trkpt>
      <trkpt lat="52.224354" lon="5.171893">
        <ele>11.017704</ele>
        <time>2026-08-29T14:24:48.893Z</time>
      </trkpt>
      <trkpt lat="52.224424" lon="5.172009">
        <ele>11.057332</ele>
        <time>2026-08-29T14:24:55.899Z</time>
      </trkpt>
      <trkpt lat="52.224483" lon="5.172132">
        <ele>11.095353</ele>
        <time>2026-08-29T14:25:01.896Z</time>
      </trkpt>
      <trkpt lat="52.224550" lon="5.172381">
        <ele>11.161541</ele>
        <time>2026-08-29T14:25:44.896Z</time>
      </trkpt>
      <trkpt lat="52.224608" lon="5.172523">
        <ele>11.203078</ele>
        <time>2026-08-29T14:25:50.898Z</time>
      </trkpt>
      <trkpt lat="52.224684" lon="5.172633">
        <ele>11.060084</ele>
        <time>2026-08-29T14:25:56.899Z</time>
      </trkpt>
      <trkpt lat="52.224839" lon="5.172850">
        <ele>10.668366</ele>
        <time>2026-08-29T15:03:36.900Z</time>
      </trkpt>
      <trkpt lat="52.224881" lon="5.173000">
        <ele>10.474555</ele>
        <time>2026-08-29T15:03:44.899Z</time>
      </trkpt>
      <trkpt lat="52.224923" lon="5.173150">
        <ele>10.280744</ele>
        <time>2026-08-29T15:03:49.900Z</time>
      </trkpt>
      <trkpt lat="52.224968" lon="5.173290">
        <ele>10.094952</ele>
        <time>2026-08-29T15:03:53.900Z</time>
      </trkpt>
      <trkpt lat="52.225014" lon="5.173448">
        <ele>9.889379</ele>
        <time>2026-08-29T15:03:57.900Z</time>
      </trkpt>
      <trkpt lat="52.225058" lon="5.173577">
        <ele>9.715872</ele>
        <time>2026-08-29T15:04:00.899Z</time>
      </trkpt>
      <trkpt lat="52.225108" lon="5.173700">
        <ele>9.542400</ele>
        <time>2026-08-29T15:04:03.900Z</time>
      </trkpt>
      <trkpt lat="52.225148" lon="5.173881">
        <ele>9.316284</ele>
        <time>2026-08-29T15:04:07.901Z</time>
      </trkpt>
      <trkpt lat="52.225136" lon="5.174055">
        <ele>9.110521</ele>
        <time>2026-08-29T15:04:11.902Z</time>
      </trkpt>
      <trkpt lat="52.225158" lon="5.174215">
        <ele>8.917823</ele>
        <time>2026-08-29T15:04:15.902Z</time>
      </trkpt>
      <trkpt lat="52.225201" lon="5.174375">
        <ele>8.712504</ele>
        <time>2026-08-29T15:04:19.901Z</time>
      </trkpt>
      <trkpt lat="52.225236" lon="5.174517">
        <ele>8.532635</ele>
        <time>2026-08-29T15:04:23.900Z</time>
      </trkpt>
      <trkpt lat="52.225281" lon="5.174678">
        <ele>8.324677</ele>
        <time>2026-08-29T15:04:28.900Z</time>
      </trkpt>
      <trkpt lat="52.225314" lon="5.174822">
        <ele>8.144005</ele>
        <time>2026-08-29T15:04:34.899Z</time>
      </trkpt>
      <trkpt lat="52.225355" lon="5.174967">
        <ele>7.956336</ele>
        <time>2026-08-29T15:04:39.899Z</time>
      </trkpt>
      <trkpt lat="52.225400" lon="5.175095">
        <ele>7.782909</ele>
        <time>2026-08-29T15:04:43.899Z</time>
      </trkpt>
      <trkpt lat="52.225441" lon="5.175243">
        <ele>7.711648</ele>
        <time>2026-08-29T15:04:47.899Z</time>
      </trkpt>
      <trkpt lat="52.225479" lon="5.175386">
        <ele>7.657767</ele>
        <time>2026-08-29T15:04:51.896Z</time>
      </trkpt>
      <trkpt lat="52.225514" lon="5.175558">
        <ele>7.595118</ele>
        <time>2026-08-29T15:04:56.895Z</time>
      </trkpt>
      <trkpt lat="52.225522" lon="5.175713">
        <ele>7.541350</ele>
        <time>2026-08-29T15:05:01.896Z</time>
      </trkpt>
      <trkpt lat="52.225523" lon="5.175872">
        <ele>7.486386</ele>
        <time>2026-08-29T15:05:05.900Z</time>
      </trkpt>
      <trkpt lat="52.225522" lon="5.176039">
        <ele>7.428657</ele>
        <time>2026-08-29T15:05:09.894Z</time>
      </trkpt>
      <trkpt lat="52.225525" lon="5.176186">
        <ele>7.377816</ele>
        <time>2026-08-29T15:05:13.897Z</time>
      </trkpt>
      <trkpt lat="52.225532" lon="5.176362">
        <ele>7.316851</ele>
        <time>2026-08-29T15:05:18.899Z</time>
      </trkpt>
      <trkpt lat="52.225539" lon="5.176525">
        <ele>7.260369</ele>
        <time>2026-08-29T15:05:23.892Z</time>
      </trkpt>
      <trkpt lat="52.225561" lon="5.176668">
        <ele>7.209404</ele>
        <time>2026-08-29T15:05:28.908Z</time>
      </trkpt>
      <trkpt lat="52.225568" lon="5.176841">
        <ele>7.149473</ele>
        <time>2026-08-29T15:05:33.896Z</time>
      </trkpt>
      <trkpt lat="52.225569" lon="5.177005">
        <ele>7.092782</ele>
        <time>2026-08-29T15:05:38.896Z</time>
      </trkpt>
      <trkpt lat="52.225556" lon="5.177177">
        <ele>7.032876</ele>
        <time>2026-08-29T15:05:44.892Z</time>
      </trkpt>
      <trkpt lat="52.225553" lon="5.177341">
        <ele>6.976162</ele>
        <time>2026-08-29T15:05:50.894Z</time>
      </trkpt>
      <trkpt lat="52.225562" lon="5.177494">
        <ele>6.923032</ele>
        <time>2026-08-29T15:05:57.896Z</time>
      </trkpt>
      <trkpt lat="52.225662" lon="5.177507">
        <ele>6.866423</ele>
        <time>2026-08-29T15:06:03.893Z</time>
      </trkpt>
      <trkpt lat="52.225768" lon="5.177534">
        <ele>6.805883</ele>
        <time>2026-08-29T15:06:09.907Z</time>
      </trkpt>
      <trkpt lat="52.225863" lon="5.177560">
        <ele>6.751526</ele>
        <time>2026-08-29T15:06:14.893Z</time>
      </trkpt>
      <trkpt lat="52.225971" lon="5.177553">
        <ele>6.700384</ele>
        <time>2026-08-29T15:06:20.907Z</time>
      </trkpt>
      <trkpt lat="52.226077" lon="5.177563">
        <ele>6.651010</ele>
        <time>2026-08-29T15:06:26.896Z</time>
      </trkpt>
      <trkpt lat="52.226166" lon="5.177617">
        <ele>6.606858</ele>
        <time>2026-08-29T15:06:32.907Z</time>
      </trkpt>
      <trkpt lat="52.226249" lon="5.177679">
        <ele>6.564413</ele>
        <time>2026-08-29T15:06:39.894Z</time>
      </trkpt>
      <trkpt lat="52.226337" lon="5.177616">
        <ele>6.519730</ele>
        <time>2026-08-29T15:06:49.893Z</time>
      </trkpt>
      <trkpt lat="52.226438" lon="5.177600">
        <ele>6.472543</ele>
        <time>2026-08-29T15:06:58.894Z</time>
      </trkpt>
      <trkpt lat="52.226536" lon="5.177624">
        <ele>6.426462</ele>
        <time>2026-08-29T15:07:05.907Z</time>
      </trkpt>
      <trkpt lat="52.226635" lon="5.177625">
        <ele>6.380424</ele>
        <time>2026-08-29T15:07:14.895Z</time>
      </trkpt>
      <trkpt lat="52.226736" lon="5.177655">
        <ele>6.332686</ele>
        <time>2026-08-29T15:07:21.895Z</time>
      </trkpt>
      <trkpt lat="52.226839" lon="5.177666">
        <ele>6.284687</ele>
        <time>2026-08-29T15:07:27.894Z</time>
      </trkpt>
      <trkpt lat="52.226943" lon="5.177671">
        <ele>6.236305</ele>
        <time>2026-08-29T15:07:33.894Z</time>
      </trkpt>
      <trkpt lat="52.227038" lon="5.177686">
        <ele>6.191922</ele>
        <time>2026-08-29T15:07:38.900Z</time>
      </trkpt>
      <trkpt lat="52.227137" lon="5.177727">
        <ele>6.144427</ele>
        <time>2026-08-29T15:07:43.895Z</time>
      </trkpt>
      <trkpt lat="52.227225" lon="5.177782">
        <ele>6.100610</ele>
        <time>2026-08-29T15:07:48.891Z</time>
      </trkpt>
      <trkpt lat="52.227319" lon="5.177834">
        <ele>6.054457</ele>
        <time>2026-08-29T15:07:54.907Z</time>
      </trkpt>
      <trkpt lat="52.227390" lon="5.177932">
        <ele>6.011222</ele>
        <time>2026-08-29T15:08:00.893Z</time>
      </trkpt>
      <trkpt lat="52.227482" lon="5.177905">
        <ele>5.967755</ele>
        <time>2026-08-29T15:08:10.895Z</time>
      </trkpt>
      <trkpt lat="52.227515" lon="5.177668">
        <ele>5.912044</ele>
        <time>2026-08-29T15:09:48.908Z</time>
      </trkpt>
      <trkpt lat="52.227570" lon="5.177510">
        <ele>5.920622</ele>
        <time>2026-08-29T15:09:54.895Z</time>
      </trkpt>
      <trkpt lat="52.227598" lon="5.177345">
        <ele>5.928703</ele>
        <time>2026-08-29T15:09:59.897Z</time>
      </trkpt>
      <trkpt lat="52.227619" lon="5.177178">
        <ele>5.936750</ele>
        <time>2026-08-29T15:10:04.895Z</time>
      </trkpt>
      <trkpt lat="52.227667" lon="5.177023">
        <ele>5.944947</ele>
        <time>2026-08-29T15:10:09.896Z</time>
      </trkpt>
      <trkpt lat="52.227693" lon="5.176877">
        <ele>5.952124</ele>
        <time>2026-08-29T15:10:15.894Z</time>
      </trkpt>
      <trkpt lat="52.227669" lon="5.176733">
        <ele>5.959168</ele>
        <time>2026-08-29T15:10:24.908Z</time>
      </trkpt>
      <trkpt lat="52.227758" lon="5.176669">
        <ele>5.966661</ele>
        <time>2026-08-29T15:10:31.894Z</time>
      </trkpt>
      <trkpt lat="52.227668" lon="5.176592">
        <ele>5.974491</ele>
        <time>2026-08-29T15:10:38.894Z</time>
      </trkpt>
      <trkpt lat="52.227552" lon="5.176574">
        <ele>5.983470</ele>
        <time>2026-08-29T15:10:42.894Z</time>
      </trkpt>
      <trkpt lat="52.227453" lon="5.176506">
        <ele>5.991746</ele>
        <time>2026-08-29T15:10:46.894Z</time>
      </trkpt>
      <trkpt lat="52.227354" lon="5.176453">
        <ele>5.999775</ele>
        <time>2026-08-29T15:10:50.908Z</time>
      </trkpt>
      <trkpt lat="52.227242" lon="5.176381">
        <ele>6.009050</ele>
        <time>2026-08-29T15:10:54.893Z</time>
      </trkpt>
      <trkpt lat="52.227189" lon="5.176253">
        <ele>6.016342</ele>
        <time>2026-08-29T15:10:57.908Z</time>
      </trkpt>
      <trkpt lat="52.227159" lon="5.176100">
        <ele>6.023925</ele>
        <time>2026-08-29T15:11:00.894Z</time>
      </trkpt>
      <trkpt lat="52.227153" lon="5.175925">
        <ele>6.032198</ele>
        <time>2026-08-29T15:11:03.907Z</time>
      </trkpt>
      <trkpt lat="52.227155" lon="5.175753">
        <ele>6.040318</ele>
        <time>2026-08-29T15:11:06.907Z</time>
      </trkpt>
      <trkpt lat="52.227157" lon="5.175578">
        <ele>6.048579</ele>
        <time>2026-08-29T15:11:09.894Z</time>
      </trkpt>
      <trkpt lat="52.227161" lon="5.175400">
        <ele>6.084490</ele>
        <time>2026-08-29T15:11:12.893Z</time>
      </trkpt>
      <trkpt lat="52.227172" lon="5.175234">
        <ele>6.118592</ele>
        <time>2026-08-29T15:11:15.894Z</time>
      </trkpt>
      <trkpt lat="52.227183" lon="5.175081">
        <ele>6.150057</ele>
        <time>2026-08-29T15:11:18.895Z</time>
      </trkpt>
      <trkpt lat="52.227196" lon="5.174922">
        <ele>6.182820</ele>
        <time>2026-08-29T15:11:21.907Z</time>
      </trkpt>
      <trkpt lat="52.227221" lon="5.174763">
        <ele>6.216348</ele>
        <time>2026-08-29T15:11:24.891Z</time>
      </trkpt>
      <trkpt lat="52.227252" lon="5.174609">
        <ele>6.249457</ele>
        <time>2026-08-29T15:11:27.893Z</time>
      </trkpt>
      <trkpt lat="52.227287" lon="5.174462">
        <ele>6.281670</ele>
        <time>2026-08-29T15:11:30.892Z</time>
      </trkpt>
      <trkpt lat="52.227322" lon="5.174311">
        <ele>6.314645</ele>
        <time>2026-08-29T15:11:33.894Z</time>
      </trkpt>
      <trkpt lat="52.227354" lon="5.174159">
        <ele>6.347473</ele>
        <time>2026-08-29T15:11:36.893Z</time>
      </trkpt>
      <trkpt lat="52.227390" lon="5.174002">
        <ele>6.381713</ele>
        <time>2026-08-29T15:11:39.894Z</time>
      </trkpt>
      <trkpt lat="52.227419" lon="5.173837">
        <ele>6.416773</ele>
        <time>2026-08-29T15:11:42.893Z</time>
      </trkpt>
      <trkpt lat="52.227446" lon="5.173666">
        <ele>6.452841</ele>
        <time>2026-08-29T15:11:45.893Z</time>
      </trkpt>
      <trkpt lat="52.227469" lon="5.173493">
        <ele>6.488998</ele>
        <time>2026-08-29T15:11:48.907Z</time>
      </trkpt>
      <trkpt lat="52.227488" lon="5.173320">
        <ele>6.524896</ele>
        <time>2026-08-29T15:11:51.908Z</time>
      </trkpt>
      <trkpt lat="52.227498" lon="5.173144">
        <ele>6.560997</ele>
        <time>2026-08-29T15:11:54.895Z</time>
      </trkpt>
      <trkpt lat="52.227505" lon="5.172965">
        <ele>6.597632</ele>
        <time>2026-08-29T15:11:57.895Z</time>
      </trkpt>
      <trkpt lat="52.227508" lon="5.172786">
        <ele>6.634205</ele>
        <time>2026-08-29T15:12:00.895Z</time>
      </trkpt>
      <trkpt lat="52.227506" lon="5.172610">
        <ele>6.736665</ele>
        <time>2026-08-29T15:12:03.892Z</time>
      </trkpt>
      <trkpt lat="52.227499" lon="5.172440">
        <ele>6.878182</ele>
        <time>2026-08-29T15:12:06.899Z</time>
      </trkpt>
      <trkpt lat="52.227493" lon="5.172269">
        <ele>7.020445</ele>
        <time>2026-08-29T15:12:09.892Z</time>
      </trkpt>
      <trkpt lat="52.227489" lon="5.172103">
        <ele>7.158429</ele>
        <time>2026-08-29T15:12:12.893Z</time>
      </trkpt>
      <trkpt lat="52.227486" lon="5.171938">
        <ele>7.295535</ele>
        <time>2026-08-29T15:12:15.893Z</time>
      </trkpt>
      <trkpt lat="52.227479" lon="5.171781">
        <ele>7.426282</ele>
        <time>2026-08-29T15:12:18.899Z</time>
      </trkpt>
      <trkpt lat="52.227477" lon="5.171621">
        <ele>7.559203</ele>
        <time>2026-08-29T15:12:21.893Z</time>
      </trkpt>
      <trkpt lat="52.227472" lon="5.171466">
        <ele>7.688122</ele>
        <time>2026-08-29T15:12:24.899Z</time>
      </trkpt>
      <trkpt lat="52.227465" lon="5.171273">
        <ele>7.848705</ele>
        <time>2026-08-29T15:12:28.900Z</time>
      </trkpt>
      <trkpt lat="52.227457" lon="5.171095">
        <ele>7.996947</ele>
        <time>2026-08-29T15:12:32.893Z</time>
      </trkpt>
      <trkpt lat="52.227454" lon="5.170929">
        <ele>8.134884</ele>
        <time>2026-08-29T15:12:36.892Z</time>
      </trkpt>
      <trkpt lat="52.227543" lon="5.170842">
        <ele>8.275547</ele>
        <time>2026-08-29T15:12:41.907Z</time>
      </trkpt>
      <trkpt lat="52.227633" lon="5.170850">
        <ele>8.397767</ele>
        <time>2026-08-29T15:12:44.894Z</time>
      </trkpt>
      <trkpt lat="52.227753" lon="5.170842">
        <ele>8.560622</ele>
        <time>2026-08-29T15:12:48.896Z</time>
      </trkpt>
      <trkpt lat="52.227846" lon="5.170837">
        <ele>8.686798</ele>
        <time>2026-08-29T15:12:51.893Z</time>
      </trkpt>
      <trkpt lat="52.227941" lon="5.170830">
        <ele>8.815748</ele>
        <time>2026-08-29T15:12:54.894Z</time>
      </trkpt>
      <trkpt lat="52.228042" lon="5.170823">
        <ele>8.952827</ele>
        <time>2026-08-29T15:12:57.907Z</time>
      </trkpt>
      <trkpt lat="52.228139" lon="5.170813">
        <ele>9.084620</ele>
        <time>2026-08-29T15:13:00.907Z</time>
      </trkpt>
      <trkpt lat="52.228236" lon="5.170789">
        <ele>9.335832</ele>
        <time>2026-08-29T15:13:03.893Z</time>
      </trkpt>
      <trkpt lat="52.228330" lon="5.170738">
        <ele>9.592034</ele>
        <time>2026-08-29T15:13:06.900Z</time>
      </trkpt>
      <trkpt lat="52.228407" lon="5.170650">
        <ele>9.835139</ele>
        <time>2026-08-29T15:13:09.899Z</time>
      </trkpt>
      <trkpt lat="52.228492" lon="5.170523">
        <ele>10.133158</ele>
        <time>2026-08-29T15:13:13.893Z</time>
      </trkpt>
      <trkpt lat="52.228561" lon="5.170381">
        <ele>10.420314</ele>
        <time>2026-08-29T15:13:17.892Z</time>
      </trkpt>
      <trkpt lat="52.228593" lon="5.170242">
        <ele>10.655564</ele>
        <time>2026-08-29T15:13:20.896Z</time>
      </trkpt>
      <trkpt lat="52.228597" lon="5.170083">
        <ele>10.907671</ele>
        <time>2026-08-29T15:13:23.897Z</time>
      </trkpt>
      <trkpt lat="52.228595" lon="5.169921">
        <ele>11.164371</ele>
        <time>2026-08-29T15:13:26.893Z</time>
      </trkpt>
      <trkpt lat="52.228588" lon="5.169758">
        <ele>11.423237</ele>
        <time>2026-08-29T15:13:29.907Z</time>
      </trkpt>
      <trkpt lat="52.228587" lon="5.169600">
        <ele>11.673561</ele>
        <time>2026-08-29T15:13:32.892Z</time>
      </trkpt>
      <trkpt lat="52.228583" lon="5.169450">
        <ele>11.911422</ele>
        <time>2026-08-29T15:13:35.907Z</time>
      </trkpt>
      <trkpt lat="52.228584" lon="5.169256">
        <ele>12.218777</ele>
        <time>2026-08-29T15:13:39.893Z</time>
      </trkpt>
      <trkpt lat="52.228578" lon="5.169068">
        <ele>12.517019</ele>
        <time>2026-08-29T15:13:43.907Z</time>
      </trkpt>
      <trkpt lat="52.228575" lon="5.168878">
        <ele>12.818125</ele>
        <time>2026-08-29T15:13:47.894Z</time>
      </trkpt>
      <trkpt lat="52.228622" lon="5.168727">
        <ele>13.086461</ele>
        <time>2026-08-29T15:13:52.893Z</time>
      </trkpt>
      <trkpt lat="52.228735" lon="5.168743">
        <ele>13.379829</ele>
        <time>2026-08-29T15:13:56.896Z</time>
      </trkpt>
      <trkpt lat="52.228834" lon="5.168747">
        <ele>13.635968</ele>
        <time>2026-08-29T15:13:59.908Z</time>
      </trkpt>
      <trkpt lat="52.228927" lon="5.168744">
        <ele>13.806935</ele>
        <time>2026-08-29T15:14:02.896Z</time>
      </trkpt>
      <trkpt lat="52.229022" lon="5.168742">
        <ele>13.927796</ele>
        <time>2026-08-29T15:14:05.907Z</time>
      </trkpt>
      <trkpt lat="52.229118" lon="5.168752">
        <ele>14.050168</ele>
        <time>2026-08-29T15:14:08.894Z</time>
      </trkpt>
      <trkpt lat="52.229215" lon="5.168747">
        <ele>14.173624</ele>
        <time>2026-08-29T15:14:11.893Z</time>
      </trkpt>
      <trkpt lat="52.229305" lon="5.168729">
        <ele>14.288970</ele>
        <time>2026-08-29T15:14:14.892Z</time>
      </trkpt>
      <trkpt lat="52.229422" lon="5.168722">
        <ele>14.437908</ele>
        <time>2026-08-29T15:14:18.895Z</time>
      </trkpt>
      <trkpt lat="52.229509" lon="5.168681">
        <ele>14.553100</ele>
        <time>2026-08-29T15:14:21.895Z</time>
      </trkpt>
      <trkpt lat="52.229552" lon="5.168541">
        <ele>14.675131</ele>
        <time>2026-08-29T15:14:24.894Z</time>
      </trkpt>
      <trkpt lat="52.229547" lon="5.168387">
        <ele>14.795292</ele>
        <time>2026-08-29T15:14:27.893Z</time>
      </trkpt>
      <trkpt lat="52.229580" lon="5.168243">
        <ele>14.915088</ele>
        <time>2026-08-29T15:14:32.894Z</time>
      </trkpt>
      <trkpt lat="52.229679" lon="5.168188">
        <ele>15.048119</ele>
        <time>2026-08-29T15:14:38.910Z</time>
      </trkpt>
      <trkpt lat="52.229789" lon="5.168144">
        <ele>15.192190</ele>
        <time>2026-08-29T15:14:42.893Z</time>
      </trkpt>
      <trkpt lat="52.229876" lon="5.168101">
        <ele>15.307825</ele>
        <time>2026-08-29T15:14:45.893Z</time>
      </trkpt>
      <trkpt lat="52.229965" lon="5.168064">
        <ele>15.424656</ele>
        <time>2026-08-29T15:14:48.893Z</time>
      </trkpt>
      <trkpt lat="52.230062" lon="5.168026">
        <ele>15.551553</ele>
        <time>2026-08-29T15:14:51.907Z</time>
      </trkpt>
      <trkpt lat="52.230151" lon="5.167979">
        <ele>15.670547</ele>
        <time>2026-08-29T15:14:54.893Z</time>
      </trkpt>
      <trkpt lat="52.230236" lon="5.167924">
        <ele>15.786859</ele>
        <time>2026-08-29T15:14:57.894Z</time>
      </trkpt>
      <trkpt lat="52.230317" lon="5.167834">
        <ele>15.911498</ele>
        <time>2026-08-29T15:15:00.896Z</time>
      </trkpt>
      <trkpt lat="52.230385" lon="5.167682">
        <ele>16.057247</ele>
        <time>2026-08-29T15:15:04.894Z</time>
      </trkpt>
      <trkpt lat="52.230398" lon="5.167526">
        <ele>16.176257</ele>
        <time>2026-08-29T15:15:07.896Z</time>
      </trkpt>
      <trkpt lat="52.230397" lon="5.167339">
        <ele>16.317620</ele>
        <time>2026-08-29T15:15:10.907Z</time>
      </trkpt>
      <trkpt lat="52.230390" lon="5.167132">
        <ele>16.474334</ele>
        <time>2026-08-29T15:15:13.895Z</time>
      </trkpt>
      <trkpt lat="52.230394" lon="5.166917">
        <ele>16.636931</ele>
        <time>2026-08-29T15:15:16.893Z</time>
      </trkpt>
      <trkpt lat="52.230410" lon="5.166703">
        <ele>16.799899</ele>
        <time>2026-08-29T15:15:19.894Z</time>
      </trkpt>
      <trkpt lat="52.230446" lon="5.166568">
        <ele>16.911201</ele>
        <time>2026-08-29T15:15:21.907Z</time>
      </trkpt>
      <trkpt lat="52.230495" lon="5.166443">
        <ele>17.023386</ele>
        <time>2026-08-29T15:15:23.895Z</time>
      </trkpt>
      <trkpt lat="52.230572" lon="5.166357">
        <ele>17.138526</ele>
        <time>2026-08-29T15:15:25.895Z</time>
      </trkpt>
      <trkpt lat="52.230689" lon="5.166280">
        <ele>17.294215</ele>
        <time>2026-08-29T15:15:28.894Z</time>
      </trkpt>
      <trkpt lat="52.230805" lon="5.166207">
        <ele>17.447646</ele>
        <time>2026-08-29T15:15:31.894Z</time>
      </trkpt>
      <trkpt lat="52.230919" lon="5.166139">
        <ele>17.597439</ele>
        <time>2026-08-29T15:15:34.895Z</time>
      </trkpt>
      <trkpt lat="52.231030" lon="5.166082">
        <ele>17.741049</ele>
        <time>2026-08-29T15:15:37.895Z</time>
      </trkpt>
      <trkpt lat="52.231147" lon="5.166030">
        <ele>17.890702</ele>
        <time>2026-08-29T15:15:40.895Z</time>
      </trkpt>
      <trkpt lat="52.231268" lon="5.165988">
        <ele>18.043375</ele>
        <time>2026-08-29T15:15:43.895Z</time>
      </trkpt>
      <trkpt lat="52.231386" lon="5.165939">
        <ele>18.193645</ele>
        <time>2026-08-29T15:15:46.896Z</time>
      </trkpt>
      <trkpt lat="52.231504" lon="5.165893">
        <ele>18.360377</ele>
        <time>2026-08-29T15:15:49.907Z</time>
      </trkpt>
      <trkpt lat="52.231620" lon="5.165851">
        <ele>18.533027</ele>
        <time>2026-08-29T15:15:52.910Z</time>
      </trkpt>
      <trkpt lat="52.231746" lon="5.165802">
        <ele>18.721234</ele>
        <time>2026-08-29T15:15:55.895Z</time>
      </trkpt>
      <trkpt lat="52.231868" lon="5.165740">
        <ele>18.906896</ele>
        <time>2026-08-29T15:15:58.896Z</time>
      </trkpt>
      <trkpt lat="52.231985" lon="5.165656">
        <ele>19.092613</ele>
        <time>2026-08-29T15:16:01.907Z</time>
      </trkpt>
      <trkpt lat="52.232068" lon="5.165587">
        <ele>19.227950</ele>
        <time>2026-08-29T15:16:03.893Z</time>
      </trkpt>
      <trkpt lat="52.232178" lon="5.165479">
        <ele>19.414459</ele>
        <time>2026-08-29T15:16:06.907Z</time>
      </trkpt>
      <trkpt lat="52.232258" lon="5.165405">
        <ele>19.548063</ele>
        <time>2026-08-29T15:16:08.907Z</time>
      </trkpt>
      <trkpt lat="52.232340" lon="5.165324">
        <ele>19.687322</ele>
        <time>2026-08-29T15:16:10.896Z</time>
      </trkpt>
      <trkpt lat="52.232426" lon="5.165227">
        <ele>19.839203</ele>
        <time>2026-08-29T15:16:12.907Z</time>
      </trkpt>
      <trkpt lat="52.232510" lon="5.165130">
        <ele>19.988701</ele>
        <time>2026-08-29T15:16:14.907Z</time>
      </trkpt>
      <trkpt lat="52.232592" lon="5.165044">
        <ele>20.130315</ele>
        <time>2026-08-29T15:16:16.895Z</time>
      </trkpt>
      <trkpt lat="52.232671" lon="5.164943">
        <ele>20.276110</ele>
        <time>2026-08-29T15:16:18.895Z</time>
      </trkpt>
      <trkpt lat="52.232744" lon="5.164837">
        <ele>20.418061</ele>
        <time>2026-08-29T15:16:20.907Z</time>
      </trkpt>
      <trkpt lat="52.232812" lon="5.164729">
        <ele>20.555904</ele>
        <time>2026-08-29T15:16:22.893Z</time>
      </trkpt>
      <trkpt lat="52.232859" lon="5.164595">
        <ele>20.693326</ele>
        <time>2026-08-29T15:16:24.899Z</time>
      </trkpt>
      <trkpt lat="52.232888" lon="5.164451">
        <ele>20.828227</ele>
        <time>2026-08-29T15:16:26.895Z</time>
      </trkpt>
      <trkpt lat="52.232917" lon="5.164298">
        <ele>20.937865</ele>
        <time>2026-08-29T15:16:28.894Z</time>
      </trkpt>
      <trkpt lat="52.232969" lon="5.164160">
        <ele>21.038838</ele>
        <time>2026-08-29T15:16:30.907Z</time>
      </trkpt>
      <trkpt lat="52.233037" lon="5.164041">
        <ele>21.140264</ele>
        <time>2026-08-29T15:16:32.895Z</time>
      </trkpt>
      <trkpt lat="52.233115" lon="5.163960">
        <ele>21.234323</ele>
        <time>2026-08-29T15:16:34.895Z</time>
      </trkpt>
      <trkpt lat="52.233230" lon="5.163854">
        <ele>21.368697</ele>
        <time>2026-08-29T15:16:37.894Z</time>
      </trkpt>
      <trkpt lat="52.233335" lon="5.163724">
        <ele>21.502780</ele>
        <time>2026-08-29T15:16:40.896Z</time>
      </trkpt>
      <trkpt lat="52.233425" lon="5.163576">
        <ele>21.632753</ele>
        <time>2026-08-29T15:16:43.895Z</time>
      </trkpt>
      <trkpt lat="52.233518" lon="5.163446">
        <ele>21.757324</ele>
        <time>2026-08-29T15:16:46.894Z</time>
      </trkpt>
      <trkpt lat="52.233599" lon="5.163332">
        <ele>21.866136</ele>
        <time>2026-08-29T15:16:49.892Z</time>
      </trkpt>
      <trkpt lat="52.233719" lon="5.163362">
        <ele>21.989663</ele>
        <time>2026-08-29T15:16:52.907Z</time>
      </trkpt>
      <trkpt lat="52.233836" lon="5.163437">
        <ele>22.117559</ele>
        <time>2026-08-29T15:16:55.907Z</time>
      </trkpt>
      <trkpt lat="52.233945" lon="5.163509">
        <ele>22.237202</ele>
        <time>2026-08-29T15:16:58.895Z</time>
      </trkpt>
      <trkpt lat="52.234057" lon="5.163574">
        <ele>22.358150</ele>
        <time>2026-08-29T15:17:01.907Z</time>
      </trkpt>
      <trkpt lat="52.234163" lon="5.163645">
        <ele>22.474730</ele>
        <time>2026-08-29T15:17:04.895Z</time>
      </trkpt>
      <trkpt lat="52.234242" lon="5.163717">
        <ele>22.566789</ele>
        <time>2026-08-29T15:17:08.895Z</time>
      </trkpt>
      <trkpt lat="52.234335" lon="5.163744">
        <ele>22.662904</ele>
        <time>2026-08-29T15:17:14.907Z</time>
      </trkpt>
      <trkpt lat="52.234427" lon="5.163746">
        <ele>22.505375</ele>
        <time>2026-08-29T15:17:18.907Z</time>
      </trkpt>
      <trkpt lat="52.234522" lon="5.163738">
        <ele>22.230095</ele>
        <time>2026-08-29T15:17:21.892Z</time>
      </trkpt>
      <trkpt lat="52.234632" lon="5.163697">
        <ele>21.903586</ele>
        <time>2026-08-29T15:17:24.895Z</time>
      </trkpt>
      <trkpt lat="52.234751" lon="5.163625">
        <ele>21.536339</ele>
        <time>2026-08-29T15:17:27.896Z</time>
      </trkpt>
      <trkpt lat="52.234839" lon="5.163559">
        <ele>21.256103</ele>
        <time>2026-08-29T15:17:29.893Z</time>
      </trkpt>
      <trkpt lat="52.234942" lon="5.163483">
        <ele>20.929019</ele>
        <time>2026-08-29T15:17:31.893Z</time>
      </trkpt>
      <trkpt lat="52.235068" lon="5.163414">
        <ele>20.544437</ele>
        <time>2026-08-29T15:17:33.894Z</time>
      </trkpt>
      <trkpt lat="52.235217" lon="5.163405">
        <ele>20.112961</ele>
        <time>2026-08-29T15:17:35.893Z</time>
      </trkpt>
      <trkpt lat="52.235380" lon="5.163420">
        <ele>19.640518</ele>
        <time>2026-08-29T15:17:37.908Z</time>
      </trkpt>
      <trkpt lat="52.235549" lon="5.163429">
        <ele>19.151201</ele>
        <time>2026-08-29T15:17:39.896Z</time>
      </trkpt>
      <trkpt lat="52.235717" lon="5.163436">
        <ele>18.664879</ele>
        <time>2026-08-29T15:17:41.895Z</time>
      </trkpt>
      <trkpt lat="52.235882" lon="5.163388">
        <ele>18.179879</ele>
        <time>2026-08-29T15:17:43.891Z</time>
      </trkpt>
      <trkpt lat="52.236027" lon="5.163282">
        <ele>17.720142</ele>
        <time>2026-08-29T15:17:45.894Z</time>
      </trkpt>
      <trkpt lat="52.236162" lon="5.163174">
        <ele>17.408351</ele>
        <time>2026-08-29T15:17:47.895Z</time>
      </trkpt>
      <trkpt lat="52.236277" lon="5.163076">
        <ele>17.263004</ele>
        <time>2026-08-29T15:17:49.893Z</time>
      </trkpt>
      <trkpt lat="52.236387" lon="5.163005">
        <ele>17.130472</ele>
        <time>2026-08-29T15:17:51.896Z</time>
      </trkpt>
      <trkpt lat="52.236497" lon="5.162969">
        <ele>17.004769</ele>
        <time>2026-08-29T15:17:53.894Z</time>
      </trkpt>
      <trkpt lat="52.236598" lon="5.162996">
        <ele>16.890094</ele>
        <time>2026-08-29T15:17:55.895Z</time>
      </trkpt>
      <trkpt lat="52.236708" lon="5.162999">
        <ele>16.766824</ele>
        <time>2026-08-29T15:17:57.894Z</time>
      </trkpt>
      <trkpt lat="52.236812" lon="5.163003">
        <ele>16.650262</ele>
        <time>2026-08-29T15:17:59.908Z</time>
      </trkpt>
      <trkpt lat="52.236917" lon="5.163001">
        <ele>16.532604</ele>
        <time>2026-08-29T15:18:01.894Z</time>
      </trkpt>
      <trkpt lat="52.237021" lon="5.162997">
        <ele>16.416042</ele>
        <time>2026-08-29T15:18:03.907Z</time>
      </trkpt>
      <trkpt lat="52.237125" lon="5.162990">
        <ele>16.299414</ele>
        <time>2026-08-29T15:18:05.896Z</time>
      </trkpt>
      <trkpt lat="52.237235" lon="5.162974">
        <ele>16.175673</ele>
        <time>2026-08-29T15:18:07.907Z</time>
      </trkpt>
      <trkpt lat="52.237344" lon="5.162948">
        <ele>16.052245</ele>
        <time>2026-08-29T15:18:09.897Z</time>
      </trkpt>
      <trkpt lat="52.237462" lon="5.162902">
        <ele>15.916313</ele>
        <time>2026-08-29T15:18:11.894Z</time>
      </trkpt>
      <trkpt lat="52.237577" lon="5.162838">
        <ele>15.780181</ele>
        <time>2026-08-29T15:18:13.895Z</time>
      </trkpt>
      <trkpt lat="52.237693" lon="5.162761">
        <ele>15.639877</ele>
        <time>2026-08-29T15:18:15.909Z</time>
      </trkpt>
      <trkpt lat="52.237788" lon="5.162673">
        <ele>15.517498</ele>
        <time>2026-08-29T15:18:17.893Z</time>
      </trkpt>
      <trkpt lat="52.237834" lon="5.162525">
        <ele>15.327091</ele>
        <time>2026-08-29T15:18:19.896Z</time>
      </trkpt>
      <trkpt lat="52.237859" lon="5.162369">
        <ele>15.090574</ele>
        <time>2026-08-29T15:18:21.908Z</time>
      </trkpt>
      <trkpt lat="52.237890" lon="5.162207">
        <ele>14.841630</ele>
        <time>2026-08-29T15:18:23.907Z</time>
      </trkpt>
      <trkpt lat="52.237923" lon="5.162038">
        <ele>14.581455</ele>
        <time>2026-08-29T15:18:25.895Z</time>
      </trkpt>
      <trkpt lat="52.237951" lon="5.161872">
        <ele>14.328908</ele>
        <time>2026-08-29T15:18:27.894Z</time>
      </trkpt>
      <trkpt lat="52.237973" lon="5.161711">
        <ele>14.086956</ele>
        <time>2026-08-29T15:18:29.893Z</time>
      </trkpt>
      <trkpt lat="52.237995" lon="5.161548">
        <ele>13.842139</ele>
        <time>2026-08-29T15:18:31.895Z</time>
      </trkpt>
      <trkpt lat="52.238026" lon="5.161382">
        <ele>13.587591</ele>
        <time>2026-08-29T15:18:33.895Z</time>
      </trkpt>
      <trkpt lat="52.238064" lon="5.161222">
        <ele>13.335882</ele>
        <time>2026-08-29T15:18:35.894Z</time>
      </trkpt>
      <trkpt lat="52.238137" lon="5.161108">
        <ele>13.093953</ele>
        <time>2026-08-29T15:18:37.897Z</time>
      </trkpt>
      <trkpt lat="52.238231" lon="5.161079">
        <ele>12.864828</ele>
        <time>2026-08-29T15:18:39.899Z</time>
      </trkpt>
      <trkpt lat="52.238335" lon="5.161060">
        <ele>12.614180</ele>
        <time>2026-08-29T15:18:41.894Z</time>
      </trkpt>
      <trkpt lat="52.238448" lon="5.161045">
        <ele>12.342637</ele>
        <time>2026-08-29T15:18:43.893Z</time>
      </trkpt>
      <trkpt lat="52.238559" lon="5.161013">
        <ele>12.072666</ele>
        <time>2026-08-29T15:18:45.896Z</time>
      </trkpt>
      <trkpt lat="52.238672" lon="5.160985">
        <ele>11.798918</ele>
        <time>2026-08-29T15:18:47.894Z</time>
      </trkpt>
      <trkpt lat="52.238795" lon="5.161024">
        <ele>11.498814</ele>
        <time>2026-08-29T15:18:49.895Z</time>
      </trkpt>
      <trkpt lat="52.238912" lon="5.161054">
        <ele>11.215150</ele>
        <time>2026-08-29T15:18:51.895Z</time>
      </trkpt>
      <trkpt lat="52.239035" lon="5.161061">
        <ele>10.942674</ele>
        <time>2026-08-29T15:18:53.893Z</time>
      </trkpt>
      <trkpt lat="52.239164" lon="5.161063">
        <ele>10.662105</ele>
        <time>2026-08-29T15:18:55.895Z</time>
      </trkpt>
      <trkpt lat="52.239292" lon="5.161064">
        <ele>10.383720</ele>
        <time>2026-08-29T15:18:57.893Z</time>
      </trkpt>
      <trkpt lat="52.239414" lon="5.161084">
        <ele>10.117054</ele>
        <time>2026-08-29T15:18:59.895Z</time>
      </trkpt>
      <trkpt lat="52.239544" lon="5.161091">
        <ele>9.834169</ele>
        <time>2026-08-29T15:19:01.895Z</time>
      </trkpt>
      <trkpt lat="52.239669" lon="5.161115">
        <ele>9.560439</ele>
        <time>2026-08-29T15:19:03.895Z</time>
      </trkpt>
      <trkpt lat="52.239786" lon="5.161121">
        <ele>9.305856</ele>
        <time>2026-08-29T15:19:05.893Z</time>
      </trkpt>
      <trkpt lat="52.239907" lon="5.161120">
        <ele>9.042695</ele>
        <time>2026-08-29T15:19:07.896Z</time>
      </trkpt>
      <trkpt lat="52.240022" lon="5.161121">
        <ele>8.792583</ele>
        <time>2026-08-29T15:19:09.893Z</time>
      </trkpt>
      <trkpt lat="52.240139" lon="5.161120">
        <ele>8.538121</ele>
        <time>2026-08-29T15:19:11.895Z</time>
      </trkpt>
      <trkpt lat="52.240253" lon="5.161131">
        <ele>8.289755</ele>
        <time>2026-08-29T15:19:13.896Z</time>
      </trkpt>
      <trkpt lat="52.240362" lon="5.161151">
        <ele>8.051204</ele>
        <time>2026-08-29T15:19:15.897Z</time>
      </trkpt>
      <trkpt lat="52.240479" lon="5.161166">
        <ele>7.795963</ele>
        <time>2026-08-29T15:19:17.908Z</time>
      </trkpt>
      <trkpt lat="52.240592" lon="5.161163">
        <ele>7.550171</ele>
        <time>2026-08-29T15:19:19.895Z</time>
      </trkpt>
      <trkpt lat="52.240702" lon="5.161167">
        <ele>7.310878</ele>
        <time>2026-08-29T15:19:21.900Z</time>
      </trkpt>
      <trkpt lat="52.240807" lon="5.161172">
        <ele>7.245037</ele>
        <time>2026-08-29T15:19:23.908Z</time>
      </trkpt>
      <trkpt lat="52.240913" lon="5.161173">
        <ele>7.236753</ele>
        <time>2026-08-29T15:19:25.894Z</time>
      </trkpt>
      <trkpt lat="52.241023" lon="5.161192">
        <ele>7.228108</ele>
        <time>2026-08-29T15:19:27.895Z</time>
      </trkpt>
      <trkpt lat="52.241134" lon="5.161197">
        <ele>7.219429</ele>
        <time>2026-08-29T15:19:29.897Z</time>
      </trkpt>
      <trkpt lat="52.241239" lon="5.161210">
        <ele>7.211200</ele>
        <time>2026-08-29T15:19:31.894Z</time>
      </trkpt>
      <trkpt lat="52.241339" lon="5.161222">
        <ele>7.203363</ele>
        <time>2026-08-29T15:19:33.898Z</time>
      </trkpt>
      <trkpt lat="52.241429" lon="5.161183">
        <ele>7.196086</ele>
        <time>2026-08-29T15:19:35.895Z</time>
      </trkpt>
      <trkpt lat="52.241535" lon="5.161220">
        <ele>7.187615</ele>
        <time>2026-08-29T15:19:38.895Z</time>
      </trkpt>
      <trkpt lat="52.241640" lon="5.161309">
        <ele>7.178369</ele>
        <time>2026-08-29T15:19:41.894Z</time>
      </trkpt>
      <trkpt lat="52.241747" lon="5.161298">
        <ele>7.169990</ele>
        <time>2026-08-29T15:19:43.908Z</time>
      </trkpt>
      <trkpt lat="52.241843" lon="5.161310">
        <ele>7.162465</ele>
        <time>2026-08-29T15:19:45.894Z</time>
      </trkpt>
      <trkpt lat="52.241952" lon="5.161311">
        <ele>7.153946</ele>
        <time>2026-08-29T15:19:47.894Z</time>
      </trkpt>
      <trkpt lat="52.242055" lon="5.161314">
        <ele>7.145895</ele>
        <time>2026-08-29T15:19:49.908Z</time>
      </trkpt>
      <trkpt lat="52.242166" lon="5.161323">
        <ele>7.137209</ele>
        <time>2026-08-29T15:19:51.896Z</time>
      </trkpt>
      <trkpt lat="52.242271" lon="5.161328">
        <ele>7.129000</ele>
        <time>2026-08-29T15:19:53.899Z</time>
      </trkpt>
      <trkpt lat="52.242377" lon="5.161329">
        <ele>7.120715</ele>
        <time>2026-08-29T15:19:55.895Z</time>
      </trkpt>
      <trkpt lat="52.242468" lon="5.161340">
        <ele>7.113584</ele>
        <time>2026-08-29T15:19:57.895Z</time>
      </trkpt>
      <trkpt lat="52.242573" lon="5.161352">
        <ele>7.079825</ele>
        <time>2026-08-29T15:19:59.910Z</time>
      </trkpt>
      <trkpt lat="52.242671" lon="5.161360">
        <ele>7.034285</ele>
        <time>2026-08-29T15:20:01.894Z</time>
      </trkpt>
      <trkpt lat="52.242772" lon="5.161364">
        <ele>6.987395</ele>
        <time>2026-08-29T15:20:03.893Z</time>
      </trkpt>
      <trkpt lat="52.242871" lon="5.161367">
        <ele>6.941439</ele>
        <time>2026-08-29T15:20:05.910Z</time>
      </trkpt>
      <trkpt lat="52.242983" lon="5.161383">
        <ele>6.889259</ele>
        <time>2026-08-29T15:20:07.894Z</time>
      </trkpt>
      <trkpt lat="52.243082" lon="5.161388">
        <ele>6.843289</ele>
        <time>2026-08-29T15:20:09.897Z</time>
      </trkpt>
      <trkpt lat="52.243188" lon="5.161396">
        <ele>6.794040</ele>
        <time>2026-08-29T15:20:11.893Z</time>
      </trkpt>
      <trkpt lat="52.243296" lon="5.161399">
        <ele>6.743908</ele>
        <time>2026-08-29T15:20:13.895Z</time>
      </trkpt>
      <trkpt lat="52.243395" lon="5.161397">
        <ele>6.697957</ele>
        <time>2026-08-29T15:20:15.895Z</time>
      </trkpt>
      <trkpt lat="52.243509" lon="5.161404">
        <ele>6.645010</ele>
        <time>2026-08-29T15:20:17.895Z</time>
      </trkpt>
      <trkpt lat="52.243605" lon="5.161408">
        <ele>6.600440</ele>
        <time>2026-08-29T15:20:19.894Z</time>
      </trkpt>
      <trkpt lat="52.243700" lon="5.161423">
        <ele>6.556143</ele>
        <time>2026-08-29T15:20:21.894Z</time>
      </trkpt>
      <trkpt lat="52.243822" lon="5.161441">
        <ele>6.499290</ele>
        <time>2026-08-29T15:20:23.892Z</time>
      </trkpt>
      <trkpt lat="52.243925" lon="5.161448">
        <ele>6.451444</ele>
        <time>2026-08-29T15:20:25.899Z</time>
      </trkpt>
      <trkpt lat="52.244026" lon="5.161463">
        <ele>6.404374</ele>
        <time>2026-08-29T15:20:27.894Z</time>
      </trkpt>
      <trkpt lat="52.244135" lon="5.161451">
        <ele>6.353671</ele>
        <time>2026-08-29T15:20:29.895Z</time>
      </trkpt>
      <trkpt lat="52.244245" lon="5.161458">
        <ele>6.302579</ele>
        <time>2026-08-29T15:20:31.894Z</time>
      </trkpt>
      <trkpt lat="52.244340" lon="5.161445">
        <ele>6.251833</ele>
        <time>2026-08-29T15:20:33.894Z</time>
      </trkpt>
      <trkpt lat="52.244440" lon="5.161453">
        <ele>6.188015</ele>
        <time>2026-08-29T15:20:35.907Z</time>
      </trkpt>
      <trkpt lat="52.244536" lon="5.161464">
        <ele>6.126673</ele>
        <time>2026-08-29T15:20:37.901Z</time>
      </trkpt>
      <trkpt lat="52.244628" lon="5.161447">
        <ele>6.067658</ele>
        <time>2026-08-29T15:20:39.907Z</time>
      </trkpt>
      <trkpt lat="52.244720" lon="5.161448">
        <ele>6.009014</ele>
        <time>2026-08-29T15:20:41.896Z</time>
      </trkpt>
      <trkpt lat="52.244833" lon="5.161458">
        <ele>5.936881</ele>
        <time>2026-08-29T15:20:43.898Z</time>
      </trkpt>
      <trkpt lat="52.244938" lon="5.161468">
        <ele>5.869840</ele>
        <time>2026-08-29T15:20:45.907Z</time>
      </trkpt>
      <trkpt lat="52.245042" lon="5.161476">
        <ele>5.803476</ele>
        <time>2026-08-29T15:20:47.897Z</time>
      </trkpt>
      <trkpt lat="52.245143" lon="5.161478">
        <ele>5.739092</ele>
        <time>2026-08-29T15:20:49.898Z</time>
      </trkpt>
      <trkpt lat="52.245242" lon="5.161487">
        <ele>5.675891</ele>
        <time>2026-08-29T15:20:51.908Z</time>
      </trkpt>
      <trkpt lat="52.245347" lon="5.161493">
        <ele>5.608922</ele>
        <time>2026-08-29T15:20:53.897Z</time>
      </trkpt>
      <trkpt lat="52.245445" lon="5.161501">
        <ele>5.546378</ele>
        <time>2026-08-29T15:20:55.898Z</time>
      </trkpt>
      <trkpt lat="52.245540" lon="5.161509">
        <ele>5.485743</ele>
        <time>2026-08-29T15:20:57.896Z</time>
      </trkpt>
      <trkpt lat="52.245634" lon="5.161514">
        <ele>5.425795</ele>
        <time>2026-08-29T15:20:59.907Z</time>
      </trkpt>
      <trkpt lat="52.245737" lon="5.161517">
        <ele>5.360131</ele>
        <time>2026-08-29T15:21:01.898Z</time>
      </trkpt>
      <trkpt lat="52.245836" lon="5.161532">
        <ele>5.296757</ele>
        <time>2026-08-29T15:21:03.907Z</time>
      </trkpt>
      <trkpt lat="52.245937" lon="5.161531">
        <ele>5.232377</ele>
        <time>2026-08-29T15:21:05.897Z</time>
      </trkpt>
      <trkpt lat="52.246038" lon="5.161538">
        <ele>5.167941</ele>
        <time>2026-08-29T15:21:07.907Z</time>
      </trkpt>
      <trkpt lat="52.246131" lon="5.161545">
        <ele>5.076590</ele>
        <time>2026-08-29T15:21:09.900Z</time>
      </trkpt>
      <trkpt lat="52.246229" lon="5.161551">
        <ele>4.917277</ele>
        <time>2026-08-29T15:21:11.898Z</time>
      </trkpt>
      <trkpt lat="52.246355" lon="5.161557">
        <ele>4.712503</ele>
        <time>2026-08-29T15:21:14.892Z</time>
      </trkpt>
      <trkpt lat="52.246451" lon="5.161566">
        <ele>4.556294</ele>
        <time>2026-08-29T15:21:16.907Z</time>
      </trkpt>
      <trkpt lat="52.246542" lon="5.161578">
        <ele>4.407983</ele>
        <time>2026-08-29T15:21:18.897Z</time>
      </trkpt>
      <trkpt lat="52.246633" lon="5.161581">
        <ele>4.260123</ele>
        <time>2026-08-29T15:21:20.897Z</time>
      </trkpt>
      <trkpt lat="52.246723" lon="5.161583">
        <ele>4.113905</ele>
        <time>2026-08-29T15:21:22.907Z</time>
      </trkpt>
      <trkpt lat="52.246862" lon="5.161593">
        <ele>3.887880</ele>
        <time>2026-08-29T15:21:25.907Z</time>
      </trkpt>
      <trkpt lat="52.246962" lon="5.161594">
        <ele>3.725427</ele>
        <time>2026-08-29T15:21:27.907Z</time>
      </trkpt>
      <trkpt lat="52.247098" lon="5.161600">
        <ele>3.504414</ele>
        <time>2026-08-29T15:21:30.892Z</time>
      </trkpt>
      <trkpt lat="52.247205" lon="5.161604">
        <ele>3.330547</ele>
        <time>2026-08-29T15:21:32.894Z</time>
      </trkpt>
      <trkpt lat="52.247317" lon="5.161607">
        <ele>3.148579</ele>
        <time>2026-08-29T15:21:34.900Z</time>
      </trkpt>
      <trkpt lat="52.247419" lon="5.161609">
        <ele>2.982868</ele>
        <time>2026-08-29T15:21:36.896Z</time>
      </trkpt>
      <trkpt lat="52.247521" lon="5.161617">
        <ele>2.816978</ele>
        <time>2026-08-29T15:21:38.907Z</time>
      </trkpt>
      <trkpt lat="52.247622" lon="5.161620">
        <ele>2.652876</ele>
        <time>2026-08-29T15:21:40.897Z</time>
      </trkpt>
      <trkpt lat="52.247724" lon="5.161629">
        <ele>2.486935</ele>
        <time>2026-08-29T15:21:42.907Z</time>
      </trkpt>
      <trkpt lat="52.247827" lon="5.161636">
        <ele>2.319467</ele>
        <time>2026-08-29T15:21:44.899Z</time>
      </trkpt>
      <trkpt lat="52.247920" lon="5.161642">
        <ele>2.218850</ele>
        <time>2026-08-29T15:21:46.896Z</time>
      </trkpt>
      <trkpt lat="52.248017" lon="5.161650">
        <ele>2.265169</ele>
        <time>2026-08-29T15:21:48.899Z</time>
      </trkpt>
      <trkpt lat="52.248115" lon="5.161662">
        <ele>2.312038</ele>
        <time>2026-08-29T15:21:50.897Z</time>
      </trkpt>
      <trkpt lat="52.248210" lon="5.161665">
        <ele>2.357354</ele>
        <time>2026-08-29T15:21:52.907Z</time>
      </trkpt>
      <trkpt lat="52.248309" lon="5.161660">
        <ele>2.404591</ele>
        <time>2026-08-29T15:21:54.907Z</time>
      </trkpt>
      <trkpt lat="52.248405" lon="5.161680">
        <ele>2.450746</ele>
        <time>2026-08-29T15:21:56.896Z</time>
      </trkpt>
      <trkpt lat="52.248506" lon="5.161694">
        <ele>2.499087</ele>
        <time>2026-08-29T15:21:58.907Z</time>
      </trkpt>
      <trkpt lat="52.248614" lon="5.161709">
        <ele>2.550780</ele>
        <time>2026-08-29T15:22:00.902Z</time>
      </trkpt>
      <trkpt lat="52.248732" lon="5.161706">
        <ele>2.607063</ele>
        <time>2026-08-29T15:22:02.897Z</time>
      </trkpt>
      <trkpt lat="52.248843" lon="5.161686">
        <ele>2.660322</ele>
        <time>2026-08-29T15:22:04.897Z</time>
      </trkpt>
      <trkpt lat="52.248959" lon="5.161688">
        <ele>2.715647</ele>
        <time>2026-08-29T15:22:06.899Z</time>
      </trkpt>
      <trkpt lat="52.249072" lon="5.161695">
        <ele>2.769577</ele>
        <time>2026-08-29T15:22:08.907Z</time>
      </trkpt>
      <trkpt lat="52.249183" lon="5.161702">
        <ele>2.822555</ele>
        <time>2026-08-29T15:22:10.897Z</time>
      </trkpt>
      <trkpt lat="52.249284" lon="5.161709">
        <ele>2.870766</ele>
        <time>2026-08-29T15:22:12.907Z</time>
      </trkpt>
      <trkpt lat="52.249395" lon="5.161713">
        <ele>2.923717</ele>
        <time>2026-08-29T15:22:14.907Z</time>
      </trkpt>
      <trkpt lat="52.249505" lon="5.161720">
        <ele>2.976218</ele>
        <time>2026-08-29T15:22:16.907Z</time>
      </trkpt>
      <trkpt lat="52.249624" lon="5.161730">
        <ele>3.033046</ele>
        <time>2026-08-29T15:22:18.907Z</time>
      </trkpt>
      <trkpt lat="52.249732" lon="5.161733">
        <ele>3.077096</ele>
        <time>2026-08-29T15:22:20.897Z</time>
      </trkpt>
      <trkpt lat="52.249833" lon="5.161729">
        <ele>3.106730</ele>
        <time>2026-08-29T15:22:22.897Z</time>
      </trkpt>
      <trkpt lat="52.249945" lon="5.161737">
        <ele>3.139613</ele>
        <time>2026-08-29T15:22:24.897Z</time>
      </trkpt>
      <trkpt lat="52.250062" lon="5.161740">
        <ele>3.173935</ele>
        <time>2026-08-29T15:22:26.894Z</time>
      </trkpt>
      <trkpt lat="52.250177" lon="5.161756">
        <ele>3.207789</ele>
        <time>2026-08-29T15:22:28.907Z</time>
      </trkpt>
      <trkpt lat="52.250313" lon="5.161758">
        <ele>3.247681</ele>
        <time>2026-08-29T15:22:31.907Z</time>
      </trkpt>
      <trkpt lat="52.250433" lon="5.161760">
        <ele>3.282881</ele>
        <time>2026-08-29T15:22:33.897Z</time>
      </trkpt>
      <trkpt lat="52.250549" lon="5.161763">
        <ele>3.316910</ele>
        <time>2026-08-29T15:22:35.896Z</time>
      </trkpt>
      <trkpt lat="52.250664" lon="5.161767">
        <ele>3.350649</ele>
        <time>2026-08-29T15:22:37.897Z</time>
      </trkpt>
      <trkpt lat="52.250775" lon="5.161780">
        <ele>3.383291</ele>
        <time>2026-08-29T15:22:39.907Z</time>
      </trkpt>
      <trkpt lat="52.250879" lon="5.161796">
        <ele>3.413931</ele>
        <time>2026-08-29T15:22:41.893Z</time>
      </trkpt>
      <trkpt lat="52.250973" lon="5.161799">
        <ele>3.441508</ele>
        <time>2026-08-29T15:22:43.907Z</time>
      </trkpt>
      <trkpt lat="52.251078" lon="5.161809">
        <ele>3.472359</ele>
        <time>2026-08-29T15:22:45.896Z</time>
      </trkpt>
      <trkpt lat="52.251183" lon="5.161816">
        <ele>3.503183</ele>
        <time>2026-08-29T15:22:47.896Z</time>
      </trkpt>
      <trkpt lat="52.251283" lon="5.161822">
        <ele>3.532534</ele>
        <time>2026-08-29T15:22:49.907Z</time>
      </trkpt>
      <trkpt lat="52.251388" lon="5.161821">
        <ele>3.563333</ele>
        <time>2026-08-29T15:22:51.907Z</time>
      </trkpt>
      <trkpt lat="52.251484" lon="5.161827">
        <ele>3.591512</ele>
        <time>2026-08-29T15:22:53.898Z</time>
      </trkpt>
      <trkpt lat="52.251582" lon="5.161829">
        <ele>3.697072</ele>
        <time>2026-08-29T15:22:55.899Z</time>
      </trkpt>
      <trkpt lat="52.251677" lon="5.161831">
        <ele>3.802738</ele>
        <time>2026-08-29T15:22:57.896Z</time>
      </trkpt>
      <trkpt lat="52.251784" lon="5.161835">
        <ele>3.921772</ele>
        <time>2026-08-29T15:22:59.907Z</time>
      </trkpt>
      <trkpt lat="52.251878" lon="5.161836">
        <ele>4.026319</ele>
        <time>2026-08-29T15:23:01.892Z</time>
      </trkpt>
      <trkpt lat="52.251974" lon="5.161837">
        <ele>4.133090</ele>
        <time>2026-08-29T15:23:03.895Z</time>
      </trkpt>
      <trkpt lat="52.252067" lon="5.161851">
        <ele>4.236960</ele>
        <time>2026-08-29T15:23:05.892Z</time>
      </trkpt>
      <trkpt lat="52.252160" lon="5.161857">
        <ele>4.340473</ele>
        <time>2026-08-29T15:23:07.893Z</time>
      </trkpt>
      <trkpt lat="52.252252" lon="5.161859">
        <ele>4.442803</ele>
        <time>2026-08-29T15:23:09.892Z</time>
      </trkpt>
      <trkpt lat="52.252359" lon="5.161872">
        <ele>4.562134</ele>
        <time>2026-08-29T15:23:11.893Z</time>
      </trkpt>
      <trkpt lat="52.252463" lon="5.161879">
        <ele>4.677898</ele>
        <time>2026-08-29T15:23:13.894Z</time>
      </trkpt>
      <trkpt lat="52.252602" lon="5.161883">
        <ele>4.832515</ele>
        <time>2026-08-29T15:23:16.907Z</time>
      </trkpt>
      <trkpt lat="52.252713" lon="5.161888">
        <ele>4.956013</ele>
        <time>2026-08-29T15:23:18.893Z</time>
      </trkpt>
      <trkpt lat="52.252811" lon="5.161891">
        <ele>5.065026</ele>
        <time>2026-08-29T15:23:20.894Z</time>
      </trkpt>
      <trkpt lat="52.252919" lon="5.161906">
        <ele>5.185574</ele>
        <time>2026-08-29T15:23:22.893Z</time>
      </trkpt>
      <trkpt lat="52.253026" lon="5.161913">
        <ele>5.304672</ele>
        <time>2026-08-29T15:23:24.893Z</time>
      </trkpt>
      <trkpt lat="52.253134" lon="5.161914">
        <ele>5.424789</ele>
        <time>2026-08-29T15:23:26.893Z</time>
      </trkpt>
      <trkpt lat="52.253250" lon="5.161935">
        <ele>5.554591</ele>
        <time>2026-08-29T15:23:28.893Z</time>
      </trkpt>
      <trkpt lat="52.253361" lon="5.161929">
        <ele>5.495213</ele>
        <time>2026-08-29T15:23:30.893Z</time>
      </trkpt>
      <trkpt lat="52.253480" lon="5.161927">
        <ele>5.342635</ele>
        <time>2026-08-29T15:23:32.892Z</time>
      </trkpt>
      <trkpt lat="52.253593" lon="5.161924">
        <ele>5.197739</ele>
        <time>2026-08-29T15:23:34.893Z</time>
      </trkpt>
      <trkpt lat="52.253703" lon="5.161935">
        <ele>5.056444</ele>
        <time>2026-08-29T15:23:36.892Z</time>
      </trkpt>
      <trkpt lat="52.253799" lon="5.161943">
        <ele>4.933202</ele>
        <time>2026-08-29T15:23:38.893Z</time>
      </trkpt>
      <trkpt lat="52.253906" lon="5.161951">
        <ele>4.795874</ele>
        <time>2026-08-29T15:23:40.893Z</time>
      </trkpt>
      <trkpt lat="52.254002" lon="5.161954">
        <ele>4.672770</ele>
        <time>2026-08-29T15:23:42.894Z</time>
      </trkpt>
      <trkpt lat="52.254109" lon="5.161967">
        <ele>4.535206</ele>
        <time>2026-08-29T15:23:44.907Z</time>
      </trkpt>
      <trkpt lat="52.254218" lon="5.161978">
        <ele>4.395191</ele>
        <time>2026-08-29T15:23:46.893Z</time>
      </trkpt>
      <trkpt lat="52.254329" lon="5.161982">
        <ele>4.252844</ele>
        <time>2026-08-29T15:23:48.894Z</time>
      </trkpt>
      <trkpt lat="52.254434" lon="5.161986">
        <ele>4.118186</ele>
        <time>2026-08-29T15:23:50.892Z</time>
      </trkpt>
      <trkpt lat="52.254540" lon="5.161986">
        <ele>3.982284</ele>
        <time>2026-08-29T15:23:52.893Z</time>
      </trkpt>
      <trkpt lat="52.254642" lon="5.161996">
        <ele>3.851274</ele>
        <time>2026-08-29T15:23:54.892Z</time>
      </trkpt>
      <trkpt lat="52.254744" lon="5.161999">
        <ele>3.720479</ele>
        <time>2026-08-29T15:23:56.907Z</time>
      </trkpt>
      <trkpt lat="52.254845" lon="5.162004">
        <ele>3.590928</ele>
        <time>2026-08-29T15:23:58.893Z</time>
      </trkpt>
      <trkpt lat="52.254940" lon="5.162011">
        <ele>3.469004</ele>
        <time>2026-08-29T15:24:00.894Z</time>
      </trkpt>
      <trkpt lat="52.255030" lon="5.162013">
        <ele>3.353605</ele>
        <time>2026-08-29T15:24:02.907Z</time>
      </trkpt>
      <trkpt lat="52.255125" lon="5.162023">
        <ele>3.324272</ele>
        <time>2026-08-29T15:24:04.893Z</time>
      </trkpt>
      <trkpt lat="52.255218" lon="5.162022">
        <ele>3.404019</ele>
        <time>2026-08-29T15:24:06.893Z</time>
      </trkpt>
      <trkpt lat="52.255309" lon="5.162031">
        <ele>3.482193</ele>
        <time>2026-08-29T15:24:08.893Z</time>
      </trkpt>
      <trkpt lat="52.255403" lon="5.162033">
        <ele>3.562803</ele>
        <time>2026-08-29T15:24:10.893Z</time>
      </trkpt>
      <trkpt lat="52.255496" lon="5.162035">
        <ele>3.642556</ele>
        <time>2026-08-29T15:24:12.892Z</time>
      </trkpt>
      <trkpt lat="52.255630" lon="5.162057">
        <ele>3.758038</ele>
        <time>2026-08-29T15:24:15.907Z</time>
      </trkpt>
      <trkpt lat="52.255767" lon="5.162067">
        <ele>3.875630</ele>
        <time>2026-08-29T15:24:18.908Z</time>
      </trkpt>
      <trkpt lat="52.255870" lon="5.162066">
        <ele>3.963953</ele>
        <time>2026-08-29T15:24:20.893Z</time>
      </trkpt>
      <trkpt lat="52.255967" lon="5.162072">
        <ele>4.047188</ele>
        <time>2026-08-29T15:24:22.893Z</time>
      </trkpt>
      <trkpt lat="52.256058" lon="5.162074">
        <ele>4.125226</ele>
        <time>2026-08-29T15:24:24.895Z</time>
      </trkpt>
      <trkpt lat="52.256171" lon="5.162076">
        <ele>4.222127</ele>
        <time>2026-08-29T15:24:26.892Z</time>
      </trkpt>
      <trkpt lat="52.256291" lon="5.162090">
        <ele>4.325287</ele>
        <time>2026-08-29T15:24:28.893Z</time>
      </trkpt>
      <trkpt lat="52.256392" lon="5.162094">
        <ele>4.411919</ele>
        <time>2026-08-29T15:24:30.908Z</time>
      </trkpt>
      <trkpt lat="52.256495" lon="5.162107">
        <ele>4.500503</ele>
        <time>2026-08-29T15:24:32.900Z</time>
      </trkpt>
      <trkpt lat="52.256587" lon="5.162108">
        <ele>4.579393</ele>
        <time>2026-08-29T15:24:34.894Z</time>
      </trkpt>
      <trkpt lat="52.256682" lon="5.162115">
        <ele>4.660937</ele>
        <time>2026-08-29T15:24:36.894Z</time>
      </trkpt>
      <trkpt lat="52.256779" lon="5.162127">
        <ele>4.744351</ele>
        <time>2026-08-29T15:24:38.892Z</time>
      </trkpt>
      <trkpt lat="52.256872" lon="5.162129">
        <ele>4.824103</ele>
        <time>2026-08-29T15:24:40.898Z</time>
      </trkpt>
      <trkpt lat="52.256971" lon="5.162143">
        <ele>4.872803</ele>
        <time>2026-08-29T15:24:42.900Z</time>
      </trkpt>
      <trkpt lat="52.257075" lon="5.162155">
        <ele>4.921350</ele>
        <time>2026-08-29T15:24:44.902Z</time>
      </trkpt>
      <trkpt lat="52.257180" lon="5.162157">
        <ele>4.970245</ele>
        <time>2026-08-29T15:24:46.892Z</time>
      </trkpt>
      <trkpt lat="52.257280" lon="5.162158">
        <ele>5.016809</ele>
        <time>2026-08-29T15:24:48.891Z</time>
      </trkpt>
      <trkpt lat="52.257372" lon="5.162162">
        <ele>5.059663</ele>
        <time>2026-08-29T15:24:50.899Z</time>
      </trkpt>
      <trkpt lat="52.257479" lon="5.162170">
        <ele>5.109538</ele>
        <time>2026-08-29T15:24:52.899Z</time>
      </trkpt>
      <trkpt lat="52.257580" lon="5.162156">
        <ele>5.156736</ele>
        <time>2026-08-29T15:24:54.906Z</time>
      </trkpt>
      <trkpt lat="52.257685" lon="5.162165">
        <ele>5.205695</ele>
        <time>2026-08-29T15:24:56.896Z</time>
      </trkpt>
      <trkpt lat="52.257794" lon="5.162171">
        <ele>5.256478</ele>
        <time>2026-08-29T15:24:58.899Z</time>
      </trkpt>
      <trkpt lat="52.257895" lon="5.162173">
        <ele>5.303511</ele>
        <time>2026-08-29T15:25:00.900Z</time>
      </trkpt>
      <trkpt lat="52.257989" lon="5.162177">
        <ele>5.347296</ele>
        <time>2026-08-29T15:25:02.900Z</time>
      </trkpt>
      <trkpt lat="52.258095" lon="5.162189">
        <ele>5.396771</ele>
        <time>2026-08-29T15:25:04.901Z</time>
      </trkpt>
      <trkpt lat="52.258206" lon="5.162191">
        <ele>5.448460</ele>
        <time>2026-08-29T15:25:06.899Z</time>
      </trkpt>
      <trkpt lat="52.258308" lon="5.162204">
        <ele>5.496099</ele>
        <time>2026-08-29T15:25:08.900Z</time>
      </trkpt>
      <trkpt lat="52.258448" lon="5.162213">
        <ele>5.561339</ele>
        <time>2026-08-29T15:25:11.901Z</time>
      </trkpt>
      <trkpt lat="52.258543" lon="5.162209">
        <ele>5.605589</ele>
        <time>2026-08-29T15:25:13.893Z</time>
      </trkpt>
      <trkpt lat="52.258638" lon="5.162211">
        <ele>5.649828</ele>
        <time>2026-08-29T15:25:15.899Z</time>
      </trkpt>
      <trkpt lat="52.258733" lon="5.162222">
        <ele>5.643603</ele>
        <time>2026-08-29T15:25:17.896Z</time>
      </trkpt>
      <trkpt lat="52.258871" lon="5.162227">
        <ele>5.588564</ele>
        <time>2026-08-29T15:25:20.900Z</time>
      </trkpt>
      <trkpt lat="52.259002" lon="5.162241">
        <ele>5.536218</ele>
        <time>2026-08-29T15:25:23.900Z</time>
      </trkpt>
      <trkpt lat="52.259120" lon="5.162295">
        <ele>5.487356</ele>
        <time>2026-08-29T15:25:26.893Z</time>
      </trkpt>
      <trkpt lat="52.259183" lon="5.162409">
        <ele>5.449871</ele>
        <time>2026-08-29T15:25:29.902Z</time>
      </trkpt>
      <trkpt lat="52.259236" lon="5.162626">
        <ele>5.392849</ele>
        <time>2026-08-29T15:25:57.902Z</time>
      </trkpt>
      <trkpt lat="52.259296" lon="5.162760">
        <ele>5.352328</ele>
        <time>2026-08-29T15:26:01.901Z</time>
      </trkpt>
      <trkpt lat="52.259392" lon="5.162695">
        <ele>5.310892</ele>
        <time>2026-08-29T15:26:04.899Z</time>
      </trkpt>
      <trkpt lat="52.259498" lon="5.162639">
        <ele>5.266471</ele>
        <time>2026-08-29T15:26:07.895Z</time>
      </trkpt>
      <trkpt lat="52.259609" lon="5.162574">
        <ele>5.219454</ele>
        <time>2026-08-29T15:26:10.892Z</time>
      </trkpt>
      <trkpt lat="52.259735" lon="5.162535">
        <ele>5.168320</ele>
        <time>2026-08-29T15:26:13.902Z</time>
      </trkpt>
      <trkpt lat="52.259864" lon="5.162480">
        <ele>5.115160</ele>
        <time>2026-08-29T15:26:16.916Z</time>
      </trkpt>
      <trkpt lat="52.259957" lon="5.162446">
        <ele>5.077161</ele>
        <time>2026-08-29T15:26:18.894Z</time>
      </trkpt>
      <trkpt lat="52.260048" lon="5.162415">
        <ele>5.040095</ele>
        <time>2026-08-29T15:26:20.901Z</time>
      </trkpt>
      <trkpt lat="52.260138" lon="5.162380">
        <ele>5.003206</ele>
        <time>2026-08-29T15:26:22.899Z</time>
      </trkpt>
      <trkpt lat="52.260233" lon="5.162346">
        <ele>4.964428</ele>
        <time>2026-08-29T15:26:24.893Z</time>
      </trkpt>
      <trkpt lat="52.260331" lon="5.162315">
        <ele>4.958344</ele>
        <time>2026-08-29T15:26:26.902Z</time>
      </trkpt>
      <trkpt lat="52.260428" lon="5.162294">
        <ele>4.971694</ele>
        <time>2026-08-29T15:26:28.916Z</time>
      </trkpt>
      <trkpt lat="52.260524" lon="5.162292">
        <ele>4.984793</ele>
        <time>2026-08-29T15:26:30.892Z</time>
      </trkpt>
      <trkpt lat="52.260626" lon="5.162295">
        <ele>4.998712</ele>
        <time>2026-08-29T15:26:32.899Z</time>
      </trkpt>
      <trkpt lat="52.260739" lon="5.162303">
        <ele>5.014144</ele>
        <time>2026-08-29T15:26:34.899Z</time>
      </trkpt>
      <trkpt lat="52.260851" lon="5.162309">
        <ele>5.029433</ele>
        <time>2026-08-29T15:26:36.899Z</time>
      </trkpt>
      <trkpt lat="52.260963" lon="5.162311">
        <ele>5.044716</ele>
        <time>2026-08-29T15:26:38.900Z</time>
      </trkpt>
      <trkpt lat="52.261077" lon="5.162316">
        <ele>5.060275</ele>
        <time>2026-08-29T15:26:40.900Z</time>
      </trkpt>
      <trkpt lat="52.261193" lon="5.162324">
        <ele>5.076116</ele>
        <time>2026-08-29T15:26:42.899Z</time>
      </trkpt>
      <trkpt lat="52.261315" lon="5.162332">
        <ele>5.092775</ele>
        <time>2026-08-29T15:26:44.893Z</time>
      </trkpt>
      <trkpt lat="52.261430" lon="5.162333">
        <ele>5.108466</ele>
        <time>2026-08-29T15:26:46.899Z</time>
      </trkpt>
      <trkpt lat="52.261540" lon="5.162340">
        <ele>5.123485</ele>
        <time>2026-08-29T15:26:48.894Z</time>
      </trkpt>
      <trkpt lat="52.261655" lon="5.162356">
        <ele>5.139232</ele>
        <time>2026-08-29T15:26:50.894Z</time>
      </trkpt>
      <trkpt lat="52.261766" lon="5.162342">
        <ele>5.154422</ele>
        <time>2026-08-29T15:26:52.895Z</time>
      </trkpt>
      <trkpt lat="52.261879" lon="5.162356">
        <ele>5.169884</ele>
        <time>2026-08-29T15:26:54.894Z</time>
      </trkpt>
      <trkpt lat="52.261990" lon="5.162359">
        <ele>5.185031</ele>
        <time>2026-08-29T15:26:56.907Z</time>
      </trkpt>
      <trkpt lat="52.262099" lon="5.162363">
        <ele>5.225025</ele>
        <time>2026-08-29T15:26:58.893Z</time>
      </trkpt>
      <trkpt lat="52.262209" lon="5.162371">
        <ele>5.319420</ele>
        <time>2026-08-29T15:27:00.894Z</time>
      </trkpt>
      <trkpt lat="52.262323" lon="5.162380">
        <ele>5.417264</ele>
        <time>2026-08-29T15:27:02.893Z</time>
      </trkpt>
      <trkpt lat="52.262431" lon="5.162393">
        <ele>5.510102</ele>
        <time>2026-08-29T15:27:04.907Z</time>
      </trkpt>
      <trkpt lat="52.262539" lon="5.162401">
        <ele>5.602784</ele>
        <time>2026-08-29T15:27:06.907Z</time>
      </trkpt>
      <trkpt lat="52.262646" lon="5.162409">
        <ele>5.694609</ele>
        <time>2026-08-29T15:27:08.893Z</time>
      </trkpt>
      <trkpt lat="52.262756" lon="5.162421">
        <ele>5.789120</ele>
        <time>2026-08-29T15:27:10.898Z</time>
      </trkpt>
      <trkpt lat="52.262864" lon="5.162444">
        <ele>5.882490</ele>
        <time>2026-08-29T15:27:12.893Z</time>
      </trkpt>
      <trkpt lat="52.262973" lon="5.162464">
        <ele>5.976522</ele>
        <time>2026-08-29T15:27:14.894Z</time>
      </trkpt>
      <trkpt lat="52.263084" lon="5.162471">
        <ele>6.071751</ele>
        <time>2026-08-29T15:27:16.894Z</time>
      </trkpt>
      <trkpt lat="52.263187" lon="5.162476">
        <ele>6.160091</ele>
        <time>2026-08-29T15:27:18.894Z</time>
      </trkpt>
      <trkpt lat="52.263296" lon="5.162487">
        <ele>6.253713</ele>
        <time>2026-08-29T15:27:20.895Z</time>
      </trkpt>
      <trkpt lat="52.263407" lon="5.162493">
        <ele>6.348923</ele>
        <time>2026-08-29T15:27:22.894Z</time>
      </trkpt>
      <trkpt lat="52.263519" lon="5.162487">
        <ele>6.444991</ele>
        <time>2026-08-29T15:27:24.907Z</time>
      </trkpt>
      <trkpt lat="52.263631" lon="5.162495">
        <ele>6.541099</ele>
        <time>2026-08-29T15:27:26.894Z</time>
      </trkpt>
      <trkpt lat="52.263740" lon="5.162502">
        <ele>6.634615</ele>
        <time>2026-08-29T15:27:28.895Z</time>
      </trkpt>
      <trkpt lat="52.263853" lon="5.162508">
        <ele>6.731539</ele>
        <time>2026-08-29T15:27:30.896Z</time>
      </trkpt>
      <trkpt lat="52.263966" lon="5.162532">
        <ele>6.752274</ele>
        <time>2026-08-29T15:27:32.893Z</time>
      </trkpt>
      <trkpt lat="52.264076" lon="5.162566">
        <ele>6.768080</ele>
        <time>2026-08-29T15:27:34.893Z</time>
      </trkpt>
      <trkpt lat="52.264183" lon="5.162602">
        <ele>6.783503</ele>
        <time>2026-08-29T15:27:36.895Z</time>
      </trkpt>
      <trkpt lat="52.264289" lon="5.162649">
        <ele>6.799010</ele>
        <time>2026-08-29T15:27:38.893Z</time>
      </trkpt>
      <trkpt lat="52.264387" lon="5.162707">
        <ele>6.813726</ele>
        <time>2026-08-29T15:27:40.900Z</time>
      </trkpt>
      <trkpt lat="52.264481" lon="5.162756">
        <ele>6.827657</ele>
        <time>2026-08-29T15:27:42.893Z</time>
      </trkpt>
      <trkpt lat="52.264594" lon="5.162849">
        <ele>6.845520</ele>
        <time>2026-08-29T15:27:45.892Z</time>
      </trkpt>
      <trkpt lat="52.264685" lon="5.162915">
        <ele>6.859577</ele>
        <time>2026-08-29T15:27:47.895Z</time>
      </trkpt>
      <trkpt lat="52.264768" lon="5.162997">
        <ele>6.873271</ele>
        <time>2026-08-29T15:27:49.899Z</time>
      </trkpt>
      <trkpt lat="52.264851" lon="5.163087">
        <ele>6.887335</ele>
        <time>2026-08-29T15:27:51.897Z</time>
      </trkpt>
      <trkpt lat="52.264933" lon="5.163161">
        <ele>6.900560</ele>
        <time>2026-08-29T15:27:53.893Z</time>
      </trkpt>
      <trkpt lat="52.265019" lon="5.163244">
        <ele>6.914662</ele>
        <time>2026-08-29T15:27:55.907Z</time>
      </trkpt>
      <trkpt lat="52.265103" lon="5.163329">
        <ele>6.928612</ele>
        <time>2026-08-29T15:27:57.893Z</time>
      </trkpt>
      <trkpt lat="52.265188" lon="5.163419">
        <ele>6.942912</ele>
        <time>2026-08-29T15:27:59.907Z</time>
      </trkpt>
      <trkpt lat="52.265280" lon="5.163511">
        <ele>6.958140</ele>
        <time>2026-08-29T15:28:01.892Z</time>
      </trkpt>
      <trkpt lat="52.265375" lon="5.163603">
        <ele>6.973732</ele>
        <time>2026-08-29T15:28:03.893Z</time>
      </trkpt>
      <trkpt lat="52.265469" lon="5.163698">
        <ele>6.989336</ele>
        <time>2026-08-29T15:28:05.892Z</time>
      </trkpt>
      <trkpt lat="52.265557" lon="5.163784">
        <ele>6.867354</ele>
        <time>2026-08-29T15:28:07.894Z</time>
      </trkpt>
      <trkpt lat="52.265650" lon="5.163861">
        <ele>6.724778</ele>
        <time>2026-08-29T15:28:09.896Z</time>
      </trkpt>
      <trkpt lat="52.265743" lon="5.163922">
        <ele>6.587733</ele>
        <time>2026-08-29T15:28:11.896Z</time>
      </trkpt>
      <trkpt lat="52.265840" lon="5.163973">
        <ele>6.448384</ele>
        <time>2026-08-29T15:28:13.892Z</time>
      </trkpt>
      <trkpt lat="52.265940" lon="5.163996">
        <ele>6.310283</ele>
        <time>2026-08-29T15:28:15.894Z</time>
      </trkpt>
      <trkpt lat="52.266038" lon="5.164002">
        <ele>6.176170</ele>
        <time>2026-08-29T15:28:17.892Z</time>
      </trkpt>
      <trkpt lat="52.266136" lon="5.164004">
        <ele>6.042141</ele>
        <time>2026-08-29T15:28:19.907Z</time>
      </trkpt>
      <trkpt lat="52.266236" lon="5.163985">
        <ele>5.904466</ele>
        <time>2026-08-29T15:28:21.896Z</time>
      </trkpt>
      <trkpt lat="52.266328" lon="5.163940">
        <ele>5.773137</ele>
        <time>2026-08-29T15:28:23.894Z</time>
      </trkpt>
      <trkpt lat="52.266445" lon="5.163965">
        <ele>5.611773</ele>
        <time>2026-08-29T15:28:26.893Z</time>
      </trkpt>
      <trkpt lat="52.266576" lon="5.164003">
        <ele>5.429825</ele>
        <time>2026-08-29T15:28:29.904Z</time>
      </trkpt>
      <trkpt lat="52.266660" lon="5.163943">
        <ele>5.304456</ele>
        <time>2026-08-29T15:28:31.895Z</time>
      </trkpt>
      <trkpt lat="52.266720" lon="5.163816">
        <ele>5.170182</ele>
        <time>2026-08-29T15:28:33.893Z</time>
      </trkpt>
      <trkpt lat="52.266761" lon="5.163667">
        <ele>5.033456</ele>
        <time>2026-08-29T15:28:35.895Z</time>
      </trkpt>
      <trkpt lat="52.266835" lon="5.163550">
        <ele>4.892641</ele>
        <time>2026-08-29T15:28:37.894Z</time>
      </trkpt>
      <trkpt lat="52.266916" lon="5.163441">
        <ele>4.749143</ele>
        <time>2026-08-29T15:28:39.895Z</time>
      </trkpt>
      <trkpt lat="52.266996" lon="5.163327">
        <ele>4.603982</ele>
        <time>2026-08-29T15:28:41.908Z</time>
      </trkpt>
      <trkpt lat="52.267080" lon="5.163233">
        <ele>4.469960</ele>
        <time>2026-08-29T15:28:43.906Z</time>
      </trkpt>
      <trkpt lat="52.267167" lon="5.163152">
        <ele>4.343736</ele>
        <time>2026-08-29T15:28:45.907Z</time>
      </trkpt>
      <trkpt lat="52.267259" lon="5.163081">
        <ele>4.215477</ele>
        <time>2026-08-29T15:28:47.909Z</time>
      </trkpt>
      <trkpt lat="52.267353" lon="5.163004">
        <ele>4.082926</ele>
        <time>2026-08-29T15:28:49.895Z</time>
      </trkpt>
      <trkpt lat="52.267447" lon="5.162925">
        <ele>3.949676</ele>
        <time>2026-08-29T15:28:51.895Z</time>
      </trkpt>
      <trkpt lat="52.267544" lon="5.162852">
        <ele>3.815053</ele>
        <time>2026-08-29T15:28:53.894Z</time>
      </trkpt>
      <trkpt lat="52.267647" lon="5.162787">
        <ele>3.675865</ele>
        <time>2026-08-29T15:28:55.895Z</time>
      </trkpt>
      <trkpt lat="52.267753" lon="5.162744">
        <ele>3.538186</ele>
        <time>2026-08-29T15:28:57.895Z</time>
      </trkpt>
      <trkpt lat="52.267863" lon="5.162722">
        <ele>3.398486</ele>
        <time>2026-08-29T15:28:59.909Z</time>
      </trkpt>
      <trkpt lat="52.267970" lon="5.162713">
        <ele>3.263424</ele>
        <time>2026-08-29T15:29:01.892Z</time>
      </trkpt>
      <trkpt lat="52.268085" lon="5.162719">
        <ele>3.118382</ele>
        <time>2026-08-29T15:29:03.907Z</time>
      </trkpt>
      <trkpt lat="52.268193" lon="5.162729">
        <ele>2.982019</ele>
        <time>2026-08-29T15:29:05.892Z</time>
      </trkpt>
      <trkpt lat="52.268297" lon="5.162735">
        <ele>2.850836</ele>
        <time>2026-08-29T15:29:07.907Z</time>
      </trkpt>
      <trkpt lat="52.268396" lon="5.162747">
        <ele>2.725694</ele>
        <time>2026-08-29T15:29:09.895Z</time>
      </trkpt>
      <trkpt lat="52.268490" lon="5.162756">
        <ele>2.606995</ele>
        <time>2026-08-29T15:29:11.892Z</time>
      </trkpt>
      <trkpt lat="52.268596" lon="5.162763">
        <ele>2.473263</ele>
        <time>2026-08-29T15:29:13.907Z</time>
      </trkpt>
      <trkpt lat="52.268701" lon="5.162773">
        <ele>2.340676</ele>
        <time>2026-08-29T15:29:15.892Z</time>
      </trkpt>
      <trkpt lat="52.268800" lon="5.162778">
        <ele>2.272956</ele>
        <time>2026-08-29T15:29:17.894Z</time>
      </trkpt>
      <trkpt lat="52.268900" lon="5.162785">
        <ele>2.296479</ele>
        <time>2026-08-29T15:29:19.896Z</time>
      </trkpt>
      <trkpt lat="52.269004" lon="5.162799">
        <ele>2.321004</ele>
        <time>2026-08-29T15:29:21.907Z</time>
      </trkpt>
      <trkpt lat="52.269101" lon="5.162812">
        <ele>2.343878</ele>
        <time>2026-08-29T15:29:23.893Z</time>
      </trkpt>
      <trkpt lat="52.269203" lon="5.162829">
        <ele>2.367974</ele>
        <time>2026-08-29T15:29:25.892Z</time>
      </trkpt>
      <trkpt lat="52.269301" lon="5.162840">
        <ele>2.391061</ele>
        <time>2026-08-29T15:29:27.892Z</time>
      </trkpt>
      <trkpt lat="52.269398" lon="5.162853">
        <ele>2.413934</ele>
        <time>2026-08-29T15:29:29.894Z</time>
      </trkpt>
      <trkpt lat="52.269495" lon="5.162861">
        <ele>2.436760</ele>
        <time>2026-08-29T15:29:31.892Z</time>
      </trkpt>
      <trkpt lat="52.269595" lon="5.162866">
        <ele>2.460273</ele>
        <time>2026-08-29T15:29:33.894Z</time>
      </trkpt>
      <trkpt lat="52.269700" lon="5.162874">
        <ele>2.484977</ele>
        <time>2026-08-29T15:29:35.892Z</time>
      </trkpt>
      <trkpt lat="52.269803" lon="5.162877">
        <ele>2.509188</ele>
        <time>2026-08-29T15:29:37.893Z</time>
      </trkpt>
      <trkpt lat="52.269909" lon="5.162881">
        <ele>2.534107</ele>
        <time>2026-08-29T15:29:39.894Z</time>
      </trkpt>
      <trkpt lat="52.270013" lon="5.162880">
        <ele>2.558550</ele>
        <time>2026-08-29T15:29:41.893Z</time>
      </trkpt>
      <trkpt lat="52.270115" lon="5.162875">
        <ele>2.582533</ele>
        <time>2026-08-29T15:29:43.907Z</time>
      </trkpt>
      <trkpt lat="52.270219" lon="5.162868">
        <ele>2.606996</ele>
        <time>2026-08-29T15:29:45.893Z</time>
      </trkpt>
      <trkpt lat="52.270325" lon="5.162863">
        <ele>2.631918</ele>
        <time>2026-08-29T15:29:47.908Z</time>
      </trkpt>
      <trkpt lat="52.270428" lon="5.162864">
        <ele>2.656126</ele>
        <time>2026-08-29T15:29:49.895Z</time>
      </trkpt>
      <trkpt lat="52.270525" lon="5.162884">
        <ele>2.679104</ele>
        <time>2026-08-29T15:29:51.892Z</time>
      </trkpt>
      <trkpt lat="52.270618" lon="5.162927">
        <ele>2.677996</ele>
        <time>2026-08-29T15:29:53.893Z</time>
      </trkpt>
      <trkpt lat="52.270689" lon="5.163029">
        <ele>2.665215</ele>
        <time>2026-08-29T15:29:55.893Z</time>
      </trkpt>
      <trkpt lat="52.270767" lon="5.163115">
        <ele>2.652494</ele>
        <time>2026-08-29T15:29:57.893Z</time>
      </trkpt>
      <trkpt lat="52.270859" lon="5.163089">
        <ele>2.639871</ele>
        <time>2026-08-29T15:29:59.894Z</time>
      </trkpt>
      <trkpt lat="52.270945" lon="5.163001">
        <ele>2.626152</ele>
        <time>2026-08-29T15:30:01.893Z</time>
      </trkpt>
      <trkpt lat="52.271044" lon="5.162983">
        <ele>2.612685</ele>
        <time>2026-08-29T15:30:03.892Z</time>
      </trkpt>
      <trkpt lat="52.271151" lon="5.162974">
        <ele>2.598199</ele>
        <time>2026-08-29T15:30:05.892Z</time>
      </trkpt>
      <trkpt lat="52.271255" lon="5.162968">
        <ele>2.584130</ele>
        <time>2026-08-29T15:30:07.892Z</time>
      </trkpt>
      <trkpt lat="52.271355" lon="5.162960">
        <ele>2.570594</ele>
        <time>2026-08-29T15:30:09.893Z</time>
      </trkpt>
      <trkpt lat="52.271456" lon="5.162966">
        <ele>2.556930</ele>
        <time>2026-08-29T15:30:11.908Z</time>
      </trkpt>
      <trkpt lat="52.271559" lon="5.162975">
        <ele>2.542984</ele>
        <time>2026-08-29T15:30:13.893Z</time>
      </trkpt>
      <trkpt lat="52.271667" lon="5.162978">
        <ele>2.528380</ele>
        <time>2026-08-29T15:30:15.895Z</time>
      </trkpt>
      <trkpt lat="52.271773" lon="5.162982">
        <ele>2.514045</ele>
        <time>2026-08-29T15:30:17.893Z</time>
      </trkpt>
      <trkpt lat="52.271872" lon="5.162983">
        <ele>2.500660</ele>
        <time>2026-08-29T15:30:19.893Z</time>
      </trkpt>
      <trkpt lat="52.271973" lon="5.162991">
        <ele>2.486989</ele>
        <time>2026-08-29T15:30:21.893Z</time>
      </trkpt>
      <trkpt lat="52.272073" lon="5.162994">
        <ele>2.473467</ele>
        <time>2026-08-29T15:30:23.894Z</time>
      </trkpt>
      <trkpt lat="52.272176" lon="5.162991">
        <ele>2.459539</ele>
        <time>2026-08-29T15:30:25.907Z</time>
      </trkpt>
      <trkpt lat="52.272281" lon="5.162998">
        <ele>2.445332</ele>
        <time>2026-08-29T15:30:27.893Z</time>
      </trkpt>
      <trkpt lat="52.272388" lon="5.163004">
        <ele>2.408108</ele>
        <time>2026-08-29T15:30:29.893Z</time>
      </trkpt>
      <trkpt lat="52.272492" lon="5.163008">
        <ele>2.368778</ele>
        <time>2026-08-29T15:30:31.894Z</time>
      </trkpt>
      <trkpt lat="52.272600" lon="5.163007">
        <ele>2.327946</ele>
        <time>2026-08-29T15:30:33.892Z</time>
      </trkpt>
      <trkpt lat="52.272706" lon="5.162994">
        <ele>2.287758</ele>
        <time>2026-08-29T15:30:35.894Z</time>
      </trkpt>
      <trkpt lat="52.272818" lon="5.162974">
        <ele>2.245162</ele>
        <time>2026-08-29T15:30:37.894Z</time>
      </trkpt>
      <trkpt lat="52.272928" lon="5.162975">
        <ele>2.203573</ele>
        <time>2026-08-29T15:30:39.893Z</time>
      </trkpt>
      <trkpt lat="52.273030" lon="5.162987">
        <ele>2.164910</ele>
        <time>2026-08-29T15:30:41.894Z</time>
      </trkpt>
      <trkpt lat="52.273121" lon="5.163012">
        <ele>2.130023</ele>
        <time>2026-08-29T15:30:43.910Z</time>
      </trkpt>
      <trkpt lat="52.273212" lon="5.163141">
        <ele>2.084479</ele>
        <time>2026-08-29T15:30:47.907Z</time>
      </trkpt>
      <trkpt lat="52.273316" lon="5.163204">
        <ele>2.042545</ele>
        <time>2026-08-29T15:30:50.894Z</time>
      </trkpt>
      <trkpt lat="52.273418" lon="5.163101">
        <ele>1.997215</ele>
        <time>2026-08-29T15:30:53.907Z</time>
      </trkpt>
      <trkpt lat="52.273513" lon="5.162954">
        <ele>1.947753</ele>
        <time>2026-08-29T15:30:56.893Z</time>
      </trkpt>
      <trkpt lat="52.273603" lon="5.162898">
        <ele>1.911344</ele>
        <time>2026-08-29T15:30:58.893Z</time>
      </trkpt>
      <trkpt lat="52.273700" lon="5.162856">
        <ele>1.873405</ele>
        <time>2026-08-29T15:31:00.893Z</time>
      </trkpt>
      <trkpt lat="52.273800" lon="5.162822">
        <ele>1.834789</ele>
        <time>2026-08-29T15:31:02.893Z</time>
      </trkpt>
      <trkpt lat="52.273896" lon="5.162790">
        <ele>1.797747</ele>
        <time>2026-08-29T15:31:04.908Z</time>
      </trkpt>
      <trkpt lat="52.273988" lon="5.162770">
        <ele>1.766617</ele>
        <time>2026-08-29T15:31:09.894Z</time>
      </trkpt>
      <trkpt lat="52.274079" lon="5.162753">
        <ele>1.893672</ele>
        <time>2026-08-29T15:31:13.893Z</time>
      </trkpt>
      <trkpt lat="52.274191" lon="5.162732">
        <ele>2.050056</ele>
        <time>2026-08-29T15:31:17.893Z</time>
      </trkpt>
      <trkpt lat="52.274284" lon="5.162707">
        <ele>2.180797</ele>
        <time>2026-08-29T15:31:20.893Z</time>
      </trkpt>
      <trkpt lat="52.274401" lon="5.162682">
        <ele>2.344478</ele>
        <time>2026-08-29T15:31:24.895Z</time>
      </trkpt>
      <trkpt lat="52.274492" lon="5.162657">
        <ele>2.472483</ele>
        <time>2026-08-29T15:31:27.894Z</time>
      </trkpt>
      <trkpt lat="52.274598" lon="5.162630">
        <ele>2.621299</ele>
        <time>2026-08-29T15:31:30.893Z</time>
      </trkpt>
      <trkpt lat="52.274701" lon="5.162601">
        <ele>2.766283</ele>
        <time>2026-08-29T15:31:33.894Z</time>
      </trkpt>
      <trkpt lat="52.274798" lon="5.162585">
        <ele>2.901523</ele>
        <time>2026-08-29T15:31:36.893Z</time>
      </trkpt>
      <trkpt lat="52.274905" lon="5.162526">
        <ele>3.058172</ele>
        <time>2026-08-29T15:31:40.895Z</time>
      </trkpt>
      <trkpt lat="52.274929" lon="5.162356">
        <ele>3.206255</ele>
        <time>2026-08-29T15:31:45.896Z</time>
      </trkpt>
      <trkpt lat="52.274945" lon="5.162202">
        <ele>3.338838</ele>
        <time>2026-08-29T15:31:49.908Z</time>
      </trkpt>
      <trkpt lat="52.274968" lon="5.162046">
        <ele>3.475037</ele>
        <time>2026-08-29T15:31:53.894Z</time>
      </trkpt>
      <trkpt lat="52.274990" lon="5.161870">
        <ele>3.627508</ele>
        <time>2026-08-29T15:31:57.909Z</time>
      </trkpt>
      <trkpt lat="52.275007" lon="5.161680">
        <ele>3.790490</ele>
        <time>2026-08-29T15:32:01.895Z</time>
      </trkpt>
      <trkpt lat="52.275024" lon="5.161490">
        <ele>3.953473</ele>
        <time>2026-08-29T15:32:05.907Z</time>
      </trkpt>
      <trkpt lat="52.275037" lon="5.161339">
        <ele>4.082901</ele>
        <time>2026-08-29T15:32:08.894Z</time>
      </trkpt>
      <trkpt lat="52.275057" lon="5.161190">
        <ele>4.212376</ele>
        <time>2026-08-29T15:32:11.894Z</time>
      </trkpt>
      <trkpt lat="52.275075" lon="5.161044">
        <ele>4.163333</ele>
        <time>2026-08-29T15:32:14.899Z</time>
      </trkpt>
      <trkpt lat="52.275089" lon="5.160893">
        <ele>4.009510</ele>
        <time>2026-08-29T15:32:17.899Z</time>
      </trkpt>
      <trkpt lat="52.275106" lon="5.160696">
        <ele>3.809128</ele>
        <time>2026-08-29T15:32:21.899Z</time>
      </trkpt>
      <trkpt lat="52.275111" lon="5.160541">
        <ele>3.652796</ele>
        <time>2026-08-29T15:32:24.901Z</time>
      </trkpt>
      <trkpt lat="52.275126" lon="5.160386">
        <ele>3.494740</ele>
        <time>2026-08-29T15:32:27.893Z</time>
      </trkpt>
      <trkpt lat="52.275145" lon="5.160226">
        <ele>3.330582</ele>
        <time>2026-08-29T15:32:30.899Z</time>
      </trkpt>
      <trkpt lat="52.275178" lon="5.160080">
        <ele>3.173818</ele>
        <time>2026-08-29T15:32:33.893Z</time>
      </trkpt>
      <trkpt lat="52.275207" lon="5.159938">
        <ele>3.023040</ele>
        <time>2026-08-29T15:32:36.893Z</time>
      </trkpt>
      <trkpt lat="52.275244" lon="5.159755">
        <ele>2.828922</ele>
        <time>2026-08-29T15:32:40.892Z</time>
      </trkpt>
      <trkpt lat="52.275331" lon="5.159642">
        <ele>2.645994</ele>
        <time>2026-08-29T15:32:44.893Z</time>
      </trkpt>
      <trkpt lat="52.275433" lon="5.159649">
        <ele>2.477944</ele>
        <time>2026-08-29T15:32:48.899Z</time>
      </trkpt>
      <trkpt lat="52.275497" lon="5.159790">
        <ele>2.301121</ele>
        <time>2026-08-29T15:32:52.899Z</time>
      </trkpt>
      <trkpt lat="52.275521" lon="5.159943">
        <ele>2.142037</ele>
        <time>2026-08-29T15:32:55.893Z</time>
      </trkpt>
      <trkpt lat="52.275551" lon="5.160088">
        <ele>1.987872</ele>
        <time>2026-08-29T15:32:58.899Z</time>
      </trkpt>
      <trkpt lat="52.275583" lon="5.160264">
        <ele>1.802946</ele>
        <time>2026-08-29T15:33:02.898Z</time>
      </trkpt>
      <trkpt lat="52.275621" lon="5.160450">
        <ele>1.605443</ele>
        <time>2026-08-29T15:33:06.893Z</time>
      </trkpt>
      <trkpt lat="52.275653" lon="5.160596">
        <ele>1.449244</ele>
        <time>2026-08-29T15:33:09.899Z</time>
      </trkpt>
      <trkpt lat="52.275693" lon="5.160772">
        <ele>1.252956</ele>
        <time>2026-08-29T15:33:13.894Z</time>
      </trkpt>
      <trkpt lat="52.275667" lon="5.160929">
        <ele>1.057867</ele>
        <time>2026-08-29T15:33:17.893Z</time>
      </trkpt>
      <trkpt lat="52.275681" lon="5.161099">
        <ele>0.852123</ele>
        <time>2026-08-29T15:33:21.900Z</time>
      </trkpt>
      <trkpt lat="52.275712" lon="5.161284">
        <ele>0.622054</ele>
        <time>2026-08-29T15:33:25.899Z</time>
      </trkpt>
      <trkpt lat="52.275741" lon="5.161427">
        <ele>0.441358</ele>
        <time>2026-08-29T15:33:28.893Z</time>
      </trkpt>
      <trkpt lat="52.275777" lon="5.161568">
        <ele>0.258103</ele>
        <time>2026-08-29T15:33:31.892Z</time>
      </trkpt>
      <trkpt lat="52.275804" lon="5.161734">
        <ele>0.052080</ele>
        <time>2026-08-29T15:33:34.899Z</time>
      </trkpt>
      <trkpt lat="52.275821" lon="5.161879">
        <ele>-0.125003</ele>
        <time>2026-08-29T15:33:37.893Z</time>
      </trkpt>
      <trkpt lat="52.275847" lon="5.162033">
        <ele>-0.316620</ele>
        <time>2026-08-29T15:33:47.900Z</time>
      </trkpt>
      <trkpt lat="52.275808" lon="5.162192">
        <ele>-0.522085</ele>
        <time>2026-08-29T15:33:53.891Z</time>
      </trkpt>
      <trkpt lat="52.275742" lon="5.162075">
        <ele>-0.712960</ele>
        <time>2026-08-29T15:33:59.899Z</time>
      </trkpt>
      <trkpt lat="52.275763" lon="5.161872">
        <ele>-0.959902</ele>
        <time>2026-08-29T15:35:24.896Z</time>
      </trkpt>
      <trkpt lat="52.275828" lon="5.161998">
        <ele>-1.157579</ele>
        <time>2026-08-29T15:35:30.894Z</time>
      </trkpt>
      <trkpt lat="52.275856" lon="5.162142">
        <ele>-1.338811</ele>
        <time>2026-08-29T15:35:34.893Z</time>
      </trkpt>
      <trkpt lat="52.275883" lon="5.162288">
        <ele>-1.521753</ele>
        <time>2026-08-29T15:35:38.909Z</time>
      </trkpt>
      <trkpt lat="52.275907" lon="5.162454">
        <ele>-1.726343</ele>
        <time>2026-08-29T15:35:43.893Z</time>
      </trkpt>
      <trkpt lat="52.275972" lon="5.162572">
        <ele>-1.916785</ele>
        <time>2026-08-29T15:35:48.893Z</time>
      </trkpt>
      <trkpt lat="52.276072" lon="5.162611">
        <ele>-2.118320</ele>
        <time>2026-08-29T15:35:52.893Z</time>
      </trkpt>
      <trkpt lat="52.276178" lon="5.162602">
        <ele>-2.222575</ele>
        <time>2026-08-29T15:35:55.893Z</time>
      </trkpt>
      <trkpt lat="52.276283" lon="5.162601">
        <ele>-2.210998</ele>
        <time>2026-08-29T15:35:58.893Z</time>
      </trkpt>
      <trkpt lat="52.276385" lon="5.162596">
        <ele>-2.199747</ele>
        <time>2026-08-29T15:36:01.893Z</time>
      </trkpt>
      <trkpt lat="52.276491" lon="5.162608">
        <ele>-2.188032</ele>
        <time>2026-08-29T15:36:04.892Z</time>
      </trkpt>
      <trkpt lat="52.276608" lon="5.162647">
        <ele>-2.174867</ele>
        <time>2026-08-29T15:36:07.895Z</time>
      </trkpt>
      <trkpt lat="52.276737" lon="5.162662">
        <ele>-2.160608</ele>
        <time>2026-08-29T15:36:10.894Z</time>
      </trkpt>
      <trkpt lat="52.276860" lon="5.162666">
        <ele>-2.147044</ele>
        <time>2026-08-29T15:36:13.906Z</time>
      </trkpt>
      <trkpt lat="52.276967" lon="5.162699">
        <ele>-2.135039</ele>
        <time>2026-08-29T15:36:16.906Z</time>
      </trkpt>
      <trkpt lat="52.277057" lon="5.162789">
        <ele>-2.123406</ele>
        <time>2026-08-29T15:36:20.906Z</time>
      </trkpt>
      <trkpt lat="52.277086" lon="5.162943">
        <ele>-2.112537</ele>
        <time>2026-08-29T15:36:23.906Z</time>
      </trkpt>
      <trkpt lat="52.277180" lon="5.163035">
        <ele>-2.100457</ele>
        <time>2026-08-29T15:36:26.893Z</time>
      </trkpt>
      <trkpt lat="52.277298" lon="5.162983">
        <ele>-2.086982</ele>
        <time>2026-08-29T15:36:29.899Z</time>
      </trkpt>
      <trkpt lat="52.277389" lon="5.162835">
        <ele>-2.072828</ele>
        <time>2026-08-29T15:36:32.899Z</time>
      </trkpt>
      <trkpt lat="52.277521" lon="5.162837">
        <ele>-2.058274</ele>
        <time>2026-08-29T15:36:35.899Z</time>
      </trkpt>
      <trkpt lat="52.277649" lon="5.162865">
        <ele>-2.044036</ele>
        <time>2026-08-29T15:36:38.891Z</time>
      </trkpt>
      <trkpt lat="52.277776" lon="5.162893">
        <ele>-2.029907</ele>
        <time>2026-08-29T15:36:41.892Z</time>
      </trkpt>
      <trkpt lat="52.277902" lon="5.162916">
        <ele>-2.037368</ele>
        <time>2026-08-29T15:36:44.898Z</time>
      </trkpt>
      <trkpt lat="52.278020" lon="5.162942">
        <ele>-2.044536</ele>
        <time>2026-08-29T15:36:47.898Z</time>
      </trkpt>
      <trkpt lat="52.278147" lon="5.162963">
        <ele>-2.052221</ele>
        <time>2026-08-29T15:36:50.899Z</time>
      </trkpt>
      <trkpt lat="52.278245" lon="5.162977">
        <ele>-2.058143</ele>
        <time>2026-08-29T15:36:52.899Z</time>
      </trkpt>
      <trkpt lat="52.278339" lon="5.162998">
        <ele>-2.063855</ele>
        <time>2026-08-29T15:36:54.898Z</time>
      </trkpt>
      <trkpt lat="52.278436" lon="5.163009">
        <ele>-2.069708</ele>
        <time>2026-08-29T15:36:56.899Z</time>
      </trkpt>
      <trkpt lat="52.278535" lon="5.163029">
        <ele>-2.075713</ele>
        <time>2026-08-29T15:36:58.900Z</time>
      </trkpt>
      <trkpt lat="52.278630" lon="5.163045">
        <ele>-2.081463</ele>
        <time>2026-08-29T15:37:00.896Z</time>
      </trkpt>
      <trkpt lat="52.278729" lon="5.163074">
        <ele>-2.087518</ele>
        <time>2026-08-29T15:37:02.901Z</time>
      </trkpt>
      <trkpt lat="52.278829" lon="5.163057">
        <ele>-2.093570</ele>
        <time>2026-08-29T15:37:04.906Z</time>
      </trkpt>
      <trkpt lat="52.278937" lon="5.163038">
        <ele>-2.100110</ele>
        <time>2026-08-29T15:37:06.892Z</time>
      </trkpt>
      <trkpt lat="52.279037" lon="5.163020">
        <ele>-2.106166</ele>
        <time>2026-08-29T15:37:08.893Z</time>
      </trkpt>
      <trkpt lat="52.279132" lon="5.162989">
        <ele>-2.111998</ele>
        <time>2026-08-29T15:37:10.898Z</time>
      </trkpt>
      <trkpt lat="52.279224" lon="5.162964">
        <ele>-2.117613</ele>
        <time>2026-08-29T15:37:12.892Z</time>
      </trkpt>
      <trkpt lat="52.279313" lon="5.162934">
        <ele>-2.123084</ele>
        <time>2026-08-29T15:37:14.904Z</time>
      </trkpt>
      <trkpt lat="52.279407" lon="5.162895">
        <ele>-2.128922</ele>
        <time>2026-08-29T15:37:16.898Z</time>
      </trkpt>
      <trkpt lat="52.279529" lon="5.162834">
        <ele>-2.136603</ele>
        <time>2026-08-29T15:37:19.898Z</time>
      </trkpt>
      <trkpt lat="52.279646" lon="5.162804">
        <ele>-2.105332</ele>
        <time>2026-08-29T15:37:22.898Z</time>
      </trkpt>
      <trkpt lat="52.279750" lon="5.162770">
        <ele>-2.068361</ele>
        <time>2026-08-29T15:37:25.898Z</time>
      </trkpt>
      <trkpt lat="52.279859" lon="5.162734">
        <ele>-2.029596</ele>
        <time>2026-08-29T15:37:28.898Z</time>
      </trkpt>
      <trkpt lat="52.279958" lon="5.162621">
        <ele>-1.987504</ele>
        <time>2026-08-29T15:37:31.899Z</time>
      </trkpt>
      <trkpt lat="52.280053" lon="5.162475">
        <ele>-1.942049</ele>
        <time>2026-08-29T15:37:34.894Z</time>
      </trkpt>
      <trkpt lat="52.280156" lon="5.162342">
        <ele>-1.896291</ele>
        <time>2026-08-29T15:37:37.906Z</time>
      </trkpt>
      <trkpt lat="52.280230" lon="5.162247">
        <ele>-1.863491</ele>
        <time>2026-08-29T15:37:39.906Z</time>
      </trkpt>
      <trkpt lat="52.280296" lon="5.162130">
        <ele>-1.829550</ele>
        <time>2026-08-29T15:37:41.893Z</time>
      </trkpt>
      <trkpt lat="52.280360" lon="5.162001">
        <ele>-1.794130</ele>
        <time>2026-08-29T15:37:43.906Z</time>
      </trkpt>
      <trkpt lat="52.280422" lon="5.161875">
        <ele>-1.759645</ele>
        <time>2026-08-29T15:37:45.893Z</time>
      </trkpt>
      <trkpt lat="52.280485" lon="5.161756">
        <ele>-1.726084</ele>
        <time>2026-08-29T15:37:47.893Z</time>
      </trkpt>
      <trkpt lat="52.280560" lon="5.161575">
        <ele>-1.679462</ele>
        <time>2026-08-29T15:37:50.898Z</time>
      </trkpt>
      <trkpt lat="52.280615" lon="5.161448">
        <ele>-1.646278</ele>
        <time>2026-08-29T15:37:52.898Z</time>
      </trkpt>
      <trkpt lat="52.280670" lon="5.161312">
        <ele>-1.611510</ele>
        <time>2026-08-29T15:37:54.898Z</time>
      </trkpt>
      <trkpt lat="52.280726" lon="5.161175">
        <ele>-1.576372</ele>
        <time>2026-08-29T15:37:56.893Z</time>
      </trkpt>
      <trkpt lat="52.280781" lon="5.161036">
        <ele>-1.541068</ele>
        <time>2026-08-29T15:37:58.896Z</time>
      </trkpt>
      <trkpt lat="52.280825" lon="5.160888">
        <ele>-1.514655</ele>
        <time>2026-08-29T15:38:00.898Z</time>
      </trkpt>
      <trkpt lat="52.280869" lon="5.160735">
        <ele>-1.539814</ele>
        <time>2026-08-29T15:38:02.898Z</time>
      </trkpt>
      <trkpt lat="52.280907" lon="5.160571">
        <ele>-1.565912</ele>
        <time>2026-08-29T15:38:04.899Z</time>
      </trkpt>
      <trkpt lat="52.280944" lon="5.160418">
        <ele>-1.590396</ele>
        <time>2026-08-29T15:38:06.899Z</time>
      </trkpt>
      <trkpt lat="52.280968" lon="5.160242">
        <ele>-1.617231</ele>
        <time>2026-08-29T15:38:08.898Z</time>
      </trkpt>
      <trkpt lat="52.280990" lon="5.160074">
        <ele>-1.642798</ele>
        <time>2026-08-29T15:38:10.898Z</time>
      </trkpt>
      <trkpt lat="52.281002" lon="5.159895">
        <ele>-1.669596</ele>
        <time>2026-08-29T15:38:12.898Z</time>
      </trkpt>
      <trkpt lat="52.281024" lon="5.159739">
        <ele>-1.693421</ele>
        <time>2026-08-29T15:38:14.893Z</time>
      </trkpt>
      <trkpt lat="52.281038" lon="5.159577">
        <ele>-1.717769</ele>
        <time>2026-08-29T15:38:16.899Z</time>
      </trkpt>
      <trkpt lat="52.281048" lon="5.159409">
        <ele>-1.742888</ele>
        <time>2026-08-29T15:38:18.898Z</time>
      </trkpt>
      <trkpt lat="52.281052" lon="5.159250">
        <ele>-1.766570</ele>
        <time>2026-08-29T15:38:20.898Z</time>
      </trkpt>
      <trkpt lat="52.281029" lon="5.159105">
        <ele>-1.788862</ele>
        <time>2026-08-29T15:38:22.898Z</time>
      </trkpt>
      <trkpt lat="52.281015" lon="5.158953">
        <ele>-1.811737</ele>
        <time>2026-08-29T15:38:24.894Z</time>
      </trkpt>
      <trkpt lat="52.280981" lon="5.158740">
        <ele>-1.844497</ele>
        <time>2026-08-29T15:38:27.898Z</time>
      </trkpt>
      <trkpt lat="52.280944" lon="5.158542">
        <ele>-1.875307</ele>
        <time>2026-08-29T15:38:30.899Z</time>
      </trkpt>
      <trkpt lat="52.280951" lon="5.158368">
        <ele>-1.901257</ele>
        <time>2026-08-29T15:38:33.898Z</time>
      </trkpt>
      <trkpt lat="52.281046" lon="5.158277">
        <ele>-1.928042</ele>
        <time>2026-08-29T15:38:36.898Z</time>
      </trkpt>
      <trkpt lat="52.281170" lon="5.158240">
        <ele>-1.951256</ele>
        <time>2026-08-29T15:38:39.898Z</time>
      </trkpt>
      <trkpt lat="52.281300" lon="5.158221">
        <ele>-1.959583</ele>
        <time>2026-08-29T15:38:42.899Z</time>
      </trkpt>
      <trkpt lat="52.281421" lon="5.158205">
        <ele>-1.967328</ele>
        <time>2026-08-29T15:38:45.898Z</time>
      </trkpt>
      <trkpt lat="52.281513" lon="5.158191">
        <ele>-1.973223</ele>
        <time>2026-08-29T15:38:47.898Z</time>
      </trkpt>
      <trkpt lat="52.281607" lon="5.158184">
        <ele>-1.979226</ele>
        <time>2026-08-29T15:38:49.893Z</time>
      </trkpt>
      <trkpt lat="52.281706" lon="5.158185">
        <ele>-1.985542</ele>
        <time>2026-08-29T15:38:51.898Z</time>
      </trkpt>
      <trkpt lat="52.281810" lon="5.158200">
        <ele>-1.992203</ele>
        <time>2026-08-29T15:38:53.909Z</time>
      </trkpt>
      <trkpt lat="52.281920" lon="5.158227">
        <ele>-1.999300</ele>
        <time>2026-08-29T15:38:55.893Z</time>
      </trkpt>
      <trkpt lat="52.282024" lon="5.158273">
        <ele>-2.006173</ele>
        <time>2026-08-29T15:38:57.909Z</time>
      </trkpt>
      <trkpt lat="52.282124" lon="5.158300">
        <ele>-2.012640</ele>
        <time>2026-08-29T15:38:59.898Z</time>
      </trkpt>
      <trkpt lat="52.282223" lon="5.158357">
        <ele>-2.019336</ele>
        <time>2026-08-29T15:39:01.902Z</time>
      </trkpt>
      <trkpt lat="52.282317" lon="5.158431">
        <ele>-2.025992</ele>
        <time>2026-08-29T15:39:03.894Z</time>
      </trkpt>
      <trkpt lat="52.282404" lon="5.158513">
        <ele>-2.032399</ele>
        <time>2026-08-29T15:39:05.898Z</time>
      </trkpt>
      <trkpt lat="52.282488" lon="5.158612">
        <ele>-2.039006</ele>
        <time>2026-08-29T15:39:07.903Z</time>
      </trkpt>
      <trkpt lat="52.282572" lon="5.158684">
        <ele>-2.045058</ele>
        <time>2026-08-29T15:39:09.914Z</time>
      </trkpt>
      <trkpt lat="52.282689" lon="5.158793">
        <ele>-2.053649</ele>
        <time>2026-08-29T15:39:12.899Z</time>
      </trkpt>
      <trkpt lat="52.282787" lon="5.158904">
        <ele>-2.061256</ele>
        <time>2026-08-29T15:39:15.898Z</time>
      </trkpt>
      <trkpt lat="52.282903" lon="5.158894">
        <ele>-2.070071</ele>
        <time>2026-08-29T15:39:18.898Z</time>
      </trkpt>
      <trkpt lat="52.283016" lon="5.158819">
        <ele>-2.079910</ele>
        <time>2026-08-29T15:39:21.898Z</time>
      </trkpt>
      <trkpt lat="52.283088" lon="5.158649">
        <ele>-2.090114</ele>
        <time>2026-08-29T15:39:24.902Z</time>
      </trkpt>
      <trkpt lat="52.283132" lon="5.158512">
        <ele>-2.097751</ele>
        <time>2026-08-29T15:39:26.900Z</time>
      </trkpt>
      <trkpt lat="52.283182" lon="5.158375">
        <ele>-2.105624</ele>
        <time>2026-08-29T15:39:28.901Z</time>
      </trkpt>
      <trkpt lat="52.283236" lon="5.158248">
        <ele>-2.113257</ele>
        <time>2026-08-29T15:39:30.916Z</time>
      </trkpt>
      <trkpt lat="52.283293" lon="5.158124">
        <ele>-2.120912</ele>
        <time>2026-08-29T15:39:32.899Z</time>
      </trkpt>
      <trkpt lat="52.283348" lon="5.157989">
        <ele>-2.128917</ele>
        <time>2026-08-29T15:39:34.898Z</time>
      </trkpt>
      <trkpt lat="52.283405" lon="5.157850">
        <ele>-2.137176</ele>
        <time>2026-08-29T15:39:36.898Z</time>
      </trkpt>
      <trkpt lat="52.283460" lon="5.157721">
        <ele>-2.144936</ele>
        <time>2026-08-29T15:39:38.898Z</time>
      </trkpt>
      <trkpt lat="52.283515" lon="5.157585">
        <ele>-2.152982</ele>
        <time>2026-08-29T15:39:40.892Z</time>
      </trkpt>
      <trkpt lat="52.283572" lon="5.157450">
        <ele>-2.161078</ele>
        <time>2026-08-29T15:39:42.898Z</time>
      </trkpt>
      <trkpt lat="52.283629" lon="5.157328">
        <ele>-2.168654</ele>
        <time>2026-08-29T15:39:44.901Z</time>
      </trkpt>
      <trkpt lat="52.283702" lon="5.157152">
        <ele>-2.179148</ele>
        <time>2026-08-29T15:39:47.914Z</time>
      </trkpt>
      <trkpt lat="52.283778" lon="5.156972">
        <ele>-2.189942</ele>
        <time>2026-08-29T15:39:50.905Z</time>
      </trkpt>
      <trkpt lat="52.283846" lon="5.156861">
        <ele>-2.197695</ele>
        <time>2026-08-29T15:39:52.902Z</time>
      </trkpt>
      <trkpt lat="52.283909" lon="5.156741">
        <ele>-2.205499</ele>
        <time>2026-08-29T15:39:54.898Z</time>
      </trkpt>
      <trkpt lat="52.283984" lon="5.156623">
        <ele>-2.205231</ele>
        <time>2026-08-29T15:39:56.893Z</time>
      </trkpt>
      <trkpt lat="52.284069" lon="5.156521">
        <ele>-2.200168</ele>
        <time>2026-08-29T15:39:58.894Z</time>
      </trkpt>
      <trkpt lat="52.284158" lon="5.156427">
        <ele>-2.195080</ele>
        <time>2026-08-29T15:40:00.898Z</time>
      </trkpt>
      <trkpt lat="52.284251" lon="5.156342">
        <ele>-2.189964</ele>
        <time>2026-08-29T15:40:02.899Z</time>
      </trkpt>
      <trkpt lat="52.284352" lon="5.156268">
        <ele>-2.184649</ele>
        <time>2026-08-29T15:40:04.899Z</time>
      </trkpt>
      <trkpt lat="52.284459" lon="5.156210">
        <ele>-2.179236</ele>
        <time>2026-08-29T15:40:06.899Z</time>
      </trkpt>
      <trkpt lat="52.284560" lon="5.156139">
        <ele>-2.173957</ele>
        <time>2026-08-29T15:40:08.899Z</time>
      </trkpt>
      <trkpt lat="52.284664" lon="5.156060">
        <ele>-2.168450</ele>
        <time>2026-08-29T15:40:10.914Z</time>
      </trkpt>
      <trkpt lat="52.284769" lon="5.155987">
        <ele>-2.162971</ele>
        <time>2026-08-29T15:40:12.902Z</time>
      </trkpt>
      <trkpt lat="52.284872" lon="5.155918">
        <ele>-2.157626</ele>
        <time>2026-08-29T15:40:14.900Z</time>
      </trkpt>
      <trkpt lat="52.284970" lon="5.155851">
        <ele>-2.152525</ele>
        <time>2026-08-29T15:40:16.900Z</time>
      </trkpt>
      <trkpt lat="52.285072" lon="5.155783">
        <ele>-2.147235</ele>
        <time>2026-08-29T15:40:18.895Z</time>
      </trkpt>
      <trkpt lat="52.285177" lon="5.155706">
        <ele>-2.141709</ele>
        <time>2026-08-29T15:40:20.905Z</time>
      </trkpt>
      <trkpt lat="52.285284" lon="5.155632">
        <ele>-2.136130</ele>
        <time>2026-08-29T15:40:22.900Z</time>
      </trkpt>
      <trkpt lat="52.285394" lon="5.155551">
        <ele>-2.130337</ele>
        <time>2026-08-29T15:40:24.897Z</time>
      </trkpt>
      <trkpt lat="52.285497" lon="5.155485">
        <ele>-2.125025</ele>
        <time>2026-08-29T15:40:26.902Z</time>
      </trkpt>
      <trkpt lat="52.285595" lon="5.155414">
        <ele>-2.162069</ele>
        <time>2026-08-29T15:40:28.900Z</time>
      </trkpt>
      <trkpt lat="52.285686" lon="5.155363">
        <ele>-2.245281</ele>
        <time>2026-08-29T15:40:30.900Z</time>
      </trkpt>
      <trkpt lat="52.285768" lon="5.155300">
        <ele>-2.323655</ele>
        <time>2026-08-29T15:40:32.900Z</time>
      </trkpt>
      <trkpt lat="52.285857" lon="5.155244">
        <ele>-2.406146</ele>
        <time>2026-08-29T15:40:34.899Z</time>
      </trkpt>
      <trkpt lat="52.285958" lon="5.155186">
        <ele>-2.498744</ele>
        <time>2026-08-29T15:40:36.900Z</time>
      </trkpt>
      <trkpt lat="52.286070" lon="5.155100">
        <ele>-2.605780</ele>
        <time>2026-08-29T15:40:38.900Z</time>
      </trkpt>
      <trkpt lat="52.286178" lon="5.155032">
        <ele>-2.705890</ele>
        <time>2026-08-29T15:40:40.899Z</time>
      </trkpt>
      <trkpt lat="52.286277" lon="5.154964">
        <ele>-2.798777</ele>
        <time>2026-08-29T15:40:42.904Z</time>
      </trkpt>
      <trkpt lat="52.286378" lon="5.154897">
        <ele>-2.893061</ele>
        <time>2026-08-29T15:40:44.902Z</time>
      </trkpt>
      <trkpt lat="52.286485" lon="5.154832">
        <ele>-2.991800</ele>
        <time>2026-08-29T15:40:46.902Z</time>
      </trkpt>
      <trkpt lat="52.286576" lon="5.154775">
        <ele>-3.076096</ele>
        <time>2026-08-29T15:40:48.899Z</time>
      </trkpt>
      <trkpt lat="52.286675" lon="5.154699">
        <ele>-3.170703</ele>
        <time>2026-08-29T15:40:50.902Z</time>
      </trkpt>
      <trkpt lat="52.286767" lon="5.154622">
        <ele>-3.260107</ele>
        <time>2026-08-29T15:40:52.900Z</time>
      </trkpt>
      <trkpt lat="52.286861" lon="5.154546">
        <ele>-3.350818</ele>
        <time>2026-08-29T15:40:54.905Z</time>
      </trkpt>
      <trkpt lat="52.286949" lon="5.154446">
        <ele>-3.443522</ele>
        <time>2026-08-29T15:40:56.899Z</time>
      </trkpt>
      <trkpt lat="52.287026" lon="5.154344">
        <ele>-3.529249</ele>
        <time>2026-08-29T15:40:58.902Z</time>
      </trkpt>
      <trkpt lat="52.287117" lon="5.154189">
        <ele>-3.642926</ele>
        <time>2026-08-29T15:41:01.901Z</time>
      </trkpt>
      <trkpt lat="52.287208" lon="5.154180">
        <ele>-3.592789</ele>
        <time>2026-08-29T15:41:03.899Z</time>
      </trkpt>
      <trkpt lat="52.287317" lon="5.154294">
        <ele>-3.375515</ele>
        <time>2026-08-29T15:41:06.903Z</time>
      </trkpt>
      <trkpt lat="52.287401" lon="5.154377">
        <ele>-3.210707</ele>
        <time>2026-08-29T15:41:08.896Z</time>
      </trkpt>
      <trkpt lat="52.287516" lon="5.154375">
        <ele>-3.017599</ele>
        <time>2026-08-29T15:41:11.900Z</time>
      </trkpt>
      <trkpt lat="52.287594" lon="5.154192">
        <ele>-2.788507</ele>
        <time>2026-08-29T15:41:14.901Z</time>
      </trkpt>
      <trkpt lat="52.287646" lon="5.154056">
        <ele>-2.623777</ele>
        <time>2026-08-29T15:41:16.901Z</time>
      </trkpt>
      <trkpt lat="52.287704" lon="5.153914">
        <ele>-2.448401</ele>
        <time>2026-08-29T15:41:18.895Z</time>
      </trkpt>
      <trkpt lat="52.287757" lon="5.153779">
        <ele>-2.283640</ele>
        <time>2026-08-29T15:41:20.899Z</time>
      </trkpt>
      <trkpt lat="52.287811" lon="5.153637">
        <ele>-2.111904</ele>
        <time>2026-08-29T15:41:22.898Z</time>
      </trkpt>
      <trkpt lat="52.287864" lon="5.153485">
        <ele>-1.932201</ele>
        <time>2026-08-29T15:41:24.897Z</time>
      </trkpt>
      <trkpt lat="52.287917" lon="5.153346">
        <ele>-1.763968</ele>
        <time>2026-08-29T15:41:26.899Z</time>
      </trkpt>
      <trkpt lat="52.287981" lon="5.153206">
        <ele>-1.584454</ele>
        <time>2026-08-29T15:41:28.897Z</time>
      </trkpt>
      <trkpt lat="52.288038" lon="5.153056">
        <ele>-1.403081</ele>
        <time>2026-08-29T15:41:30.902Z</time>
      </trkpt>
      <trkpt lat="52.288092" lon="5.152909">
        <ele>-1.226963</ele>
        <time>2026-08-29T15:41:32.900Z</time>
      </trkpt>
      <trkpt lat="52.288148" lon="5.152761">
        <ele>-1.048220</ele>
        <time>2026-08-29T15:41:34.900Z</time>
      </trkpt>
      <trkpt lat="52.288202" lon="5.152612">
        <ele>-0.870339</ele>
        <time>2026-08-29T15:41:36.903Z</time>
      </trkpt>
      <trkpt lat="52.288258" lon="5.152466">
        <ele>-0.693340</ele>
        <time>2026-08-29T15:41:38.902Z</time>
      </trkpt>
      <trkpt lat="52.288313" lon="5.152310">
        <ele>-0.659440</ele>
        <time>2026-08-29T15:41:40.902Z</time>
      </trkpt>
      <trkpt lat="52.288367" lon="5.152165">
        <ele>-0.661353</ele>
        <time>2026-08-29T15:41:42.902Z</time>
      </trkpt>
      <trkpt lat="52.288426" lon="5.152028">
        <ele>-0.663241</ele>
        <time>2026-08-29T15:41:44.896Z</time>
      </trkpt>
      <trkpt lat="52.288480" lon="5.151887">
        <ele>-0.665116</ele>
        <time>2026-08-29T15:41:46.898Z</time>
      </trkpt>
      <trkpt lat="52.288537" lon="5.151729">
        <ele>-0.667183</ele>
        <time>2026-08-29T15:41:48.896Z</time>
      </trkpt>
      <trkpt lat="52.288590" lon="5.151573">
        <ele>-0.669194</ele>
        <time>2026-08-29T15:41:50.897Z</time>
      </trkpt>
      <trkpt lat="52.288646" lon="5.151431">
        <ele>-0.671098</ele>
        <time>2026-08-29T15:41:52.897Z</time>
      </trkpt>
      <trkpt lat="52.288697" lon="5.151284">
        <ele>-0.673002</ele>
        <time>2026-08-29T15:41:54.906Z</time>
      </trkpt>
      <trkpt lat="52.288752" lon="5.151136">
        <ele>-0.674953</ele>
        <time>2026-08-29T15:41:56.906Z</time>
      </trkpt>
      <trkpt lat="52.288800" lon="5.150999">
        <ele>-0.676732</ele>
        <time>2026-08-29T15:41:58.906Z</time>
      </trkpt>
      <trkpt lat="52.288866" lon="5.150824">
        <ele>-0.679049</ele>
        <time>2026-08-29T15:42:01.896Z</time>
      </trkpt>
      <trkpt lat="52.288960" lon="5.150758">
        <ele>-0.680934</ele>
        <time>2026-08-29T15:42:05.899Z</time>
      </trkpt>
      <trkpt lat="52.289043" lon="5.150839">
        <ele>-0.682714</ele>
        <time>2026-08-29T15:42:08.895Z</time>
      </trkpt>
      <trkpt lat="52.289138" lon="5.150931">
        <ele>-0.684749</ele>
        <time>2026-08-29T15:42:11.906Z</time>
      </trkpt>
      <trkpt lat="52.289237" lon="5.151042">
        <ele>-0.686960</ele>
        <time>2026-08-29T15:42:14.906Z</time>
      </trkpt>
      <trkpt lat="52.289331" lon="5.151173">
        <ele>-0.689236</ele>
        <time>2026-08-29T15:42:17.900Z</time>
      </trkpt>
      <trkpt lat="52.289386" lon="5.151331">
        <ele>-0.707974</ele>
        <time>2026-08-29T15:42:20.898Z</time>
      </trkpt>
      <trkpt lat="52.289443" lon="5.151445">
        <ele>-0.789190</ele>
        <time>2026-08-29T15:42:24.899Z</time>
      </trkpt>
      <trkpt lat="52.289567" lon="5.151574">
        <ele>-0.921729</ele>
        <time>2026-08-29T15:42:52.901Z</time>
      </trkpt>
      <trkpt lat="52.289656" lon="5.151652">
        <ele>-1.012791</ele>
        <time>2026-08-29T15:42:55.895Z</time>
      </trkpt>
      <trkpt lat="52.289764" lon="5.151721">
        <ele>-1.117355</ele>
        <time>2026-08-29T15:42:58.899Z</time>
      </trkpt>
      <trkpt lat="52.289885" lon="5.151767">
        <ele>-1.229380</ele>
        <time>2026-08-29T15:43:01.900Z</time>
      </trkpt>
      <trkpt lat="52.289987" lon="5.151864">
        <ele>-1.335790</ele>
        <time>2026-08-29T15:43:04.899Z</time>
      </trkpt>
      <trkpt lat="52.290095" lon="5.151933">
        <ele>-1.440354</ele>
        <time>2026-08-29T15:43:07.895Z</time>
      </trkpt>
      <trkpt lat="52.290203" lon="5.151953">
        <ele>-1.538368</ele>
        <time>2026-08-29T15:43:10.900Z</time>
      </trkpt>
      <trkpt lat="52.290305" lon="5.151892">
        <ele>-1.636309</ele>
        <time>2026-08-29T15:43:13.899Z</time>
      </trkpt>
      <trkpt lat="52.290422" lon="5.151824">
        <ele>-1.748285</ele>
        <time>2026-08-29T15:43:16.900Z</time>
      </trkpt>
      <trkpt lat="52.290514" lon="5.151793">
        <ele>-1.832991</ele>
        <time>2026-08-29T15:43:18.900Z</time>
      </trkpt>
      <trkpt lat="52.290606" lon="5.151754">
        <ele>-1.918698</ele>
        <time>2026-08-29T15:43:20.898Z</time>
      </trkpt>
      <trkpt lat="52.290695" lon="5.151691">
        <ele>-2.006155</ele>
        <time>2026-08-29T15:43:22.899Z</time>
      </trkpt>
      <trkpt lat="52.290787" lon="5.151633">
        <ele>-2.095072</ele>
        <time>2026-08-29T15:43:24.896Z</time>
      </trkpt>
      <trkpt lat="52.290888" lon="5.151595">
        <ele>-2.188531</ele>
        <time>2026-08-29T15:43:26.899Z</time>
      </trkpt>
      <trkpt lat="52.290992" lon="5.151559">
        <ele>-2.284395</ele>
        <time>2026-08-29T15:43:28.895Z</time>
      </trkpt>
      <trkpt lat="52.291096" lon="5.151529">
        <ele>-2.329620</ele>
        <time>2026-08-29T15:43:30.894Z</time>
      </trkpt>
      <trkpt lat="52.291201" lon="5.151494">
        <ele>-2.353836</ele>
        <time>2026-08-29T15:43:32.899Z</time>
      </trkpt>
      <trkpt lat="52.291306" lon="5.151452">
        <ele>-2.378263</ele>
        <time>2026-08-29T15:43:34.900Z</time>
      </trkpt>
      <trkpt lat="52.291414" lon="5.151414">
        <ele>-2.403227</ele>
        <time>2026-08-29T15:43:36.899Z</time>
      </trkpt>
      <trkpt lat="52.291524" lon="5.151368">
        <ele>-2.428885</ele>
        <time>2026-08-29T15:43:38.896Z</time>
      </trkpt>
      <trkpt lat="52.291636" lon="5.151328">
        <ele>-2.454791</ele>
        <time>2026-08-29T15:43:40.900Z</time>
      </trkpt>
      <trkpt lat="52.291746" lon="5.151297">
        <ele>-2.480015</ele>
        <time>2026-08-29T15:43:42.900Z</time>
      </trkpt>
      <trkpt lat="52.291859" lon="5.151273">
        <ele>-2.505765</ele>
        <time>2026-08-29T15:43:44.898Z</time>
      </trkpt>
      <trkpt lat="52.291975" lon="5.151248">
        <ele>-2.532205</ele>
        <time>2026-08-29T15:43:46.898Z</time>
      </trkpt>
      <trkpt lat="52.292093" lon="5.151216">
        <ele>-2.559234</ele>
        <time>2026-08-29T15:43:48.899Z</time>
      </trkpt>
      <trkpt lat="52.292206" lon="5.151196">
        <ele>-2.584919</ele>
        <time>2026-08-29T15:43:50.899Z</time>
      </trkpt>
      <trkpt lat="52.292319" lon="5.151180">
        <ele>-2.610550</ele>
        <time>2026-08-29T15:43:52.899Z</time>
      </trkpt>
      <trkpt lat="52.292435" lon="5.151162">
        <ele>-2.636881</ele>
        <time>2026-08-29T15:43:54.898Z</time>
      </trkpt>
      <trkpt lat="52.292552" lon="5.151139">
        <ele>-2.663510</ele>
        <time>2026-08-29T15:43:56.898Z</time>
      </trkpt>
      <trkpt lat="52.292665" lon="5.151121">
        <ele>-2.689167</ele>
        <time>2026-08-29T15:43:58.900Z</time>
      </trkpt>
      <trkpt lat="52.292771" lon="5.151105">
        <ele>-2.713222</ele>
        <time>2026-08-29T15:44:00.899Z</time>
      </trkpt>
      <trkpt lat="52.292882" lon="5.151090">
        <ele>-2.693159</ele>
        <time>2026-08-29T15:44:02.898Z</time>
      </trkpt>
      <trkpt lat="52.292988" lon="5.151073">
        <ele>-2.660055</ele>
        <time>2026-08-29T15:44:04.899Z</time>
      </trkpt>
      <trkpt lat="52.293092" lon="5.151066">
        <ele>-2.627703</ele>
        <time>2026-08-29T15:44:06.898Z</time>
      </trkpt>
      <trkpt lat="52.293197" lon="5.151050">
        <ele>-2.594927</ele>
        <time>2026-08-29T15:44:08.900Z</time>
      </trkpt>
      <trkpt lat="52.293301" lon="5.151041">
        <ele>-2.562558</ele>
        <time>2026-08-29T15:44:10.898Z</time>
      </trkpt>
      <trkpt lat="52.293399" lon="5.151023">
        <ele>-2.531907</ele>
        <time>2026-08-29T15:44:12.899Z</time>
      </trkpt>
      <trkpt lat="52.293495" lon="5.151007">
        <ele>-2.501915</ele>
        <time>2026-08-29T15:44:14.897Z</time>
      </trkpt>
      <trkpt lat="52.293595" lon="5.150970">
        <ele>-2.470048</ele>
        <time>2026-08-29T15:44:16.900Z</time>
      </trkpt>
      <trkpt lat="52.293693" lon="5.150919">
        <ele>-2.438083</ele>
        <time>2026-08-29T15:44:18.899Z</time>
      </trkpt>
      <trkpt lat="52.293797" lon="5.150845">
        <ele>-2.402831</ele>
        <time>2026-08-29T15:44:20.898Z</time>
      </trkpt>
      <trkpt lat="52.293898" lon="5.150756">
        <ele>-2.367170</ele>
        <time>2026-08-29T15:44:22.895Z</time>
      </trkpt>
      <trkpt lat="52.293990" lon="5.150653">
        <ele>-2.332515</ele>
        <time>2026-08-29T15:44:24.898Z</time>
      </trkpt>
      <trkpt lat="52.294080" lon="5.150544">
        <ele>-2.297704</ele>
        <time>2026-08-29T15:44:26.899Z</time>
      </trkpt>
      <trkpt lat="52.294163" lon="5.150441">
        <ele>-2.265318</ele>
        <time>2026-08-29T15:44:28.899Z</time>
      </trkpt>
      <trkpt lat="52.294256" lon="5.150333">
        <ele>-2.229864</ele>
        <time>2026-08-29T15:44:30.902Z</time>
      </trkpt>
      <trkpt lat="52.294346" lon="5.150235">
        <ele>-2.196255</ele>
        <time>2026-08-29T15:44:32.895Z</time>
      </trkpt>
      <trkpt lat="52.294445" lon="5.150148">
        <ele>-2.161323</ele>
        <time>2026-08-29T15:44:34.900Z</time>
      </trkpt>
      <trkpt lat="52.294548" lon="5.150063">
        <ele>-2.190317</ele>
        <time>2026-08-29T15:44:36.898Z</time>
      </trkpt>
      <trkpt lat="52.294652" lon="5.149991">
        <ele>-2.220534</ele>
        <time>2026-08-29T15:44:38.900Z</time>
      </trkpt>
      <trkpt lat="52.294758" lon="5.149921">
        <ele>-2.251120</ele>
        <time>2026-08-29T15:44:40.900Z</time>
      </trkpt>
      <trkpt lat="52.294866" lon="5.149864">
        <ele>-2.281484</ele>
        <time>2026-08-29T15:44:42.902Z</time>
      </trkpt>
      <trkpt lat="52.294977" lon="5.149819">
        <ele>-2.312082</ele>
        <time>2026-08-29T15:44:44.915Z</time>
      </trkpt>
      <trkpt lat="52.295090" lon="5.149789">
        <ele>-2.342711</ele>
        <time>2026-08-29T15:44:46.901Z</time>
      </trkpt>
      <trkpt lat="52.295198" lon="5.149765">
        <ele>-2.371872</ele>
        <time>2026-08-29T15:44:48.900Z</time>
      </trkpt>
      <trkpt lat="52.295300" lon="5.149757">
        <ele>-2.399194</ele>
        <time>2026-08-29T15:44:50.898Z</time>
      </trkpt>
      <trkpt lat="52.295398" lon="5.149753">
        <ele>-2.425422</ele>
        <time>2026-08-29T15:44:52.899Z</time>
      </trkpt>
      <trkpt lat="52.295494" lon="5.149748">
        <ele>-2.451120</ele>
        <time>2026-08-29T15:44:54.914Z</time>
      </trkpt>
      <trkpt lat="52.295584" lon="5.149751">
        <ele>-2.475205</ele>
        <time>2026-08-29T15:44:56.898Z</time>
      </trkpt>
      <trkpt lat="52.295675" lon="5.149871">
        <ele>-2.506484</ele>
        <time>2026-08-29T15:44:59.898Z</time>
      </trkpt>
      <trkpt lat="52.295684" lon="5.150062">
        <ele>-2.537830</ele>
        <time>2026-08-29T15:45:02.899Z</time>
      </trkpt>
      <trkpt lat="52.295664" lon="5.150247">
        <ele>-2.568571</ele>
        <time>2026-08-29T15:45:05.898Z</time>
      </trkpt>
      <trkpt lat="52.295631" lon="5.150457">
        <ele>-2.604050</ele>
        <time>2026-08-29T15:45:08.900Z</time>
      </trkpt>
      <trkpt lat="52.295598" lon="5.150651">
        <ele>-2.636999</ele>
        <time>2026-08-29T15:45:11.898Z</time>
      </trkpt>
      <trkpt lat="52.295576" lon="5.150839">
        <ele>-2.595149</ele>
        <time>2026-08-29T15:45:14.898Z</time>
      </trkpt>
      <trkpt lat="52.295560" lon="5.151032">
        <ele>-2.539922</ele>
        <time>2026-08-29T15:45:17.900Z</time>
      </trkpt>
      <trkpt lat="52.295551" lon="5.151236">
        <ele>-2.481925</ele>
        <time>2026-08-29T15:45:20.898Z</time>
      </trkpt>
      <trkpt lat="52.295560" lon="5.151454">
        <ele>-2.419969</ele>
        <time>2026-08-29T15:45:23.898Z</time>
      </trkpt>
      <trkpt lat="52.295574" lon="5.151664">
        <ele>-2.360068</ele>
        <time>2026-08-29T15:45:26.900Z</time>
      </trkpt>
      <trkpt lat="52.295601" lon="5.151828">
        <ele>-2.311909</ele>
        <time>2026-08-29T15:45:29.898Z</time>
      </trkpt>
      <trkpt lat="52.295611" lon="5.151994">
        <ele>-2.264611</ele>
        <time>2026-08-29T15:45:33.898Z</time>
      </trkpt>
      <trkpt lat="52.295646" lon="5.152159">
        <ele>-2.215089</ele>
        <time>2026-08-29T15:45:38.899Z</time>
      </trkpt>
      <trkpt lat="52.295670" lon="5.152323">
        <ele>-2.167273</ele>
        <time>2026-08-29T15:45:43.892Z</time>
      </trkpt>
      <trkpt lat="52.295711" lon="5.152480">
        <ele>-2.118865</ele>
        <time>2026-08-29T15:45:48.898Z</time>
      </trkpt>
      <trkpt lat="52.295756" lon="5.152626">
        <ele>-2.072505</ele>
        <time>2026-08-29T15:45:53.898Z</time>
      </trkpt>
      <trkpt lat="52.295893" lon="5.152939">
        <ele>-1.963364</ele>
        <time>2026-08-29T15:46:30.894Z</time>
      </trkpt>
      <trkpt lat="52.295955" lon="5.153060">
        <ele>-1.918603</ele>
        <time>2026-08-29T15:46:33.893Z</time>
      </trkpt>
      <trkpt lat="52.296020" lon="5.153186">
        <ele>-1.871862</ele>
        <time>2026-08-29T15:46:36.898Z</time>
      </trkpt>
      <trkpt lat="52.296085" lon="5.153317">
        <ele>-1.824028</ele>
        <time>2026-08-29T15:46:39.901Z</time>
      </trkpt>
      <trkpt lat="52.296148" lon="5.153442">
        <ele>-1.806358</ele>
        <time>2026-08-29T15:46:42.898Z</time>
      </trkpt>
      <trkpt lat="52.296203" lon="5.153561">
        <ele>-1.804557</ele>
        <time>2026-08-29T15:46:45.898Z</time>
      </trkpt>
      <trkpt lat="52.296267" lon="5.153684">
        <ele>-1.802607</ele>
        <time>2026-08-29T15:46:48.900Z</time>
      </trkpt>
      <trkpt lat="52.296336" lon="5.153804">
        <ele>-1.800619</ele>
        <time>2026-08-29T15:46:51.898Z</time>
      </trkpt>
      <trkpt lat="52.296407" lon="5.153912">
        <ele>-1.798705</ele>
        <time>2026-08-29T15:46:54.898Z</time>
      </trkpt>
      <trkpt lat="52.296495" lon="5.154009">
        <ele>-1.796610</ele>
        <time>2026-08-29T15:46:57.902Z</time>
      </trkpt>
      <trkpt lat="52.296584" lon="5.154087">
        <ele>-1.794616</ele>
        <time>2026-08-29T15:47:00.899Z</time>
      </trkpt>
      <trkpt lat="52.296687" lon="5.154152">
        <ele>-1.792437</ele>
        <time>2026-08-29T15:47:03.904Z</time>
      </trkpt>
      <trkpt lat="52.296790" lon="5.154202">
        <ele>-1.790316</ele>
        <time>2026-08-29T15:47:06.898Z</time>
      </trkpt>
      <trkpt lat="52.296896" lon="5.154228">
        <ele>-1.788200</ele>
        <time>2026-08-29T15:47:09.899Z</time>
      </trkpt>
      <trkpt lat="52.297007" lon="5.154238">
        <ele>-1.786005</ele>
        <time>2026-08-29T15:47:12.898Z</time>
      </trkpt>
      <trkpt lat="52.297113" lon="5.154240">
        <ele>-1.783913</ele>
        <time>2026-08-29T15:47:15.898Z</time>
      </trkpt>
      <trkpt lat="52.297222" lon="5.154233">
        <ele>-1.781759</ele>
        <time>2026-08-29T15:47:18.898Z</time>
      </trkpt>
      <trkpt lat="52.297342" lon="5.154232">
        <ele>-1.779390</ele>
        <time>2026-08-29T15:47:21.899Z</time>
      </trkpt>
      <trkpt lat="52.297464" lon="5.154223">
        <ele>-1.776979</ele>
        <time>2026-08-29T15:47:24.897Z</time>
      </trkpt>
      <trkpt lat="52.297589" lon="5.154223">
        <ele>-1.774512</ele>
        <time>2026-08-29T15:47:27.898Z</time>
      </trkpt>
      <trkpt lat="52.297712" lon="5.154248">
        <ele>-1.771918</ele>
        <time>2026-08-29T15:47:30.898Z</time>
      </trkpt>
      <trkpt lat="52.297830" lon="5.154301">
        <ele>-1.761262</ele>
        <time>2026-08-29T15:47:33.900Z</time>
      </trkpt>
      <trkpt lat="52.297955" lon="5.154361">
        <ele>-1.749918</ele>
        <time>2026-08-29T15:47:36.896Z</time>
      </trkpt>
      <trkpt lat="52.298075" lon="5.154418">
        <ele>-1.739036</ele>
        <time>2026-08-29T15:47:39.901Z</time>
      </trkpt>
      <trkpt lat="52.298196" lon="5.154479">
        <ele>-1.728010</ele>
        <time>2026-08-29T15:47:42.899Z</time>
      </trkpt>
      <trkpt lat="52.298309" lon="5.154516">
        <ele>-1.717975</ele>
        <time>2026-08-29T15:47:45.899Z</time>
      </trkpt>
      <trkpt lat="52.298405" lon="5.154502">
        <ele>-1.709582</ele>
        <time>2026-08-29T15:47:48.899Z</time>
      </trkpt>
      <trkpt lat="52.298469" lon="5.154616">
        <ele>-1.701341</ele>
        <time>2026-08-29T15:47:53.901Z</time>
      </trkpt>
      <trkpt lat="52.298481" lon="5.154762">
        <ele>-1.693496</ele>
        <time>2026-08-29T15:48:00.900Z</time>
      </trkpt>
      <trkpt lat="52.298478" lon="5.154613">
        <ele>-1.685557</ele>
        <time>2026-08-29T15:48:07.899Z</time>
      </trkpt>
      <trkpt lat="52.298497" lon="5.154381">
        <ele>-1.673092</ele>
        <time>2026-08-29T15:50:14.895Z</time>
      </trkpt>
      <trkpt lat="52.298577" lon="5.154255">
        <ele>-1.663420</ele>
        <time>2026-08-29T15:50:19.898Z</time>
      </trkpt>
      <trkpt lat="52.298634" lon="5.154135">
        <ele>-1.655328</ele>
        <time>2026-08-29T15:50:26.902Z</time>
      </trkpt>
      <trkpt lat="52.298727" lon="5.154063">
        <ele>-1.646368</ele>
        <time>2026-08-29T15:50:37.894Z</time>
      </trkpt>
      <trkpt lat="52.298799" lon="5.154163">
        <ele>-1.638142</ele>
        <time>2026-08-29T15:50:41.902Z</time>
      </trkpt>
      <trkpt lat="52.298865" lon="5.154284">
        <ele>-1.629508</ele>
        <time>2026-08-29T15:50:44.901Z</time>
      </trkpt>
      <trkpt lat="52.298935" lon="5.154417">
        <ele>-1.620163</ele>
        <time>2026-08-29T15:50:47.901Z</time>
      </trkpt>
      <trkpt lat="52.299010" lon="5.154546">
        <ele>-1.657759</ele>
        <time>2026-08-29T15:50:50.894Z</time>
      </trkpt>
      <trkpt lat="52.299094" lon="5.154677">
        <ele>-1.746810</ele>
        <time>2026-08-29T15:50:53.895Z</time>
      </trkpt>
      <trkpt lat="52.299186" lon="5.154776">
        <ele>-1.831301</ele>
        <time>2026-08-29T15:50:56.899Z</time>
      </trkpt>
      <trkpt lat="52.299264" lon="5.154866">
        <ele>-1.904538</ele>
        <time>2026-08-29T15:50:59.900Z</time>
      </trkpt>
      <trkpt lat="52.299320" lon="5.155017">
        <ele>-1.987389</ele>
        <time>2026-08-29T15:51:03.893Z</time>
      </trkpt>
      <trkpt lat="52.299283" lon="5.155165">
        <ele>-2.062401</ele>
        <time>2026-08-29T15:51:06.893Z</time>
      </trkpt>
      <trkpt lat="52.299219" lon="5.155334">
        <ele>-2.155659</ele>
        <time>2026-08-29T15:51:09.900Z</time>
      </trkpt>
      <trkpt lat="52.299145" lon="5.155512">
        <ele>-2.256638</ele>
        <time>2026-08-29T15:51:12.914Z</time>
      </trkpt>
      <trkpt lat="52.299077" lon="5.155677">
        <ele>-2.349986</ele>
        <time>2026-08-29T15:51:15.898Z</time>
      </trkpt>
      <trkpt lat="52.299018" lon="5.155855">
        <ele>-2.444973</ele>
        <time>2026-08-29T15:51:18.900Z</time>
      </trkpt>
      <trkpt lat="52.298950" lon="5.156046">
        <ele>-2.548661</ele>
        <time>2026-08-29T15:51:21.895Z</time>
      </trkpt>
      <trkpt lat="52.298880" lon="5.156232">
        <ele>-2.651125</ele>
        <time>2026-08-29T15:51:24.900Z</time>
      </trkpt>
      <trkpt lat="52.298811" lon="5.156407">
        <ele>-2.748812</ele>
        <time>2026-08-29T15:51:27.900Z</time>
      </trkpt>
      <trkpt lat="52.298737" lon="5.156569">
        <ele>-2.843678</ele>
        <time>2026-08-29T15:51:30.899Z</time>
      </trkpt>
      <trkpt lat="52.298653" lon="5.156723">
        <ele>-2.940492</ele>
        <time>2026-08-29T15:51:33.899Z</time>
      </trkpt>
      <trkpt lat="52.298589" lon="5.156907">
        <ele>-2.896618</ele>
        <time>2026-08-29T15:51:36.899Z</time>
      </trkpt>
      <trkpt lat="52.298530" lon="5.157085">
        <ele>-2.685659</ele>
        <time>2026-08-29T15:51:39.899Z</time>
      </trkpt>
      <trkpt lat="52.298451" lon="5.157254">
        <ele>-2.464018</ele>
        <time>2026-08-29T15:51:42.900Z</time>
      </trkpt>
      <trkpt lat="52.298379" lon="5.157430">
        <ele>-2.243386</ele>
        <time>2026-08-29T15:51:45.900Z</time>
      </trkpt>
      <trkpt lat="52.298302" lon="5.157603">
        <ele>-2.020440</ele>
        <time>2026-08-29T15:51:48.897Z</time>
      </trkpt>
      <trkpt lat="52.298218" lon="5.157757">
        <ele>-1.805426</ele>
        <time>2026-08-29T15:51:51.894Z</time>
      </trkpt>
      <trkpt lat="52.298139" lon="5.157871">
        <ele>-1.625908</ele>
        <time>2026-08-29T15:51:54.898Z</time>
      </trkpt>
      <trkpt lat="52.298049" lon="5.157994">
        <ele>-1.426060</ele>
        <time>2026-08-29T15:51:58.898Z</time>
      </trkpt>
      <trkpt lat="52.298043" lon="5.158174">
        <ele>-1.238228</ele>
        <time>2026-08-29T15:52:02.902Z</time>
      </trkpt>
      <trkpt lat="52.298135" lon="5.158247">
        <ele>-1.063998</ele>
        <time>2026-08-29T15:52:06.899Z</time>
      </trkpt>
      <trkpt lat="52.298228" lon="5.158295">
        <ele>-0.897839</ele>
        <time>2026-08-29T15:52:10.899Z</time>
      </trkpt>
      <trkpt lat="52.298326" lon="5.158387">
        <ele>-0.705306</ele>
        <time>2026-08-29T15:52:14.895Z</time>
      </trkpt>
      <trkpt lat="52.298427" lon="5.158462">
        <ele>-0.516310</ele>
        <time>2026-08-29T15:52:17.899Z</time>
      </trkpt>
      <trkpt lat="52.298543" lon="5.158541">
        <ele>-0.302213</ele>
        <time>2026-08-29T15:52:20.902Z</time>
      </trkpt>
      <trkpt lat="52.298630" lon="5.158587">
        <ele>-0.146426</ele>
        <time>2026-08-29T15:52:22.898Z</time>
      </trkpt>
      <trkpt lat="52.298721" lon="5.158619">
        <ele>0.012164</ele>
        <time>2026-08-29T15:52:24.915Z</time>
      </trkpt>
      <trkpt lat="52.298846" lon="5.158676">
        <ele>0.042790</ele>
        <time>2026-08-29T15:52:27.898Z</time>
      </trkpt>
      <trkpt lat="52.298964" lon="5.158748">
        <ele>0.008281</ele>
        <time>2026-08-29T15:52:30.892Z</time>
      </trkpt>
      <trkpt lat="52.299036" lon="5.158859">
        <ele>-0.018832</ele>
        <time>2026-08-29T15:52:33.899Z</time>
      </trkpt>
      <trkpt lat="52.299080" lon="5.159023">
        <ele>-0.048840</ele>
        <time>2026-08-29T15:52:36.897Z</time>
      </trkpt>
      <trkpt lat="52.299086" lon="5.159252">
        <ele>-0.087246</ele>
        <time>2026-08-29T15:52:39.898Z</time>
      </trkpt>
      <trkpt lat="52.299081" lon="5.159424">
        <ele>-0.116099</ele>
        <time>2026-08-29T15:52:41.898Z</time>
      </trkpt>
      <trkpt lat="52.299077" lon="5.159600">
        <ele>-0.145609</ele>
        <time>2026-08-29T15:52:43.898Z</time>
      </trkpt>
      <trkpt lat="52.299075" lon="5.159774">
        <ele>-0.174770</ele>
        <time>2026-08-29T15:52:45.901Z</time>
      </trkpt>
      <trkpt lat="52.299073" lon="5.159935">
        <ele>-0.201752</ele>
        <time>2026-08-29T15:52:47.898Z</time>
      </trkpt>
      <trkpt lat="52.299067" lon="5.160095">
        <ele>-0.228612</ele>
        <time>2026-08-29T15:52:49.899Z</time>
      </trkpt>
      <trkpt lat="52.299066" lon="5.160244">
        <ele>-0.253580</ele>
        <time>2026-08-29T15:52:51.891Z</time>
      </trkpt>
      <trkpt lat="52.299061" lon="5.160454">
        <ele>-0.288794</ele>
        <time>2026-08-29T15:52:54.896Z</time>
      </trkpt>
      <trkpt lat="52.299061" lon="5.160661">
        <ele>-0.323479</ele>
        <time>2026-08-29T15:52:57.906Z</time>
      </trkpt>
      <trkpt lat="52.299085" lon="5.160864">
        <ele>-0.358123</ele>
        <time>2026-08-29T15:53:00.895Z</time>
      </trkpt>
      <trkpt lat="52.299146" lon="5.161049">
        <ele>-0.393341</ele>
        <time>2026-08-29T15:53:03.899Z</time>
      </trkpt>
      <trkpt lat="52.299241" lon="5.161215">
        <ele>-0.419501</ele>
        <time>2026-08-29T15:53:06.893Z</time>
      </trkpt>
      <trkpt lat="52.299349" lon="5.161333">
        <ele>-0.400586</ele>
        <time>2026-08-29T15:53:09.896Z</time>
      </trkpt>
      <trkpt lat="52.299431" lon="5.161424">
        <ele>-0.386155</ele>
        <time>2026-08-29T15:53:11.893Z</time>
      </trkpt>
      <trkpt lat="52.299508" lon="5.161502">
        <ele>-0.372966</ele>
        <time>2026-08-29T15:53:13.894Z</time>
      </trkpt>
      <trkpt lat="52.299584" lon="5.161587">
        <ele>-0.359558</ele>
        <time>2026-08-29T15:53:15.906Z</time>
      </trkpt>
      <trkpt lat="52.299663" lon="5.161674">
        <ele>-0.345688</ele>
        <time>2026-08-29T15:53:17.894Z</time>
      </trkpt>
      <trkpt lat="52.299773" lon="5.161796">
        <ele>-0.326333</ele>
        <time>2026-08-29T15:53:20.893Z</time>
      </trkpt>
      <trkpt lat="52.299879" lon="5.161929">
        <ele>-0.306877</ele>
        <time>2026-08-29T15:53:23.894Z</time>
      </trkpt>
      <trkpt lat="52.299986" lon="5.162033">
        <ele>-0.288751</ele>
        <time>2026-08-29T15:53:26.894Z</time>
      </trkpt>
      <trkpt lat="52.300095" lon="5.162142">
        <ele>-0.270146</ele>
        <time>2026-08-29T15:53:29.895Z</time>
      </trkpt>
      <trkpt lat="52.300192" lon="5.162250">
        <ele>-0.253057</ele>
        <time>2026-08-29T15:53:32.896Z</time>
      </trkpt>
      <trkpt lat="52.300271" lon="5.162414">
        <ele>-0.234466</ele>
        <time>2026-08-29T15:53:35.906Z</time>
      </trkpt>
      <trkpt lat="52.300293" lon="5.162626">
        <ele>-0.215318</ele>
        <time>2026-08-29T15:53:38.906Z</time>
      </trkpt>
      <trkpt lat="52.300277" lon="5.162772">
        <ele>-0.202110</ele>
        <time>2026-08-29T15:53:40.906Z</time>
      </trkpt>
      <trkpt lat="52.300228" lon="5.162966">
        <ele>-0.183418</ele>
        <time>2026-08-29T15:53:43.900Z</time>
      </trkpt>
      <trkpt lat="52.300185" lon="5.163131">
        <ele>-0.167446</ele>
        <time>2026-08-29T15:53:46.898Z</time>
      </trkpt>
      <trkpt lat="52.300154" lon="5.163280">
        <ele>-0.215199</ele>
        <time>2026-08-29T15:53:49.898Z</time>
      </trkpt>
      <trkpt lat="52.300116" lon="5.163420">
        <ele>-0.303151</ele>
        <time>2026-08-29T15:53:52.898Z</time>
      </trkpt>
      <trkpt lat="52.300084" lon="5.163629">
        <ele>-0.426865</ele>
        <time>2026-08-29T15:53:55.899Z</time>
      </trkpt>
      <trkpt lat="52.300055" lon="5.163816">
        <ele>-0.537641</ele>
        <time>2026-08-29T15:53:58.899Z</time>
      </trkpt>
      <trkpt lat="52.299957" lon="5.163883">
        <ele>-0.637379</ele>
        <time>2026-08-29T15:54:02.894Z</time>
      </trkpt>
      <trkpt lat="52.299843" lon="5.163886">
        <ele>-0.744436</ele>
        <time>2026-08-29T15:54:05.899Z</time>
      </trkpt>
      <trkpt lat="52.299734" lon="5.163931">
        <ele>-0.849996</ele>
        <time>2026-08-29T15:54:08.899Z</time>
      </trkpt>
      <trkpt lat="52.299637" lon="5.164027">
        <ele>-0.956459</ele>
        <time>2026-08-29T15:54:12.898Z</time>
      </trkpt>
      <trkpt lat="52.299557" lon="5.164168">
        <ele>-1.066903</ele>
        <time>2026-08-29T15:54:15.898Z</time>
      </trkpt>
      <trkpt lat="52.299461" lon="5.164307">
        <ele>-1.187303</ele>
        <time>2026-08-29T15:54:18.893Z</time>
      </trkpt>
      <trkpt lat="52.299382" lon="5.164459">
        <ele>-1.301848</ele>
        <time>2026-08-29T15:54:21.900Z</time>
      </trkpt>
      <trkpt lat="52.299310" lon="5.164598">
        <ele>-1.406448</ele>
        <time>2026-08-29T15:54:24.898Z</time>
      </trkpt>
      <trkpt lat="52.299266" lon="5.164732">
        <ele>-1.493783</ele>
        <time>2026-08-29T15:54:27.896Z</time>
      </trkpt>
      <trkpt lat="52.299267" lon="5.164903">
        <ele>-1.591979</ele>
        <time>2026-08-29T15:54:30.897Z</time>
      </trkpt>
      <trkpt lat="52.299314" lon="5.165075">
        <ele>-1.700156</ele>
        <time>2026-08-29T15:54:33.906Z</time>
      </trkpt>
      <trkpt lat="52.299370" lon="5.165245">
        <ele>-1.811035</ele>
        <time>2026-08-29T15:54:36.897Z</time>
      </trkpt>
      <trkpt lat="52.299422" lon="5.165394">
        <ele>-1.812459</ele>
        <time>2026-08-29T15:54:39.892Z</time>
      </trkpt>
      <trkpt lat="52.299458" lon="5.165547">
        <ele>-1.751533</ele>
        <time>2026-08-29T15:54:42.906Z</time>
      </trkpt>
      <trkpt lat="52.299498" lon="5.165695">
        <ele>-1.691396</ele>
        <time>2026-08-29T15:54:45.906Z</time>
      </trkpt>
      <trkpt lat="52.299531" lon="5.165845">
        <ele>-1.632151</ele>
        <time>2026-08-29T15:54:48.897Z</time>
      </trkpt>
      <trkpt lat="52.299548" lon="5.165996">
        <ele>-1.575089</ele>
        <time>2026-08-29T15:54:51.894Z</time>
      </trkpt>
      <trkpt lat="52.299525" lon="5.166140">
        <ele>-1.519776</ele>
        <time>2026-08-29T15:54:54.907Z</time>
      </trkpt>
      <trkpt lat="52.299489" lon="5.166292">
        <ele>-1.459197</ele>
        <time>2026-08-29T15:54:57.893Z</time>
      </trkpt>
      <trkpt lat="52.299421" lon="5.166431">
        <ele>-1.393041</ele>
        <time>2026-08-29T15:55:00.901Z</time>
      </trkpt>
      <trkpt lat="52.299325" lon="5.166544">
        <ele>-1.321156</ele>
        <time>2026-08-29T15:55:03.898Z</time>
      </trkpt>
      <trkpt lat="52.299227" lon="5.166632">
        <ele>-1.253209</ele>
        <time>2026-08-29T15:55:06.906Z</time>
      </trkpt>
      <trkpt lat="52.299151" lon="5.166715">
        <ele>-1.197667</ele>
        <time>2026-08-29T15:55:09.895Z</time>
      </trkpt>
      <trkpt lat="52.299056" lon="5.166792">
        <ele>-1.133229</ele>
        <time>2026-08-29T15:55:12.906Z</time>
      </trkpt>
      <trkpt lat="52.298971" lon="5.166912">
        <ele>-1.064983</ele>
        <time>2026-08-29T15:55:15.906Z</time>
      </trkpt>
      <trkpt lat="52.298892" lon="5.167047">
        <ele>-0.995540</ele>
        <time>2026-08-29T15:55:19.899Z</time>
      </trkpt>
      <trkpt lat="52.298834" lon="5.167189">
        <ele>-0.932076</ele>
        <time>2026-08-29T15:55:22.895Z</time>
      </trkpt>
      <trkpt lat="52.298785" lon="5.167338">
        <ele>-0.869200</ele>
        <time>2026-08-29T15:55:25.906Z</time>
      </trkpt>
      <trkpt lat="52.298727" lon="5.167514">
        <ele>-0.794896</ele>
        <time>2026-08-29T15:55:28.899Z</time>
      </trkpt>
      <trkpt lat="52.298691" lon="5.167684">
        <ele>-0.749148</ele>
        <time>2026-08-29T15:55:31.896Z</time>
      </trkpt>
      <trkpt lat="52.298685" lon="5.167832">
        <ele>-0.733510</ele>
        <time>2026-08-29T15:55:34.906Z</time>
      </trkpt>
      <trkpt lat="52.298688" lon="5.167983">
        <ele>-0.717582</ele>
        <time>2026-08-29T15:55:37.895Z</time>
      </trkpt>
      <trkpt lat="52.298679" lon="5.168141">
        <ele>-0.700852</ele>
        <time>2026-08-29T15:55:40.899Z</time>
      </trkpt>
      <trkpt lat="52.298675" lon="5.168318">
        <ele>-0.682178</ele>
        <time>2026-08-29T15:55:43.898Z</time>
      </trkpt>
      <trkpt lat="52.298668" lon="5.168490">
        <ele>-0.664004</ele>
        <time>2026-08-29T15:55:46.898Z</time>
      </trkpt>
      <trkpt lat="52.298621" lon="5.168663">
        <ele>-0.644046</ele>
        <time>2026-08-29T15:55:49.900Z</time>
      </trkpt>
      <trkpt lat="52.298557" lon="5.168830">
        <ele>-0.623268</ele>
        <time>2026-08-29T15:55:52.900Z</time>
      </trkpt>
      <trkpt lat="52.298470" lon="5.168947">
        <ele>-0.603848</ele>
        <time>2026-08-29T15:55:55.901Z</time>
      </trkpt>
      <trkpt lat="52.298377" lon="5.169037">
        <ele>-0.585218</ele>
        <time>2026-08-29T15:55:58.902Z</time>
      </trkpt>
      <trkpt lat="52.298275" lon="5.169063">
        <ele>-0.567421</ele>
        <time>2026-08-29T15:56:01.900Z</time>
      </trkpt>
      <trkpt lat="52.298167" lon="5.169080">
        <ele>-0.548716</ele>
        <time>2026-08-29T15:56:04.900Z</time>
      </trkpt>
      <trkpt lat="52.298062" lon="5.169069">
        <ele>-0.530577</ele>
        <time>2026-08-29T15:56:07.899Z</time>
      </trkpt>
      <trkpt lat="52.297961" lon="5.169047">
        <ele>-0.513011</ele>
        <time>2026-08-29T15:56:10.899Z</time>
      </trkpt>
      <trkpt lat="52.297862" lon="5.169036">
        <ele>-0.495904</ele>
        <time>2026-08-29T15:56:13.900Z</time>
      </trkpt>
      <trkpt lat="52.297761" lon="5.169017">
        <ele>-0.478377</ele>
        <time>2026-08-29T15:56:16.900Z</time>
      </trkpt>
      <trkpt lat="52.297657" lon="5.168998">
        <ele>-0.460336</ele>
        <time>2026-08-29T15:56:19.901Z</time>
      </trkpt>
      <trkpt lat="52.297546" lon="5.168981">
        <ele>-0.439239</ele>
        <time>2026-08-29T15:56:22.899Z</time>
      </trkpt>
      <trkpt lat="52.297445" lon="5.168982">
        <ele>-0.416647</ele>
        <time>2026-08-29T15:56:25.899Z</time>
      </trkpt>
      <trkpt lat="52.297333" lon="5.168998">
        <ele>-0.391499</ele>
        <time>2026-08-29T15:56:29.898Z</time>
      </trkpt>
      <trkpt lat="52.297232" lon="5.169051">
        <ele>-0.367772</ele>
        <time>2026-08-29T15:56:33.898Z</time>
      </trkpt>
      <trkpt lat="52.297153" lon="5.169199">
        <ele>-0.340899</ele>
        <time>2026-08-29T15:56:37.898Z</time>
      </trkpt>
      <trkpt lat="52.297084" lon="5.169324">
        <ele>-0.317864</ele>
        <time>2026-08-29T15:56:40.899Z</time>
      </trkpt>
      <trkpt lat="52.297012" lon="5.169464">
        <ele>-0.292841</ele>
        <time>2026-08-29T15:56:43.899Z</time>
      </trkpt>
      <trkpt lat="52.296950" lon="5.169608">
        <ele>-0.268750</ele>
        <time>2026-08-29T15:56:47.895Z</time>
      </trkpt>
      <trkpt lat="52.296894" lon="5.169728">
        <ele>-0.248101</ele>
        <time>2026-08-29T15:56:50.899Z</time>
      </trkpt>
      <trkpt lat="52.296834" lon="5.169859">
        <ele>-0.225712</ele>
        <time>2026-08-29T15:56:53.899Z</time>
      </trkpt>
      <trkpt lat="52.296742" lon="5.169965">
        <ele>-0.200538</ele>
        <time>2026-08-29T15:56:57.898Z</time>
      </trkpt>
      <trkpt lat="52.296648" lon="5.169989">
        <ele>-0.179257</ele>
        <time>2026-08-29T15:57:03.898Z</time>
      </trkpt>
      <trkpt lat="52.296543" lon="5.169928">
        <ele>-0.154332</ele>
        <time>2026-08-29T15:57:08.895Z</time>
      </trkpt>
      <trkpt lat="52.296451" lon="5.169804">
        <ele>-0.127663</ele>
        <time>2026-08-29T15:57:11.898Z</time>
      </trkpt>
      <trkpt lat="52.296368" lon="5.169665">
        <ele>-0.101087</ele>
        <time>2026-08-29T15:57:14.899Z</time>
      </trkpt>
      <trkpt lat="52.296290" lon="5.169544">
        <ele>-0.077037</ele>
        <time>2026-08-29T15:57:17.899Z</time>
      </trkpt>
      <trkpt lat="52.296218" lon="5.169426">
        <ele>-0.054235</ele>
        <time>2026-08-29T15:57:20.899Z</time>
      </trkpt>
      <trkpt lat="52.296129" lon="5.169296">
        <ele>-0.124812</ele>
        <time>2026-08-29T15:57:23.899Z</time>
      </trkpt>
      <trkpt lat="52.296045" lon="5.169169">
        <ele>-0.240969</ele>
        <time>2026-08-29T15:57:26.899Z</time>
      </trkpt>
      <trkpt lat="52.295972" lon="5.169054">
        <ele>-0.343889</ele>
        <time>2026-08-29T15:57:29.900Z</time>
      </trkpt>
      <trkpt lat="52.295893" lon="5.168936">
        <ele>-0.452526</ele>
        <time>2026-08-29T15:57:32.899Z</time>
      </trkpt>
      <trkpt lat="52.295811" lon="5.168848">
        <ele>-0.552112</ele>
        <time>2026-08-29T15:57:36.899Z</time>
      </trkpt>
      <trkpt lat="52.295770" lon="5.168699">
        <ele>-0.653566</ele>
        <time>2026-08-29T15:57:45.900Z</time>
      </trkpt>
      <trkpt lat="52.295694" lon="5.168614">
        <ele>-0.747053</ele>
        <time>2026-08-29T15:57:54.898Z</time>
      </trkpt>
      <trkpt lat="52.295606" lon="5.168702">
        <ele>-0.851785</ele>
        <time>2026-08-29T15:58:45.902Z</time>
      </trkpt>
      <trkpt lat="52.295471" lon="5.168722">
        <ele>-0.989412</ele>
        <time>2026-08-29T15:59:33.897Z</time>
      </trkpt>
      <trkpt lat="52.295363" lon="5.168772">
        <ele>-1.103375</ele>
        <time>2026-08-29T15:59:38.898Z</time>
      </trkpt>
      <trkpt lat="52.295263" lon="5.168831">
        <ele>-1.211313</ele>
        <time>2026-08-29T15:59:42.901Z</time>
      </trkpt>
      <trkpt lat="52.295174" lon="5.168893">
        <ele>-1.309534</ele>
        <time>2026-08-29T15:59:45.897Z</time>
      </trkpt>
      <trkpt lat="52.295083" lon="5.168927">
        <ele>-1.404308</ele>
        <time>2026-08-29T15:59:48.895Z</time>
      </trkpt>
      <trkpt lat="52.294972" lon="5.168993">
        <ele>-1.524228</ele>
        <time>2026-08-29T15:59:51.902Z</time>
      </trkpt>
      <trkpt lat="52.294864" lon="5.169063">
        <ele>-1.642181</ele>
        <time>2026-08-29T15:59:54.902Z</time>
      </trkpt>
      <trkpt lat="52.294753" lon="5.169126">
        <ele>-1.761476</ele>
        <time>2026-08-29T15:59:57.895Z</time>
      </trkpt>
      <trkpt lat="52.294649" lon="5.169180">
        <ele>-1.870684</ele>
        <time>2026-08-29T16:00:00.902Z</time>
      </trkpt>
      <trkpt lat="52.294559" lon="5.169234">
        <ele>-1.813595</ele>
        <time>2026-08-29T16:00:03.902Z</time>
      </trkpt>
      <trkpt lat="52.294447" lon="5.169257">
        <ele>-1.746375</ele>
        <time>2026-08-29T16:00:06.899Z</time>
      </trkpt>
      <trkpt lat="52.294323" lon="5.169202">
        <ele>-1.669864</ele>
        <time>2026-08-29T16:00:09.897Z</time>
      </trkpt>
      <trkpt lat="52.294218" lon="5.169105">
        <ele>-1.598046</ele>
        <time>2026-08-29T16:00:12.910Z</time>
      </trkpt>
      <trkpt lat="52.294142" lon="5.168980">
        <ele>-1.533852</ele>
        <time>2026-08-29T16:00:15.897Z</time>
      </trkpt>
      <trkpt lat="52.294095" lon="5.168842">
        <ele>-1.476323</ele>
        <time>2026-08-29T16:00:18.898Z</time>
      </trkpt>
      <trkpt lat="52.294067" lon="5.168690">
        <ele>-1.418506</ele>
        <time>2026-08-29T16:00:21.902Z</time>
      </trkpt>
      <trkpt lat="52.294032" lon="5.168503">
        <ele>-1.347280</ele>
        <time>2026-08-29T16:00:24.899Z</time>
      </trkpt>
      <trkpt lat="52.294000" lon="5.168318">
        <ele>-1.277258</ele>
        <time>2026-08-29T16:00:27.895Z</time>
      </trkpt>
      <trkpt lat="52.293977" lon="5.168147">
        <ele>-1.213489</ele>
        <time>2026-08-29T16:00:30.896Z</time>
      </trkpt>
      <trkpt lat="52.293953" lon="5.167973">
        <ele>-1.148525</ele>
        <time>2026-08-29T16:00:33.896Z</time>
      </trkpt>
      <trkpt lat="52.293926" lon="5.167781">
        <ele>-1.076771</ele>
        <time>2026-08-29T16:00:37.898Z</time>
      </trkpt>
      <trkpt lat="52.293901" lon="5.167633">
        <ele>-1.020849</ele>
        <time>2026-08-29T16:00:40.896Z</time>
      </trkpt>
      <trkpt lat="52.293855" lon="5.167459">
        <ele>-0.951809</ele>
        <time>2026-08-29T16:00:44.910Z</time>
      </trkpt>
      <trkpt lat="52.293782" lon="5.167334">
        <ele>-0.888861</ele>
        <time>2026-08-29T16:00:48.910Z</time>
      </trkpt>
      <trkpt lat="52.293711" lon="5.167212">
        <ele>-0.827525</ele>
        <time>2026-08-29T16:00:52.895Z</time>
      </trkpt>
      <trkpt lat="52.293618" lon="5.167009">
        <ele>-0.801949</ele>
        <time>2026-08-29T16:01:36.910Z</time>
      </trkpt>
      <trkpt lat="52.293544" lon="5.166914">
        <ele>-0.803475</ele>
        <time>2026-08-29T16:01:44.898Z</time>
      </trkpt>
      <trkpt lat="52.293441" lon="5.166904">
        <ele>-0.805149</ele>
        <time>2026-08-29T16:01:48.896Z</time>
      </trkpt>
      <trkpt lat="52.293339" lon="5.166907">
        <ele>-0.806804</ele>
        <time>2026-08-29T16:01:52.897Z</time>
      </trkpt>
      <trkpt lat="52.293217" lon="5.166879">
        <ele>-0.808803</ele>
        <time>2026-08-29T16:01:56.897Z</time>
      </trkpt>
      <trkpt lat="52.293111" lon="5.166855">
        <ele>-0.810539</ele>
        <time>2026-08-29T16:01:59.899Z</time>
      </trkpt>
      <trkpt lat="52.292997" lon="5.166848">
        <ele>-0.812389</ele>
        <time>2026-08-29T16:02:02.896Z</time>
      </trkpt>
      <trkpt lat="52.292881" lon="5.166833">
        <ele>-0.814277</ele>
        <time>2026-08-29T16:02:05.896Z</time>
      </trkpt>
      <trkpt lat="52.292763" lon="5.166818">
        <ele>-0.816197</ele>
        <time>2026-08-29T16:02:08.901Z</time>
      </trkpt>
      <trkpt lat="52.292642" lon="5.166801">
        <ele>-0.818167</ele>
        <time>2026-08-29T16:02:11.902Z</time>
      </trkpt>
      <trkpt lat="52.292541" lon="5.166778">
        <ele>-0.819822</ele>
        <time>2026-08-29T16:02:14.902Z</time>
      </trkpt>
      <trkpt lat="52.292467" lon="5.166683">
        <ele>-0.821348</ele>
        <time>2026-08-29T16:02:18.896Z</time>
      </trkpt>
      <trkpt lat="52.292463" lon="5.166497">
        <ele>-0.823195</ele>
        <time>2026-08-29T16:02:22.896Z</time>
      </trkpt>
      <trkpt lat="52.292437" lon="5.166346">
        <ele>-0.824751</ele>
        <time>2026-08-29T16:02:25.902Z</time>
      </trkpt>
      <trkpt lat="52.292411" lon="5.166171">
        <ele>-0.826538</ele>
        <time>2026-08-29T16:02:28.902Z</time>
      </trkpt>
      <trkpt lat="52.292406" lon="5.166000">
        <ele>-0.828237</ele>
        <time>2026-08-29T16:02:31.902Z</time>
      </trkpt>
      <trkpt lat="52.292404" lon="5.165829">
        <ele>-0.813715</ele>
        <time>2026-08-29T16:02:34.896Z</time>
      </trkpt>
      <trkpt lat="52.292410" lon="5.165650">
        <ele>-0.765538</ele>
        <time>2026-08-29T16:02:37.896Z</time>
      </trkpt>
      <trkpt lat="52.292419" lon="5.165458">
        <ele>-0.713789</ele>
        <time>2026-08-29T16:02:40.896Z</time>
      </trkpt>
      <trkpt lat="52.292434" lon="5.165312">
        <ele>-0.674003</ele>
        <time>2026-08-29T16:02:42.901Z</time>
      </trkpt>
      <trkpt lat="52.292439" lon="5.165161">
        <ele>-0.633364</ele>
        <time>2026-08-29T16:02:44.902Z</time>
      </trkpt>
      <trkpt lat="52.292438" lon="5.165004">
        <ele>-0.591170</ele>
        <time>2026-08-29T16:02:46.902Z</time>
      </trkpt>
      <trkpt lat="52.292416" lon="5.164805">
        <ele>-0.536824</ele>
        <time>2026-08-29T16:02:49.896Z</time>
      </trkpt>
      <trkpt lat="52.292358" lon="5.164638">
        <ele>-0.485214</ele>
        <time>2026-08-29T16:02:52.902Z</time>
      </trkpt>
      <trkpt lat="52.292289" lon="5.164490">
        <ele>-0.435203</ele>
        <time>2026-08-29T16:02:55.902Z</time>
      </trkpt>
      <trkpt lat="52.292196" lon="5.164367">
        <ele>-0.382645</ele>
        <time>2026-08-29T16:02:58.902Z</time>
      </trkpt>
      <trkpt lat="52.292090" lon="5.164263">
        <ele>-0.328328</ele>
        <time>2026-08-29T16:03:01.896Z</time>
      </trkpt>
      <trkpt lat="52.291970" lon="5.164177">
        <ele>-0.270759</ele>
        <time>2026-08-29T16:03:04.895Z</time>
      </trkpt>
      <trkpt lat="52.291860" lon="5.164064">
        <ele>-0.213678</ele>
        <time>2026-08-29T16:03:07.896Z</time>
      </trkpt>
      <trkpt lat="52.291747" lon="5.163962">
        <ele>-0.156964</ele>
        <time>2026-08-29T16:03:10.902Z</time>
      </trkpt>
      <trkpt lat="52.291640" lon="5.163872">
        <ele>-0.104093</ele>
        <time>2026-08-29T16:03:13.894Z</time>
      </trkpt>
      <trkpt lat="52.291537" lon="5.163786">
        <ele>-0.053277</ele>
        <time>2026-08-29T16:03:16.902Z</time>
      </trkpt>
      <trkpt lat="52.291432" lon="5.163665">
        <ele>-0.080839</ele>
        <time>2026-08-29T16:03:19.902Z</time>
      </trkpt>
      <trkpt lat="52.291338" lon="5.163513">
        <ele>-0.138296</ele>
        <time>2026-08-29T16:03:22.894Z</time>
      </trkpt>
      <trkpt lat="52.291269" lon="5.163332">
        <ele>-0.194989</ele>
        <time>2026-08-29T16:03:25.902Z</time>
      </trkpt>
      <trkpt lat="52.291260" lon="5.163119">
        <ele>-0.251743</ele>
        <time>2026-08-29T16:03:28.902Z</time>
      </trkpt>
      <trkpt lat="52.291285" lon="5.162938">
        <ele>-0.301067</ele>
        <time>2026-08-29T16:03:31.902Z</time>
      </trkpt>
      <trkpt lat="52.291340" lon="5.162750">
        <ele>-0.356463</ele>
        <time>2026-08-29T16:03:34.896Z</time>
      </trkpt>
      <trkpt lat="52.291386" lon="5.162615">
        <ele>-0.397541</ele>
        <time>2026-08-29T16:03:36.902Z</time>
      </trkpt>
      <trkpt lat="52.291431" lon="5.162477">
        <ele>-0.439111</ele>
        <time>2026-08-29T16:03:38.902Z</time>
      </trkpt>
      <trkpt lat="52.291494" lon="5.162287">
        <ele>-0.496560</ele>
        <time>2026-08-29T16:03:41.894Z</time>
      </trkpt>
      <trkpt lat="52.291559" lon="5.162106">
        <ele>-0.552353</ele>
        <time>2026-08-29T16:03:44.898Z</time>
      </trkpt>
      <trkpt lat="52.291623" lon="5.161922">
        <ele>-0.608619</ele>
        <time>2026-08-29T16:03:47.895Z</time>
      </trkpt>
      <trkpt lat="52.291679" lon="5.161729">
        <ele>-0.665401</ele>
        <time>2026-08-29T16:03:50.897Z</time>
      </trkpt>
      <trkpt lat="52.291730" lon="5.161535">
        <ele>-0.721530</ele>
        <time>2026-08-29T16:03:53.910Z</time>
      </trkpt>
      <trkpt lat="52.291759" lon="5.161330">
        <ele>-0.777461</ele>
        <time>2026-08-29T16:03:56.897Z</time>
      </trkpt>
      <trkpt lat="52.291765" lon="5.161123">
        <ele>-0.838073</ele>
        <time>2026-08-29T16:03:59.896Z</time>
      </trkpt>
      <trkpt lat="52.291741" lon="5.160982">
        <ele>-0.895194</ele>
        <time>2026-08-29T16:04:01.910Z</time>
      </trkpt>
      <trkpt lat="52.291686" lon="5.160836">
        <ele>-0.962115</ele>
        <time>2026-08-29T16:04:03.895Z</time>
      </trkpt>
      <trkpt lat="52.291611" lon="5.160658">
        <ele>-1.046474</ele>
        <time>2026-08-29T16:04:06.896Z</time>
      </trkpt>
      <trkpt lat="52.291536" lon="5.160484">
        <ele>-1.129551</ele>
        <time>2026-08-29T16:04:09.910Z</time>
      </trkpt>
      <trkpt lat="52.291455" lon="5.160321">
        <ele>-1.211517</ele>
        <time>2026-08-29T16:04:12.901Z</time>
      </trkpt>
      <trkpt lat="52.291374" lon="5.160164">
        <ele>-1.291679</ele>
        <time>2026-08-29T16:04:15.896Z</time>
      </trkpt>
      <trkpt lat="52.291295" lon="5.159994">
        <ele>-1.375004</ele>
        <time>2026-08-29T16:04:18.894Z</time>
      </trkpt>
      <trkpt lat="52.291249" lon="5.159799">
        <ele>-1.456574</ele>
        <time>2026-08-29T16:04:21.902Z</time>
      </trkpt>
      <trkpt lat="52.291230" lon="5.159602">
        <ele>-1.534410</ele>
        <time>2026-08-29T16:04:24.902Z</time>
      </trkpt>
      <trkpt lat="52.291237" lon="5.159399">
        <ele>-1.613764</ele>
        <time>2026-08-29T16:04:27.893Z</time>
      </trkpt>
      <trkpt lat="52.291271" lon="5.159205">
        <ele>-1.692526</ele>
        <time>2026-08-29T16:04:30.895Z</time>
      </trkpt>
      <trkpt lat="52.291336" lon="5.159037">
        <ele>-1.770110</ele>
        <time>2026-08-29T16:04:33.902Z</time>
      </trkpt>
      <trkpt lat="52.291392" lon="5.158922">
        <ele>-1.827480</ele>
        <time>2026-08-29T16:04:35.902Z</time>
      </trkpt>
      <trkpt lat="52.291485" lon="5.158793">
        <ele>-1.905302</ele>
        <time>2026-08-29T16:04:38.901Z</time>
      </trkpt>
      <trkpt lat="52.291598" lon="5.158709">
        <ele>-1.954032</ele>
        <time>2026-08-29T16:04:41.902Z</time>
      </trkpt>
      <trkpt lat="52.291707" lon="5.158656">
        <ele>-1.889009</ele>
        <time>2026-08-29T16:04:44.898Z</time>
      </trkpt>
      <trkpt lat="52.291822" lon="5.158606">
        <ele>-1.820968</ele>
        <time>2026-08-29T16:04:47.902Z</time>
      </trkpt>
      <trkpt lat="52.291924" lon="5.158559">
        <ele>-1.760374</ele>
        <time>2026-08-29T16:04:50.902Z</time>
      </trkpt>
      <trkpt lat="52.292011" lon="5.158509">
        <ele>-1.707645</ele>
        <time>2026-08-29T16:04:53.902Z</time>
      </trkpt>
      <trkpt lat="52.292098" lon="5.158435">
        <ele>-1.651571</ele>
        <time>2026-08-29T16:04:58.902Z</time>
      </trkpt>
      <trkpt lat="52.292193" lon="5.158390">
        <ele>-1.595017</ele>
        <time>2026-08-29T16:05:03.902Z</time>
      </trkpt>
      <trkpt lat="52.292300" lon="5.158360">
        <ele>-1.532943</ele>
        <time>2026-08-29T16:05:07.902Z</time>
      </trkpt>
      <trkpt lat="52.292391" lon="5.158284">
        <ele>-1.474515</ele>
        <time>2026-08-29T16:05:11.896Z</time>
      </trkpt>
      <trkpt lat="52.292445" lon="5.158143">
        <ele>-1.416335</ele>
        <time>2026-08-29T16:05:15.902Z</time>
      </trkpt>
      <trkpt lat="52.292507" lon="5.157851">
        <ele>-1.308238</ele>
        <time>2026-08-29T16:06:15.894Z</time>
      </trkpt>
      <trkpt lat="52.292523" lon="5.157656">
        <ele>-1.239432</ele>
        <time>2026-08-29T16:06:19.895Z</time>
      </trkpt>
      <trkpt lat="52.292537" lon="5.157482">
        <ele>-1.178056</ele>
        <time>2026-08-29T16:06:22.894Z</time>
      </trkpt>
      <trkpt lat="52.292551" lon="5.157318">
        <ele>-1.120146</ele>
        <time>2026-08-29T16:06:25.902Z</time>
      </trkpt>
      <trkpt lat="52.292571" lon="5.157139">
        <ele>-1.056510</ele>
        <time>2026-08-29T16:06:28.893Z</time>
      </trkpt>
      <trkpt lat="52.292596" lon="5.156954">
        <ele>-0.990251</ele>
        <time>2026-08-29T16:06:31.894Z</time>
      </trkpt>
      <trkpt lat="52.292619" lon="5.156795">
        <ele>-0.943758</ele>
        <time>2026-08-29T16:06:34.896Z</time>
      </trkpt>
      <trkpt lat="52.292636" lon="5.156614">
        <ele>-0.978736</ele>
        <time>2026-08-29T16:06:37.903Z</time>
      </trkpt>
      <trkpt lat="52.292665" lon="5.156437">
        <ele>-1.013736</ele>
        <time>2026-08-29T16:06:40.902Z</time>
      </trkpt>
      <trkpt lat="52.292722" lon="5.156255">
        <ele>-1.052791</ele>
        <time>2026-08-29T16:06:43.901Z</time>
      </trkpt>
      <trkpt lat="52.292813" lon="5.156107">
        <ele>-1.092875</ele>
        <time>2026-08-29T16:06:46.896Z</time>
      </trkpt>
      <trkpt lat="52.292922" lon="5.156003">
        <ele>-1.132287</ele>
        <time>2026-08-29T16:06:49.897Z</time>
      </trkpt>
      <trkpt lat="52.293043" lon="5.155957">
        <ele>-1.171082</ele>
        <time>2026-08-29T16:06:52.903Z</time>
      </trkpt>
      <trkpt lat="52.293169" lon="5.155966">
        <ele>-1.210468</ele>
        <time>2026-08-29T16:06:55.901Z</time>
      </trkpt>
      <trkpt lat="52.293261" lon="5.155987">
        <ele>-1.239477</ele>
        <time>2026-08-29T16:06:57.902Z</time>
      </trkpt>
      <trkpt lat="52.293353" lon="5.156021">
        <ele>-1.268932</ele>
        <time>2026-08-29T16:06:59.902Z</time>
      </trkpt>
      <trkpt lat="52.293469" lon="5.156051">
        <ele>-1.305608</ele>
        <time>2026-08-29T16:07:02.902Z</time>
      </trkpt>
      <trkpt lat="52.293585" lon="5.156088">
        <ele>-1.342517</ele>
        <time>2026-08-29T16:07:05.897Z</time>
      </trkpt>
      <trkpt lat="52.293708" lon="5.156126">
        <ele>-1.381608</ele>
        <time>2026-08-29T16:07:08.898Z</time>
      </trkpt>
      <trkpt lat="52.293823" lon="5.156172">
        <ele>-1.418581</ele>
        <time>2026-08-29T16:07:11.896Z</time>
      </trkpt>
      <trkpt lat="52.293946" lon="5.156207">
        <ele>-1.457570</ele>
        <time>2026-08-29T16:07:14.898Z</time>
      </trkpt>
      <trkpt lat="52.294062" lon="5.156207">
        <ele>-1.493795</ele>
        <time>2026-08-29T16:07:17.900Z</time>
      </trkpt>
      <trkpt lat="52.294185" lon="5.156159">
        <ele>-1.436260</ele>
        <time>2026-08-29T16:07:20.899Z</time>
      </trkpt>
      <trkpt lat="52.294301" lon="5.156051">
        <ele>-1.349913</ele>
        <time>2026-08-29T16:07:23.894Z</time>
      </trkpt>
      <trkpt lat="52.294375" lon="5.155958">
        <ele>-1.289539</ele>
        <time>2026-08-29T16:07:25.897Z</time>
      </trkpt>
      <trkpt lat="52.294434" lon="5.155840">
        <ele>-1.229242</ele>
        <time>2026-08-29T16:07:27.895Z</time>
      </trkpt>
      <trkpt lat="52.294507" lon="5.155672">
        <ele>-1.147711</ele>
        <time>2026-08-29T16:07:30.896Z</time>
      </trkpt>
      <trkpt lat="52.294573" lon="5.155507">
        <ele>-1.069713</ele>
        <time>2026-08-29T16:07:33.893Z</time>
      </trkpt>
      <trkpt lat="52.294641" lon="5.155356">
        <ele>-0.995528</ele>
        <time>2026-08-29T16:07:36.896Z</time>
      </trkpt>
      <trkpt lat="52.294716" lon="5.155166">
        <ele>-0.906065</ele>
        <time>2026-08-29T16:07:39.895Z</time>
      </trkpt>
      <trkpt lat="52.294795" lon="5.155004">
        <ele>-0.824096</ele>
        <time>2026-08-29T16:07:42.897Z</time>
      </trkpt>
      <trkpt lat="52.294898" lon="5.154876">
        <ele>-0.740411</ele>
        <time>2026-08-29T16:07:45.897Z</time>
      </trkpt>
      <trkpt lat="52.294978" lon="5.154797">
        <ele>-0.679957</ele>
        <time>2026-08-29T16:07:47.910Z</time>
      </trkpt>
      <trkpt lat="52.295068" lon="5.154762">
        <ele>-0.620116</ele>
        <time>2026-08-29T16:07:49.899Z</time>
      </trkpt>
      <trkpt lat="52.295157" lon="5.154734">
        <ele>-0.561490</ele>
        <time>2026-08-29T16:07:51.896Z</time>
      </trkpt>
      <trkpt lat="52.295280" lon="5.154743">
        <ele>-0.481847</ele>
        <time>2026-08-29T16:07:54.899Z</time>
      </trkpt>
      <trkpt lat="52.295387" lon="5.154802">
        <ele>-0.408804</ele>
        <time>2026-08-29T16:07:57.896Z</time>
      </trkpt>
      <trkpt lat="52.295488" lon="5.154884">
        <ele>-0.340142</ele>
        <time>2026-08-29T16:08:00.895Z</time>
      </trkpt>
      <trkpt lat="52.295563" lon="5.154995">
        <ele>-0.392658</ele>
        <time>2026-08-29T16:08:03.896Z</time>
      </trkpt>
      <trkpt lat="52.295626" lon="5.155150">
        <ele>-0.451747</ele>
        <time>2026-08-29T16:08:06.895Z</time>
      </trkpt>
      <trkpt lat="52.295704" lon="5.155333">
        <ele>-0.522567</ele>
        <time>2026-08-29T16:08:09.897Z</time>
      </trkpt>
      <trkpt lat="52.295752" lon="5.155457">
        <ele>-0.569160</ele>
        <time>2026-08-29T16:08:11.895Z</time>
      </trkpt>
      <trkpt lat="52.295804" lon="5.155585">
        <ele>-0.617948</ele>
        <time>2026-08-29T16:08:13.895Z</time>
      </trkpt>
      <trkpt lat="52.295864" lon="5.155727">
        <ele>-0.672746</ele>
        <time>2026-08-29T16:08:16.897Z</time>
      </trkpt>
      <trkpt lat="52.295935" lon="5.155864">
        <ele>-0.729759</ele>
        <time>2026-08-29T16:08:19.896Z</time>
      </trkpt>
      <trkpt lat="52.296013" lon="5.155956">
        <ele>-0.779688</ele>
        <time>2026-08-29T16:08:22.897Z</time>
      </trkpt>
      <trkpt lat="52.296109" lon="5.156043">
        <ele>-0.836668</ele>
        <time>2026-08-29T16:08:26.896Z</time>
      </trkpt>
      <trkpt lat="52.296212" lon="5.156123">
        <ele>-0.895865</ele>
        <time>2026-08-29T16:08:30.910Z</time>
      </trkpt>
      <trkpt lat="52.296316" lon="5.156141">
        <ele>-0.950156</ele>
        <time>2026-08-29T16:08:34.902Z</time>
      </trkpt>
      <trkpt lat="52.296421" lon="5.156133">
        <ele>-1.004725</ele>
        <time>2026-08-29T16:08:38.902Z</time>
      </trkpt>
      <trkpt lat="52.296463" lon="5.155997">
        <ele>-1.053096</ele>
        <time>2026-08-29T16:08:45.918Z</time>
      </trkpt>
      <trkpt lat="52.296551" lon="5.155942">
        <ele>-1.102004</ele>
        <time>2026-08-29T16:08:51.901Z</time>
      </trkpt>
      <trkpt lat="52.296656" lon="5.155914">
        <ele>-1.157233</ele>
        <time>2026-08-29T16:08:57.902Z</time>
      </trkpt>
      <trkpt lat="52.296746" lon="5.155898">
        <ele>-1.204231</ele>
        <time>2026-08-29T16:09:01.902Z</time>
      </trkpt>
      <trkpt lat="52.296844" lon="5.155872">
        <ele>-1.255772</ele>
        <time>2026-08-29T16:09:05.898Z</time>
      </trkpt>
      <trkpt lat="52.296947" lon="5.155830">
        <ele>-1.189772</ele>
        <time>2026-08-29T16:09:09.898Z</time>
      </trkpt>
      <trkpt lat="52.297057" lon="5.155792">
        <ele>-1.066443</ele>
        <time>2026-08-29T16:09:13.902Z</time>
      </trkpt>
      <trkpt lat="52.297151" lon="5.155773">
        <ele>-0.962545</ele>
        <time>2026-08-29T16:09:17.901Z</time>
      </trkpt>
      <trkpt lat="52.297241" lon="5.155737">
        <ele>-0.860908</ele>
        <time>2026-08-29T16:09:20.902Z</time>
      </trkpt>
      <trkpt lat="52.297345" lon="5.155704">
        <ele>-0.744697</ele>
        <time>2026-08-29T16:09:24.902Z</time>
      </trkpt>
      <trkpt lat="52.297442" lon="5.155699">
        <ele>-0.638239</ele>
        <time>2026-08-29T16:09:29.895Z</time>
      </trkpt>
      <trkpt lat="52.297534" lon="5.155661">
        <ele>-0.534150</ele>
        <time>2026-08-29T16:09:33.903Z</time>
      </trkpt>
      <trkpt lat="52.297624" lon="5.155680">
        <ele>-0.434605</ele>
        <time>2026-08-29T16:09:37.897Z</time>
      </trkpt>
      <trkpt lat="52.297686" lon="5.155848">
        <ele>-0.302971</ele>
        <time>2026-08-29T16:09:41.898Z</time>
      </trkpt>
      <trkpt lat="52.297717" lon="5.156032">
        <ele>-0.174936</ele>
        <time>2026-08-29T16:09:45.896Z</time>
      </trkpt>
      <trkpt lat="52.297751" lon="5.156245">
        <ele>-0.027257</ele>
        <time>2026-08-29T16:09:48.897Z</time>
      </trkpt>
      <trkpt lat="52.297782" lon="5.156465">
        <ele>0.124197</ele>
        <time>2026-08-29T16:09:51.898Z</time>
      </trkpt>
      <trkpt lat="52.297806" lon="5.156671">
        <ele>0.264877</ele>
        <time>2026-08-29T16:09:54.899Z</time>
      </trkpt>
      <trkpt lat="52.297825" lon="5.156854">
        <ele>0.389399</ele>
        <time>2026-08-29T16:09:57.898Z</time>
      </trkpt>
      <trkpt lat="52.297836" lon="5.157020">
        <ele>0.501412</ele>
        <time>2026-08-29T16:10:00.910Z</time>
      </trkpt>
      <trkpt lat="52.297855" lon="5.157202">
        <ele>0.625273</ele>
        <time>2026-08-29T16:10:04.896Z</time>
      </trkpt>
      <trkpt lat="52.297876" lon="5.157377">
        <ele>0.682780</ele>
        <time>2026-08-29T16:10:08.899Z</time>
      </trkpt>
      <trkpt lat="52.297915" lon="5.157514">
        <ele>0.640549</ele>
        <time>2026-08-29T16:10:12.894Z</time>
      </trkpt>
      <trkpt lat="52.297968" lon="5.157634">
        <ele>0.599182</ele>
        <time>2026-08-29T16:10:20.910Z</time>
      </trkpt>
      <trkpt lat="52.297974" lon="5.157803">
        <ele>0.551874</ele>
        <time>2026-08-29T16:10:23.910Z</time>
      </trkpt>
      <trkpt lat="52.297989" lon="5.157949">
        <ele>0.510501</ele>
        <time>2026-08-29T16:10:26.898Z</time>
      </trkpt>
      <trkpt lat="52.297902" lon="5.158055">
        <ele>0.460923</ele>
        <time>2026-08-29T16:10:31.897Z</time>
      </trkpt>
      <trkpt lat="52.297789" lon="5.158117">
        <ele>0.406456</ele>
        <time>2026-08-29T16:10:35.897Z</time>
      </trkpt>
      <trkpt lat="52.297686" lon="5.158104">
        <ele>0.359249</ele>
        <time>2026-08-29T16:10:38.899Z</time>
      </trkpt>
      <trkpt lat="52.297583" lon="5.158066">
        <ele>0.310998</ele>
        <time>2026-08-29T16:10:41.896Z</time>
      </trkpt>
      <trkpt lat="52.297479" lon="5.158033">
        <ele>0.262587</ele>
        <time>2026-08-29T16:10:44.897Z</time>
      </trkpt>
      <trkpt lat="52.297381" lon="5.158002">
        <ele>0.216974</ele>
        <time>2026-08-29T16:10:47.897Z</time>
      </trkpt>
      <trkpt lat="52.297278" lon="5.157980">
        <ele>0.169507</ele>
        <time>2026-08-29T16:10:50.902Z</time>
      </trkpt>
      <trkpt lat="52.297173" lon="5.157951">
        <ele>0.120845</ele>
        <time>2026-08-29T16:10:53.902Z</time>
      </trkpt>
      <trkpt lat="52.297076" lon="5.157910">
        <ele>0.075063</ele>
        <time>2026-08-29T16:10:56.896Z</time>
      </trkpt>
      <trkpt lat="52.296980" lon="5.157879">
        <ele>0.030347</ele>
        <time>2026-08-29T16:10:59.904Z</time>
      </trkpt>
      <trkpt lat="52.296879" lon="5.157835">
        <ele>-0.017417</ele>
        <time>2026-08-29T16:11:02.902Z</time>
      </trkpt>
      <trkpt lat="52.296786" lon="5.157835">
        <ele>-0.059915</ele>
        <time>2026-08-29T16:11:05.902Z</time>
      </trkpt>
      <trkpt lat="52.296700" lon="5.157890">
        <ele>-0.102113</ele>
        <time>2026-08-29T16:11:08.902Z</time>
      </trkpt>
      <trkpt lat="52.296616" lon="5.157998">
        <ele>0.049723</ele>
        <time>2026-08-29T16:11:11.901Z</time>
      </trkpt>
      <trkpt lat="52.296550" lon="5.158155">
        <ele>0.351729</ele>
        <time>2026-08-29T16:11:14.902Z</time>
      </trkpt>
      <trkpt lat="52.296484" lon="5.158314">
        <ele>0.656352</ele>
        <time>2026-08-29T16:11:17.908Z</time>
      </trkpt>
      <trkpt lat="52.296416" lon="5.158475">
        <ele>0.966521</ele>
        <time>2026-08-29T16:11:20.896Z</time>
      </trkpt>
      <trkpt lat="52.296343" lon="5.158641">
        <ele>1.290636</ele>
        <time>2026-08-29T16:11:23.902Z</time>
      </trkpt>
      <trkpt lat="52.296267" lon="5.158809">
        <ele>1.621894</ele>
        <time>2026-08-29T16:11:26.895Z</time>
      </trkpt>
      <trkpt lat="52.296204" lon="5.158950">
        <ele>1.898709</ele>
        <time>2026-08-29T16:11:29.901Z</time>
      </trkpt>
      <trkpt lat="52.296133" lon="5.159109">
        <ele>2.210797</ele>
        <time>2026-08-29T16:11:32.895Z</time>
      </trkpt>
      <trkpt lat="52.296042" lon="5.159213">
        <ele>2.498577</ele>
        <time>2026-08-29T16:11:35.902Z</time>
      </trkpt>
      <trkpt lat="52.295942" lon="5.159191">
        <ele>2.760116</ele>
        <time>2026-08-29T16:11:38.902Z</time>
      </trkpt>
      <trkpt lat="52.295871" lon="5.159079">
        <ele>3.015834</ele>
        <time>2026-08-29T16:11:42.902Z</time>
      </trkpt>
      <trkpt lat="52.295809" lon="5.158930">
        <ele>3.301522</ele>
        <time>2026-08-29T16:11:47.902Z</time>
      </trkpt>
      <trkpt lat="52.295729" lon="5.158816">
        <ele>3.576582</ele>
        <time>2026-08-29T16:11:52.902Z</time>
      </trkpt>
      <trkpt lat="52.295662" lon="5.158715">
        <ele>3.812792</ele>
        <time>2026-08-29T16:11:56.902Z</time>
      </trkpt>
      <trkpt lat="52.295587" lon="5.158608">
        <ele>4.070792</ele>
        <time>2026-08-29T16:12:00.897Z</time>
      </trkpt>
      <trkpt lat="52.295515" lon="5.158503">
        <ele>4.320863</ele>
        <time>2026-08-29T16:12:04.897Z</time>
      </trkpt>
      <trkpt lat="52.295428" lon="5.158418">
        <ele>4.510914</ele>
        <time>2026-08-29T16:12:09.897Z</time>
      </trkpt>
      <trkpt lat="52.295325" lon="5.158402">
        <ele>4.318412</ele>
        <time>2026-08-29T16:12:14.897Z</time>
      </trkpt>
      <trkpt lat="52.295227" lon="5.158408">
        <ele>4.135948</ele>
        <time>2026-08-29T16:12:20.895Z</time>
      </trkpt>
      <trkpt lat="52.295133" lon="5.158414">
        <ele>3.960921</ele>
        <time>2026-08-29T16:12:25.910Z</time>
      </trkpt>
      <trkpt lat="52.295019" lon="5.158414">
        <ele>3.748815</ele>
        <time>2026-08-29T16:12:30.897Z</time>
      </trkpt>
      <trkpt lat="52.294913" lon="5.158413">
        <ele>3.551591</ele>
        <time>2026-08-29T16:12:34.896Z</time>
      </trkpt>
      <trkpt lat="52.294803" lon="5.158415">
        <ele>3.346915</ele>
        <time>2026-08-29T16:12:38.896Z</time>
      </trkpt>
      <trkpt lat="52.294719" lon="5.158468">
        <ele>3.179394</ele>
        <time>2026-08-29T16:12:41.898Z</time>
      </trkpt>
      <trkpt lat="52.294650" lon="5.158600">
        <ele>2.981800</ele>
        <time>2026-08-29T16:12:44.895Z</time>
      </trkpt>
      <trkpt lat="52.294578" lon="5.158749">
        <ele>2.765713</ele>
        <time>2026-08-29T16:12:47.896Z</time>
      </trkpt>
      <trkpt lat="52.294498" lon="5.158907">
        <ele>2.532302</ele>
        <time>2026-08-29T16:12:50.895Z</time>
      </trkpt>
      <trkpt lat="52.294411" lon="5.159017">
        <ele>2.327680</ele>
        <time>2026-08-29T16:12:53.895Z</time>
      </trkpt>
      <trkpt lat="52.294309" lon="5.159121">
        <ele>2.104025</ele>
        <time>2026-08-29T16:12:56.910Z</time>
      </trkpt>
      <trkpt lat="52.294205" lon="5.159202">
        <ele>1.889693</ele>
        <time>2026-08-29T16:12:59.910Z</time>
      </trkpt>
      <trkpt lat="52.294108" lon="5.159318">
        <ele>1.666096</ele>
        <time>2026-08-29T16:13:02.897Z</time>
      </trkpt>
      <trkpt lat="52.294025" lon="5.159455">
        <ele>1.446660</ele>
        <time>2026-08-29T16:13:05.896Z</time>
      </trkpt>
      <trkpt lat="52.293953" lon="5.159584">
        <ele>1.247928</ele>
        <time>2026-08-29T16:13:08.894Z</time>
      </trkpt>
      <trkpt lat="52.293884" lon="5.159695">
        <ele>1.169312</ele>
        <time>2026-08-29T16:13:11.896Z</time>
      </trkpt>
      <trkpt lat="52.293813" lon="5.159813">
        <ele>1.131547</ele>
        <time>2026-08-29T16:13:14.894Z</time>
      </trkpt>
      <trkpt lat="52.293728" lon="5.159939">
        <ele>1.088750</ele>
        <time>2026-08-29T16:13:18.896Z</time>
      </trkpt>
      <trkpt lat="52.293662" lon="5.160099">
        <ele>1.044721</ele>
        <time>2026-08-29T16:13:22.895Z</time>
      </trkpt>
      <trkpt lat="52.293587" lon="5.160211">
        <ele>1.006832</ele>
        <time>2026-08-29T16:13:25.895Z</time>
      </trkpt>
      <trkpt lat="52.293518" lon="5.160342">
        <ele>0.967390</ele>
        <time>2026-08-29T16:13:28.910Z</time>
      </trkpt>
      <trkpt lat="52.293465" lon="5.160493">
        <ele>0.927671</ele>
        <time>2026-08-29T16:13:31.895Z</time>
      </trkpt>
      <trkpt lat="52.293449" lon="5.160643">
        <ele>0.892933</ele>
        <time>2026-08-29T16:13:34.895Z</time>
      </trkpt>
      <trkpt lat="52.293465" lon="5.160814">
        <ele>0.853466</ele>
        <time>2026-08-29T16:13:37.899Z</time>
      </trkpt>
      <trkpt lat="52.293455" lon="5.160977">
        <ele>0.816092</ele>
        <time>2026-08-29T16:13:40.910Z</time>
      </trkpt>
      <trkpt lat="52.293447" lon="5.161132">
        <ele>0.780604</ele>
        <time>2026-08-29T16:13:43.901Z</time>
      </trkpt>
      <trkpt lat="52.293472" lon="5.161273">
        <ele>0.747111</ele>
        <time>2026-08-29T16:13:46.895Z</time>
      </trkpt>
      <trkpt lat="52.293488" lon="5.161447">
        <ele>0.706968</ele>
        <time>2026-08-29T16:13:49.899Z</time>
      </trkpt>
      <trkpt lat="52.293515" lon="5.161618">
        <ele>0.666677</ele>
        <time>2026-08-29T16:13:52.896Z</time>
      </trkpt>
      <trkpt lat="52.293557" lon="5.161789">
        <ele>0.624636</ele>
        <time>2026-08-29T16:13:55.896Z</time>
      </trkpt>
      <trkpt lat="52.293588" lon="5.161932">
        <ele>0.590023</ele>
        <time>2026-08-29T16:13:57.896Z</time>
      </trkpt>
      <trkpt lat="52.293630" lon="5.162121">
        <ele>0.544146</ele>
        <time>2026-08-29T16:14:00.894Z</time>
      </trkpt>
      <trkpt lat="52.293661" lon="5.162300">
        <ele>0.543613</ele>
        <time>2026-08-29T16:14:03.910Z</time>
      </trkpt>
      <trkpt lat="52.293699" lon="5.162480">
        <ele>0.582433</ele>
        <time>2026-08-29T16:14:06.910Z</time>
      </trkpt>
      <trkpt lat="52.293735" lon="5.162647">
        <ele>0.618531</ele>
        <time>2026-08-29T16:14:09.896Z</time>
      </trkpt>
      <trkpt lat="52.293767" lon="5.162811">
        <ele>0.653625</ele>
        <time>2026-08-29T16:14:12.894Z</time>
      </trkpt>
      <trkpt lat="52.293826" lon="5.162980">
        <ele>0.693296</ele>
        <time>2026-08-29T16:14:15.894Z</time>
      </trkpt>
      <trkpt lat="52.293892" lon="5.163130">
        <ele>0.730966</ele>
        <time>2026-08-29T16:14:18.894Z</time>
      </trkpt>
      <trkpt lat="52.293966" lon="5.163278">
        <ele>0.769937</ele>
        <time>2026-08-29T16:14:21.894Z</time>
      </trkpt>
      <trkpt lat="52.294051" lon="5.163421">
        <ele>0.810589</ele>
        <time>2026-08-29T16:14:24.896Z</time>
      </trkpt>
      <trkpt lat="52.294136" lon="5.163561">
        <ele>0.850805</ele>
        <time>2026-08-29T16:14:27.893Z</time>
      </trkpt>
      <trkpt lat="52.294214" lon="5.163695">
        <ele>0.888517</ele>
        <time>2026-08-29T16:14:30.902Z</time>
      </trkpt>
      <trkpt lat="52.294285" lon="5.163821">
        <ele>0.923444</ele>
        <time>2026-08-29T16:14:33.902Z</time>
      </trkpt>
      <trkpt lat="52.294347" lon="5.163963">
        <ele>0.959012</ele>
        <time>2026-08-29T16:14:36.895Z</time>
      </trkpt>
      <trkpt lat="52.294405" lon="5.164105">
        <ele>0.993822</ele>
        <time>2026-08-29T16:14:39.905Z</time>
      </trkpt>
      <trkpt lat="52.294473" lon="5.164224">
        <ele>1.027023</ele>
        <time>2026-08-29T16:14:42.895Z</time>
      </trkpt>
      <trkpt lat="52.294541" lon="5.164347">
        <ele>1.060824</ele>
        <time>2026-08-29T16:14:45.902Z</time>
      </trkpt>
      <trkpt lat="52.294618" lon="5.164451">
        <ele>1.094114</ele>
        <time>2026-08-29T16:14:48.901Z</time>
      </trkpt>
      <trkpt lat="52.294713" lon="5.164516">
        <ele>1.134087</ele>
        <time>2026-08-29T16:14:52.895Z</time>
      </trkpt>
      <trkpt lat="52.294805" lon="5.164602">
        <ele>1.208698</ele>
        <time>2026-08-29T16:14:56.902Z</time>
      </trkpt>
      <trkpt lat="52.294905" lon="5.164654">
        <ele>1.282577</ele>
        <time>2026-08-29T16:15:00.895Z</time>
      </trkpt>
      <trkpt lat="52.294997" lon="5.164535">
        <ele>1.365167</ele>
        <time>2026-08-29T16:15:04.894Z</time>
      </trkpt>
      <trkpt lat="52.295094" lon="5.164442">
        <ele>1.444335</ele>
        <time>2026-08-29T16:15:08.902Z</time>
      </trkpt>
      <trkpt lat="52.295171" lon="5.164340">
        <ele>1.514105</ele>
        <time>2026-08-29T16:15:11.901Z</time>
      </trkpt>
      <trkpt lat="52.295245" lon="5.164236">
        <ele>1.582806</ele>
        <time>2026-08-29T16:15:14.893Z</time>
      </trkpt>
      <trkpt lat="52.295316" lon="5.164119">
        <ele>1.653776</ele>
        <time>2026-08-29T16:15:17.892Z</time>
      </trkpt>
      <trkpt lat="52.295402" lon="5.163995">
        <ele>1.734504</ele>
        <time>2026-08-29T16:15:21.893Z</time>
      </trkpt>
      <trkpt lat="52.295488" lon="5.163894">
        <ele>1.809052</ele>
        <time>2026-08-29T16:15:25.902Z</time>
      </trkpt>
      <trkpt lat="52.295559" lon="5.163786">
        <ele>1.877326</ele>
        <time>2026-08-29T16:15:28.895Z</time>
      </trkpt>
      <trkpt lat="52.295627" lon="5.163683">
        <ele>1.942587</ele>
        <time>2026-08-29T16:15:31.901Z</time>
      </trkpt>
      <trkpt lat="52.295702" lon="5.163588">
        <ele>2.009381</ele>
        <time>2026-08-29T16:15:35.893Z</time>
      </trkpt>
      <trkpt lat="52.295778" lon="5.163478">
        <ele>2.080841</ele>
        <time>2026-08-29T16:15:44.902Z</time>
      </trkpt>
      <trkpt lat="52.295837" lon="5.163367">
        <ele>2.144164</ele>
        <time>2026-08-29T16:15:49.898Z</time>
      </trkpt>
      <trkpt lat="52.295921" lon="5.163258">
        <ele>2.219665</ele>
        <time>2026-08-29T16:15:55.894Z</time>
      </trkpt>
      <trkpt lat="52.295984" lon="5.163148">
        <ele>2.284555</ele>
        <time>2026-08-29T16:16:01.893Z</time>
      </trkpt>
      <trkpt lat="52.296004" lon="5.162997">
        <ele>2.351080</ele>
        <time>2026-08-29T16:16:09.895Z</time>
      </trkpt>
      <trkpt lat="52.296011" lon="5.162834">
        <ele>2.402015</ele>
        <time>2026-08-29T16:16:15.902Z</time>
      </trkpt>
      <trkpt lat="52.295995" lon="5.162656">
        <ele>2.432079</ele>
        <time>2026-08-29T16:16:20.894Z</time>
      </trkpt>
      <trkpt lat="52.295978" lon="5.162468">
        <ele>2.463836</ele>
        <time>2026-08-29T16:16:24.902Z</time>
      </trkpt>
      <trkpt lat="52.295961" lon="5.162287">
        <ele>2.494436</ele>
        <time>2026-08-29T16:16:28.896Z</time>
      </trkpt>
      <trkpt lat="52.295941" lon="5.162120">
        <ele>2.522873</ele>
        <time>2026-08-29T16:16:32.895Z</time>
      </trkpt>
      <trkpt lat="52.295890" lon="5.161982">
        <ele>2.549816</ele>
        <time>2026-08-29T16:16:36.894Z</time>
      </trkpt>
      <trkpt lat="52.295800" lon="5.161932">
        <ele>2.575788</ele>
        <time>2026-08-29T16:16:40.906Z</time>
      </trkpt>
      <trkpt lat="52.295685" lon="5.161942">
        <ele>2.607254</ele>
        <time>2026-08-29T16:16:44.904Z</time>
      </trkpt>
      <trkpt lat="52.295585" lon="5.161986">
        <ele>2.635549</ele>
        <time>2026-08-29T16:16:48.901Z</time>
      </trkpt>
      <trkpt lat="52.295502" lon="5.162076">
        <ele>2.662761</ele>
        <time>2026-08-29T16:16:52.903Z</time>
      </trkpt>
      <trkpt lat="52.295435" lon="5.162342">
        <ele>2.710833</ele>
        <time>2026-08-29T16:17:59.897Z</time>
      </trkpt>
      <trkpt lat="52.295418" lon="5.162498">
        <ele>2.737313</ele>
        <time>2026-08-29T16:18:08.899Z</time>
      </trkpt>
      <trkpt lat="52.295441" lon="5.162645">
        <ele>2.762668</ele>
        <time>2026-08-29T16:18:19.902Z</time>
      </trkpt>
      <trkpt lat="52.295460" lon="5.162795">
        <ele>2.788266</ele>
        <time>2026-08-29T16:18:24.898Z</time>
      </trkpt>
      <trkpt lat="52.295516" lon="5.162931">
        <ele>2.815663</ele>
        <time>2026-08-29T16:18:29.897Z</time>
      </trkpt>
      <trkpt lat="52.295575" lon="5.163066">
        <ele>2.843391</ele>
        <time>2026-08-29T16:18:35.894Z</time>
      </trkpt>
      <trkpt lat="52.295652" lon="5.163146">
        <ele>2.868318</ele>
        <time>2026-08-29T16:18:40.895Z</time>
      </trkpt>
      <trkpt lat="52.295726" lon="5.163242">
        <ele>2.867311</ele>
        <time>2026-08-29T16:18:45.900Z</time>
      </trkpt>
      <trkpt lat="52.295809" lon="5.163310">
        <ele>2.840289</ele>
        <time>2026-08-29T16:18:51.896Z</time>
      </trkpt>
      <trkpt lat="52.295910" lon="5.163252">
        <ele>2.809131</ele>
        <time>2026-08-29T16:18:59.898Z</time>
      </trkpt>
      <trkpt lat="52.295983" lon="5.163145">
        <ele>2.780595</ele>
        <time>2026-08-29T16:19:03.898Z</time>
      </trkpt>
      <trkpt lat="52.296078" lon="5.163018">
        <ele>2.744878</ele>
        <time>2026-08-29T16:19:07.896Z</time>
      </trkpt>
      <trkpt lat="52.296152" lon="5.162915">
        <ele>2.716592</ele>
        <time>2026-08-29T16:19:10.897Z</time>
      </trkpt>
      <trkpt lat="52.296250" lon="5.162825">
        <ele>2.683876</ele>
        <time>2026-08-29T16:19:14.892Z</time>
      </trkpt>
      <trkpt lat="52.296321" lon="5.162713">
        <ele>2.655161</ele>
        <time>2026-08-29T16:19:19.899Z</time>
      </trkpt>
      <trkpt lat="52.296403" lon="5.162606">
        <ele>2.624625</ele>
        <time>2026-08-29T16:19:23.899Z</time>
      </trkpt>
      <trkpt lat="52.296475" lon="5.162510">
        <ele>2.597584</ele>
        <time>2026-08-29T16:19:26.893Z</time>
      </trkpt>
      <trkpt lat="52.296560" lon="5.162392">
        <ele>2.565129</ele>
        <time>2026-08-29T16:19:30.894Z</time>
      </trkpt>
      <trkpt lat="52.296743" lon="5.162167">
        <ele>2.498485</ele>
        <time>2026-08-29T16:19:55.893Z</time>
      </trkpt>
      <trkpt lat="52.296815" lon="5.162056">
        <ele>2.469682</ele>
        <time>2026-08-29T16:19:59.896Z</time>
      </trkpt>
      <trkpt lat="52.296895" lon="5.161955">
        <ele>2.440264</ele>
        <time>2026-08-29T16:20:03.894Z</time>
      </trkpt>
      <trkpt lat="52.296979" lon="5.161851">
        <ele>2.409596</ele>
        <time>2026-08-29T16:20:07.899Z</time>
      </trkpt>
      <trkpt lat="52.297071" lon="5.161743">
        <ele>2.376631</ele>
        <time>2026-08-29T16:20:11.896Z</time>
      </trkpt>
      <trkpt lat="52.297152" lon="5.161668">
        <ele>2.349291</ele>
        <time>2026-08-29T16:20:19.894Z</time>
      </trkpt>
      <trkpt lat="52.297204" lon="5.161542">
        <ele>2.321409</ele>
        <time>2026-08-29T16:20:25.898Z</time>
      </trkpt>
      <trkpt lat="52.297172" lon="5.161357">
        <ele>2.286144</ele>
        <time>2026-08-29T16:20:31.895Z</time>
      </trkpt>
      <trkpt lat="52.297105" lon="5.161195">
        <ele>2.250272</ele>
        <time>2026-08-29T16:20:34.896Z</time>
      </trkpt>
      <trkpt lat="52.297032" lon="5.161043">
        <ele>2.214822</ele>
        <time>2026-08-29T16:20:37.905Z</time>
      </trkpt>
      <trkpt lat="52.296972" lon="5.160891">
        <ele>2.181638</ele>
        <time>2026-08-29T16:20:40.895Z</time>
      </trkpt>
      <trkpt lat="52.296921" lon="5.160757">
        <ele>2.152688</ele>
        <time>2026-08-29T16:20:43.894Z</time>
      </trkpt>
      <trkpt lat="52.296866" lon="5.160585">
        <ele>2.117086</ele>
        <time>2026-08-29T16:20:47.905Z</time>
      </trkpt>
      <trkpt lat="52.296808" lon="5.160443">
        <ele>2.085764</ele>
        <time>2026-08-29T16:20:50.899Z</time>
      </trkpt>
      <trkpt lat="52.296763" lon="5.160312">
        <ele>2.058204</ele>
        <time>2026-08-29T16:20:53.898Z</time>
      </trkpt>
      <trkpt lat="52.296695" lon="5.160152">
        <ele>2.022465</ele>
        <time>2026-08-29T16:20:57.905Z</time>
      </trkpt>
      <trkpt lat="52.296649" lon="5.160022">
        <ele>1.994916</ele>
        <time>2026-08-29T16:21:00.905Z</time>
      </trkpt>
      <trkpt lat="52.296578" lon="5.159867">
        <ele>1.959394</ele>
        <time>2026-08-29T16:21:04.905Z</time>
      </trkpt>
      <trkpt lat="52.296528" lon="5.159736">
        <ele>1.931069</ele>
        <time>2026-08-29T16:21:07.896Z</time>
      </trkpt>
      <trkpt lat="52.296484" lon="5.159608">
        <ele>1.904136</ele>
        <time>2026-08-29T16:21:10.901Z</time>
      </trkpt>
      <trkpt lat="52.296439" lon="5.159467">
        <ele>1.874962</ele>
        <time>2026-08-29T16:21:14.896Z</time>
      </trkpt>
      <trkpt lat="52.296360" lon="5.159342">
        <ele>1.841991</ele>
        <time>2026-08-29T16:21:19.905Z</time>
      </trkpt>
      <trkpt lat="52.296283" lon="5.159244">
        <ele>1.827550</ele>
        <time>2026-08-29T16:21:23.904Z</time>
      </trkpt>
      <trkpt lat="52.296209" lon="5.159145">
        <ele>1.877206</ele>
        <time>2026-08-29T16:21:27.905Z</time>
      </trkpt>
      <trkpt lat="52.296243" lon="5.158967">
        <ele>1.936437</ele>
        <time>2026-08-29T16:21:32.905Z</time>
      </trkpt>
      <trkpt lat="52.296303" lon="5.158854">
        <ele>1.983968</ele>
        <time>2026-08-29T16:21:35.897Z</time>
      </trkpt>
      <trkpt lat="52.296358" lon="5.158730">
        <ele>2.032621</ele>
        <time>2026-08-29T16:21:38.897Z</time>
      </trkpt>
      <trkpt lat="52.296409" lon="5.158606">
        <ele>2.080084</ele>
        <time>2026-08-29T16:21:41.897Z</time>
      </trkpt>
      <trkpt lat="52.296569" lon="5.158328">
        <ele>2.201334</ele>
        <time>2026-08-29T16:22:35.898Z</time>
      </trkpt>
      <trkpt lat="52.296621" lon="5.158193">
        <ele>2.252009</ele>
        <time>2026-08-29T16:22:39.897Z</time>
      </trkpt>
      <trkpt lat="52.296682" lon="5.158071">
        <ele>2.302061</ele>
        <time>2026-08-29T16:22:43.899Z</time>
      </trkpt>
      <trkpt lat="52.296781" lon="5.158000">
        <ele>2.358204</ele>
        <time>2026-08-29T16:22:47.898Z</time>
      </trkpt>
      <trkpt lat="52.296885" lon="5.158011">
        <ele>2.412330</ele>
        <time>2026-08-29T16:22:50.896Z</time>
      </trkpt>
      <trkpt lat="52.296996" lon="5.158051">
        <ele>2.471361</ele>
        <time>2026-08-29T16:22:53.898Z</time>
      </trkpt>
      <trkpt lat="52.297114" lon="5.158090">
        <ele>2.533884</ele>
        <time>2026-08-29T16:22:56.899Z</time>
      </trkpt>
      <trkpt lat="52.297238" lon="5.158132">
        <ele>2.599650</ele>
        <time>2026-08-29T16:22:59.899Z</time>
      </trkpt>
      <trkpt lat="52.297354" lon="5.158168">
        <ele>2.660970</ele>
        <time>2026-08-29T16:23:02.899Z</time>
      </trkpt>
      <trkpt lat="52.297471" lon="5.158210">
        <ele>2.723181</ele>
        <time>2026-08-29T16:23:05.899Z</time>
      </trkpt>
      <trkpt lat="52.297591" lon="5.158249">
        <ele>2.759589</ele>
        <time>2026-08-29T16:23:08.898Z</time>
      </trkpt>
      <trkpt lat="52.297716" lon="5.158288">
        <ele>2.773618</ele>
        <time>2026-08-29T16:23:11.904Z</time>
      </trkpt>
      <trkpt lat="52.297846" lon="5.158297">
        <ele>2.787963</ele>
        <time>2026-08-29T16:23:14.897Z</time>
      </trkpt>
      <trkpt lat="52.297961" lon="5.158229">
        <ele>2.801445</ele>
        <time>2026-08-29T16:23:17.900Z</time>
      </trkpt>
      <trkpt lat="52.298041" lon="5.158121">
        <ele>2.812882</ele>
        <time>2026-08-29T16:23:20.897Z</time>
      </trkpt>
      <trkpt lat="52.298113" lon="5.158013">
        <ele>2.823654</ele>
        <time>2026-08-29T16:23:23.913Z</time>
      </trkpt>
      <trkpt lat="52.298200" lon="5.157892">
        <ele>2.836245</ele>
        <time>2026-08-29T16:23:26.899Z</time>
      </trkpt>
      <trkpt lat="52.298294" lon="5.157750">
        <ele>2.850354</ele>
        <time>2026-08-29T16:23:29.900Z</time>
      </trkpt>
      <trkpt lat="52.298375" lon="5.157597">
        <ele>2.863997</ele>
        <time>2026-08-29T16:23:32.900Z</time>
      </trkpt>
      <trkpt lat="52.298450" lon="5.157423">
        <ele>2.878349</ele>
        <time>2026-08-29T16:23:35.902Z</time>
      </trkpt>
      <trkpt lat="52.298517" lon="5.157253">
        <ele>2.891985</ele>
        <time>2026-08-29T16:23:38.898Z</time>
      </trkpt>
      <trkpt lat="52.298576" lon="5.157076">
        <ele>2.905576</ele>
        <time>2026-08-29T16:23:41.898Z</time>
      </trkpt>
      <trkpt lat="52.298639" lon="5.156926">
        <ele>2.917844</ele>
        <time>2026-08-29T16:23:44.898Z</time>
      </trkpt>
      <trkpt lat="52.298718" lon="5.156784">
        <ele>2.930787</ele>
        <time>2026-08-29T16:23:47.899Z</time>
      </trkpt>
      <trkpt lat="52.298833" lon="5.156721">
        <ele>2.944158</ele>
        <time>2026-08-29T16:23:50.897Z</time>
      </trkpt>
      <trkpt lat="52.298929" lon="5.156649">
        <ele>2.981898</ele>
        <time>2026-08-29T16:23:53.897Z</time>
      </trkpt>
      <trkpt lat="52.299034" lon="5.156661">
        <ele>3.051387</ele>
        <time>2026-08-29T16:23:56.899Z</time>
      </trkpt>
      <trkpt lat="52.299132" lon="5.156779">
        <ele>3.131733</ele>
        <time>2026-08-29T16:23:59.898Z</time>
      </trkpt>
      <trkpt lat="52.299226" lon="5.156878">
        <ele>3.205548</ele>
        <time>2026-08-29T16:24:02.901Z</time>
      </trkpt>
      <trkpt lat="52.299322" lon="5.156940">
        <ele>3.273690</ele>
        <time>2026-08-29T16:24:05.901Z</time>
      </trkpt>
      <trkpt lat="52.299426" lon="5.156900">
        <ele>3.344223</ele>
        <time>2026-08-29T16:24:08.899Z</time>
      </trkpt>
      <trkpt lat="52.299524" lon="5.156780">
        <ele>3.425050</ele>
        <time>2026-08-29T16:24:11.898Z</time>
      </trkpt>
      <trkpt lat="52.299608" lon="5.156646">
        <ele>3.502522</ele>
        <time>2026-08-29T16:24:14.899Z</time>
      </trkpt>
      <trkpt lat="52.299698" lon="5.156515">
        <ele>3.582068</ele>
        <time>2026-08-29T16:24:17.900Z</time>
      </trkpt>
      <trkpt lat="52.299799" lon="5.156443">
        <ele>3.654807</ele>
        <time>2026-08-29T16:24:20.898Z</time>
      </trkpt>
      <trkpt lat="52.299905" lon="5.156550">
        <ele>3.737047</ele>
        <time>2026-08-29T16:24:23.898Z</time>
      </trkpt>
      <trkpt lat="52.300000" lon="5.156697">
        <ele>3.823392</ele>
        <time>2026-08-29T16:24:26.893Z</time>
      </trkpt>
      <trkpt lat="52.300093" lon="5.156830">
        <ele>3.904957</ele>
        <time>2026-08-29T16:24:29.893Z</time>
      </trkpt>
      <trkpt lat="52.300186" lon="5.156966">
        <ele>3.987324</ele>
        <time>2026-08-29T16:24:32.905Z</time>
      </trkpt>
      <trkpt lat="52.300283" lon="5.157078">
        <ele>4.065716</ele>
        <time>2026-08-29T16:24:35.905Z</time>
      </trkpt>
      <trkpt lat="52.300395" lon="5.157144">
        <ele>4.128085</ele>
        <time>2026-08-29T16:24:38.897Z</time>
      </trkpt>
      <trkpt lat="52.300520" lon="5.157137">
        <ele>3.998061</ele>
        <time>2026-08-29T16:24:41.893Z</time>
      </trkpt>
      <trkpt lat="52.300639" lon="5.157063">
        <ele>3.865708</ele>
        <time>2026-08-29T16:24:44.899Z</time>
      </trkpt>
      <trkpt lat="52.300742" lon="5.156994">
        <ele>3.749994</ele>
        <time>2026-08-29T16:24:47.892Z</time>
      </trkpt>
      <trkpt lat="52.300833" lon="5.156919">
        <ele>3.644056</ele>
        <time>2026-08-29T16:24:50.896Z</time>
      </trkpt>
      <trkpt lat="52.300941" lon="5.156845">
        <ele>3.522324</ele>
        <time>2026-08-29T16:24:53.899Z</time>
      </trkpt>
      <trkpt lat="52.301029" lon="5.156799">
        <ele>3.426281</ele>
        <time>2026-08-29T16:24:55.898Z</time>
      </trkpt>
      <trkpt lat="52.301127" lon="5.156824">
        <ele>3.323169</ele>
        <time>2026-08-29T16:24:57.899Z</time>
      </trkpt>
      <trkpt lat="52.301223" lon="5.156886">
        <ele>3.215868</ele>
        <time>2026-08-29T16:24:59.914Z</time>
      </trkpt>
      <trkpt lat="52.301315" lon="5.156827">
        <ele>3.113135</ele>
        <time>2026-08-29T16:25:01.898Z</time>
      </trkpt>
      <trkpt lat="52.301404" lon="5.156730">
        <ele>3.001946</ele>
        <time>2026-08-29T16:25:03.899Z</time>
      </trkpt>
      <trkpt lat="52.301499" lon="5.156638">
        <ele>2.887167</ele>
        <time>2026-08-29T16:25:05.901Z</time>
      </trkpt>
      <trkpt lat="52.301593" lon="5.156544">
        <ele>2.772624</ele>
        <time>2026-08-29T16:25:07.899Z</time>
      </trkpt>
      <trkpt lat="52.301680" lon="5.156449">
        <ele>2.663870</ele>
        <time>2026-08-29T16:25:09.900Z</time>
      </trkpt>
      <trkpt lat="52.301769" lon="5.156350">
        <ele>2.551972</ele>
        <time>2026-08-29T16:25:11.897Z</time>
      </trkpt>
      <trkpt lat="52.301861" lon="5.156259">
        <ele>2.440196</ele>
        <time>2026-08-29T16:25:13.897Z</time>
      </trkpt>
      <trkpt lat="52.301951" lon="5.156161">
        <ele>2.327790</ele>
        <time>2026-08-29T16:25:15.897Z</time>
      </trkpt>
      <trkpt lat="52.302044" lon="5.156065">
        <ele>2.264121</ele>
        <time>2026-08-29T16:25:17.899Z</time>
      </trkpt>
      <trkpt lat="52.302135" lon="5.155964">
        <ele>2.255659</ele>
        <time>2026-08-29T16:25:19.898Z</time>
      </trkpt>
      <trkpt lat="52.302227" lon="5.155866">
        <ele>2.247211</ele>
        <time>2026-08-29T16:25:21.899Z</time>
      </trkpt>
      <trkpt lat="52.302320" lon="5.155767">
        <ele>2.238672</ele>
        <time>2026-08-29T16:25:23.898Z</time>
      </trkpt>
      <trkpt lat="52.302413" lon="5.155665">
        <ele>2.230056</ele>
        <time>2026-08-29T16:25:25.898Z</time>
      </trkpt>
      <trkpt lat="52.302499" lon="5.155547">
        <ele>2.221419</ele>
        <time>2026-08-29T16:25:27.897Z</time>
      </trkpt>
      <trkpt lat="52.302580" lon="5.155421">
        <ele>2.212817</ele>
        <time>2026-08-29T16:25:29.900Z</time>
      </trkpt>
      <trkpt lat="52.302655" lon="5.155282">
        <ele>2.204095</ele>
        <time>2026-08-29T16:25:31.899Z</time>
      </trkpt>
      <trkpt lat="52.302727" lon="5.155135">
        <ele>2.195233</ele>
        <time>2026-08-29T16:25:33.898Z</time>
      </trkpt>
      <trkpt lat="52.302792" lon="5.154987">
        <ele>2.186660</ele>
        <time>2026-08-29T16:25:35.898Z</time>
      </trkpt>
      <trkpt lat="52.302860" lon="5.154835">
        <ele>2.177799</ele>
        <time>2026-08-29T16:25:37.899Z</time>
      </trkpt>
      <trkpt lat="52.302926" lon="5.154682">
        <ele>2.168989</ele>
        <time>2026-08-29T16:25:39.897Z</time>
      </trkpt>
      <trkpt lat="52.302992" lon="5.154527">
        <ele>2.160103</ele>
        <time>2026-08-29T16:25:41.898Z</time>
      </trkpt>
      <trkpt lat="52.303056" lon="5.154363">
        <ele>2.150949</ele>
        <time>2026-08-29T16:25:43.899Z</time>
      </trkpt>
      <trkpt lat="52.303128" lon="5.154207">
        <ele>2.141753</ele>
        <time>2026-08-29T16:25:45.901Z</time>
      </trkpt>
      <trkpt lat="52.303196" lon="5.154052">
        <ele>2.132778</ele>
        <time>2026-08-29T16:25:47.900Z</time>
      </trkpt>
      <trkpt lat="52.303267" lon="5.153897">
        <ele>2.084301</ele>
        <time>2026-08-29T16:25:49.899Z</time>
      </trkpt>
      <trkpt lat="52.303342" lon="5.153743">
        <ele>2.015369</ele>
        <time>2026-08-29T16:25:51.899Z</time>
      </trkpt>
      <trkpt lat="52.303419" lon="5.153597">
        <ele>1.947863</ele>
        <time>2026-08-29T16:25:53.899Z</time>
      </trkpt>
      <trkpt lat="52.303497" lon="5.153462">
        <ele>1.882832</ele>
        <time>2026-08-29T16:25:55.894Z</time>
      </trkpt>
      <trkpt lat="52.303577" lon="5.153328">
        <ele>1.817261</ele>
        <time>2026-08-29T16:25:57.898Z</time>
      </trkpt>
      <trkpt lat="52.303662" lon="5.153189">
        <ele>1.748432</ele>
        <time>2026-08-29T16:25:59.897Z</time>
      </trkpt>
      <trkpt lat="52.303744" lon="5.153065">
        <ele>1.684482</ele>
        <time>2026-08-29T16:26:01.898Z</time>
      </trkpt>
      <trkpt lat="52.303826" lon="5.152945">
        <ele>1.621475</ele>
        <time>2026-08-29T16:26:03.899Z</time>
      </trkpt>
      <trkpt lat="52.303904" lon="5.152828">
        <ele>1.560871</ele>
        <time>2026-08-29T16:26:05.901Z</time>
      </trkpt>
      <trkpt lat="52.303992" lon="5.152708">
        <ele>1.495264</ele>
        <time>2026-08-29T16:26:07.890Z</time>
      </trkpt>
      <trkpt lat="52.304084" lon="5.152591">
        <ele>1.428531</ele>
        <time>2026-08-29T16:26:09.897Z</time>
      </trkpt>
      <trkpt lat="52.304171" lon="5.152483">
        <ele>1.365989</ele>
        <time>2026-08-29T16:26:11.899Z</time>
      </trkpt>
      <trkpt lat="52.304258" lon="5.152375">
        <ele>1.303447</ele>
        <time>2026-08-29T16:26:13.899Z</time>
      </trkpt>
      <trkpt lat="52.304345" lon="5.152282">
        <ele>1.243934</ele>
        <time>2026-08-29T16:26:15.898Z</time>
      </trkpt>
      <trkpt lat="52.304431" lon="5.152186">
        <ele>1.184312</ele>
        <time>2026-08-29T16:26:17.899Z</time>
      </trkpt>
      <trkpt lat="52.304513" lon="5.152088">
        <ele>1.126158</ele>
        <time>2026-08-29T16:26:19.899Z</time>
      </trkpt>
      <trkpt lat="52.304595" lon="5.151981">
        <ele>1.071424</ele>
        <time>2026-08-29T16:26:21.898Z</time>
      </trkpt>
      <trkpt lat="52.304670" lon="5.151854">
        <ele>1.019364</ele>
        <time>2026-08-29T16:26:23.900Z</time>
      </trkpt>
      <trkpt lat="52.304743" lon="5.151716">
        <ele>0.965561</ele>
        <time>2026-08-29T16:26:25.897Z</time>
      </trkpt>
      <trkpt lat="52.304818" lon="5.151574">
        <ele>0.910234</ele>
        <time>2026-08-29T16:26:27.899Z</time>
      </trkpt>
      <trkpt lat="52.304891" lon="5.151440">
        <ele>0.857317</ele>
        <time>2026-08-29T16:26:29.902Z</time>
      </trkpt>
      <trkpt lat="52.304967" lon="5.151296">
        <ele>0.801229</ele>
        <time>2026-08-29T16:26:31.900Z</time>
      </trkpt>
      <trkpt lat="52.305046" lon="5.151156">
        <ele>0.745058</ele>
        <time>2026-08-29T16:26:33.898Z</time>
      </trkpt>
      <trkpt lat="52.305120" lon="5.151018">
        <ele>0.690938</ele>
        <time>2026-08-29T16:26:35.899Z</time>
      </trkpt>
      <trkpt lat="52.305194" lon="5.150876">
        <ele>0.635926</ele>
        <time>2026-08-29T16:26:37.898Z</time>
      </trkpt>
      <trkpt lat="52.305268" lon="5.150740">
        <ele>0.582248</ele>
        <time>2026-08-29T16:26:39.900Z</time>
      </trkpt>
      <trkpt lat="52.305343" lon="5.150611">
        <ele>0.529762</ele>
        <time>2026-08-29T16:26:41.900Z</time>
      </trkpt>
      <trkpt lat="52.305431" lon="5.150503">
        <ele>0.476708</ele>
        <time>2026-08-29T16:26:43.900Z</time>
      </trkpt>
      <trkpt lat="52.305534" lon="5.150427">
        <ele>0.422219</ele>
        <time>2026-08-29T16:26:45.902Z</time>
      </trkpt>
      <trkpt lat="52.305649" lon="5.150369">
        <ele>0.364188</ele>
        <time>2026-08-29T16:26:47.899Z</time>
      </trkpt>
      <trkpt lat="52.305769" lon="5.150338">
        <ele>0.305605</ele>
        <time>2026-08-29T16:26:49.900Z</time>
      </trkpt>
      <trkpt lat="52.305888" lon="5.150323">
        <ele>0.248051</ele>
        <time>2026-08-29T16:26:51.901Z</time>
      </trkpt>
      <trkpt lat="52.305996" lon="5.150319">
        <ele>0.352971</ele>
        <time>2026-08-29T16:26:53.901Z</time>
      </trkpt>
      <trkpt lat="52.306279" lon="5.150311">
        <ele>0.802177</ele>
        <time>2026-08-29T16:26:58.898Z</time>
      </trkpt>
      <trkpt lat="52.306404" lon="5.150269">
        <ele>1.004704</ele>
        <time>2026-08-29T16:27:00.901Z</time>
      </trkpt>
      <trkpt lat="52.306532" lon="5.150251">
        <ele>1.208598</ele>
        <time>2026-08-29T16:27:02.901Z</time>
      </trkpt>
      <trkpt lat="52.306648" lon="5.150242">
        <ele>1.392904</ele>
        <time>2026-08-29T16:27:04.898Z</time>
      </trkpt>
      <trkpt lat="52.306735" lon="5.150154">
        <ele>1.555252</ele>
        <time>2026-08-29T16:27:06.901Z</time>
      </trkpt>
      <trkpt lat="52.306826" lon="5.149991">
        <ele>1.769440</ele>
        <time>2026-08-29T16:27:09.898Z</time>
      </trkpt>
      <trkpt lat="52.306886" lon="5.149870">
        <ele>1.920616</ele>
        <time>2026-08-29T16:27:11.896Z</time>
      </trkpt>
      <trkpt lat="52.306941" lon="5.149746">
        <ele>2.069269</ele>
        <time>2026-08-29T16:27:13.900Z</time>
      </trkpt>
      <trkpt lat="52.307017" lon="5.149560">
        <ele>2.286353</ele>
        <time>2026-08-29T16:27:16.902Z</time>
      </trkpt>
      <trkpt lat="52.307064" lon="5.149430">
        <ele>2.432905</ele>
        <time>2026-08-29T16:27:18.897Z</time>
      </trkpt>
      <trkpt lat="52.307108" lon="5.149293">
        <ele>2.583071</ele>
        <time>2026-08-29T16:27:20.901Z</time>
      </trkpt>
      <trkpt lat="52.307134" lon="5.149147">
        <ele>2.730633</ele>
        <time>2026-08-29T16:27:22.902Z</time>
      </trkpt>
      <trkpt lat="52.307146" lon="5.148993">
        <ele>2.881280</ele>
        <time>2026-08-29T16:27:24.902Z</time>
      </trkpt>
      <trkpt lat="52.307151" lon="5.148829">
        <ele>3.040619</ele>
        <time>2026-08-29T16:27:26.901Z</time>
      </trkpt>
      <trkpt lat="52.307153" lon="5.148670">
        <ele>3.097568</ele>
        <time>2026-08-29T16:27:28.899Z</time>
      </trkpt>
      <trkpt lat="52.307155" lon="5.148509">
        <ele>3.112723</ele>
        <time>2026-08-29T16:27:30.902Z</time>
      </trkpt>
      <trkpt lat="52.307153" lon="5.148344">
        <ele>3.128254</ele>
        <time>2026-08-29T16:27:32.901Z</time>
      </trkpt>
      <trkpt lat="52.307154" lon="5.148178">
        <ele>3.143876</ele>
        <time>2026-08-29T16:27:34.898Z</time>
      </trkpt>
      <trkpt lat="52.307155" lon="5.148011">
        <ele>3.159593</ele>
        <time>2026-08-29T16:27:36.902Z</time>
      </trkpt>
      <trkpt lat="52.307157" lon="5.147854">
        <ele>3.174371</ele>
        <time>2026-08-29T16:27:38.901Z</time>
      </trkpt>
      <trkpt lat="52.307182" lon="5.147709">
        <ele>3.188549</ele>
        <time>2026-08-29T16:27:40.902Z</time>
      </trkpt>
      <trkpt lat="52.307269" lon="5.147581">
        <ele>3.206561</ele>
        <time>2026-08-29T16:27:43.900Z</time>
      </trkpt>
      <trkpt lat="52.307359" lon="5.147563">
        <ele>3.220516</ele>
        <time>2026-08-29T16:27:50.899Z</time>
      </trkpt>
      <trkpt lat="52.307406" lon="5.147425">
        <ele>3.235382</ele>
        <time>2026-08-29T16:27:54.900Z</time>
      </trkpt>
      <trkpt lat="52.307393" lon="5.147243">
        <ele>3.252626</ele>
        <time>2026-08-29T16:27:57.902Z</time>
      </trkpt>
      <trkpt lat="52.307382" lon="5.147039">
        <ele>3.271899</ele>
        <time>2026-08-29T16:28:00.900Z</time>
      </trkpt>
      <trkpt lat="52.307376" lon="5.146889">
        <ele>3.286045</ele>
        <time>2026-08-29T16:28:02.902Z</time>
      </trkpt>
      <trkpt lat="52.307371" lon="5.146727">
        <ele>3.301310</ele>
        <time>2026-08-29T16:28:04.901Z</time>
      </trkpt>
      <trkpt lat="52.307362" lon="5.146555">
        <ele>3.317556</ele>
        <time>2026-08-29T16:28:06.897Z</time>
      </trkpt>
      <trkpt lat="52.307355" lon="5.146387">
        <ele>3.333402</ele>
        <time>2026-08-29T16:28:08.893Z</time>
      </trkpt>
      <trkpt lat="52.307339" lon="5.146215">
        <ele>3.349775</ele>
        <time>2026-08-29T16:28:10.893Z</time>
      </trkpt>
      <trkpt lat="52.307326" lon="5.146038">
        <ele>3.351485</ele>
        <time>2026-08-29T16:28:12.892Z</time>
      </trkpt>
      <trkpt lat="52.307307" lon="5.145870">
        <ele>3.274471</ele>
        <time>2026-08-29T16:28:14.893Z</time>
      </trkpt>
      <trkpt lat="52.307288" lon="5.145704">
        <ele>3.198343</ele>
        <time>2026-08-29T16:28:16.894Z</time>
      </trkpt>
      <trkpt lat="52.307269" lon="5.145524">
        <ele>3.116005</ele>
        <time>2026-08-29T16:28:18.905Z</time>
      </trkpt>
      <trkpt lat="52.307250" lon="5.145341">
        <ele>3.032333</ele>
        <time>2026-08-29T16:28:20.905Z</time>
      </trkpt>
      <trkpt lat="52.307228" lon="5.145151">
        <ele>2.945165</ele>
        <time>2026-08-29T16:28:22.897Z</time>
      </trkpt>
      <trkpt lat="52.307209" lon="5.144960">
        <ele>2.857936</ele>
        <time>2026-08-29T16:28:24.905Z</time>
      </trkpt>
      <trkpt lat="52.307187" lon="5.144776">
        <ele>2.773423</ele>
        <time>2026-08-29T16:28:26.899Z</time>
      </trkpt>
      <trkpt lat="52.307170" lon="5.144595">
        <ele>2.690877</ele>
        <time>2026-08-29T16:28:28.905Z</time>
      </trkpt>
      <trkpt lat="52.307159" lon="5.144432">
        <ele>2.616955</ele>
        <time>2026-08-29T16:28:30.905Z</time>
      </trkpt>
      <trkpt lat="52.307235" lon="5.144273">
        <ele>2.525981</ele>
        <time>2026-08-29T16:28:33.893Z</time>
      </trkpt>
      <trkpt lat="52.307324" lon="5.144223">
        <ele>2.456603</ele>
        <time>2026-08-29T16:28:35.893Z</time>
      </trkpt>
      <trkpt lat="52.307412" lon="5.144173">
        <ele>2.387922</ele>
        <time>2026-08-29T16:28:37.896Z</time>
      </trkpt>
      <trkpt lat="52.307501" lon="5.144122">
        <ele>2.318397</ele>
        <time>2026-08-29T16:28:39.905Z</time>
      </trkpt>
      <trkpt lat="52.307592" lon="5.144072">
        <ele>2.247623</ele>
        <time>2026-08-29T16:28:41.898Z</time>
      </trkpt>
      <trkpt lat="52.307685" lon="5.144015">
        <ele>2.174404</ele>
        <time>2026-08-29T16:28:43.905Z</time>
      </trkpt>
      <trkpt lat="52.307781" lon="5.143954">
        <ele>2.098475</ele>
        <time>2026-08-29T16:28:45.905Z</time>
      </trkpt>
      <trkpt lat="52.307881" lon="5.143899">
        <ele>2.064165</ele>
        <time>2026-08-29T16:28:47.894Z</time>
      </trkpt>
      <trkpt lat="52.307980" lon="5.143835">
        <ele>2.183788</ele>
        <time>2026-08-29T16:28:49.900Z</time>
      </trkpt>
      <trkpt lat="52.308082" lon="5.143775">
        <ele>2.305595</ele>
        <time>2026-08-29T16:28:51.897Z</time>
      </trkpt>
      <trkpt lat="52.308182" lon="5.143712">
        <ele>2.426016</ele>
        <time>2026-08-29T16:28:53.894Z</time>
      </trkpt>
      <trkpt lat="52.308285" lon="5.143652">
        <ele>2.548881</ele>
        <time>2026-08-29T16:28:55.899Z</time>
      </trkpt>
      <trkpt lat="52.308390" lon="5.143575">
        <ele>2.678190</ele>
        <time>2026-08-29T16:28:57.905Z</time>
      </trkpt>
      <trkpt lat="52.308497" lon="5.143512">
        <ele>2.805982</ele>
        <time>2026-08-29T16:28:59.905Z</time>
      </trkpt>
      <trkpt lat="52.308599" lon="5.143449">
        <ele>2.928502</ele>
        <time>2026-08-29T16:29:01.905Z</time>
      </trkpt>
      <trkpt lat="52.308700" lon="5.143387">
        <ele>3.049728</ele>
        <time>2026-08-29T16:29:03.895Z</time>
      </trkpt>
      <trkpt lat="52.308802" lon="5.143322">
        <ele>3.172741</ele>
        <time>2026-08-29T16:29:05.905Z</time>
      </trkpt>
      <trkpt lat="52.308902" lon="5.143253">
        <ele>3.294703</ele>
        <time>2026-08-29T16:29:07.893Z</time>
      </trkpt>
      <trkpt lat="52.308998" lon="5.143189">
        <ele>3.411198</ele>
        <time>2026-08-29T16:29:09.905Z</time>
      </trkpt>
      <trkpt lat="52.309093" lon="5.143117">
        <ele>3.528855</ele>
        <time>2026-08-29T16:29:11.905Z</time>
      </trkpt>
      <trkpt lat="52.309189" lon="5.143045">
        <ele>3.647534</ele>
        <time>2026-08-29T16:29:13.905Z</time>
      </trkpt>
      <trkpt lat="52.309280" lon="5.142975">
        <ele>3.760537</ele>
        <time>2026-08-29T16:29:15.900Z</time>
      </trkpt>
      <trkpt lat="52.309364" lon="5.142897">
        <ele>3.869081</ele>
        <time>2026-08-29T16:29:17.905Z</time>
      </trkpt>
      <trkpt lat="52.309450" lon="5.142809">
        <ele>3.983075</ele>
        <time>2026-08-29T16:29:19.897Z</time>
      </trkpt>
      <trkpt lat="52.309534" lon="5.142708">
        <ele>4.047233</ele>
        <time>2026-08-29T16:29:21.896Z</time>
      </trkpt>
      <trkpt lat="52.309616" lon="5.142609">
        <ele>4.014223</ele>
        <time>2026-08-29T16:29:23.895Z</time>
      </trkpt>
      <trkpt lat="52.309693" lon="5.142507">
        <ele>3.982130</ele>
        <time>2026-08-29T16:29:25.906Z</time>
      </trkpt>
      <trkpt lat="52.309767" lon="5.142400">
        <ele>3.950139</ele>
        <time>2026-08-29T16:29:27.910Z</time>
      </trkpt>
      <trkpt lat="52.309838" lon="5.142307">
        <ele>3.920678</ele>
        <time>2026-08-29T16:29:29.892Z</time>
      </trkpt>
      <trkpt lat="52.309917" lon="5.142217">
        <ele>3.889496</ele>
        <time>2026-08-29T16:29:31.892Z</time>
      </trkpt>
      <trkpt lat="52.310009" lon="5.142147">
        <ele>3.856631</ele>
        <time>2026-08-29T16:29:33.905Z</time>
      </trkpt>
      <trkpt lat="52.310108" lon="5.142088">
        <ele>3.822504</ele>
        <time>2026-08-29T16:29:35.897Z</time>
      </trkpt>
      <trkpt lat="52.310203" lon="5.142071">
        <ele>3.791551</ele>
        <time>2026-08-29T16:29:37.898Z</time>
      </trkpt>
      <trkpt lat="52.310298" lon="5.142065">
        <ele>3.760759</ele>
        <time>2026-08-29T16:29:39.897Z</time>
      </trkpt>
      <trkpt lat="52.310391" lon="5.142082">
        <ele>3.730450</ele>
        <time>2026-08-29T16:29:41.898Z</time>
      </trkpt>
      <trkpt lat="52.310486" lon="5.142113">
        <ele>3.699074</ele>
        <time>2026-08-29T16:29:43.894Z</time>
      </trkpt>
      <trkpt lat="52.310572" lon="5.142171">
        <ele>3.668945</ele>
        <time>2026-08-29T16:29:45.899Z</time>
      </trkpt>
      <trkpt lat="52.310652" lon="5.142244">
        <ele>3.639274</ele>
        <time>2026-08-29T16:29:47.898Z</time>
      </trkpt>
      <trkpt lat="52.310732" lon="5.142329">
        <ele>3.608376</ele>
        <time>2026-08-29T16:29:49.897Z</time>
      </trkpt>
      <trkpt lat="52.310811" lon="5.142444">
        <ele>3.574123</ele>
        <time>2026-08-29T16:29:52.896Z</time>
      </trkpt>
      <trkpt lat="52.310741" lon="5.142328">
        <ele>3.541848</ele>
        <time>2026-08-29T16:30:04.905Z</time>
      </trkpt>
      <trkpt lat="52.310647" lon="5.142214">
        <ele>3.503947</ele>
        <time>2026-08-29T16:30:08.893Z</time>
      </trkpt>
      <trkpt lat="52.310552" lon="5.142130">
        <ele>3.457276</ele>
        <time>2026-08-29T16:30:12.894Z</time>
      </trkpt>
      <trkpt lat="52.310548" lon="5.141980">
        <ele>3.381567</ele>
        <time>2026-08-29T16:30:16.896Z</time>
      </trkpt>
      <trkpt lat="52.310597" lon="5.141816">
        <ele>3.289524</ele>
        <time>2026-08-29T16:30:20.894Z</time>
      </trkpt>
      <trkpt lat="52.310668" lon="5.141673">
        <ele>3.196635</ele>
        <time>2026-08-29T16:30:23.905Z</time>
      </trkpt>
      <trkpt lat="52.310750" lon="5.141579">
        <ele>3.114048</ele>
        <time>2026-08-29T16:30:25.897Z</time>
      </trkpt>
      <trkpt lat="52.310852" lon="5.141492">
        <ele>3.019171</ele>
        <time>2026-08-29T16:30:27.895Z</time>
      </trkpt>
      <trkpt lat="52.310966" lon="5.141497">
        <ele>2.925114</ele>
        <time>2026-08-29T16:30:29.905Z</time>
      </trkpt>
      <trkpt lat="52.311056" lon="5.141612">
        <ele>2.830920</ele>
        <time>2026-08-29T16:30:31.895Z</time>
      </trkpt>
      <trkpt lat="52.311136" lon="5.141732">
        <ele>2.741395</ele>
        <time>2026-08-29T16:30:33.894Z</time>
      </trkpt>
      <trkpt lat="52.311214" lon="5.141837">
        <ele>2.658078</ele>
        <time>2026-08-29T16:30:35.905Z</time>
      </trkpt>
      <trkpt lat="52.311282" lon="5.141944">
        <ele>2.580255</ele>
        <time>2026-08-29T16:30:37.894Z</time>
      </trkpt>
      <trkpt lat="52.311348" lon="5.142045">
        <ele>2.505711</ele>
        <time>2026-08-29T16:30:39.906Z</time>
      </trkpt>
      <trkpt lat="52.311436" lon="5.142195">
        <ele>2.400886</ele>
        <time>2026-08-29T16:30:42.905Z</time>
      </trkpt>
      <trkpt lat="52.311520" lon="5.142335">
        <ele>2.301976</ele>
        <time>2026-08-29T16:30:45.892Z</time>
      </trkpt>
      <trkpt lat="52.311606" lon="5.142426">
        <ele>2.217498</ele>
        <time>2026-08-29T16:30:48.898Z</time>
      </trkpt>
      <trkpt lat="52.311758" lon="5.142582">
        <ele>2.069500</ele>
        <time>2026-08-29T16:32:06.905Z</time>
      </trkpt>
      <trkpt lat="52.311880" lon="5.142604">
        <ele>1.983696</ele>
        <time>2026-08-29T16:32:10.897Z</time>
      </trkpt>
      <trkpt lat="52.311989" lon="5.142608">
        <ele>1.949697</ele>
        <time>2026-08-29T16:32:13.897Z</time>
      </trkpt>
      <trkpt lat="52.312107" lon="5.142611">
        <ele>1.912896</ele>
        <time>2026-08-29T16:32:16.905Z</time>
      </trkpt>
      <trkpt lat="52.312226" lon="5.142620">
        <ele>1.875748</ele>
        <time>2026-08-29T16:32:19.898Z</time>
      </trkpt>
      <trkpt lat="52.312351" lon="5.142719">
        <ele>1.832439</ele>
        <time>2026-08-29T16:32:22.905Z</time>
      </trkpt>
      <trkpt lat="52.312423" lon="5.142811">
        <ele>1.803948</ele>
        <time>2026-08-29T16:32:24.898Z</time>
      </trkpt>
      <trkpt lat="52.312498" lon="5.142902">
        <ele>1.774828</ele>
        <time>2026-08-29T16:32:26.905Z</time>
      </trkpt>
      <trkpt lat="52.312570" lon="5.143004">
        <ele>1.745126</ele>
        <time>2026-08-29T16:32:28.896Z</time>
      </trkpt>
      <trkpt lat="52.312641" lon="5.143097">
        <ele>1.716761</ele>
        <time>2026-08-29T16:32:30.905Z</time>
      </trkpt>
      <trkpt lat="52.312716" lon="5.143180">
        <ele>1.688524</ele>
        <time>2026-08-29T16:32:32.905Z</time>
      </trkpt>
      <trkpt lat="52.312825" lon="5.143297">
        <ele>1.647868</ele>
        <time>2026-08-29T16:32:35.896Z</time>
      </trkpt>
      <trkpt lat="52.312948" lon="5.143370">
        <ele>1.607066</ele>
        <time>2026-08-29T16:32:38.894Z</time>
      </trkpt>
      <trkpt lat="52.313044" lon="5.143238">
        <ele>1.567957</ele>
        <time>2026-08-29T16:32:41.905Z</time>
      </trkpt>
      <trkpt lat="52.313096" lon="5.143112">
        <ele>1.538976</ele>
        <time>2026-08-29T16:32:43.905Z</time>
      </trkpt>
      <trkpt lat="52.313147" lon="5.142972">
        <ele>1.507907</ele>
        <time>2026-08-29T16:32:45.895Z</time>
      </trkpt>
      <trkpt lat="52.313200" lon="5.142836">
        <ele>1.477160</ele>
        <time>2026-08-29T16:32:47.895Z</time>
      </trkpt>
      <trkpt lat="52.313255" lon="5.142695">
        <ele>1.445274</ele>
        <time>2026-08-29T16:32:49.896Z</time>
      </trkpt>
      <trkpt lat="52.313307" lon="5.142551">
        <ele>1.427468</ele>
        <time>2026-08-29T16:32:51.897Z</time>
      </trkpt>
      <trkpt lat="52.313358" lon="5.142410">
        <ele>1.419622</ele>
        <time>2026-08-29T16:32:53.895Z</time>
      </trkpt>
      <trkpt lat="52.313415" lon="5.142267">
        <ele>1.411447</ele>
        <time>2026-08-29T16:32:55.894Z</time>
      </trkpt>
      <trkpt lat="52.313473" lon="5.142122">
        <ele>1.403149</ele>
        <time>2026-08-29T16:32:57.894Z</time>
      </trkpt>
      <trkpt lat="52.313528" lon="5.141981">
        <ele>1.395139</ele>
        <time>2026-08-29T16:32:59.898Z</time>
      </trkpt>
      <trkpt lat="52.313587" lon="5.141860">
        <ele>1.387727</ele>
        <time>2026-08-29T16:33:01.905Z</time>
      </trkpt>
      <trkpt lat="52.313654" lon="5.141739">
        <ele>1.379908</ele>
        <time>2026-08-29T16:33:03.898Z</time>
      </trkpt>
      <trkpt lat="52.313726" lon="5.141626">
        <ele>1.372092</ele>
        <time>2026-08-29T16:33:05.900Z</time>
      </trkpt>
      <trkpt lat="52.313798" lon="5.141509">
        <ele>1.364142</ele>
        <time>2026-08-29T16:33:07.893Z</time>
      </trkpt>
      <trkpt lat="52.313874" lon="5.141393">
        <ele>1.355999</ele>
        <time>2026-08-29T16:33:09.899Z</time>
      </trkpt>
      <trkpt lat="52.313951" lon="5.141278">
        <ele>1.347831</ele>
        <time>2026-08-29T16:33:11.899Z</time>
      </trkpt>
      <trkpt lat="52.314018" lon="5.141154">
        <ele>1.339906</ele>
        <time>2026-08-29T16:33:13.898Z</time>
      </trkpt>
      <trkpt lat="52.314078" lon="5.141015">
        <ele>1.331758</ele>
        <time>2026-08-29T16:33:15.897Z</time>
      </trkpt>
      <trkpt lat="52.314134" lon="5.140871">
        <ele>1.323585</ele>
        <time>2026-08-29T16:33:17.897Z</time>
      </trkpt>
      <trkpt lat="52.314183" lon="5.140718">
        <ele>1.315313</ele>
        <time>2026-08-29T16:33:19.898Z</time>
      </trkpt>
      <trkpt lat="52.314224" lon="5.140557">
        <ele>1.306961</ele>
        <time>2026-08-29T16:33:21.896Z</time>
      </trkpt>
      <trkpt lat="52.314272" lon="5.140396">
        <ele>1.298383</ele>
        <time>2026-08-29T16:33:23.897Z</time>
      </trkpt>
      <trkpt lat="52.314321" lon="5.140235">
        <ele>1.283663</ele>
        <time>2026-08-29T16:33:25.897Z</time>
      </trkpt>
      <trkpt lat="52.314386" lon="5.140092">
        <ele>1.240923</ele>
        <time>2026-08-29T16:33:27.898Z</time>
      </trkpt>
      <trkpt lat="52.314469" lon="5.139969">
        <ele>1.196983</ele>
        <time>2026-08-29T16:33:29.899Z</time>
      </trkpt>
      <trkpt lat="52.314563" lon="5.139867">
        <ele>1.152726</ele>
        <time>2026-08-29T16:33:31.898Z</time>
      </trkpt>
      <trkpt lat="52.314663" lon="5.139796">
        <ele>1.109956</ele>
        <time>2026-08-29T16:33:33.900Z</time>
      </trkpt>
      <trkpt lat="52.314763" lon="5.139738">
        <ele>1.068329</ele>
        <time>2026-08-29T16:33:35.898Z</time>
      </trkpt>
      <trkpt lat="52.314858" lon="5.139665">
        <ele>1.027149</ele>
        <time>2026-08-29T16:33:37.901Z</time>
      </trkpt>
      <trkpt lat="52.314951" lon="5.139586">
        <ele>0.986035</ele>
        <time>2026-08-29T16:33:39.897Z</time>
      </trkpt>
      <trkpt lat="52.315045" lon="5.139503">
        <ele>0.944125</ele>
        <time>2026-08-29T16:33:41.898Z</time>
      </trkpt>
      <trkpt lat="52.315136" lon="5.139427">
        <ele>0.904038</ele>
        <time>2026-08-29T16:33:43.898Z</time>
      </trkpt>
      <trkpt lat="52.315231" lon="5.139354">
        <ele>0.862859</ele>
        <time>2026-08-29T16:33:45.898Z</time>
      </trkpt>
      <trkpt lat="52.315329" lon="5.139301">
        <ele>0.822362</ele>
        <time>2026-08-29T16:33:47.897Z</time>
      </trkpt>
      <trkpt lat="52.315430" lon="5.139262">
        <ele>0.781647</ele>
        <time>2026-08-29T16:33:49.899Z</time>
      </trkpt>
      <trkpt lat="52.315531" lon="5.139229">
        <ele>0.741238</ele>
        <time>2026-08-29T16:33:51.892Z</time>
      </trkpt>
      <trkpt lat="52.315622" lon="5.139185">
        <ele>0.704008</ele>
        <time>2026-08-29T16:33:53.897Z</time>
      </trkpt>
      <trkpt lat="52.315711" lon="5.139114">
        <ele>0.665159</ele>
        <time>2026-08-29T16:33:55.895Z</time>
      </trkpt>
      <trkpt lat="52.315798" lon="5.139027">
        <ele>0.625153</ele>
        <time>2026-08-29T16:33:57.898Z</time>
      </trkpt>
      <trkpt lat="52.315882" lon="5.138930">
        <ele>0.585631</ele>
        <time>2026-08-29T16:33:59.899Z</time>
      </trkpt>
      <trkpt lat="52.315966" lon="5.138827">
        <ele>0.586440</ele>
        <time>2026-08-29T16:34:01.898Z</time>
      </trkpt>
      <trkpt lat="52.316046" lon="5.138706">
        <ele>0.587281</ele>
        <time>2026-08-29T16:34:03.898Z</time>
      </trkpt>
      <trkpt lat="52.316135" lon="5.138592">
        <ele>0.588152</ele>
        <time>2026-08-29T16:34:05.900Z</time>
      </trkpt>
      <trkpt lat="52.316225" lon="5.138472">
        <ele>0.589048</ele>
        <time>2026-08-29T16:34:07.899Z</time>
      </trkpt>
      <trkpt lat="52.316319" lon="5.138362">
        <ele>0.589939</ele>
        <time>2026-08-29T16:34:09.898Z</time>
      </trkpt>
      <trkpt lat="52.316419" lon="5.138284">
        <ele>0.590794</ele>
        <time>2026-08-29T16:34:11.898Z</time>
      </trkpt>
      <trkpt lat="52.316521" lon="5.138228">
        <ele>0.591623</ele>
        <time>2026-08-29T16:34:13.897Z</time>
      </trkpt>
      <trkpt lat="52.316610" lon="5.138152">
        <ele>0.592398</ele>
        <time>2026-08-29T16:34:15.898Z</time>
      </trkpt>
      <trkpt lat="52.316686" lon="5.138049">
        <ele>0.593159</ele>
        <time>2026-08-29T16:34:17.897Z</time>
      </trkpt>
      <trkpt lat="52.316769" lon="5.137952">
        <ele>0.593946</ele>
        <time>2026-08-29T16:34:19.898Z</time>
      </trkpt>
      <trkpt lat="52.316878" lon="5.137826">
        <ele>0.594975</ele>
        <time>2026-08-29T16:34:22.900Z</time>
      </trkpt>
      <trkpt lat="52.316967" lon="5.137708">
        <ele>0.595858</ele>
        <time>2026-08-29T16:34:24.898Z</time>
      </trkpt>
      <trkpt lat="52.317059" lon="5.137605">
        <ele>0.596718</ele>
        <time>2026-08-29T16:34:26.897Z</time>
      </trkpt>
      <trkpt lat="52.317139" lon="5.137494">
        <ele>0.597527</ele>
        <time>2026-08-29T16:34:28.897Z</time>
      </trkpt>
      <trkpt lat="52.317222" lon="5.137375">
        <ele>0.598378</ele>
        <time>2026-08-29T16:34:30.899Z</time>
      </trkpt>
      <trkpt lat="52.317309" lon="5.137256">
        <ele>0.599253</ele>
        <time>2026-08-29T16:34:32.897Z</time>
      </trkpt>
      <trkpt lat="52.317391" lon="5.137133">
        <ele>0.588486</ele>
        <time>2026-08-29T16:34:34.900Z</time>
      </trkpt>
      <trkpt lat="52.317483" lon="5.137008">
        <ele>0.572238</ele>
        <time>2026-08-29T16:34:36.897Z</time>
      </trkpt>
      <trkpt lat="52.317563" lon="5.136888">
        <ele>0.557491</ele>
        <time>2026-08-29T16:34:38.898Z</time>
      </trkpt>
      <trkpt lat="52.317642" lon="5.136782">
        <ele>0.543609</ele>
        <time>2026-08-29T16:34:40.899Z</time>
      </trkpt>
      <trkpt lat="52.317725" lon="5.136645">
        <ele>0.527589</ele>
        <time>2026-08-29T16:34:42.894Z</time>
      </trkpt>
      <trkpt lat="52.317802" lon="5.136533">
        <ele>0.513590</ele>
        <time>2026-08-29T16:34:44.899Z</time>
      </trkpt>
      <trkpt lat="52.317888" lon="5.136413">
        <ele>0.498232</ele>
        <time>2026-08-29T16:34:46.898Z</time>
      </trkpt>
      <trkpt lat="52.317965" lon="5.136278">
        <ele>0.482897</ele>
        <time>2026-08-29T16:34:48.899Z</time>
      </trkpt>
      <trkpt lat="52.318057" lon="5.136167">
        <ele>0.467366</ele>
        <time>2026-08-29T16:34:50.898Z</time>
      </trkpt>
      <trkpt lat="52.318175" lon="5.136108">
        <ele>0.450601</ele>
        <time>2026-08-29T16:34:52.898Z</time>
      </trkpt>
      <trkpt lat="52.318278" lon="5.136082">
        <ele>0.436442</ele>
        <time>2026-08-29T16:34:54.900Z</time>
      </trkpt>
      <trkpt lat="52.318379" lon="5.136038">
        <ele>0.422241</ele>
        <time>2026-08-29T16:34:56.905Z</time>
      </trkpt>
      <trkpt lat="52.318499" lon="5.135979">
        <ele>0.405216</ele>
        <time>2026-08-29T16:34:59.896Z</time>
      </trkpt>
      <trkpt lat="52.318591" lon="5.135914">
        <ele>0.391601</ele>
        <time>2026-08-29T16:35:01.901Z</time>
      </trkpt>
      <trkpt lat="52.318714" lon="5.135890">
        <ele>0.374771</ele>
        <time>2026-08-29T16:35:04.898Z</time>
      </trkpt>
      <trkpt lat="52.318803" lon="5.135778">
        <ele>0.359515</ele>
        <time>2026-08-29T16:35:07.904Z</time>
      </trkpt>
      <trkpt lat="52.318786" lon="5.135608">
        <ele>0.408729</ele>
        <time>2026-08-29T16:35:10.895Z</time>
      </trkpt>
      <trkpt lat="52.318788" lon="5.135441">
        <ele>0.483839</ele>
        <time>2026-08-29T16:35:12.899Z</time>
      </trkpt>
      <trkpt lat="52.318812" lon="5.135220">
        <ele>0.584774</ele>
        <time>2026-08-29T16:35:15.897Z</time>
      </trkpt>
      <trkpt lat="52.318874" lon="5.135093">
        <ele>0.657861</ele>
        <time>2026-08-29T16:35:17.901Z</time>
      </trkpt>
      <trkpt lat="52.318948" lon="5.134991">
        <ele>0.729045</ele>
        <time>2026-08-29T16:35:19.901Z</time>
      </trkpt>
      <trkpt lat="52.319030" lon="5.134889">
        <ele>0.804825</ele>
        <time>2026-08-29T16:35:21.902Z</time>
      </trkpt>
      <trkpt lat="52.319111" lon="5.134786">
        <ele>0.880296</ele>
        <time>2026-08-29T16:35:23.902Z</time>
      </trkpt>
      <trkpt lat="52.319190" lon="5.134697">
        <ele>0.950859</ele>
        <time>2026-08-29T16:35:25.899Z</time>
      </trkpt>
      <trkpt lat="52.319273" lon="5.134592">
        <ele>1.028044</ele>
        <time>2026-08-29T16:35:27.900Z</time>
      </trkpt>
      <trkpt lat="52.319358" lon="5.134483">
        <ele>1.107494</ele>
        <time>2026-08-29T16:35:29.902Z</time>
      </trkpt>
      <trkpt lat="52.319445" lon="5.134375">
        <ele>1.187835</ele>
        <time>2026-08-29T16:35:31.902Z</time>
      </trkpt>
      <trkpt lat="52.319530" lon="5.134265">
        <ele>1.267564</ele>
        <time>2026-08-29T16:35:33.901Z</time>
      </trkpt>
      <trkpt lat="52.319614" lon="5.134154">
        <ele>1.346998</ele>
        <time>2026-08-29T16:35:35.899Z</time>
      </trkpt>
      <trkpt lat="52.319701" lon="5.134049">
        <ele>1.426531</ele>
        <time>2026-08-29T16:35:37.900Z</time>
      </trkpt>
      <trkpt lat="52.319780" lon="5.133936">
        <ele>1.503728</ele>
        <time>2026-08-29T16:35:39.901Z</time>
      </trkpt>
      <trkpt lat="52.319867" lon="5.133825">
        <ele>1.584891</ele>
        <time>2026-08-29T16:35:41.899Z</time>
      </trkpt>
      <trkpt lat="52.319957" lon="5.133724">
        <ele>1.665179</ele>
        <time>2026-08-29T16:35:43.902Z</time>
      </trkpt>
      <trkpt lat="52.320052" lon="5.133636">
        <ele>1.716749</ele>
        <time>2026-08-29T16:35:45.913Z</time>
      </trkpt>
      <trkpt lat="52.320128" lon="5.133511">
        <ele>1.762128</ele>
        <time>2026-08-29T16:35:47.901Z</time>
      </trkpt>
      <trkpt lat="52.320208" lon="5.133379">
        <ele>1.809972</ele>
        <time>2026-08-29T16:35:49.902Z</time>
      </trkpt>
      <trkpt lat="52.320295" lon="5.133263">
        <ele>1.857231</ele>
        <time>2026-08-29T16:35:51.901Z</time>
      </trkpt>
      <trkpt lat="52.320386" lon="5.133154">
        <ele>1.904722</ele>
        <time>2026-08-29T16:35:53.903Z</time>
      </trkpt>
      <trkpt lat="52.320476" lon="5.133045">
        <ele>1.951873</ele>
        <time>2026-08-29T16:35:55.898Z</time>
      </trkpt>
      <trkpt lat="52.320571" lon="5.132943">
        <ele>1.999721</ele>
        <time>2026-08-29T16:35:57.902Z</time>
      </trkpt>
      <trkpt lat="52.320663" lon="5.132832">
        <ele>2.047856</ele>
        <time>2026-08-29T16:35:59.901Z</time>
      </trkpt>
      <trkpt lat="52.320759" lon="5.132723">
        <ele>2.097061</ele>
        <time>2026-08-29T16:36:01.893Z</time>
      </trkpt>
      <trkpt lat="52.320855" lon="5.132622">
        <ele>2.145121</ele>
        <time>2026-08-29T16:36:03.902Z</time>
      </trkpt>
      <trkpt lat="52.320952" lon="5.132514">
        <ele>2.194528</ele>
        <time>2026-08-29T16:36:05.897Z</time>
      </trkpt>
      <trkpt lat="52.321048" lon="5.132404">
        <ele>2.243880</ele>
        <time>2026-08-29T16:36:07.902Z</time>
      </trkpt>
      <trkpt lat="52.321139" lon="5.132299">
        <ele>2.290769</ele>
        <time>2026-08-29T16:36:09.898Z</time>
      </trkpt>
      <trkpt lat="52.321232" lon="5.132195">
        <ele>2.338203</ele>
        <time>2026-08-29T16:36:11.900Z</time>
      </trkpt>
      <trkpt lat="52.321328" lon="5.132094">
        <ele>2.386264</ele>
        <time>2026-08-29T16:36:13.893Z</time>
      </trkpt>
      <trkpt lat="52.321427" lon="5.131986">
        <ele>2.435526</ele>
        <time>2026-08-29T16:36:15.900Z</time>
      </trkpt>
      <trkpt lat="52.321525" lon="5.131873">
        <ele>2.427000</ele>
        <time>2026-08-29T16:36:17.900Z</time>
      </trkpt>
      <trkpt lat="52.321617" lon="5.131766">
        <ele>2.418973</ele>
        <time>2026-08-29T16:36:19.900Z</time>
      </trkpt>
      <trkpt lat="52.321708" lon="5.131669">
        <ele>2.411250</ele>
        <time>2026-08-29T16:36:21.902Z</time>
      </trkpt>
      <trkpt lat="52.321801" lon="5.131579">
        <ele>2.403567</ele>
        <time>2026-08-29T16:36:23.902Z</time>
      </trkpt>
      <trkpt lat="52.321899" lon="5.131479">
        <ele>2.395353</ele>
        <time>2026-08-29T16:36:25.898Z</time>
      </trkpt>
      <trkpt lat="52.322005" lon="5.131380">
        <ele>2.386674</ele>
        <time>2026-08-29T16:36:27.902Z</time>
      </trkpt>
      <trkpt lat="52.322136" lon="5.131273">
        <ele>2.376262</ele>
        <time>2026-08-29T16:36:29.905Z</time>
      </trkpt>
      <trkpt lat="52.322212" lon="5.131155">
        <ele>2.368812</ele>
        <time>2026-08-29T16:36:31.895Z</time>
      </trkpt>
      <trkpt lat="52.322294" lon="5.131030">
        <ele>2.360842</ele>
        <time>2026-08-29T16:36:33.899Z</time>
      </trkpt>
      <trkpt lat="52.322390" lon="5.130903">
        <ele>2.352063</ele>
        <time>2026-08-29T16:36:35.905Z</time>
      </trkpt>
      <trkpt lat="52.322485" lon="5.130803">
        <ele>2.344030</ele>
        <time>2026-08-29T16:36:37.902Z</time>
      </trkpt>
      <trkpt lat="52.322555" lon="5.130710">
        <ele>2.337618</ele>
        <time>2026-08-29T16:36:39.899Z</time>
      </trkpt>
      <trkpt lat="52.322637" lon="5.130642">
        <ele>2.331081</ele>
        <time>2026-08-29T16:36:41.905Z</time>
      </trkpt>
      <trkpt lat="52.322674" lon="5.130495">
        <ele>2.324171</ele>
        <time>2026-08-29T16:36:45.902Z</time>
      </trkpt>
      <trkpt lat="52.322646" lon="5.130350">
        <ele>2.317562</ele>
        <time>2026-08-29T16:36:50.906Z</time>
      </trkpt>
      <trkpt lat="52.322590" lon="5.130210">
        <ele>2.310290</ele>
        <time>2026-08-29T16:36:54.899Z</time>
      </trkpt>
      <trkpt lat="52.322518" lon="5.130085">
        <ele>2.450362</ele>
        <time>2026-08-29T16:36:57.901Z</time>
      </trkpt>
      <trkpt lat="52.322465" lon="5.129915">
        <ele>2.690707</ele>
        <time>2026-08-29T16:37:00.901Z</time>
      </trkpt>
      <trkpt lat="52.322490" lon="5.129757">
        <ele>2.896254</ele>
        <time>2026-08-29T16:37:03.901Z</time>
      </trkpt>
      <trkpt lat="52.322557" lon="5.129620">
        <ele>3.117228</ele>
        <time>2026-08-29T16:37:08.902Z</time>
      </trkpt>
      <trkpt lat="52.322603" lon="5.129477">
        <ele>3.320744</ele>
        <time>2026-08-29T16:37:11.901Z</time>
      </trkpt>
      <trkpt lat="52.322632" lon="5.129315">
        <ele>3.533339</ele>
        <time>2026-08-29T16:37:14.901Z</time>
      </trkpt>
      <trkpt lat="52.322646" lon="5.129158">
        <ele>3.733161</ele>
        <time>2026-08-29T16:37:17.901Z</time>
      </trkpt>
      <trkpt lat="52.322640" lon="5.128978">
        <ele>3.960192</ele>
        <time>2026-08-29T16:37:20.901Z</time>
      </trkpt>
      <trkpt lat="52.322608" lon="5.128797">
        <ele>4.197491</ele>
        <time>2026-08-29T16:37:23.902Z</time>
      </trkpt>
      <trkpt lat="52.322555" lon="5.128617">
        <ele>4.449120</ele>
        <time>2026-08-29T16:37:26.902Z</time>
      </trkpt>
      <trkpt lat="52.322479" lon="5.128455">
        <ele>4.706316</ele>
        <time>2026-08-29T16:37:29.899Z</time>
      </trkpt>
      <trkpt lat="52.322384" lon="5.128318">
        <ele>4.967252</ele>
        <time>2026-08-29T16:37:32.901Z</time>
      </trkpt>
      <trkpt lat="52.322266" lon="5.128238">
        <ele>5.230442</ele>
        <time>2026-08-29T16:37:35.901Z</time>
      </trkpt>
      <trkpt lat="52.322135" lon="5.128197">
        <ele>5.505263</ele>
        <time>2026-08-29T16:37:38.898Z</time>
      </trkpt>
      <trkpt lat="52.322007" lon="5.128201">
        <ele>5.769057</ele>
        <time>2026-08-29T16:37:41.902Z</time>
      </trkpt>
      <trkpt lat="52.321875" lon="5.128242">
        <ele>6.049546</ele>
        <time>2026-08-29T16:37:44.897Z</time>
      </trkpt>
      <trkpt lat="52.321785" lon="5.128297">
        <ele>6.270021</ele>
        <time>2026-08-29T16:37:46.899Z</time>
      </trkpt>
      <trkpt lat="52.321703" lon="5.128380">
        <ele>6.491301</ele>
        <time>2026-08-29T16:37:48.898Z</time>
      </trkpt>
      <trkpt lat="52.321635" lon="5.128480">
        <ele>6.701127</ele>
        <time>2026-08-29T16:37:50.899Z</time>
      </trkpt>
      <trkpt lat="52.321574" lon="5.128596">
        <ele>6.915768</ele>
        <time>2026-08-29T16:37:52.898Z</time>
      </trkpt>
      <trkpt lat="52.321523" lon="5.128728">
        <ele>7.134811</ele>
        <time>2026-08-29T16:37:54.899Z</time>
      </trkpt>
      <trkpt lat="52.321488" lon="5.128867">
        <ele>7.345680</ele>
        <time>2026-08-29T16:37:56.897Z</time>
      </trkpt>
      <trkpt lat="52.321467" lon="5.129011">
        <ele>7.553336</ele>
        <time>2026-08-29T16:37:58.898Z</time>
      </trkpt>
      <trkpt lat="52.321458" lon="5.129161">
        <ele>7.764750</ele>
        <time>2026-08-29T16:38:00.898Z</time>
      </trkpt>
      <trkpt lat="52.321464" lon="5.129316">
        <ele>7.982602</ele>
        <time>2026-08-29T16:38:02.902Z</time>
      </trkpt>
      <trkpt lat="52.321483" lon="5.129473">
        <ele>8.207099</ele>
        <time>2026-08-29T16:38:04.898Z</time>
      </trkpt>
      <trkpt lat="52.321521" lon="5.129630">
        <ele>8.443958</ele>
        <time>2026-08-29T16:38:06.893Z</time>
      </trkpt>
      <trkpt lat="52.321568" lon="5.129788">
        <ele>8.690434</ele>
        <time>2026-08-29T16:38:08.905Z</time>
      </trkpt>
      <trkpt lat="52.321620" lon="5.129932">
        <ele>8.925037</ele>
        <time>2026-08-29T16:38:10.894Z</time>
      </trkpt>
      <trkpt lat="52.321674" lon="5.130073">
        <ele>9.158431</ele>
        <time>2026-08-29T16:38:12.897Z</time>
      </trkpt>
      <trkpt lat="52.321726" lon="5.130217">
        <ele>9.393033</ele>
        <time>2026-08-29T16:38:14.895Z</time>
      </trkpt>
      <trkpt lat="52.321777" lon="5.130361">
        <ele>9.626477</ele>
        <time>2026-08-29T16:38:16.898Z</time>
      </trkpt>
      <trkpt lat="52.321827" lon="5.130496">
        <ele>9.847890</ele>
        <time>2026-08-29T16:38:18.905Z</time>
      </trkpt>
      <trkpt lat="52.321874" lon="5.130625">
        <ele>10.058542</ele>
        <time>2026-08-29T16:38:20.905Z</time>
      </trkpt>
      <trkpt lat="52.321927" lon="5.130756">
        <ele>10.242641</ele>
        <time>2026-08-29T16:38:22.899Z</time>
      </trkpt>
      <trkpt lat="52.321978" lon="5.130889">
        <ele>10.404754</ele>
        <time>2026-08-29T16:38:24.905Z</time>
      </trkpt>
      <trkpt lat="52.322029" lon="5.131022">
        <ele>10.566867</ele>
        <time>2026-08-29T16:38:26.895Z</time>
      </trkpt>
      <trkpt lat="52.322086" lon="5.131155">
        <ele>10.734587</ele>
        <time>2026-08-29T16:38:28.894Z</time>
      </trkpt>
      <trkpt lat="52.322139" lon="5.131278">
        <ele>10.889973</ele>
        <time>2026-08-29T16:38:30.905Z</time>
      </trkpt>
      <trkpt lat="52.322192" lon="5.131405">
        <ele>11.048752</ele>
        <time>2026-08-29T16:38:32.896Z</time>
      </trkpt>
      <trkpt lat="52.322246" lon="5.131532">
        <ele>11.208491</ele>
        <time>2026-08-29T16:38:34.893Z</time>
      </trkpt>
      <trkpt lat="52.322299" lon="5.131659">
        <ele>11.367270</ele>
        <time>2026-08-29T16:38:36.905Z</time>
      </trkpt>
      <trkpt lat="52.322357" lon="5.131791">
        <ele>11.535125</ele>
        <time>2026-08-29T16:38:38.896Z</time>
      </trkpt>
      <trkpt lat="52.322418" lon="5.131922">
        <ele>11.705164</ele>
        <time>2026-08-29T16:38:40.895Z</time>
      </trkpt>
      <trkpt lat="52.322475" lon="5.132057">
        <ele>11.874578</ele>
        <time>2026-08-29T16:38:42.905Z</time>
      </trkpt>
      <trkpt lat="52.322535" lon="5.132187">
        <ele>12.042774</ele>
        <time>2026-08-29T16:38:44.892Z</time>
      </trkpt>
      <trkpt lat="52.322595" lon="5.132322">
        <ele>12.215117</ele>
        <time>2026-08-29T16:38:46.905Z</time>
      </trkpt>
      <trkpt lat="52.322657" lon="5.132462">
        <ele>12.393624</ele>
        <time>2026-08-29T16:38:48.905Z</time>
      </trkpt>
      <trkpt lat="52.322717" lon="5.132607">
        <ele>12.574420</ele>
        <time>2026-08-29T16:38:50.900Z</time>
      </trkpt>
      <trkpt lat="52.322777" lon="5.132742">
        <ele>12.746763</ele>
        <time>2026-08-29T16:38:52.897Z</time>
      </trkpt>
      <trkpt lat="52.322836" lon="5.132881">
        <ele>12.921494</ele>
        <time>2026-08-29T16:38:54.892Z</time>
      </trkpt>
      <trkpt lat="52.322899" lon="5.133019">
        <ele>13.099338</ele>
        <time>2026-08-29T16:38:56.905Z</time>
      </trkpt>
      <trkpt lat="52.322966" lon="5.133164">
        <ele>13.281733</ele>
        <time>2026-08-29T16:38:58.900Z</time>
      </trkpt>
      <trkpt lat="52.323032" lon="5.133301">
        <ele>13.452957</ele>
        <time>2026-08-29T16:39:00.896Z</time>
      </trkpt>
      <trkpt lat="52.323093" lon="5.133437">
        <ele>13.618537</ele>
        <time>2026-08-29T16:39:02.905Z</time>
      </trkpt>
      <trkpt lat="52.323159" lon="5.133576">
        <ele>13.791306</ele>
        <time>2026-08-29T16:39:04.905Z</time>
      </trkpt>
      <trkpt lat="52.323223" lon="5.133716">
        <ele>13.962908</ele>
        <time>2026-08-29T16:39:06.896Z</time>
      </trkpt>
      <trkpt lat="52.323289" lon="5.133861">
        <ele>14.140365</ele>
        <time>2026-08-29T16:39:08.905Z</time>
      </trkpt>
      <trkpt lat="52.323354" lon="5.133998">
        <ele>14.310598</ele>
        <time>2026-08-29T16:39:10.898Z</time>
      </trkpt>
      <trkpt lat="52.323416" lon="5.134133">
        <ele>14.476347</ele>
        <time>2026-08-29T16:39:12.905Z</time>
      </trkpt>
      <trkpt lat="52.323482" lon="5.134270">
        <ele>14.647569</ele>
        <time>2026-08-29T16:39:14.900Z</time>
      </trkpt>
      <trkpt lat="52.323548" lon="5.134406">
        <ele>14.818022</ele>
        <time>2026-08-29T16:39:16.905Z</time>
      </trkpt>
      <trkpt lat="52.323613" lon="5.134539">
        <ele>14.985170</ele>
        <time>2026-08-29T16:39:18.905Z</time>
      </trkpt>
      <trkpt lat="52.323682" lon="5.134672">
        <ele>15.156404</ele>
        <time>2026-08-29T16:39:20.900Z</time>
      </trkpt>
      <trkpt lat="52.323750" lon="5.134810">
        <ele>15.330395</ele>
        <time>2026-08-29T16:39:22.900Z</time>
      </trkpt>
      <trkpt lat="52.323815" lon="5.134942">
        <ele>15.496778</ele>
        <time>2026-08-29T16:39:24.905Z</time>
      </trkpt>
      <trkpt lat="52.323884" lon="5.135077">
        <ele>15.669512</ele>
        <time>2026-08-29T16:39:26.899Z</time>
      </trkpt>
      <trkpt lat="52.323955" lon="5.135214">
        <ele>15.845817</ele>
        <time>2026-08-29T16:39:28.905Z</time>
      </trkpt>
      <trkpt lat="52.324024" lon="5.135347">
        <ele>16.017050</ele>
        <time>2026-08-29T16:39:30.899Z</time>
      </trkpt>
      <trkpt lat="52.324095" lon="5.135480">
        <ele>16.138911</ele>
        <time>2026-08-29T16:39:32.900Z</time>
      </trkpt>
      <trkpt lat="52.324164" lon="5.135618">
        <ele>16.240073</ele>
        <time>2026-08-29T16:39:34.905Z</time>
      </trkpt>
      <trkpt lat="52.324234" lon="5.135755">
        <ele>16.341388</ele>
        <time>2026-08-29T16:39:36.899Z</time>
      </trkpt>
      <trkpt lat="52.324302" lon="5.135890">
        <ele>16.440645</ele>
        <time>2026-08-29T16:39:38.905Z</time>
      </trkpt>
      <trkpt lat="52.324370" lon="5.136027">
        <ele>16.540780</ele>
        <time>2026-08-29T16:39:40.900Z</time>
      </trkpt>
      <trkpt lat="52.324440" lon="5.136166">
        <ele>16.642969</ele>
        <time>2026-08-29T16:39:42.905Z</time>
      </trkpt>
      <trkpt lat="52.324501" lon="5.136309">
        <ele>16.741911</ele>
        <time>2026-08-29T16:39:44.901Z</time>
      </trkpt>
      <trkpt lat="52.324571" lon="5.136443">
        <ele>16.841927</ele>
        <time>2026-08-29T16:39:46.905Z</time>
      </trkpt>
      <trkpt lat="52.324641" lon="5.136580">
        <ele>16.943242</ele>
        <time>2026-08-29T16:39:48.905Z</time>
      </trkpt>
      <trkpt lat="52.324716" lon="5.136715">
        <ele>17.046753</ele>
        <time>2026-08-29T16:39:50.905Z</time>
      </trkpt>
      <trkpt lat="52.324789" lon="5.136851">
        <ele>17.149449</ele>
        <time>2026-08-29T16:39:52.905Z</time>
      </trkpt>
      <trkpt lat="52.324861" lon="5.136993">
        <ele>17.254132</ele>
        <time>2026-08-29T16:39:54.899Z</time>
      </trkpt>
      <trkpt lat="52.324929" lon="5.137141">
        <ele>17.359185</ele>
        <time>2026-08-29T16:39:56.905Z</time>
      </trkpt>
      <trkpt lat="52.325002" lon="5.137286">
        <ele>17.465771</ele>
        <time>2026-08-29T16:39:58.905Z</time>
      </trkpt>
      <trkpt lat="52.325074" lon="5.137425">
        <ele>17.569150</ele>
        <time>2026-08-29T16:40:00.899Z</time>
      </trkpt>
      <trkpt lat="52.325142" lon="5.137560">
        <ele>17.668405</ele>
        <time>2026-08-29T16:40:02.898Z</time>
      </trkpt>
      <trkpt lat="52.325212" lon="5.137698">
        <ele>17.749230</ele>
        <time>2026-08-29T16:40:04.904Z</time>
      </trkpt>
      <trkpt lat="52.325283" lon="5.137842">
        <ele>17.785635</ele>
        <time>2026-08-29T16:40:06.905Z</time>
      </trkpt>
      <trkpt lat="52.325350" lon="5.137982">
        <ele>17.820623</ele>
        <time>2026-08-29T16:40:08.900Z</time>
      </trkpt>
      <trkpt lat="52.325417" lon="5.138120">
        <ele>17.855302</ele>
        <time>2026-08-29T16:40:10.905Z</time>
      </trkpt>
      <trkpt lat="52.325486" lon="5.138254">
        <ele>17.889779</ele>
        <time>2026-08-29T16:40:12.894Z</time>
      </trkpt>
      <trkpt lat="52.325557" lon="5.138385">
        <ele>17.924231</ele>
        <time>2026-08-29T16:40:14.900Z</time>
      </trkpt>
      <trkpt lat="52.325627" lon="5.138523">
        <ele>17.959518</ele>
        <time>2026-08-29T16:40:16.895Z</time>
      </trkpt>
      <trkpt lat="52.325696" lon="5.138661">
        <ele>17.994601</ele>
        <time>2026-08-29T16:40:18.900Z</time>
      </trkpt>
      <trkpt lat="52.325769" lon="5.138791">
        <ele>18.029338</ele>
        <time>2026-08-29T16:40:20.894Z</time>
      </trkpt>
      <trkpt lat="52.325831" lon="5.138927">
        <ele>18.062723</ele>
        <time>2026-08-29T16:40:22.897Z</time>
      </trkpt>
      <trkpt lat="52.325899" lon="5.139063">
        <ele>18.097297</ele>
        <time>2026-08-29T16:40:24.897Z</time>
      </trkpt>
      <trkpt lat="52.325969" lon="5.139199">
        <ele>18.132282</ele>
        <time>2026-08-29T16:40:26.893Z</time>
      </trkpt>
      <trkpt lat="52.326035" lon="5.139334">
        <ele>18.166298</ele>
        <time>2026-08-29T16:40:28.891Z</time>
      </trkpt>
      <trkpt lat="52.326100" lon="5.139472">
        <ele>18.200580</ele>
        <time>2026-08-29T16:40:30.905Z</time>
      </trkpt>
      <trkpt lat="52.326169" lon="5.139605">
        <ele>18.234907</ele>
        <time>2026-08-29T16:40:32.905Z</time>
      </trkpt>
      <trkpt lat="52.326241" lon="5.139742">
        <ele>18.270459</ele>
        <time>2026-08-29T16:40:34.893Z</time>
      </trkpt>
      <trkpt lat="52.326310" lon="5.139880">
        <ele>18.305542</ele>
        <time>2026-08-29T16:40:36.896Z</time>
      </trkpt>
      <trkpt lat="52.326379" lon="5.140017">
        <ele>18.235366</ele>
        <time>2026-08-29T16:40:38.905Z</time>
      </trkpt>
      <trkpt lat="52.326447" lon="5.140153">
        <ele>18.113867</ele>
        <time>2026-08-29T16:40:40.900Z</time>
      </trkpt>
      <trkpt lat="52.326517" lon="5.140290">
        <ele>17.990394</ele>
        <time>2026-08-29T16:40:42.905Z</time>
      </trkpt>
      <trkpt lat="52.326589" lon="5.140425">
        <ele>17.866503</ele>
        <time>2026-08-29T16:40:44.892Z</time>
      </trkpt>
      <trkpt lat="52.326665" lon="5.140559">
        <ele>17.740098</ele>
        <time>2026-08-29T16:40:46.898Z</time>
      </trkpt>
      <trkpt lat="52.326729" lon="5.140704">
        <ele>17.616425</ele>
        <time>2026-08-29T16:40:48.894Z</time>
      </trkpt>
      <trkpt lat="52.326801" lon="5.140840">
        <ele>17.492012</ele>
        <time>2026-08-29T16:40:50.895Z</time>
      </trkpt>
      <trkpt lat="52.326874" lon="5.140980">
        <ele>17.364764</ele>
        <time>2026-08-29T16:40:52.898Z</time>
      </trkpt>
      <trkpt lat="52.326946" lon="5.141131">
        <ele>17.232338</ele>
        <time>2026-08-29T16:40:54.896Z</time>
      </trkpt>
      <trkpt lat="52.327022" lon="5.141277">
        <ele>17.099732</ele>
        <time>2026-08-29T16:40:56.905Z</time>
      </trkpt>
      <trkpt lat="52.327095" lon="5.141424">
        <ele>16.968765</ele>
        <time>2026-08-29T16:40:58.906Z</time>
      </trkpt>
      <trkpt lat="52.327169" lon="5.141576">
        <ele>16.834395</ele>
        <time>2026-08-29T16:41:00.905Z</time>
      </trkpt>
      <trkpt lat="52.327246" lon="5.141732">
        <ele>16.695744</ele>
        <time>2026-08-29T16:41:02.905Z</time>
      </trkpt>
      <trkpt lat="52.327324" lon="5.141882">
        <ele>16.559566</ele>
        <time>2026-08-29T16:41:04.897Z</time>
      </trkpt>
      <trkpt lat="52.327404" lon="5.142030">
        <ele>16.422949</ele>
        <time>2026-08-29T16:41:06.898Z</time>
      </trkpt>
      <trkpt lat="52.327482" lon="5.142180">
        <ele>16.286771</ele>
        <time>2026-08-29T16:41:08.898Z</time>
      </trkpt>
      <trkpt lat="52.327559" lon="5.142337">
        <ele>16.075913</ele>
        <time>2026-08-29T16:41:10.893Z</time>
      </trkpt>
      <trkpt lat="52.327634" lon="5.142492">
        <ele>15.866466</ele>
        <time>2026-08-29T16:41:12.897Z</time>
      </trkpt>
      <trkpt lat="52.327712" lon="5.142645">
        <ele>15.655384</ele>
        <time>2026-08-29T16:41:14.898Z</time>
      </trkpt>
      <trkpt lat="52.327791" lon="5.142797">
        <ele>15.443995</ele>
        <time>2026-08-29T16:41:16.901Z</time>
      </trkpt>
      <trkpt lat="52.327867" lon="5.142949">
        <ele>15.235938</ele>
        <time>2026-08-29T16:41:18.898Z</time>
      </trkpt>
      <trkpt lat="52.327949" lon="5.143107">
        <ele>15.016338</ele>
        <time>2026-08-29T16:41:20.897Z</time>
      </trkpt>
      <trkpt lat="52.328029" lon="5.143269">
        <ele>14.795687</ele>
        <time>2026-08-29T16:41:22.897Z</time>
      </trkpt>
      <trkpt lat="52.328114" lon="5.143432">
        <ele>14.568684</ele>
        <time>2026-08-29T16:41:24.898Z</time>
      </trkpt>
      <trkpt lat="52.328201" lon="5.143593">
        <ele>14.341006</ele>
        <time>2026-08-29T16:41:26.894Z</time>
      </trkpt>
      <trkpt lat="52.328284" lon="5.143757">
        <ele>14.115423</ele>
        <time>2026-08-29T16:41:28.898Z</time>
      </trkpt>
      <trkpt lat="52.328368" lon="5.143912">
        <ele>13.895953</ele>
        <time>2026-08-29T16:41:30.897Z</time>
      </trkpt>
      <trkpt lat="52.328453" lon="5.144072">
        <ele>13.671358</ele>
        <time>2026-08-29T16:41:32.897Z</time>
      </trkpt>
      <trkpt lat="52.328540" lon="5.144235">
        <ele>13.442090</ele>
        <time>2026-08-29T16:41:34.897Z</time>
      </trkpt>
      <trkpt lat="52.328625" lon="5.144405">
        <ele>13.209397</ele>
        <time>2026-08-29T16:41:36.898Z</time>
      </trkpt>
      <trkpt lat="52.328711" lon="5.144570">
        <ele>12.940575</ele>
        <time>2026-08-29T16:41:38.899Z</time>
      </trkpt>
      <trkpt lat="52.328801" lon="5.144734">
        <ele>12.657642</ele>
        <time>2026-08-29T16:41:40.905Z</time>
      </trkpt>
      <trkpt lat="52.328886" lon="5.144904">
        <ele>12.375698</ele>
        <time>2026-08-29T16:41:42.905Z</time>
      </trkpt>
      <trkpt lat="52.328977" lon="5.145071">
        <ele>12.088495</ele>
        <time>2026-08-29T16:41:44.897Z</time>
      </trkpt>
      <trkpt lat="52.329065" lon="5.145239">
        <ele>11.804474</ele>
        <time>2026-08-29T16:41:46.898Z</time>
      </trkpt>
      <trkpt lat="52.329151" lon="5.145407">
        <ele>11.523169</ele>
        <time>2026-08-29T16:41:48.905Z</time>
      </trkpt>
      <trkpt lat="52.329242" lon="5.145578">
        <ele>11.232115</ele>
        <time>2026-08-29T16:41:50.894Z</time>
      </trkpt>
      <trkpt lat="52.329333" lon="5.145763">
        <ele>10.927280</ele>
        <time>2026-08-29T16:41:52.905Z</time>
      </trkpt>
      <trkpt lat="52.329424" lon="5.145950">
        <ele>10.620442</ele>
        <time>2026-08-29T16:41:54.894Z</time>
      </trkpt>
      <trkpt lat="52.329519" lon="5.146130">
        <ele>10.315157</ele>
        <time>2026-08-29T16:41:56.897Z</time>
      </trkpt>
      <trkpt lat="52.329612" lon="5.146315">
        <ele>10.007672</ele>
        <time>2026-08-29T16:41:58.897Z</time>
      </trkpt>
      <trkpt lat="52.329704" lon="5.146492">
        <ele>9.709412</ele>
        <time>2026-08-29T16:42:00.897Z</time>
      </trkpt>
      <trkpt lat="52.329793" lon="5.146674">
        <ele>9.410212</ele>
        <time>2026-08-29T16:42:02.894Z</time>
      </trkpt>
      <trkpt lat="52.329883" lon="5.146851">
        <ele>9.150062</ele>
        <time>2026-08-29T16:42:04.896Z</time>
      </trkpt>
      <trkpt lat="52.329976" lon="5.147028">
        <ele>8.889472</ele>
        <time>2026-08-29T16:42:06.896Z</time>
      </trkpt>
      <trkpt lat="52.330069" lon="5.147212">
        <ele>8.622908</ele>
        <time>2026-08-29T16:42:08.899Z</time>
      </trkpt>
      <trkpt lat="52.330159" lon="5.147400">
        <ele>8.356302</ele>
        <time>2026-08-29T16:42:10.896Z</time>
      </trkpt>
      <trkpt lat="52.330256" lon="5.147575">
        <ele>8.092549</ele>
        <time>2026-08-29T16:42:12.897Z</time>
      </trkpt>
      <trkpt lat="52.330350" lon="5.147759">
        <ele>7.824818</ele>
        <time>2026-08-29T16:42:14.895Z</time>
      </trkpt>
      <trkpt lat="52.330443" lon="5.147943">
        <ele>7.558256</ele>
        <time>2026-08-29T16:42:16.908Z</time>
      </trkpt>
      <trkpt lat="52.330534" lon="5.148125">
        <ele>7.295739</ele>
        <time>2026-08-29T16:42:18.907Z</time>
      </trkpt>
      <trkpt lat="52.330630" lon="5.148307">
        <ele>7.027345</ele>
        <time>2026-08-29T16:42:20.894Z</time>
      </trkpt>
      <trkpt lat="52.330728" lon="5.148495">
        <ele>6.751489</ele>
        <time>2026-08-29T16:42:22.906Z</time>
      </trkpt>
      <trkpt lat="52.330829" lon="5.148685">
        <ele>6.470365</ele>
        <time>2026-08-29T16:42:24.897Z</time>
      </trkpt>
      <trkpt lat="52.330927" lon="5.148868">
        <ele>6.198733</ele>
        <time>2026-08-29T16:42:26.898Z</time>
      </trkpt>
      <trkpt lat="52.331022" lon="5.149057">
        <ele>5.926109</ele>
        <time>2026-08-29T16:42:28.899Z</time>
      </trkpt>
      <trkpt lat="52.331118" lon="5.149245">
        <ele>5.653499</ele>
        <time>2026-08-29T16:42:30.899Z</time>
      </trkpt>
      <trkpt lat="52.331215" lon="5.149420">
        <ele>5.390604</ele>
        <time>2026-08-29T16:42:32.900Z</time>
      </trkpt>
      <trkpt lat="52.331306" lon="5.149603">
        <ele>5.128079</ele>
        <time>2026-08-29T16:42:34.900Z</time>
      </trkpt>
      <trkpt lat="52.331398" lon="5.149780">
        <ele>4.869522</ele>
        <time>2026-08-29T16:42:36.901Z</time>
      </trkpt>
      <trkpt lat="52.331488" lon="5.149952">
        <ele>4.617562</ele>
        <time>2026-08-29T16:42:38.898Z</time>
      </trkpt>
      <trkpt lat="52.331582" lon="5.150109">
        <ele>4.372993</ele>
        <time>2026-08-29T16:42:40.898Z</time>
      </trkpt>
      <trkpt lat="52.331680" lon="5.150259">
        <ele>4.128658</ele>
        <time>2026-08-29T16:42:42.897Z</time>
      </trkpt>
      <trkpt lat="52.331789" lon="5.150385">
        <ele>3.885661</ele>
        <time>2026-08-29T16:42:44.898Z</time>
      </trkpt>
      <trkpt lat="52.331901" lon="5.150494">
        <ele>3.648385</ele>
        <time>2026-08-29T16:42:46.898Z</time>
      </trkpt>
      <trkpt lat="52.332019" lon="5.150584">
        <ele>3.411334</ele>
        <time>2026-08-29T16:42:48.897Z</time>
      </trkpt>
      <trkpt lat="52.332136" lon="5.150645">
        <ele>3.187743</ele>
        <time>2026-08-29T16:42:50.897Z</time>
      </trkpt>
      <trkpt lat="52.332227" lon="5.150732">
        <ele>2.995840</ele>
        <time>2026-08-29T16:42:52.899Z</time>
      </trkpt>
      <trkpt lat="52.332257" lon="5.150885">
        <ele>2.813825</ele>
        <time>2026-08-29T16:42:54.899Z</time>
      </trkpt>
      <trkpt lat="52.332302" lon="5.151032">
        <ele>2.562260</ele>
        <time>2026-08-29T16:42:56.898Z</time>
      </trkpt>
      <trkpt lat="52.332377" lon="5.151150">
        <ele>2.301755</ele>
        <time>2026-08-29T16:42:58.896Z</time>
      </trkpt>
      <trkpt lat="52.332448" lon="5.151284">
        <ele>2.030386</ele>
        <time>2026-08-29T16:43:00.898Z</time>
      </trkpt>
      <trkpt lat="52.332529" lon="5.151416">
        <ele>1.744161</ele>
        <time>2026-08-29T16:43:02.895Z</time>
      </trkpt>
      <trkpt lat="52.332603" lon="5.151567">
        <ele>1.448001</ele>
        <time>2026-08-29T16:43:04.897Z</time>
      </trkpt>
      <trkpt lat="52.332625" lon="5.151729">
        <ele>1.194084</ele>
        <time>2026-08-29T16:43:06.899Z</time>
      </trkpt>
      <trkpt lat="52.332570" lon="5.151862">
        <ele>0.948368</ele>
        <time>2026-08-29T16:43:08.899Z</time>
      </trkpt>
      <trkpt lat="52.332490" lon="5.151966">
        <ele>0.692545</ele>
        <time>2026-08-29T16:43:10.898Z</time>
      </trkpt>
      <trkpt lat="52.332406" lon="5.152078">
        <ele>0.421245</ele>
        <time>2026-08-29T16:43:12.895Z</time>
      </trkpt>
      <trkpt lat="52.332329" lon="5.152184">
        <ele>0.169300</ele>
        <time>2026-08-29T16:43:14.897Z</time>
      </trkpt>
      <trkpt lat="52.332235" lon="5.152315">
        <ele>-0.139848</ele>
        <time>2026-08-29T16:43:16.898Z</time>
      </trkpt>
      <trkpt lat="52.332154" lon="5.152459">
        <ele>-0.439313</ele>
        <time>2026-08-29T16:43:18.899Z</time>
      </trkpt>
      <trkpt lat="52.332074" lon="5.152638">
        <ele>-0.778630</ele>
        <time>2026-08-29T16:43:20.901Z</time>
      </trkpt>
      <trkpt lat="52.331981" lon="5.152770">
        <ele>-1.086877</ele>
        <time>2026-08-29T16:43:22.899Z</time>
      </trkpt>
      <trkpt lat="52.331852" lon="5.152827">
        <ele>-1.421445</ele>
        <time>2026-08-29T16:43:24.898Z</time>
      </trkpt>
      <trkpt lat="52.331729" lon="5.152929">
        <ele>-1.645255</ele>
        <time>2026-08-29T16:43:27.898Z</time>
      </trkpt>
      <trkpt lat="52.331629" lon="5.152988">
        <ele>-1.547266</ele>
        <time>2026-08-29T16:43:29.898Z</time>
      </trkpt>
      <trkpt lat="52.331530" lon="5.153038">
        <ele>-1.451760</ele>
        <time>2026-08-29T16:43:31.899Z</time>
      </trkpt>
      <trkpt lat="52.331440" lon="5.153095">
        <ele>-1.362801</ele>
        <time>2026-08-29T16:43:33.898Z</time>
      </trkpt>
      <trkpt lat="52.331355" lon="5.153179">
        <ele>-1.271268</ele>
        <time>2026-08-29T16:43:35.897Z</time>
      </trkpt>
      <trkpt lat="52.331272" lon="5.153288">
        <ele>-1.173166</ele>
        <time>2026-08-29T16:43:37.899Z</time>
      </trkpt>
      <trkpt lat="52.331189" lon="5.153404">
        <ele>-1.072550</ele>
        <time>2026-08-29T16:43:39.899Z</time>
      </trkpt>
      <trkpt lat="52.331106" lon="5.153513">
        <ele>-0.974449</ele>
        <time>2026-08-29T16:43:41.897Z</time>
      </trkpt>
      <trkpt lat="52.331031" lon="5.153622">
        <ele>-0.881983</ele>
        <time>2026-08-29T16:43:43.893Z</time>
      </trkpt>
      <trkpt lat="52.330949" lon="5.153715">
        <ele>-0.790015</ele>
        <time>2026-08-29T16:43:45.898Z</time>
      </trkpt>
      <trkpt lat="52.330866" lon="5.153820">
        <ele>-0.693308</ele>
        <time>2026-08-29T16:43:47.897Z</time>
      </trkpt>
      <trkpt lat="52.330786" lon="5.153931">
        <ele>-0.596623</ele>
        <time>2026-08-29T16:43:49.898Z</time>
      </trkpt>
      <trkpt lat="52.330705" lon="5.154039">
        <ele>-0.500309</ele>
        <time>2026-08-29T16:43:51.897Z</time>
      </trkpt>
      <trkpt lat="52.330625" lon="5.154152">
        <ele>-0.402891</ele>
        <time>2026-08-29T16:43:53.893Z</time>
      </trkpt>
      <trkpt lat="52.330543" lon="5.154257">
        <ele>-0.306911</ele>
        <time>2026-08-29T16:43:55.894Z</time>
      </trkpt>
      <trkpt lat="52.330468" lon="5.154376">
        <ele>-0.210612</ele>
        <time>2026-08-29T16:43:57.898Z</time>
      </trkpt>
      <trkpt lat="52.330410" lon="5.154526">
        <ele>-0.110620</ele>
        <time>2026-08-29T16:43:59.898Z</time>
      </trkpt>
      <trkpt lat="52.330335" lon="5.154667">
        <ele>0.008987</ele>
        <time>2026-08-29T16:44:01.899Z</time>
      </trkpt>
      <trkpt lat="52.330247" lon="5.154787">
        <ele>0.217916</ele>
        <time>2026-08-29T16:44:03.898Z</time>
      </trkpt>
      <trkpt lat="52.330162" lon="5.154898">
        <ele>0.416265</ele>
        <time>2026-08-29T16:44:05.897Z</time>
      </trkpt>
      <trkpt lat="52.330086" lon="5.154997">
        <ele>0.593440</ele>
        <time>2026-08-29T16:44:07.900Z</time>
      </trkpt>
      <trkpt lat="52.330012" lon="5.155091">
        <ele>0.764303</ele>
        <time>2026-08-29T16:44:09.899Z</time>
      </trkpt>
      <trkpt lat="52.329912" lon="5.155226">
        <ele>1.000753</ele>
        <time>2026-08-29T16:44:12.900Z</time>
      </trkpt>
      <trkpt lat="52.329813" lon="5.155341">
        <ele>1.222191</ele>
        <time>2026-08-29T16:44:15.898Z</time>
      </trkpt>
      <trkpt lat="52.329736" lon="5.155458">
        <ele>1.413843</ele>
        <time>2026-08-29T16:44:18.898Z</time>
      </trkpt>
      <trkpt lat="52.329660" lon="5.155560">
        <ele>1.593120</ele>
        <time>2026-08-29T16:44:21.897Z</time>
      </trkpt>
      <trkpt lat="52.329591" lon="5.155670">
        <ele>1.768822</ele>
        <time>2026-08-29T16:44:24.898Z</time>
      </trkpt>
      <trkpt lat="52.329526" lon="5.155788">
        <ele>1.945892</ele>
        <time>2026-08-29T16:44:27.899Z</time>
      </trkpt>
      <trkpt lat="52.329453" lon="5.155946">
        <ele>2.166670</ele>
        <time>2026-08-29T16:44:31.901Z</time>
      </trkpt>
      <trkpt lat="52.329409" lon="5.156078">
        <ele>2.334264</ele>
        <time>2026-08-29T16:44:34.899Z</time>
      </trkpt>
      <trkpt lat="52.329368" lon="5.156217">
        <ele>2.506300</ele>
        <time>2026-08-29T16:44:37.901Z</time>
      </trkpt>
      <trkpt lat="52.329330" lon="5.156386">
        <ele>2.707019</ele>
        <time>2026-08-29T16:44:41.891Z</time>
      </trkpt>
      <trkpt lat="52.329304" lon="5.156552">
        <ele>2.898028</ele>
        <time>2026-08-29T16:44:45.895Z</time>
      </trkpt>
      <trkpt lat="52.329291" lon="5.156701">
        <ele>3.065792</ele>
        <time>2026-08-29T16:44:48.899Z</time>
      </trkpt>
      <trkpt lat="52.329288" lon="5.156861">
        <ele>3.244217</ele>
        <time>2026-08-29T16:44:51.899Z</time>
      </trkpt>
      <trkpt lat="52.329292" lon="5.157039">
        <ele>3.218010</ele>
        <time>2026-08-29T16:44:54.895Z</time>
      </trkpt>
      <trkpt lat="52.329288" lon="5.157189">
        <ele>3.178851</ele>
        <time>2026-08-29T16:44:56.899Z</time>
      </trkpt>
      <trkpt lat="52.329309" lon="5.157355">
        <ele>3.134639</ele>
        <time>2026-08-29T16:44:58.899Z</time>
      </trkpt>
      <trkpt lat="52.329336" lon="5.157524">
        <ele>3.089081</ele>
        <time>2026-08-29T16:45:00.899Z</time>
      </trkpt>
      <trkpt lat="52.329372" lon="5.157683">
        <ele>3.044858</ele>
        <time>2026-08-29T16:45:02.896Z</time>
      </trkpt>
      <trkpt lat="52.329409" lon="5.157829">
        <ele>3.003636</ele>
        <time>2026-08-29T16:45:04.892Z</time>
      </trkpt>
      <trkpt lat="52.329446" lon="5.157971">
        <ele>2.963376</ele>
        <time>2026-08-29T16:45:06.898Z</time>
      </trkpt>
      <trkpt lat="52.329480" lon="5.158113">
        <ele>2.923600</ele>
        <time>2026-08-29T16:45:08.900Z</time>
      </trkpt>
      <trkpt lat="52.329508" lon="5.158257">
        <ele>2.884189</ele>
        <time>2026-08-29T16:45:10.900Z</time>
      </trkpt>
      <trkpt lat="52.329562" lon="5.158452">
        <ele>2.828354</ele>
        <time>2026-08-29T16:45:13.897Z</time>
      </trkpt>
      <trkpt lat="52.329617" lon="5.158655">
        <ele>2.770440</ele>
        <time>2026-08-29T16:45:16.897Z</time>
      </trkpt>
      <trkpt lat="52.329660" lon="5.158793">
        <ele>2.730041</ele>
        <time>2026-08-29T16:45:18.894Z</time>
      </trkpt>
      <trkpt lat="52.329702" lon="5.158930">
        <ele>2.690066</ele>
        <time>2026-08-29T16:45:20.901Z</time>
      </trkpt>
      <trkpt lat="52.329743" lon="5.159068">
        <ele>2.650047</ele>
        <time>2026-08-29T16:45:22.901Z</time>
      </trkpt>
      <trkpt lat="52.329786" lon="5.159215">
        <ele>2.607543</ele>
        <time>2026-08-29T16:45:24.900Z</time>
      </trkpt>
      <trkpt lat="52.329831" lon="5.159361">
        <ele>2.564897</ele>
        <time>2026-08-29T16:45:26.900Z</time>
      </trkpt>
      <trkpt lat="52.329868" lon="5.159506">
        <ele>2.523916</ele>
        <time>2026-08-29T16:45:28.905Z</time>
      </trkpt>
      <trkpt lat="52.329912" lon="5.159654">
        <ele>2.498795</ele>
        <time>2026-08-29T16:45:30.906Z</time>
      </trkpt>
      <trkpt lat="52.329958" lon="5.159791">
        <ele>2.518365</ele>
        <time>2026-08-29T16:45:32.894Z</time>
      </trkpt>
      <trkpt lat="52.329998" lon="5.159930">
        <ele>2.537600</ele>
        <time>2026-08-29T16:45:34.901Z</time>
      </trkpt>
      <trkpt lat="52.330037" lon="5.160076">
        <ele>2.557549</ele>
        <time>2026-08-29T16:45:36.897Z</time>
      </trkpt>
      <trkpt lat="52.330078" lon="5.160220">
        <ele>2.577438</ele>
        <time>2026-08-29T16:45:38.896Z</time>
      </trkpt>
      <trkpt lat="52.330120" lon="5.160366">
        <ele>2.597640</ele>
        <time>2026-08-29T16:45:40.897Z</time>
      </trkpt>
      <trkpt lat="52.330163" lon="5.160510">
        <ele>2.617705</ele>
        <time>2026-08-29T16:45:42.897Z</time>
      </trkpt>
      <trkpt lat="52.330207" lon="5.160663">
        <ele>2.638875</ele>
        <time>2026-08-29T16:45:44.895Z</time>
      </trkpt>
      <trkpt lat="52.330250" lon="5.160814">
        <ele>2.659731</ele>
        <time>2026-08-29T16:45:46.897Z</time>
      </trkpt>
      <trkpt lat="52.330298" lon="5.160969">
        <ele>2.681486</ele>
        <time>2026-08-29T16:45:48.898Z</time>
      </trkpt>
      <trkpt lat="52.330339" lon="5.161122">
        <ele>2.702401</ele>
        <time>2026-08-29T16:45:50.896Z</time>
      </trkpt>
      <trkpt lat="52.330386" lon="5.161276">
        <ele>2.723952</ele>
        <time>2026-08-29T16:45:52.900Z</time>
      </trkpt>
      <trkpt lat="52.330429" lon="5.161434">
        <ele>2.745605</ele>
        <time>2026-08-29T16:45:54.901Z</time>
      </trkpt>
      <trkpt lat="52.330474" lon="5.161587">
        <ele>2.766863</ele>
        <time>2026-08-29T16:45:56.904Z</time>
      </trkpt>
      <trkpt lat="52.330522" lon="5.161747">
        <ele>2.789178</ele>
        <time>2026-08-29T16:45:58.903Z</time>
      </trkpt>
      <trkpt lat="52.330573" lon="5.161913">
        <ele>2.812438</ele>
        <time>2026-08-29T16:46:00.895Z</time>
      </trkpt>
      <trkpt lat="52.330622" lon="5.162081">
        <ele>2.835744</ele>
        <time>2026-08-29T16:46:02.902Z</time>
      </trkpt>
      <trkpt lat="52.330668" lon="5.162249">
        <ele>2.858791</ele>
        <time>2026-08-29T16:46:04.894Z</time>
      </trkpt>
      <trkpt lat="52.330719" lon="5.162416">
        <ele>2.854971</ele>
        <time>2026-08-29T16:46:06.895Z</time>
      </trkpt>
      <trkpt lat="52.330765" lon="5.162581">
        <ele>2.847798</ele>
        <time>2026-08-29T16:46:08.900Z</time>
      </trkpt>
      <trkpt lat="52.330811" lon="5.162748">
        <ele>2.840552</ele>
        <time>2026-08-29T16:46:10.904Z</time>
      </trkpt>
      <trkpt lat="52.330861" lon="5.162914">
        <ele>2.833232</ele>
        <time>2026-08-29T16:46:12.901Z</time>
      </trkpt>
      <trkpt lat="52.330911" lon="5.163084">
        <ele>2.825770</ele>
        <time>2026-08-29T16:46:14.896Z</time>
      </trkpt>
      <trkpt lat="52.330958" lon="5.163254">
        <ele>2.818390</ele>
        <time>2026-08-29T16:46:16.894Z</time>
      </trkpt>
      <trkpt lat="52.331006" lon="5.163422">
        <ele>2.811055</ele>
        <time>2026-08-29T16:46:18.904Z</time>
      </trkpt>
      <trkpt lat="52.331057" lon="5.163592">
        <ele>2.803565</ele>
        <time>2026-08-29T16:46:20.901Z</time>
      </trkpt>
      <trkpt lat="52.331105" lon="5.163763">
        <ele>2.796122</ele>
        <time>2026-08-29T16:46:22.900Z</time>
      </trkpt>
      <trkpt lat="52.331153" lon="5.163936">
        <ele>2.788607</ele>
        <time>2026-08-29T16:46:24.902Z</time>
      </trkpt>
      <trkpt lat="52.331201" lon="5.164107">
        <ele>2.781164</ele>
        <time>2026-08-29T16:46:26.900Z</time>
      </trkpt>
      <trkpt lat="52.331249" lon="5.164273">
        <ele>2.773901</ele>
        <time>2026-08-29T16:46:28.895Z</time>
      </trkpt>
      <trkpt lat="52.331297" lon="5.164437">
        <ele>2.766708</ele>
        <time>2026-08-29T16:46:30.896Z</time>
      </trkpt>
      <trkpt lat="52.331344" lon="5.164604">
        <ele>2.759436</ele>
        <time>2026-08-29T16:46:32.895Z</time>
      </trkpt>
      <trkpt lat="52.331393" lon="5.164771">
        <ele>2.752109</ele>
        <time>2026-08-29T16:46:34.901Z</time>
      </trkpt>
      <trkpt lat="52.331437" lon="5.164935">
        <ele>2.744906</ele>
        <time>2026-08-29T16:46:36.903Z</time>
      </trkpt>
      <trkpt lat="52.331483" lon="5.165094">
        <ele>2.724104</ele>
        <time>2026-08-29T16:46:38.896Z</time>
      </trkpt>
      <trkpt lat="52.331529" lon="5.165259">
        <ele>2.702658</ele>
        <time>2026-08-29T16:46:40.896Z</time>
      </trkpt>
      <trkpt lat="52.331574" lon="5.165428">
        <ele>2.680859</ele>
        <time>2026-08-29T16:46:42.900Z</time>
      </trkpt>
      <trkpt lat="52.331616" lon="5.165595">
        <ele>2.659505</ele>
        <time>2026-08-29T16:46:44.896Z</time>
      </trkpt>
      <trkpt lat="52.331661" lon="5.165760">
        <ele>2.638139</ele>
        <time>2026-08-29T16:46:46.895Z</time>
      </trkpt>
      <trkpt lat="52.331707" lon="5.165933">
        <ele>2.615829</ele>
        <time>2026-08-29T16:46:48.900Z</time>
      </trkpt>
      <trkpt lat="52.331753" lon="5.166107">
        <ele>2.593411</ele>
        <time>2026-08-29T16:46:50.900Z</time>
      </trkpt>
      <trkpt lat="52.331798" lon="5.166282">
        <ele>2.570961</ele>
        <time>2026-08-29T16:46:52.901Z</time>
      </trkpt>
      <trkpt lat="52.331843" lon="5.166459">
        <ele>2.548292</ele>
        <time>2026-08-29T16:46:54.900Z</time>
      </trkpt>
      <trkpt lat="52.331888" lon="5.166641">
        <ele>2.525076</ele>
        <time>2026-08-29T16:46:56.894Z</time>
      </trkpt>
      <trkpt lat="52.331931" lon="5.166820">
        <ele>2.502333</ele>
        <time>2026-08-29T16:46:58.905Z</time>
      </trkpt>
      <trkpt lat="52.331969" lon="5.166999">
        <ele>2.479925</ele>
        <time>2026-08-29T16:47:00.902Z</time>
      </trkpt>
      <trkpt lat="52.332009" lon="5.167182">
        <ele>2.456944</ele>
        <time>2026-08-29T16:47:02.905Z</time>
      </trkpt>
      <trkpt lat="52.332050" lon="5.167362">
        <ele>2.434229</ele>
        <time>2026-08-29T16:47:04.900Z</time>
      </trkpt>
      <trkpt lat="52.332089" lon="5.167548">
        <ele>2.410976</ele>
        <time>2026-08-29T16:47:06.895Z</time>
      </trkpt>
      <trkpt lat="52.332125" lon="5.167729">
        <ele>2.391086</ele>
        <time>2026-08-29T16:47:08.909Z</time>
      </trkpt>
      <trkpt lat="52.332164" lon="5.167909">
        <ele>2.375398</ele>
        <time>2026-08-29T16:47:10.909Z</time>
      </trkpt>
      <trkpt lat="52.332201" lon="5.168094">
        <ele>2.359409</ele>
        <time>2026-08-29T16:47:12.896Z</time>
      </trkpt>
      <trkpt lat="52.332240" lon="5.168279">
        <ele>2.343334</ele>
        <time>2026-08-29T16:47:14.897Z</time>
      </trkpt>
      <trkpt lat="52.332276" lon="5.168457">
        <ele>2.327933</ele>
        <time>2026-08-29T16:47:16.897Z</time>
      </trkpt>
      <trkpt lat="52.332312" lon="5.168638">
        <ele>2.312297</ele>
        <time>2026-08-29T16:47:18.896Z</time>
      </trkpt>
      <trkpt lat="52.332347" lon="5.168825">
        <ele>2.296232</ele>
        <time>2026-08-29T16:47:20.895Z</time>
      </trkpt>
      <trkpt lat="52.332383" lon="5.169011">
        <ele>2.280206</ele>
        <time>2026-08-29T16:47:22.902Z</time>
      </trkpt>
      <trkpt lat="52.332421" lon="5.169196">
        <ele>2.264174</ele>
        <time>2026-08-29T16:47:24.898Z</time>
      </trkpt>
      <trkpt lat="52.332458" lon="5.169382">
        <ele>2.248107</ele>
        <time>2026-08-29T16:47:26.909Z</time>
      </trkpt>
      <trkpt lat="52.332494" lon="5.169562">
        <ele>2.232550</ele>
        <time>2026-08-29T16:47:28.896Z</time>
      </trkpt>
      <trkpt lat="52.332529" lon="5.169746">
        <ele>2.216721</ele>
        <time>2026-08-29T16:47:30.899Z</time>
      </trkpt>
      <trkpt lat="52.332570" lon="5.169932">
        <ele>2.200479</ele>
        <time>2026-08-29T16:47:32.897Z</time>
      </trkpt>
      <trkpt lat="52.332609" lon="5.170116">
        <ele>2.184481</ele>
        <time>2026-08-29T16:47:34.894Z</time>
      </trkpt>
      <trkpt lat="52.332648" lon="5.170303">
        <ele>2.168251</ele>
        <time>2026-08-29T16:47:36.909Z</time>
      </trkpt>
      <trkpt lat="52.332684" lon="5.170491">
        <ele>2.153684</ele>
        <time>2026-08-29T16:47:38.898Z</time>
      </trkpt>
      <trkpt lat="52.332725" lon="5.170682">
        <ele>2.145453</ele>
        <time>2026-08-29T16:47:40.898Z</time>
      </trkpt>
      <trkpt lat="52.332763" lon="5.170868">
        <ele>2.137480</ele>
        <time>2026-08-29T16:47:42.909Z</time>
      </trkpt>
      <trkpt lat="52.332796" lon="5.171048">
        <ele>2.129839</ele>
        <time>2026-08-29T16:47:44.909Z</time>
      </trkpt>
      <trkpt lat="52.332833" lon="5.171227">
        <ele>2.122157</ele>
        <time>2026-08-29T16:47:46.898Z</time>
      </trkpt>
      <trkpt lat="52.332868" lon="5.171414">
        <ele>2.114206</ele>
        <time>2026-08-29T16:47:48.908Z</time>
      </trkpt>
      <trkpt lat="52.332906" lon="5.171597">
        <ele>2.106348</ele>
        <time>2026-08-29T16:47:50.898Z</time>
      </trkpt>
      <trkpt lat="52.332943" lon="5.171782">
        <ele>2.098434</ele>
        <time>2026-08-29T16:47:52.896Z</time>
      </trkpt>
      <trkpt lat="52.332979" lon="5.171971">
        <ele>2.090386</ele>
        <time>2026-08-29T16:47:54.898Z</time>
      </trkpt>
      <trkpt lat="52.333017" lon="5.172157">
        <ele>2.082412</ele>
        <time>2026-08-29T16:47:56.909Z</time>
      </trkpt>
      <trkpt lat="52.333055" lon="5.172338">
        <ele>2.074631</ele>
        <time>2026-08-29T16:47:58.897Z</time>
      </trkpt>
      <trkpt lat="52.333091" lon="5.172519">
        <ele>2.066893</ele>
        <time>2026-08-29T16:48:00.899Z</time>
      </trkpt>
      <trkpt lat="52.333128" lon="5.172701">
        <ele>2.059095</ele>
        <time>2026-08-29T16:48:02.896Z</time>
      </trkpt>
      <trkpt lat="52.333165" lon="5.172878">
        <ele>2.051489</ele>
        <time>2026-08-29T16:48:04.900Z</time>
      </trkpt>
      <trkpt lat="52.333205" lon="5.173063">
        <ele>2.043511</ele>
        <time>2026-08-29T16:48:06.900Z</time>
      </trkpt>
      <trkpt lat="52.333239" lon="5.173247">
        <ele>2.035696</ele>
        <time>2026-08-29T16:48:08.901Z</time>
      </trkpt>
      <trkpt lat="52.333276" lon="5.173436">
        <ele>2.038130</ele>
        <time>2026-08-29T16:48:10.901Z</time>
      </trkpt>
      <trkpt lat="52.333312" lon="5.173621">
        <ele>2.040635</ele>
        <time>2026-08-29T16:48:12.901Z</time>
      </trkpt>
      <trkpt lat="52.333346" lon="5.173802">
        <ele>2.043077</ele>
        <time>2026-08-29T16:48:14.901Z</time>
      </trkpt>
      <trkpt lat="52.333381" lon="5.173984">
        <ele>2.045539</ele>
        <time>2026-08-29T16:48:16.901Z</time>
      </trkpt>
      <trkpt lat="52.333419" lon="5.174167">
        <ele>2.048032</ele>
        <time>2026-08-29T16:48:18.895Z</time>
      </trkpt>
      <trkpt lat="52.333457" lon="5.174352">
        <ele>2.050550</ele>
        <time>2026-08-29T16:48:20.898Z</time>
      </trkpt>
      <trkpt lat="52.333494" lon="5.174539">
        <ele>2.053085</ele>
        <time>2026-08-29T16:48:22.895Z</time>
      </trkpt>
      <trkpt lat="52.333532" lon="5.174723">
        <ele>2.055591</ele>
        <time>2026-08-29T16:48:24.909Z</time>
      </trkpt>
      <trkpt lat="52.333569" lon="5.174905">
        <ele>2.058065</ele>
        <time>2026-08-29T16:48:26.896Z</time>
      </trkpt>
      <trkpt lat="52.333608" lon="5.175087">
        <ele>2.060553</ele>
        <time>2026-08-29T16:48:28.897Z</time>
      </trkpt>
      <trkpt lat="52.333644" lon="5.175274">
        <ele>2.063082</ele>
        <time>2026-08-29T16:48:30.909Z</time>
      </trkpt>
      <trkpt lat="52.333683" lon="5.175458">
        <ele>2.065595</ele>
        <time>2026-08-29T16:48:32.896Z</time>
      </trkpt>
      <trkpt lat="52.333718" lon="5.175643">
        <ele>2.068093</ele>
        <time>2026-08-29T16:48:34.897Z</time>
      </trkpt>
      <trkpt lat="52.333754" lon="5.175826">
        <ele>2.070573</ele>
        <time>2026-08-29T16:48:36.893Z</time>
      </trkpt>
      <trkpt lat="52.333787" lon="5.176010">
        <ele>2.073046</ele>
        <time>2026-08-29T16:48:38.896Z</time>
      </trkpt>
      <trkpt lat="52.333823" lon="5.176188">
        <ele>2.074065</ele>
        <time>2026-08-29T16:48:40.895Z</time>
      </trkpt>
      <trkpt lat="52.333861" lon="5.176368">
        <ele>2.074706</ele>
        <time>2026-08-29T16:48:42.894Z</time>
      </trkpt>
      <trkpt lat="52.333892" lon="5.176551">
        <ele>2.075346</ele>
        <time>2026-08-29T16:48:44.896Z</time>
      </trkpt>
      <trkpt lat="52.333930" lon="5.176733">
        <ele>2.075993</ele>
        <time>2026-08-29T16:48:46.896Z</time>
      </trkpt>
      <trkpt lat="52.333966" lon="5.176909">
        <ele>2.076618</ele>
        <time>2026-08-29T16:48:48.896Z</time>
      </trkpt>
      <trkpt lat="52.334003" lon="5.177086">
        <ele>2.077248</ele>
        <time>2026-08-29T16:48:50.894Z</time>
      </trkpt>
      <trkpt lat="52.334040" lon="5.177260">
        <ele>2.077868</ele>
        <time>2026-08-29T16:48:52.896Z</time>
      </trkpt>
      <trkpt lat="52.334075" lon="5.177438">
        <ele>2.078498</ele>
        <time>2026-08-29T16:48:54.909Z</time>
      </trkpt>
      <trkpt lat="52.334109" lon="5.177617">
        <ele>2.079129</ele>
        <time>2026-08-29T16:48:56.897Z</time>
      </trkpt>
      <trkpt lat="52.334142" lon="5.177792">
        <ele>2.079746</ele>
        <time>2026-08-29T16:48:58.895Z</time>
      </trkpt>
      <trkpt lat="52.334176" lon="5.177964">
        <ele>2.080354</ele>
        <time>2026-08-29T16:49:00.896Z</time>
      </trkpt>
      <trkpt lat="52.334212" lon="5.178139">
        <ele>2.080976</ele>
        <time>2026-08-29T16:49:02.896Z</time>
      </trkpt>
      <trkpt lat="52.334247" lon="5.178315">
        <ele>2.081599</ele>
        <time>2026-08-29T16:49:04.895Z</time>
      </trkpt>
      <trkpt lat="52.334290" lon="5.178487">
        <ele>2.082225</ele>
        <time>2026-08-29T16:49:06.909Z</time>
      </trkpt>
      <trkpt lat="52.334334" lon="5.178646">
        <ele>2.082812</ele>
        <time>2026-08-29T16:49:08.897Z</time>
      </trkpt>
      <trkpt lat="52.334379" lon="5.178789">
        <ele>2.083354</ele>
        <time>2026-08-29T16:49:10.897Z</time>
      </trkpt>
      <trkpt lat="52.334407" lon="5.178933">
        <ele>2.063291</ele>
        <time>2026-08-29T16:49:12.899Z</time>
      </trkpt>
      <trkpt lat="52.334432" lon="5.179092">
        <ele>2.034054</ele>
        <time>2026-08-29T16:49:14.897Z</time>
      </trkpt>
      <trkpt lat="52.334450" lon="5.179265">
        <ele>2.002803</ele>
        <time>2026-08-29T16:49:16.896Z</time>
      </trkpt>
      <trkpt lat="52.334476" lon="5.179448">
        <ele>1.969345</ele>
        <time>2026-08-29T16:49:18.896Z</time>
      </trkpt>
      <trkpt lat="52.334513" lon="5.179625">
        <ele>1.936031</ele>
        <time>2026-08-29T16:49:20.897Z</time>
      </trkpt>
      <trkpt lat="52.334549" lon="5.179809">
        <ele>1.901625</ele>
        <time>2026-08-29T16:49:22.909Z</time>
      </trkpt>
      <trkpt lat="52.334585" lon="5.179989">
        <ele>1.867898</ele>
        <time>2026-08-29T16:49:24.896Z</time>
      </trkpt>
      <trkpt lat="52.334620" lon="5.180171">
        <ele>1.833920</ele>
        <time>2026-08-29T16:49:26.897Z</time>
      </trkpt>
      <trkpt lat="52.334657" lon="5.180351">
        <ele>1.800100</ele>
        <time>2026-08-29T16:49:28.897Z</time>
      </trkpt>
      <trkpt lat="52.334694" lon="5.180531">
        <ele>1.766281</ele>
        <time>2026-08-29T16:49:30.896Z</time>
      </trkpt>
      <trkpt lat="52.334727" lon="5.180707">
        <ele>1.733497</ele>
        <time>2026-08-29T16:49:32.896Z</time>
      </trkpt>
      <trkpt lat="52.334763" lon="5.180882">
        <ele>1.700614</ele>
        <time>2026-08-29T16:49:34.899Z</time>
      </trkpt>
      <trkpt lat="52.334799" lon="5.181060">
        <ele>1.667225</ele>
        <time>2026-08-29T16:49:36.896Z</time>
      </trkpt>
      <trkpt lat="52.334834" lon="5.181244">
        <ele>1.632907</ele>
        <time>2026-08-29T16:49:38.909Z</time>
      </trkpt>
      <trkpt lat="52.334869" lon="5.181420">
        <ele>1.599947</ele>
        <time>2026-08-29T16:49:40.896Z</time>
      </trkpt>
      <trkpt lat="52.334903" lon="5.181599">
        <ele>1.566566</ele>
        <time>2026-08-29T16:49:42.896Z</time>
      </trkpt>
      <trkpt lat="52.334939" lon="5.181775">
        <ele>1.618284</ele>
        <time>2026-08-29T16:49:44.895Z</time>
      </trkpt>
      <trkpt lat="52.334978" lon="5.181956">
        <ele>1.696483</ele>
        <time>2026-08-29T16:49:46.894Z</time>
      </trkpt>
      <trkpt lat="52.335015" lon="5.182132">
        <ele>1.772320</ele>
        <time>2026-08-29T16:49:48.910Z</time>
      </trkpt>
      <trkpt lat="52.335046" lon="5.182312">
        <ele>1.848518</ele>
        <time>2026-08-29T16:49:50.896Z</time>
      </trkpt>
      <trkpt lat="52.335083" lon="5.182493">
        <ele>1.926284</ele>
        <time>2026-08-29T16:49:52.895Z</time>
      </trkpt>
      <trkpt lat="52.335117" lon="5.182669">
        <ele>2.001493</ele>
        <time>2026-08-29T16:49:54.894Z</time>
      </trkpt>
      <trkpt lat="52.335156" lon="5.182849">
        <ele>2.079308</ele>
        <time>2026-08-29T16:49:56.896Z</time>
      </trkpt>
      <trkpt lat="52.335194" lon="5.183031">
        <ele>2.157673</ele>
        <time>2026-08-29T16:49:58.895Z</time>
      </trkpt>
      <trkpt lat="52.335231" lon="5.183213">
        <ele>2.235825</ele>
        <time>2026-08-29T16:50:00.898Z</time>
      </trkpt>
      <trkpt lat="52.335267" lon="5.183397">
        <ele>2.314544</ele>
        <time>2026-08-29T16:50:02.896Z</time>
      </trkpt>
      <trkpt lat="52.335304" lon="5.183580">
        <ele>2.393083</ele>
        <time>2026-08-29T16:50:04.895Z</time>
      </trkpt>
      <trkpt lat="52.335342" lon="5.183757">
        <ele>2.469523</ele>
        <time>2026-08-29T16:50:06.908Z</time>
      </trkpt>
      <trkpt lat="52.335384" lon="5.183921">
        <ele>2.541976</ele>
        <time>2026-08-29T16:50:08.909Z</time>
      </trkpt>
      <trkpt lat="52.335432" lon="5.184104">
        <ele>2.623117</ele>
        <time>2026-08-29T16:50:11.909Z</time>
      </trkpt>
      <trkpt lat="52.335516" lon="5.184161">
        <ele>2.683753</ele>
        <time>2026-08-29T16:50:15.897Z</time>
      </trkpt>
      <trkpt lat="52.335604" lon="5.184045">
        <ele>2.758301</ele>
        <time>2026-08-29T16:50:19.895Z</time>
      </trkpt>
      <trkpt lat="52.335622" lon="5.183880">
        <ele>2.706072</ele>
        <time>2026-08-29T16:50:22.895Z</time>
      </trkpt>
      <trkpt lat="52.335710" lon="5.183829">
        <ele>2.658463</ele>
        <time>2026-08-29T16:50:24.894Z</time>
      </trkpt>
      <trkpt lat="52.335805" lon="5.183775">
        <ele>2.607177</ele>
        <time>2026-08-29T16:50:26.895Z</time>
      </trkpt>
      <trkpt lat="52.335903" lon="5.183709">
        <ele>2.553133</ele>
        <time>2026-08-29T16:50:28.895Z</time>
      </trkpt>
      <trkpt lat="52.336005" lon="5.183655">
        <ele>2.498462</ele>
        <time>2026-08-29T16:50:30.898Z</time>
      </trkpt>
      <trkpt lat="52.336110" lon="5.183592">
        <ele>2.441429</ele>
        <time>2026-08-29T16:50:32.901Z</time>
      </trkpt>
      <trkpt lat="52.336228" lon="5.183546">
        <ele>2.379569</ele>
        <time>2026-08-29T16:50:34.909Z</time>
      </trkpt>
      <trkpt lat="52.336342" lon="5.183510">
        <ele>2.320359</ele>
        <time>2026-08-29T16:50:36.897Z</time>
      </trkpt>
      <trkpt lat="52.336457" lon="5.183475">
        <ele>2.260706</ele>
        <time>2026-08-29T16:50:38.896Z</time>
      </trkpt>
      <trkpt lat="52.336575" lon="5.183442">
        <ele>2.199657</ele>
        <time>2026-08-29T16:50:40.901Z</time>
      </trkpt>
      <trkpt lat="52.336699" lon="5.183406">
        <ele>2.135433</ele>
        <time>2026-08-29T16:50:42.908Z</time>
      </trkpt>
      <trkpt lat="52.336828" lon="5.183390">
        <ele>2.069458</ele>
        <time>2026-08-29T16:50:44.898Z</time>
      </trkpt>
      <trkpt lat="52.336957" lon="5.183376">
        <ele>2.003526</ele>
        <time>2026-08-29T16:50:46.908Z</time>
      </trkpt>
      <trkpt lat="52.337090" lon="5.183365">
        <ele>1.935613</ele>
        <time>2026-08-29T16:50:48.898Z</time>
      </trkpt>
      <trkpt lat="52.337224" lon="5.183369">
        <ele>1.867265</ele>
        <time>2026-08-29T16:50:50.908Z</time>
      </trkpt>
      <trkpt lat="52.337356" lon="5.183379">
        <ele>1.727806</ele>
        <time>2026-08-29T16:50:52.901Z</time>
      </trkpt>
      <trkpt lat="52.337494" lon="5.183387">
        <ele>1.535114</ele>
        <time>2026-08-29T16:50:54.897Z</time>
      </trkpt>
      <trkpt lat="52.337627" lon="5.183414">
        <ele>1.348098</ele>
        <time>2026-08-29T16:50:56.893Z</time>
      </trkpt>
      <trkpt lat="52.337767" lon="5.183438">
        <ele>1.151668</ele>
        <time>2026-08-29T16:50:58.895Z</time>
      </trkpt>
      <trkpt lat="52.337909" lon="5.183471">
        <ele>0.951527</ele>
        <time>2026-08-29T16:51:00.908Z</time>
      </trkpt>
      <trkpt lat="52.338051" lon="5.183511">
        <ele>0.750461</ele>
        <time>2026-08-29T16:51:02.897Z</time>
      </trkpt>
      <trkpt lat="52.338185" lon="5.183570">
        <ele>0.556823</ele>
        <time>2026-08-29T16:51:04.896Z</time>
      </trkpt>
      <trkpt lat="52.338317" lon="5.183627">
        <ele>0.366321</ele>
        <time>2026-08-29T16:51:06.908Z</time>
      </trkpt>
      <trkpt lat="52.338446" lon="5.183679">
        <ele>0.180930</ele>
        <time>2026-08-29T16:51:08.901Z</time>
      </trkpt>
      <trkpt lat="52.338565" lon="5.183748">
        <ele>0.004759</ele>
        <time>2026-08-29T16:51:10.894Z</time>
      </trkpt>
      <trkpt lat="52.338685" lon="5.183825">
        <ele>-0.175103</ele>
        <time>2026-08-29T16:51:12.896Z</time>
      </trkpt>
      <trkpt lat="52.338805" lon="5.183894">
        <ele>-0.352590</ele>
        <time>2026-08-29T16:51:14.908Z</time>
      </trkpt>
      <trkpt lat="52.338921" lon="5.183968">
        <ele>-0.526322</ele>
        <time>2026-08-29T16:51:16.895Z</time>
      </trkpt>
      <trkpt lat="52.339037" lon="5.184050">
        <ele>-0.688327</ele>
        <time>2026-08-29T16:51:18.893Z</time>
      </trkpt>
      <trkpt lat="52.339151" lon="5.184138">
        <ele>-0.790416</ele>
        <time>2026-08-29T16:51:20.908Z</time>
      </trkpt>
      <trkpt lat="52.339269" lon="5.184238">
        <ele>-0.898041</ele>
        <time>2026-08-29T16:51:22.895Z</time>
      </trkpt>
      <trkpt lat="52.339381" lon="5.184342">
        <ele>-1.002338</ele>
        <time>2026-08-29T16:51:24.893Z</time>
      </trkpt>
      <trkpt lat="52.339489" lon="5.184443">
        <ele>-1.103085</ele>
        <time>2026-08-29T16:51:26.895Z</time>
      </trkpt>
      <trkpt lat="52.339593" lon="5.184552">
        <ele>-1.203110</ele>
        <time>2026-08-29T16:51:28.895Z</time>
      </trkpt>
      <trkpt lat="52.339696" lon="5.184670">
        <ele>-1.304941</ele>
        <time>2026-08-29T16:51:30.894Z</time>
      </trkpt>
      <trkpt lat="52.339792" lon="5.184801">
        <ele>-1.406175</ele>
        <time>2026-08-29T16:51:32.895Z</time>
      </trkpt>
      <trkpt lat="52.339862" lon="5.184958">
        <ele>-1.502356</ele>
        <time>2026-08-29T16:51:34.896Z</time>
      </trkpt>
      <trkpt lat="52.339933" lon="5.185113">
        <ele>-1.598222</ele>
        <time>2026-08-29T16:51:36.893Z</time>
      </trkpt>
      <trkpt lat="52.340024" lon="5.185229">
        <ele>-1.691644</ele>
        <time>2026-08-29T16:51:38.895Z</time>
      </trkpt>
      <trkpt lat="52.340128" lon="5.185315">
        <ele>-1.786019</ele>
        <time>2026-08-29T16:51:40.897Z</time>
      </trkpt>
      <trkpt lat="52.340236" lon="5.185402">
        <ele>-1.883514</ele>
        <time>2026-08-29T16:51:42.896Z</time>
      </trkpt>
      <trkpt lat="52.340330" lon="5.185527">
        <ele>-1.981610</ele>
        <time>2026-08-29T16:51:44.895Z</time>
      </trkpt>
      <trkpt lat="52.340413" lon="5.185679">
        <ele>-2.082491</ele>
        <time>2026-08-29T16:51:46.898Z</time>
      </trkpt>
      <trkpt lat="52.340497" lon="5.185824">
        <ele>-2.096251</ele>
        <time>2026-08-29T16:51:48.898Z</time>
      </trkpt>
      <trkpt lat="52.340577" lon="5.185975">
        <ele>-2.044938</ele>
        <time>2026-08-29T16:51:50.908Z</time>
      </trkpt>
      <trkpt lat="52.340656" lon="5.186138">
        <ele>-1.991523</ele>
        <time>2026-08-29T16:51:52.900Z</time>
      </trkpt>
      <trkpt lat="52.340731" lon="5.186304">
        <ele>-1.938518</ele>
        <time>2026-08-29T16:51:54.908Z</time>
      </trkpt>
      <trkpt lat="52.340803" lon="5.186473">
        <ele>-1.885623</ele>
        <time>2026-08-29T16:51:56.900Z</time>
      </trkpt>
      <trkpt lat="52.340872" lon="5.186649">
        <ele>-1.831935</ele>
        <time>2026-08-29T16:51:58.908Z</time>
      </trkpt>
      <trkpt lat="52.340937" lon="5.186823">
        <ele>-1.779575</ele>
        <time>2026-08-29T16:52:00.901Z</time>
      </trkpt>
      <trkpt lat="52.341001" lon="5.187004">
        <ele>-1.725886</ele>
        <time>2026-08-29T16:52:02.900Z</time>
      </trkpt>
      <trkpt lat="52.341062" lon="5.187179">
        <ele>-1.674160</ele>
        <time>2026-08-29T16:52:04.901Z</time>
      </trkpt>
      <trkpt lat="52.341123" lon="5.187351">
        <ele>-1.623101</ele>
        <time>2026-08-29T16:52:06.895Z</time>
      </trkpt>
      <trkpt lat="52.341180" lon="5.187520">
        <ele>-1.573542</ele>
        <time>2026-08-29T16:52:08.899Z</time>
      </trkpt>
      <trkpt lat="52.341236" lon="5.187688">
        <ele>-1.524409</ele>
        <time>2026-08-29T16:52:10.908Z</time>
      </trkpt>
      <trkpt lat="52.341292" lon="5.187864">
        <ele>-1.473464</ele>
        <time>2026-08-29T16:52:12.894Z</time>
      </trkpt>
      <trkpt lat="52.341351" lon="5.188042">
        <ele>-1.421474</ele>
        <time>2026-08-29T16:52:14.908Z</time>
      </trkpt>
      <trkpt lat="52.341411" lon="5.188220">
        <ele>-1.369320</ele>
        <time>2026-08-29T16:52:16.897Z</time>
      </trkpt>
      <trkpt lat="52.341472" lon="5.188398">
        <ele>-1.325249</ele>
        <time>2026-08-29T16:52:18.900Z</time>
      </trkpt>
      <trkpt lat="52.341529" lon="5.188576">
        <ele>-1.281852</ele>
        <time>2026-08-29T16:52:20.898Z</time>
      </trkpt>
      <trkpt lat="52.341588" lon="5.188756">
        <ele>-1.237742</ele>
        <time>2026-08-29T16:52:22.897Z</time>
      </trkpt>
      <trkpt lat="52.341650" lon="5.188928">
        <ele>-1.194618</ele>
        <time>2026-08-29T16:52:24.898Z</time>
      </trkpt>
      <trkpt lat="52.341711" lon="5.189103">
        <ele>-1.151111</ele>
        <time>2026-08-29T16:52:26.908Z</time>
      </trkpt>
      <trkpt lat="52.341771" lon="5.189271">
        <ele>-1.109089</ele>
        <time>2026-08-29T16:52:28.901Z</time>
      </trkpt>
      <trkpt lat="52.341828" lon="5.189446">
        <ele>-1.066265</ele>
        <time>2026-08-29T16:52:30.895Z</time>
      </trkpt>
      <trkpt lat="52.341887" lon="5.189620">
        <ele>-1.023293</ele>
        <time>2026-08-29T16:52:32.897Z</time>
      </trkpt>
      <trkpt lat="52.341943" lon="5.189787">
        <ele>-0.982156</ele>
        <time>2026-08-29T16:52:34.900Z</time>
      </trkpt>
      <trkpt lat="52.342000" lon="5.189954">
        <ele>-0.940849</ele>
        <time>2026-08-29T16:52:36.901Z</time>
      </trkpt>
      <trkpt lat="52.342057" lon="5.190129">
        <ele>-0.898025</ele>
        <time>2026-08-29T16:52:38.901Z</time>
      </trkpt>
      <trkpt lat="52.342116" lon="5.190298">
        <ele>-0.855994</ele>
        <time>2026-08-29T16:52:40.897Z</time>
      </trkpt>
      <trkpt lat="52.342172" lon="5.190471">
        <ele>-0.813717</ele>
        <time>2026-08-29T16:52:42.898Z</time>
      </trkpt>
      <trkpt lat="52.342229" lon="5.190648">
        <ele>-0.770511</ele>
        <time>2026-08-29T16:52:44.899Z</time>
      </trkpt>
      <trkpt lat="52.342286" lon="5.190820">
        <ele>-0.740916</ele>
        <time>2026-08-29T16:52:46.900Z</time>
      </trkpt>
      <trkpt lat="52.342348" lon="5.190989">
        <ele>-0.795672</ele>
        <time>2026-08-29T16:52:48.908Z</time>
      </trkpt>
      <trkpt lat="52.342408" lon="5.191156">
        <ele>-0.849486</ele>
        <time>2026-08-29T16:52:50.897Z</time>
      </trkpt>
      <trkpt lat="52.342467" lon="5.191331">
        <ele>-0.905006</ele>
        <time>2026-08-29T16:52:52.895Z</time>
      </trkpt>
      <trkpt lat="52.342522" lon="5.191503">
        <ele>-0.958930</ele>
        <time>2026-08-29T16:52:54.908Z</time>
      </trkpt>
      <trkpt lat="52.342581" lon="5.191674">
        <ele>-1.013479</ele>
        <time>2026-08-29T16:52:56.908Z</time>
      </trkpt>
      <trkpt lat="52.342641" lon="5.191847">
        <ele>-1.068736</ele>
        <time>2026-08-29T16:52:58.894Z</time>
      </trkpt>
      <trkpt lat="52.342701" lon="5.192018">
        <ele>-1.123510</ele>
        <time>2026-08-29T16:53:00.898Z</time>
      </trkpt>
      <trkpt lat="52.342759" lon="5.192187">
        <ele>-1.177352</ele>
        <time>2026-08-29T16:53:02.901Z</time>
      </trkpt>
      <trkpt lat="52.342816" lon="5.192361">
        <ele>-1.232193</ele>
        <time>2026-08-29T16:53:04.895Z</time>
      </trkpt>
      <trkpt lat="52.342877" lon="5.192534">
        <ele>-1.287676</ele>
        <time>2026-08-29T16:53:06.891Z</time>
      </trkpt>
      <trkpt lat="52.342937" lon="5.192707">
        <ele>-1.342932</ele>
        <time>2026-08-29T16:53:08.900Z</time>
      </trkpt>
      <trkpt lat="52.342992" lon="5.192876">
        <ele>-1.396119</ele>
        <time>2026-08-29T16:53:10.902Z</time>
      </trkpt>
      <trkpt lat="52.343047" lon="5.193046">
        <ele>-1.449551</ele>
        <time>2026-08-29T16:53:12.901Z</time>
      </trkpt>
      <trkpt lat="52.343109" lon="5.193221">
        <ele>-1.505742</ele>
        <time>2026-08-29T16:53:14.902Z</time>
      </trkpt>
      <trkpt lat="52.343167" lon="5.193400">
        <ele>-1.541175</ele>
        <time>2026-08-29T16:53:16.896Z</time>
      </trkpt>
      <trkpt lat="52.343227" lon="5.193574">
        <ele>-1.486115</ele>
        <time>2026-08-29T16:53:18.901Z</time>
      </trkpt>
      <trkpt lat="52.343286" lon="5.193749">
        <ele>-1.431035</ele>
        <time>2026-08-29T16:53:20.901Z</time>
      </trkpt>
      <trkpt lat="52.343340" lon="5.193922">
        <ele>-1.377499</ele>
        <time>2026-08-29T16:53:22.901Z</time>
      </trkpt>
      <trkpt lat="52.343399" lon="5.194094">
        <ele>-1.323141</ele>
        <time>2026-08-29T16:53:24.897Z</time>
      </trkpt>
      <trkpt lat="52.343456" lon="5.194269">
        <ele>-1.268491</ele>
        <time>2026-08-29T16:53:26.896Z</time>
      </trkpt>
      <trkpt lat="52.343516" lon="5.194441">
        <ele>-1.213911</ele>
        <time>2026-08-29T16:53:28.899Z</time>
      </trkpt>
      <trkpt lat="52.343576" lon="5.194612">
        <ele>-1.159570</ele>
        <time>2026-08-29T16:53:30.898Z</time>
      </trkpt>
      <trkpt lat="52.343631" lon="5.194787">
        <ele>-1.105339</ele>
        <time>2026-08-29T16:53:32.901Z</time>
      </trkpt>
      <trkpt lat="52.343691" lon="5.194962">
        <ele>-1.050040</ele>
        <time>2026-08-29T16:53:34.900Z</time>
      </trkpt>
      <trkpt lat="52.343749" lon="5.195127">
        <ele>-0.997582</ele>
        <time>2026-08-29T16:53:36.897Z</time>
      </trkpt>
      <trkpt lat="52.343808" lon="5.195297">
        <ele>-0.943704</ele>
        <time>2026-08-29T16:53:38.899Z</time>
      </trkpt>
      <trkpt lat="52.343867" lon="5.195475">
        <ele>-0.887899</ele>
        <time>2026-08-29T16:53:40.901Z</time>
      </trkpt>
      <trkpt lat="52.343924" lon="5.195656">
        <ele>-0.831785</ele>
        <time>2026-08-29T16:53:42.902Z</time>
      </trkpt>
      <trkpt lat="52.343983" lon="5.195832">
        <ele>-0.776464</ele>
        <time>2026-08-29T16:53:44.897Z</time>
      </trkpt>
      <trkpt lat="52.344041" lon="5.196006">
        <ele>-0.760615</ele>
        <time>2026-08-29T16:53:46.897Z</time>
      </trkpt>
      <trkpt lat="52.344101" lon="5.196184">
        <ele>-0.822579</ele>
        <time>2026-08-29T16:53:48.901Z</time>
      </trkpt>
      <trkpt lat="52.344161" lon="5.196357">
        <ele>-0.883213</ele>
        <time>2026-08-29T16:53:50.901Z</time>
      </trkpt>
      <trkpt lat="52.344222" lon="5.196531">
        <ele>-0.944359</ele>
        <time>2026-08-29T16:53:52.902Z</time>
      </trkpt>
      <trkpt lat="52.344280" lon="5.196712">
        <ele>-1.006656</ele>
        <time>2026-08-29T16:53:54.902Z</time>
      </trkpt>
      <trkpt lat="52.344340" lon="5.196881">
        <ele>-1.066233</ele>
        <time>2026-08-29T16:53:56.902Z</time>
      </trkpt>
      <trkpt lat="52.344398" lon="5.197054">
        <ele>-1.126380</ele>
        <time>2026-08-29T16:53:58.901Z</time>
      </trkpt>
      <trkpt lat="52.344458" lon="5.197232">
        <ele>-1.188344</ele>
        <time>2026-08-29T16:54:00.894Z</time>
      </trkpt>
      <trkpt lat="52.344515" lon="5.197410">
        <ele>-1.249599</ele>
        <time>2026-08-29T16:54:02.893Z</time>
      </trkpt>
      <trkpt lat="52.344573" lon="5.197578">
        <ele>-1.308415</ele>
        <time>2026-08-29T16:54:04.895Z</time>
      </trkpt>
      <trkpt lat="52.344628" lon="5.197748">
        <ele>-1.367047</ele>
        <time>2026-08-29T16:54:06.902Z</time>
      </trkpt>
      <trkpt lat="52.344686" lon="5.197917">
        <ele>-1.426128</ele>
        <time>2026-08-29T16:54:08.898Z</time>
      </trkpt>
      <trkpt lat="52.344747" lon="5.198090">
        <ele>-1.487010</ele>
        <time>2026-08-29T16:54:10.901Z</time>
      </trkpt>
      <trkpt lat="52.344806" lon="5.198264">
        <ele>-1.547665</ele>
        <time>2026-08-29T16:54:12.893Z</time>
      </trkpt>
      <trkpt lat="52.344866" lon="5.198440">
        <ele>-1.609095</ele>
        <time>2026-08-29T16:54:14.894Z</time>
      </trkpt>
      <trkpt lat="52.344927" lon="5.198606">
        <ele>-1.627441</ele>
        <time>2026-08-29T16:54:16.901Z</time>
      </trkpt>
      <trkpt lat="52.344986" lon="5.198769">
        <ele>-1.608176</ele>
        <time>2026-08-29T16:54:18.901Z</time>
      </trkpt>
      <trkpt lat="52.345050" lon="5.198925">
        <ele>-1.589069</ele>
        <time>2026-08-29T16:54:20.901Z</time>
      </trkpt>
      <trkpt lat="52.345116" lon="5.199063">
        <ele>-1.571248</ele>
        <time>2026-08-29T16:54:22.893Z</time>
      </trkpt>
      <trkpt lat="52.345191" lon="5.199199">
        <ele>-1.552618</ele>
        <time>2026-08-29T16:54:24.901Z</time>
      </trkpt>
      <trkpt lat="52.345271" lon="5.199326">
        <ele>-1.534069</ele>
        <time>2026-08-29T16:54:26.901Z</time>
      </trkpt>
      <trkpt lat="52.345361" lon="5.199443">
        <ele>-1.514939</ele>
        <time>2026-08-29T16:54:28.901Z</time>
      </trkpt>
      <trkpt lat="52.345460" lon="5.199539">
        <ele>-1.495787</ele>
        <time>2026-08-29T16:54:30.900Z</time>
      </trkpt>
      <trkpt lat="52.345567" lon="5.199610">
        <ele>-1.476570</ele>
        <time>2026-08-29T16:54:32.902Z</time>
      </trkpt>
      <trkpt lat="52.345678" lon="5.199676">
        <ele>-1.456913</ele>
        <time>2026-08-29T16:54:34.902Z</time>
      </trkpt>
      <trkpt lat="52.345790" lon="5.199741">
        <ele>-1.437134</ele>
        <time>2026-08-29T16:54:36.896Z</time>
      </trkpt>
      <trkpt lat="52.345902" lon="5.199785">
        <ele>-1.417963</ele>
        <time>2026-08-29T16:54:38.901Z</time>
      </trkpt>
      <trkpt lat="52.346021" lon="5.199762">
        <ele>-1.398018</ele>
        <time>2026-08-29T16:54:40.895Z</time>
      </trkpt>
      <trkpt lat="52.346138" lon="5.199764">
        <ele>-1.378543</ele>
        <time>2026-08-29T16:54:42.902Z</time>
      </trkpt>
      <trkpt lat="52.346255" lon="5.199762">
        <ele>-1.359068</ele>
        <time>2026-08-29T16:54:44.895Z</time>
      </trkpt>
      <trkpt lat="52.346369" lon="5.199742">
        <ele>-1.339984</ele>
        <time>2026-08-29T16:54:46.902Z</time>
      </trkpt>
      <trkpt lat="52.346480" lon="5.199711">
        <ele>-1.294832</ele>
        <time>2026-08-29T16:54:48.902Z</time>
      </trkpt>
      <trkpt lat="52.346592" lon="5.199662">
        <ele>-1.245564</ele>
        <time>2026-08-29T16:54:50.901Z</time>
      </trkpt>
      <trkpt lat="52.346699" lon="5.199598">
        <ele>-1.197152</ele>
        <time>2026-08-29T16:54:52.902Z</time>
      </trkpt>
      <trkpt lat="52.346805" lon="5.199526">
        <ele>-1.148380</ele>
        <time>2026-08-29T16:54:54.901Z</time>
      </trkpt>
      <trkpt lat="52.346907" lon="5.199443">
        <ele>-1.099973</ele>
        <time>2026-08-29T16:54:56.901Z</time>
      </trkpt>
      <trkpt lat="52.347007" lon="5.199356">
        <ele>-1.051846</ele>
        <time>2026-08-29T16:54:58.901Z</time>
      </trkpt>
      <trkpt lat="52.347097" lon="5.199279">
        <ele>-1.008690</ele>
        <time>2026-08-29T16:55:00.901Z</time>
      </trkpt>
      <trkpt lat="52.347181" lon="5.199198">
        <ele>-0.967259</ele>
        <time>2026-08-29T16:55:02.901Z</time>
      </trkpt>
      <trkpt lat="52.347271" lon="5.199141">
        <ele>-0.926249</ele>
        <time>2026-08-29T16:55:04.896Z</time>
      </trkpt>
      <trkpt lat="52.347356" lon="5.199264">
        <ele>-0.878036</ele>
        <time>2026-08-29T16:55:07.900Z</time>
      </trkpt>
      <trkpt lat="52.347465" lon="5.199301">
        <ele>-0.830729</ele>
        <time>2026-08-29T16:55:10.900Z</time>
      </trkpt>
      <trkpt lat="52.347595" lon="5.199257">
        <ele>-0.774314</ele>
        <time>2026-08-29T16:55:13.894Z</time>
      </trkpt>
      <trkpt lat="52.347699" lon="5.199216">
        <ele>-0.728853</ele>
        <time>2026-08-29T16:55:15.897Z</time>
      </trkpt>
      <trkpt lat="52.347816" lon="5.199183">
        <ele>-0.678398</ele>
        <time>2026-08-29T16:55:17.901Z</time>
      </trkpt>
      <trkpt lat="52.347927" lon="5.199150">
        <ele>-0.630455</ele>
        <time>2026-08-29T16:55:19.901Z</time>
      </trkpt>
      <trkpt lat="52.348030" lon="5.199113">
        <ele>-0.585641</ele>
        <time>2026-08-29T16:55:21.901Z</time>
      </trkpt>
      <trkpt lat="52.348121" lon="5.199077">
        <ele>-0.629511</ele>
        <time>2026-08-29T16:55:23.895Z</time>
      </trkpt>
      <trkpt lat="52.348222" lon="5.199104">
        <ele>-0.715892</ele>
        <time>2026-08-29T16:55:27.895Z</time>
      </trkpt>
      <trkpt lat="52.348240" lon="5.199304">
        <ele>-0.820127</ele>
        <time>2026-08-29T16:55:31.900Z</time>
      </trkpt>
      <trkpt lat="52.348261" lon="5.199498">
        <ele>-0.921715</ele>
        <time>2026-08-29T16:55:34.901Z</time>
      </trkpt>
      <trkpt lat="52.348292" lon="5.199710">
        <ele>-1.034112</ele>
        <time>2026-08-29T16:55:37.900Z</time>
      </trkpt>
      <trkpt lat="52.348318" lon="5.199927">
        <ele>-1.148132</ele>
        <time>2026-08-29T16:55:40.893Z</time>
      </trkpt>
      <trkpt lat="52.348337" lon="5.200074">
        <ele>-1.225605</ele>
        <time>2026-08-29T16:55:42.901Z</time>
      </trkpt>
      <trkpt lat="52.348351" lon="5.200225">
        <ele>-1.304354</ele>
        <time>2026-08-29T16:55:44.901Z</time>
      </trkpt>
      <trkpt lat="52.348368" lon="5.200380">
        <ele>-1.385551</ele>
        <time>2026-08-29T16:55:46.901Z</time>
      </trkpt>
      <trkpt lat="52.348386" lon="5.200537">
        <ele>-1.467915</ele>
        <time>2026-08-29T16:55:48.901Z</time>
      </trkpt>
      <trkpt lat="52.348405" lon="5.200695">
        <ele>-1.550945</ele>
        <time>2026-08-29T16:55:50.893Z</time>
      </trkpt>
      <trkpt lat="52.348427" lon="5.200856">
        <ele>-1.636010</ele>
        <time>2026-08-29T16:55:52.894Z</time>
      </trkpt>
      <trkpt lat="52.348448" lon="5.201021">
        <ele>-1.722912</ele>
        <time>2026-08-29T16:55:54.895Z</time>
      </trkpt>
      <trkpt lat="52.348468" lon="5.201189">
        <ele>-1.811164</ele>
        <time>2026-08-29T16:55:56.900Z</time>
      </trkpt>
      <trkpt lat="52.348487" lon="5.201356">
        <ele>-1.898752</ele>
        <time>2026-08-29T16:55:58.895Z</time>
      </trkpt>
      <trkpt lat="52.348506" lon="5.201528">
        <ele>-1.988875</ele>
        <time>2026-08-29T16:56:00.893Z</time>
      </trkpt>
      <trkpt lat="52.348525" lon="5.201699">
        <ele>-2.078491</ele>
        <time>2026-08-29T16:56:02.893Z</time>
      </trkpt>
      <trkpt lat="52.348544" lon="5.201867">
        <ele>-2.040342</ele>
        <time>2026-08-29T16:56:04.900Z</time>
      </trkpt>
      <trkpt lat="52.348564" lon="5.202035">
        <ele>-1.979103</ele>
        <time>2026-08-29T16:56:06.900Z</time>
      </trkpt>
      <trkpt lat="52.348585" lon="5.202212">
        <ele>-1.914591</ele>
        <time>2026-08-29T16:56:08.900Z</time>
      </trkpt>
      <trkpt lat="52.348607" lon="5.202387">
        <ele>-1.850667</ele>
        <time>2026-08-29T16:56:10.901Z</time>
      </trkpt>
      <trkpt lat="52.348626" lon="5.202554">
        <ele>-1.789889</ele>
        <time>2026-08-29T16:56:12.894Z</time>
      </trkpt>
      <trkpt lat="52.348642" lon="5.202747">
        <ele>-1.720203</ele>
        <time>2026-08-29T16:56:15.900Z</time>
      </trkpt>
      <trkpt lat="52.348669" lon="5.202962">
        <ele>-1.641670</ele>
        <time>2026-08-29T16:56:18.917Z</time>
      </trkpt>
      <trkpt lat="52.348676" lon="5.203114">
        <ele>-1.587132</ele>
        <time>2026-08-29T16:56:20.901Z</time>
      </trkpt>
      <trkpt lat="52.348687" lon="5.203279">
        <ele>-1.527747</ele>
        <time>2026-08-29T16:56:22.893Z</time>
      </trkpt>
      <trkpt lat="52.348700" lon="5.203485">
        <ele>-1.453651</ele>
        <time>2026-08-29T16:56:25.901Z</time>
      </trkpt>
      <trkpt lat="52.348775" lon="5.203600">
        <ele>-1.393463</ele>
        <time>2026-08-29T16:56:28.901Z</time>
      </trkpt>
      <trkpt lat="52.348866" lon="5.203584">
        <ele>-1.339856</ele>
        <time>2026-08-29T16:56:30.902Z</time>
      </trkpt>
      <trkpt lat="52.348964" lon="5.203558">
        <ele>-1.281707</ele>
        <time>2026-08-29T16:56:32.901Z</time>
      </trkpt>
      <trkpt lat="52.349067" lon="5.203523">
        <ele>-1.220093</ele>
        <time>2026-08-29T16:56:34.895Z</time>
      </trkpt>
      <trkpt lat="52.349166" lon="5.203498">
        <ele>-1.161421</ele>
        <time>2026-08-29T16:56:36.901Z</time>
      </trkpt>
      <trkpt lat="52.349266" lon="5.203456">
        <ele>-1.100953</ele>
        <time>2026-08-29T16:56:38.895Z</time>
      </trkpt>
      <trkpt lat="52.349365" lon="5.203424">
        <ele>-1.041848</ele>
        <time>2026-08-29T16:56:40.900Z</time>
      </trkpt>
      <trkpt lat="52.349474" lon="5.203392">
        <ele>-1.208773</ele>
        <time>2026-08-29T16:56:42.899Z</time>
      </trkpt>
      <trkpt lat="52.349586" lon="5.203343">
        <ele>-1.396450</ele>
        <time>2026-08-29T16:56:44.901Z</time>
      </trkpt>
      <trkpt lat="52.349686" lon="5.203314">
        <ele>-1.560858</ele>
        <time>2026-08-29T16:56:46.901Z</time>
      </trkpt>
      <trkpt lat="52.349793" lon="5.203260">
        <ele>-1.742121</ele>
        <time>2026-08-29T16:56:48.901Z</time>
      </trkpt>
      <trkpt lat="52.349895" lon="5.203183">
        <ele>-1.923956</ele>
        <time>2026-08-29T16:56:50.901Z</time>
      </trkpt>
      <trkpt lat="52.350000" lon="5.203098">
        <ele>-2.113584</ele>
        <time>2026-08-29T16:56:52.901Z</time>
      </trkpt>
      <trkpt lat="52.350097" lon="5.203021">
        <ele>-2.288102</ele>
        <time>2026-08-29T16:56:54.901Z</time>
      </trkpt>
      <trkpt lat="52.350192" lon="5.202932">
        <ele>-2.465296</ele>
        <time>2026-08-29T16:56:56.900Z</time>
      </trkpt>
      <trkpt lat="52.350289" lon="5.202839">
        <ele>-2.647274</ele>
        <time>2026-08-29T16:56:58.894Z</time>
      </trkpt>
      <trkpt lat="52.350385" lon="5.202752">
        <ele>-2.824909</ele>
        <time>2026-08-29T16:57:00.901Z</time>
      </trkpt>
      <trkpt lat="52.350481" lon="5.202668">
        <ele>-3.001126</ele>
        <time>2026-08-29T16:57:02.895Z</time>
      </trkpt>
      <trkpt lat="52.350581" lon="5.202578">
        <ele>-3.185863</ele>
        <time>2026-08-29T16:57:04.901Z</time>
      </trkpt>
      <trkpt lat="52.350684" lon="5.202491">
        <ele>-3.373493</ele>
        <time>2026-08-29T16:57:06.896Z</time>
      </trkpt>
      <trkpt lat="52.350784" lon="5.202404">
        <ele>-3.556819</ele>
        <time>2026-08-29T16:57:08.901Z</time>
      </trkpt>
      <trkpt lat="52.350884" lon="5.202318">
        <ele>-3.739684</ele>
        <time>2026-08-29T16:57:10.896Z</time>
      </trkpt>
      <trkpt lat="52.350982" lon="5.202233">
        <ele>-3.919223</ele>
        <time>2026-08-29T16:57:12.901Z</time>
      </trkpt>
      <trkpt lat="52.351085" lon="5.202142">
        <ele>-4.005810</ele>
        <time>2026-08-29T16:57:14.900Z</time>
      </trkpt>
      <trkpt lat="52.351198" lon="5.202041">
        <ele>-4.078814</ele>
        <time>2026-08-29T16:57:16.900Z</time>
      </trkpt>
      <trkpt lat="52.351317" lon="5.201934">
        <ele>-4.155801</ele>
        <time>2026-08-29T16:57:18.895Z</time>
      </trkpt>
      <trkpt lat="52.351439" lon="5.201827">
        <ele>-4.234283</ele>
        <time>2026-08-29T16:57:20.900Z</time>
      </trkpt>
      <trkpt lat="52.351564" lon="5.201717">
        <ele>-4.314755</ele>
        <time>2026-08-29T16:57:22.894Z</time>
      </trkpt>
      <trkpt lat="52.351684" lon="5.201602">
        <ele>-4.393601</ele>
        <time>2026-08-29T16:57:24.901Z</time>
      </trkpt>
      <trkpt lat="52.351797" lon="5.201503">
        <ele>-4.466276</ele>
        <time>2026-08-29T16:57:26.901Z</time>
      </trkpt>
      <trkpt lat="52.351925" lon="5.201376">
        <ele>-4.551147</ele>
        <time>2026-08-29T16:57:28.896Z</time>
      </trkpt>
      <trkpt lat="52.352012" lon="5.201322">
        <ele>-4.603907</ele>
        <time>2026-08-29T16:57:30.895Z</time>
      </trkpt>
      <trkpt lat="52.352090" lon="5.201234">
        <ele>-4.657622</ele>
        <time>2026-08-29T16:57:31.895Z</time>
      </trkpt>
      <trkpt lat="52.352223" lon="5.201157">
        <ele>-4.737616</ele>
        <time>2026-08-29T16:57:33.896Z</time>
      </trkpt>
      <trkpt lat="52.352328" lon="5.201063">
        <ele>-4.805476</ele>
        <time>2026-08-29T16:57:35.901Z</time>
      </trkpt>
      <trkpt lat="52.352432" lon="5.200973">
        <ele>-4.872181</ele>
        <time>2026-08-29T16:57:37.901Z</time>
      </trkpt>
      <trkpt lat="52.352521" lon="5.200884">
        <ele>-4.931318</ele>
        <time>2026-08-29T16:57:39.895Z</time>
      </trkpt>
      <trkpt lat="52.352609" lon="5.200805">
        <ele>-4.961498</ele>
        <time>2026-08-29T16:57:41.901Z</time>
      </trkpt>
      <trkpt lat="52.352694" lon="5.200728">
        <ele>-4.934627</ele>
        <time>2026-08-29T16:57:43.897Z</time>
      </trkpt>
      <trkpt lat="52.352781" lon="5.200654">
        <ele>-4.907507</ele>
        <time>2026-08-29T16:57:45.897Z</time>
      </trkpt>
      <trkpt lat="52.352873" lon="5.200572">
        <ele>-4.878532</ele>
        <time>2026-08-29T16:57:47.901Z</time>
      </trkpt>
      <trkpt lat="52.352964" lon="5.200494">
        <ele>-4.850118</ele>
        <time>2026-08-29T16:57:49.895Z</time>
      </trkpt>
      <trkpt lat="52.353059" lon="5.200417">
        <ele>-4.820796</ele>
        <time>2026-08-29T16:57:51.901Z</time>
      </trkpt>
      <trkpt lat="52.353156" lon="5.200339">
        <ele>-4.790903</ele>
        <time>2026-08-29T16:57:53.901Z</time>
      </trkpt>
      <trkpt lat="52.353251" lon="5.200262">
        <ele>-4.761580</ele>
        <time>2026-08-29T16:57:55.901Z</time>
      </trkpt>
      <trkpt lat="52.353350" lon="5.200180">
        <ele>-4.730890</ele>
        <time>2026-08-29T16:57:57.901Z</time>
      </trkpt>
      <trkpt lat="52.353452" lon="5.200099">
        <ele>-4.699532</ele>
        <time>2026-08-29T16:57:59.900Z</time>
      </trkpt>
      <trkpt lat="52.353560" lon="5.200044">
        <ele>-4.668245</ele>
        <time>2026-08-29T16:58:01.895Z</time>
      </trkpt>
      <trkpt lat="52.353676" lon="5.200015">
        <ele>-4.635786</ele>
        <time>2026-08-29T16:58:03.901Z</time>
      </trkpt>
      <trkpt lat="52.353796" lon="5.200009">
        <ele>-4.602577</ele>
        <time>2026-08-29T16:58:05.901Z</time>
      </trkpt>
      <trkpt lat="52.353915" lon="5.200042">
        <ele>-4.569191</ele>
        <time>2026-08-29T16:58:07.901Z</time>
      </trkpt>
      <trkpt lat="52.354037" lon="5.200101">
        <ele>-4.534002</ele>
        <time>2026-08-29T16:58:09.901Z</time>
      </trkpt>
      <trkpt lat="52.354153" lon="5.200166">
        <ele>-4.500087</ele>
        <time>2026-08-29T16:58:11.900Z</time>
      </trkpt>
      <trkpt lat="52.354270" lon="5.200232">
        <ele>-4.455960</ele>
        <time>2026-08-29T16:58:13.901Z</time>
      </trkpt>
      <trkpt lat="52.354391" lon="5.200304">
        <ele>-4.369072</ele>
        <time>2026-08-29T16:58:15.898Z</time>
      </trkpt>
      <trkpt lat="52.354517" lon="5.200369">
        <ele>-4.279914</ele>
        <time>2026-08-29T16:58:17.896Z</time>
      </trkpt>
      <trkpt lat="52.354633" lon="5.200434">
        <ele>-4.197168</ele>
        <time>2026-08-29T16:58:19.897Z</time>
      </trkpt>
      <trkpt lat="52.354749" lon="5.200498">
        <ele>-4.114554</ele>
        <time>2026-08-29T16:58:21.895Z</time>
      </trkpt>
      <trkpt lat="52.354869" lon="5.200559">
        <ele>-4.029753</ele>
        <time>2026-08-29T16:58:23.894Z</time>
      </trkpt>
      <trkpt lat="52.354990" lon="5.200626">
        <ele>-3.943547</ele>
        <time>2026-08-29T16:58:25.895Z</time>
      </trkpt>
      <trkpt lat="52.355106" lon="5.200692">
        <ele>-3.860667</ele>
        <time>2026-08-29T16:58:27.901Z</time>
      </trkpt>
      <trkpt lat="52.355218" lon="5.200761">
        <ele>-3.779905</ele>
        <time>2026-08-29T16:58:29.902Z</time>
      </trkpt>
      <trkpt lat="52.355333" lon="5.200825">
        <ele>-3.697931</ele>
        <time>2026-08-29T16:58:31.902Z</time>
      </trkpt>
      <trkpt lat="52.355447" lon="5.200884">
        <ele>-3.617241</ele>
        <time>2026-08-29T16:58:33.894Z</time>
      </trkpt>
      <trkpt lat="52.355560" lon="5.200943">
        <ele>-3.537194</ele>
        <time>2026-08-29T16:58:35.902Z</time>
      </trkpt>
      <trkpt lat="52.355670" lon="5.201002">
        <ele>-3.459073</ele>
        <time>2026-08-29T16:58:37.901Z</time>
      </trkpt>
      <trkpt lat="52.355776" lon="5.201061">
        <ele>-3.383514</ele>
        <time>2026-08-29T16:58:39.901Z</time>
      </trkpt>
      <trkpt lat="52.355879" lon="5.201125">
        <ele>-3.309162</ele>
        <time>2026-08-29T16:58:41.902Z</time>
      </trkpt>
      <trkpt lat="52.355976" lon="5.201191">
        <ele>-3.256075</ele>
        <time>2026-08-29T16:58:43.895Z</time>
      </trkpt>
      <trkpt lat="52.356060" lon="5.201285">
        <ele>-3.246864</ele>
        <time>2026-08-29T16:58:45.901Z</time>
      </trkpt>
      <trkpt lat="52.356136" lon="5.201372">
        <ele>-3.238470</ele>
        <time>2026-08-29T16:58:47.901Z</time>
      </trkpt>
      <trkpt lat="52.356242" lon="5.201468">
        <ele>-3.227504</ele>
        <time>2026-08-29T16:58:50.901Z</time>
      </trkpt>
      <trkpt lat="52.356236" lon="5.201630">
        <ele>-3.218531</ele>
        <time>2026-08-29T16:58:53.900Z</time>
      </trkpt>
      <trkpt lat="52.356193" lon="5.201829">
        <ele>-3.206860</ele>
        <time>2026-08-29T16:58:56.901Z</time>
      </trkpt>
      <trkpt lat="52.356151" lon="5.202031">
        <ele>-3.195062</ele>
        <time>2026-08-29T16:58:59.897Z</time>
      </trkpt>
      <trkpt lat="52.356119" lon="5.202174">
        <ele>-3.186642</ele>
        <time>2026-08-29T16:59:01.900Z</time>
      </trkpt>
      <trkpt lat="52.356089" lon="5.202320">
        <ele>-3.178125</ele>
        <time>2026-08-29T16:59:03.902Z</time>
      </trkpt>
      <trkpt lat="52.356059" lon="5.202460">
        <ele>-3.169922</ele>
        <time>2026-08-29T16:59:05.895Z</time>
      </trkpt>
      <trkpt lat="52.356029" lon="5.202603">
        <ele>-3.161563</ele>
        <time>2026-08-29T16:59:07.900Z</time>
      </trkpt>
      <trkpt lat="52.355983" lon="5.202813">
        <ele>-3.149228</ele>
        <time>2026-08-29T16:59:10.893Z</time>
      </trkpt>
      <trkpt lat="52.355949" lon="5.202967">
        <ele>-3.140174</ele>
        <time>2026-08-29T16:59:12.901Z</time>
      </trkpt>
      <trkpt lat="52.355914" lon="5.203130">
        <ele>-3.130621</ele>
        <time>2026-08-29T16:59:14.901Z</time>
      </trkpt>
      <trkpt lat="52.355879" lon="5.203288">
        <ele>-3.121329</ele>
        <time>2026-08-29T16:59:16.901Z</time>
      </trkpt>
      <trkpt lat="52.355847" lon="5.203444">
        <ele>-3.112230</ele>
        <time>2026-08-29T16:59:18.900Z</time>
      </trkpt>
      <trkpt lat="52.355819" lon="5.203609">
        <ele>-3.102762</ele>
        <time>2026-08-29T16:59:20.895Z</time>
      </trkpt>
      <trkpt lat="52.355786" lon="5.203775">
        <ele>-3.097337</ele>
        <time>2026-08-29T16:59:22.895Z</time>
      </trkpt>
      <trkpt lat="52.355751" lon="5.203947">
        <ele>-3.101925</ele>
        <time>2026-08-29T16:59:24.898Z</time>
      </trkpt>
      <trkpt lat="52.355716" lon="5.204113">
        <ele>-3.106369</ele>
        <time>2026-08-29T16:59:26.896Z</time>
      </trkpt>
      <trkpt lat="52.355679" lon="5.204270">
        <ele>-3.110628</ele>
        <time>2026-08-29T16:59:28.908Z</time>
      </trkpt>
      <trkpt lat="52.355649" lon="5.204420">
        <ele>-3.114622</ele>
        <time>2026-08-29T16:59:30.896Z</time>
      </trkpt>
      <trkpt lat="52.355621" lon="5.204577">
        <ele>-3.118761</ele>
        <time>2026-08-29T16:59:32.899Z</time>
      </trkpt>
      <trkpt lat="52.355589" lon="5.204725">
        <ele>-3.122734</ele>
        <time>2026-08-29T16:59:34.898Z</time>
      </trkpt>
      <trkpt lat="52.355558" lon="5.204879">
        <ele>-3.126838</ele>
        <time>2026-08-29T16:59:36.895Z</time>
      </trkpt>
      <trkpt lat="52.355527" lon="5.205038">
        <ele>-3.131061</ele>
        <time>2026-08-29T16:59:38.897Z</time>
      </trkpt>
      <trkpt lat="52.355496" lon="5.205200">
        <ele>-3.135358</ele>
        <time>2026-08-29T16:59:40.908Z</time>
      </trkpt>
      <trkpt lat="52.355464" lon="5.205366">
        <ele>-3.139763</ele>
        <time>2026-08-29T16:59:42.900Z</time>
      </trkpt>
      <trkpt lat="52.355429" lon="5.205521">
        <ele>-3.143945</ele>
        <time>2026-08-29T16:59:44.897Z</time>
      </trkpt>
      <trkpt lat="52.355395" lon="5.205668">
        <ele>-3.147923</ele>
        <time>2026-08-29T16:59:46.894Z</time>
      </trkpt>
      <trkpt lat="52.355365" lon="5.205814">
        <ele>-3.151821</ele>
        <time>2026-08-29T16:59:48.902Z</time>
      </trkpt>
      <trkpt lat="52.355332" lon="5.205963">
        <ele>-3.155832</ele>
        <time>2026-08-29T16:59:50.898Z</time>
      </trkpt>
      <trkpt lat="52.355295" lon="5.206113">
        <ele>-3.159925</ele>
        <time>2026-08-29T16:59:52.908Z</time>
      </trkpt>
      <trkpt lat="52.355262" lon="5.206313">
        <ele>-3.165168</ele>
        <time>2026-08-29T16:59:55.908Z</time>
      </trkpt>
      <trkpt lat="52.355343" lon="5.206431">
        <ele>-3.169661</ele>
        <time>2026-08-29T16:59:58.901Z</time>
      </trkpt>
      <trkpt lat="52.355474" lon="5.206510">
        <ele>-3.165595</ele>
        <time>2026-08-29T17:00:01.900Z</time>
      </trkpt>
      <trkpt lat="52.355569" lon="5.206564">
        <ele>-3.161402</ele>
        <time>2026-08-29T17:00:03.900Z</time>
      </trkpt>
      <trkpt lat="52.355662" lon="5.206615">
        <ele>-3.157313</ele>
        <time>2026-08-29T17:00:05.901Z</time>
      </trkpt>
      <trkpt lat="52.355752" lon="5.206670">
        <ele>-3.153308</ele>
        <time>2026-08-29T17:00:07.901Z</time>
      </trkpt>
      <trkpt lat="52.355844" lon="5.206724">
        <ele>-3.149233</ele>
        <time>2026-08-29T17:00:09.896Z</time>
      </trkpt>
      <trkpt lat="52.355932" lon="5.206778">
        <ele>-3.145315</ele>
        <time>2026-08-29T17:00:11.896Z</time>
      </trkpt>
      <trkpt lat="52.356026" lon="5.206825">
        <ele>-3.141218</ele>
        <time>2026-08-29T17:00:13.896Z</time>
      </trkpt>
      <trkpt lat="52.356117" lon="5.206877">
        <ele>-3.137199</ele>
        <time>2026-08-29T17:00:15.896Z</time>
      </trkpt>
      <trkpt lat="52.356213" lon="5.206930">
        <ele>-3.132975</ele>
        <time>2026-08-29T17:00:17.910Z</time>
      </trkpt>
      <trkpt lat="52.356309" lon="5.206978">
        <ele>-3.128790</ele>
        <time>2026-08-29T17:00:19.896Z</time>
      </trkpt>
      <trkpt lat="52.356407" lon="5.207041">
        <ele>-3.124401</ele>
        <time>2026-08-29T17:00:21.908Z</time>
      </trkpt>
      <trkpt lat="52.356511" lon="5.207097">
        <ele>-3.119837</ele>
        <time>2026-08-29T17:00:23.897Z</time>
      </trkpt>
      <trkpt lat="52.356613" lon="5.207157">
        <ele>-3.115318</ele>
        <time>2026-08-29T17:00:25.896Z</time>
      </trkpt>
      <trkpt lat="52.356715" lon="5.207208">
        <ele>-3.110871</ele>
        <time>2026-08-29T17:00:27.896Z</time>
      </trkpt>
      <trkpt lat="52.356814" lon="5.207262">
        <ele>-3.106521</ele>
        <time>2026-08-29T17:00:29.900Z</time>
      </trkpt>
      <trkpt lat="52.356909" lon="5.207316">
        <ele>-3.102328</ele>
        <time>2026-08-29T17:00:31.895Z</time>
      </trkpt>
      <trkpt lat="52.357011" lon="5.207366">
        <ele>-3.097889</ele>
        <time>2026-08-29T17:00:33.900Z</time>
      </trkpt>
      <trkpt lat="52.357106" lon="5.207413">
        <ele>-3.101335</ele>
        <time>2026-08-29T17:00:35.896Z</time>
      </trkpt>
      <trkpt lat="52.357154" lon="5.207578">
        <ele>-3.116347</ele>
        <time>2026-08-29T17:00:38.894Z</time>
      </trkpt>
      <trkpt lat="52.357202" lon="5.207776">
        <ele>-3.133845</ele>
        <time>2026-08-29T17:00:41.901Z</time>
      </trkpt>
      <trkpt lat="52.357252" lon="5.207919">
        <ele>-3.147379</ele>
        <time>2026-08-29T17:00:43.901Z</time>
      </trkpt>
      <trkpt lat="52.357302" lon="5.208064">
        <ele>-3.161057</ele>
        <time>2026-08-29T17:00:45.900Z</time>
      </trkpt>
      <trkpt lat="52.357351" lon="5.208217">
        <ele>-3.175247</ele>
        <time>2026-08-29T17:00:47.897Z</time>
      </trkpt>
      <trkpt lat="52.357398" lon="5.208365">
        <ele>-3.188949</ele>
        <time>2026-08-29T17:00:49.900Z</time>
      </trkpt>
      <trkpt lat="52.357449" lon="5.208512">
        <ele>-3.202836</ele>
        <time>2026-08-29T17:00:51.901Z</time>
      </trkpt>
      <trkpt lat="52.357503" lon="5.208663">
        <ele>-3.217209</ele>
        <time>2026-08-29T17:00:53.895Z</time>
      </trkpt>
      <trkpt lat="52.357560" lon="5.208826">
        <ele>-3.232637</ele>
        <time>2026-08-29T17:00:55.901Z</time>
      </trkpt>
      <trkpt lat="52.357614" lon="5.208992">
        <ele>-3.248085</ele>
        <time>2026-08-29T17:00:57.900Z</time>
      </trkpt>
      <trkpt lat="52.357667" lon="5.209153">
        <ele>-3.263108</ele>
        <time>2026-08-29T17:00:59.895Z</time>
      </trkpt>
      <trkpt lat="52.357721" lon="5.209316">
        <ele>-3.278340</ele>
        <time>2026-08-29T17:01:01.901Z</time>
      </trkpt>
      <trkpt lat="52.357776" lon="5.209487">
        <ele>-3.294214</ele>
        <time>2026-08-29T17:01:03.901Z</time>
      </trkpt>
      <trkpt lat="52.357835" lon="5.209655">
        <ele>-3.310132</ele>
        <time>2026-08-29T17:01:05.901Z</time>
      </trkpt>
      <trkpt lat="52.357888" lon="5.209822">
        <ele>-3.325591</ele>
        <time>2026-08-29T17:01:07.901Z</time>
      </trkpt>
      <trkpt lat="52.357946" lon="5.209979">
        <ele>-3.318880</ele>
        <time>2026-08-29T17:01:09.902Z</time>
      </trkpt>
      <trkpt lat="52.358002" lon="5.210137">
        <ele>-3.232146</ele>
        <time>2026-08-29T17:01:11.898Z</time>
      </trkpt>
      <trkpt lat="52.358054" lon="5.210296">
        <ele>-3.146511</ele>
        <time>2026-08-29T17:01:13.902Z</time>
      </trkpt>
      <trkpt lat="52.358107" lon="5.210466">
        <ele>-3.055889</ele>
        <time>2026-08-29T17:01:15.902Z</time>
      </trkpt>
      <trkpt lat="52.358159" lon="5.210631">
        <ele>-2.967733</ele>
        <time>2026-08-29T17:01:17.900Z</time>
      </trkpt>
      <trkpt lat="52.358205" lon="5.210794">
        <ele>-2.882479</ele>
        <time>2026-08-29T17:01:19.897Z</time>
      </trkpt>
      <trkpt lat="52.358225" lon="5.210975">
        <ele>-2.795148</ele>
        <time>2026-08-29T17:01:21.901Z</time>
      </trkpt>
      <trkpt lat="52.358197" lon="5.211143">
        <ele>-2.712466</ele>
        <time>2026-08-29T17:01:23.899Z</time>
      </trkpt>
      <trkpt lat="52.358165" lon="5.211297">
        <ele>-2.635233</ele>
        <time>2026-08-29T17:01:25.902Z</time>
      </trkpt>
      <trkpt lat="52.358162" lon="5.211452">
        <ele>-2.561604</ele>
        <time>2026-08-29T17:01:27.896Z</time>
      </trkpt>
      <trkpt lat="52.358223" lon="5.211568">
        <ele>-2.488925</ele>
        <time>2026-08-29T17:01:29.897Z</time>
      </trkpt>
      <trkpt lat="52.358308" lon="5.211622">
        <ele>-2.418045</ele>
        <time>2026-08-29T17:01:31.900Z</time>
      </trkpt>
      <trkpt lat="52.358427" lon="5.211706">
        <ele>-2.317301</ele>
        <time>2026-08-29T17:01:34.902Z</time>
      </trkpt>
      <trkpt lat="52.358511" lon="5.211763">
        <ele>-2.246613</ele>
        <time>2026-08-29T17:01:37.902Z</time>
      </trkpt>
      <trkpt lat="52.358616" lon="5.211853">
        <ele>-2.154476</ele>
        <time>2026-08-29T17:01:40.902Z</time>
      </trkpt>
      <trkpt lat="52.358682" lon="5.211958">
        <ele>-2.082936</ele>
        <time>2026-08-29T17:01:42.901Z</time>
      </trkpt>
      <trkpt lat="52.358726" lon="5.212087">
        <ele>-2.012784</ele>
        <time>2026-08-29T17:01:44.897Z</time>
      </trkpt>
      <trkpt lat="52.358789" lon="5.212261">
        <ele>-1.955258</ele>
        <time>2026-08-29T17:01:47.902Z</time>
      </trkpt>
      <trkpt lat="52.358885" lon="5.212398">
        <ele>-2.026438</ele>
        <time>2026-08-29T17:01:50.901Z</time>
      </trkpt>
      <trkpt lat="52.359017" lon="5.212447">
        <ele>-2.102093</ele>
        <time>2026-08-29T17:01:53.900Z</time>
      </trkpt>
      <trkpt lat="52.359107" lon="5.212493">
        <ele>-2.154793</ele>
        <time>2026-08-29T17:01:55.897Z</time>
      </trkpt>
      <trkpt lat="52.359166" lon="5.212620">
        <ele>-2.209264</ele>
        <time>2026-08-29T17:01:57.895Z</time>
      </trkpt>
      <trkpt lat="52.359209" lon="5.212761">
        <ele>-2.263064</ele>
        <time>2026-08-29T17:01:59.901Z</time>
      </trkpt>
      <trkpt lat="52.359254" lon="5.212897">
        <ele>-2.315865</ele>
        <time>2026-08-29T17:02:01.901Z</time>
      </trkpt>
      <trkpt lat="52.359312" lon="5.213010">
        <ele>-2.366254</ele>
        <time>2026-08-29T17:02:03.900Z</time>
      </trkpt>
      <trkpt lat="52.359434" lon="5.212974">
        <ele>-2.435545</ele>
        <time>2026-08-29T17:02:06.901Z</time>
      </trkpt>
      <trkpt lat="52.359512" lon="5.212899">
        <ele>-2.486106</ele>
        <time>2026-08-29T17:02:08.895Z</time>
      </trkpt>
      <trkpt lat="52.359597" lon="5.212825">
        <ele>-2.539915</ele>
        <time>2026-08-29T17:02:10.901Z</time>
      </trkpt>
      <trkpt lat="52.359682" lon="5.212752">
        <ele>-2.593565</ele>
        <time>2026-08-29T17:02:12.894Z</time>
      </trkpt>
      <trkpt lat="52.359765" lon="5.212674">
        <ele>-2.647057</ele>
        <time>2026-08-29T17:02:14.901Z</time>
      </trkpt>
      <trkpt lat="52.359848" lon="5.212599">
        <ele>-2.700046</ele>
        <time>2026-08-29T17:02:16.894Z</time>
      </trkpt>
      <trkpt lat="52.359934" lon="5.212520">
        <ele>-2.755164</ele>
        <time>2026-08-29T17:02:18.897Z</time>
      </trkpt>
      <trkpt lat="52.360026" lon="5.212450">
        <ele>-2.811869</ele>
        <time>2026-08-29T17:02:20.894Z</time>
      </trkpt>
      <trkpt lat="52.360118" lon="5.212364">
        <ele>-2.871083</ele>
        <time>2026-08-29T17:02:22.901Z</time>
      </trkpt>
      <trkpt lat="52.360213" lon="5.212275">
        <ele>-2.932260</ele>
        <time>2026-08-29T17:02:24.895Z</time>
      </trkpt>
      <trkpt lat="52.360313" lon="5.212190">
        <ele>-2.957364</ele>
        <time>2026-08-29T17:02:26.901Z</time>
      </trkpt>
      <trkpt lat="52.360407" lon="5.212101">
        <ele>-2.972732</ele>
        <time>2026-08-29T17:02:28.901Z</time>
      </trkpt>
      <trkpt lat="52.360497" lon="5.212018">
        <ele>-2.987352</ele>
        <time>2026-08-29T17:02:30.902Z</time>
      </trkpt>
      <trkpt lat="52.360592" lon="5.211933">
        <ele>-3.002675</ele>
        <time>2026-08-29T17:02:32.906Z</time>
      </trkpt>
      <trkpt lat="52.360682" lon="5.211849">
        <ele>-3.017337</ele>
        <time>2026-08-29T17:02:34.900Z</time>
      </trkpt>
      <trkpt lat="52.360774" lon="5.211768">
        <ele>-3.032122</ele>
        <time>2026-08-29T17:02:36.901Z</time>
      </trkpt>
      <trkpt lat="52.360865" lon="5.211685">
        <ele>-3.046865</ele>
        <time>2026-08-29T17:02:38.900Z</time>
      </trkpt>
      <trkpt lat="52.360953" lon="5.211602">
        <ele>-3.061239</ele>
        <time>2026-08-29T17:02:40.895Z</time>
      </trkpt>
      <trkpt lat="52.361045" lon="5.211512">
        <ele>-3.076408</ele>
        <time>2026-08-29T17:02:42.901Z</time>
      </trkpt>
      <trkpt lat="52.361143" lon="5.211427">
        <ele>-3.092104</ele>
        <time>2026-08-29T17:02:44.901Z</time>
      </trkpt>
      <trkpt lat="52.361242" lon="5.211339">
        <ele>-3.108048</ele>
        <time>2026-08-29T17:02:46.900Z</time>
      </trkpt>
      <trkpt lat="52.361345" lon="5.211255">
        <ele>-3.124335</ele>
        <time>2026-08-29T17:02:48.900Z</time>
      </trkpt>
      <trkpt lat="52.361454" lon="5.211239">
        <ele>-3.139824</ele>
        <time>2026-08-29T17:02:50.895Z</time>
      </trkpt>
      <trkpt lat="52.361565" lon="5.211303">
        <ele>-3.156481</ele>
        <time>2026-08-29T17:02:52.901Z</time>
      </trkpt>
      <trkpt lat="52.361669" lon="5.211364">
        <ele>-3.172117</ele>
        <time>2026-08-29T17:02:54.901Z</time>
      </trkpt>
      <trkpt lat="52.361777" lon="5.211417">
        <ele>-3.188074</ele>
        <time>2026-08-29T17:02:56.897Z</time>
      </trkpt>
      <trkpt lat="52.361881" lon="5.211478">
        <ele>-3.193367</ele>
        <time>2026-08-29T17:02:58.902Z</time>
      </trkpt>
      <trkpt lat="52.361992" lon="5.211536">
        <ele>-3.172855</ele>
        <time>2026-08-29T17:03:00.901Z</time>
      </trkpt>
      <trkpt lat="52.362101" lon="5.211594">
        <ele>-3.152679</ele>
        <time>2026-08-29T17:03:02.901Z</time>
      </trkpt>
      <trkpt lat="52.362209" lon="5.211657">
        <ele>-3.132495</ele>
        <time>2026-08-29T17:03:04.900Z</time>
      </trkpt>
      <trkpt lat="52.362316" lon="5.211719">
        <ele>-3.112514</ele>
        <time>2026-08-29T17:03:06.895Z</time>
      </trkpt>
      <trkpt lat="52.362423" lon="5.211780">
        <ele>-3.092568</ele>
        <time>2026-08-29T17:03:08.902Z</time>
      </trkpt>
      <trkpt lat="52.362530" lon="5.211839">
        <ele>-3.072692</ele>
        <time>2026-08-29T17:03:10.902Z</time>
      </trkpt>
      <trkpt lat="52.362638" lon="5.211893">
        <ele>-3.052813</ele>
        <time>2026-08-29T17:03:12.902Z</time>
      </trkpt>
      <trkpt lat="52.362745" lon="5.211952">
        <ele>-3.032937</ele>
        <time>2026-08-29T17:03:14.902Z</time>
      </trkpt>
      <trkpt lat="52.362852" lon="5.212019">
        <ele>-3.012770</ele>
        <time>2026-08-29T17:03:16.902Z</time>
      </trkpt>
      <trkpt lat="52.362960" lon="5.212080">
        <ele>-2.992658</ele>
        <time>2026-08-29T17:03:18.902Z</time>
      </trkpt>
      <trkpt lat="52.363068" lon="5.212135">
        <ele>-2.972747</ele>
        <time>2026-08-29T17:03:20.902Z</time>
      </trkpt>
      <trkpt lat="52.363177" lon="5.212172">
        <ele>-2.953150</ele>
        <time>2026-08-29T17:03:22.902Z</time>
      </trkpt>
      <trkpt lat="52.363289" lon="5.212184">
        <ele>-2.933391</ele>
        <time>2026-08-29T17:03:24.898Z</time>
      </trkpt>
      <trkpt lat="52.363398" lon="5.212197">
        <ele>-2.914151</ele>
        <time>2026-08-29T17:03:26.902Z</time>
      </trkpt>
      <trkpt lat="52.363500" lon="5.212213">
        <ele>-2.896112</ele>
        <time>2026-08-29T17:03:28.901Z</time>
      </trkpt>
      <trkpt lat="52.363604" lon="5.212246">
        <ele>-2.877129</ele>
        <time>2026-08-29T17:03:30.902Z</time>
      </trkpt>
      <trkpt lat="52.363705" lon="5.212298">
        <ele>-2.857244</ele>
        <time>2026-08-29T17:03:32.895Z</time>
      </trkpt>
      <trkpt lat="52.363797" lon="5.212348">
        <ele>-2.839038</ele>
        <time>2026-08-29T17:03:34.902Z</time>
      </trkpt>
      <trkpt lat="52.363911" lon="5.212398">
        <ele>-2.816872</ele>
        <time>2026-08-29T17:03:37.902Z</time>
      </trkpt>
      <trkpt lat="52.364027" lon="5.212463">
        <ele>-2.793846</ele>
        <time>2026-08-29T17:03:40.902Z</time>
      </trkpt>
      <trkpt lat="52.364123" lon="5.212507">
        <ele>-2.775122</ele>
        <time>2026-08-29T17:03:42.895Z</time>
      </trkpt>
      <trkpt lat="52.364231" lon="5.212558">
        <ele>-2.754012</ele>
        <time>2026-08-29T17:03:44.901Z</time>
      </trkpt>
      <trkpt lat="52.364345" lon="5.212617">
        <ele>-2.731557</ele>
        <time>2026-08-29T17:03:46.901Z</time>
      </trkpt>
      <trkpt lat="52.364461" lon="5.212684">
        <ele>-2.708455</ele>
        <time>2026-08-29T17:03:48.897Z</time>
      </trkpt>
      <trkpt lat="52.364573" lon="5.212752">
        <ele>-2.686020</ele>
        <time>2026-08-29T17:03:50.896Z</time>
      </trkpt>
      <trkpt lat="52.364681" lon="5.212815">
        <ele>-2.664488</ele>
        <time>2026-08-29T17:03:52.909Z</time>
      </trkpt>
      <trkpt lat="52.364792" lon="5.212873">
        <ele>-2.642605</ele>
        <time>2026-08-29T17:03:54.897Z</time>
      </trkpt>
      <trkpt lat="52.364905" lon="5.212931">
        <ele>-2.620364</ele>
        <time>2026-08-29T17:03:56.909Z</time>
      </trkpt>
      <trkpt lat="52.365012" lon="5.212994">
        <ele>-2.599008</ele>
        <time>2026-08-29T17:03:58.902Z</time>
      </trkpt>
      <trkpt lat="52.365115" lon="5.213050">
        <ele>-2.578625</ele>
        <time>2026-08-29T17:04:00.896Z</time>
      </trkpt>
      <trkpt lat="52.365217" lon="5.213107">
        <ele>-2.558383</ele>
        <time>2026-08-29T17:04:02.902Z</time>
      </trkpt>
      <trkpt lat="52.365319" lon="5.213140">
        <ele>-2.532949</ele>
        <time>2026-08-29T17:04:04.901Z</time>
      </trkpt>
      <trkpt lat="52.365420" lon="5.213127">
        <ele>-2.494506</ele>
        <time>2026-08-29T17:04:06.901Z</time>
      </trkpt>
      <trkpt lat="52.365522" lon="5.213084">
        <ele>-2.454539</ele>
        <time>2026-08-29T17:04:08.895Z</time>
      </trkpt>
      <trkpt lat="52.365627" lon="5.213029">
        <ele>-2.412707</ele>
        <time>2026-08-29T17:04:10.901Z</time>
      </trkpt>
      <trkpt lat="52.365732" lon="5.212987">
        <ele>-2.371693</ele>
        <time>2026-08-29T17:04:12.902Z</time>
      </trkpt>
      <trkpt lat="52.365834" lon="5.212955">
        <ele>-2.332285</ele>
        <time>2026-08-29T17:04:14.897Z</time>
      </trkpt>
      <trkpt lat="52.365936" lon="5.212917">
        <ele>-2.292591</ele>
        <time>2026-08-29T17:04:16.901Z</time>
      </trkpt>
      <trkpt lat="52.366029" lon="5.212881">
        <ele>-2.256329</ele>
        <time>2026-08-29T17:04:18.901Z</time>
      </trkpt>
      <trkpt lat="52.366119" lon="5.212842">
        <ele>-2.221002</ele>
        <time>2026-08-29T17:04:20.902Z</time>
      </trkpt>
      <trkpt lat="52.366234" lon="5.212794">
        <ele>-2.175970</ele>
        <time>2026-08-29T17:04:23.894Z</time>
      </trkpt>
      <trkpt lat="52.366328" lon="5.212912">
        <ele>-2.131028</ele>
        <time>2026-08-29T17:04:27.901Z</time>
      </trkpt>
      <trkpt lat="52.366417" lon="5.213017">
        <ele>-2.089405</ele>
        <time>2026-08-29T17:04:31.897Z</time>
      </trkpt>
      <trkpt lat="52.366435" lon="5.213203">
        <ele>-2.045771</ele>
        <time>2026-08-29T17:04:34.901Z</time>
      </trkpt>
      <trkpt lat="52.366470" lon="5.213411">
        <ele>-1.995781</ele>
        <time>2026-08-29T17:04:37.896Z</time>
      </trkpt>
      <trkpt lat="52.366488" lon="5.213562">
        <ele>-1.960134</ele>
        <time>2026-08-29T17:04:39.895Z</time>
      </trkpt>
      <trkpt lat="52.366511" lon="5.213705">
        <ele>-1.925870</ele>
        <time>2026-08-29T17:04:41.901Z</time>
      </trkpt>
      <trkpt lat="52.366549" lon="5.213907">
        <ele>-1.876896</ele>
        <time>2026-08-29T17:04:44.901Z</time>
      </trkpt>
      <trkpt lat="52.366613" lon="5.214086">
        <ele>-1.752821</ele>
        <time>2026-08-29T17:04:47.901Z</time>
      </trkpt>
      <trkpt lat="52.366721" lon="5.214198">
        <ele>-1.593583</ele>
        <time>2026-08-29T17:04:50.903Z</time>
      </trkpt>
      <trkpt lat="52.366790" lon="5.214364">
        <ele>-1.440842</ele>
        <time>2026-08-29T17:04:53.900Z</time>
      </trkpt>
      <trkpt lat="52.366821" lon="5.214566">
        <ele>-1.282418</ele>
        <time>2026-08-29T17:04:56.901Z</time>
      </trkpt>
      <trkpt lat="52.366847" lon="5.214741">
        <ele>-1.145427</ele>
        <time>2026-08-29T17:04:59.896Z</time>
      </trkpt>
      <trkpt lat="52.366869" lon="5.214924">
        <ele>-1.003562</ele>
        <time>2026-08-29T17:05:03.902Z</time>
      </trkpt>
      <trkpt lat="52.366888" lon="5.215101">
        <ele>-0.866868</ele>
        <time>2026-08-29T17:05:07.902Z</time>
      </trkpt>
      <trkpt lat="52.366914" lon="5.215242">
        <ele>-0.754837</ele>
        <time>2026-08-29T17:05:10.894Z</time>
      </trkpt>
      <trkpt lat="52.366945" lon="5.215420">
        <ele>-0.614048</ele>
        <time>2026-08-29T17:05:14.901Z</time>
      </trkpt>
      <trkpt lat="52.366969" lon="5.215566">
        <ele>-0.499045</ele>
        <time>2026-08-29T17:05:17.896Z</time>
      </trkpt>
      <trkpt lat="52.366994" lon="5.215721">
        <ele>-0.377106</ele>
        <time>2026-08-29T17:05:20.897Z</time>
      </trkpt>
      <trkpt lat="52.367019" lon="5.215890">
        <ele>-0.244843</ele>
        <time>2026-08-29T17:05:23.901Z</time>
      </trkpt>
      <trkpt lat="52.367043" lon="5.216064">
        <ele>-0.109162</ele>
        <time>2026-08-29T17:05:26.900Z</time>
      </trkpt>
      <trkpt lat="52.367069" lon="5.216221">
        <ele>0.014569</ele>
        <time>2026-08-29T17:05:29.901Z</time>
      </trkpt>
      <trkpt lat="52.367086" lon="5.216384">
        <ele>0.140344</ele>
        <time>2026-08-29T17:05:33.900Z</time>
      </trkpt>
      <trkpt lat="52.367032" lon="5.216506">
        <ele>0.254955</ele>
        <time>2026-08-29T17:05:37.901Z</time>
      </trkpt>
      <trkpt lat="52.366952" lon="5.216635">
        <ele>0.384947</ele>
        <time>2026-08-29T17:05:41.902Z</time>
      </trkpt>
      <trkpt lat="52.366951" lon="5.216785">
        <ele>0.430468</ele>
        <time>2026-08-29T17:05:44.903Z</time>
      </trkpt>
      <trkpt lat="52.366965" lon="5.216934">
        <ele>0.476216</ele>
        <time>2026-08-29T17:05:47.897Z</time>
      </trkpt>
      <trkpt lat="52.366993" lon="5.217090">
        <ele>0.525558</ele>
        <time>2026-08-29T17:05:50.896Z</time>
      </trkpt>
      <trkpt lat="52.367011" lon="5.217269">
        <ele>0.580609</ele>
        <time>2026-08-29T17:05:53.898Z</time>
      </trkpt>
      <trkpt lat="52.367043" lon="5.217449">
        <ele>0.637499</ele>
        <time>2026-08-29T17:05:56.898Z</time>
      </trkpt>
      <trkpt lat="52.367071" lon="5.217640">
        <ele>0.697107</ele>
        <time>2026-08-29T17:05:59.900Z</time>
      </trkpt>
      <trkpt lat="52.367098" lon="5.217825">
        <ele>0.754828</ele>
        <time>2026-08-29T17:06:02.909Z</time>
      </trkpt>
      <trkpt lat="52.367135" lon="5.218007">
        <ele>0.813038</ele>
        <time>2026-08-29T17:06:05.902Z</time>
      </trkpt>
      <trkpt lat="52.367222" lon="5.218112">
        <ele>0.866748</ele>
        <time>2026-08-29T17:06:08.902Z</time>
      </trkpt>
      <trkpt lat="52.367326" lon="5.218108">
        <ele>0.918448</ele>
        <time>2026-08-29T17:06:11.902Z</time>
      </trkpt>
      <trkpt lat="52.367437" lon="5.218103">
        <ele>0.973634</ele>
        <time>2026-08-29T17:06:14.902Z</time>
      </trkpt>
      <trkpt lat="52.367652" lon="5.218081">
        <ele>1.080693</ele>
        <time>2026-08-29T17:06:56.894Z</time>
      </trkpt>
      <trkpt lat="52.367749" lon="5.218092">
        <ele>1.129016</ele>
        <time>2026-08-29T17:07:02.904Z</time>
      </trkpt>
      <trkpt lat="52.367794" lon="5.218231">
        <ele>1.176758</ele>
        <time>2026-08-29T17:07:11.905Z</time>
      </trkpt>
      <trkpt lat="52.367880" lon="5.218341">
        <ele>1.230989</ele>
        <time>2026-08-29T17:07:17.913Z</time>
      </trkpt>
      <trkpt lat="52.367977" lon="5.218401">
        <ele>1.248771</ele>
        <time>2026-08-29T17:07:22.901Z</time>
      </trkpt>
      <trkpt lat="52.368016" lon="5.218575">
        <ele>1.119353</ele>
        <time>2026-08-29T17:07:27.913Z</time>
      </trkpt>
      <trkpt lat="52.368051" lon="5.218733">
        <ele>1.001997</ele>
        <time>2026-08-29T17:07:31.894Z</time>
      </trkpt>
      <trkpt lat="52.368086" lon="5.218882">
        <ele>0.890528</ele>
        <time>2026-08-29T17:07:35.900Z</time>
      </trkpt>
      <trkpt lat="52.368116" lon="5.219044">
        <ele>0.772327</ele>
        <time>2026-08-29T17:07:39.905Z</time>
      </trkpt>
      <trkpt lat="52.368149" lon="5.219201">
        <ele>0.656392</ele>
        <time>2026-08-29T17:07:43.905Z</time>
      </trkpt>
      <trkpt lat="52.368179" lon="5.219356">
        <ele>0.542860</ele>
        <time>2026-08-29T17:07:47.905Z</time>
      </trkpt>
      <trkpt lat="52.368176" lon="5.219531">
        <ele>0.420622</ele>
        <time>2026-08-29T17:07:53.905Z</time>
      </trkpt>
      <trkpt lat="52.368198" lon="5.219693">
        <ele>0.304746</ele>
        <time>2026-08-29T17:07:58.899Z</time>
      </trkpt>
      <trkpt lat="52.368210" lon="5.219866">
        <ele>0.183176</ele>
        <time>2026-08-29T17:08:03.900Z</time>
      </trkpt>
      <trkpt lat="52.368201" lon="5.220022">
        <ele>0.073768</ele>
        <time>2026-08-29T17:08:07.901Z</time>
      </trkpt>
      <trkpt lat="52.368188" lon="5.220207">
        <ele>-0.056257</ele>
        <time>2026-08-29T17:08:11.897Z</time>
      </trkpt>
      <trkpt lat="52.368163" lon="5.220388">
        <ele>-0.185829</ele>
        <time>2026-08-29T17:08:15.904Z</time>
      </trkpt>
      <trkpt lat="52.368158" lon="5.220562">
        <ele>-0.307455</ele>
        <time>2026-08-29T17:08:18.905Z</time>
      </trkpt>
      <trkpt lat="52.368150" lon="5.220760">
        <ele>-0.446006</ele>
        <time>2026-08-29T17:08:21.904Z</time>
      </trkpt>
      <trkpt lat="52.368141" lon="5.220956">
        <ele>-0.583244</ele>
        <time>2026-08-29T17:08:24.904Z</time>
      </trkpt>
      <trkpt lat="52.368124" lon="5.221130">
        <ele>-0.706281</ele>
        <time>2026-08-29T17:08:27.904Z</time>
      </trkpt>
      <trkpt lat="52.368116" lon="5.221292">
        <ele>-0.787720</ele>
        <time>2026-08-29T17:08:30.904Z</time>
      </trkpt>
      <trkpt lat="52.368109" lon="5.221453">
        <ele>-0.797964</ele>
        <time>2026-08-29T17:08:33.905Z</time>
      </trkpt>
      <trkpt lat="52.368101" lon="5.221603">
        <ele>-0.807520</ele>
        <time>2026-08-29T17:08:36.905Z</time>
      </trkpt>
      <trkpt lat="52.368100" lon="5.221795">
        <ele>-0.819706</ele>
        <time>2026-08-29T17:08:40.905Z</time>
      </trkpt>
      <trkpt lat="52.368099" lon="5.221983">
        <ele>-0.831639</ele>
        <time>2026-08-29T17:08:44.904Z</time>
      </trkpt>
      <trkpt lat="52.368103" lon="5.222145">
        <ele>-0.841929</ele>
        <time>2026-08-29T17:08:48.904Z</time>
      </trkpt>
      <trkpt lat="52.368190" lon="5.222201">
        <ele>-0.851645</ele>
        <time>2026-08-29T17:08:56.905Z</time>
      </trkpt>
      <trkpt lat="52.368289" lon="5.222150">
        <ele>-0.862433</ele>
        <time>2026-08-29T17:09:01.905Z</time>
      </trkpt>
      <trkpt lat="52.368381" lon="5.222152">
        <ele>-0.871997</ele>
        <time>2026-08-29T17:09:06.900Z</time>
      </trkpt>
      <trkpt lat="52.368493" lon="5.222119">
        <ele>-0.883825</ele>
        <time>2026-08-29T17:09:10.905Z</time>
      </trkpt>
      <trkpt lat="52.368613" lon="5.222064">
        <ele>-0.896778</ele>
        <time>2026-08-29T17:09:14.904Z</time>
      </trkpt>
      <trkpt lat="52.368719" lon="5.222019">
        <ele>-0.908160</ele>
        <time>2026-08-29T17:09:17.905Z</time>
      </trkpt>
      <trkpt lat="52.368814" lon="5.221973">
        <ele>-0.918457</ele>
        <time>2026-08-29T17:09:20.906Z</time>
      </trkpt>
      <trkpt lat="52.368905" lon="5.222058">
        <ele>-0.929347</ele>
        <time>2026-08-29T17:09:24.898Z</time>
      </trkpt>
      <trkpt lat="52.368941" lon="5.222236">
        <ele>-0.941247</ele>
        <time>2026-08-29T17:09:28.899Z</time>
      </trkpt>
      <trkpt lat="52.369083" lon="5.222264">
        <ele>-0.956114</ele>
        <time>2026-08-29T17:10:28.911Z</time>
      </trkpt>
      <trkpt lat="52.369178" lon="5.222261">
        <ele>-0.965990</ele>
        <time>2026-08-29T17:10:31.899Z</time>
      </trkpt>
      <trkpt lat="52.369283" lon="5.222222">
        <ele>-0.843348</ele>
        <time>2026-08-29T17:10:35.903Z</time>
      </trkpt>
      <trkpt lat="52.369403" lon="5.222205">
        <ele>-0.562241</ele>
        <time>2026-08-29T17:10:39.902Z</time>
      </trkpt>
      <trkpt lat="52.369497" lon="5.222180">
        <ele>-0.339986</ele>
        <time>2026-08-29T17:10:42.904Z</time>
      </trkpt>
      <trkpt lat="52.369606" lon="5.222162">
        <ele>-0.084307</ele>
        <time>2026-08-29T17:10:46.897Z</time>
      </trkpt>
      <trkpt lat="52.369700" lon="5.222103">
        <ele>0.150632</ele>
        <time>2026-08-29T17:10:49.906Z</time>
      </trkpt>
      <trkpt lat="52.369791" lon="5.222023">
        <ele>0.391673</ele>
        <time>2026-08-29T17:10:52.905Z</time>
      </trkpt>
      <trkpt lat="52.369876" lon="5.221950">
        <ele>0.615668</ele>
        <time>2026-08-29T17:10:56.905Z</time>
      </trkpt>
      <trkpt lat="52.369883" lon="5.221788">
        <ele>0.847088</ele>
        <time>2026-08-29T17:11:02.898Z</time>
      </trkpt>
      <trkpt lat="52.369864" lon="5.221634">
        <ele>1.070967</ele>
        <time>2026-08-29T17:11:07.903Z</time>
      </trkpt>
      <trkpt lat="52.369855" lon="5.221442">
        <ele>1.345364</ele>
        <time>2026-08-29T17:11:11.905Z</time>
      </trkpt>
      <trkpt lat="52.369879" lon="5.221264">
        <ele>1.605117</ele>
        <time>2026-08-29T17:11:15.896Z</time>
      </trkpt>
      <trkpt lat="52.369864" lon="5.221080">
        <ele>1.869636</ele>
        <time>2026-08-29T17:11:20.903Z</time>
      </trkpt>
      <trkpt lat="52.369911" lon="5.220948">
        <ele>2.087377</ele>
        <time>2026-08-29T17:11:27.903Z</time>
      </trkpt>
      <trkpt lat="52.369945" lon="5.221086">
        <ele>2.299427</ele>
        <time>2026-08-29T17:11:40.904Z</time>
      </trkpt>
      <trkpt lat="52.369922" lon="5.221234">
        <ele>2.517045</ele>
        <time>2026-08-29T17:11:47.896Z</time>
      </trkpt>
      <trkpt lat="52.369903" lon="5.221089">
        <ele>2.728368</ele>
        <time>2026-08-29T17:12:16.897Z</time>
      </trkpt>
      <trkpt lat="52.369881" lon="5.220945">
        <ele>2.939888</ele>
        <time>2026-08-29T17:12:29.903Z</time>
      </trkpt>
      <trkpt lat="52.369873" lon="5.220776">
        <ele>3.181428</ele>
        <time>2026-08-29T17:12:34.903Z</time>
      </trkpt>
      <trkpt lat="52.369855" lon="5.220614">
        <ele>3.330141</ele>
        <time>2026-08-29T17:12:38.903Z</time>
      </trkpt>
      <trkpt lat="52.369833" lon="5.220465">
        <ele>3.449685</ele>
        <time>2026-08-29T17:12:42.903Z</time>
      </trkpt>
      <trkpt lat="52.369849" lon="5.220302">
        <ele>3.578430</ele>
        <time>2026-08-29T17:12:47.903Z</time>
      </trkpt>
      <trkpt lat="52.369890" lon="5.220158">
        <ele>3.702335</ele>
        <time>2026-08-29T17:12:53.897Z</time>
      </trkpt>
      <trkpt lat="52.369993" lon="5.220124">
        <ele>3.836535</ele>
        <time>2026-08-29T17:12:57.903Z</time>
      </trkpt>
      <trkpt lat="52.370100" lon="5.220123">
        <ele>3.973202</ele>
        <time>2026-08-29T17:13:01.903Z</time>
      </trkpt>
      <trkpt lat="52.370199" lon="5.220110">
        <ele>4.100054</ele>
        <time>2026-08-29T17:13:05.903Z</time>
      </trkpt>
      <trkpt lat="52.370282" lon="5.220035">
        <ele>4.221128</ele>
        <time>2026-08-29T17:13:08.900Z</time>
      </trkpt>
      <trkpt lat="52.370344" lon="5.219876">
        <ele>4.368249</ele>
        <time>2026-08-29T17:13:11.898Z</time>
      </trkpt>
      <trkpt lat="52.370382" lon="5.219711">
        <ele>4.505769</ele>
        <time>2026-08-29T17:13:14.896Z</time>
      </trkpt>
      <trkpt lat="52.370420" lon="5.219554">
        <ele>4.637471</ele>
        <time>2026-08-29T17:13:17.900Z</time>
      </trkpt>
      <trkpt lat="52.370452" lon="5.219401">
        <ele>4.763589</ele>
        <time>2026-08-29T17:13:20.899Z</time>
      </trkpt>
      <trkpt lat="52.370484" lon="5.219248">
        <ele>4.889708</ele>
        <time>2026-08-29T17:13:23.897Z</time>
      </trkpt>
      <trkpt lat="52.370511" lon="5.219102">
        <ele>5.008670</ele>
        <time>2026-08-29T17:13:26.898Z</time>
      </trkpt>
      <trkpt lat="52.370547" lon="5.218934">
        <ele>5.147514</ele>
        <time>2026-08-29T17:13:30.901Z</time>
      </trkpt>
      <trkpt lat="52.370578" lon="5.218795">
        <ele>5.262914</ele>
        <time>2026-08-29T17:13:34.900Z</time>
      </trkpt>
      <trkpt lat="52.370626" lon="5.218670">
        <ele>5.378068</ele>
        <time>2026-08-29T17:13:39.896Z</time>
      </trkpt>
      <trkpt lat="52.370710" lon="5.218586">
        <ele>5.503772</ele>
        <time>2026-08-29T17:13:44.900Z</time>
      </trkpt>
      <trkpt lat="52.370790" lon="5.218510">
        <ele>5.288626</ele>
        <time>2026-08-29T17:13:48.900Z</time>
      </trkpt>
      <trkpt lat="52.370884" lon="5.218453">
        <ele>4.982727</ele>
        <time>2026-08-29T17:13:53.897Z</time>
      </trkpt>
      <trkpt lat="52.370990" lon="5.218412">
        <ele>4.650337</ele>
        <time>2026-08-29T17:13:58.899Z</time>
      </trkpt>
      <trkpt lat="52.371081" lon="5.218366">
        <ele>4.359697</ele>
        <time>2026-08-29T17:14:02.897Z</time>
      </trkpt>
      <trkpt lat="52.371189" lon="5.218342">
        <ele>4.027082</ele>
        <time>2026-08-29T17:14:07.898Z</time>
      </trkpt>
      <trkpt lat="52.371261" lon="5.218246">
        <ele>3.743750</ele>
        <time>2026-08-29T17:14:12.902Z</time>
      </trkpt>
      <trkpt lat="52.371322" lon="5.218136">
        <ele>3.466868</ele>
        <time>2026-08-29T17:14:26.896Z</time>
      </trkpt>
      <trkpt lat="52.371364" lon="5.217999">
        <ele>3.181228</ele>
        <time>2026-08-29T17:14:35.897Z</time>
      </trkpt>
      <trkpt lat="52.371388" lon="5.217855">
        <ele>2.903102</ele>
        <time>2026-08-29T17:14:44.896Z</time>
      </trkpt>
      <trkpt lat="52.371474" lon="5.217810">
        <ele>2.627579</ele>
        <time>2026-08-29T17:14:50.896Z</time>
      </trkpt>
      <trkpt lat="52.371576" lon="5.217777">
        <ele>2.310279</ele>
        <time>2026-08-29T17:14:56.899Z</time>
      </trkpt>
      <trkpt lat="52.371662" lon="5.217736">
        <ele>2.036932</ele>
        <time>2026-08-29T17:15:01.900Z</time>
      </trkpt>
      <trkpt lat="52.371756" lon="5.217721">
        <ele>1.748703</ele>
        <time>2026-08-29T17:15:07.903Z</time>
      </trkpt>
      <trkpt lat="52.371652" lon="5.217722">
        <ele>1.431310</ele>
        <time>2026-08-29T17:15:19.902Z</time>
      </trkpt>
      <trkpt lat="52.371627" lon="5.217579">
        <ele>1.154158</ele>
        <time>2026-08-29T17:15:24.899Z</time>
      </trkpt>
      <trkpt lat="52.371598" lon="5.217401">
        <ele>0.810895</ele>
        <time>2026-08-29T17:15:29.902Z</time>
      </trkpt>
      <trkpt lat="52.371578" lon="5.217246">
        <ele>0.515712</ele>
        <time>2026-08-29T17:15:34.897Z</time>
      </trkpt>
      <trkpt lat="52.371625" lon="5.217109">
        <ele>0.222909</ele>
        <time>2026-08-29T17:15:40.900Z</time>
      </trkpt>
      <trkpt lat="52.371701" lon="5.216993">
        <ele>0.035292</ele>
        <time>2026-08-29T17:15:44.898Z</time>
      </trkpt>
      <trkpt lat="52.371747" lon="5.216860">
        <ele>0.037159</ele>
        <time>2026-08-29T17:15:48.897Z</time>
      </trkpt>
      <trkpt lat="52.371836" lon="5.216768">
        <ele>0.039263</ele>
        <time>2026-08-29T17:15:53.912Z</time>
      </trkpt>
      <trkpt lat="52.371926" lon="5.216736">
        <ele>0.041105</ele>
        <time>2026-08-29T17:15:57.900Z</time>
      </trkpt>
      <trkpt lat="52.371995" lon="5.216618">
        <ele>0.043100</ele>
        <time>2026-08-29T17:16:02.900Z</time>
      </trkpt>
      <trkpt lat="52.372000" lon="5.216470">
        <ele>0.044910</ele>
        <time>2026-08-29T17:16:06.900Z</time>
      </trkpt>
      <trkpt lat="52.372069" lon="5.216366">
        <ele>0.046785</ele>
        <time>2026-08-29T17:16:11.903Z</time>
      </trkpt>
      <trkpt lat="52.372166" lon="5.216335">
        <ele>0.048762</ele>
        <time>2026-08-29T17:16:15.897Z</time>
      </trkpt>
      <trkpt lat="52.372258" lon="5.216302">
        <ele>0.050645</ele>
        <time>2026-08-29T17:16:19.898Z</time>
      </trkpt>
      <trkpt lat="52.372370" lon="5.216252">
        <ele>0.052967</ele>
        <time>2026-08-29T17:16:23.903Z</time>
      </trkpt>
      <trkpt lat="52.372482" lon="5.216201">
        <ele>0.055292</ele>
        <time>2026-08-29T17:16:27.904Z</time>
      </trkpt>
      <trkpt lat="52.372582" lon="5.216166">
        <ele>0.057337</ele>
        <time>2026-08-29T17:16:31.897Z</time>
      </trkpt>
      <trkpt lat="52.372680" lon="5.216109">
        <ele>0.059416</ele>
        <time>2026-08-29T17:16:35.896Z</time>
      </trkpt>
      <trkpt lat="52.372794" lon="5.216060">
        <ele>0.061774</ele>
        <time>2026-08-29T17:16:39.898Z</time>
      </trkpt>
      <trkpt lat="52.372886" lon="5.216020">
        <ele>0.063677</ele>
        <time>2026-08-29T17:16:42.904Z</time>
      </trkpt>
      <trkpt lat="52.372979" lon="5.215983">
        <ele>0.065591</ele>
        <time>2026-08-29T17:16:45.904Z</time>
      </trkpt>
      <trkpt lat="52.373069" lon="5.215951">
        <ele>0.067433</ele>
        <time>2026-08-29T17:16:48.896Z</time>
      </trkpt>
      <trkpt lat="52.373159" lon="5.215927">
        <ele>0.069256</ele>
        <time>2026-08-29T17:16:51.903Z</time>
      </trkpt>
      <trkpt lat="52.373237" lon="5.216048">
        <ele>0.122669</ele>
        <time>2026-08-29T17:16:55.896Z</time>
      </trkpt>
      <trkpt lat="52.373257" lon="5.216222">
        <ele>0.237396</ele>
        <time>2026-08-29T17:16:59.898Z</time>
      </trkpt>
      <trkpt lat="52.373264" lon="5.216381">
        <ele>0.340691</ele>
        <time>2026-08-29T17:17:03.897Z</time>
      </trkpt>
      <trkpt lat="52.373291" lon="5.216524">
        <ele>0.437680</ele>
        <time>2026-08-29T17:17:06.900Z</time>
      </trkpt>
      <trkpt lat="52.373318" lon="5.216668">
        <ele>0.535288</ele>
        <time>2026-08-29T17:17:09.904Z</time>
      </trkpt>
      <trkpt lat="52.373338" lon="5.216827">
        <ele>0.640479</ele>
        <time>2026-08-29T17:17:12.904Z</time>
      </trkpt>
      <trkpt lat="52.373361" lon="5.216983">
        <ele>0.744467</ele>
        <time>2026-08-29T17:17:15.904Z</time>
      </trkpt>
      <trkpt lat="52.373384" lon="5.217126">
        <ele>0.840288</ele>
        <time>2026-08-29T17:17:18.898Z</time>
      </trkpt>
      <trkpt lat="52.373411" lon="5.217299">
        <ele>0.955990</ele>
        <time>2026-08-29T17:17:22.903Z</time>
      </trkpt>
      <trkpt lat="52.373473" lon="5.217422">
        <ele>1.059345</ele>
        <time>2026-08-29T17:17:28.906Z</time>
      </trkpt>
      <trkpt lat="52.373571" lon="5.217371">
        <ele>1.168480</ele>
        <time>2026-08-29T17:17:32.895Z</time>
      </trkpt>
      <trkpt lat="52.373664" lon="5.217331">
        <ele>1.270531</ele>
        <time>2026-08-29T17:17:35.895Z</time>
      </trkpt>
      <trkpt lat="52.373757" lon="5.217294">
        <ele>1.372106</ele>
        <time>2026-08-29T17:17:38.894Z</time>
      </trkpt>
      <trkpt lat="52.373846" lon="5.217259">
        <ele>1.469250</ele>
        <time>2026-08-29T17:17:41.904Z</time>
      </trkpt>
      <trkpt lat="52.373936" lon="5.217237">
        <ele>1.565829</ele>
        <time>2026-08-29T17:17:44.903Z</time>
      </trkpt>
      <trkpt lat="52.374042" lon="5.217201">
        <ele>1.680724</ele>
        <time>2026-08-29T17:17:48.903Z</time>
      </trkpt>
      <trkpt lat="52.374128" lon="5.217259">
        <ele>1.779434</ele>
        <time>2026-08-29T17:17:52.903Z</time>
      </trkpt>
      <trkpt lat="52.374144" lon="5.217442">
        <ele>1.899219</ele>
        <time>2026-08-29T17:17:56.903Z</time>
      </trkpt>
      <trkpt lat="52.374166" lon="5.217615">
        <ele>1.979401</ele>
        <time>2026-08-29T17:18:00.903Z</time>
      </trkpt>
      <trkpt lat="52.374223" lon="5.217754">
        <ele>1.979401</ele>
        <time>2026-08-29T17:18:05.896Z</time>
      </trkpt>
      <trkpt lat="52.374330" lon="5.217716">
        <ele>1.979401</ele>
        <time>2026-08-29T17:18:09.903Z</time>
      </trkpt>
      <trkpt lat="52.374445" lon="5.217667">
        <ele>1.979401</ele>
        <time>2026-08-29T17:18:13.903Z</time>
      </trkpt>
      <trkpt lat="52.374557" lon="5.217672">
        <ele>1.979401</ele>
        <time>2026-08-29T17:18:17.896Z</time>
      </trkpt>
      <trkpt lat="52.374652" lon="5.217607">
        <ele>1.979401</ele>
        <time>2026-08-29T17:18:22.895Z</time>
      </trkpt>
      <trkpt lat="52.374750" lon="5.217592">
        <ele>1.979401</ele>
        <time>2026-08-29T17:18:28.903Z</time>
      </trkpt>
      <trkpt lat="52.374780" lon="5.217749">
        <ele>1.979401</ele>
        <time>2026-08-29T17:18:33.903Z</time>
      </trkpt>
      <trkpt lat="52.374842" lon="5.217875">
        <ele>1.979401</ele>
        <time>2026-08-29T17:18:39.903Z</time>
      </trkpt>
      <trkpt lat="52.374919" lon="5.217960">
        <ele>1.979401</ele>
        <time>2026-08-29T17:18:50.893Z</time>
      </trkpt>
      <trkpt lat="52.375013" lon="5.217964">
        <ele>1.979401</ele>
        <time>2026-08-29T17:19:11.894Z</time>
      </trkpt>
      <trkpt lat="52.375108" lon="5.217947">
        <ele>1.979401</ele>
        <time>2026-08-29T17:19:14.895Z</time>
      </trkpt>
      <trkpt lat="52.375190" lon="5.218075">
        <ele>1.979401</ele>
        <time>2026-08-29T17:19:18.903Z</time>
      </trkpt>
      <trkpt lat="52.375201" lon="5.218223">
        <ele>1.979401</ele>
        <time>2026-08-29T17:19:22.903Z</time>
      </trkpt>
      <trkpt lat="52.375230" lon="5.218386">
        <ele>1.979401</ele>
        <time>2026-08-29T17:19:28.903Z</time>
      </trkpt>
      <trkpt lat="52.375284" lon="5.218510">
        <ele>1.979401</ele>
        <time>2026-08-29T17:19:31.896Z</time>
      </trkpt>
      <trkpt lat="52.375300" lon="5.218660">
        <ele>1.979401</ele>
        <time>2026-08-29T17:20:00.903Z</time>
      </trkpt>
      <trkpt lat="52.375291" lon="5.218814">
        <ele>1.979401</ele>
        <time>2026-08-29T17:20:06.896Z</time>
      </trkpt>
      <trkpt lat="52.375324" lon="5.218952">
        <ele>1.979401</ele>
        <time>2026-08-29T17:20:12.897Z</time>
      </trkpt>
      <trkpt lat="52.375328" lon="5.219303">
        <ele>1.979401</ele>
        <time>2026-08-29T17:20:31.894Z</time>
      </trkpt>
      <trkpt lat="52.375094" lon="5.218643">
        <ele>1.979401</ele>
        <time>2026-08-29T17:22:57.908Z</time>
      </trkpt>
    </trkseg>
  </trk>
</gpx>